<?xml version="1.0" encoding="UTF-8" standalone="no" ?>
<gpx xmlns="http://www.topografix.com/GPX/1/1" xmlns:xsi="http://www.w3.org/2001/XMLSchema-instance" xsi:schemaLocation="http://www.topografix.com/GPX/1/1 http://www.topografix.com/GPX/1/1/gpx.xsd" version="1.1" creator="VisuGPX - https://www.visugpx.com">
  <metadata>
    <name>MB. Sortie du 18/08/2019</name>
    <desc><![CDATA[Sortie VTT du dimanche 18 août 2019]]></desc>
  </metadata>
  <trk>
    <name><![CDATA[MB. Sortie du 18/08/2019_1]]></name>
    <trkseg>
      <trkpt lat="47.26429" lon="-2.31557">
        <ele>10.9</ele>
        <time>2019-08-18T06:58:30Z</time>
      </trkpt>
      <trkpt lat="47.26429" lon="-2.31557">
        <ele>52</ele>
        <time>2019-08-18T06:58:36Z</time>
      </trkpt>
      <trkpt lat="47.26422" lon="-2.31549">
        <ele>62</ele>
        <time>2019-08-18T06:58:59Z</time>
      </trkpt>
      <trkpt lat="47.26418" lon="-2.31548">
        <ele>58</ele>
        <time>2019-08-18T06:59:06Z</time>
      </trkpt>
      <trkpt lat="47.26414" lon="-2.31547">
        <ele>56</ele>
        <time>2019-08-18T06:59:14Z</time>
      </trkpt>
      <trkpt lat="47.2641" lon="-2.31552">
        <ele>54</ele>
        <time>2019-08-18T06:59:16Z</time>
      </trkpt>
      <trkpt lat="47.26407" lon="-2.31555">
        <ele>53</ele>
        <time>2019-08-18T06:59:17Z</time>
      </trkpt>
      <trkpt lat="47.26404" lon="-2.31564">
        <ele>53</ele>
        <time>2019-08-18T06:59:19Z</time>
      </trkpt>
      <trkpt lat="47.26404" lon="-2.31576">
        <ele>53</ele>
        <time>2019-08-18T06:59:21Z</time>
      </trkpt>
      <trkpt lat="47.26404" lon="-2.31588">
        <ele>54</ele>
        <time>2019-08-18T06:59:23Z</time>
      </trkpt>
      <trkpt lat="47.26404" lon="-2.316">
        <ele>55</ele>
        <time>2019-08-18T06:59:25Z</time>
      </trkpt>
      <trkpt lat="47.26404" lon="-2.31607">
        <ele>55</ele>
        <time>2019-08-18T06:59:26Z</time>
      </trkpt>
      <trkpt lat="47.26404" lon="-2.31614">
        <ele>54</ele>
        <time>2019-08-18T06:59:27Z</time>
      </trkpt>
      <trkpt lat="47.26404" lon="-2.31621">
        <ele>55</ele>
        <time>2019-08-18T06:59:28Z</time>
      </trkpt>
      <trkpt lat="47.26405" lon="-2.31627">
        <ele>55</ele>
        <time>2019-08-18T06:59:29Z</time>
      </trkpt>
      <trkpt lat="47.26406" lon="-2.31633">
        <ele>55</ele>
        <time>2019-08-18T06:59:30Z</time>
      </trkpt>
      <trkpt lat="47.26407" lon="-2.31645">
        <ele>54</ele>
        <time>2019-08-18T06:59:32Z</time>
      </trkpt>
      <trkpt lat="47.26407" lon="-2.31651">
        <ele>53</ele>
        <time>2019-08-18T06:59:33Z</time>
      </trkpt>
      <trkpt lat="47.26406" lon="-2.31662">
        <ele>54</ele>
        <time>2019-08-18T06:59:35Z</time>
      </trkpt>
      <trkpt lat="47.264" lon="-2.31669">
        <ele>53</ele>
        <time>2019-08-18T06:59:37Z</time>
      </trkpt>
      <trkpt lat="47.26392" lon="-2.3167">
        <ele>54</ele>
        <time>2019-08-18T06:59:39Z</time>
      </trkpt>
      <trkpt lat="47.26387" lon="-2.31671">
        <ele>54</ele>
        <time>2019-08-18T06:59:40Z</time>
      </trkpt>
      <trkpt lat="47.26382" lon="-2.31672">
        <ele>54</ele>
        <time>2019-08-18T06:59:41Z</time>
      </trkpt>
      <trkpt lat="47.26377" lon="-2.31674">
        <ele>55</ele>
        <time>2019-08-18T06:59:42Z</time>
      </trkpt>
      <trkpt lat="47.26372" lon="-2.31678">
        <ele>55</ele>
        <time>2019-08-18T06:59:43Z</time>
      </trkpt>
      <trkpt lat="47.26366" lon="-2.31681">
        <ele>55</ele>
        <time>2019-08-18T06:59:44Z</time>
      </trkpt>
      <trkpt lat="47.26361" lon="-2.31685">
        <ele>56</ele>
        <time>2019-08-18T06:59:45Z</time>
      </trkpt>
      <trkpt lat="47.26355" lon="-2.31688">
        <ele>56</ele>
        <time>2019-08-18T06:59:46Z</time>
      </trkpt>
      <trkpt lat="47.2635" lon="-2.31691">
        <ele>56</ele>
        <time>2019-08-18T06:59:47Z</time>
      </trkpt>
      <trkpt lat="47.26345" lon="-2.31695">
        <ele>57</ele>
        <time>2019-08-18T06:59:48Z</time>
      </trkpt>
      <trkpt lat="47.26331" lon="-2.317">
        <ele>57</ele>
        <time>2019-08-18T06:59:50Z</time>
      </trkpt>
      <trkpt lat="47.26313" lon="-2.31711">
        <ele>56</ele>
        <time>2019-08-18T06:59:53Z</time>
      </trkpt>
      <trkpt lat="47.26308" lon="-2.31714">
        <ele>56</ele>
        <time>2019-08-18T06:59:54Z</time>
      </trkpt>
      <trkpt lat="47.26302" lon="-2.31722">
        <ele>56</ele>
        <time>2019-08-18T06:59:56Z</time>
      </trkpt>
      <trkpt lat="47.263" lon="-2.31733">
        <ele>56</ele>
        <time>2019-08-18T06:59:58Z</time>
      </trkpt>
      <trkpt lat="47.263" lon="-2.31745">
        <ele>55</ele>
        <time>2019-08-18T07:00:00Z</time>
      </trkpt>
      <trkpt lat="47.263" lon="-2.3175">
        <ele>55</ele>
        <time>2019-08-18T07:00:01Z</time>
      </trkpt>
      <trkpt lat="47.26302" lon="-2.31767">
        <ele>55</ele>
        <time>2019-08-18T07:00:04Z</time>
      </trkpt>
      <trkpt lat="47.26302" lon="-2.3178">
        <ele>55</ele>
        <time>2019-08-18T07:00:06Z</time>
      </trkpt>
      <trkpt lat="47.26302" lon="-2.31788">
        <ele>55</ele>
        <time>2019-08-18T07:00:07Z</time>
      </trkpt>
      <trkpt lat="47.26303" lon="-2.31801">
        <ele>55</ele>
        <time>2019-08-18T07:00:09Z</time>
      </trkpt>
      <trkpt lat="47.26303" lon="-2.31808">
        <ele>55</ele>
        <time>2019-08-18T07:00:10Z</time>
      </trkpt>
      <trkpt lat="47.263" lon="-2.31818">
        <ele>55</ele>
        <time>2019-08-18T07:00:12Z</time>
      </trkpt>
      <trkpt lat="47.263" lon="-2.31832">
        <ele>55</ele>
        <time>2019-08-18T07:00:14Z</time>
      </trkpt>
      <trkpt lat="47.26299" lon="-2.3184">
        <ele>55</ele>
        <time>2019-08-18T07:00:15Z</time>
      </trkpt>
      <trkpt lat="47.26298" lon="-2.31855">
        <ele>55</ele>
        <time>2019-08-18T07:00:17Z</time>
      </trkpt>
      <trkpt lat="47.26299" lon="-2.31875">
        <ele>56</ele>
        <time>2019-08-18T07:00:20Z</time>
      </trkpt>
      <trkpt lat="47.26296" lon="-2.31885">
        <ele>56</ele>
        <time>2019-08-18T07:00:22Z</time>
      </trkpt>
      <trkpt lat="47.2629" lon="-2.31892">
        <ele>56</ele>
        <time>2019-08-18T07:00:24Z</time>
      </trkpt>
      <trkpt lat="47.26284" lon="-2.31898">
        <ele>56</ele>
        <time>2019-08-18T07:00:26Z</time>
      </trkpt>
      <trkpt lat="47.2628" lon="-2.31902">
        <ele>57</ele>
        <time>2019-08-18T07:00:27Z</time>
      </trkpt>
      <trkpt lat="47.26274" lon="-2.31909">
        <ele>57</ele>
        <time>2019-08-18T07:00:29Z</time>
      </trkpt>
      <trkpt lat="47.26269" lon="-2.31915">
        <ele>57</ele>
        <time>2019-08-18T07:00:31Z</time>
      </trkpt>
      <trkpt lat="47.26265" lon="-2.31925">
        <ele>57</ele>
        <time>2019-08-18T07:00:33Z</time>
      </trkpt>
      <trkpt lat="47.26257" lon="-2.3194">
        <ele>57</ele>
        <time>2019-08-18T07:00:36Z</time>
      </trkpt>
      <trkpt lat="47.26255" lon="-2.31945">
        <ele>57</ele>
        <time>2019-08-18T07:00:37Z</time>
      </trkpt>
      <trkpt lat="47.26248" lon="-2.31954">
        <ele>57</ele>
        <time>2019-08-18T07:00:39Z</time>
      </trkpt>
      <trkpt lat="47.26243" lon="-2.31956">
        <ele>57</ele>
        <time>2019-08-18T07:00:40Z</time>
      </trkpt>
      <trkpt lat="47.26239" lon="-2.31958">
        <ele>57</ele>
        <time>2019-08-18T07:00:41Z</time>
      </trkpt>
      <trkpt lat="47.26235" lon="-2.3196">
        <ele>57</ele>
        <time>2019-08-18T07:00:42Z</time>
      </trkpt>
      <trkpt lat="47.2623" lon="-2.31965">
        <ele>57</ele>
        <time>2019-08-18T07:00:44Z</time>
      </trkpt>
      <trkpt lat="47.26223" lon="-2.31974">
        <ele>57</ele>
        <time>2019-08-18T07:00:48Z</time>
      </trkpt>
      <trkpt lat="47.26221" lon="-2.31977">
        <ele>57</ele>
        <time>2019-08-18T07:00:49Z</time>
      </trkpt>
      <trkpt lat="47.26213" lon="-2.31989">
        <ele>58</ele>
        <time>2019-08-18T07:00:53Z</time>
      </trkpt>
      <trkpt lat="47.26205" lon="-2.32001">
        <ele>58</ele>
        <time>2019-08-18T07:00:57Z</time>
      </trkpt>
      <trkpt lat="47.26202" lon="-2.32008">
        <ele>59</ele>
        <time>2019-08-18T07:00:59Z</time>
      </trkpt>
      <trkpt lat="47.262" lon="-2.32013">
        <ele>59</ele>
        <time>2019-08-18T07:01:01Z</time>
      </trkpt>
      <trkpt lat="47.26197" lon="-2.32017">
        <ele>58</ele>
        <time>2019-08-18T07:01:04Z</time>
      </trkpt>
      <trkpt lat="47.2619" lon="-2.32017">
        <ele>59</ele>
        <time>2019-08-18T07:01:07Z</time>
      </trkpt>
      <trkpt lat="47.26181" lon="-2.32019">
        <ele>58</ele>
        <time>2019-08-18T07:01:10Z</time>
      </trkpt>
      <trkpt lat="47.26174" lon="-2.32023">
        <ele>58</ele>
        <time>2019-08-18T07:01:12Z</time>
      </trkpt>
      <trkpt lat="47.2617" lon="-2.32025">
        <ele>58</ele>
        <time>2019-08-18T07:01:13Z</time>
      </trkpt>
      <trkpt lat="47.26165" lon="-2.32029">
        <ele>57</ele>
        <time>2019-08-18T07:01:14Z</time>
      </trkpt>
      <trkpt lat="47.26158" lon="-2.32038">
        <ele>56</ele>
        <time>2019-08-18T07:01:16Z</time>
      </trkpt>
      <trkpt lat="47.26153" lon="-2.3205">
        <ele>55</ele>
        <time>2019-08-18T07:01:18Z</time>
      </trkpt>
      <trkpt lat="47.26151" lon="-2.32057">
        <ele>54</ele>
        <time>2019-08-18T07:01:19Z</time>
      </trkpt>
      <trkpt lat="47.26149" lon="-2.32063">
        <ele>53</ele>
        <time>2019-08-18T07:01:20Z</time>
      </trkpt>
      <trkpt lat="47.26147" lon="-2.32069">
        <ele>54</ele>
        <time>2019-08-18T07:01:21Z</time>
      </trkpt>
      <trkpt lat="47.26143" lon="-2.32083">
        <ele>54</ele>
        <time>2019-08-18T07:01:23Z</time>
      </trkpt>
      <trkpt lat="47.26141" lon="-2.32089">
        <ele>54</ele>
        <time>2019-08-18T07:01:24Z</time>
      </trkpt>
      <trkpt lat="47.26139" lon="-2.32095">
        <ele>54</ele>
        <time>2019-08-18T07:01:25Z</time>
      </trkpt>
      <trkpt lat="47.26137" lon="-2.32102">
        <ele>54</ele>
        <time>2019-08-18T07:01:26Z</time>
      </trkpt>
      <trkpt lat="47.26134" lon="-2.32116">
        <ele>55</ele>
        <time>2019-08-18T07:01:28Z</time>
      </trkpt>
      <trkpt lat="47.26132" lon="-2.32122">
        <ele>55</ele>
        <time>2019-08-18T07:01:29Z</time>
      </trkpt>
      <trkpt lat="47.2613" lon="-2.32129">
        <ele>55</ele>
        <time>2019-08-18T07:01:30Z</time>
      </trkpt>
      <trkpt lat="47.26127" lon="-2.32136">
        <ele>55</ele>
        <time>2019-08-18T07:01:31Z</time>
      </trkpt>
      <trkpt lat="47.26124" lon="-2.32142">
        <ele>55</ele>
        <time>2019-08-18T07:01:32Z</time>
      </trkpt>
      <trkpt lat="47.26122" lon="-2.32147">
        <ele>54</ele>
        <time>2019-08-18T07:01:33Z</time>
      </trkpt>
      <trkpt lat="47.26118" lon="-2.3216">
        <ele>54</ele>
        <time>2019-08-18T07:01:35Z</time>
      </trkpt>
      <trkpt lat="47.26116" lon="-2.32167">
        <ele>54</ele>
        <time>2019-08-18T07:01:36Z</time>
      </trkpt>
      <trkpt lat="47.26111" lon="-2.32181">
        <ele>54</ele>
        <time>2019-08-18T07:01:38Z</time>
      </trkpt>
      <trkpt lat="47.26108" lon="-2.32187">
        <ele>53</ele>
        <time>2019-08-18T07:01:39Z</time>
      </trkpt>
      <trkpt lat="47.26106" lon="-2.32193">
        <ele>53</ele>
        <time>2019-08-18T07:01:40Z</time>
      </trkpt>
      <trkpt lat="47.26103" lon="-2.322">
        <ele>53</ele>
        <time>2019-08-18T07:01:41Z</time>
      </trkpt>
      <trkpt lat="47.261" lon="-2.32206">
        <ele>53</ele>
        <time>2019-08-18T07:01:42Z</time>
      </trkpt>
      <trkpt lat="47.26096" lon="-2.32211">
        <ele>54</ele>
        <time>2019-08-18T07:01:43Z</time>
      </trkpt>
      <trkpt lat="47.26093" lon="-2.32216">
        <ele>54</ele>
        <time>2019-08-18T07:01:44Z</time>
      </trkpt>
      <trkpt lat="47.26089" lon="-2.32221">
        <ele>53</ele>
        <time>2019-08-18T07:01:45Z</time>
      </trkpt>
      <trkpt lat="47.26085" lon="-2.32226">
        <ele>53</ele>
        <time>2019-08-18T07:01:46Z</time>
      </trkpt>
      <trkpt lat="47.26081" lon="-2.3223">
        <ele>53</ele>
        <time>2019-08-18T07:01:47Z</time>
      </trkpt>
      <trkpt lat="47.26066" lon="-2.3225">
        <ele>53</ele>
        <time>2019-08-18T07:01:51Z</time>
      </trkpt>
      <trkpt lat="47.26062" lon="-2.32255">
        <ele>53</ele>
        <time>2019-08-18T07:01:52Z</time>
      </trkpt>
      <trkpt lat="47.26057" lon="-2.3226">
        <ele>53</ele>
        <time>2019-08-18T07:01:53Z</time>
      </trkpt>
      <trkpt lat="47.26045" lon="-2.32275">
        <ele>53</ele>
        <time>2019-08-18T07:01:56Z</time>
      </trkpt>
      <trkpt lat="47.26036" lon="-2.32282">
        <ele>53</ele>
        <time>2019-08-18T07:01:58Z</time>
      </trkpt>
      <trkpt lat="47.26032" lon="-2.32287">
        <ele>53</ele>
        <time>2019-08-18T07:01:59Z</time>
      </trkpt>
      <trkpt lat="47.26029" lon="-2.32292">
        <ele>53</ele>
        <time>2019-08-18T07:02:00Z</time>
      </trkpt>
      <trkpt lat="47.26024" lon="-2.32297">
        <ele>53</ele>
        <time>2019-08-18T07:02:01Z</time>
      </trkpt>
      <trkpt lat="47.2602" lon="-2.32302">
        <ele>53</ele>
        <time>2019-08-18T07:02:02Z</time>
      </trkpt>
      <trkpt lat="47.26016" lon="-2.32307">
        <ele>53</ele>
        <time>2019-08-18T07:02:03Z</time>
      </trkpt>
      <trkpt lat="47.26012" lon="-2.32312">
        <ele>53</ele>
        <time>2019-08-18T07:02:04Z</time>
      </trkpt>
      <trkpt lat="47.26008" lon="-2.32317">
        <ele>53</ele>
        <time>2019-08-18T07:02:05Z</time>
      </trkpt>
      <trkpt lat="47.26004" lon="-2.32322">
        <ele>53</ele>
        <time>2019-08-18T07:02:06Z</time>
      </trkpt>
      <trkpt lat="47.26" lon="-2.32327">
        <ele>53</ele>
        <time>2019-08-18T07:02:07Z</time>
      </trkpt>
      <trkpt lat="47.25992" lon="-2.32338">
        <ele>53</ele>
        <time>2019-08-18T07:02:09Z</time>
      </trkpt>
      <trkpt lat="47.25988" lon="-2.32344">
        <ele>54</ele>
        <time>2019-08-18T07:02:10Z</time>
      </trkpt>
      <trkpt lat="47.25984" lon="-2.32349">
        <ele>53</ele>
        <time>2019-08-18T07:02:11Z</time>
      </trkpt>
      <trkpt lat="47.25981" lon="-2.32355">
        <ele>53</ele>
        <time>2019-08-18T07:02:12Z</time>
      </trkpt>
      <trkpt lat="47.25977" lon="-2.32361">
        <ele>53</ele>
        <time>2019-08-18T07:02:13Z</time>
      </trkpt>
      <trkpt lat="47.25973" lon="-2.32366">
        <ele>53</ele>
        <time>2019-08-18T07:02:14Z</time>
      </trkpt>
      <trkpt lat="47.25966" lon="-2.32375">
        <ele>52</ele>
        <time>2019-08-18T07:02:16Z</time>
      </trkpt>
      <trkpt lat="47.25961" lon="-2.3238">
        <ele>52</ele>
        <time>2019-08-18T07:02:17Z</time>
      </trkpt>
      <trkpt lat="47.25958" lon="-2.32385">
        <ele>52</ele>
        <time>2019-08-18T07:02:18Z</time>
      </trkpt>
      <trkpt lat="47.2595" lon="-2.32395">
        <ele>52</ele>
        <time>2019-08-18T07:02:20Z</time>
      </trkpt>
      <trkpt lat="47.25946" lon="-2.324">
        <ele>51</ele>
        <time>2019-08-18T07:02:21Z</time>
      </trkpt>
      <trkpt lat="47.25942" lon="-2.32405">
        <ele>51</ele>
        <time>2019-08-18T07:02:22Z</time>
      </trkpt>
      <trkpt lat="47.25939" lon="-2.3241">
        <ele>52</ele>
        <time>2019-08-18T07:02:23Z</time>
      </trkpt>
      <trkpt lat="47.2593" lon="-2.3242">
        <ele>52</ele>
        <time>2019-08-18T07:02:25Z</time>
      </trkpt>
      <trkpt lat="47.25926" lon="-2.32425">
        <ele>52</ele>
        <time>2019-08-18T07:02:26Z</time>
      </trkpt>
      <trkpt lat="47.25922" lon="-2.3243">
        <ele>52</ele>
        <time>2019-08-18T07:02:27Z</time>
      </trkpt>
      <trkpt lat="47.25918" lon="-2.32435">
        <ele>53</ele>
        <time>2019-08-18T07:02:28Z</time>
      </trkpt>
      <trkpt lat="47.25915" lon="-2.32438">
        <ele>53</ele>
        <time>2019-08-18T07:02:29Z</time>
      </trkpt>
      <trkpt lat="47.25911" lon="-2.32443">
        <ele>53</ele>
        <time>2019-08-18T07:02:30Z</time>
      </trkpt>
      <trkpt lat="47.25908" lon="-2.32447">
        <ele>53</ele>
        <time>2019-08-18T07:02:31Z</time>
      </trkpt>
      <trkpt lat="47.25904" lon="-2.32452">
        <ele>53</ele>
        <time>2019-08-18T07:02:32Z</time>
      </trkpt>
      <trkpt lat="47.25901" lon="-2.32456">
        <ele>54</ele>
        <time>2019-08-18T07:02:33Z</time>
      </trkpt>
      <trkpt lat="47.25897" lon="-2.3246">
        <ele>54</ele>
        <time>2019-08-18T07:02:34Z</time>
      </trkpt>
      <trkpt lat="47.25893" lon="-2.32464">
        <ele>54</ele>
        <time>2019-08-18T07:02:35Z</time>
      </trkpt>
      <trkpt lat="47.25884" lon="-2.32469">
        <ele>54</ele>
        <time>2019-08-18T07:02:37Z</time>
      </trkpt>
      <trkpt lat="47.2588" lon="-2.32471">
        <ele>54</ele>
        <time>2019-08-18T07:02:38Z</time>
      </trkpt>
      <trkpt lat="47.2587" lon="-2.32475">
        <ele>54</ele>
        <time>2019-08-18T07:02:40Z</time>
      </trkpt>
      <trkpt lat="47.25864" lon="-2.32476">
        <ele>54</ele>
        <time>2019-08-18T07:02:41Z</time>
      </trkpt>
      <trkpt lat="47.25854" lon="-2.32476">
        <ele>55</ele>
        <time>2019-08-18T07:02:43Z</time>
      </trkpt>
      <trkpt lat="47.25848" lon="-2.32475">
        <ele>55</ele>
        <time>2019-08-18T07:02:44Z</time>
      </trkpt>
      <trkpt lat="47.25843" lon="-2.32474">
        <ele>55</ele>
        <time>2019-08-18T07:02:45Z</time>
      </trkpt>
      <trkpt lat="47.25838" lon="-2.32473">
        <ele>55</ele>
        <time>2019-08-18T07:02:46Z</time>
      </trkpt>
      <trkpt lat="47.25833" lon="-2.3247">
        <ele>55</ele>
        <time>2019-08-18T07:02:47Z</time>
      </trkpt>
      <trkpt lat="47.25827" lon="-2.32468">
        <ele>55</ele>
        <time>2019-08-18T07:02:48Z</time>
      </trkpt>
      <trkpt lat="47.25822" lon="-2.32464">
        <ele>54</ele>
        <time>2019-08-18T07:02:49Z</time>
      </trkpt>
      <trkpt lat="47.25817" lon="-2.32462">
        <ele>54</ele>
        <time>2019-08-18T07:02:50Z</time>
      </trkpt>
      <trkpt lat="47.25813" lon="-2.3246">
        <ele>54</ele>
        <time>2019-08-18T07:02:51Z</time>
      </trkpt>
      <trkpt lat="47.25808" lon="-2.32459">
        <ele>54</ele>
        <time>2019-08-18T07:02:52Z</time>
      </trkpt>
      <trkpt lat="47.25804" lon="-2.32458">
        <ele>54</ele>
        <time>2019-08-18T07:02:53Z</time>
      </trkpt>
      <trkpt lat="47.25799" lon="-2.32458">
        <ele>54</ele>
        <time>2019-08-18T07:02:54Z</time>
      </trkpt>
      <trkpt lat="47.25795" lon="-2.32458">
        <ele>54</ele>
        <time>2019-08-18T07:02:55Z</time>
      </trkpt>
      <trkpt lat="47.25782" lon="-2.32455">
        <ele>53</ele>
        <time>2019-08-18T07:02:58Z</time>
      </trkpt>
      <trkpt lat="47.25779" lon="-2.32451">
        <ele>53</ele>
        <time>2019-08-18T07:02:59Z</time>
      </trkpt>
      <trkpt lat="47.25775" lon="-2.32446">
        <ele>53</ele>
        <time>2019-08-18T07:03:00Z</time>
      </trkpt>
      <trkpt lat="47.25773" lon="-2.3244">
        <ele>53</ele>
        <time>2019-08-18T07:03:01Z</time>
      </trkpt>
      <trkpt lat="47.25766" lon="-2.32431">
        <ele>53</ele>
        <time>2019-08-18T07:03:03Z</time>
      </trkpt>
      <trkpt lat="47.25756" lon="-2.32427">
        <ele>53</ele>
        <time>2019-08-18T07:03:05Z</time>
      </trkpt>
      <trkpt lat="47.25751" lon="-2.32427">
        <ele>53</ele>
        <time>2019-08-18T07:03:06Z</time>
      </trkpt>
      <trkpt lat="47.25745" lon="-2.32427">
        <ele>53</ele>
        <time>2019-08-18T07:03:07Z</time>
      </trkpt>
      <trkpt lat="47.25734" lon="-2.32427">
        <ele>54</ele>
        <time>2019-08-18T07:03:09Z</time>
      </trkpt>
      <trkpt lat="47.25728" lon="-2.32426">
        <ele>54</ele>
        <time>2019-08-18T07:03:10Z</time>
      </trkpt>
      <trkpt lat="47.25723" lon="-2.32426">
        <ele>54</ele>
        <time>2019-08-18T07:03:11Z</time>
      </trkpt>
      <trkpt lat="47.25718" lon="-2.32426">
        <ele>54</ele>
        <time>2019-08-18T07:03:12Z</time>
      </trkpt>
      <trkpt lat="47.25712" lon="-2.32425">
        <ele>54</ele>
        <time>2019-08-18T07:03:13Z</time>
      </trkpt>
      <trkpt lat="47.25706" lon="-2.32424">
        <ele>55</ele>
        <time>2019-08-18T07:03:14Z</time>
      </trkpt>
      <trkpt lat="47.257" lon="-2.32423">
        <ele>55</ele>
        <time>2019-08-18T07:03:15Z</time>
      </trkpt>
      <trkpt lat="47.25695" lon="-2.32423">
        <ele>56</ele>
        <time>2019-08-18T07:03:16Z</time>
      </trkpt>
      <trkpt lat="47.2569" lon="-2.32423">
        <ele>56</ele>
        <time>2019-08-18T07:03:17Z</time>
      </trkpt>
      <trkpt lat="47.25684" lon="-2.32422">
        <ele>56</ele>
        <time>2019-08-18T07:03:18Z</time>
      </trkpt>
      <trkpt lat="47.25675" lon="-2.3242">
        <ele>56</ele>
        <time>2019-08-18T07:03:20Z</time>
      </trkpt>
      <trkpt lat="47.25666" lon="-2.32423">
        <ele>57</ele>
        <time>2019-08-18T07:03:22Z</time>
      </trkpt>
      <trkpt lat="47.25661" lon="-2.32434">
        <ele>57</ele>
        <time>2019-08-18T07:03:24Z</time>
      </trkpt>
      <trkpt lat="47.25662" lon="-2.32441">
        <ele>57</ele>
        <time>2019-08-18T07:03:25Z</time>
      </trkpt>
      <trkpt lat="47.25663" lon="-2.32448">
        <ele>57</ele>
        <time>2019-08-18T07:03:26Z</time>
      </trkpt>
      <trkpt lat="47.25665" lon="-2.32454">
        <ele>57</ele>
        <time>2019-08-18T07:03:27Z</time>
      </trkpt>
      <trkpt lat="47.25666" lon="-2.32461">
        <ele>56</ele>
        <time>2019-08-18T07:03:28Z</time>
      </trkpt>
      <trkpt lat="47.25667" lon="-2.32468">
        <ele>56</ele>
        <time>2019-08-18T07:03:29Z</time>
      </trkpt>
      <trkpt lat="47.25669" lon="-2.32474">
        <ele>57</ele>
        <time>2019-08-18T07:03:30Z</time>
      </trkpt>
      <trkpt lat="47.25673" lon="-2.32485">
        <ele>57</ele>
        <time>2019-08-18T07:03:32Z</time>
      </trkpt>
      <trkpt lat="47.25675" lon="-2.32491">
        <ele>57</ele>
        <time>2019-08-18T07:03:33Z</time>
      </trkpt>
      <trkpt lat="47.25677" lon="-2.32497">
        <ele>57</ele>
        <time>2019-08-18T07:03:34Z</time>
      </trkpt>
      <trkpt lat="47.25679" lon="-2.32503">
        <ele>57</ele>
        <time>2019-08-18T07:03:35Z</time>
      </trkpt>
      <trkpt lat="47.2568" lon="-2.32508">
        <ele>57</ele>
        <time>2019-08-18T07:03:36Z</time>
      </trkpt>
      <trkpt lat="47.25682" lon="-2.32514">
        <ele>57</ele>
        <time>2019-08-18T07:03:37Z</time>
      </trkpt>
      <trkpt lat="47.25687" lon="-2.32532">
        <ele>57</ele>
        <time>2019-08-18T07:03:40Z</time>
      </trkpt>
      <trkpt lat="47.25689" lon="-2.32537">
        <ele>57</ele>
        <time>2019-08-18T07:03:41Z</time>
      </trkpt>
      <trkpt lat="47.25693" lon="-2.32549">
        <ele>57</ele>
        <time>2019-08-18T07:03:43Z</time>
      </trkpt>
      <trkpt lat="47.25696" lon="-2.3256">
        <ele>56</ele>
        <time>2019-08-18T07:03:45Z</time>
      </trkpt>
      <trkpt lat="47.25698" lon="-2.32566">
        <ele>57</ele>
        <time>2019-08-18T07:03:46Z</time>
      </trkpt>
      <trkpt lat="47.25699" lon="-2.32571">
        <ele>57</ele>
        <time>2019-08-18T07:03:47Z</time>
      </trkpt>
      <trkpt lat="47.25701" lon="-2.32577">
        <ele>56</ele>
        <time>2019-08-18T07:03:48Z</time>
      </trkpt>
      <trkpt lat="47.25705" lon="-2.32588">
        <ele>57</ele>
        <time>2019-08-18T07:03:50Z</time>
      </trkpt>
      <trkpt lat="47.25709" lon="-2.32599">
        <ele>57</ele>
        <time>2019-08-18T07:03:52Z</time>
      </trkpt>
      <trkpt lat="47.25712" lon="-2.3261">
        <ele>57</ele>
        <time>2019-08-18T07:03:54Z</time>
      </trkpt>
      <trkpt lat="47.25712" lon="-2.32621">
        <ele>57</ele>
        <time>2019-08-18T07:03:56Z</time>
      </trkpt>
      <trkpt lat="47.25706" lon="-2.32625">
        <ele>56</ele>
        <time>2019-08-18T07:03:58Z</time>
      </trkpt>
      <trkpt lat="47.25698" lon="-2.32627">
        <ele>57</ele>
        <time>2019-08-18T07:04:00Z</time>
      </trkpt>
      <trkpt lat="47.2569" lon="-2.32631">
        <ele>57</ele>
        <time>2019-08-18T07:04:02Z</time>
      </trkpt>
      <trkpt lat="47.25682" lon="-2.32635">
        <ele>57</ele>
        <time>2019-08-18T07:04:04Z</time>
      </trkpt>
      <trkpt lat="47.25669" lon="-2.32641">
        <ele>58</ele>
        <time>2019-08-18T07:04:07Z</time>
      </trkpt>
      <trkpt lat="47.25655" lon="-2.32646">
        <ele>60</ele>
        <time>2019-08-18T07:04:10Z</time>
      </trkpt>
      <trkpt lat="47.25651" lon="-2.32648">
        <ele>60</ele>
        <time>2019-08-18T07:04:11Z</time>
      </trkpt>
      <trkpt lat="47.25642" lon="-2.32652">
        <ele>61</ele>
        <time>2019-08-18T07:04:13Z</time>
      </trkpt>
      <trkpt lat="47.25634" lon="-2.32655">
        <ele>62</ele>
        <time>2019-08-18T07:04:15Z</time>
      </trkpt>
      <trkpt lat="47.2563" lon="-2.32656">
        <ele>62</ele>
        <time>2019-08-18T07:04:16Z</time>
      </trkpt>
      <trkpt lat="47.25625" lon="-2.32658">
        <ele>62</ele>
        <time>2019-08-18T07:04:17Z</time>
      </trkpt>
      <trkpt lat="47.25616" lon="-2.32662">
        <ele>62</ele>
        <time>2019-08-18T07:04:19Z</time>
      </trkpt>
      <trkpt lat="47.25608" lon="-2.32666">
        <ele>61</ele>
        <time>2019-08-18T07:04:21Z</time>
      </trkpt>
      <trkpt lat="47.25604" lon="-2.32668">
        <ele>61</ele>
        <time>2019-08-18T07:04:22Z</time>
      </trkpt>
      <trkpt lat="47.25599" lon="-2.3267">
        <ele>61</ele>
        <time>2019-08-18T07:04:23Z</time>
      </trkpt>
      <trkpt lat="47.2559" lon="-2.32674">
        <ele>61</ele>
        <time>2019-08-18T07:04:25Z</time>
      </trkpt>
      <trkpt lat="47.25586" lon="-2.32677">
        <ele>61</ele>
        <time>2019-08-18T07:04:26Z</time>
      </trkpt>
      <trkpt lat="47.25577" lon="-2.3268">
        <ele>61</ele>
        <time>2019-08-18T07:04:28Z</time>
      </trkpt>
      <trkpt lat="47.25567" lon="-2.32683">
        <ele>61</ele>
        <time>2019-08-18T07:04:30Z</time>
      </trkpt>
      <trkpt lat="47.25562" lon="-2.32685">
        <ele>61</ele>
        <time>2019-08-18T07:04:31Z</time>
      </trkpt>
      <trkpt lat="47.25557" lon="-2.32686">
        <ele>61</ele>
        <time>2019-08-18T07:04:32Z</time>
      </trkpt>
      <trkpt lat="47.25541" lon="-2.32693">
        <ele>61</ele>
        <time>2019-08-18T07:04:35Z</time>
      </trkpt>
      <trkpt lat="47.25531" lon="-2.32697">
        <ele>62</ele>
        <time>2019-08-18T07:04:37Z</time>
      </trkpt>
      <trkpt lat="47.25525" lon="-2.32698">
        <ele>62</ele>
        <time>2019-08-18T07:04:38Z</time>
      </trkpt>
      <trkpt lat="47.2552" lon="-2.32699">
        <ele>61</ele>
        <time>2019-08-18T07:04:39Z</time>
      </trkpt>
      <trkpt lat="47.25514" lon="-2.32699">
        <ele>61</ele>
        <time>2019-08-18T07:04:40Z</time>
      </trkpt>
      <trkpt lat="47.25509" lon="-2.327">
        <ele>61</ele>
        <time>2019-08-18T07:04:41Z</time>
      </trkpt>
      <trkpt lat="47.25504" lon="-2.32702">
        <ele>61</ele>
        <time>2019-08-18T07:04:42Z</time>
      </trkpt>
      <trkpt lat="47.25499" lon="-2.32703">
        <ele>61</ele>
        <time>2019-08-18T07:04:43Z</time>
      </trkpt>
      <trkpt lat="47.25493" lon="-2.32704">
        <ele>61</ele>
        <time>2019-08-18T07:04:44Z</time>
      </trkpt>
      <trkpt lat="47.25488" lon="-2.32706">
        <ele>61</ele>
        <time>2019-08-18T07:04:45Z</time>
      </trkpt>
      <trkpt lat="47.25483" lon="-2.32709">
        <ele>61</ele>
        <time>2019-08-18T07:04:46Z</time>
      </trkpt>
      <trkpt lat="47.25478" lon="-2.32713">
        <ele>61</ele>
        <time>2019-08-18T07:04:47Z</time>
      </trkpt>
      <trkpt lat="47.25474" lon="-2.32718">
        <ele>61</ele>
        <time>2019-08-18T07:04:48Z</time>
      </trkpt>
      <trkpt lat="47.2547" lon="-2.32723">
        <ele>61</ele>
        <time>2019-08-18T07:04:49Z</time>
      </trkpt>
      <trkpt lat="47.25465" lon="-2.32729">
        <ele>62</ele>
        <time>2019-08-18T07:04:50Z</time>
      </trkpt>
      <trkpt lat="47.25461" lon="-2.32735">
        <ele>62</ele>
        <time>2019-08-18T07:04:51Z</time>
      </trkpt>
      <trkpt lat="47.25457" lon="-2.3274">
        <ele>62</ele>
        <time>2019-08-18T07:04:52Z</time>
      </trkpt>
      <trkpt lat="47.25453" lon="-2.32746">
        <ele>61</ele>
        <time>2019-08-18T07:04:53Z</time>
      </trkpt>
      <trkpt lat="47.25445" lon="-2.32758">
        <ele>61</ele>
        <time>2019-08-18T07:04:55Z</time>
      </trkpt>
      <trkpt lat="47.25442" lon="-2.32762">
        <ele>61</ele>
        <time>2019-08-18T07:04:56Z</time>
      </trkpt>
      <trkpt lat="47.25438" lon="-2.32771">
        <ele>61</ele>
        <time>2019-08-18T07:04:58Z</time>
      </trkpt>
      <trkpt lat="47.25434" lon="-2.32781">
        <ele>61</ele>
        <time>2019-08-18T07:05:00Z</time>
      </trkpt>
      <trkpt lat="47.25428" lon="-2.3279">
        <ele>60</ele>
        <time>2019-08-18T07:05:02Z</time>
      </trkpt>
      <trkpt lat="47.25417" lon="-2.32806">
        <ele>60</ele>
        <time>2019-08-18T07:05:05Z</time>
      </trkpt>
      <trkpt lat="47.25412" lon="-2.32811">
        <ele>60</ele>
        <time>2019-08-18T07:05:06Z</time>
      </trkpt>
      <trkpt lat="47.25408" lon="-2.32817">
        <ele>60</ele>
        <time>2019-08-18T07:05:07Z</time>
      </trkpt>
      <trkpt lat="47.25405" lon="-2.32822">
        <ele>60</ele>
        <time>2019-08-18T07:05:08Z</time>
      </trkpt>
      <trkpt lat="47.25401" lon="-2.32828">
        <ele>60</ele>
        <time>2019-08-18T07:05:09Z</time>
      </trkpt>
      <trkpt lat="47.25396" lon="-2.32834">
        <ele>60</ele>
        <time>2019-08-18T07:05:10Z</time>
      </trkpt>
      <trkpt lat="47.25392" lon="-2.32839">
        <ele>59</ele>
        <time>2019-08-18T07:05:11Z</time>
      </trkpt>
      <trkpt lat="47.25388" lon="-2.32844">
        <ele>59</ele>
        <time>2019-08-18T07:05:12Z</time>
      </trkpt>
      <trkpt lat="47.25383" lon="-2.32849">
        <ele>59</ele>
        <time>2019-08-18T07:05:13Z</time>
      </trkpt>
      <trkpt lat="47.25374" lon="-2.32859">
        <ele>59</ele>
        <time>2019-08-18T07:05:15Z</time>
      </trkpt>
      <trkpt lat="47.25369" lon="-2.32865">
        <ele>58</ele>
        <time>2019-08-18T07:05:16Z</time>
      </trkpt>
      <trkpt lat="47.25365" lon="-2.3287">
        <ele>58</ele>
        <time>2019-08-18T07:05:17Z</time>
      </trkpt>
      <trkpt lat="47.2536" lon="-2.32875">
        <ele>58</ele>
        <time>2019-08-18T07:05:18Z</time>
      </trkpt>
      <trkpt lat="47.25355" lon="-2.32879">
        <ele>58</ele>
        <time>2019-08-18T07:05:19Z</time>
      </trkpt>
      <trkpt lat="47.25351" lon="-2.32883">
        <ele>58</ele>
        <time>2019-08-18T07:05:20Z</time>
      </trkpt>
      <trkpt lat="47.25346" lon="-2.32887">
        <ele>58</ele>
        <time>2019-08-18T07:05:21Z</time>
      </trkpt>
      <trkpt lat="47.25341" lon="-2.32891">
        <ele>58</ele>
        <time>2019-08-18T07:05:22Z</time>
      </trkpt>
      <trkpt lat="47.25337" lon="-2.32896">
        <ele>58</ele>
        <time>2019-08-18T07:05:23Z</time>
      </trkpt>
      <trkpt lat="47.25332" lon="-2.329">
        <ele>58</ele>
        <time>2019-08-18T07:05:24Z</time>
      </trkpt>
      <trkpt lat="47.25324" lon="-2.3291">
        <ele>59</ele>
        <time>2019-08-18T07:05:26Z</time>
      </trkpt>
      <trkpt lat="47.2532" lon="-2.32914">
        <ele>59</ele>
        <time>2019-08-18T07:05:27Z</time>
      </trkpt>
      <trkpt lat="47.25312" lon="-2.32922">
        <ele>59</ele>
        <time>2019-08-18T07:05:29Z</time>
      </trkpt>
      <trkpt lat="47.2531" lon="-2.32929">
        <ele>59</ele>
        <time>2019-08-18T07:05:30Z</time>
      </trkpt>
      <trkpt lat="47.25309" lon="-2.32936">
        <ele>59</ele>
        <time>2019-08-18T07:05:31Z</time>
      </trkpt>
      <trkpt lat="47.25313" lon="-2.32955">
        <ele>59</ele>
        <time>2019-08-18T07:05:34Z</time>
      </trkpt>
      <trkpt lat="47.25314" lon="-2.32961">
        <ele>59</ele>
        <time>2019-08-18T07:05:35Z</time>
      </trkpt>
      <trkpt lat="47.25316" lon="-2.32967">
        <ele>59</ele>
        <time>2019-08-18T07:05:36Z</time>
      </trkpt>
      <trkpt lat="47.25318" lon="-2.32973">
        <ele>59</ele>
        <time>2019-08-18T07:05:37Z</time>
      </trkpt>
      <trkpt lat="47.2532" lon="-2.3298">
        <ele>59</ele>
        <time>2019-08-18T07:05:38Z</time>
      </trkpt>
      <trkpt lat="47.25325" lon="-2.32993">
        <ele>59</ele>
        <time>2019-08-18T07:05:40Z</time>
      </trkpt>
      <trkpt lat="47.25327" lon="-2.33">
        <ele>59</ele>
        <time>2019-08-18T07:05:41Z</time>
      </trkpt>
      <trkpt lat="47.25335" lon="-2.33019">
        <ele>59</ele>
        <time>2019-08-18T07:05:44Z</time>
      </trkpt>
      <trkpt lat="47.2534" lon="-2.33031">
        <ele>59</ele>
        <time>2019-08-18T07:05:46Z</time>
      </trkpt>
      <trkpt lat="47.25342" lon="-2.33037">
        <ele>59</ele>
        <time>2019-08-18T07:05:47Z</time>
      </trkpt>
      <trkpt lat="47.25345" lon="-2.33044">
        <ele>59</ele>
        <time>2019-08-18T07:05:48Z</time>
      </trkpt>
      <trkpt lat="47.25351" lon="-2.33061">
        <ele>58</ele>
        <time>2019-08-18T07:05:51Z</time>
      </trkpt>
      <trkpt lat="47.25353" lon="-2.33068">
        <ele>58</ele>
        <time>2019-08-18T07:05:52Z</time>
      </trkpt>
      <trkpt lat="47.25355" lon="-2.33074">
        <ele>59</ele>
        <time>2019-08-18T07:05:53Z</time>
      </trkpt>
      <trkpt lat="47.25358" lon="-2.3308">
        <ele>58</ele>
        <time>2019-08-18T07:05:54Z</time>
      </trkpt>
      <trkpt lat="47.2536" lon="-2.33085">
        <ele>58</ele>
        <time>2019-08-18T07:05:55Z</time>
      </trkpt>
      <trkpt lat="47.25362" lon="-2.3309">
        <ele>58</ele>
        <time>2019-08-18T07:05:56Z</time>
      </trkpt>
      <trkpt lat="47.25365" lon="-2.33096">
        <ele>58</ele>
        <time>2019-08-18T07:05:57Z</time>
      </trkpt>
      <trkpt lat="47.25367" lon="-2.33101">
        <ele>58</ele>
        <time>2019-08-18T07:05:58Z</time>
      </trkpt>
      <trkpt lat="47.25372" lon="-2.33114">
        <ele>58</ele>
        <time>2019-08-18T07:06:01Z</time>
      </trkpt>
      <trkpt lat="47.25373" lon="-2.33121">
        <ele>59</ele>
        <time>2019-08-18T07:06:04Z</time>
      </trkpt>
      <trkpt lat="47.25373" lon="-2.33121">
        <ele>59</ele>
        <time>2019-08-18T07:06:10Z</time>
      </trkpt>
      <trkpt lat="47.25373" lon="-2.33121">
        <ele>8</ele>
        <time>2019-08-18T07:06:10Z</time>
      </trkpt>
      <trkpt lat="47.25373" lon="-2.33121">
        <ele>8</ele>
        <time>2019-08-18T07:09:18Z</time>
      </trkpt>
      <trkpt lat="47.25383" lon="-2.33138">
        <ele>61</ele>
        <time>2019-08-18T07:09:18Z</time>
      </trkpt>
      <trkpt lat="47.25385" lon="-2.33141">
        <ele>62</ele>
        <time>2019-08-18T07:09:19Z</time>
      </trkpt>
      <trkpt lat="47.25387" lon="-2.33148">
        <ele>61</ele>
        <time>2019-08-18T07:09:22Z</time>
      </trkpt>
      <trkpt lat="47.25389" lon="-2.33152">
        <ele>60</ele>
        <time>2019-08-18T07:10:34Z</time>
      </trkpt>
      <trkpt lat="47.25392" lon="-2.33157">
        <ele>61</ele>
        <time>2019-08-18T07:10:56Z</time>
      </trkpt>
      <trkpt lat="47.25394" lon="-2.33161">
        <ele>61</ele>
        <time>2019-08-18T07:10:58Z</time>
      </trkpt>
      <trkpt lat="47.25399" lon="-2.33171">
        <ele>60</ele>
        <time>2019-08-18T07:11:02Z</time>
      </trkpt>
      <trkpt lat="47.254" lon="-2.33174">
        <ele>60</ele>
        <time>2019-08-18T07:11:03Z</time>
      </trkpt>
      <trkpt lat="47.25404" lon="-2.33184">
        <ele>61</ele>
        <time>2019-08-18T07:11:06Z</time>
      </trkpt>
      <trkpt lat="47.25407" lon="-2.3319">
        <ele>60</ele>
        <time>2019-08-18T07:11:08Z</time>
      </trkpt>
      <trkpt lat="47.25409" lon="-2.33198">
        <ele>61</ele>
        <time>2019-08-18T07:11:10Z</time>
      </trkpt>
      <trkpt lat="47.25412" lon="-2.33204">
        <ele>60</ele>
        <time>2019-08-18T07:11:12Z</time>
      </trkpt>
      <trkpt lat="47.25413" lon="-2.33208">
        <ele>60</ele>
        <time>2019-08-18T07:11:13Z</time>
      </trkpt>
      <trkpt lat="47.25415" lon="-2.33212">
        <ele>60</ele>
        <time>2019-08-18T07:11:14Z</time>
      </trkpt>
      <trkpt lat="47.25416" lon="-2.33215">
        <ele>60</ele>
        <time>2019-08-18T07:11:15Z</time>
      </trkpt>
      <trkpt lat="47.25419" lon="-2.33221">
        <ele>60</ele>
        <time>2019-08-18T07:11:17Z</time>
      </trkpt>
      <trkpt lat="47.25421" lon="-2.33225">
        <ele>61</ele>
        <time>2019-08-18T07:11:18Z</time>
      </trkpt>
      <trkpt lat="47.25425" lon="-2.33235">
        <ele>60</ele>
        <time>2019-08-18T07:11:21Z</time>
      </trkpt>
      <trkpt lat="47.25426" lon="-2.33239">
        <ele>61</ele>
        <time>2019-08-18T07:11:22Z</time>
      </trkpt>
      <trkpt lat="47.25429" lon="-2.33245">
        <ele>61</ele>
        <time>2019-08-18T07:11:24Z</time>
      </trkpt>
      <trkpt lat="47.25432" lon="-2.33252">
        <ele>60</ele>
        <time>2019-08-18T07:11:27Z</time>
      </trkpt>
      <trkpt lat="47.25435" lon="-2.33262">
        <ele>60</ele>
        <time>2019-08-18T07:11:30Z</time>
      </trkpt>
      <trkpt lat="47.25438" lon="-2.33268">
        <ele>60</ele>
        <time>2019-08-18T07:11:32Z</time>
      </trkpt>
      <trkpt lat="47.25439" lon="-2.33271">
        <ele>60</ele>
        <time>2019-08-18T07:11:33Z</time>
      </trkpt>
      <trkpt lat="47.25442" lon="-2.33277">
        <ele>61</ele>
        <time>2019-08-18T07:11:35Z</time>
      </trkpt>
      <trkpt lat="47.25444" lon="-2.33285">
        <ele>60</ele>
        <time>2019-08-18T07:11:37Z</time>
      </trkpt>
      <trkpt lat="47.25445" lon="-2.33289">
        <ele>60</ele>
        <time>2019-08-18T07:11:38Z</time>
      </trkpt>
      <trkpt lat="47.25446" lon="-2.33293">
        <ele>60</ele>
        <time>2019-08-18T07:11:39Z</time>
      </trkpt>
      <trkpt lat="47.25445" lon="-2.33301">
        <ele>60</ele>
        <time>2019-08-18T07:11:41Z</time>
      </trkpt>
      <trkpt lat="47.25443" lon="-2.33309">
        <ele>59</ele>
        <time>2019-08-18T07:11:43Z</time>
      </trkpt>
      <trkpt lat="47.25442" lon="-2.33312">
        <ele>59</ele>
        <time>2019-08-18T07:11:44Z</time>
      </trkpt>
      <trkpt lat="47.25437" lon="-2.33325">
        <ele>59</ele>
        <time>2019-08-18T07:11:47Z</time>
      </trkpt>
      <trkpt lat="47.25434" lon="-2.33333">
        <ele>59</ele>
        <time>2019-08-18T07:11:49Z</time>
      </trkpt>
      <trkpt lat="47.25433" lon="-2.33338">
        <ele>59</ele>
        <time>2019-08-18T07:11:50Z</time>
      </trkpt>
      <trkpt lat="47.25432" lon="-2.33343">
        <ele>58</ele>
        <time>2019-08-18T07:11:51Z</time>
      </trkpt>
      <trkpt lat="47.2543" lon="-2.33348">
        <ele>58</ele>
        <time>2019-08-18T07:11:52Z</time>
      </trkpt>
      <trkpt lat="47.25429" lon="-2.33353">
        <ele>58</ele>
        <time>2019-08-18T07:11:53Z</time>
      </trkpt>
      <trkpt lat="47.25429" lon="-2.33364">
        <ele>58</ele>
        <time>2019-08-18T07:11:55Z</time>
      </trkpt>
      <trkpt lat="47.25429" lon="-2.3337">
        <ele>58</ele>
        <time>2019-08-18T07:11:56Z</time>
      </trkpt>
      <trkpt lat="47.25428" lon="-2.33382">
        <ele>58</ele>
        <time>2019-08-18T07:11:58Z</time>
      </trkpt>
      <trkpt lat="47.25428" lon="-2.33387">
        <ele>58</ele>
        <time>2019-08-18T07:11:59Z</time>
      </trkpt>
      <trkpt lat="47.25428" lon="-2.33393">
        <ele>58</ele>
        <time>2019-08-18T07:12:00Z</time>
      </trkpt>
      <trkpt lat="47.25428" lon="-2.33398">
        <ele>58</ele>
        <time>2019-08-18T07:12:01Z</time>
      </trkpt>
      <trkpt lat="47.25428" lon="-2.33404">
        <ele>58</ele>
        <time>2019-08-18T07:12:02Z</time>
      </trkpt>
      <trkpt lat="47.25428" lon="-2.33409">
        <ele>57</ele>
        <time>2019-08-18T07:12:03Z</time>
      </trkpt>
      <trkpt lat="47.25428" lon="-2.33415">
        <ele>58</ele>
        <time>2019-08-18T07:12:04Z</time>
      </trkpt>
      <trkpt lat="47.25428" lon="-2.3342">
        <ele>58</ele>
        <time>2019-08-18T07:12:05Z</time>
      </trkpt>
      <trkpt lat="47.25428" lon="-2.33437">
        <ele>58</ele>
        <time>2019-08-18T07:12:08Z</time>
      </trkpt>
      <trkpt lat="47.25428" lon="-2.33442">
        <ele>58</ele>
        <time>2019-08-18T07:12:09Z</time>
      </trkpt>
      <trkpt lat="47.25428" lon="-2.33447">
        <ele>58</ele>
        <time>2019-08-18T07:12:10Z</time>
      </trkpt>
      <trkpt lat="47.25429" lon="-2.33452">
        <ele>59</ele>
        <time>2019-08-18T07:12:11Z</time>
      </trkpt>
      <trkpt lat="47.25429" lon="-2.33458">
        <ele>59</ele>
        <time>2019-08-18T07:12:12Z</time>
      </trkpt>
      <trkpt lat="47.2543" lon="-2.33463">
        <ele>59</ele>
        <time>2019-08-18T07:12:13Z</time>
      </trkpt>
      <trkpt lat="47.25433" lon="-2.33478">
        <ele>59</ele>
        <time>2019-08-18T07:12:16Z</time>
      </trkpt>
      <trkpt lat="47.25438" lon="-2.33491">
        <ele>59</ele>
        <time>2019-08-18T07:12:19Z</time>
      </trkpt>
      <trkpt lat="47.25439" lon="-2.33496">
        <ele>58</ele>
        <time>2019-08-18T07:12:20Z</time>
      </trkpt>
      <trkpt lat="47.25441" lon="-2.33501">
        <ele>59</ele>
        <time>2019-08-18T07:12:21Z</time>
      </trkpt>
      <trkpt lat="47.25443" lon="-2.33507">
        <ele>59</ele>
        <time>2019-08-18T07:12:22Z</time>
      </trkpt>
      <trkpt lat="47.25446" lon="-2.33523">
        <ele>59</ele>
        <time>2019-08-18T07:12:25Z</time>
      </trkpt>
      <trkpt lat="47.25448" lon="-2.33533">
        <ele>59</ele>
        <time>2019-08-18T07:12:27Z</time>
      </trkpt>
      <trkpt lat="47.2545" lon="-2.33543">
        <ele>60</ele>
        <time>2019-08-18T07:12:29Z</time>
      </trkpt>
      <trkpt lat="47.25451" lon="-2.33547">
        <ele>60</ele>
        <time>2019-08-18T07:12:30Z</time>
      </trkpt>
      <trkpt lat="47.25452" lon="-2.33554">
        <ele>59</ele>
        <time>2019-08-18T07:12:32Z</time>
      </trkpt>
      <trkpt lat="47.25453" lon="-2.33559">
        <ele>59</ele>
        <time>2019-08-18T07:12:34Z</time>
      </trkpt>
      <trkpt lat="47.25455" lon="-2.33566">
        <ele>60</ele>
        <time>2019-08-18T07:12:36Z</time>
      </trkpt>
      <trkpt lat="47.25455" lon="-2.33575">
        <ele>60</ele>
        <time>2019-08-18T07:12:39Z</time>
      </trkpt>
      <trkpt lat="47.25448" lon="-2.33578">
        <ele>60</ele>
        <time>2019-08-18T07:12:41Z</time>
      </trkpt>
      <trkpt lat="47.25445" lon="-2.33579">
        <ele>60</ele>
        <time>2019-08-18T07:12:42Z</time>
      </trkpt>
      <trkpt lat="47.2544" lon="-2.33588">
        <ele>60</ele>
        <time>2019-08-18T07:12:44Z</time>
      </trkpt>
      <trkpt lat="47.25441" lon="-2.336">
        <ele>61</ele>
        <time>2019-08-18T07:12:46Z</time>
      </trkpt>
      <trkpt lat="47.25441" lon="-2.3361">
        <ele>60</ele>
        <time>2019-08-18T07:12:48Z</time>
      </trkpt>
      <trkpt lat="47.25442" lon="-2.33622">
        <ele>61</ele>
        <time>2019-08-18T07:12:50Z</time>
      </trkpt>
      <trkpt lat="47.25442" lon="-2.33635">
        <ele>61</ele>
        <time>2019-08-18T07:12:52Z</time>
      </trkpt>
      <trkpt lat="47.25443" lon="-2.33642">
        <ele>61</ele>
        <time>2019-08-18T07:12:53Z</time>
      </trkpt>
      <trkpt lat="47.25443" lon="-2.33647">
        <ele>61</ele>
        <time>2019-08-18T07:12:54Z</time>
      </trkpt>
      <trkpt lat="47.25443" lon="-2.33651">
        <ele>61</ele>
        <time>2019-08-18T07:12:55Z</time>
      </trkpt>
      <trkpt lat="47.25445" lon="-2.33661">
        <ele>62</ele>
        <time>2019-08-18T07:12:57Z</time>
      </trkpt>
      <trkpt lat="47.25446" lon="-2.33667">
        <ele>61</ele>
        <time>2019-08-18T07:12:58Z</time>
      </trkpt>
      <trkpt lat="47.25447" lon="-2.33685">
        <ele>60</ele>
        <time>2019-08-18T07:13:01Z</time>
      </trkpt>
      <trkpt lat="47.25447" lon="-2.33691">
        <ele>60</ele>
        <time>2019-08-18T07:13:02Z</time>
      </trkpt>
      <trkpt lat="47.25449" lon="-2.33702">
        <ele>59</ele>
        <time>2019-08-18T07:13:04Z</time>
      </trkpt>
      <trkpt lat="47.2545" lon="-2.33708">
        <ele>58</ele>
        <time>2019-08-18T07:13:05Z</time>
      </trkpt>
      <trkpt lat="47.25452" lon="-2.33725">
        <ele>58</ele>
        <time>2019-08-18T07:13:08Z</time>
      </trkpt>
      <trkpt lat="47.25454" lon="-2.33731">
        <ele>59</ele>
        <time>2019-08-18T07:13:09Z</time>
      </trkpt>
      <trkpt lat="47.25455" lon="-2.33737">
        <ele>59</ele>
        <time>2019-08-18T07:13:10Z</time>
      </trkpt>
      <trkpt lat="47.25463" lon="-2.33745">
        <ele>59</ele>
        <time>2019-08-18T07:13:12Z</time>
      </trkpt>
      <trkpt lat="47.25474" lon="-2.3375">
        <ele>59</ele>
        <time>2019-08-18T07:13:14Z</time>
      </trkpt>
      <trkpt lat="47.2548" lon="-2.33753">
        <ele>58</ele>
        <time>2019-08-18T07:13:15Z</time>
      </trkpt>
      <trkpt lat="47.25486" lon="-2.33755">
        <ele>58</ele>
        <time>2019-08-18T07:13:16Z</time>
      </trkpt>
      <trkpt lat="47.25498" lon="-2.33756">
        <ele>58</ele>
        <time>2019-08-18T07:13:18Z</time>
      </trkpt>
      <trkpt lat="47.25503" lon="-2.33755">
        <ele>58</ele>
        <time>2019-08-18T07:13:19Z</time>
      </trkpt>
      <trkpt lat="47.25509" lon="-2.33755">
        <ele>58</ele>
        <time>2019-08-18T07:13:20Z</time>
      </trkpt>
      <trkpt lat="47.25514" lon="-2.33755">
        <ele>58</ele>
        <time>2019-08-18T07:13:21Z</time>
      </trkpt>
      <trkpt lat="47.25519" lon="-2.33754">
        <ele>58</ele>
        <time>2019-08-18T07:13:22Z</time>
      </trkpt>
      <trkpt lat="47.25525" lon="-2.33754">
        <ele>58</ele>
        <time>2019-08-18T07:13:23Z</time>
      </trkpt>
      <trkpt lat="47.25535" lon="-2.33755">
        <ele>58</ele>
        <time>2019-08-18T07:13:25Z</time>
      </trkpt>
      <trkpt lat="47.2554" lon="-2.33755">
        <ele>57</ele>
        <time>2019-08-18T07:13:26Z</time>
      </trkpt>
      <trkpt lat="47.25545" lon="-2.33755">
        <ele>57</ele>
        <time>2019-08-18T07:13:27Z</time>
      </trkpt>
      <trkpt lat="47.25555" lon="-2.33755">
        <ele>58</ele>
        <time>2019-08-18T07:13:29Z</time>
      </trkpt>
      <trkpt lat="47.2556" lon="-2.33755">
        <ele>58</ele>
        <time>2019-08-18T07:13:30Z</time>
      </trkpt>
      <trkpt lat="47.25565" lon="-2.33755">
        <ele>58</ele>
        <time>2019-08-18T07:13:31Z</time>
      </trkpt>
      <trkpt lat="47.2557" lon="-2.33755">
        <ele>58</ele>
        <time>2019-08-18T07:13:32Z</time>
      </trkpt>
      <trkpt lat="47.25575" lon="-2.33754">
        <ele>58</ele>
        <time>2019-08-18T07:13:33Z</time>
      </trkpt>
      <trkpt lat="47.2558" lon="-2.33755">
        <ele>58</ele>
        <time>2019-08-18T07:13:34Z</time>
      </trkpt>
      <trkpt lat="47.25585" lon="-2.33755">
        <ele>58</ele>
        <time>2019-08-18T07:13:35Z</time>
      </trkpt>
      <trkpt lat="47.25595" lon="-2.33755">
        <ele>58</ele>
        <time>2019-08-18T07:13:37Z</time>
      </trkpt>
      <trkpt lat="47.25603" lon="-2.33757">
        <ele>58</ele>
        <time>2019-08-18T07:13:39Z</time>
      </trkpt>
      <trkpt lat="47.25608" lon="-2.33757">
        <ele>58</ele>
        <time>2019-08-18T07:13:40Z</time>
      </trkpt>
      <trkpt lat="47.25616" lon="-2.3376">
        <ele>57</ele>
        <time>2019-08-18T07:13:42Z</time>
      </trkpt>
      <trkpt lat="47.2562" lon="-2.33762">
        <ele>57</ele>
        <time>2019-08-18T07:13:43Z</time>
      </trkpt>
      <trkpt lat="47.25627" lon="-2.33768">
        <ele>58</ele>
        <time>2019-08-18T07:13:45Z</time>
      </trkpt>
      <trkpt lat="47.2563" lon="-2.33772">
        <ele>57</ele>
        <time>2019-08-18T07:13:46Z</time>
      </trkpt>
      <trkpt lat="47.25635" lon="-2.3378">
        <ele>58</ele>
        <time>2019-08-18T07:13:48Z</time>
      </trkpt>
      <trkpt lat="47.25638" lon="-2.3381">
        <ele>58</ele>
        <time>2019-08-18T07:13:52Z</time>
      </trkpt>
      <trkpt lat="47.25639" lon="-2.33818">
        <ele>58</ele>
        <time>2019-08-18T07:13:53Z</time>
      </trkpt>
      <trkpt lat="47.2564" lon="-2.33826">
        <ele>58</ele>
        <time>2019-08-18T07:13:54Z</time>
      </trkpt>
      <trkpt lat="47.25641" lon="-2.33834">
        <ele>58</ele>
        <time>2019-08-18T07:13:55Z</time>
      </trkpt>
      <trkpt lat="47.25642" lon="-2.33842">
        <ele>58</ele>
        <time>2019-08-18T07:13:56Z</time>
      </trkpt>
      <trkpt lat="47.25643" lon="-2.33848">
        <ele>58</ele>
        <time>2019-08-18T07:13:57Z</time>
      </trkpt>
      <trkpt lat="47.25644" lon="-2.33855">
        <ele>58</ele>
        <time>2019-08-18T07:13:58Z</time>
      </trkpt>
      <trkpt lat="47.25645" lon="-2.33862">
        <ele>59</ele>
        <time>2019-08-18T07:13:59Z</time>
      </trkpt>
      <trkpt lat="47.25647" lon="-2.33869">
        <ele>59</ele>
        <time>2019-08-18T07:14:00Z</time>
      </trkpt>
      <trkpt lat="47.25648" lon="-2.33877">
        <ele>59</ele>
        <time>2019-08-18T07:14:01Z</time>
      </trkpt>
      <trkpt lat="47.25649" lon="-2.33884">
        <ele>58</ele>
        <time>2019-08-18T07:14:02Z</time>
      </trkpt>
      <trkpt lat="47.2565" lon="-2.33892">
        <ele>58</ele>
        <time>2019-08-18T07:14:03Z</time>
      </trkpt>
      <trkpt lat="47.25651" lon="-2.33899">
        <ele>58</ele>
        <time>2019-08-18T07:14:04Z</time>
      </trkpt>
      <trkpt lat="47.25651" lon="-2.33907">
        <ele>58</ele>
        <time>2019-08-18T07:14:05Z</time>
      </trkpt>
      <trkpt lat="47.25653" lon="-2.33914">
        <ele>58</ele>
        <time>2019-08-18T07:14:06Z</time>
      </trkpt>
      <trkpt lat="47.25654" lon="-2.33921">
        <ele>58</ele>
        <time>2019-08-18T07:14:07Z</time>
      </trkpt>
      <trkpt lat="47.25655" lon="-2.33928">
        <ele>58</ele>
        <time>2019-08-18T07:14:08Z</time>
      </trkpt>
      <trkpt lat="47.25656" lon="-2.33935">
        <ele>58</ele>
        <time>2019-08-18T07:14:09Z</time>
      </trkpt>
      <trkpt lat="47.25657" lon="-2.33943">
        <ele>58</ele>
        <time>2019-08-18T07:14:10Z</time>
      </trkpt>
      <trkpt lat="47.25658" lon="-2.33963">
        <ele>58</ele>
        <time>2019-08-18T07:14:13Z</time>
      </trkpt>
      <trkpt lat="47.25656" lon="-2.33977">
        <ele>58</ele>
        <time>2019-08-18T07:14:15Z</time>
      </trkpt>
      <trkpt lat="47.25655" lon="-2.33984">
        <ele>58</ele>
        <time>2019-08-18T07:14:16Z</time>
      </trkpt>
      <trkpt lat="47.25654" lon="-2.33991">
        <ele>58</ele>
        <time>2019-08-18T07:14:17Z</time>
      </trkpt>
      <trkpt lat="47.25653" lon="-2.33998">
        <ele>58</ele>
        <time>2019-08-18T07:14:18Z</time>
      </trkpt>
      <trkpt lat="47.25652" lon="-2.34006">
        <ele>58</ele>
        <time>2019-08-18T07:14:19Z</time>
      </trkpt>
      <trkpt lat="47.25651" lon="-2.34013">
        <ele>58</ele>
        <time>2019-08-18T07:14:20Z</time>
      </trkpt>
      <trkpt lat="47.25649" lon="-2.3402">
        <ele>58</ele>
        <time>2019-08-18T07:14:21Z</time>
      </trkpt>
      <trkpt lat="47.25647" lon="-2.34035">
        <ele>58</ele>
        <time>2019-08-18T07:14:23Z</time>
      </trkpt>
      <trkpt lat="47.25646" lon="-2.34043">
        <ele>58</ele>
        <time>2019-08-18T07:14:24Z</time>
      </trkpt>
      <trkpt lat="47.25643" lon="-2.34058">
        <ele>58</ele>
        <time>2019-08-18T07:14:26Z</time>
      </trkpt>
      <trkpt lat="47.25641" lon="-2.34066">
        <ele>57</ele>
        <time>2019-08-18T07:14:27Z</time>
      </trkpt>
      <trkpt lat="47.2564" lon="-2.34073">
        <ele>57</ele>
        <time>2019-08-18T07:14:28Z</time>
      </trkpt>
      <trkpt lat="47.25639" lon="-2.3408">
        <ele>57</ele>
        <time>2019-08-18T07:14:29Z</time>
      </trkpt>
      <trkpt lat="47.25639" lon="-2.34088">
        <ele>57</ele>
        <time>2019-08-18T07:14:30Z</time>
      </trkpt>
      <trkpt lat="47.25639" lon="-2.34095">
        <ele>57</ele>
        <time>2019-08-18T07:14:31Z</time>
      </trkpt>
      <trkpt lat="47.25639" lon="-2.34103">
        <ele>57</ele>
        <time>2019-08-18T07:14:32Z</time>
      </trkpt>
      <trkpt lat="47.2564" lon="-2.34111">
        <ele>57</ele>
        <time>2019-08-18T07:14:33Z</time>
      </trkpt>
      <trkpt lat="47.25642" lon="-2.34119">
        <ele>57</ele>
        <time>2019-08-18T07:14:34Z</time>
      </trkpt>
      <trkpt lat="47.25643" lon="-2.34126">
        <ele>57</ele>
        <time>2019-08-18T07:14:35Z</time>
      </trkpt>
      <trkpt lat="47.25648" lon="-2.3414">
        <ele>57</ele>
        <time>2019-08-18T07:14:37Z</time>
      </trkpt>
      <trkpt lat="47.2565" lon="-2.34147">
        <ele>56</ele>
        <time>2019-08-18T07:14:38Z</time>
      </trkpt>
      <trkpt lat="47.25653" lon="-2.34153">
        <ele>56</ele>
        <time>2019-08-18T07:14:39Z</time>
      </trkpt>
      <trkpt lat="47.25657" lon="-2.34159">
        <ele>56</ele>
        <time>2019-08-18T07:14:40Z</time>
      </trkpt>
      <trkpt lat="47.25659" lon="-2.34165">
        <ele>56</ele>
        <time>2019-08-18T07:14:41Z</time>
      </trkpt>
      <trkpt lat="47.25663" lon="-2.34171">
        <ele>56</ele>
        <time>2019-08-18T07:14:42Z</time>
      </trkpt>
      <trkpt lat="47.25665" lon="-2.34176">
        <ele>56</ele>
        <time>2019-08-18T07:14:43Z</time>
      </trkpt>
      <trkpt lat="47.25668" lon="-2.34181">
        <ele>56</ele>
        <time>2019-08-18T07:14:44Z</time>
      </trkpt>
      <trkpt lat="47.25672" lon="-2.34186">
        <ele>56</ele>
        <time>2019-08-18T07:14:45Z</time>
      </trkpt>
      <trkpt lat="47.25676" lon="-2.3419">
        <ele>55</ele>
        <time>2019-08-18T07:14:46Z</time>
      </trkpt>
      <trkpt lat="47.25685" lon="-2.34195">
        <ele>55</ele>
        <time>2019-08-18T07:14:48Z</time>
      </trkpt>
      <trkpt lat="47.25691" lon="-2.34194">
        <ele>56</ele>
        <time>2019-08-18T07:14:49Z</time>
      </trkpt>
      <trkpt lat="47.25697" lon="-2.34193">
        <ele>55</ele>
        <time>2019-08-18T07:14:50Z</time>
      </trkpt>
      <trkpt lat="47.25709" lon="-2.3419">
        <ele>56</ele>
        <time>2019-08-18T07:14:52Z</time>
      </trkpt>
      <trkpt lat="47.25714" lon="-2.34189">
        <ele>56</ele>
        <time>2019-08-18T07:14:53Z</time>
      </trkpt>
      <trkpt lat="47.25721" lon="-2.34187">
        <ele>56</ele>
        <time>2019-08-18T07:14:54Z</time>
      </trkpt>
      <trkpt lat="47.25727" lon="-2.34186">
        <ele>56</ele>
        <time>2019-08-18T07:14:55Z</time>
      </trkpt>
      <trkpt lat="47.25733" lon="-2.34184">
        <ele>56</ele>
        <time>2019-08-18T07:14:56Z</time>
      </trkpt>
      <trkpt lat="47.25739" lon="-2.34183">
        <ele>56</ele>
        <time>2019-08-18T07:14:57Z</time>
      </trkpt>
      <trkpt lat="47.2575" lon="-2.3418">
        <ele>56</ele>
        <time>2019-08-18T07:14:59Z</time>
      </trkpt>
      <trkpt lat="47.25761" lon="-2.34178">
        <ele>56</ele>
        <time>2019-08-18T07:15:01Z</time>
      </trkpt>
      <trkpt lat="47.25766" lon="-2.34177">
        <ele>55</ele>
        <time>2019-08-18T07:15:02Z</time>
      </trkpt>
      <trkpt lat="47.25781" lon="-2.34174">
        <ele>55</ele>
        <time>2019-08-18T07:15:05Z</time>
      </trkpt>
      <trkpt lat="47.25791" lon="-2.34172">
        <ele>55</ele>
        <time>2019-08-18T07:15:07Z</time>
      </trkpt>
      <trkpt lat="47.25796" lon="-2.34173">
        <ele>55</ele>
        <time>2019-08-18T07:15:08Z</time>
      </trkpt>
      <trkpt lat="47.25801" lon="-2.34173">
        <ele>55</ele>
        <time>2019-08-18T07:15:09Z</time>
      </trkpt>
      <trkpt lat="47.2581" lon="-2.34175">
        <ele>54</ele>
        <time>2019-08-18T07:15:11Z</time>
      </trkpt>
      <trkpt lat="47.25815" lon="-2.34175">
        <ele>54</ele>
        <time>2019-08-18T07:15:12Z</time>
      </trkpt>
      <trkpt lat="47.25819" lon="-2.34176">
        <ele>55</ele>
        <time>2019-08-18T07:15:13Z</time>
      </trkpt>
      <trkpt lat="47.25823" lon="-2.34177">
        <ele>55</ele>
        <time>2019-08-18T07:15:14Z</time>
      </trkpt>
      <trkpt lat="47.25833" lon="-2.3417">
        <ele>55</ele>
        <time>2019-08-18T07:15:17Z</time>
      </trkpt>
      <trkpt lat="47.25838" lon="-2.34158">
        <ele>55</ele>
        <time>2019-08-18T07:15:20Z</time>
      </trkpt>
      <trkpt lat="47.25843" lon="-2.3416">
        <ele>55</ele>
        <time>2019-08-18T07:15:22Z</time>
      </trkpt>
      <trkpt lat="47.25854" lon="-2.34165">
        <ele>55</ele>
        <time>2019-08-18T07:15:25Z</time>
      </trkpt>
      <trkpt lat="47.25858" lon="-2.34167">
        <ele>55</ele>
        <time>2019-08-18T07:15:26Z</time>
      </trkpt>
      <trkpt lat="47.25862" lon="-2.34168">
        <ele>56</ele>
        <time>2019-08-18T07:15:27Z</time>
      </trkpt>
      <trkpt lat="47.25865" lon="-2.3417">
        <ele>56</ele>
        <time>2019-08-18T07:15:28Z</time>
      </trkpt>
      <trkpt lat="47.25871" lon="-2.34168">
        <ele>55</ele>
        <time>2019-08-18T07:15:30Z</time>
      </trkpt>
      <trkpt lat="47.25875" lon="-2.34162">
        <ele>55</ele>
        <time>2019-08-18T07:15:32Z</time>
      </trkpt>
      <trkpt lat="47.25879" lon="-2.34154">
        <ele>55</ele>
        <time>2019-08-18T07:15:34Z</time>
      </trkpt>
      <trkpt lat="47.25884" lon="-2.3415">
        <ele>55</ele>
        <time>2019-08-18T07:15:36Z</time>
      </trkpt>
      <trkpt lat="47.25889" lon="-2.34149">
        <ele>55</ele>
        <time>2019-08-18T07:15:38Z</time>
      </trkpt>
      <trkpt lat="47.25892" lon="-2.34149">
        <ele>55</ele>
        <time>2019-08-18T07:15:39Z</time>
      </trkpt>
      <trkpt lat="47.25903" lon="-2.34144">
        <ele>55</ele>
        <time>2019-08-18T07:15:42Z</time>
      </trkpt>
      <trkpt lat="47.25906" lon="-2.34143">
        <ele>55</ele>
        <time>2019-08-18T07:15:43Z</time>
      </trkpt>
      <trkpt lat="47.25914" lon="-2.34137">
        <ele>56</ele>
        <time>2019-08-18T07:15:45Z</time>
      </trkpt>
      <trkpt lat="47.25918" lon="-2.34136">
        <ele>55</ele>
        <time>2019-08-18T07:15:46Z</time>
      </trkpt>
      <trkpt lat="47.2593" lon="-2.34127">
        <ele>55</ele>
        <time>2019-08-18T07:15:49Z</time>
      </trkpt>
      <trkpt lat="47.25933" lon="-2.34125">
        <ele>55</ele>
        <time>2019-08-18T07:15:50Z</time>
      </trkpt>
      <trkpt lat="47.25937" lon="-2.34122">
        <ele>55</ele>
        <time>2019-08-18T07:15:51Z</time>
      </trkpt>
      <trkpt lat="47.2594" lon="-2.34119">
        <ele>54</ele>
        <time>2019-08-18T07:15:52Z</time>
      </trkpt>
      <trkpt lat="47.25944" lon="-2.34116">
        <ele>55</ele>
        <time>2019-08-18T07:15:53Z</time>
      </trkpt>
      <trkpt lat="47.25955" lon="-2.34111">
        <ele>54</ele>
        <time>2019-08-18T07:15:56Z</time>
      </trkpt>
      <trkpt lat="47.25963" lon="-2.3411">
        <ele>54</ele>
        <time>2019-08-18T07:15:58Z</time>
      </trkpt>
      <trkpt lat="47.25966" lon="-2.3411">
        <ele>54</ele>
        <time>2019-08-18T07:15:59Z</time>
      </trkpt>
      <trkpt lat="47.25974" lon="-2.34111">
        <ele>54</ele>
        <time>2019-08-18T07:16:01Z</time>
      </trkpt>
      <trkpt lat="47.25978" lon="-2.34111">
        <ele>54</ele>
        <time>2019-08-18T07:16:02Z</time>
      </trkpt>
      <trkpt lat="47.25986" lon="-2.34113">
        <ele>53</ele>
        <time>2019-08-18T07:16:04Z</time>
      </trkpt>
      <trkpt lat="47.2599" lon="-2.34114">
        <ele>53</ele>
        <time>2019-08-18T07:16:05Z</time>
      </trkpt>
      <trkpt lat="47.25994" lon="-2.34114">
        <ele>53</ele>
        <time>2019-08-18T07:16:06Z</time>
      </trkpt>
      <trkpt lat="47.26003" lon="-2.34118">
        <ele>53</ele>
        <time>2019-08-18T07:16:08Z</time>
      </trkpt>
      <trkpt lat="47.26008" lon="-2.3412">
        <ele>53</ele>
        <time>2019-08-18T07:16:09Z</time>
      </trkpt>
      <trkpt lat="47.26021" lon="-2.34126">
        <ele>54</ele>
        <time>2019-08-18T07:16:12Z</time>
      </trkpt>
      <trkpt lat="47.26025" lon="-2.34128">
        <ele>54</ele>
        <time>2019-08-18T07:16:13Z</time>
      </trkpt>
      <trkpt lat="47.2603" lon="-2.34131">
        <ele>55</ele>
        <time>2019-08-18T07:16:14Z</time>
      </trkpt>
      <trkpt lat="47.26034" lon="-2.34133">
        <ele>55</ele>
        <time>2019-08-18T07:16:15Z</time>
      </trkpt>
      <trkpt lat="47.26047" lon="-2.34139">
        <ele>55</ele>
        <time>2019-08-18T07:16:18Z</time>
      </trkpt>
      <trkpt lat="47.26051" lon="-2.34142">
        <ele>55</ele>
        <time>2019-08-18T07:16:19Z</time>
      </trkpt>
      <trkpt lat="47.26055" lon="-2.34144">
        <ele>55</ele>
        <time>2019-08-18T07:16:20Z</time>
      </trkpt>
      <trkpt lat="47.26072" lon="-2.34151">
        <ele>55</ele>
        <time>2019-08-18T07:16:24Z</time>
      </trkpt>
      <trkpt lat="47.26077" lon="-2.34153">
        <ele>55</ele>
        <time>2019-08-18T07:16:25Z</time>
      </trkpt>
      <trkpt lat="47.26081" lon="-2.34156">
        <ele>55</ele>
        <time>2019-08-18T07:16:26Z</time>
      </trkpt>
      <trkpt lat="47.26085" lon="-2.34159">
        <ele>55</ele>
        <time>2019-08-18T07:16:27Z</time>
      </trkpt>
      <trkpt lat="47.26093" lon="-2.34164">
        <ele>55</ele>
        <time>2019-08-18T07:16:29Z</time>
      </trkpt>
      <trkpt lat="47.26101" lon="-2.34167">
        <ele>55</ele>
        <time>2019-08-18T07:16:31Z</time>
      </trkpt>
      <trkpt lat="47.26104" lon="-2.34169">
        <ele>55</ele>
        <time>2019-08-18T07:16:32Z</time>
      </trkpt>
      <trkpt lat="47.26108" lon="-2.34171">
        <ele>55</ele>
        <time>2019-08-18T07:16:33Z</time>
      </trkpt>
      <trkpt lat="47.26112" lon="-2.34171">
        <ele>55</ele>
        <time>2019-08-18T07:16:35Z</time>
      </trkpt>
      <trkpt lat="47.26117" lon="-2.34165">
        <ele>55</ele>
        <time>2019-08-18T07:16:38Z</time>
      </trkpt>
      <trkpt lat="47.26129" lon="-2.34163">
        <ele>55</ele>
        <time>2019-08-18T07:16:41Z</time>
      </trkpt>
      <trkpt lat="47.26137" lon="-2.34159">
        <ele>54</ele>
        <time>2019-08-18T07:16:43Z</time>
      </trkpt>
      <trkpt lat="47.26142" lon="-2.3416">
        <ele>54</ele>
        <time>2019-08-18T07:16:44Z</time>
      </trkpt>
      <trkpt lat="47.26147" lon="-2.34164">
        <ele>54</ele>
        <time>2019-08-18T07:16:45Z</time>
      </trkpt>
      <trkpt lat="47.26151" lon="-2.34169">
        <ele>54</ele>
        <time>2019-08-18T07:16:46Z</time>
      </trkpt>
      <trkpt lat="47.26155" lon="-2.34174">
        <ele>54</ele>
        <time>2019-08-18T07:16:47Z</time>
      </trkpt>
      <trkpt lat="47.2616" lon="-2.34178">
        <ele>53</ele>
        <time>2019-08-18T07:16:48Z</time>
      </trkpt>
      <trkpt lat="47.26165" lon="-2.34183">
        <ele>53</ele>
        <time>2019-08-18T07:16:49Z</time>
      </trkpt>
      <trkpt lat="47.2617" lon="-2.34189">
        <ele>54</ele>
        <time>2019-08-18T07:16:50Z</time>
      </trkpt>
      <trkpt lat="47.26175" lon="-2.34195">
        <ele>54</ele>
        <time>2019-08-18T07:16:51Z</time>
      </trkpt>
      <trkpt lat="47.2618" lon="-2.34199">
        <ele>54</ele>
        <time>2019-08-18T07:16:52Z</time>
      </trkpt>
      <trkpt lat="47.26185" lon="-2.34204">
        <ele>55</ele>
        <time>2019-08-18T07:16:53Z</time>
      </trkpt>
      <trkpt lat="47.2619" lon="-2.34208">
        <ele>54</ele>
        <time>2019-08-18T07:16:54Z</time>
      </trkpt>
      <trkpt lat="47.26194" lon="-2.34212">
        <ele>54</ele>
        <time>2019-08-18T07:16:55Z</time>
      </trkpt>
      <trkpt lat="47.26199" lon="-2.34217">
        <ele>54</ele>
        <time>2019-08-18T07:16:56Z</time>
      </trkpt>
      <trkpt lat="47.26207" lon="-2.34227">
        <ele>54</ele>
        <time>2019-08-18T07:16:58Z</time>
      </trkpt>
      <trkpt lat="47.26211" lon="-2.34231">
        <ele>54</ele>
        <time>2019-08-18T07:16:59Z</time>
      </trkpt>
      <trkpt lat="47.26216" lon="-2.34236">
        <ele>54</ele>
        <time>2019-08-18T07:17:00Z</time>
      </trkpt>
      <trkpt lat="47.2622" lon="-2.34241">
        <ele>54</ele>
        <time>2019-08-18T07:17:01Z</time>
      </trkpt>
      <trkpt lat="47.26224" lon="-2.34246">
        <ele>54</ele>
        <time>2019-08-18T07:17:02Z</time>
      </trkpt>
      <trkpt lat="47.26229" lon="-2.3425">
        <ele>54</ele>
        <time>2019-08-18T07:17:03Z</time>
      </trkpt>
      <trkpt lat="47.26234" lon="-2.34255">
        <ele>54</ele>
        <time>2019-08-18T07:17:04Z</time>
      </trkpt>
      <trkpt lat="47.26238" lon="-2.34259">
        <ele>54</ele>
        <time>2019-08-18T07:17:05Z</time>
      </trkpt>
      <trkpt lat="47.26243" lon="-2.34263">
        <ele>54</ele>
        <time>2019-08-18T07:17:06Z</time>
      </trkpt>
      <trkpt lat="47.26247" lon="-2.34268">
        <ele>54</ele>
        <time>2019-08-18T07:17:07Z</time>
      </trkpt>
      <trkpt lat="47.26251" lon="-2.34272">
        <ele>54</ele>
        <time>2019-08-18T07:17:08Z</time>
      </trkpt>
      <trkpt lat="47.26255" lon="-2.34276">
        <ele>54</ele>
        <time>2019-08-18T07:17:09Z</time>
      </trkpt>
      <trkpt lat="47.26262" lon="-2.34285">
        <ele>54</ele>
        <time>2019-08-18T07:17:11Z</time>
      </trkpt>
      <trkpt lat="47.2627" lon="-2.34293">
        <ele>54</ele>
        <time>2019-08-18T07:17:13Z</time>
      </trkpt>
      <trkpt lat="47.26275" lon="-2.34298">
        <ele>55</ele>
        <time>2019-08-18T07:17:14Z</time>
      </trkpt>
      <trkpt lat="47.26279" lon="-2.34303">
        <ele>55</ele>
        <time>2019-08-18T07:17:15Z</time>
      </trkpt>
      <trkpt lat="47.26287" lon="-2.34312">
        <ele>56</ele>
        <time>2019-08-18T07:17:17Z</time>
      </trkpt>
      <trkpt lat="47.26291" lon="-2.34316">
        <ele>56</ele>
        <time>2019-08-18T07:17:18Z</time>
      </trkpt>
      <trkpt lat="47.26299" lon="-2.34325">
        <ele>56</ele>
        <time>2019-08-18T07:17:20Z</time>
      </trkpt>
      <trkpt lat="47.26304" lon="-2.3433">
        <ele>56</ele>
        <time>2019-08-18T07:17:21Z</time>
      </trkpt>
      <trkpt lat="47.26308" lon="-2.34334">
        <ele>55</ele>
        <time>2019-08-18T07:17:22Z</time>
      </trkpt>
      <trkpt lat="47.26311" lon="-2.34338">
        <ele>55</ele>
        <time>2019-08-18T07:17:23Z</time>
      </trkpt>
      <trkpt lat="47.26318" lon="-2.34344">
        <ele>55</ele>
        <time>2019-08-18T07:17:25Z</time>
      </trkpt>
      <trkpt lat="47.26326" lon="-2.34346">
        <ele>54</ele>
        <time>2019-08-18T07:17:27Z</time>
      </trkpt>
      <trkpt lat="47.26331" lon="-2.34344">
        <ele>54</ele>
        <time>2019-08-18T07:17:29Z</time>
      </trkpt>
      <trkpt lat="47.26334" lon="-2.34342">
        <ele>54</ele>
        <time>2019-08-18T07:17:31Z</time>
      </trkpt>
      <trkpt lat="47.2634" lon="-2.34344">
        <ele>53</ele>
        <time>2019-08-18T07:17:35Z</time>
      </trkpt>
      <trkpt lat="47.26342" lon="-2.34345">
        <ele>53</ele>
        <time>2019-08-18T07:17:36Z</time>
      </trkpt>
      <trkpt lat="47.26348" lon="-2.34341">
        <ele>54</ele>
        <time>2019-08-18T07:17:39Z</time>
      </trkpt>
      <trkpt lat="47.26352" lon="-2.34334">
        <ele>53</ele>
        <time>2019-08-18T07:17:41Z</time>
      </trkpt>
      <trkpt lat="47.26355" lon="-2.34324">
        <ele>53</ele>
        <time>2019-08-18T07:17:43Z</time>
      </trkpt>
      <trkpt lat="47.26359" lon="-2.34316">
        <ele>54</ele>
        <time>2019-08-18T07:17:45Z</time>
      </trkpt>
      <trkpt lat="47.26361" lon="-2.34312">
        <ele>54</ele>
        <time>2019-08-18T07:17:46Z</time>
      </trkpt>
      <trkpt lat="47.26363" lon="-2.34308">
        <ele>55</ele>
        <time>2019-08-18T07:17:47Z</time>
      </trkpt>
      <trkpt lat="47.26368" lon="-2.34299">
        <ele>55</ele>
        <time>2019-08-18T07:17:49Z</time>
      </trkpt>
      <trkpt lat="47.2637" lon="-2.34296">
        <ele>56</ele>
        <time>2019-08-18T07:17:50Z</time>
      </trkpt>
      <trkpt lat="47.26377" lon="-2.34292">
        <ele>56</ele>
        <time>2019-08-18T07:17:53Z</time>
      </trkpt>
      <trkpt lat="47.26386" lon="-2.34293">
        <ele>57</ele>
        <time>2019-08-18T07:17:56Z</time>
      </trkpt>
      <trkpt lat="47.26391" lon="-2.34294">
        <ele>57</ele>
        <time>2019-08-18T07:17:57Z</time>
      </trkpt>
      <trkpt lat="47.26396" lon="-2.34294">
        <ele>57</ele>
        <time>2019-08-18T07:17:58Z</time>
      </trkpt>
      <trkpt lat="47.26401" lon="-2.34296">
        <ele>58</ele>
        <time>2019-08-18T07:17:59Z</time>
      </trkpt>
      <trkpt lat="47.26407" lon="-2.34298">
        <ele>58</ele>
        <time>2019-08-18T07:18:00Z</time>
      </trkpt>
      <trkpt lat="47.26418" lon="-2.34302">
        <ele>59</ele>
        <time>2019-08-18T07:18:02Z</time>
      </trkpt>
      <trkpt lat="47.26424" lon="-2.34303">
        <ele>58</ele>
        <time>2019-08-18T07:18:03Z</time>
      </trkpt>
      <trkpt lat="47.26429" lon="-2.34305">
        <ele>58</ele>
        <time>2019-08-18T07:18:04Z</time>
      </trkpt>
      <trkpt lat="47.26434" lon="-2.34307">
        <ele>58</ele>
        <time>2019-08-18T07:18:05Z</time>
      </trkpt>
      <trkpt lat="47.26439" lon="-2.3431">
        <ele>58</ele>
        <time>2019-08-18T07:18:06Z</time>
      </trkpt>
      <trkpt lat="47.26445" lon="-2.34312">
        <ele>59</ele>
        <time>2019-08-18T07:18:07Z</time>
      </trkpt>
      <trkpt lat="47.2645" lon="-2.34314">
        <ele>59</ele>
        <time>2019-08-18T07:18:08Z</time>
      </trkpt>
      <trkpt lat="47.26455" lon="-2.34315">
        <ele>59</ele>
        <time>2019-08-18T07:18:09Z</time>
      </trkpt>
      <trkpt lat="47.2646" lon="-2.34316">
        <ele>59</ele>
        <time>2019-08-18T07:18:10Z</time>
      </trkpt>
      <trkpt lat="47.26466" lon="-2.34317">
        <ele>58</ele>
        <time>2019-08-18T07:18:11Z</time>
      </trkpt>
      <trkpt lat="47.26472" lon="-2.34318">
        <ele>58</ele>
        <time>2019-08-18T07:18:12Z</time>
      </trkpt>
      <trkpt lat="47.26492" lon="-2.34323">
        <ele>57</ele>
        <time>2019-08-18T07:18:16Z</time>
      </trkpt>
      <trkpt lat="47.26498" lon="-2.34324">
        <ele>57</ele>
        <time>2019-08-18T07:18:17Z</time>
      </trkpt>
      <trkpt lat="47.26503" lon="-2.34325">
        <ele>58</ele>
        <time>2019-08-18T07:18:18Z</time>
      </trkpt>
      <trkpt lat="47.26508" lon="-2.34326">
        <ele>57</ele>
        <time>2019-08-18T07:18:19Z</time>
      </trkpt>
      <trkpt lat="47.26513" lon="-2.34327">
        <ele>57</ele>
        <time>2019-08-18T07:18:20Z</time>
      </trkpt>
      <trkpt lat="47.26518" lon="-2.34327">
        <ele>57</ele>
        <time>2019-08-18T07:18:21Z</time>
      </trkpt>
      <trkpt lat="47.26531" lon="-2.34324">
        <ele>56</ele>
        <time>2019-08-18T07:18:24Z</time>
      </trkpt>
      <trkpt lat="47.26536" lon="-2.34321">
        <ele>57</ele>
        <time>2019-08-18T07:18:25Z</time>
      </trkpt>
      <trkpt lat="47.2654" lon="-2.3432">
        <ele>57</ele>
        <time>2019-08-18T07:18:26Z</time>
      </trkpt>
      <trkpt lat="47.26545" lon="-2.34319">
        <ele>57</ele>
        <time>2019-08-18T07:18:27Z</time>
      </trkpt>
      <trkpt lat="47.26549" lon="-2.34317">
        <ele>56</ele>
        <time>2019-08-18T07:18:28Z</time>
      </trkpt>
      <trkpt lat="47.26557" lon="-2.34311">
        <ele>56</ele>
        <time>2019-08-18T07:18:30Z</time>
      </trkpt>
      <trkpt lat="47.26561" lon="-2.34306">
        <ele>56</ele>
        <time>2019-08-18T07:18:31Z</time>
      </trkpt>
      <trkpt lat="47.26565" lon="-2.34301">
        <ele>56</ele>
        <time>2019-08-18T07:18:32Z</time>
      </trkpt>
      <trkpt lat="47.26581" lon="-2.3428">
        <ele>57</ele>
        <time>2019-08-18T07:18:36Z</time>
      </trkpt>
      <trkpt lat="47.26585" lon="-2.34275">
        <ele>57</ele>
        <time>2019-08-18T07:18:37Z</time>
      </trkpt>
      <trkpt lat="47.26594" lon="-2.34265">
        <ele>57</ele>
        <time>2019-08-18T07:18:39Z</time>
      </trkpt>
      <trkpt lat="47.26597" lon="-2.34261">
        <ele>57</ele>
        <time>2019-08-18T07:18:40Z</time>
      </trkpt>
      <trkpt lat="47.26605" lon="-2.34253">
        <ele>58</ele>
        <time>2019-08-18T07:18:42Z</time>
      </trkpt>
      <trkpt lat="47.26609" lon="-2.34248">
        <ele>58</ele>
        <time>2019-08-18T07:18:43Z</time>
      </trkpt>
      <trkpt lat="47.26613" lon="-2.34245">
        <ele>58</ele>
        <time>2019-08-18T07:18:44Z</time>
      </trkpt>
      <trkpt lat="47.26618" lon="-2.34241">
        <ele>58</ele>
        <time>2019-08-18T07:18:45Z</time>
      </trkpt>
      <trkpt lat="47.26624" lon="-2.34232">
        <ele>58</ele>
        <time>2019-08-18T07:18:47Z</time>
      </trkpt>
      <trkpt lat="47.26627" lon="-2.34228">
        <ele>58</ele>
        <time>2019-08-18T07:18:48Z</time>
      </trkpt>
      <trkpt lat="47.26635" lon="-2.3422">
        <ele>58</ele>
        <time>2019-08-18T07:18:50Z</time>
      </trkpt>
      <trkpt lat="47.26638" lon="-2.34216">
        <ele>58</ele>
        <time>2019-08-18T07:18:51Z</time>
      </trkpt>
      <trkpt lat="47.26641" lon="-2.34212">
        <ele>59</ele>
        <time>2019-08-18T07:18:52Z</time>
      </trkpt>
      <trkpt lat="47.26644" lon="-2.34209">
        <ele>59</ele>
        <time>2019-08-18T07:18:53Z</time>
      </trkpt>
      <trkpt lat="47.26647" lon="-2.34204">
        <ele>59</ele>
        <time>2019-08-18T07:18:54Z</time>
      </trkpt>
      <trkpt lat="47.26654" lon="-2.34196">
        <ele>59</ele>
        <time>2019-08-18T07:18:56Z</time>
      </trkpt>
      <trkpt lat="47.26658" lon="-2.34193">
        <ele>59</ele>
        <time>2019-08-18T07:18:57Z</time>
      </trkpt>
      <trkpt lat="47.26662" lon="-2.34189">
        <ele>59</ele>
        <time>2019-08-18T07:18:58Z</time>
      </trkpt>
      <trkpt lat="47.26665" lon="-2.34185">
        <ele>59</ele>
        <time>2019-08-18T07:18:59Z</time>
      </trkpt>
      <trkpt lat="47.26669" lon="-2.34182">
        <ele>59</ele>
        <time>2019-08-18T07:19:00Z</time>
      </trkpt>
      <trkpt lat="47.26677" lon="-2.34178">
        <ele>60</ele>
        <time>2019-08-18T07:19:02Z</time>
      </trkpt>
      <trkpt lat="47.26684" lon="-2.34173">
        <ele>61</ele>
        <time>2019-08-18T07:19:04Z</time>
      </trkpt>
      <trkpt lat="47.26694" lon="-2.34165">
        <ele>61</ele>
        <time>2019-08-18T07:19:07Z</time>
      </trkpt>
      <trkpt lat="47.267" lon="-2.34159">
        <ele>61</ele>
        <time>2019-08-18T07:19:09Z</time>
      </trkpt>
      <trkpt lat="47.2671" lon="-2.34153">
        <ele>61</ele>
        <time>2019-08-18T07:19:12Z</time>
      </trkpt>
      <trkpt lat="47.26718" lon="-2.34156">
        <ele>61</ele>
        <time>2019-08-18T07:19:14Z</time>
      </trkpt>
      <trkpt lat="47.26726" lon="-2.34162">
        <ele>61</ele>
        <time>2019-08-18T07:19:16Z</time>
      </trkpt>
      <trkpt lat="47.2673" lon="-2.34165">
        <ele>61</ele>
        <time>2019-08-18T07:19:17Z</time>
      </trkpt>
      <trkpt lat="47.26748" lon="-2.34178">
        <ele>61</ele>
        <time>2019-08-18T07:19:21Z</time>
      </trkpt>
      <trkpt lat="47.26752" lon="-2.34182">
        <ele>61</ele>
        <time>2019-08-18T07:19:22Z</time>
      </trkpt>
      <trkpt lat="47.26756" lon="-2.34186">
        <ele>61</ele>
        <time>2019-08-18T07:19:23Z</time>
      </trkpt>
      <trkpt lat="47.26761" lon="-2.3419">
        <ele>61</ele>
        <time>2019-08-18T07:19:24Z</time>
      </trkpt>
      <trkpt lat="47.26766" lon="-2.34193">
        <ele>61</ele>
        <time>2019-08-18T07:19:25Z</time>
      </trkpt>
      <trkpt lat="47.26775" lon="-2.342">
        <ele>60</ele>
        <time>2019-08-18T07:19:27Z</time>
      </trkpt>
      <trkpt lat="47.2678" lon="-2.34203">
        <ele>61</ele>
        <time>2019-08-18T07:19:28Z</time>
      </trkpt>
      <trkpt lat="47.26785" lon="-2.34206">
        <ele>61</ele>
        <time>2019-08-18T07:19:29Z</time>
      </trkpt>
      <trkpt lat="47.26789" lon="-2.34209">
        <ele>60</ele>
        <time>2019-08-18T07:19:30Z</time>
      </trkpt>
      <trkpt lat="47.26794" lon="-2.34213">
        <ele>60</ele>
        <time>2019-08-18T07:19:31Z</time>
      </trkpt>
      <trkpt lat="47.26799" lon="-2.34216">
        <ele>60</ele>
        <time>2019-08-18T07:19:32Z</time>
      </trkpt>
      <trkpt lat="47.26804" lon="-2.3422">
        <ele>60</ele>
        <time>2019-08-18T07:19:33Z</time>
      </trkpt>
      <trkpt lat="47.26808" lon="-2.34223">
        <ele>60</ele>
        <time>2019-08-18T07:19:34Z</time>
      </trkpt>
      <trkpt lat="47.26812" lon="-2.34226">
        <ele>60</ele>
        <time>2019-08-18T07:19:35Z</time>
      </trkpt>
      <trkpt lat="47.26817" lon="-2.34231">
        <ele>60</ele>
        <time>2019-08-18T07:19:36Z</time>
      </trkpt>
      <trkpt lat="47.26822" lon="-2.34234">
        <ele>60</ele>
        <time>2019-08-18T07:19:37Z</time>
      </trkpt>
      <trkpt lat="47.26837" lon="-2.34243">
        <ele>60</ele>
        <time>2019-08-18T07:19:40Z</time>
      </trkpt>
      <trkpt lat="47.26842" lon="-2.34246">
        <ele>60</ele>
        <time>2019-08-18T07:19:41Z</time>
      </trkpt>
      <trkpt lat="47.26847" lon="-2.3425">
        <ele>59</ele>
        <time>2019-08-18T07:19:42Z</time>
      </trkpt>
      <trkpt lat="47.26853" lon="-2.34253">
        <ele>58</ele>
        <time>2019-08-18T07:19:43Z</time>
      </trkpt>
      <trkpt lat="47.26858" lon="-2.34256">
        <ele>58</ele>
        <time>2019-08-18T07:19:44Z</time>
      </trkpt>
      <trkpt lat="47.26862" lon="-2.3426">
        <ele>58</ele>
        <time>2019-08-18T07:19:45Z</time>
      </trkpt>
      <trkpt lat="47.26872" lon="-2.34267">
        <ele>58</ele>
        <time>2019-08-18T07:19:47Z</time>
      </trkpt>
      <trkpt lat="47.26877" lon="-2.34271">
        <ele>59</ele>
        <time>2019-08-18T07:19:48Z</time>
      </trkpt>
      <trkpt lat="47.26886" lon="-2.34278">
        <ele>59</ele>
        <time>2019-08-18T07:19:50Z</time>
      </trkpt>
      <trkpt lat="47.26891" lon="-2.34281">
        <ele>59</ele>
        <time>2019-08-18T07:19:51Z</time>
      </trkpt>
      <trkpt lat="47.26896" lon="-2.34283">
        <ele>59</ele>
        <time>2019-08-18T07:19:52Z</time>
      </trkpt>
      <trkpt lat="47.26905" lon="-2.34292">
        <ele>59</ele>
        <time>2019-08-18T07:19:54Z</time>
      </trkpt>
      <trkpt lat="47.26908" lon="-2.34297">
        <ele>59</ele>
        <time>2019-08-18T07:19:55Z</time>
      </trkpt>
      <trkpt lat="47.26917" lon="-2.34305">
        <ele>58</ele>
        <time>2019-08-18T07:19:57Z</time>
      </trkpt>
      <trkpt lat="47.26921" lon="-2.34309">
        <ele>58</ele>
        <time>2019-08-18T07:19:58Z</time>
      </trkpt>
      <trkpt lat="47.26927" lon="-2.3431">
        <ele>58</ele>
        <time>2019-08-18T07:19:59Z</time>
      </trkpt>
      <trkpt lat="47.26932" lon="-2.34311">
        <ele>57</ele>
        <time>2019-08-18T07:20:00Z</time>
      </trkpt>
      <trkpt lat="47.26937" lon="-2.3431">
        <ele>57</ele>
        <time>2019-08-18T07:20:01Z</time>
      </trkpt>
      <trkpt lat="47.26942" lon="-2.3431">
        <ele>58</ele>
        <time>2019-08-18T07:20:02Z</time>
      </trkpt>
      <trkpt lat="47.26947" lon="-2.3431">
        <ele>57</ele>
        <time>2019-08-18T07:20:03Z</time>
      </trkpt>
      <trkpt lat="47.26964" lon="-2.34314">
        <ele>58</ele>
        <time>2019-08-18T07:20:06Z</time>
      </trkpt>
      <trkpt lat="47.26969" lon="-2.34316">
        <ele>58</ele>
        <time>2019-08-18T07:20:07Z</time>
      </trkpt>
      <trkpt lat="47.26975" lon="-2.34318">
        <ele>58</ele>
        <time>2019-08-18T07:20:08Z</time>
      </trkpt>
      <trkpt lat="47.2698" lon="-2.3432">
        <ele>58</ele>
        <time>2019-08-18T07:20:09Z</time>
      </trkpt>
      <trkpt lat="47.26986" lon="-2.34321">
        <ele>57</ele>
        <time>2019-08-18T07:20:10Z</time>
      </trkpt>
      <trkpt lat="47.26992" lon="-2.34321">
        <ele>57</ele>
        <time>2019-08-18T07:20:11Z</time>
      </trkpt>
      <trkpt lat="47.26998" lon="-2.34322">
        <ele>57</ele>
        <time>2019-08-18T07:20:12Z</time>
      </trkpt>
      <trkpt lat="47.27003" lon="-2.34321">
        <ele>56</ele>
        <time>2019-08-18T07:20:13Z</time>
      </trkpt>
      <trkpt lat="47.27019" lon="-2.34321">
        <ele>56</ele>
        <time>2019-08-18T07:20:16Z</time>
      </trkpt>
      <trkpt lat="47.27024" lon="-2.34321">
        <ele>55</ele>
        <time>2019-08-18T07:20:17Z</time>
      </trkpt>
      <trkpt lat="47.27035" lon="-2.3432">
        <ele>56</ele>
        <time>2019-08-18T07:20:19Z</time>
      </trkpt>
      <trkpt lat="47.2704" lon="-2.34319">
        <ele>56</ele>
        <time>2019-08-18T07:20:20Z</time>
      </trkpt>
      <trkpt lat="47.27045" lon="-2.3432">
        <ele>56</ele>
        <time>2019-08-18T07:20:21Z</time>
      </trkpt>
      <trkpt lat="47.2705" lon="-2.3432">
        <ele>56</ele>
        <time>2019-08-18T07:20:22Z</time>
      </trkpt>
      <trkpt lat="47.27055" lon="-2.34319">
        <ele>56</ele>
        <time>2019-08-18T07:20:23Z</time>
      </trkpt>
      <trkpt lat="47.2707" lon="-2.34321">
        <ele>56</ele>
        <time>2019-08-18T07:20:26Z</time>
      </trkpt>
      <trkpt lat="47.27078" lon="-2.3432">
        <ele>56</ele>
        <time>2019-08-18T07:20:28Z</time>
      </trkpt>
      <trkpt lat="47.27081" lon="-2.3432">
        <ele>56</ele>
        <time>2019-08-18T07:20:29Z</time>
      </trkpt>
      <trkpt lat="47.27086" lon="-2.3432">
        <ele>57</ele>
        <time>2019-08-18T07:20:31Z</time>
      </trkpt>
      <trkpt lat="47.27089" lon="-2.34321">
        <ele>57</ele>
        <time>2019-08-18T07:20:33Z</time>
      </trkpt>
      <trkpt lat="47.27094" lon="-2.3432">
        <ele>57</ele>
        <time>2019-08-18T07:20:37Z</time>
      </trkpt>
      <trkpt lat="47.27096" lon="-2.3432">
        <ele>58</ele>
        <time>2019-08-18T07:20:40Z</time>
      </trkpt>
      <trkpt lat="47.27099" lon="-2.3432">
        <ele>58</ele>
        <time>2019-08-18T07:20:43Z</time>
      </trkpt>
      <trkpt lat="47.27099" lon="-2.3432">
        <ele>12.5</ele>
        <time>2019-08-18T07:20:50Z</time>
      </trkpt>
      <trkpt lat="47.27099" lon="-2.3432">
        <ele>12.5</ele>
        <time>2019-08-18T07:20:58Z</time>
      </trkpt>
      <trkpt lat="47.2711" lon="-2.34323">
        <ele>58</ele>
        <time>2019-08-18T07:20:58Z</time>
      </trkpt>
      <trkpt lat="47.27121" lon="-2.34329">
        <ele>63</ele>
        <time>2019-08-18T07:21:05Z</time>
      </trkpt>
      <trkpt lat="47.27126" lon="-2.34336">
        <ele>65</ele>
        <time>2019-08-18T07:21:07Z</time>
      </trkpt>
      <trkpt lat="47.27132" lon="-2.34345">
        <ele>64</ele>
        <time>2019-08-18T07:21:10Z</time>
      </trkpt>
      <trkpt lat="47.27138" lon="-2.34349">
        <ele>64</ele>
        <time>2019-08-18T07:21:12Z</time>
      </trkpt>
      <trkpt lat="47.27144" lon="-2.34355">
        <ele>65</ele>
        <time>2019-08-18T07:21:14Z</time>
      </trkpt>
      <trkpt lat="47.27147" lon="-2.34358">
        <ele>63</ele>
        <time>2019-08-18T07:21:15Z</time>
      </trkpt>
      <trkpt lat="47.27152" lon="-2.34367">
        <ele>63</ele>
        <time>2019-08-18T07:21:18Z</time>
      </trkpt>
      <trkpt lat="47.27154" lon="-2.3437">
        <ele>63</ele>
        <time>2019-08-18T07:21:19Z</time>
      </trkpt>
      <trkpt lat="47.27159" lon="-2.34377">
        <ele>63</ele>
        <time>2019-08-18T07:21:22Z</time>
      </trkpt>
      <trkpt lat="47.27165" lon="-2.34378">
        <ele>62</ele>
        <time>2019-08-18T07:21:24Z</time>
      </trkpt>
      <trkpt lat="47.27167" lon="-2.34368">
        <ele>61</ele>
        <time>2019-08-18T07:21:28Z</time>
      </trkpt>
      <trkpt lat="47.27167" lon="-2.34368">
        <ele>61</ele>
        <time>2019-08-18T07:21:36Z</time>
      </trkpt>
      <trkpt lat="47.27167" lon="-2.34368">
        <ele>14</ele>
        <time>2019-08-18T07:21:36Z</time>
      </trkpt>
      <trkpt lat="47.27167" lon="-2.34368">
        <ele>14</ele>
        <time>2019-08-18T07:21:39Z</time>
      </trkpt>
      <trkpt lat="47.27167" lon="-2.34411">
        <ele>60</ele>
        <time>2019-08-18T07:21:39Z</time>
      </trkpt>
      <trkpt lat="47.27171" lon="-2.34445">
        <ele>57</ele>
        <time>2019-08-18T07:21:46Z</time>
      </trkpt>
      <trkpt lat="47.27172" lon="-2.34454">
        <ele>56</ele>
        <time>2019-08-18T07:21:48Z</time>
      </trkpt>
      <trkpt lat="47.27176" lon="-2.34459">
        <ele>56</ele>
        <time>2019-08-18T07:21:50Z</time>
      </trkpt>
      <trkpt lat="47.27182" lon="-2.34461">
        <ele>56</ele>
        <time>2019-08-18T07:21:52Z</time>
      </trkpt>
      <trkpt lat="47.27188" lon="-2.34461">
        <ele>57</ele>
        <time>2019-08-18T07:21:54Z</time>
      </trkpt>
      <trkpt lat="47.27198" lon="-2.34462">
        <ele>59</ele>
        <time>2019-08-18T07:21:57Z</time>
      </trkpt>
      <trkpt lat="47.27204" lon="-2.34465">
        <ele>62</ele>
        <time>2019-08-18T07:21:59Z</time>
      </trkpt>
      <trkpt lat="47.27208" lon="-2.34466">
        <ele>62</ele>
        <time>2019-08-18T07:22:00Z</time>
      </trkpt>
      <trkpt lat="47.27211" lon="-2.34467">
        <ele>62</ele>
        <time>2019-08-18T07:22:01Z</time>
      </trkpt>
      <trkpt lat="47.27215" lon="-2.34467">
        <ele>63</ele>
        <time>2019-08-18T07:22:02Z</time>
      </trkpt>
      <trkpt lat="47.27222" lon="-2.34466">
        <ele>66</ele>
        <time>2019-08-18T07:22:04Z</time>
      </trkpt>
      <trkpt lat="47.27226" lon="-2.34466">
        <ele>67</ele>
        <time>2019-08-18T07:22:05Z</time>
      </trkpt>
      <trkpt lat="47.27239" lon="-2.34464">
        <ele>67</ele>
        <time>2019-08-18T07:22:08Z</time>
      </trkpt>
      <trkpt lat="47.27246" lon="-2.34465">
        <ele>69</ele>
        <time>2019-08-18T07:22:10Z</time>
      </trkpt>
      <trkpt lat="47.2725" lon="-2.34465">
        <ele>69</ele>
        <time>2019-08-18T07:22:11Z</time>
      </trkpt>
      <trkpt lat="47.27263" lon="-2.34465">
        <ele>70</ele>
        <time>2019-08-18T07:22:14Z</time>
      </trkpt>
      <trkpt lat="47.27267" lon="-2.34466">
        <ele>70</ele>
        <time>2019-08-18T07:22:15Z</time>
      </trkpt>
      <trkpt lat="47.27272" lon="-2.34466">
        <ele>70</ele>
        <time>2019-08-18T07:22:16Z</time>
      </trkpt>
      <trkpt lat="47.27276" lon="-2.34465">
        <ele>69</ele>
        <time>2019-08-18T07:22:17Z</time>
      </trkpt>
      <trkpt lat="47.27289" lon="-2.34463">
        <ele>70</ele>
        <time>2019-08-18T07:22:20Z</time>
      </trkpt>
      <trkpt lat="47.27298" lon="-2.34461">
        <ele>71</ele>
        <time>2019-08-18T07:22:22Z</time>
      </trkpt>
      <trkpt lat="47.27306" lon="-2.3446">
        <ele>70</ele>
        <time>2019-08-18T07:22:24Z</time>
      </trkpt>
      <trkpt lat="47.27311" lon="-2.3446">
        <ele>70</ele>
        <time>2019-08-18T07:22:25Z</time>
      </trkpt>
      <trkpt lat="47.27316" lon="-2.3446">
        <ele>70</ele>
        <time>2019-08-18T07:22:26Z</time>
      </trkpt>
      <trkpt lat="47.27321" lon="-2.3446">
        <ele>71</ele>
        <time>2019-08-18T07:22:27Z</time>
      </trkpt>
      <trkpt lat="47.27326" lon="-2.3446">
        <ele>71</ele>
        <time>2019-08-18T07:22:28Z</time>
      </trkpt>
      <trkpt lat="47.2733" lon="-2.3446">
        <ele>70</ele>
        <time>2019-08-18T07:22:29Z</time>
      </trkpt>
      <trkpt lat="47.27335" lon="-2.34461">
        <ele>70</ele>
        <time>2019-08-18T07:22:30Z</time>
      </trkpt>
      <trkpt lat="47.2734" lon="-2.34462">
        <ele>70</ele>
        <time>2019-08-18T07:22:31Z</time>
      </trkpt>
      <trkpt lat="47.27352" lon="-2.3447">
        <ele>71</ele>
        <time>2019-08-18T07:22:34Z</time>
      </trkpt>
      <trkpt lat="47.27357" lon="-2.34487">
        <ele>71</ele>
        <time>2019-08-18T07:22:37Z</time>
      </trkpt>
      <trkpt lat="47.27361" lon="-2.34504">
        <ele>70</ele>
        <time>2019-08-18T07:22:40Z</time>
      </trkpt>
      <trkpt lat="47.27363" lon="-2.34516">
        <ele>70</ele>
        <time>2019-08-18T07:22:42Z</time>
      </trkpt>
      <trkpt lat="47.27364" lon="-2.34523">
        <ele>70</ele>
        <time>2019-08-18T07:22:43Z</time>
      </trkpt>
      <trkpt lat="47.27367" lon="-2.34541">
        <ele>70</ele>
        <time>2019-08-18T07:22:46Z</time>
      </trkpt>
      <trkpt lat="47.27368" lon="-2.34548">
        <ele>70</ele>
        <time>2019-08-18T07:22:47Z</time>
      </trkpt>
      <trkpt lat="47.27369" lon="-2.34554">
        <ele>70</ele>
        <time>2019-08-18T07:22:48Z</time>
      </trkpt>
      <trkpt lat="47.2737" lon="-2.3456">
        <ele>71</ele>
        <time>2019-08-18T07:22:49Z</time>
      </trkpt>
      <trkpt lat="47.27372" lon="-2.34566">
        <ele>71</ele>
        <time>2019-08-18T07:22:50Z</time>
      </trkpt>
      <trkpt lat="47.27373" lon="-2.34573">
        <ele>70</ele>
        <time>2019-08-18T07:22:51Z</time>
      </trkpt>
      <trkpt lat="47.27375" lon="-2.3458">
        <ele>70</ele>
        <time>2019-08-18T07:22:52Z</time>
      </trkpt>
      <trkpt lat="47.27376" lon="-2.34587">
        <ele>70</ele>
        <time>2019-08-18T07:22:53Z</time>
      </trkpt>
      <trkpt lat="47.2738" lon="-2.34605">
        <ele>70</ele>
        <time>2019-08-18T07:22:56Z</time>
      </trkpt>
      <trkpt lat="47.27381" lon="-2.34617">
        <ele>70</ele>
        <time>2019-08-18T07:22:58Z</time>
      </trkpt>
      <trkpt lat="47.27382" lon="-2.34623">
        <ele>71</ele>
        <time>2019-08-18T07:22:59Z</time>
      </trkpt>
      <trkpt lat="47.27383" lon="-2.34629">
        <ele>71</ele>
        <time>2019-08-18T07:23:00Z</time>
      </trkpt>
      <trkpt lat="47.27384" lon="-2.34635">
        <ele>71</ele>
        <time>2019-08-18T07:23:01Z</time>
      </trkpt>
      <trkpt lat="47.27388" lon="-2.34643">
        <ele>71</ele>
        <time>2019-08-18T07:23:03Z</time>
      </trkpt>
      <trkpt lat="47.27393" lon="-2.34646">
        <ele>71</ele>
        <time>2019-08-18T07:23:05Z</time>
      </trkpt>
      <trkpt lat="47.274" lon="-2.34644">
        <ele>71</ele>
        <time>2019-08-18T07:23:07Z</time>
      </trkpt>
      <trkpt lat="47.27405" lon="-2.34642">
        <ele>72</ele>
        <time>2019-08-18T07:23:08Z</time>
      </trkpt>
      <trkpt lat="47.2741" lon="-2.3464">
        <ele>72</ele>
        <time>2019-08-18T07:23:09Z</time>
      </trkpt>
      <trkpt lat="47.27414" lon="-2.34638">
        <ele>72</ele>
        <time>2019-08-18T07:23:10Z</time>
      </trkpt>
      <trkpt lat="47.27423" lon="-2.34638">
        <ele>72</ele>
        <time>2019-08-18T07:23:12Z</time>
      </trkpt>
      <trkpt lat="47.27431" lon="-2.34637">
        <ele>72</ele>
        <time>2019-08-18T07:23:14Z</time>
      </trkpt>
      <trkpt lat="47.27436" lon="-2.34637">
        <ele>71</ele>
        <time>2019-08-18T07:23:15Z</time>
      </trkpt>
      <trkpt lat="47.2744" lon="-2.34637">
        <ele>71</ele>
        <time>2019-08-18T07:23:16Z</time>
      </trkpt>
      <trkpt lat="47.27446" lon="-2.34635">
        <ele>72</ele>
        <time>2019-08-18T07:23:18Z</time>
      </trkpt>
      <trkpt lat="47.27448" lon="-2.34634">
        <ele>72</ele>
        <time>2019-08-18T07:23:19Z</time>
      </trkpt>
      <trkpt lat="47.27453" lon="-2.34639">
        <ele>72</ele>
        <time>2019-08-18T07:23:22Z</time>
      </trkpt>
      <trkpt lat="47.27454" lon="-2.34648">
        <ele>72</ele>
        <time>2019-08-18T07:23:24Z</time>
      </trkpt>
      <trkpt lat="47.27457" lon="-2.3467">
        <ele>71</ele>
        <time>2019-08-18T07:23:28Z</time>
      </trkpt>
      <trkpt lat="47.27457" lon="-2.34677">
        <ele>71</ele>
        <time>2019-08-18T07:23:29Z</time>
      </trkpt>
      <trkpt lat="47.2746" lon="-2.34689">
        <ele>71</ele>
        <time>2019-08-18T07:23:31Z</time>
      </trkpt>
      <trkpt lat="47.27466" lon="-2.34692">
        <ele>71</ele>
        <time>2019-08-18T07:23:33Z</time>
      </trkpt>
      <trkpt lat="47.27474" lon="-2.34687">
        <ele>71</ele>
        <time>2019-08-18T07:23:35Z</time>
      </trkpt>
      <trkpt lat="47.27479" lon="-2.34685">
        <ele>71</ele>
        <time>2019-08-18T07:23:36Z</time>
      </trkpt>
      <trkpt lat="47.27483" lon="-2.34683">
        <ele>71</ele>
        <time>2019-08-18T07:23:37Z</time>
      </trkpt>
      <trkpt lat="47.27489" lon="-2.34682">
        <ele>71</ele>
        <time>2019-08-18T07:23:38Z</time>
      </trkpt>
      <trkpt lat="47.27494" lon="-2.3468">
        <ele>71</ele>
        <time>2019-08-18T07:23:39Z</time>
      </trkpt>
      <trkpt lat="47.27499" lon="-2.34678">
        <ele>72</ele>
        <time>2019-08-18T07:23:40Z</time>
      </trkpt>
      <trkpt lat="47.27504" lon="-2.34677">
        <ele>72</ele>
        <time>2019-08-18T07:23:41Z</time>
      </trkpt>
      <trkpt lat="47.2751" lon="-2.34677">
        <ele>72</ele>
        <time>2019-08-18T07:23:42Z</time>
      </trkpt>
      <trkpt lat="47.27515" lon="-2.34677">
        <ele>72</ele>
        <time>2019-08-18T07:23:43Z</time>
      </trkpt>
      <trkpt lat="47.2752" lon="-2.34676">
        <ele>72</ele>
        <time>2019-08-18T07:23:44Z</time>
      </trkpt>
      <trkpt lat="47.27526" lon="-2.34675">
        <ele>72</ele>
        <time>2019-08-18T07:23:45Z</time>
      </trkpt>
      <trkpt lat="47.27544" lon="-2.34673">
        <ele>72</ele>
        <time>2019-08-18T07:23:48Z</time>
      </trkpt>
      <trkpt lat="47.27549" lon="-2.34671">
        <ele>72</ele>
        <time>2019-08-18T07:23:49Z</time>
      </trkpt>
      <trkpt lat="47.27555" lon="-2.34669">
        <ele>72</ele>
        <time>2019-08-18T07:23:50Z</time>
      </trkpt>
      <trkpt lat="47.2756" lon="-2.34667">
        <ele>72</ele>
        <time>2019-08-18T07:23:51Z</time>
      </trkpt>
      <trkpt lat="47.27566" lon="-2.34664">
        <ele>72</ele>
        <time>2019-08-18T07:23:52Z</time>
      </trkpt>
      <trkpt lat="47.27571" lon="-2.3466">
        <ele>72</ele>
        <time>2019-08-18T07:23:53Z</time>
      </trkpt>
      <trkpt lat="47.27576" lon="-2.34654">
        <ele>72</ele>
        <time>2019-08-18T07:23:54Z</time>
      </trkpt>
      <trkpt lat="47.27581" lon="-2.3465">
        <ele>73</ele>
        <time>2019-08-18T07:23:55Z</time>
      </trkpt>
      <trkpt lat="47.27586" lon="-2.34646">
        <ele>73</ele>
        <time>2019-08-18T07:23:56Z</time>
      </trkpt>
      <trkpt lat="47.27601" lon="-2.34632">
        <ele>72</ele>
        <time>2019-08-18T07:23:59Z</time>
      </trkpt>
      <trkpt lat="47.27606" lon="-2.34627">
        <ele>72</ele>
        <time>2019-08-18T07:24:00Z</time>
      </trkpt>
      <trkpt lat="47.27611" lon="-2.34622">
        <ele>72</ele>
        <time>2019-08-18T07:24:01Z</time>
      </trkpt>
      <trkpt lat="47.27615" lon="-2.34618">
        <ele>72</ele>
        <time>2019-08-18T07:24:02Z</time>
      </trkpt>
      <trkpt lat="47.27621" lon="-2.34613">
        <ele>73</ele>
        <time>2019-08-18T07:24:03Z</time>
      </trkpt>
      <trkpt lat="47.27626" lon="-2.34608">
        <ele>73</ele>
        <time>2019-08-18T07:24:04Z</time>
      </trkpt>
      <trkpt lat="47.27631" lon="-2.34603">
        <ele>73</ele>
        <time>2019-08-18T07:24:05Z</time>
      </trkpt>
      <trkpt lat="47.27641" lon="-2.34594">
        <ele>74</ele>
        <time>2019-08-18T07:24:07Z</time>
      </trkpt>
      <trkpt lat="47.27646" lon="-2.34589">
        <ele>73</ele>
        <time>2019-08-18T07:24:08Z</time>
      </trkpt>
      <trkpt lat="47.27651" lon="-2.34584">
        <ele>73</ele>
        <time>2019-08-18T07:24:09Z</time>
      </trkpt>
      <trkpt lat="47.27655" lon="-2.34579">
        <ele>73</ele>
        <time>2019-08-18T07:24:10Z</time>
      </trkpt>
      <trkpt lat="47.27663" lon="-2.34571">
        <ele>73</ele>
        <time>2019-08-18T07:24:12Z</time>
      </trkpt>
      <trkpt lat="47.27668" lon="-2.34567">
        <ele>73</ele>
        <time>2019-08-18T07:24:14Z</time>
      </trkpt>
      <trkpt lat="47.27673" lon="-2.34566">
        <ele>74</ele>
        <time>2019-08-18T07:24:18Z</time>
      </trkpt>
      <trkpt lat="47.27677" lon="-2.34574">
        <ele>74</ele>
        <time>2019-08-18T07:24:22Z</time>
      </trkpt>
      <trkpt lat="47.27682" lon="-2.34584">
        <ele>74</ele>
        <time>2019-08-18T07:24:25Z</time>
      </trkpt>
      <trkpt lat="47.27685" lon="-2.34594">
        <ele>74</ele>
        <time>2019-08-18T07:24:27Z</time>
      </trkpt>
      <trkpt lat="47.27686" lon="-2.34601">
        <ele>74</ele>
        <time>2019-08-18T07:24:28Z</time>
      </trkpt>
      <trkpt lat="47.27688" lon="-2.34626">
        <ele>74</ele>
        <time>2019-08-18T07:24:31Z</time>
      </trkpt>
      <trkpt lat="47.27689" lon="-2.34634">
        <ele>73</ele>
        <time>2019-08-18T07:24:32Z</time>
      </trkpt>
      <trkpt lat="47.27689" lon="-2.34641">
        <ele>74</ele>
        <time>2019-08-18T07:24:33Z</time>
      </trkpt>
      <trkpt lat="47.2769" lon="-2.34655">
        <ele>74</ele>
        <time>2019-08-18T07:24:35Z</time>
      </trkpt>
      <trkpt lat="47.27691" lon="-2.34662">
        <ele>74</ele>
        <time>2019-08-18T07:24:36Z</time>
      </trkpt>
      <trkpt lat="47.27692" lon="-2.34667">
        <ele>74</ele>
        <time>2019-08-18T07:24:37Z</time>
      </trkpt>
      <trkpt lat="47.27694" lon="-2.34678">
        <ele>74</ele>
        <time>2019-08-18T07:24:39Z</time>
      </trkpt>
      <trkpt lat="47.27694" lon="-2.34686">
        <ele>74</ele>
        <time>2019-08-18T07:24:41Z</time>
      </trkpt>
      <trkpt lat="47.27698" lon="-2.34696">
        <ele>74</ele>
        <time>2019-08-18T07:24:43Z</time>
      </trkpt>
      <trkpt lat="47.27702" lon="-2.34705">
        <ele>74</ele>
        <time>2019-08-18T07:24:45Z</time>
      </trkpt>
      <trkpt lat="47.27705" lon="-2.34711">
        <ele>75</ele>
        <time>2019-08-18T07:24:46Z</time>
      </trkpt>
      <trkpt lat="47.27707" lon="-2.34718">
        <ele>74</ele>
        <time>2019-08-18T07:24:47Z</time>
      </trkpt>
      <trkpt lat="47.2771" lon="-2.34724">
        <ele>75</ele>
        <time>2019-08-18T07:24:48Z</time>
      </trkpt>
      <trkpt lat="47.27723" lon="-2.34753">
        <ele>74</ele>
        <time>2019-08-18T07:24:52Z</time>
      </trkpt>
      <trkpt lat="47.27727" lon="-2.34761">
        <ele>74</ele>
        <time>2019-08-18T07:24:53Z</time>
      </trkpt>
      <trkpt lat="47.27731" lon="-2.34768">
        <ele>74</ele>
        <time>2019-08-18T07:24:54Z</time>
      </trkpt>
      <trkpt lat="47.27735" lon="-2.34775">
        <ele>74</ele>
        <time>2019-08-18T07:24:55Z</time>
      </trkpt>
      <trkpt lat="47.27738" lon="-2.34783">
        <ele>74</ele>
        <time>2019-08-18T07:24:56Z</time>
      </trkpt>
      <trkpt lat="47.27742" lon="-2.3479">
        <ele>73</ele>
        <time>2019-08-18T07:24:57Z</time>
      </trkpt>
      <trkpt lat="47.27745" lon="-2.34797">
        <ele>73</ele>
        <time>2019-08-18T07:24:58Z</time>
      </trkpt>
      <trkpt lat="47.27748" lon="-2.34803">
        <ele>73</ele>
        <time>2019-08-18T07:24:59Z</time>
      </trkpt>
      <trkpt lat="47.27752" lon="-2.3481">
        <ele>73</ele>
        <time>2019-08-18T07:25:00Z</time>
      </trkpt>
      <trkpt lat="47.27755" lon="-2.34816">
        <ele>73</ele>
        <time>2019-08-18T07:25:01Z</time>
      </trkpt>
      <trkpt lat="47.27758" lon="-2.34823">
        <ele>73</ele>
        <time>2019-08-18T07:25:02Z</time>
      </trkpt>
      <trkpt lat="47.27761" lon="-2.34829">
        <ele>73</ele>
        <time>2019-08-18T07:25:03Z</time>
      </trkpt>
      <trkpt lat="47.27765" lon="-2.34836">
        <ele>73</ele>
        <time>2019-08-18T07:25:04Z</time>
      </trkpt>
      <trkpt lat="47.27772" lon="-2.34848">
        <ele>73</ele>
        <time>2019-08-18T07:25:06Z</time>
      </trkpt>
      <trkpt lat="47.27775" lon="-2.34854">
        <ele>72</ele>
        <time>2019-08-18T07:25:07Z</time>
      </trkpt>
      <trkpt lat="47.27778" lon="-2.34859">
        <ele>73</ele>
        <time>2019-08-18T07:25:08Z</time>
      </trkpt>
      <trkpt lat="47.27784" lon="-2.34867">
        <ele>72</ele>
        <time>2019-08-18T07:25:10Z</time>
      </trkpt>
      <trkpt lat="47.27786" lon="-2.3487">
        <ele>72</ele>
        <time>2019-08-18T07:25:11Z</time>
      </trkpt>
      <trkpt lat="47.27788" lon="-2.34873">
        <ele>72</ele>
        <time>2019-08-18T07:25:12Z</time>
      </trkpt>
      <trkpt lat="47.2779" lon="-2.34876">
        <ele>72</ele>
        <time>2019-08-18T07:25:13Z</time>
      </trkpt>
      <trkpt lat="47.27795" lon="-2.34881">
        <ele>72</ele>
        <time>2019-08-18T07:25:15Z</time>
      </trkpt>
      <trkpt lat="47.27798" lon="-2.34884">
        <ele>72</ele>
        <time>2019-08-18T07:25:16Z</time>
      </trkpt>
      <trkpt lat="47.27804" lon="-2.34889">
        <ele>72</ele>
        <time>2019-08-18T07:25:18Z</time>
      </trkpt>
      <trkpt lat="47.27812" lon="-2.34895">
        <ele>72</ele>
        <time>2019-08-18T07:25:20Z</time>
      </trkpt>
      <trkpt lat="47.27817" lon="-2.34899">
        <ele>71</ele>
        <time>2019-08-18T07:25:21Z</time>
      </trkpt>
      <trkpt lat="47.27821" lon="-2.34902">
        <ele>72</ele>
        <time>2019-08-18T07:25:22Z</time>
      </trkpt>
      <trkpt lat="47.27824" lon="-2.34905">
        <ele>72</ele>
        <time>2019-08-18T07:25:23Z</time>
      </trkpt>
      <trkpt lat="47.27833" lon="-2.34914">
        <ele>72</ele>
        <time>2019-08-18T07:25:25Z</time>
      </trkpt>
      <trkpt lat="47.27837" lon="-2.34919">
        <ele>72</ele>
        <time>2019-08-18T07:25:26Z</time>
      </trkpt>
      <trkpt lat="47.27841" lon="-2.34923">
        <ele>72</ele>
        <time>2019-08-18T07:25:27Z</time>
      </trkpt>
      <trkpt lat="47.27845" lon="-2.34928">
        <ele>71</ele>
        <time>2019-08-18T07:25:28Z</time>
      </trkpt>
      <trkpt lat="47.27848" lon="-2.34932">
        <ele>71</ele>
        <time>2019-08-18T07:25:29Z</time>
      </trkpt>
      <trkpt lat="47.27852" lon="-2.34937">
        <ele>71</ele>
        <time>2019-08-18T07:25:30Z</time>
      </trkpt>
      <trkpt lat="47.27856" lon="-2.3494">
        <ele>71</ele>
        <time>2019-08-18T07:25:31Z</time>
      </trkpt>
      <trkpt lat="47.27862" lon="-2.34947">
        <ele>72</ele>
        <time>2019-08-18T07:25:33Z</time>
      </trkpt>
      <trkpt lat="47.27869" lon="-2.34957">
        <ele>71</ele>
        <time>2019-08-18T07:25:35Z</time>
      </trkpt>
      <trkpt lat="47.27872" lon="-2.34962">
        <ele>71</ele>
        <time>2019-08-18T07:25:36Z</time>
      </trkpt>
      <trkpt lat="47.27875" lon="-2.34968">
        <ele>71</ele>
        <time>2019-08-18T07:25:37Z</time>
      </trkpt>
      <trkpt lat="47.27878" lon="-2.34974">
        <ele>71</ele>
        <time>2019-08-18T07:25:38Z</time>
      </trkpt>
      <trkpt lat="47.27881" lon="-2.3498">
        <ele>71</ele>
        <time>2019-08-18T07:25:39Z</time>
      </trkpt>
      <trkpt lat="47.27884" lon="-2.34987">
        <ele>71</ele>
        <time>2019-08-18T07:25:40Z</time>
      </trkpt>
      <trkpt lat="47.27886" lon="-2.34994">
        <ele>71</ele>
        <time>2019-08-18T07:25:41Z</time>
      </trkpt>
      <trkpt lat="47.27891" lon="-2.35008">
        <ele>70</ele>
        <time>2019-08-18T07:25:43Z</time>
      </trkpt>
      <trkpt lat="47.27893" lon="-2.35022">
        <ele>70</ele>
        <time>2019-08-18T07:25:44Z</time>
      </trkpt>
      <trkpt lat="47.27895" lon="-2.35028">
        <ele>70</ele>
        <time>2019-08-18T07:25:45Z</time>
      </trkpt>
      <trkpt lat="47.27901" lon="-2.35035">
        <ele>70</ele>
        <time>2019-08-18T07:25:48Z</time>
      </trkpt>
      <trkpt lat="47.27911" lon="-2.35038">
        <ele>70</ele>
        <time>2019-08-18T07:25:51Z</time>
      </trkpt>
      <trkpt lat="47.27918" lon="-2.35037">
        <ele>70</ele>
        <time>2019-08-18T07:25:53Z</time>
      </trkpt>
      <trkpt lat="47.27926" lon="-2.35038">
        <ele>70</ele>
        <time>2019-08-18T07:25:55Z</time>
      </trkpt>
      <trkpt lat="47.27935" lon="-2.35038">
        <ele>71</ele>
        <time>2019-08-18T07:25:57Z</time>
      </trkpt>
      <trkpt lat="47.27943" lon="-2.35051">
        <ele>72</ele>
        <time>2019-08-18T07:25:59Z</time>
      </trkpt>
      <trkpt lat="47.27947" lon="-2.35057">
        <ele>72</ele>
        <time>2019-08-18T07:26:00Z</time>
      </trkpt>
      <trkpt lat="47.27954" lon="-2.35067">
        <ele>71</ele>
        <time>2019-08-18T07:26:02Z</time>
      </trkpt>
      <trkpt lat="47.27957" lon="-2.35071">
        <ele>71</ele>
        <time>2019-08-18T07:26:03Z</time>
      </trkpt>
      <trkpt lat="47.2796" lon="-2.35077">
        <ele>72</ele>
        <time>2019-08-18T07:26:04Z</time>
      </trkpt>
      <trkpt lat="47.27964" lon="-2.35091">
        <ele>72</ele>
        <time>2019-08-18T07:26:06Z</time>
      </trkpt>
      <trkpt lat="47.27965" lon="-2.35097">
        <ele>71</ele>
        <time>2019-08-18T07:26:07Z</time>
      </trkpt>
      <trkpt lat="47.27966" lon="-2.3511">
        <ele>71</ele>
        <time>2019-08-18T07:26:09Z</time>
      </trkpt>
      <trkpt lat="47.27964" lon="-2.35117">
        <ele>71</ele>
        <time>2019-08-18T07:26:10Z</time>
      </trkpt>
      <trkpt lat="47.27961" lon="-2.35122">
        <ele>71</ele>
        <time>2019-08-18T07:26:11Z</time>
      </trkpt>
      <trkpt lat="47.27958" lon="-2.35128">
        <ele>71</ele>
        <time>2019-08-18T07:26:12Z</time>
      </trkpt>
      <trkpt lat="47.27955" lon="-2.35135">
        <ele>71</ele>
        <time>2019-08-18T07:26:13Z</time>
      </trkpt>
      <trkpt lat="47.27952" lon="-2.35141">
        <ele>70</ele>
        <time>2019-08-18T07:26:14Z</time>
      </trkpt>
      <trkpt lat="47.27949" lon="-2.35148">
        <ele>70</ele>
        <time>2019-08-18T07:26:15Z</time>
      </trkpt>
      <trkpt lat="47.27946" lon="-2.35155">
        <ele>69</ele>
        <time>2019-08-18T07:26:16Z</time>
      </trkpt>
      <trkpt lat="47.27944" lon="-2.35163">
        <ele>69</ele>
        <time>2019-08-18T07:26:17Z</time>
      </trkpt>
      <trkpt lat="47.27932" lon="-2.35183">
        <ele>69</ele>
        <time>2019-08-18T07:26:20Z</time>
      </trkpt>
      <trkpt lat="47.27929" lon="-2.35188">
        <ele>70</ele>
        <time>2019-08-18T07:26:21Z</time>
      </trkpt>
      <trkpt lat="47.2792" lon="-2.35198">
        <ele>70</ele>
        <time>2019-08-18T07:26:23Z</time>
      </trkpt>
      <trkpt lat="47.27916" lon="-2.35209">
        <ele>70</ele>
        <time>2019-08-18T07:26:24Z</time>
      </trkpt>
      <trkpt lat="47.27915" lon="-2.35217">
        <ele>69</ele>
        <time>2019-08-18T07:26:26Z</time>
      </trkpt>
      <trkpt lat="47.27915" lon="-2.35225">
        <ele>69</ele>
        <time>2019-08-18T07:26:27Z</time>
      </trkpt>
      <trkpt lat="47.27917" lon="-2.3524">
        <ele>68</ele>
        <time>2019-08-18T07:26:29Z</time>
      </trkpt>
      <trkpt lat="47.27918" lon="-2.35248">
        <ele>68</ele>
        <time>2019-08-18T07:26:30Z</time>
      </trkpt>
      <trkpt lat="47.27919" lon="-2.35256">
        <ele>67</ele>
        <time>2019-08-18T07:26:31Z</time>
      </trkpt>
      <trkpt lat="47.2792" lon="-2.35264">
        <ele>67</ele>
        <time>2019-08-18T07:26:32Z</time>
      </trkpt>
      <trkpt lat="47.27921" lon="-2.35272">
        <ele>67</ele>
        <time>2019-08-18T07:26:33Z</time>
      </trkpt>
      <trkpt lat="47.27922" lon="-2.35279">
        <ele>66</ele>
        <time>2019-08-18T07:26:34Z</time>
      </trkpt>
      <trkpt lat="47.27928" lon="-2.353">
        <ele>66</ele>
        <time>2019-08-18T07:26:37Z</time>
      </trkpt>
      <trkpt lat="47.27932" lon="-2.35313">
        <ele>66</ele>
        <time>2019-08-18T07:26:39Z</time>
      </trkpt>
      <trkpt lat="47.27933" lon="-2.3532">
        <ele>67</ele>
        <time>2019-08-18T07:26:40Z</time>
      </trkpt>
      <trkpt lat="47.27929" lon="-2.35334">
        <ele>66</ele>
        <time>2019-08-18T07:26:42Z</time>
      </trkpt>
      <trkpt lat="47.27928" lon="-2.35342">
        <ele>66</ele>
        <time>2019-08-18T07:26:43Z</time>
      </trkpt>
      <trkpt lat="47.27928" lon="-2.35349">
        <ele>66</ele>
        <time>2019-08-18T07:26:44Z</time>
      </trkpt>
      <trkpt lat="47.27928" lon="-2.35364">
        <ele>66</ele>
        <time>2019-08-18T07:26:46Z</time>
      </trkpt>
      <trkpt lat="47.27929" lon="-2.35373">
        <ele>66</ele>
        <time>2019-08-18T07:26:47Z</time>
      </trkpt>
      <trkpt lat="47.27929" lon="-2.3538">
        <ele>66</ele>
        <time>2019-08-18T07:26:48Z</time>
      </trkpt>
      <trkpt lat="47.2793" lon="-2.35389">
        <ele>66</ele>
        <time>2019-08-18T07:26:49Z</time>
      </trkpt>
      <trkpt lat="47.2793" lon="-2.35397">
        <ele>65</ele>
        <time>2019-08-18T07:26:50Z</time>
      </trkpt>
      <trkpt lat="47.2793" lon="-2.35404">
        <ele>65</ele>
        <time>2019-08-18T07:26:51Z</time>
      </trkpt>
      <trkpt lat="47.27931" lon="-2.35411">
        <ele>65</ele>
        <time>2019-08-18T07:26:52Z</time>
      </trkpt>
      <trkpt lat="47.2793" lon="-2.35424">
        <ele>65</ele>
        <time>2019-08-18T07:26:54Z</time>
      </trkpt>
      <trkpt lat="47.27932" lon="-2.35436">
        <ele>65</ele>
        <time>2019-08-18T07:26:56Z</time>
      </trkpt>
      <trkpt lat="47.27934" lon="-2.35441">
        <ele>65</ele>
        <time>2019-08-18T07:26:57Z</time>
      </trkpt>
      <trkpt lat="47.27941" lon="-2.35449">
        <ele>64</ele>
        <time>2019-08-18T07:26:59Z</time>
      </trkpt>
      <trkpt lat="47.27945" lon="-2.35451">
        <ele>65</ele>
        <time>2019-08-18T07:27:01Z</time>
      </trkpt>
      <trkpt lat="47.27947" lon="-2.35453">
        <ele>65</ele>
        <time>2019-08-18T07:27:02Z</time>
      </trkpt>
      <trkpt lat="47.27952" lon="-2.35458">
        <ele>65</ele>
        <time>2019-08-18T07:27:05Z</time>
      </trkpt>
      <trkpt lat="47.27953" lon="-2.35465">
        <ele>65</ele>
        <time>2019-08-18T07:27:08Z</time>
      </trkpt>
      <trkpt lat="47.27953" lon="-2.35465">
        <ele>17.3</ele>
        <time>2019-08-18T07:27:13Z</time>
      </trkpt>
      <trkpt lat="47.27953" lon="-2.35465">
        <ele>17.3</ele>
        <time>2019-08-18T07:27:17Z</time>
      </trkpt>
      <trkpt lat="47.27962" lon="-2.35467">
        <ele>65</ele>
        <time>2019-08-18T07:27:17Z</time>
      </trkpt>
      <trkpt lat="47.27976" lon="-2.35487">
        <ele>63</ele>
        <time>2019-08-18T07:27:22Z</time>
      </trkpt>
      <trkpt lat="47.27979" lon="-2.35493">
        <ele>62</ele>
        <time>2019-08-18T07:27:23Z</time>
      </trkpt>
      <trkpt lat="47.27981" lon="-2.35499">
        <ele>64</ele>
        <time>2019-08-18T07:27:24Z</time>
      </trkpt>
      <trkpt lat="47.27983" lon="-2.35503">
        <ele>67</ele>
        <time>2019-08-18T07:27:25Z</time>
      </trkpt>
      <trkpt lat="47.27989" lon="-2.35513">
        <ele>69</ele>
        <time>2019-08-18T07:27:27Z</time>
      </trkpt>
      <trkpt lat="47.27997" lon="-2.35525">
        <ele>71</ele>
        <time>2019-08-18T07:27:30Z</time>
      </trkpt>
      <trkpt lat="47.27999" lon="-2.35535">
        <ele>71</ele>
        <time>2019-08-18T07:27:32Z</time>
      </trkpt>
      <trkpt lat="47.28001" lon="-2.3555">
        <ele>71</ele>
        <time>2019-08-18T07:27:35Z</time>
      </trkpt>
      <trkpt lat="47.28008" lon="-2.35556">
        <ele>71</ele>
        <time>2019-08-18T07:27:37Z</time>
      </trkpt>
      <trkpt lat="47.28015" lon="-2.3556">
        <ele>71</ele>
        <time>2019-08-18T07:27:39Z</time>
      </trkpt>
      <trkpt lat="47.28022" lon="-2.35562">
        <ele>71</ele>
        <time>2019-08-18T07:27:41Z</time>
      </trkpt>
      <trkpt lat="47.28028" lon="-2.35567">
        <ele>72</ele>
        <time>2019-08-18T07:27:43Z</time>
      </trkpt>
      <trkpt lat="47.28032" lon="-2.35571">
        <ele>71</ele>
        <time>2019-08-18T07:27:45Z</time>
      </trkpt>
      <trkpt lat="47.28035" lon="-2.35574">
        <ele>73</ele>
        <time>2019-08-18T07:27:47Z</time>
      </trkpt>
      <trkpt lat="47.2804" lon="-2.35575">
        <ele>73</ele>
        <time>2019-08-18T07:27:49Z</time>
      </trkpt>
      <trkpt lat="47.28046" lon="-2.35576">
        <ele>73</ele>
        <time>2019-08-18T07:27:52Z</time>
      </trkpt>
      <trkpt lat="47.28049" lon="-2.35577">
        <ele>72</ele>
        <time>2019-08-18T07:27:54Z</time>
      </trkpt>
      <trkpt lat="47.28053" lon="-2.35579">
        <ele>73</ele>
        <time>2019-08-18T07:27:57Z</time>
      </trkpt>
      <trkpt lat="47.28058" lon="-2.3558">
        <ele>74</ele>
        <time>2019-08-18T07:28:00Z</time>
      </trkpt>
      <trkpt lat="47.28063" lon="-2.35584">
        <ele>73</ele>
        <time>2019-08-18T07:28:03Z</time>
      </trkpt>
      <trkpt lat="47.28066" lon="-2.35594">
        <ele>73</ele>
        <time>2019-08-18T07:28:06Z</time>
      </trkpt>
      <trkpt lat="47.28068" lon="-2.35599">
        <ele>73</ele>
        <time>2019-08-18T07:28:07Z</time>
      </trkpt>
      <trkpt lat="47.28069" lon="-2.35604">
        <ele>74</ele>
        <time>2019-08-18T07:28:08Z</time>
      </trkpt>
      <trkpt lat="47.28071" lon="-2.35615">
        <ele>74</ele>
        <time>2019-08-18T07:28:10Z</time>
      </trkpt>
      <trkpt lat="47.28074" lon="-2.35636">
        <ele>74</ele>
        <time>2019-08-18T07:28:15Z</time>
      </trkpt>
      <trkpt lat="47.28076" lon="-2.35646">
        <ele>75</ele>
        <time>2019-08-18T07:28:18Z</time>
      </trkpt>
      <trkpt lat="47.28078" lon="-2.35654">
        <ele>75</ele>
        <time>2019-08-18T07:28:20Z</time>
      </trkpt>
      <trkpt lat="47.2808" lon="-2.35661">
        <ele>76</ele>
        <time>2019-08-18T07:28:22Z</time>
      </trkpt>
      <trkpt lat="47.28083" lon="-2.3567">
        <ele>76</ele>
        <time>2019-08-18T07:28:24Z</time>
      </trkpt>
      <trkpt lat="47.28084" lon="-2.35673">
        <ele>77</ele>
        <time>2019-08-18T07:28:25Z</time>
      </trkpt>
      <trkpt lat="47.28087" lon="-2.35681">
        <ele>78</ele>
        <time>2019-08-18T07:28:28Z</time>
      </trkpt>
      <trkpt lat="47.28088" lon="-2.35685">
        <ele>78</ele>
        <time>2019-08-18T07:28:30Z</time>
      </trkpt>
      <trkpt lat="47.28088" lon="-2.35685">
        <ele>27.4</ele>
        <time>2019-08-18T07:28:36Z</time>
      </trkpt>
      <trkpt lat="47.28088" lon="-2.35685">
        <ele>27.4</ele>
        <time>2019-08-18T07:28:41Z</time>
      </trkpt>
      <trkpt lat="47.28088" lon="-2.35713">
        <ele>83</ele>
        <time>2019-08-18T07:28:46Z</time>
      </trkpt>
      <trkpt lat="47.28094" lon="-2.35723">
        <ele>76</ele>
        <time>2019-08-18T07:28:48Z</time>
      </trkpt>
      <trkpt lat="47.28092" lon="-2.35733">
        <ele>82</ele>
        <time>2019-08-18T07:28:51Z</time>
      </trkpt>
      <trkpt lat="47.28089" lon="-2.35742">
        <ele>83</ele>
        <time>2019-08-18T07:28:54Z</time>
      </trkpt>
      <trkpt lat="47.28088" lon="-2.35748">
        <ele>83</ele>
        <time>2019-08-18T07:28:55Z</time>
      </trkpt>
      <trkpt lat="47.28086" lon="-2.35755">
        <ele>81</ele>
        <time>2019-08-18T07:28:56Z</time>
      </trkpt>
      <trkpt lat="47.28085" lon="-2.35762">
        <ele>80</ele>
        <time>2019-08-18T07:28:57Z</time>
      </trkpt>
      <trkpt lat="47.28085" lon="-2.35769">
        <ele>79</ele>
        <time>2019-08-18T07:28:58Z</time>
      </trkpt>
      <trkpt lat="47.28078" lon="-2.35778">
        <ele>83</ele>
        <time>2019-08-18T07:29:01Z</time>
      </trkpt>
      <trkpt lat="47.28075" lon="-2.35788">
        <ele>82</ele>
        <time>2019-08-18T07:29:03Z</time>
      </trkpt>
      <trkpt lat="47.28076" lon="-2.35801">
        <ele>82</ele>
        <time>2019-08-18T07:29:05Z</time>
      </trkpt>
      <trkpt lat="47.28081" lon="-2.35814">
        <ele>86</ele>
        <time>2019-08-18T07:29:07Z</time>
      </trkpt>
      <trkpt lat="47.28082" lon="-2.3582">
        <ele>88</ele>
        <time>2019-08-18T07:29:08Z</time>
      </trkpt>
      <trkpt lat="47.28085" lon="-2.35826">
        <ele>88</ele>
        <time>2019-08-18T07:29:09Z</time>
      </trkpt>
      <trkpt lat="47.28088" lon="-2.35833">
        <ele>89</ele>
        <time>2019-08-18T07:29:11Z</time>
      </trkpt>
      <trkpt lat="47.28094" lon="-2.35838">
        <ele>87</ele>
        <time>2019-08-18T07:29:14Z</time>
      </trkpt>
      <trkpt lat="47.28099" lon="-2.3584">
        <ele>86</ele>
        <time>2019-08-18T07:29:17Z</time>
      </trkpt>
      <trkpt lat="47.28105" lon="-2.35839">
        <ele>87</ele>
        <time>2019-08-18T07:29:20Z</time>
      </trkpt>
      <trkpt lat="47.28111" lon="-2.35842">
        <ele>87</ele>
        <time>2019-08-18T07:29:23Z</time>
      </trkpt>
      <trkpt lat="47.28115" lon="-2.35848">
        <ele>86</ele>
        <time>2019-08-18T07:29:26Z</time>
      </trkpt>
      <trkpt lat="47.28117" lon="-2.35856">
        <ele>86</ele>
        <time>2019-08-18T07:29:28Z</time>
      </trkpt>
      <trkpt lat="47.28122" lon="-2.35862">
        <ele>87</ele>
        <time>2019-08-18T07:29:31Z</time>
      </trkpt>
      <trkpt lat="47.2813" lon="-2.35868">
        <ele>86</ele>
        <time>2019-08-18T07:29:35Z</time>
      </trkpt>
      <trkpt lat="47.28135" lon="-2.35872">
        <ele>86</ele>
        <time>2019-08-18T07:29:37Z</time>
      </trkpt>
      <trkpt lat="47.2814" lon="-2.35876">
        <ele>85</ele>
        <time>2019-08-18T07:29:39Z</time>
      </trkpt>
      <trkpt lat="47.2815" lon="-2.35881">
        <ele>86</ele>
        <time>2019-08-18T07:29:42Z</time>
      </trkpt>
      <trkpt lat="47.28161" lon="-2.35881">
        <ele>86</ele>
        <time>2019-08-18T07:29:45Z</time>
      </trkpt>
      <trkpt lat="47.28167" lon="-2.35879">
        <ele>86</ele>
        <time>2019-08-18T07:29:47Z</time>
      </trkpt>
      <trkpt lat="47.28172" lon="-2.35875">
        <ele>86</ele>
        <time>2019-08-18T07:29:49Z</time>
      </trkpt>
      <trkpt lat="47.28176" lon="-2.3587">
        <ele>86</ele>
        <time>2019-08-18T07:29:51Z</time>
      </trkpt>
      <trkpt lat="47.28181" lon="-2.35867">
        <ele>86</ele>
        <time>2019-08-18T07:29:54Z</time>
      </trkpt>
      <trkpt lat="47.28186" lon="-2.35863">
        <ele>84</ele>
        <time>2019-08-18T07:29:57Z</time>
      </trkpt>
      <trkpt lat="47.2819" lon="-2.35867">
        <ele>84</ele>
        <time>2019-08-18T07:30:01Z</time>
      </trkpt>
      <trkpt lat="47.28194" lon="-2.35877">
        <ele>85</ele>
        <time>2019-08-18T07:30:05Z</time>
      </trkpt>
      <trkpt lat="47.28198" lon="-2.35884">
        <ele>85</ele>
        <time>2019-08-18T07:30:07Z</time>
      </trkpt>
      <trkpt lat="47.28201" lon="-2.35891">
        <ele>85</ele>
        <time>2019-08-18T07:30:09Z</time>
      </trkpt>
      <trkpt lat="47.28211" lon="-2.359">
        <ele>85</ele>
        <time>2019-08-18T07:30:12Z</time>
      </trkpt>
      <trkpt lat="47.28216" lon="-2.35902">
        <ele>85</ele>
        <time>2019-08-18T07:30:13Z</time>
      </trkpt>
      <trkpt lat="47.28224" lon="-2.35907">
        <ele>86</ele>
        <time>2019-08-18T07:30:15Z</time>
      </trkpt>
      <trkpt lat="47.28234" lon="-2.35906">
        <ele>84</ele>
        <time>2019-08-18T07:30:18Z</time>
      </trkpt>
      <trkpt lat="47.28236" lon="-2.35906">
        <ele>84</ele>
        <time>2019-08-18T07:30:19Z</time>
      </trkpt>
      <trkpt lat="47.28241" lon="-2.35905">
        <ele>85</ele>
        <time>2019-08-18T07:30:21Z</time>
      </trkpt>
      <trkpt lat="47.28245" lon="-2.3591">
        <ele>85</ele>
        <time>2019-08-18T07:30:24Z</time>
      </trkpt>
      <trkpt lat="47.28249" lon="-2.35916">
        <ele>85</ele>
        <time>2019-08-18T07:30:26Z</time>
      </trkpt>
      <trkpt lat="47.28253" lon="-2.35927">
        <ele>85</ele>
        <time>2019-08-18T07:30:28Z</time>
      </trkpt>
      <trkpt lat="47.2826" lon="-2.35939">
        <ele>86</ele>
        <time>2019-08-18T07:30:30Z</time>
      </trkpt>
      <trkpt lat="47.28263" lon="-2.35946">
        <ele>85</ele>
        <time>2019-08-18T07:30:31Z</time>
      </trkpt>
      <trkpt lat="47.28272" lon="-2.35966">
        <ele>85</ele>
        <time>2019-08-18T07:30:34Z</time>
      </trkpt>
      <trkpt lat="47.28275" lon="-2.35978">
        <ele>85</ele>
        <time>2019-08-18T07:30:36Z</time>
      </trkpt>
      <trkpt lat="47.28275" lon="-2.35992">
        <ele>85</ele>
        <time>2019-08-18T07:30:39Z</time>
      </trkpt>
      <trkpt lat="47.28272" lon="-2.36002">
        <ele>85</ele>
        <time>2019-08-18T07:30:41Z</time>
      </trkpt>
      <trkpt lat="47.28271" lon="-2.36005">
        <ele>85</ele>
        <time>2019-08-18T07:30:42Z</time>
      </trkpt>
      <trkpt lat="47.28271" lon="-2.36015">
        <ele>85</ele>
        <time>2019-08-18T07:30:45Z</time>
      </trkpt>
      <trkpt lat="47.28275" lon="-2.36026">
        <ele>86</ele>
        <time>2019-08-18T07:30:49Z</time>
      </trkpt>
      <trkpt lat="47.28276" lon="-2.36029">
        <ele>86</ele>
        <time>2019-08-18T07:30:50Z</time>
      </trkpt>
      <trkpt lat="47.2828" lon="-2.36033">
        <ele>86</ele>
        <time>2019-08-18T07:30:52Z</time>
      </trkpt>
      <trkpt lat="47.28284" lon="-2.3604">
        <ele>85</ele>
        <time>2019-08-18T07:30:55Z</time>
      </trkpt>
      <trkpt lat="47.28288" lon="-2.36046">
        <ele>86</ele>
        <time>2019-08-18T07:30:58Z</time>
      </trkpt>
      <trkpt lat="47.28296" lon="-2.36049">
        <ele>86</ele>
        <time>2019-08-18T07:31:01Z</time>
      </trkpt>
      <trkpt lat="47.28302" lon="-2.36051">
        <ele>86</ele>
        <time>2019-08-18T07:31:02Z</time>
      </trkpt>
      <trkpt lat="47.28305" lon="-2.36052">
        <ele>87</ele>
        <time>2019-08-18T07:31:04Z</time>
      </trkpt>
      <trkpt lat="47.28311" lon="-2.36053">
        <ele>86</ele>
        <time>2019-08-18T07:31:06Z</time>
      </trkpt>
      <trkpt lat="47.28313" lon="-2.36054">
        <ele>86</ele>
        <time>2019-08-18T07:31:07Z</time>
      </trkpt>
      <trkpt lat="47.28316" lon="-2.36054">
        <ele>86</ele>
        <time>2019-08-18T07:31:08Z</time>
      </trkpt>
      <trkpt lat="47.28321" lon="-2.36051">
        <ele>86</ele>
        <time>2019-08-18T07:31:10Z</time>
      </trkpt>
      <trkpt lat="47.28323" lon="-2.3605">
        <ele>85</ele>
        <time>2019-08-18T07:31:11Z</time>
      </trkpt>
      <trkpt lat="47.28326" lon="-2.36048">
        <ele>85</ele>
        <time>2019-08-18T07:31:12Z</time>
      </trkpt>
      <trkpt lat="47.28331" lon="-2.36042">
        <ele>85</ele>
        <time>2019-08-18T07:31:14Z</time>
      </trkpt>
      <trkpt lat="47.28334" lon="-2.36038">
        <ele>85</ele>
        <time>2019-08-18T07:31:15Z</time>
      </trkpt>
      <trkpt lat="47.28338" lon="-2.36035">
        <ele>86</ele>
        <time>2019-08-18T07:31:16Z</time>
      </trkpt>
      <trkpt lat="47.28342" lon="-2.36031">
        <ele>85</ele>
        <time>2019-08-18T07:31:18Z</time>
      </trkpt>
      <trkpt lat="47.2835" lon="-2.36027">
        <ele>85</ele>
        <time>2019-08-18T07:31:21Z</time>
      </trkpt>
      <trkpt lat="47.28355" lon="-2.36028">
        <ele>86</ele>
        <time>2019-08-18T07:31:23Z</time>
      </trkpt>
      <trkpt lat="47.2836" lon="-2.3603">
        <ele>86</ele>
        <time>2019-08-18T07:31:25Z</time>
      </trkpt>
      <trkpt lat="47.28367" lon="-2.36029">
        <ele>87</ele>
        <time>2019-08-18T07:31:28Z</time>
      </trkpt>
      <trkpt lat="47.2837" lon="-2.36028">
        <ele>87</ele>
        <time>2019-08-18T07:31:29Z</time>
      </trkpt>
      <trkpt lat="47.28376" lon="-2.36028">
        <ele>88</ele>
        <time>2019-08-18T07:31:31Z</time>
      </trkpt>
      <trkpt lat="47.28382" lon="-2.36028">
        <ele>88</ele>
        <time>2019-08-18T07:31:34Z</time>
      </trkpt>
      <trkpt lat="47.28385" lon="-2.36028">
        <ele>89</ele>
        <time>2019-08-18T07:31:35Z</time>
      </trkpt>
      <trkpt lat="47.2839" lon="-2.36028">
        <ele>89</ele>
        <time>2019-08-18T07:31:37Z</time>
      </trkpt>
      <trkpt lat="47.28395" lon="-2.36029">
        <ele>89</ele>
        <time>2019-08-18T07:31:39Z</time>
      </trkpt>
      <trkpt lat="47.28403" lon="-2.36029">
        <ele>90</ele>
        <time>2019-08-18T07:31:43Z</time>
      </trkpt>
      <trkpt lat="47.28407" lon="-2.36025">
        <ele>90</ele>
        <time>2019-08-18T07:31:45Z</time>
      </trkpt>
      <trkpt lat="47.28419" lon="-2.36011">
        <ele>91</ele>
        <time>2019-08-18T07:31:49Z</time>
      </trkpt>
      <trkpt lat="47.28423" lon="-2.36005">
        <ele>91</ele>
        <time>2019-08-18T07:31:51Z</time>
      </trkpt>
      <trkpt lat="47.28429" lon="-2.36002">
        <ele>91</ele>
        <time>2019-08-18T07:31:53Z</time>
      </trkpt>
      <trkpt lat="47.28432" lon="-2.36">
        <ele>92</ele>
        <time>2019-08-18T07:31:54Z</time>
      </trkpt>
      <trkpt lat="47.28438" lon="-2.35998">
        <ele>93</ele>
        <time>2019-08-18T07:31:56Z</time>
      </trkpt>
      <trkpt lat="47.28443" lon="-2.35997">
        <ele>94</ele>
        <time>2019-08-18T07:31:58Z</time>
      </trkpt>
      <trkpt lat="47.28448" lon="-2.35991">
        <ele>96</ele>
        <time>2019-08-18T07:32:01Z</time>
      </trkpt>
      <trkpt lat="47.28454" lon="-2.35981">
        <ele>97</ele>
        <time>2019-08-18T07:32:04Z</time>
      </trkpt>
      <trkpt lat="47.28459" lon="-2.35968">
        <ele>97</ele>
        <time>2019-08-18T07:32:07Z</time>
      </trkpt>
      <trkpt lat="47.28464" lon="-2.35959">
        <ele>97</ele>
        <time>2019-08-18T07:32:08Z</time>
      </trkpt>
      <trkpt lat="47.28467" lon="-2.35948">
        <ele>97</ele>
        <time>2019-08-18T07:32:11Z</time>
      </trkpt>
      <trkpt lat="47.2847" lon="-2.35937">
        <ele>96</ele>
        <time>2019-08-18T07:32:13Z</time>
      </trkpt>
      <trkpt lat="47.28472" lon="-2.35932">
        <ele>95</ele>
        <time>2019-08-18T07:32:14Z</time>
      </trkpt>
      <trkpt lat="47.28472" lon="-2.35913">
        <ele>94</ele>
        <time>2019-08-18T07:32:18Z</time>
      </trkpt>
      <trkpt lat="47.28469" lon="-2.35906">
        <ele>93</ele>
        <time>2019-08-18T07:32:19Z</time>
      </trkpt>
      <trkpt lat="47.28461" lon="-2.35893">
        <ele>92</ele>
        <time>2019-08-18T07:32:24Z</time>
      </trkpt>
      <trkpt lat="47.28458" lon="-2.35886">
        <ele>93</ele>
        <time>2019-08-18T07:32:26Z</time>
      </trkpt>
      <trkpt lat="47.2846" lon="-2.3588">
        <ele>93</ele>
        <time>2019-08-18T07:32:28Z</time>
      </trkpt>
      <trkpt lat="47.28463" lon="-2.35875">
        <ele>93</ele>
        <time>2019-08-18T07:32:30Z</time>
      </trkpt>
      <trkpt lat="47.28465" lon="-2.35871">
        <ele>93</ele>
        <time>2019-08-18T07:32:31Z</time>
      </trkpt>
      <trkpt lat="47.28467" lon="-2.35864">
        <ele>94</ele>
        <time>2019-08-18T07:32:33Z</time>
      </trkpt>
      <trkpt lat="47.2847" lon="-2.35858">
        <ele>94</ele>
        <time>2019-08-18T07:32:37Z</time>
      </trkpt>
      <trkpt lat="47.28474" lon="-2.35859">
        <ele>94</ele>
        <time>2019-08-18T07:32:41Z</time>
      </trkpt>
      <trkpt lat="47.28481" lon="-2.35862">
        <ele>93</ele>
        <time>2019-08-18T07:32:44Z</time>
      </trkpt>
      <trkpt lat="47.28486" lon="-2.35869">
        <ele>93</ele>
        <time>2019-08-18T07:32:46Z</time>
      </trkpt>
      <trkpt lat="47.28489" lon="-2.35873">
        <ele>93</ele>
        <time>2019-08-18T07:32:47Z</time>
      </trkpt>
      <trkpt lat="47.28496" lon="-2.35877">
        <ele>93</ele>
        <time>2019-08-18T07:32:49Z</time>
      </trkpt>
      <trkpt lat="47.28499" lon="-2.35879">
        <ele>94</ele>
        <time>2019-08-18T07:32:50Z</time>
      </trkpt>
      <trkpt lat="47.28502" lon="-2.3588">
        <ele>94</ele>
        <time>2019-08-18T07:32:51Z</time>
      </trkpt>
      <trkpt lat="47.28505" lon="-2.35882">
        <ele>94</ele>
        <time>2019-08-18T07:32:52Z</time>
      </trkpt>
      <trkpt lat="47.28513" lon="-2.35888">
        <ele>94</ele>
        <time>2019-08-18T07:32:55Z</time>
      </trkpt>
      <trkpt lat="47.28517" lon="-2.3589">
        <ele>94</ele>
        <time>2019-08-18T07:32:57Z</time>
      </trkpt>
      <trkpt lat="47.28522" lon="-2.35892">
        <ele>94</ele>
        <time>2019-08-18T07:33:00Z</time>
      </trkpt>
      <trkpt lat="47.28525" lon="-2.35893">
        <ele>94</ele>
        <time>2019-08-18T07:33:02Z</time>
      </trkpt>
      <trkpt lat="47.2853" lon="-2.35893">
        <ele>94</ele>
        <time>2019-08-18T07:33:05Z</time>
      </trkpt>
      <trkpt lat="47.28533" lon="-2.35894">
        <ele>93</ele>
        <time>2019-08-18T07:33:08Z</time>
      </trkpt>
      <trkpt lat="47.28533" lon="-2.35894">
        <ele>36.6</ele>
        <time>2019-08-18T07:33:14Z</time>
      </trkpt>
      <trkpt lat="47.28533" lon="-2.35894">
        <ele>36.6</ele>
        <time>2019-08-18T07:33:49Z</time>
      </trkpt>
      <trkpt lat="47.2853" lon="-2.35934">
        <ele>94</ele>
        <time>2019-08-18T07:33:49Z</time>
      </trkpt>
      <trkpt lat="47.28516" lon="-2.35937">
        <ele>104</ele>
        <time>2019-08-18T07:33:55Z</time>
      </trkpt>
      <trkpt lat="47.28511" lon="-2.35944">
        <ele>92</ele>
        <time>2019-08-18T07:33:57Z</time>
      </trkpt>
      <trkpt lat="47.28505" lon="-2.35944">
        <ele>95</ele>
        <time>2019-08-18T07:33:59Z</time>
      </trkpt>
      <trkpt lat="47.28495" lon="-2.35948">
        <ele>89</ele>
        <time>2019-08-18T07:34:02Z</time>
      </trkpt>
      <trkpt lat="47.28488" lon="-2.35955">
        <ele>89</ele>
        <time>2019-08-18T07:34:04Z</time>
      </trkpt>
      <trkpt lat="47.28484" lon="-2.35958">
        <ele>89</ele>
        <time>2019-08-18T07:34:05Z</time>
      </trkpt>
      <trkpt lat="47.28479" lon="-2.35964">
        <ele>91</ele>
        <time>2019-08-18T07:34:07Z</time>
      </trkpt>
      <trkpt lat="47.28472" lon="-2.3597">
        <ele>96</ele>
        <time>2019-08-18T07:34:11Z</time>
      </trkpt>
      <trkpt lat="47.28467" lon="-2.35976">
        <ele>100</ele>
        <time>2019-08-18T07:34:14Z</time>
      </trkpt>
      <trkpt lat="47.28462" lon="-2.3598">
        <ele>101</ele>
        <time>2019-08-18T07:34:16Z</time>
      </trkpt>
      <trkpt lat="47.28458" lon="-2.35984">
        <ele>102</ele>
        <time>2019-08-18T07:34:18Z</time>
      </trkpt>
      <trkpt lat="47.28452" lon="-2.35992">
        <ele>101</ele>
        <time>2019-08-18T07:34:22Z</time>
      </trkpt>
      <trkpt lat="47.2845" lon="-2.35995">
        <ele>102</ele>
        <time>2019-08-18T07:34:24Z</time>
      </trkpt>
      <trkpt lat="47.28447" lon="-2.36">
        <ele>102</ele>
        <time>2019-08-18T07:34:27Z</time>
      </trkpt>
      <trkpt lat="47.28445" lon="-2.36003">
        <ele>101</ele>
        <time>2019-08-18T07:34:30Z</time>
      </trkpt>
      <trkpt lat="47.28445" lon="-2.36003">
        <ele>101</ele>
        <time>2019-08-18T07:34:38Z</time>
      </trkpt>
      <trkpt lat="47.28445" lon="-2.36003">
        <ele>42.1</ele>
        <time>2019-08-18T07:34:38Z</time>
      </trkpt>
      <trkpt lat="47.28445" lon="-2.36003">
        <ele>42.1</ele>
        <time>2019-08-18T07:34:57Z</time>
      </trkpt>
      <trkpt lat="47.28439" lon="-2.36024">
        <ele>98</ele>
        <time>2019-08-18T07:34:57Z</time>
      </trkpt>
      <trkpt lat="47.28432" lon="-2.36072">
        <ele>93</ele>
        <time>2019-08-18T07:35:03Z</time>
      </trkpt>
      <trkpt lat="47.28433" lon="-2.36085">
        <ele>93</ele>
        <time>2019-08-18T07:35:04Z</time>
      </trkpt>
      <trkpt lat="47.28436" lon="-2.36095">
        <ele>93</ele>
        <time>2019-08-18T07:35:05Z</time>
      </trkpt>
      <trkpt lat="47.28438" lon="-2.3612">
        <ele>88</ele>
        <time>2019-08-18T07:35:08Z</time>
      </trkpt>
      <trkpt lat="47.28439" lon="-2.36127">
        <ele>86</ele>
        <time>2019-08-18T07:35:09Z</time>
      </trkpt>
      <trkpt lat="47.28441" lon="-2.36133">
        <ele>86</ele>
        <time>2019-08-18T07:35:10Z</time>
      </trkpt>
      <trkpt lat="47.28444" lon="-2.36148">
        <ele>85</ele>
        <time>2019-08-18T07:35:13Z</time>
      </trkpt>
      <trkpt lat="47.28447" lon="-2.36156">
        <ele>85</ele>
        <time>2019-08-18T07:35:15Z</time>
      </trkpt>
      <trkpt lat="47.28447" lon="-2.36171">
        <ele>84</ele>
        <time>2019-08-18T07:35:18Z</time>
      </trkpt>
      <trkpt lat="47.28447" lon="-2.36182">
        <ele>83</ele>
        <time>2019-08-18T07:35:20Z</time>
      </trkpt>
      <trkpt lat="47.28449" lon="-2.36188">
        <ele>84</ele>
        <time>2019-08-18T07:35:22Z</time>
      </trkpt>
      <trkpt lat="47.28452" lon="-2.36197">
        <ele>85</ele>
        <time>2019-08-18T07:35:26Z</time>
      </trkpt>
      <trkpt lat="47.28452" lon="-2.36197">
        <ele>85</ele>
        <time>2019-08-18T07:35:34Z</time>
      </trkpt>
      <trkpt lat="47.28452" lon="-2.36197">
        <ele>31.9</ele>
        <time>2019-08-18T07:35:34Z</time>
      </trkpt>
      <trkpt lat="47.28452" lon="-2.36197">
        <ele>31.9</ele>
        <time>2019-08-18T07:36:01Z</time>
      </trkpt>
      <trkpt lat="47.28433" lon="-2.362">
        <ele>89</ele>
        <time>2019-08-18T07:36:01Z</time>
      </trkpt>
      <trkpt lat="47.28413" lon="-2.36213">
        <ele>96</ele>
        <time>2019-08-18T07:36:08Z</time>
      </trkpt>
      <trkpt lat="47.28407" lon="-2.36214">
        <ele>92</ele>
        <time>2019-08-18T07:36:09Z</time>
      </trkpt>
      <trkpt lat="47.28402" lon="-2.36221">
        <ele>88</ele>
        <time>2019-08-18T07:36:11Z</time>
      </trkpt>
      <trkpt lat="47.28393" lon="-2.36231">
        <ele>94</ele>
        <time>2019-08-18T07:36:15Z</time>
      </trkpt>
      <trkpt lat="47.28378" lon="-2.36244">
        <ele>98</ele>
        <time>2019-08-18T07:36:19Z</time>
      </trkpt>
      <trkpt lat="47.28372" lon="-2.3625">
        <ele>100</ele>
        <time>2019-08-18T07:36:21Z</time>
      </trkpt>
      <trkpt lat="47.2837" lon="-2.36252">
        <ele>100</ele>
        <time>2019-08-18T07:36:22Z</time>
      </trkpt>
      <trkpt lat="47.28365" lon="-2.36262">
        <ele>101</ele>
        <time>2019-08-18T07:36:25Z</time>
      </trkpt>
      <trkpt lat="47.28364" lon="-2.36265">
        <ele>103</ele>
        <time>2019-08-18T07:36:26Z</time>
      </trkpt>
      <trkpt lat="47.28363" lon="-2.36273">
        <ele>104</ele>
        <time>2019-08-18T07:36:28Z</time>
      </trkpt>
      <trkpt lat="47.28364" lon="-2.36283">
        <ele>108</ele>
        <time>2019-08-18T07:36:30Z</time>
      </trkpt>
      <trkpt lat="47.28365" lon="-2.3629">
        <ele>111</ele>
        <time>2019-08-18T07:36:32Z</time>
      </trkpt>
      <trkpt lat="47.28368" lon="-2.36297">
        <ele>108</ele>
        <time>2019-08-18T07:36:35Z</time>
      </trkpt>
      <trkpt lat="47.28369" lon="-2.363">
        <ele>106</ele>
        <time>2019-08-18T07:36:36Z</time>
      </trkpt>
      <trkpt lat="47.28376" lon="-2.36314">
        <ele>102</ele>
        <time>2019-08-18T07:36:39Z</time>
      </trkpt>
      <trkpt lat="47.28383" lon="-2.36322">
        <ele>101</ele>
        <time>2019-08-18T07:36:41Z</time>
      </trkpt>
      <trkpt lat="47.28386" lon="-2.36327">
        <ele>101</ele>
        <time>2019-08-18T07:36:42Z</time>
      </trkpt>
      <trkpt lat="47.2839" lon="-2.36333">
        <ele>100</ele>
        <time>2019-08-18T07:36:43Z</time>
      </trkpt>
      <trkpt lat="47.28392" lon="-2.3634">
        <ele>99</ele>
        <time>2019-08-18T07:36:44Z</time>
      </trkpt>
      <trkpt lat="47.28397" lon="-2.36347">
        <ele>99</ele>
        <time>2019-08-18T07:36:46Z</time>
      </trkpt>
      <trkpt lat="47.284" lon="-2.3635">
        <ele>99</ele>
        <time>2019-08-18T07:36:47Z</time>
      </trkpt>
      <trkpt lat="47.28403" lon="-2.36354">
        <ele>99</ele>
        <time>2019-08-18T07:36:48Z</time>
      </trkpt>
      <trkpt lat="47.28407" lon="-2.36359">
        <ele>98</ele>
        <time>2019-08-18T07:36:49Z</time>
      </trkpt>
      <trkpt lat="47.28411" lon="-2.36364">
        <ele>97</ele>
        <time>2019-08-18T07:36:50Z</time>
      </trkpt>
      <trkpt lat="47.28416" lon="-2.36366">
        <ele>97</ele>
        <time>2019-08-18T07:36:51Z</time>
      </trkpt>
      <trkpt lat="47.2842" lon="-2.36369">
        <ele>96</ele>
        <time>2019-08-18T07:36:52Z</time>
      </trkpt>
      <trkpt lat="47.28424" lon="-2.36372">
        <ele>96</ele>
        <time>2019-08-18T07:36:53Z</time>
      </trkpt>
      <trkpt lat="47.28433" lon="-2.3638">
        <ele>94</ele>
        <time>2019-08-18T07:36:55Z</time>
      </trkpt>
      <trkpt lat="47.28438" lon="-2.36385">
        <ele>93</ele>
        <time>2019-08-18T07:36:56Z</time>
      </trkpt>
      <trkpt lat="47.28442" lon="-2.36388">
        <ele>92</ele>
        <time>2019-08-18T07:36:57Z</time>
      </trkpt>
      <trkpt lat="47.28449" lon="-2.36399">
        <ele>91</ele>
        <time>2019-08-18T07:37:00Z</time>
      </trkpt>
      <trkpt lat="47.28453" lon="-2.36404">
        <ele>92</ele>
        <time>2019-08-18T07:37:03Z</time>
      </trkpt>
      <trkpt lat="47.28455" lon="-2.36406">
        <ele>92</ele>
        <time>2019-08-18T07:37:05Z</time>
      </trkpt>
      <trkpt lat="47.2846" lon="-2.36406">
        <ele>93</ele>
        <time>2019-08-18T07:37:10Z</time>
      </trkpt>
      <trkpt lat="47.28461" lon="-2.36396">
        <ele>93</ele>
        <time>2019-08-18T07:37:13Z</time>
      </trkpt>
      <trkpt lat="47.28461" lon="-2.36392">
        <ele>93</ele>
        <time>2019-08-18T07:37:14Z</time>
      </trkpt>
      <trkpt lat="47.2846" lon="-2.36376">
        <ele>93</ele>
        <time>2019-08-18T07:37:17Z</time>
      </trkpt>
      <trkpt lat="47.28463" lon="-2.36363">
        <ele>94</ele>
        <time>2019-08-18T07:37:19Z</time>
      </trkpt>
      <trkpt lat="47.28463" lon="-2.36357">
        <ele>93</ele>
        <time>2019-08-18T07:37:20Z</time>
      </trkpt>
      <trkpt lat="47.28463" lon="-2.3635">
        <ele>93</ele>
        <time>2019-08-18T07:37:21Z</time>
      </trkpt>
      <trkpt lat="47.28463" lon="-2.3634">
        <ele>93</ele>
        <time>2019-08-18T07:37:23Z</time>
      </trkpt>
      <trkpt lat="47.28464" lon="-2.36328">
        <ele>92</ele>
        <time>2019-08-18T07:37:26Z</time>
      </trkpt>
      <trkpt lat="47.28465" lon="-2.36317">
        <ele>93</ele>
        <time>2019-08-18T07:37:28Z</time>
      </trkpt>
      <trkpt lat="47.28466" lon="-2.3631">
        <ele>93</ele>
        <time>2019-08-18T07:37:29Z</time>
      </trkpt>
      <trkpt lat="47.28465" lon="-2.36302">
        <ele>93</ele>
        <time>2019-08-18T07:37:30Z</time>
      </trkpt>
      <trkpt lat="47.28465" lon="-2.36295">
        <ele>93</ele>
        <time>2019-08-18T07:37:31Z</time>
      </trkpt>
      <trkpt lat="47.28465" lon="-2.36287">
        <ele>93</ele>
        <time>2019-08-18T07:37:32Z</time>
      </trkpt>
      <trkpt lat="47.28464" lon="-2.36275">
        <ele>93</ele>
        <time>2019-08-18T07:37:34Z</time>
      </trkpt>
      <trkpt lat="47.28463" lon="-2.36268">
        <ele>93</ele>
        <time>2019-08-18T07:37:35Z</time>
      </trkpt>
      <trkpt lat="47.28461" lon="-2.36251">
        <ele>94</ele>
        <time>2019-08-18T07:37:38Z</time>
      </trkpt>
      <trkpt lat="47.2846" lon="-2.36238">
        <ele>95</ele>
        <time>2019-08-18T07:37:40Z</time>
      </trkpt>
      <trkpt lat="47.28459" lon="-2.36231">
        <ele>94</ele>
        <time>2019-08-18T07:37:41Z</time>
      </trkpt>
      <trkpt lat="47.28457" lon="-2.36225">
        <ele>94</ele>
        <time>2019-08-18T07:37:42Z</time>
      </trkpt>
      <trkpt lat="47.28458" lon="-2.36215">
        <ele>94</ele>
        <time>2019-08-18T07:37:44Z</time>
      </trkpt>
      <trkpt lat="47.28458" lon="-2.36205">
        <ele>93</ele>
        <time>2019-08-18T07:37:45Z</time>
      </trkpt>
      <trkpt lat="47.28462" lon="-2.36201">
        <ele>93</ele>
        <time>2019-08-18T07:37:49Z</time>
      </trkpt>
      <trkpt lat="47.28469" lon="-2.36194">
        <ele>92</ele>
        <time>2019-08-18T07:37:52Z</time>
      </trkpt>
      <trkpt lat="47.28474" lon="-2.36183">
        <ele>93</ele>
        <time>2019-08-18T07:37:55Z</time>
      </trkpt>
      <trkpt lat="47.28477" lon="-2.3618">
        <ele>93</ele>
        <time>2019-08-18T07:37:57Z</time>
      </trkpt>
      <trkpt lat="47.28481" lon="-2.36175">
        <ele>93</ele>
        <time>2019-08-18T07:37:59Z</time>
      </trkpt>
      <trkpt lat="47.2849" lon="-2.36163">
        <ele>93</ele>
        <time>2019-08-18T07:38:03Z</time>
      </trkpt>
      <trkpt lat="47.28492" lon="-2.36161">
        <ele>93</ele>
        <time>2019-08-18T07:38:04Z</time>
      </trkpt>
      <trkpt lat="47.28498" lon="-2.36158">
        <ele>92</ele>
        <time>2019-08-18T07:38:06Z</time>
      </trkpt>
      <trkpt lat="47.28505" lon="-2.36157">
        <ele>91</ele>
        <time>2019-08-18T07:38:09Z</time>
      </trkpt>
      <trkpt lat="47.28512" lon="-2.36163">
        <ele>92</ele>
        <time>2019-08-18T07:38:12Z</time>
      </trkpt>
      <trkpt lat="47.28517" lon="-2.36165">
        <ele>92</ele>
        <time>2019-08-18T07:38:14Z</time>
      </trkpt>
      <trkpt lat="47.28523" lon="-2.36169">
        <ele>92</ele>
        <time>2019-08-18T07:38:16Z</time>
      </trkpt>
      <trkpt lat="47.2853" lon="-2.36166">
        <ele>92</ele>
        <time>2019-08-18T07:38:20Z</time>
      </trkpt>
      <trkpt lat="47.28538" lon="-2.36166">
        <ele>93</ele>
        <time>2019-08-18T07:38:23Z</time>
      </trkpt>
      <trkpt lat="47.28543" lon="-2.36168">
        <ele>93</ele>
        <time>2019-08-18T07:38:25Z</time>
      </trkpt>
      <trkpt lat="47.28547" lon="-2.36171">
        <ele>94</ele>
        <time>2019-08-18T07:38:28Z</time>
      </trkpt>
      <trkpt lat="47.28549" lon="-2.36181">
        <ele>94</ele>
        <time>2019-08-18T07:38:30Z</time>
      </trkpt>
      <trkpt lat="47.28551" lon="-2.36191">
        <ele>94</ele>
        <time>2019-08-18T07:38:33Z</time>
      </trkpt>
      <trkpt lat="47.28549" lon="-2.36204">
        <ele>94</ele>
        <time>2019-08-18T07:38:35Z</time>
      </trkpt>
      <trkpt lat="47.28551" lon="-2.36216">
        <ele>94</ele>
        <time>2019-08-18T07:38:37Z</time>
      </trkpt>
      <trkpt lat="47.2855" lon="-2.36229">
        <ele>93</ele>
        <time>2019-08-18T07:38:39Z</time>
      </trkpt>
      <trkpt lat="47.28549" lon="-2.36241">
        <ele>93</ele>
        <time>2019-08-18T07:38:41Z</time>
      </trkpt>
      <trkpt lat="47.28549" lon="-2.36254">
        <ele>93</ele>
        <time>2019-08-18T07:38:43Z</time>
      </trkpt>
      <trkpt lat="47.28553" lon="-2.36275">
        <ele>94</ele>
        <time>2019-08-18T07:38:47Z</time>
      </trkpt>
      <trkpt lat="47.28555" lon="-2.3629">
        <ele>95</ele>
        <time>2019-08-18T07:38:49Z</time>
      </trkpt>
      <trkpt lat="47.2855" lon="-2.36304">
        <ele>96</ele>
        <time>2019-08-18T07:38:52Z</time>
      </trkpt>
      <trkpt lat="47.28545" lon="-2.3632">
        <ele>97</ele>
        <time>2019-08-18T07:38:55Z</time>
      </trkpt>
      <trkpt lat="47.28541" lon="-2.3633">
        <ele>97</ele>
        <time>2019-08-18T07:38:58Z</time>
      </trkpt>
      <trkpt lat="47.28543" lon="-2.36336">
        <ele>97</ele>
        <time>2019-08-18T07:39:00Z</time>
      </trkpt>
      <trkpt lat="47.28545" lon="-2.36346">
        <ele>97</ele>
        <time>2019-08-18T07:39:03Z</time>
      </trkpt>
      <trkpt lat="47.28546" lon="-2.36353">
        <ele>96</ele>
        <time>2019-08-18T07:39:05Z</time>
      </trkpt>
      <trkpt lat="47.28548" lon="-2.36358">
        <ele>96</ele>
        <time>2019-08-18T07:39:07Z</time>
      </trkpt>
      <trkpt lat="47.28552" lon="-2.36362">
        <ele>96</ele>
        <time>2019-08-18T07:39:09Z</time>
      </trkpt>
      <trkpt lat="47.28557" lon="-2.36359">
        <ele>96</ele>
        <time>2019-08-18T07:39:12Z</time>
      </trkpt>
      <trkpt lat="47.28565" lon="-2.36355">
        <ele>96</ele>
        <time>2019-08-18T07:39:15Z</time>
      </trkpt>
      <trkpt lat="47.28569" lon="-2.36352">
        <ele>96</ele>
        <time>2019-08-18T07:39:16Z</time>
      </trkpt>
      <trkpt lat="47.28574" lon="-2.36349">
        <ele>97</ele>
        <time>2019-08-18T07:39:17Z</time>
      </trkpt>
      <trkpt lat="47.28578" lon="-2.36346">
        <ele>97</ele>
        <time>2019-08-18T07:39:18Z</time>
      </trkpt>
      <trkpt lat="47.28587" lon="-2.36332">
        <ele>96</ele>
        <time>2019-08-18T07:39:21Z</time>
      </trkpt>
      <trkpt lat="47.28595" lon="-2.36326">
        <ele>97</ele>
        <time>2019-08-18T07:39:23Z</time>
      </trkpt>
      <trkpt lat="47.286" lon="-2.3632">
        <ele>97</ele>
        <time>2019-08-18T07:39:25Z</time>
      </trkpt>
      <trkpt lat="47.28611" lon="-2.36309">
        <ele>98</ele>
        <time>2019-08-18T07:39:28Z</time>
      </trkpt>
      <trkpt lat="47.28625" lon="-2.36292">
        <ele>104</ele>
        <time>2019-08-18T07:39:32Z</time>
      </trkpt>
      <trkpt lat="47.2864" lon="-2.36288">
        <ele>105</ele>
        <time>2019-08-18T07:39:35Z</time>
      </trkpt>
      <trkpt lat="47.28645" lon="-2.3629">
        <ele>105</ele>
        <time>2019-08-18T07:39:37Z</time>
      </trkpt>
      <trkpt lat="47.28648" lon="-2.3629">
        <ele>106</ele>
        <time>2019-08-18T07:39:38Z</time>
      </trkpt>
      <trkpt lat="47.28652" lon="-2.36292">
        <ele>105</ele>
        <time>2019-08-18T07:39:40Z</time>
      </trkpt>
      <trkpt lat="47.2866" lon="-2.36294">
        <ele>105</ele>
        <time>2019-08-18T07:39:45Z</time>
      </trkpt>
      <trkpt lat="47.2867" lon="-2.36292">
        <ele>105</ele>
        <time>2019-08-18T07:39:49Z</time>
      </trkpt>
      <trkpt lat="47.28678" lon="-2.36286">
        <ele>105</ele>
        <time>2019-08-18T07:39:52Z</time>
      </trkpt>
      <trkpt lat="47.28687" lon="-2.36283">
        <ele>105</ele>
        <time>2019-08-18T07:39:55Z</time>
      </trkpt>
      <trkpt lat="47.28692" lon="-2.36281">
        <ele>104</ele>
        <time>2019-08-18T07:39:57Z</time>
      </trkpt>
      <trkpt lat="47.28697" lon="-2.36284">
        <ele>104</ele>
        <time>2019-08-18T07:40:00Z</time>
      </trkpt>
      <trkpt lat="47.28702" lon="-2.36291">
        <ele>104</ele>
        <time>2019-08-18T07:40:03Z</time>
      </trkpt>
      <trkpt lat="47.28705" lon="-2.36297">
        <ele>104</ele>
        <time>2019-08-18T07:40:06Z</time>
      </trkpt>
      <trkpt lat="47.28703" lon="-2.36307">
        <ele>104</ele>
        <time>2019-08-18T07:40:09Z</time>
      </trkpt>
      <trkpt lat="47.28703" lon="-2.36314">
        <ele>103</ele>
        <time>2019-08-18T07:40:12Z</time>
      </trkpt>
      <trkpt lat="47.28702" lon="-2.36319">
        <ele>103</ele>
        <time>2019-08-18T07:40:13Z</time>
      </trkpt>
      <trkpt lat="47.28701" lon="-2.36329">
        <ele>104</ele>
        <time>2019-08-18T07:40:16Z</time>
      </trkpt>
      <trkpt lat="47.287" lon="-2.36337">
        <ele>104</ele>
        <time>2019-08-18T07:40:18Z</time>
      </trkpt>
      <trkpt lat="47.28701" lon="-2.3635">
        <ele>105</ele>
        <time>2019-08-18T07:40:22Z</time>
      </trkpt>
      <trkpt lat="47.28704" lon="-2.3636">
        <ele>104</ele>
        <time>2019-08-18T07:40:25Z</time>
      </trkpt>
      <trkpt lat="47.28706" lon="-2.36364">
        <ele>104</ele>
        <time>2019-08-18T07:40:26Z</time>
      </trkpt>
      <trkpt lat="47.28708" lon="-2.36369">
        <ele>104</ele>
        <time>2019-08-18T07:40:27Z</time>
      </trkpt>
      <trkpt lat="47.28715" lon="-2.36378">
        <ele>103</ele>
        <time>2019-08-18T07:40:30Z</time>
      </trkpt>
      <trkpt lat="47.28721" lon="-2.36378">
        <ele>103</ele>
        <time>2019-08-18T07:40:34Z</time>
      </trkpt>
      <trkpt lat="47.28727" lon="-2.36386">
        <ele>103</ele>
        <time>2019-08-18T07:40:38Z</time>
      </trkpt>
      <trkpt lat="47.28731" lon="-2.36391">
        <ele>103</ele>
        <time>2019-08-18T07:40:40Z</time>
      </trkpt>
      <trkpt lat="47.28733" lon="-2.36393">
        <ele>103</ele>
        <time>2019-08-18T07:40:41Z</time>
      </trkpt>
      <trkpt lat="47.28738" lon="-2.3639">
        <ele>102</ele>
        <time>2019-08-18T07:40:45Z</time>
      </trkpt>
      <trkpt lat="47.28738" lon="-2.36382">
        <ele>102</ele>
        <time>2019-08-18T07:40:49Z</time>
      </trkpt>
      <trkpt lat="47.28741" lon="-2.36372">
        <ele>102</ele>
        <time>2019-08-18T07:40:52Z</time>
      </trkpt>
      <trkpt lat="47.28746" lon="-2.36364">
        <ele>103</ele>
        <time>2019-08-18T07:40:55Z</time>
      </trkpt>
      <trkpt lat="47.28749" lon="-2.36356">
        <ele>103</ele>
        <time>2019-08-18T07:40:57Z</time>
      </trkpt>
      <trkpt lat="47.28751" lon="-2.36352">
        <ele>104</ele>
        <time>2019-08-18T07:40:58Z</time>
      </trkpt>
      <trkpt lat="47.28754" lon="-2.36337">
        <ele>104</ele>
        <time>2019-08-18T07:41:01Z</time>
      </trkpt>
      <trkpt lat="47.28755" lon="-2.36333">
        <ele>104</ele>
        <time>2019-08-18T07:41:02Z</time>
      </trkpt>
      <trkpt lat="47.28754" lon="-2.36326">
        <ele>104</ele>
        <time>2019-08-18T07:41:04Z</time>
      </trkpt>
      <trkpt lat="47.28755" lon="-2.36318">
        <ele>105</ele>
        <time>2019-08-18T07:41:07Z</time>
      </trkpt>
      <trkpt lat="47.28755" lon="-2.36318">
        <ele>42.2</ele>
        <time>2019-08-18T07:41:14Z</time>
      </trkpt>
      <trkpt lat="47.28755" lon="-2.36318">
        <ele>42.2</ele>
        <time>2019-08-18T07:41:21Z</time>
      </trkpt>
      <trkpt lat="47.28755" lon="-2.36304">
        <ele>105</ele>
        <time>2019-08-18T07:41:21Z</time>
      </trkpt>
      <trkpt lat="47.28752" lon="-2.36236">
        <ele>94</ele>
        <time>2019-08-18T07:41:28Z</time>
      </trkpt>
      <trkpt lat="47.28752" lon="-2.36228">
        <ele>90</ele>
        <time>2019-08-18T07:41:30Z</time>
      </trkpt>
      <trkpt lat="47.2876" lon="-2.36229">
        <ele>96</ele>
        <time>2019-08-18T07:41:35Z</time>
      </trkpt>
      <trkpt lat="47.28764" lon="-2.36235">
        <ele>98</ele>
        <time>2019-08-18T07:41:37Z</time>
      </trkpt>
      <trkpt lat="47.28768" lon="-2.36241">
        <ele>98</ele>
        <time>2019-08-18T07:41:39Z</time>
      </trkpt>
      <trkpt lat="47.28771" lon="-2.36245">
        <ele>98</ele>
        <time>2019-08-18T07:41:40Z</time>
      </trkpt>
      <trkpt lat="47.28777" lon="-2.36249">
        <ele>98</ele>
        <time>2019-08-18T07:41:42Z</time>
      </trkpt>
      <trkpt lat="47.2878" lon="-2.36252">
        <ele>98</ele>
        <time>2019-08-18T07:41:43Z</time>
      </trkpt>
      <trkpt lat="47.28784" lon="-2.36258">
        <ele>97</ele>
        <time>2019-08-18T07:41:45Z</time>
      </trkpt>
      <trkpt lat="47.2879" lon="-2.36264">
        <ele>95</ele>
        <time>2019-08-18T07:41:47Z</time>
      </trkpt>
      <trkpt lat="47.28793" lon="-2.36268">
        <ele>96</ele>
        <time>2019-08-18T07:41:48Z</time>
      </trkpt>
      <trkpt lat="47.288" lon="-2.36276">
        <ele>95</ele>
        <time>2019-08-18T07:41:50Z</time>
      </trkpt>
      <trkpt lat="47.2881" lon="-2.36288">
        <ele>93</ele>
        <time>2019-08-18T07:41:53Z</time>
      </trkpt>
      <trkpt lat="47.28814" lon="-2.36292">
        <ele>91</ele>
        <time>2019-08-18T07:41:54Z</time>
      </trkpt>
      <trkpt lat="47.28818" lon="-2.36297">
        <ele>90</ele>
        <time>2019-08-18T07:41:55Z</time>
      </trkpt>
      <trkpt lat="47.28823" lon="-2.36302">
        <ele>90</ele>
        <time>2019-08-18T07:41:56Z</time>
      </trkpt>
      <trkpt lat="47.28827" lon="-2.36306">
        <ele>89</ele>
        <time>2019-08-18T07:41:57Z</time>
      </trkpt>
      <trkpt lat="47.2883" lon="-2.3631">
        <ele>88</ele>
        <time>2019-08-18T07:41:58Z</time>
      </trkpt>
      <trkpt lat="47.28836" lon="-2.36321">
        <ele>88</ele>
        <time>2019-08-18T07:42:01Z</time>
      </trkpt>
      <trkpt lat="47.28838" lon="-2.36331">
        <ele>88</ele>
        <time>2019-08-18T07:42:04Z</time>
      </trkpt>
      <trkpt lat="47.28835" lon="-2.36342">
        <ele>87</ele>
        <time>2019-08-18T07:42:07Z</time>
      </trkpt>
      <trkpt lat="47.28831" lon="-2.36348">
        <ele>86</ele>
        <time>2019-08-18T07:42:09Z</time>
      </trkpt>
      <trkpt lat="47.28826" lon="-2.36356">
        <ele>86</ele>
        <time>2019-08-18T07:42:11Z</time>
      </trkpt>
      <trkpt lat="47.28821" lon="-2.36365">
        <ele>87</ele>
        <time>2019-08-18T07:42:13Z</time>
      </trkpt>
      <trkpt lat="47.28817" lon="-2.36373">
        <ele>87</ele>
        <time>2019-08-18T07:42:15Z</time>
      </trkpt>
      <trkpt lat="47.28815" lon="-2.36377">
        <ele>87</ele>
        <time>2019-08-18T07:42:16Z</time>
      </trkpt>
      <trkpt lat="47.28809" lon="-2.36388">
        <ele>88</ele>
        <time>2019-08-18T07:42:19Z</time>
      </trkpt>
      <trkpt lat="47.28806" lon="-2.36395">
        <ele>88</ele>
        <time>2019-08-18T07:42:21Z</time>
      </trkpt>
      <trkpt lat="47.28804" lon="-2.36398">
        <ele>88</ele>
        <time>2019-08-18T07:42:22Z</time>
      </trkpt>
      <trkpt lat="47.288" lon="-2.36406">
        <ele>89</ele>
        <time>2019-08-18T07:42:25Z</time>
      </trkpt>
      <trkpt lat="47.28797" lon="-2.36419">
        <ele>88</ele>
        <time>2019-08-18T07:42:28Z</time>
      </trkpt>
      <trkpt lat="47.28797" lon="-2.36428">
        <ele>87</ele>
        <time>2019-08-18T07:42:30Z</time>
      </trkpt>
      <trkpt lat="47.28799" lon="-2.3644">
        <ele>88</ele>
        <time>2019-08-18T07:42:32Z</time>
      </trkpt>
      <trkpt lat="47.28802" lon="-2.3645">
        <ele>88</ele>
        <time>2019-08-18T07:42:34Z</time>
      </trkpt>
      <trkpt lat="47.28803" lon="-2.36458">
        <ele>88</ele>
        <time>2019-08-18T07:42:36Z</time>
      </trkpt>
      <trkpt lat="47.28803" lon="-2.36465">
        <ele>88</ele>
        <time>2019-08-18T07:42:38Z</time>
      </trkpt>
      <trkpt lat="47.28803" lon="-2.36469">
        <ele>88</ele>
        <time>2019-08-18T07:42:39Z</time>
      </trkpt>
      <trkpt lat="47.28799" lon="-2.36479">
        <ele>89</ele>
        <time>2019-08-18T07:42:43Z</time>
      </trkpt>
      <trkpt lat="47.28798" lon="-2.36484">
        <ele>90</ele>
        <time>2019-08-18T07:42:45Z</time>
      </trkpt>
      <trkpt lat="47.28796" lon="-2.3649">
        <ele>90</ele>
        <time>2019-08-18T07:42:49Z</time>
      </trkpt>
      <trkpt lat="47.28793" lon="-2.36497">
        <ele>91</ele>
        <time>2019-08-18T07:42:52Z</time>
      </trkpt>
      <trkpt lat="47.28793" lon="-2.36509">
        <ele>91</ele>
        <time>2019-08-18T07:42:55Z</time>
      </trkpt>
      <trkpt lat="47.28793" lon="-2.36527">
        <ele>90</ele>
        <time>2019-08-18T07:42:58Z</time>
      </trkpt>
      <trkpt lat="47.28793" lon="-2.36535">
        <ele>91</ele>
        <time>2019-08-18T07:42:59Z</time>
      </trkpt>
      <trkpt lat="47.28794" lon="-2.36545">
        <ele>90</ele>
        <time>2019-08-18T07:43:01Z</time>
      </trkpt>
      <trkpt lat="47.28795" lon="-2.36549">
        <ele>91</ele>
        <time>2019-08-18T07:43:02Z</time>
      </trkpt>
      <trkpt lat="47.28798" lon="-2.36566">
        <ele>91</ele>
        <time>2019-08-18T07:43:05Z</time>
      </trkpt>
      <trkpt lat="47.28799" lon="-2.36575">
        <ele>90</ele>
        <time>2019-08-18T07:43:07Z</time>
      </trkpt>
      <trkpt lat="47.28803" lon="-2.36585">
        <ele>91</ele>
        <time>2019-08-18T07:43:09Z</time>
      </trkpt>
      <trkpt lat="47.28808" lon="-2.366">
        <ele>91</ele>
        <time>2019-08-18T07:43:11Z</time>
      </trkpt>
      <trkpt lat="47.28811" lon="-2.36607">
        <ele>91</ele>
        <time>2019-08-18T07:43:12Z</time>
      </trkpt>
      <trkpt lat="47.28816" lon="-2.36621">
        <ele>90</ele>
        <time>2019-08-18T07:43:14Z</time>
      </trkpt>
      <trkpt lat="47.28817" lon="-2.36627">
        <ele>90</ele>
        <time>2019-08-18T07:43:15Z</time>
      </trkpt>
      <trkpt lat="47.28816" lon="-2.36651">
        <ele>90</ele>
        <time>2019-08-18T07:43:19Z</time>
      </trkpt>
      <trkpt lat="47.28813" lon="-2.36659">
        <ele>90</ele>
        <time>2019-08-18T07:43:20Z</time>
      </trkpt>
      <trkpt lat="47.2881" lon="-2.36668">
        <ele>90</ele>
        <time>2019-08-18T07:43:21Z</time>
      </trkpt>
      <trkpt lat="47.28808" lon="-2.36677">
        <ele>90</ele>
        <time>2019-08-18T07:43:22Z</time>
      </trkpt>
      <trkpt lat="47.28806" lon="-2.36686">
        <ele>90</ele>
        <time>2019-08-18T07:43:23Z</time>
      </trkpt>
      <trkpt lat="47.28803" lon="-2.36707">
        <ele>90</ele>
        <time>2019-08-18T07:43:25Z</time>
      </trkpt>
      <trkpt lat="47.28798" lon="-2.36725">
        <ele>90</ele>
        <time>2019-08-18T07:43:27Z</time>
      </trkpt>
      <trkpt lat="47.28795" lon="-2.36734">
        <ele>90</ele>
        <time>2019-08-18T07:43:28Z</time>
      </trkpt>
      <trkpt lat="47.28793" lon="-2.36743">
        <ele>90</ele>
        <time>2019-08-18T07:43:29Z</time>
      </trkpt>
      <trkpt lat="47.2879" lon="-2.36753">
        <ele>90</ele>
        <time>2019-08-18T07:43:30Z</time>
      </trkpt>
      <trkpt lat="47.28787" lon="-2.36762">
        <ele>89</ele>
        <time>2019-08-18T07:43:31Z</time>
      </trkpt>
      <trkpt lat="47.2878" lon="-2.36786">
        <ele>89</ele>
        <time>2019-08-18T07:43:34Z</time>
      </trkpt>
      <trkpt lat="47.28776" lon="-2.36806">
        <ele>89</ele>
        <time>2019-08-18T07:43:36Z</time>
      </trkpt>
      <trkpt lat="47.28775" lon="-2.36817">
        <ele>89</ele>
        <time>2019-08-18T07:43:37Z</time>
      </trkpt>
      <trkpt lat="47.28773" lon="-2.36828">
        <ele>88</ele>
        <time>2019-08-18T07:43:38Z</time>
      </trkpt>
      <trkpt lat="47.2877" lon="-2.36859">
        <ele>89</ele>
        <time>2019-08-18T07:43:41Z</time>
      </trkpt>
      <trkpt lat="47.2877" lon="-2.36869">
        <ele>88</ele>
        <time>2019-08-18T07:43:42Z</time>
      </trkpt>
      <trkpt lat="47.28768" lon="-2.36889">
        <ele>86</ele>
        <time>2019-08-18T07:43:45Z</time>
      </trkpt>
      <trkpt lat="47.2876" lon="-2.36897">
        <ele>87</ele>
        <time>2019-08-18T07:43:48Z</time>
      </trkpt>
      <trkpt lat="47.28753" lon="-2.36899">
        <ele>86</ele>
        <time>2019-08-18T07:43:50Z</time>
      </trkpt>
      <trkpt lat="47.28746" lon="-2.369">
        <ele>87</ele>
        <time>2019-08-18T07:43:53Z</time>
      </trkpt>
      <trkpt lat="47.28743" lon="-2.369">
        <ele>86</ele>
        <time>2019-08-18T07:43:54Z</time>
      </trkpt>
      <trkpt lat="47.28739" lon="-2.36895">
        <ele>86</ele>
        <time>2019-08-18T07:43:57Z</time>
      </trkpt>
      <trkpt lat="47.28732" lon="-2.36889">
        <ele>87</ele>
        <time>2019-08-18T07:44:00Z</time>
      </trkpt>
      <trkpt lat="47.28726" lon="-2.36883">
        <ele>87</ele>
        <time>2019-08-18T07:44:02Z</time>
      </trkpt>
      <trkpt lat="47.28719" lon="-2.36875">
        <ele>88</ele>
        <time>2019-08-18T07:44:04Z</time>
      </trkpt>
      <trkpt lat="47.28717" lon="-2.36869">
        <ele>88</ele>
        <time>2019-08-18T07:44:06Z</time>
      </trkpt>
      <trkpt lat="47.28715" lon="-2.3686">
        <ele>89</ele>
        <time>2019-08-18T07:44:08Z</time>
      </trkpt>
      <trkpt lat="47.28713" lon="-2.36852">
        <ele>89</ele>
        <time>2019-08-18T07:44:10Z</time>
      </trkpt>
      <trkpt lat="47.28709" lon="-2.36843">
        <ele>89</ele>
        <time>2019-08-18T07:44:13Z</time>
      </trkpt>
      <trkpt lat="47.28704" lon="-2.36836">
        <ele>89</ele>
        <time>2019-08-18T07:44:17Z</time>
      </trkpt>
      <trkpt lat="47.28697" lon="-2.36841">
        <ele>88</ele>
        <time>2019-08-18T07:44:21Z</time>
      </trkpt>
      <trkpt lat="47.28696" lon="-2.36851">
        <ele>87</ele>
        <time>2019-08-18T07:44:25Z</time>
      </trkpt>
      <trkpt lat="47.28697" lon="-2.36858">
        <ele>87</ele>
        <time>2019-08-18T07:44:27Z</time>
      </trkpt>
      <trkpt lat="47.28699" lon="-2.36868">
        <ele>86</ele>
        <time>2019-08-18T07:44:30Z</time>
      </trkpt>
      <trkpt lat="47.287" lon="-2.36873">
        <ele>86</ele>
        <time>2019-08-18T07:44:31Z</time>
      </trkpt>
      <trkpt lat="47.28705" lon="-2.36889">
        <ele>86</ele>
        <time>2019-08-18T07:44:34Z</time>
      </trkpt>
      <trkpt lat="47.2871" lon="-2.36898">
        <ele>87</ele>
        <time>2019-08-18T07:44:36Z</time>
      </trkpt>
      <trkpt lat="47.28714" lon="-2.36904">
        <ele>86</ele>
        <time>2019-08-18T07:44:37Z</time>
      </trkpt>
      <trkpt lat="47.28716" lon="-2.36911">
        <ele>85</ele>
        <time>2019-08-18T07:44:38Z</time>
      </trkpt>
      <trkpt lat="47.2872" lon="-2.36914">
        <ele>85</ele>
        <time>2019-08-18T07:44:39Z</time>
      </trkpt>
      <trkpt lat="47.28729" lon="-2.36923">
        <ele>86</ele>
        <time>2019-08-18T07:44:42Z</time>
      </trkpt>
      <trkpt lat="47.28732" lon="-2.36926">
        <ele>86</ele>
        <time>2019-08-18T07:44:43Z</time>
      </trkpt>
      <trkpt lat="47.2874" lon="-2.36933">
        <ele>86</ele>
        <time>2019-08-18T07:44:45Z</time>
      </trkpt>
      <trkpt lat="47.28745" lon="-2.3694">
        <ele>86</ele>
        <time>2019-08-18T07:44:47Z</time>
      </trkpt>
      <trkpt lat="47.28748" lon="-2.36948">
        <ele>85</ele>
        <time>2019-08-18T07:44:50Z</time>
      </trkpt>
      <trkpt lat="47.2875" lon="-2.36955">
        <ele>85</ele>
        <time>2019-08-18T07:44:53Z</time>
      </trkpt>
      <trkpt lat="47.2875" lon="-2.36964">
        <ele>85</ele>
        <time>2019-08-18T07:44:55Z</time>
      </trkpt>
      <trkpt lat="47.28753" lon="-2.36976">
        <ele>84</ele>
        <time>2019-08-18T07:44:57Z</time>
      </trkpt>
      <trkpt lat="47.28761" lon="-2.36989">
        <ele>83</ele>
        <time>2019-08-18T07:45:00Z</time>
      </trkpt>
      <trkpt lat="47.28767" lon="-2.37001">
        <ele>82</ele>
        <time>2019-08-18T07:45:03Z</time>
      </trkpt>
      <trkpt lat="47.2877" lon="-2.37011">
        <ele>82</ele>
        <time>2019-08-18T07:45:05Z</time>
      </trkpt>
      <trkpt lat="47.28773" lon="-2.37022">
        <ele>81</ele>
        <time>2019-08-18T07:45:07Z</time>
      </trkpt>
      <trkpt lat="47.28776" lon="-2.37038">
        <ele>78</ele>
        <time>2019-08-18T07:45:10Z</time>
      </trkpt>
      <trkpt lat="47.28777" lon="-2.37044">
        <ele>78</ele>
        <time>2019-08-18T07:45:11Z</time>
      </trkpt>
      <trkpt lat="47.28778" lon="-2.3705">
        <ele>79</ele>
        <time>2019-08-18T07:45:12Z</time>
      </trkpt>
      <trkpt lat="47.28784" lon="-2.37077">
        <ele>77</ele>
        <time>2019-08-18T07:45:15Z</time>
      </trkpt>
      <trkpt lat="47.28785" lon="-2.37086">
        <ele>77</ele>
        <time>2019-08-18T07:45:16Z</time>
      </trkpt>
      <trkpt lat="47.28789" lon="-2.37097">
        <ele>77</ele>
        <time>2019-08-18T07:45:18Z</time>
      </trkpt>
      <trkpt lat="47.28794" lon="-2.37106">
        <ele>77</ele>
        <time>2019-08-18T07:45:20Z</time>
      </trkpt>
      <trkpt lat="47.28802" lon="-2.37112">
        <ele>76</ele>
        <time>2019-08-18T07:45:22Z</time>
      </trkpt>
      <trkpt lat="47.28808" lon="-2.37113">
        <ele>76</ele>
        <time>2019-08-18T07:45:24Z</time>
      </trkpt>
      <trkpt lat="47.28815" lon="-2.3711">
        <ele>76</ele>
        <time>2019-08-18T07:45:26Z</time>
      </trkpt>
      <trkpt lat="47.2882" lon="-2.37105">
        <ele>76</ele>
        <time>2019-08-18T07:45:28Z</time>
      </trkpt>
      <trkpt lat="47.2882" lon="-2.37105">
        <ele>12.5</ele>
        <time>2019-08-18T07:45:34Z</time>
      </trkpt>
      <trkpt lat="47.2882" lon="-2.37105">
        <ele>12.5</ele>
        <time>2019-08-18T07:45:58Z</time>
      </trkpt>
      <trkpt lat="47.2882" lon="-2.37064">
        <ele>76</ele>
        <time>2019-08-18T07:45:58Z</time>
      </trkpt>
      <trkpt lat="47.28814" lon="-2.3702">
        <ele>71</ele>
        <time>2019-08-18T07:46:04Z</time>
      </trkpt>
      <trkpt lat="47.28811" lon="-2.37014">
        <ele>68</ele>
        <time>2019-08-18T07:46:05Z</time>
      </trkpt>
      <trkpt lat="47.2881" lon="-2.37002">
        <ele>75</ele>
        <time>2019-08-18T07:46:07Z</time>
      </trkpt>
      <trkpt lat="47.28807" lon="-2.36989">
        <ele>75</ele>
        <time>2019-08-18T07:46:09Z</time>
      </trkpt>
      <trkpt lat="47.28804" lon="-2.36984">
        <ele>75</ele>
        <time>2019-08-18T07:46:10Z</time>
      </trkpt>
      <trkpt lat="47.28801" lon="-2.36978">
        <ele>75</ele>
        <time>2019-08-18T07:46:11Z</time>
      </trkpt>
      <trkpt lat="47.28798" lon="-2.36967">
        <ele>77</ele>
        <time>2019-08-18T07:46:13Z</time>
      </trkpt>
      <trkpt lat="47.28793" lon="-2.36956">
        <ele>80</ele>
        <time>2019-08-18T07:46:15Z</time>
      </trkpt>
      <trkpt lat="47.2879" lon="-2.36944">
        <ele>79</ele>
        <time>2019-08-18T07:46:17Z</time>
      </trkpt>
      <trkpt lat="47.28789" lon="-2.36938">
        <ele>78</ele>
        <time>2019-08-18T07:46:18Z</time>
      </trkpt>
      <trkpt lat="47.28785" lon="-2.36922">
        <ele>79</ele>
        <time>2019-08-18T07:46:21Z</time>
      </trkpt>
      <trkpt lat="47.28781" lon="-2.36913">
        <ele>80</ele>
        <time>2019-08-18T07:46:23Z</time>
      </trkpt>
      <trkpt lat="47.28777" lon="-2.36908">
        <ele>81</ele>
        <time>2019-08-18T07:46:25Z</time>
      </trkpt>
      <trkpt lat="47.28773" lon="-2.369">
        <ele>84</ele>
        <time>2019-08-18T07:46:28Z</time>
      </trkpt>
      <trkpt lat="47.28769" lon="-2.3689">
        <ele>85</ele>
        <time>2019-08-18T07:46:31Z</time>
      </trkpt>
      <trkpt lat="47.28765" lon="-2.36881">
        <ele>84</ele>
        <time>2019-08-18T07:46:34Z</time>
      </trkpt>
      <trkpt lat="47.28765" lon="-2.36874">
        <ele>85</ele>
        <time>2019-08-18T07:46:36Z</time>
      </trkpt>
      <trkpt lat="47.28765" lon="-2.36867">
        <ele>84</ele>
        <time>2019-08-18T07:46:38Z</time>
      </trkpt>
      <trkpt lat="47.28766" lon="-2.36858">
        <ele>85</ele>
        <time>2019-08-18T07:46:40Z</time>
      </trkpt>
      <trkpt lat="47.28766" lon="-2.36851">
        <ele>84</ele>
        <time>2019-08-18T07:46:42Z</time>
      </trkpt>
      <trkpt lat="47.28766" lon="-2.36843">
        <ele>84</ele>
        <time>2019-08-18T07:46:44Z</time>
      </trkpt>
      <trkpt lat="47.28767" lon="-2.36835">
        <ele>84</ele>
        <time>2019-08-18T07:46:46Z</time>
      </trkpt>
      <trkpt lat="47.28769" lon="-2.36826">
        <ele>85</ele>
        <time>2019-08-18T07:46:48Z</time>
      </trkpt>
      <trkpt lat="47.28772" lon="-2.36818">
        <ele>85</ele>
        <time>2019-08-18T07:46:50Z</time>
      </trkpt>
      <trkpt lat="47.28774" lon="-2.36812">
        <ele>85</ele>
        <time>2019-08-18T07:46:52Z</time>
      </trkpt>
      <trkpt lat="47.28778" lon="-2.36805">
        <ele>86</ele>
        <time>2019-08-18T07:46:55Z</time>
      </trkpt>
      <trkpt lat="47.2878" lon="-2.36795">
        <ele>85</ele>
        <time>2019-08-18T07:46:57Z</time>
      </trkpt>
      <trkpt lat="47.28781" lon="-2.3679">
        <ele>85</ele>
        <time>2019-08-18T07:46:58Z</time>
      </trkpt>
      <trkpt lat="47.28782" lon="-2.36779">
        <ele>85</ele>
        <time>2019-08-18T07:47:00Z</time>
      </trkpt>
      <trkpt lat="47.28784" lon="-2.36769">
        <ele>85</ele>
        <time>2019-08-18T07:47:02Z</time>
      </trkpt>
      <trkpt lat="47.28786" lon="-2.3676">
        <ele>85</ele>
        <time>2019-08-18T07:47:04Z</time>
      </trkpt>
      <trkpt lat="47.28788" lon="-2.36755">
        <ele>85</ele>
        <time>2019-08-18T07:47:05Z</time>
      </trkpt>
      <trkpt lat="47.28792" lon="-2.36746">
        <ele>87</ele>
        <time>2019-08-18T07:47:07Z</time>
      </trkpt>
      <trkpt lat="47.28795" lon="-2.36736">
        <ele>86</ele>
        <time>2019-08-18T07:47:09Z</time>
      </trkpt>
      <trkpt lat="47.28801" lon="-2.36725">
        <ele>86</ele>
        <time>2019-08-18T07:47:12Z</time>
      </trkpt>
      <trkpt lat="47.28803" lon="-2.36718">
        <ele>86</ele>
        <time>2019-08-18T07:47:14Z</time>
      </trkpt>
      <trkpt lat="47.28804" lon="-2.3671">
        <ele>86</ele>
        <time>2019-08-18T07:47:16Z</time>
      </trkpt>
      <trkpt lat="47.28808" lon="-2.36696">
        <ele>86</ele>
        <time>2019-08-18T07:47:20Z</time>
      </trkpt>
      <trkpt lat="47.28809" lon="-2.36683">
        <ele>85</ele>
        <time>2019-08-18T07:47:24Z</time>
      </trkpt>
      <trkpt lat="47.28809" lon="-2.3668">
        <ele>86</ele>
        <time>2019-08-18T07:47:25Z</time>
      </trkpt>
      <trkpt lat="47.28812" lon="-2.36672">
        <ele>87</ele>
        <time>2019-08-18T07:47:28Z</time>
      </trkpt>
      <trkpt lat="47.28814" lon="-2.36664">
        <ele>88</ele>
        <time>2019-08-18T07:47:31Z</time>
      </trkpt>
      <trkpt lat="47.28819" lon="-2.36655">
        <ele>90</ele>
        <time>2019-08-18T07:47:34Z</time>
      </trkpt>
      <trkpt lat="47.28822" lon="-2.3665">
        <ele>90</ele>
        <time>2019-08-18T07:47:36Z</time>
      </trkpt>
      <trkpt lat="47.28826" lon="-2.36643">
        <ele>90</ele>
        <time>2019-08-18T07:47:38Z</time>
      </trkpt>
      <trkpt lat="47.2883" lon="-2.36637">
        <ele>91</ele>
        <time>2019-08-18T07:47:40Z</time>
      </trkpt>
      <trkpt lat="47.28834" lon="-2.36631">
        <ele>92</ele>
        <time>2019-08-18T07:47:42Z</time>
      </trkpt>
      <trkpt lat="47.28839" lon="-2.36619">
        <ele>93</ele>
        <time>2019-08-18T07:47:45Z</time>
      </trkpt>
      <trkpt lat="47.28841" lon="-2.36614">
        <ele>93</ele>
        <time>2019-08-18T07:47:46Z</time>
      </trkpt>
      <trkpt lat="47.28845" lon="-2.36605">
        <ele>94</ele>
        <time>2019-08-18T07:47:48Z</time>
      </trkpt>
      <trkpt lat="47.2885" lon="-2.36596">
        <ele>94</ele>
        <time>2019-08-18T07:47:50Z</time>
      </trkpt>
      <trkpt lat="47.28854" lon="-2.36585">
        <ele>94</ele>
        <time>2019-08-18T07:47:52Z</time>
      </trkpt>
      <trkpt lat="47.28863" lon="-2.36566">
        <ele>92</ele>
        <time>2019-08-18T07:47:55Z</time>
      </trkpt>
      <trkpt lat="47.28865" lon="-2.36557">
        <ele>92</ele>
        <time>2019-08-18T07:47:57Z</time>
      </trkpt>
      <trkpt lat="47.28865" lon="-2.36547">
        <ele>93</ele>
        <time>2019-08-18T07:47:59Z</time>
      </trkpt>
      <trkpt lat="47.28865" lon="-2.36537">
        <ele>93</ele>
        <time>2019-08-18T07:48:01Z</time>
      </trkpt>
      <trkpt lat="47.28864" lon="-2.36532">
        <ele>93</ele>
        <time>2019-08-18T07:48:02Z</time>
      </trkpt>
      <trkpt lat="47.28861" lon="-2.36518">
        <ele>92</ele>
        <time>2019-08-18T07:48:05Z</time>
      </trkpt>
      <trkpt lat="47.28858" lon="-2.36511">
        <ele>92</ele>
        <time>2019-08-18T07:48:07Z</time>
      </trkpt>
      <trkpt lat="47.28856" lon="-2.36501">
        <ele>92</ele>
        <time>2019-08-18T07:48:10Z</time>
      </trkpt>
      <trkpt lat="47.28855" lon="-2.36498">
        <ele>92</ele>
        <time>2019-08-18T07:48:11Z</time>
      </trkpt>
      <trkpt lat="47.28853" lon="-2.3649">
        <ele>92</ele>
        <time>2019-08-18T07:48:13Z</time>
      </trkpt>
      <trkpt lat="47.28851" lon="-2.3648">
        <ele>92</ele>
        <time>2019-08-18T07:48:16Z</time>
      </trkpt>
      <trkpt lat="47.28851" lon="-2.3647">
        <ele>93</ele>
        <time>2019-08-18T07:48:19Z</time>
      </trkpt>
      <trkpt lat="47.2885" lon="-2.36466">
        <ele>94</ele>
        <time>2019-08-18T07:48:20Z</time>
      </trkpt>
      <trkpt lat="47.28848" lon="-2.36457">
        <ele>94</ele>
        <time>2019-08-18T07:48:22Z</time>
      </trkpt>
      <trkpt lat="47.28847" lon="-2.3645">
        <ele>94</ele>
        <time>2019-08-18T07:48:24Z</time>
      </trkpt>
      <trkpt lat="47.28845" lon="-2.36443">
        <ele>94</ele>
        <time>2019-08-18T07:48:26Z</time>
      </trkpt>
      <trkpt lat="47.28843" lon="-2.36432">
        <ele>95</ele>
        <time>2019-08-18T07:48:29Z</time>
      </trkpt>
      <trkpt lat="47.28843" lon="-2.36425">
        <ele>95</ele>
        <time>2019-08-18T07:48:31Z</time>
      </trkpt>
      <trkpt lat="47.28842" lon="-2.36418">
        <ele>95</ele>
        <time>2019-08-18T07:48:34Z</time>
      </trkpt>
      <trkpt lat="47.28841" lon="-2.36413">
        <ele>96</ele>
        <time>2019-08-18T07:48:37Z</time>
      </trkpt>
      <trkpt lat="47.28838" lon="-2.36406">
        <ele>95</ele>
        <time>2019-08-18T07:48:40Z</time>
      </trkpt>
      <trkpt lat="47.28838" lon="-2.36406">
        <ele>37.9</ele>
        <time>2019-08-18T07:48:47Z</time>
      </trkpt>
      <trkpt lat="47.28838" lon="-2.36406">
        <ele>37.9</ele>
        <time>2019-08-18T07:51:19Z</time>
      </trkpt>
      <trkpt lat="47.28815" lon="-2.36401">
        <ele>104</ele>
        <time>2019-08-18T07:51:19Z</time>
      </trkpt>
      <trkpt lat="47.28804" lon="-2.36402">
        <ele>89</ele>
        <time>2019-08-18T07:51:25Z</time>
      </trkpt>
      <trkpt lat="47.28801" lon="-2.36396">
        <ele>93</ele>
        <time>2019-08-18T07:51:27Z</time>
      </trkpt>
      <trkpt lat="47.28806" lon="-2.36389">
        <ele>100</ele>
        <time>2019-08-18T07:51:29Z</time>
      </trkpt>
      <trkpt lat="47.28811" lon="-2.36379">
        <ele>96</ele>
        <time>2019-08-18T07:51:31Z</time>
      </trkpt>
      <trkpt lat="47.28814" lon="-2.36375">
        <ele>95</ele>
        <time>2019-08-18T07:51:32Z</time>
      </trkpt>
      <trkpt lat="47.28815" lon="-2.36371">
        <ele>95</ele>
        <time>2019-08-18T07:51:33Z</time>
      </trkpt>
      <trkpt lat="47.28819" lon="-2.36362">
        <ele>95</ele>
        <time>2019-08-18T07:51:35Z</time>
      </trkpt>
      <trkpt lat="47.2882" lon="-2.36357">
        <ele>95</ele>
        <time>2019-08-18T07:51:36Z</time>
      </trkpt>
      <trkpt lat="47.28826" lon="-2.36348">
        <ele>97</ele>
        <time>2019-08-18T07:51:38Z</time>
      </trkpt>
      <trkpt lat="47.2883" lon="-2.36344">
        <ele>96</ele>
        <time>2019-08-18T07:51:39Z</time>
      </trkpt>
      <trkpt lat="47.28834" lon="-2.36338">
        <ele>93</ele>
        <time>2019-08-18T07:51:40Z</time>
      </trkpt>
      <trkpt lat="47.28836" lon="-2.36335">
        <ele>93</ele>
        <time>2019-08-18T07:51:41Z</time>
      </trkpt>
      <trkpt lat="47.28844" lon="-2.3633">
        <ele>93</ele>
        <time>2019-08-18T07:51:43Z</time>
      </trkpt>
      <trkpt lat="47.28851" lon="-2.36326">
        <ele>92</ele>
        <time>2019-08-18T07:51:45Z</time>
      </trkpt>
      <trkpt lat="47.28855" lon="-2.36324">
        <ele>90</ele>
        <time>2019-08-18T07:51:46Z</time>
      </trkpt>
      <trkpt lat="47.28859" lon="-2.3632">
        <ele>88</ele>
        <time>2019-08-18T07:51:47Z</time>
      </trkpt>
      <trkpt lat="47.28864" lon="-2.36318">
        <ele>86</ele>
        <time>2019-08-18T07:51:48Z</time>
      </trkpt>
      <trkpt lat="47.28869" lon="-2.36315">
        <ele>84</ele>
        <time>2019-08-18T07:51:49Z</time>
      </trkpt>
      <trkpt lat="47.28874" lon="-2.36314">
        <ele>82</ele>
        <time>2019-08-18T07:51:50Z</time>
      </trkpt>
      <trkpt lat="47.28879" lon="-2.36313">
        <ele>81</ele>
        <time>2019-08-18T07:51:51Z</time>
      </trkpt>
      <trkpt lat="47.28884" lon="-2.36311">
        <ele>80</ele>
        <time>2019-08-18T07:51:52Z</time>
      </trkpt>
      <trkpt lat="47.28889" lon="-2.36309">
        <ele>80</ele>
        <time>2019-08-18T07:51:53Z</time>
      </trkpt>
      <trkpt lat="47.28905" lon="-2.36305">
        <ele>79</ele>
        <time>2019-08-18T07:51:56Z</time>
      </trkpt>
      <trkpt lat="47.2891" lon="-2.36302">
        <ele>79</ele>
        <time>2019-08-18T07:51:57Z</time>
      </trkpt>
      <trkpt lat="47.28916" lon="-2.363">
        <ele>79</ele>
        <time>2019-08-18T07:51:58Z</time>
      </trkpt>
      <trkpt lat="47.2893" lon="-2.36295">
        <ele>78</ele>
        <time>2019-08-18T07:52:01Z</time>
      </trkpt>
      <trkpt lat="47.28936" lon="-2.36293">
        <ele>78</ele>
        <time>2019-08-18T07:52:02Z</time>
      </trkpt>
      <trkpt lat="47.2894" lon="-2.36291">
        <ele>77</ele>
        <time>2019-08-18T07:52:03Z</time>
      </trkpt>
      <trkpt lat="47.28947" lon="-2.36284">
        <ele>77</ele>
        <time>2019-08-18T07:52:05Z</time>
      </trkpt>
      <trkpt lat="47.28954" lon="-2.36276">
        <ele>77</ele>
        <time>2019-08-18T07:52:07Z</time>
      </trkpt>
      <trkpt lat="47.28963" lon="-2.36269">
        <ele>77</ele>
        <time>2019-08-18T07:52:09Z</time>
      </trkpt>
      <trkpt lat="47.28968" lon="-2.36267">
        <ele>77</ele>
        <time>2019-08-18T07:52:10Z</time>
      </trkpt>
      <trkpt lat="47.28974" lon="-2.36265">
        <ele>77</ele>
        <time>2019-08-18T07:52:11Z</time>
      </trkpt>
      <trkpt lat="47.28979" lon="-2.36262">
        <ele>77</ele>
        <time>2019-08-18T07:52:12Z</time>
      </trkpt>
      <trkpt lat="47.28985" lon="-2.3626">
        <ele>77</ele>
        <time>2019-08-18T07:52:13Z</time>
      </trkpt>
      <trkpt lat="47.2899" lon="-2.36257">
        <ele>77</ele>
        <time>2019-08-18T07:52:14Z</time>
      </trkpt>
      <trkpt lat="47.28995" lon="-2.36255">
        <ele>77</ele>
        <time>2019-08-18T07:52:15Z</time>
      </trkpt>
      <trkpt lat="47.29" lon="-2.36253">
        <ele>77</ele>
        <time>2019-08-18T07:52:16Z</time>
      </trkpt>
      <trkpt lat="47.29005" lon="-2.3625">
        <ele>77</ele>
        <time>2019-08-18T07:52:17Z</time>
      </trkpt>
      <trkpt lat="47.29011" lon="-2.36248">
        <ele>77</ele>
        <time>2019-08-18T07:52:18Z</time>
      </trkpt>
      <trkpt lat="47.29016" lon="-2.36246">
        <ele>77</ele>
        <time>2019-08-18T07:52:19Z</time>
      </trkpt>
      <trkpt lat="47.29025" lon="-2.36241">
        <ele>77</ele>
        <time>2019-08-18T07:52:21Z</time>
      </trkpt>
      <trkpt lat="47.2903" lon="-2.36238">
        <ele>77</ele>
        <time>2019-08-18T07:52:22Z</time>
      </trkpt>
      <trkpt lat="47.29034" lon="-2.36237">
        <ele>77</ele>
        <time>2019-08-18T07:52:23Z</time>
      </trkpt>
      <trkpt lat="47.29039" lon="-2.36235">
        <ele>77</ele>
        <time>2019-08-18T07:52:24Z</time>
      </trkpt>
      <trkpt lat="47.29044" lon="-2.36232">
        <ele>77</ele>
        <time>2019-08-18T07:52:25Z</time>
      </trkpt>
      <trkpt lat="47.29049" lon="-2.36229">
        <ele>77</ele>
        <time>2019-08-18T07:52:26Z</time>
      </trkpt>
      <trkpt lat="47.29058" lon="-2.36226">
        <ele>77</ele>
        <time>2019-08-18T07:52:28Z</time>
      </trkpt>
      <trkpt lat="47.29063" lon="-2.36223">
        <ele>77</ele>
        <time>2019-08-18T07:52:29Z</time>
      </trkpt>
      <trkpt lat="47.29068" lon="-2.36221">
        <ele>77</ele>
        <time>2019-08-18T07:52:30Z</time>
      </trkpt>
      <trkpt lat="47.29073" lon="-2.36219">
        <ele>77</ele>
        <time>2019-08-18T07:52:31Z</time>
      </trkpt>
      <trkpt lat="47.29078" lon="-2.36217">
        <ele>77</ele>
        <time>2019-08-18T07:52:32Z</time>
      </trkpt>
      <trkpt lat="47.29083" lon="-2.36215">
        <ele>77</ele>
        <time>2019-08-18T07:52:33Z</time>
      </trkpt>
      <trkpt lat="47.29088" lon="-2.36213">
        <ele>77</ele>
        <time>2019-08-18T07:52:34Z</time>
      </trkpt>
      <trkpt lat="47.29093" lon="-2.36211">
        <ele>77</ele>
        <time>2019-08-18T07:52:35Z</time>
      </trkpt>
      <trkpt lat="47.29098" lon="-2.36209">
        <ele>78</ele>
        <time>2019-08-18T07:52:36Z</time>
      </trkpt>
      <trkpt lat="47.29103" lon="-2.36206">
        <ele>78</ele>
        <time>2019-08-18T07:52:37Z</time>
      </trkpt>
      <trkpt lat="47.29108" lon="-2.36203">
        <ele>78</ele>
        <time>2019-08-18T07:52:38Z</time>
      </trkpt>
      <trkpt lat="47.29113" lon="-2.36202">
        <ele>78</ele>
        <time>2019-08-18T07:52:39Z</time>
      </trkpt>
      <trkpt lat="47.29118" lon="-2.36199">
        <ele>78</ele>
        <time>2019-08-18T07:52:40Z</time>
      </trkpt>
      <trkpt lat="47.29123" lon="-2.36197">
        <ele>78</ele>
        <time>2019-08-18T07:52:41Z</time>
      </trkpt>
      <trkpt lat="47.29128" lon="-2.36195">
        <ele>78</ele>
        <time>2019-08-18T07:52:42Z</time>
      </trkpt>
      <trkpt lat="47.29143" lon="-2.36189">
        <ele>79</ele>
        <time>2019-08-18T07:52:45Z</time>
      </trkpt>
      <trkpt lat="47.29148" lon="-2.36187">
        <ele>79</ele>
        <time>2019-08-18T07:52:46Z</time>
      </trkpt>
      <trkpt lat="47.29153" lon="-2.36185">
        <ele>79</ele>
        <time>2019-08-18T07:52:47Z</time>
      </trkpt>
      <trkpt lat="47.29158" lon="-2.36184">
        <ele>79</ele>
        <time>2019-08-18T07:52:48Z</time>
      </trkpt>
      <trkpt lat="47.29162" lon="-2.36182">
        <ele>80</ele>
        <time>2019-08-18T07:52:49Z</time>
      </trkpt>
      <trkpt lat="47.29167" lon="-2.36179">
        <ele>80</ele>
        <time>2019-08-18T07:52:50Z</time>
      </trkpt>
      <trkpt lat="47.29172" lon="-2.36177">
        <ele>80</ele>
        <time>2019-08-18T07:52:51Z</time>
      </trkpt>
      <trkpt lat="47.29177" lon="-2.36175">
        <ele>80</ele>
        <time>2019-08-18T07:52:52Z</time>
      </trkpt>
      <trkpt lat="47.29182" lon="-2.36172">
        <ele>80</ele>
        <time>2019-08-18T07:52:53Z</time>
      </trkpt>
      <trkpt lat="47.29188" lon="-2.3617">
        <ele>80</ele>
        <time>2019-08-18T07:52:54Z</time>
      </trkpt>
      <trkpt lat="47.29193" lon="-2.36167">
        <ele>81</ele>
        <time>2019-08-18T07:52:55Z</time>
      </trkpt>
      <trkpt lat="47.29204" lon="-2.36164">
        <ele>81</ele>
        <time>2019-08-18T07:52:57Z</time>
      </trkpt>
      <trkpt lat="47.29209" lon="-2.36162">
        <ele>81</ele>
        <time>2019-08-18T07:52:58Z</time>
      </trkpt>
      <trkpt lat="47.29214" lon="-2.36159">
        <ele>81</ele>
        <time>2019-08-18T07:52:59Z</time>
      </trkpt>
      <trkpt lat="47.29219" lon="-2.36157">
        <ele>82</ele>
        <time>2019-08-18T07:53:00Z</time>
      </trkpt>
      <trkpt lat="47.29235" lon="-2.36149">
        <ele>81</ele>
        <time>2019-08-18T07:53:03Z</time>
      </trkpt>
      <trkpt lat="47.29241" lon="-2.36148">
        <ele>81</ele>
        <time>2019-08-18T07:53:04Z</time>
      </trkpt>
      <trkpt lat="47.29245" lon="-2.36145">
        <ele>82</ele>
        <time>2019-08-18T07:53:05Z</time>
      </trkpt>
      <trkpt lat="47.29251" lon="-2.36143">
        <ele>81</ele>
        <time>2019-08-18T07:53:06Z</time>
      </trkpt>
      <trkpt lat="47.29256" lon="-2.36141">
        <ele>81</ele>
        <time>2019-08-18T07:53:07Z</time>
      </trkpt>
      <trkpt lat="47.29262" lon="-2.36139">
        <ele>81</ele>
        <time>2019-08-18T07:53:08Z</time>
      </trkpt>
      <trkpt lat="47.29267" lon="-2.36137">
        <ele>81</ele>
        <time>2019-08-18T07:53:09Z</time>
      </trkpt>
      <trkpt lat="47.29272" lon="-2.36134">
        <ele>81</ele>
        <time>2019-08-18T07:53:10Z</time>
      </trkpt>
      <trkpt lat="47.29278" lon="-2.36132">
        <ele>81</ele>
        <time>2019-08-18T07:53:11Z</time>
      </trkpt>
      <trkpt lat="47.29284" lon="-2.36129">
        <ele>81</ele>
        <time>2019-08-18T07:53:12Z</time>
      </trkpt>
      <trkpt lat="47.2929" lon="-2.36127">
        <ele>82</ele>
        <time>2019-08-18T07:53:13Z</time>
      </trkpt>
      <trkpt lat="47.29295" lon="-2.36124">
        <ele>82</ele>
        <time>2019-08-18T07:53:14Z</time>
      </trkpt>
      <trkpt lat="47.293" lon="-2.36121">
        <ele>82</ele>
        <time>2019-08-18T07:53:15Z</time>
      </trkpt>
      <trkpt lat="47.29311" lon="-2.36115">
        <ele>82</ele>
        <time>2019-08-18T07:53:17Z</time>
      </trkpt>
      <trkpt lat="47.29316" lon="-2.36113">
        <ele>82</ele>
        <time>2019-08-18T07:53:18Z</time>
      </trkpt>
      <trkpt lat="47.29322" lon="-2.36109">
        <ele>82</ele>
        <time>2019-08-18T07:53:19Z</time>
      </trkpt>
      <trkpt lat="47.29327" lon="-2.36106">
        <ele>82</ele>
        <time>2019-08-18T07:53:20Z</time>
      </trkpt>
      <trkpt lat="47.29338" lon="-2.36099">
        <ele>83</ele>
        <time>2019-08-18T07:53:22Z</time>
      </trkpt>
      <trkpt lat="47.29343" lon="-2.36095">
        <ele>83</ele>
        <time>2019-08-18T07:53:23Z</time>
      </trkpt>
      <trkpt lat="47.29349" lon="-2.36091">
        <ele>82</ele>
        <time>2019-08-18T07:53:24Z</time>
      </trkpt>
      <trkpt lat="47.29354" lon="-2.36087">
        <ele>82</ele>
        <time>2019-08-18T07:53:25Z</time>
      </trkpt>
      <trkpt lat="47.29359" lon="-2.36083">
        <ele>82</ele>
        <time>2019-08-18T07:53:26Z</time>
      </trkpt>
      <trkpt lat="47.29365" lon="-2.36079">
        <ele>83</ele>
        <time>2019-08-18T07:53:27Z</time>
      </trkpt>
      <trkpt lat="47.29369" lon="-2.36075">
        <ele>83</ele>
        <time>2019-08-18T07:53:28Z</time>
      </trkpt>
      <trkpt lat="47.29374" lon="-2.36071">
        <ele>83</ele>
        <time>2019-08-18T07:53:29Z</time>
      </trkpt>
      <trkpt lat="47.29379" lon="-2.36066">
        <ele>82</ele>
        <time>2019-08-18T07:53:30Z</time>
      </trkpt>
      <trkpt lat="47.29384" lon="-2.36062">
        <ele>82</ele>
        <time>2019-08-18T07:53:31Z</time>
      </trkpt>
      <trkpt lat="47.29393" lon="-2.36054">
        <ele>83</ele>
        <time>2019-08-18T07:53:33Z</time>
      </trkpt>
      <trkpt lat="47.29402" lon="-2.36046">
        <ele>83</ele>
        <time>2019-08-18T07:53:35Z</time>
      </trkpt>
      <trkpt lat="47.29406" lon="-2.36042">
        <ele>82</ele>
        <time>2019-08-18T07:53:36Z</time>
      </trkpt>
      <trkpt lat="47.29411" lon="-2.36038">
        <ele>82</ele>
        <time>2019-08-18T07:53:37Z</time>
      </trkpt>
      <trkpt lat="47.2942" lon="-2.3603">
        <ele>82</ele>
        <time>2019-08-18T07:53:39Z</time>
      </trkpt>
      <trkpt lat="47.29429" lon="-2.36022">
        <ele>83</ele>
        <time>2019-08-18T07:53:41Z</time>
      </trkpt>
      <trkpt lat="47.29433" lon="-2.36018">
        <ele>83</ele>
        <time>2019-08-18T07:53:42Z</time>
      </trkpt>
      <trkpt lat="47.29441" lon="-2.36011">
        <ele>84</ele>
        <time>2019-08-18T07:53:44Z</time>
      </trkpt>
      <trkpt lat="47.29445" lon="-2.36008">
        <ele>83</ele>
        <time>2019-08-18T07:53:45Z</time>
      </trkpt>
      <trkpt lat="47.29448" lon="-2.36005">
        <ele>83</ele>
        <time>2019-08-18T07:53:46Z</time>
      </trkpt>
      <trkpt lat="47.29456" lon="-2.35992">
        <ele>84</ele>
        <time>2019-08-18T07:53:49Z</time>
      </trkpt>
      <trkpt lat="47.29464" lon="-2.35979">
        <ele>85</ele>
        <time>2019-08-18T07:53:52Z</time>
      </trkpt>
      <trkpt lat="47.29472" lon="-2.35977">
        <ele>85</ele>
        <time>2019-08-18T07:53:54Z</time>
      </trkpt>
      <trkpt lat="47.29477" lon="-2.35974">
        <ele>86</ele>
        <time>2019-08-18T07:53:55Z</time>
      </trkpt>
      <trkpt lat="47.29492" lon="-2.35962">
        <ele>87</ele>
        <time>2019-08-18T07:53:58Z</time>
      </trkpt>
      <trkpt lat="47.29498" lon="-2.35957">
        <ele>87</ele>
        <time>2019-08-18T07:53:59Z</time>
      </trkpt>
      <trkpt lat="47.29508" lon="-2.35949">
        <ele>88</ele>
        <time>2019-08-18T07:54:01Z</time>
      </trkpt>
      <trkpt lat="47.29514" lon="-2.35946">
        <ele>87</ele>
        <time>2019-08-18T07:54:02Z</time>
      </trkpt>
      <trkpt lat="47.29524" lon="-2.35939">
        <ele>88</ele>
        <time>2019-08-18T07:54:04Z</time>
      </trkpt>
      <trkpt lat="47.29529" lon="-2.35936">
        <ele>88</ele>
        <time>2019-08-18T07:54:05Z</time>
      </trkpt>
      <trkpt lat="47.29535" lon="-2.35932">
        <ele>88</ele>
        <time>2019-08-18T07:54:06Z</time>
      </trkpt>
      <trkpt lat="47.29541" lon="-2.35929">
        <ele>88</ele>
        <time>2019-08-18T07:54:07Z</time>
      </trkpt>
      <trkpt lat="47.29547" lon="-2.35926">
        <ele>88</ele>
        <time>2019-08-18T07:54:08Z</time>
      </trkpt>
      <trkpt lat="47.29553" lon="-2.35923">
        <ele>88</ele>
        <time>2019-08-18T07:54:09Z</time>
      </trkpt>
      <trkpt lat="47.29559" lon="-2.3592">
        <ele>89</ele>
        <time>2019-08-18T07:54:10Z</time>
      </trkpt>
      <trkpt lat="47.29564" lon="-2.35917">
        <ele>89</ele>
        <time>2019-08-18T07:54:11Z</time>
      </trkpt>
      <trkpt lat="47.2957" lon="-2.35914">
        <ele>88</ele>
        <time>2019-08-18T07:54:12Z</time>
      </trkpt>
      <trkpt lat="47.29575" lon="-2.35911">
        <ele>88</ele>
        <time>2019-08-18T07:54:13Z</time>
      </trkpt>
      <trkpt lat="47.29586" lon="-2.35905">
        <ele>88</ele>
        <time>2019-08-18T07:54:15Z</time>
      </trkpt>
      <trkpt lat="47.29592" lon="-2.35901">
        <ele>88</ele>
        <time>2019-08-18T07:54:16Z</time>
      </trkpt>
      <trkpt lat="47.29597" lon="-2.35897">
        <ele>88</ele>
        <time>2019-08-18T07:54:17Z</time>
      </trkpt>
      <trkpt lat="47.29602" lon="-2.35893">
        <ele>88</ele>
        <time>2019-08-18T07:54:18Z</time>
      </trkpt>
      <trkpt lat="47.29607" lon="-2.3589">
        <ele>88</ele>
        <time>2019-08-18T07:54:19Z</time>
      </trkpt>
      <trkpt lat="47.29612" lon="-2.35887">
        <ele>88</ele>
        <time>2019-08-18T07:54:20Z</time>
      </trkpt>
      <trkpt lat="47.29623" lon="-2.35882">
        <ele>88</ele>
        <time>2019-08-18T07:54:22Z</time>
      </trkpt>
      <trkpt lat="47.29629" lon="-2.35879">
        <ele>89</ele>
        <time>2019-08-18T07:54:23Z</time>
      </trkpt>
      <trkpt lat="47.29634" lon="-2.35876">
        <ele>89</ele>
        <time>2019-08-18T07:54:24Z</time>
      </trkpt>
      <trkpt lat="47.29639" lon="-2.35873">
        <ele>89</ele>
        <time>2019-08-18T07:54:25Z</time>
      </trkpt>
      <trkpt lat="47.29644" lon="-2.35866">
        <ele>89</ele>
        <time>2019-08-18T07:54:26Z</time>
      </trkpt>
      <trkpt lat="47.29653" lon="-2.35846">
        <ele>88</ele>
        <time>2019-08-18T07:54:29Z</time>
      </trkpt>
      <trkpt lat="47.29657" lon="-2.35842">
        <ele>88</ele>
        <time>2019-08-18T07:54:30Z</time>
      </trkpt>
      <trkpt lat="47.29662" lon="-2.35841">
        <ele>88</ele>
        <time>2019-08-18T07:54:31Z</time>
      </trkpt>
      <trkpt lat="47.29668" lon="-2.35841">
        <ele>87</ele>
        <time>2019-08-18T07:54:32Z</time>
      </trkpt>
      <trkpt lat="47.29674" lon="-2.35841">
        <ele>87</ele>
        <time>2019-08-18T07:54:33Z</time>
      </trkpt>
      <trkpt lat="47.29679" lon="-2.35841">
        <ele>86</ele>
        <time>2019-08-18T07:54:34Z</time>
      </trkpt>
      <trkpt lat="47.29686" lon="-2.35841">
        <ele>87</ele>
        <time>2019-08-18T07:54:35Z</time>
      </trkpt>
      <trkpt lat="47.29705" lon="-2.35835">
        <ele>87</ele>
        <time>2019-08-18T07:54:38Z</time>
      </trkpt>
      <trkpt lat="47.2971" lon="-2.35831">
        <ele>87</ele>
        <time>2019-08-18T07:54:39Z</time>
      </trkpt>
      <trkpt lat="47.29716" lon="-2.35828">
        <ele>87</ele>
        <time>2019-08-18T07:54:40Z</time>
      </trkpt>
      <trkpt lat="47.29731" lon="-2.35819">
        <ele>87</ele>
        <time>2019-08-18T07:54:43Z</time>
      </trkpt>
      <trkpt lat="47.29736" lon="-2.35815">
        <ele>87</ele>
        <time>2019-08-18T07:54:44Z</time>
      </trkpt>
      <trkpt lat="47.29741" lon="-2.35813">
        <ele>87</ele>
        <time>2019-08-18T07:54:45Z</time>
      </trkpt>
      <trkpt lat="47.29746" lon="-2.3581">
        <ele>87</ele>
        <time>2019-08-18T07:54:46Z</time>
      </trkpt>
      <trkpt lat="47.29756" lon="-2.35807">
        <ele>87</ele>
        <time>2019-08-18T07:54:48Z</time>
      </trkpt>
      <trkpt lat="47.29761" lon="-2.35805">
        <ele>87</ele>
        <time>2019-08-18T07:54:49Z</time>
      </trkpt>
      <trkpt lat="47.29765" lon="-2.35803">
        <ele>87</ele>
        <time>2019-08-18T07:54:50Z</time>
      </trkpt>
      <trkpt lat="47.29771" lon="-2.35801">
        <ele>87</ele>
        <time>2019-08-18T07:54:51Z</time>
      </trkpt>
      <trkpt lat="47.29775" lon="-2.35799">
        <ele>86</ele>
        <time>2019-08-18T07:54:52Z</time>
      </trkpt>
      <trkpt lat="47.2978" lon="-2.35797">
        <ele>86</ele>
        <time>2019-08-18T07:54:53Z</time>
      </trkpt>
      <trkpt lat="47.2979" lon="-2.35794">
        <ele>86</ele>
        <time>2019-08-18T07:54:55Z</time>
      </trkpt>
      <trkpt lat="47.29795" lon="-2.35792">
        <ele>86</ele>
        <time>2019-08-18T07:54:56Z</time>
      </trkpt>
      <trkpt lat="47.29801" lon="-2.3579">
        <ele>86</ele>
        <time>2019-08-18T07:54:57Z</time>
      </trkpt>
      <trkpt lat="47.29806" lon="-2.35787">
        <ele>85</ele>
        <time>2019-08-18T07:54:58Z</time>
      </trkpt>
      <trkpt lat="47.29812" lon="-2.35786">
        <ele>85</ele>
        <time>2019-08-18T07:54:59Z</time>
      </trkpt>
      <trkpt lat="47.29817" lon="-2.35784">
        <ele>85</ele>
        <time>2019-08-18T07:55:00Z</time>
      </trkpt>
      <trkpt lat="47.29828" lon="-2.35779">
        <ele>84</ele>
        <time>2019-08-18T07:55:02Z</time>
      </trkpt>
      <trkpt lat="47.29834" lon="-2.35777">
        <ele>84</ele>
        <time>2019-08-18T07:55:03Z</time>
      </trkpt>
      <trkpt lat="47.29841" lon="-2.35775">
        <ele>83</ele>
        <time>2019-08-18T07:55:04Z</time>
      </trkpt>
      <trkpt lat="47.29847" lon="-2.35773">
        <ele>83</ele>
        <time>2019-08-18T07:55:05Z</time>
      </trkpt>
      <trkpt lat="47.29854" lon="-2.35771">
        <ele>83</ele>
        <time>2019-08-18T07:55:06Z</time>
      </trkpt>
      <trkpt lat="47.29866" lon="-2.35767">
        <ele>83</ele>
        <time>2019-08-18T07:55:08Z</time>
      </trkpt>
      <trkpt lat="47.29879" lon="-2.35762">
        <ele>83</ele>
        <time>2019-08-18T07:55:10Z</time>
      </trkpt>
      <trkpt lat="47.29888" lon="-2.35758">
        <ele>83</ele>
        <time>2019-08-18T07:55:12Z</time>
      </trkpt>
      <trkpt lat="47.29893" lon="-2.35747">
        <ele>84</ele>
        <time>2019-08-18T07:55:15Z</time>
      </trkpt>
      <trkpt lat="47.29891" lon="-2.35737">
        <ele>84</ele>
        <time>2019-08-18T07:55:17Z</time>
      </trkpt>
      <trkpt lat="47.29886" lon="-2.3572">
        <ele>85</ele>
        <time>2019-08-18T07:55:20Z</time>
      </trkpt>
      <trkpt lat="47.29885" lon="-2.35713">
        <ele>85</ele>
        <time>2019-08-18T07:55:21Z</time>
      </trkpt>
      <trkpt lat="47.29884" lon="-2.35707">
        <ele>84</ele>
        <time>2019-08-18T07:55:22Z</time>
      </trkpt>
      <trkpt lat="47.29882" lon="-2.357">
        <ele>84</ele>
        <time>2019-08-18T07:55:23Z</time>
      </trkpt>
      <trkpt lat="47.29877" lon="-2.35677">
        <ele>84</ele>
        <time>2019-08-18T07:55:26Z</time>
      </trkpt>
      <trkpt lat="47.29874" lon="-2.35663">
        <ele>84</ele>
        <time>2019-08-18T07:55:28Z</time>
      </trkpt>
      <trkpt lat="47.29873" lon="-2.35656">
        <ele>84</ele>
        <time>2019-08-18T07:55:29Z</time>
      </trkpt>
      <trkpt lat="47.29872" lon="-2.35649">
        <ele>84</ele>
        <time>2019-08-18T07:55:30Z</time>
      </trkpt>
      <trkpt lat="47.29871" lon="-2.35641">
        <ele>84</ele>
        <time>2019-08-18T07:55:31Z</time>
      </trkpt>
      <trkpt lat="47.2987" lon="-2.35634">
        <ele>84</ele>
        <time>2019-08-18T07:55:32Z</time>
      </trkpt>
      <trkpt lat="47.29868" lon="-2.35626">
        <ele>84</ele>
        <time>2019-08-18T07:55:33Z</time>
      </trkpt>
      <trkpt lat="47.29866" lon="-2.35619">
        <ele>85</ele>
        <time>2019-08-18T07:55:34Z</time>
      </trkpt>
      <trkpt lat="47.29864" lon="-2.3561">
        <ele>84</ele>
        <time>2019-08-18T07:55:35Z</time>
      </trkpt>
      <trkpt lat="47.29863" lon="-2.35602">
        <ele>84</ele>
        <time>2019-08-18T07:55:36Z</time>
      </trkpt>
      <trkpt lat="47.2986" lon="-2.35594">
        <ele>84</ele>
        <time>2019-08-18T07:55:37Z</time>
      </trkpt>
      <trkpt lat="47.29853" lon="-2.35569">
        <ele>84</ele>
        <time>2019-08-18T07:55:40Z</time>
      </trkpt>
      <trkpt lat="47.29851" lon="-2.35562">
        <ele>84</ele>
        <time>2019-08-18T07:55:41Z</time>
      </trkpt>
      <trkpt lat="47.29849" lon="-2.35555">
        <ele>84</ele>
        <time>2019-08-18T07:55:42Z</time>
      </trkpt>
      <trkpt lat="47.29847" lon="-2.35547">
        <ele>84</ele>
        <time>2019-08-18T07:55:43Z</time>
      </trkpt>
      <trkpt lat="47.29845" lon="-2.35539">
        <ele>84</ele>
        <time>2019-08-18T07:55:44Z</time>
      </trkpt>
      <trkpt lat="47.29843" lon="-2.35531">
        <ele>84</ele>
        <time>2019-08-18T07:55:45Z</time>
      </trkpt>
      <trkpt lat="47.29841" lon="-2.35524">
        <ele>84</ele>
        <time>2019-08-18T07:55:46Z</time>
      </trkpt>
      <trkpt lat="47.29839" lon="-2.35516">
        <ele>84</ele>
        <time>2019-08-18T07:55:47Z</time>
      </trkpt>
      <trkpt lat="47.29837" lon="-2.35508">
        <ele>84</ele>
        <time>2019-08-18T07:55:48Z</time>
      </trkpt>
      <trkpt lat="47.29835" lon="-2.355">
        <ele>83</ele>
        <time>2019-08-18T07:55:49Z</time>
      </trkpt>
      <trkpt lat="47.29833" lon="-2.35492">
        <ele>84</ele>
        <time>2019-08-18T07:55:50Z</time>
      </trkpt>
      <trkpt lat="47.29831" lon="-2.35485">
        <ele>84</ele>
        <time>2019-08-18T07:55:51Z</time>
      </trkpt>
      <trkpt lat="47.2983" lon="-2.35457">
        <ele>84</ele>
        <time>2019-08-18T07:55:55Z</time>
      </trkpt>
      <trkpt lat="47.29832" lon="-2.35451">
        <ele>84</ele>
        <time>2019-08-18T07:55:56Z</time>
      </trkpt>
      <trkpt lat="47.29837" lon="-2.35447">
        <ele>84</ele>
        <time>2019-08-18T07:55:57Z</time>
      </trkpt>
      <trkpt lat="47.29843" lon="-2.35441">
        <ele>85</ele>
        <time>2019-08-18T07:55:58Z</time>
      </trkpt>
      <trkpt lat="47.29848" lon="-2.35436">
        <ele>85</ele>
        <time>2019-08-18T07:55:59Z</time>
      </trkpt>
      <trkpt lat="47.29853" lon="-2.35431">
        <ele>86</ele>
        <time>2019-08-18T07:56:00Z</time>
      </trkpt>
      <trkpt lat="47.29859" lon="-2.35425">
        <ele>86</ele>
        <time>2019-08-18T07:56:01Z</time>
      </trkpt>
      <trkpt lat="47.29864" lon="-2.3542">
        <ele>86</ele>
        <time>2019-08-18T07:56:02Z</time>
      </trkpt>
      <trkpt lat="47.29869" lon="-2.35415">
        <ele>86</ele>
        <time>2019-08-18T07:56:03Z</time>
      </trkpt>
      <trkpt lat="47.29884" lon="-2.354">
        <ele>86</ele>
        <time>2019-08-18T07:56:06Z</time>
      </trkpt>
      <trkpt lat="47.29889" lon="-2.35395">
        <ele>86</ele>
        <time>2019-08-18T07:56:07Z</time>
      </trkpt>
      <trkpt lat="47.29894" lon="-2.3539">
        <ele>86</ele>
        <time>2019-08-18T07:56:08Z</time>
      </trkpt>
      <trkpt lat="47.29899" lon="-2.35386">
        <ele>86</ele>
        <time>2019-08-18T07:56:09Z</time>
      </trkpt>
      <trkpt lat="47.29903" lon="-2.3538">
        <ele>85</ele>
        <time>2019-08-18T07:56:10Z</time>
      </trkpt>
      <trkpt lat="47.29907" lon="-2.35376">
        <ele>85</ele>
        <time>2019-08-18T07:56:11Z</time>
      </trkpt>
      <trkpt lat="47.29911" lon="-2.35371">
        <ele>84</ele>
        <time>2019-08-18T07:56:12Z</time>
      </trkpt>
      <trkpt lat="47.29915" lon="-2.35366">
        <ele>84</ele>
        <time>2019-08-18T07:56:13Z</time>
      </trkpt>
      <trkpt lat="47.29919" lon="-2.35361">
        <ele>84</ele>
        <time>2019-08-18T07:56:14Z</time>
      </trkpt>
      <trkpt lat="47.29922" lon="-2.35357">
        <ele>83</ele>
        <time>2019-08-18T07:56:15Z</time>
      </trkpt>
      <trkpt lat="47.29926" lon="-2.35352">
        <ele>83</ele>
        <time>2019-08-18T07:56:16Z</time>
      </trkpt>
      <trkpt lat="47.2993" lon="-2.35348">
        <ele>83</ele>
        <time>2019-08-18T07:56:17Z</time>
      </trkpt>
      <trkpt lat="47.29934" lon="-2.35343">
        <ele>83</ele>
        <time>2019-08-18T07:56:18Z</time>
      </trkpt>
      <trkpt lat="47.29938" lon="-2.35337">
        <ele>83</ele>
        <time>2019-08-18T07:56:19Z</time>
      </trkpt>
      <trkpt lat="47.29942" lon="-2.35331">
        <ele>83</ele>
        <time>2019-08-18T07:56:20Z</time>
      </trkpt>
      <trkpt lat="47.29947" lon="-2.35324">
        <ele>82</ele>
        <time>2019-08-18T07:56:21Z</time>
      </trkpt>
      <trkpt lat="47.29951" lon="-2.35319">
        <ele>82</ele>
        <time>2019-08-18T07:56:22Z</time>
      </trkpt>
      <trkpt lat="47.29956" lon="-2.35313">
        <ele>82</ele>
        <time>2019-08-18T07:56:23Z</time>
      </trkpt>
      <trkpt lat="47.2996" lon="-2.35308">
        <ele>82</ele>
        <time>2019-08-18T07:56:24Z</time>
      </trkpt>
      <trkpt lat="47.29964" lon="-2.35303">
        <ele>82</ele>
        <time>2019-08-18T07:56:25Z</time>
      </trkpt>
      <trkpt lat="47.29968" lon="-2.35297">
        <ele>82</ele>
        <time>2019-08-18T07:56:26Z</time>
      </trkpt>
      <trkpt lat="47.29971" lon="-2.35292">
        <ele>82</ele>
        <time>2019-08-18T07:56:27Z</time>
      </trkpt>
      <trkpt lat="47.29983" lon="-2.35278">
        <ele>82</ele>
        <time>2019-08-18T07:56:30Z</time>
      </trkpt>
      <trkpt lat="47.29987" lon="-2.35273">
        <ele>81</ele>
        <time>2019-08-18T07:56:31Z</time>
      </trkpt>
      <trkpt lat="47.29991" lon="-2.3527">
        <ele>82</ele>
        <time>2019-08-18T07:56:32Z</time>
      </trkpt>
      <trkpt lat="47.29995" lon="-2.35266">
        <ele>81</ele>
        <time>2019-08-18T07:56:33Z</time>
      </trkpt>
      <trkpt lat="47.30001" lon="-2.35259">
        <ele>80</ele>
        <time>2019-08-18T07:56:35Z</time>
      </trkpt>
      <trkpt lat="47.30011" lon="-2.35256">
        <ele>80</ele>
        <time>2019-08-18T07:56:38Z</time>
      </trkpt>
      <trkpt lat="47.30014" lon="-2.35255">
        <ele>80</ele>
        <time>2019-08-18T07:56:39Z</time>
      </trkpt>
      <trkpt lat="47.30016" lon="-2.35254">
        <ele>80</ele>
        <time>2019-08-18T07:56:40Z</time>
      </trkpt>
      <trkpt lat="47.30021" lon="-2.35249">
        <ele>81</ele>
        <time>2019-08-18T07:56:43Z</time>
      </trkpt>
      <trkpt lat="47.30027" lon="-2.35248">
        <ele>81</ele>
        <time>2019-08-18T07:56:47Z</time>
      </trkpt>
      <trkpt lat="47.30037" lon="-2.35243">
        <ele>81</ele>
        <time>2019-08-18T07:56:51Z</time>
      </trkpt>
      <trkpt lat="47.30044" lon="-2.35238">
        <ele>81</ele>
        <time>2019-08-18T07:56:53Z</time>
      </trkpt>
      <trkpt lat="47.30056" lon="-2.35234">
        <ele>81</ele>
        <time>2019-08-18T07:56:56Z</time>
      </trkpt>
      <trkpt lat="47.3006" lon="-2.35231">
        <ele>81</ele>
        <time>2019-08-18T07:56:57Z</time>
      </trkpt>
      <trkpt lat="47.30068" lon="-2.35226">
        <ele>82</ele>
        <time>2019-08-18T07:56:59Z</time>
      </trkpt>
      <trkpt lat="47.30074" lon="-2.35221">
        <ele>82</ele>
        <time>2019-08-18T07:57:01Z</time>
      </trkpt>
      <trkpt lat="47.30082" lon="-2.35219">
        <ele>82</ele>
        <time>2019-08-18T07:57:03Z</time>
      </trkpt>
      <trkpt lat="47.30092" lon="-2.35215">
        <ele>82</ele>
        <time>2019-08-18T07:57:05Z</time>
      </trkpt>
      <trkpt lat="47.30097" lon="-2.35213">
        <ele>82</ele>
        <time>2019-08-18T07:57:06Z</time>
      </trkpt>
      <trkpt lat="47.30105" lon="-2.35208">
        <ele>82</ele>
        <time>2019-08-18T07:57:08Z</time>
      </trkpt>
      <trkpt lat="47.30113" lon="-2.35203">
        <ele>81</ele>
        <time>2019-08-18T07:57:10Z</time>
      </trkpt>
      <trkpt lat="47.30118" lon="-2.352">
        <ele>81</ele>
        <time>2019-08-18T07:57:11Z</time>
      </trkpt>
      <trkpt lat="47.30123" lon="-2.35198">
        <ele>81</ele>
        <time>2019-08-18T07:57:12Z</time>
      </trkpt>
      <trkpt lat="47.30131" lon="-2.35196">
        <ele>80</ele>
        <time>2019-08-18T07:57:14Z</time>
      </trkpt>
      <trkpt lat="47.30136" lon="-2.35195">
        <ele>81</ele>
        <time>2019-08-18T07:57:15Z</time>
      </trkpt>
      <trkpt lat="47.30146" lon="-2.35196">
        <ele>81</ele>
        <time>2019-08-18T07:57:18Z</time>
      </trkpt>
      <trkpt lat="47.30156" lon="-2.35188">
        <ele>82</ele>
        <time>2019-08-18T07:57:22Z</time>
      </trkpt>
      <trkpt lat="47.30164" lon="-2.35184">
        <ele>83</ele>
        <time>2019-08-18T07:57:23Z</time>
      </trkpt>
      <trkpt lat="47.3017" lon="-2.35182">
        <ele>83</ele>
        <time>2019-08-18T07:57:24Z</time>
      </trkpt>
      <trkpt lat="47.30175" lon="-2.3518">
        <ele>83</ele>
        <time>2019-08-18T07:57:25Z</time>
      </trkpt>
      <trkpt lat="47.30184" lon="-2.35177">
        <ele>83</ele>
        <time>2019-08-18T07:57:27Z</time>
      </trkpt>
      <trkpt lat="47.30188" lon="-2.35176">
        <ele>83</ele>
        <time>2019-08-18T07:57:28Z</time>
      </trkpt>
      <trkpt lat="47.30192" lon="-2.35175">
        <ele>83</ele>
        <time>2019-08-18T07:57:29Z</time>
      </trkpt>
      <trkpt lat="47.30196" lon="-2.35173">
        <ele>83</ele>
        <time>2019-08-18T07:57:30Z</time>
      </trkpt>
      <trkpt lat="47.302" lon="-2.35168">
        <ele>83</ele>
        <time>2019-08-18T07:57:31Z</time>
      </trkpt>
      <trkpt lat="47.30203" lon="-2.35156">
        <ele>83</ele>
        <time>2019-08-18T07:57:33Z</time>
      </trkpt>
      <trkpt lat="47.30204" lon="-2.35149">
        <ele>83</ele>
        <time>2019-08-18T07:57:34Z</time>
      </trkpt>
      <trkpt lat="47.30204" lon="-2.35135">
        <ele>83</ele>
        <time>2019-08-18T07:57:36Z</time>
      </trkpt>
      <trkpt lat="47.30205" lon="-2.35129">
        <ele>83</ele>
        <time>2019-08-18T07:57:37Z</time>
      </trkpt>
      <trkpt lat="47.30206" lon="-2.35122">
        <ele>82</ele>
        <time>2019-08-18T07:57:38Z</time>
      </trkpt>
      <trkpt lat="47.30207" lon="-2.3511">
        <ele>82</ele>
        <time>2019-08-18T07:57:40Z</time>
      </trkpt>
      <trkpt lat="47.30207" lon="-2.35103">
        <ele>82</ele>
        <time>2019-08-18T07:57:41Z</time>
      </trkpt>
      <trkpt lat="47.30207" lon="-2.35097">
        <ele>82</ele>
        <time>2019-08-18T07:57:42Z</time>
      </trkpt>
      <trkpt lat="47.30207" lon="-2.3509">
        <ele>82</ele>
        <time>2019-08-18T07:57:43Z</time>
      </trkpt>
      <trkpt lat="47.30208" lon="-2.35084">
        <ele>82</ele>
        <time>2019-08-18T07:57:44Z</time>
      </trkpt>
      <trkpt lat="47.30208" lon="-2.35063">
        <ele>82</ele>
        <time>2019-08-18T07:57:47Z</time>
      </trkpt>
      <trkpt lat="47.30208" lon="-2.35055">
        <ele>83</ele>
        <time>2019-08-18T07:57:48Z</time>
      </trkpt>
      <trkpt lat="47.30208" lon="-2.35048">
        <ele>83</ele>
        <time>2019-08-18T07:57:49Z</time>
      </trkpt>
      <trkpt lat="47.30208" lon="-2.35041">
        <ele>83</ele>
        <time>2019-08-18T07:57:50Z</time>
      </trkpt>
      <trkpt lat="47.30208" lon="-2.35034">
        <ele>83</ele>
        <time>2019-08-18T07:57:51Z</time>
      </trkpt>
      <trkpt lat="47.30207" lon="-2.35028">
        <ele>83</ele>
        <time>2019-08-18T07:57:52Z</time>
      </trkpt>
      <trkpt lat="47.30206" lon="-2.35008">
        <ele>83</ele>
        <time>2019-08-18T07:57:55Z</time>
      </trkpt>
      <trkpt lat="47.30205" lon="-2.34996">
        <ele>83</ele>
        <time>2019-08-18T07:57:57Z</time>
      </trkpt>
      <trkpt lat="47.30206" lon="-2.34979">
        <ele>84</ele>
        <time>2019-08-18T07:58:00Z</time>
      </trkpt>
      <trkpt lat="47.30207" lon="-2.34968">
        <ele>84</ele>
        <time>2019-08-18T07:58:02Z</time>
      </trkpt>
      <trkpt lat="47.30207" lon="-2.34957">
        <ele>85</ele>
        <time>2019-08-18T07:58:04Z</time>
      </trkpt>
      <trkpt lat="47.30208" lon="-2.3495">
        <ele>84</ele>
        <time>2019-08-18T07:58:05Z</time>
      </trkpt>
      <trkpt lat="47.30207" lon="-2.34943">
        <ele>85</ele>
        <time>2019-08-18T07:58:06Z</time>
      </trkpt>
      <trkpt lat="47.30207" lon="-2.34937">
        <ele>85</ele>
        <time>2019-08-18T07:58:07Z</time>
      </trkpt>
      <trkpt lat="47.30207" lon="-2.34931">
        <ele>85</ele>
        <time>2019-08-18T07:58:08Z</time>
      </trkpt>
      <trkpt lat="47.30207" lon="-2.34919">
        <ele>85</ele>
        <time>2019-08-18T07:58:10Z</time>
      </trkpt>
      <trkpt lat="47.30211" lon="-2.34907">
        <ele>85</ele>
        <time>2019-08-18T07:58:12Z</time>
      </trkpt>
      <trkpt lat="47.30218" lon="-2.349">
        <ele>86</ele>
        <time>2019-08-18T07:58:14Z</time>
      </trkpt>
      <trkpt lat="47.30222" lon="-2.34896">
        <ele>86</ele>
        <time>2019-08-18T07:58:15Z</time>
      </trkpt>
      <trkpt lat="47.30226" lon="-2.34892">
        <ele>86</ele>
        <time>2019-08-18T07:58:16Z</time>
      </trkpt>
      <trkpt lat="47.3023" lon="-2.34888">
        <ele>86</ele>
        <time>2019-08-18T07:58:17Z</time>
      </trkpt>
      <trkpt lat="47.30241" lon="-2.34878">
        <ele>87</ele>
        <time>2019-08-18T07:58:20Z</time>
      </trkpt>
      <trkpt lat="47.30245" lon="-2.34875">
        <ele>87</ele>
        <time>2019-08-18T07:58:21Z</time>
      </trkpt>
      <trkpt lat="47.30258" lon="-2.34868">
        <ele>87</ele>
        <time>2019-08-18T07:58:24Z</time>
      </trkpt>
      <trkpt lat="47.30263" lon="-2.34866">
        <ele>87</ele>
        <time>2019-08-18T07:58:25Z</time>
      </trkpt>
      <trkpt lat="47.30267" lon="-2.34863">
        <ele>87</ele>
        <time>2019-08-18T07:58:26Z</time>
      </trkpt>
      <trkpt lat="47.30275" lon="-2.3486">
        <ele>87</ele>
        <time>2019-08-18T07:58:28Z</time>
      </trkpt>
      <trkpt lat="47.30284" lon="-2.34855">
        <ele>88</ele>
        <time>2019-08-18T07:58:30Z</time>
      </trkpt>
      <trkpt lat="47.30288" lon="-2.34854">
        <ele>88</ele>
        <time>2019-08-18T07:58:31Z</time>
      </trkpt>
      <trkpt lat="47.30293" lon="-2.3485">
        <ele>88</ele>
        <time>2019-08-18T07:58:32Z</time>
      </trkpt>
      <trkpt lat="47.30297" lon="-2.34845">
        <ele>88</ele>
        <time>2019-08-18T07:58:33Z</time>
      </trkpt>
      <trkpt lat="47.30307" lon="-2.3483">
        <ele>89</ele>
        <time>2019-08-18T07:58:36Z</time>
      </trkpt>
      <trkpt lat="47.30318" lon="-2.34817">
        <ele>89</ele>
        <time>2019-08-18T07:58:39Z</time>
      </trkpt>
      <trkpt lat="47.30323" lon="-2.34806">
        <ele>89</ele>
        <time>2019-08-18T07:58:41Z</time>
      </trkpt>
      <trkpt lat="47.30325" lon="-2.34801">
        <ele>89</ele>
        <time>2019-08-18T07:58:42Z</time>
      </trkpt>
      <trkpt lat="47.30337" lon="-2.34781">
        <ele>89</ele>
        <time>2019-08-18T07:58:46Z</time>
      </trkpt>
      <trkpt lat="47.30341" lon="-2.34777">
        <ele>89</ele>
        <time>2019-08-18T07:58:47Z</time>
      </trkpt>
      <trkpt lat="47.30349" lon="-2.34769">
        <ele>89</ele>
        <time>2019-08-18T07:58:49Z</time>
      </trkpt>
      <trkpt lat="47.30353" lon="-2.34766">
        <ele>89</ele>
        <time>2019-08-18T07:58:50Z</time>
      </trkpt>
      <trkpt lat="47.30362" lon="-2.34761">
        <ele>89</ele>
        <time>2019-08-18T07:58:52Z</time>
      </trkpt>
      <trkpt lat="47.30371" lon="-2.34756">
        <ele>89</ele>
        <time>2019-08-18T07:58:54Z</time>
      </trkpt>
      <trkpt lat="47.30375" lon="-2.34754">
        <ele>89</ele>
        <time>2019-08-18T07:58:55Z</time>
      </trkpt>
      <trkpt lat="47.30387" lon="-2.34746">
        <ele>89</ele>
        <time>2019-08-18T07:58:58Z</time>
      </trkpt>
      <trkpt lat="47.30391" lon="-2.34744">
        <ele>89</ele>
        <time>2019-08-18T07:58:59Z</time>
      </trkpt>
      <trkpt lat="47.30401" lon="-2.34739">
        <ele>89</ele>
        <time>2019-08-18T07:59:01Z</time>
      </trkpt>
      <trkpt lat="47.30405" lon="-2.34735">
        <ele>89</ele>
        <time>2019-08-18T07:59:02Z</time>
      </trkpt>
      <trkpt lat="47.30409" lon="-2.34732">
        <ele>89</ele>
        <time>2019-08-18T07:59:03Z</time>
      </trkpt>
      <trkpt lat="47.30413" lon="-2.34729">
        <ele>89</ele>
        <time>2019-08-18T07:59:04Z</time>
      </trkpt>
      <trkpt lat="47.30418" lon="-2.34725">
        <ele>89</ele>
        <time>2019-08-18T07:59:05Z</time>
      </trkpt>
      <trkpt lat="47.30427" lon="-2.34719">
        <ele>89</ele>
        <time>2019-08-18T07:59:07Z</time>
      </trkpt>
      <trkpt lat="47.30431" lon="-2.34714">
        <ele>89</ele>
        <time>2019-08-18T07:59:08Z</time>
      </trkpt>
      <trkpt lat="47.30435" lon="-2.3471">
        <ele>90</ele>
        <time>2019-08-18T07:59:09Z</time>
      </trkpt>
      <trkpt lat="47.30439" lon="-2.34706">
        <ele>90</ele>
        <time>2019-08-18T07:59:10Z</time>
      </trkpt>
      <trkpt lat="47.30444" lon="-2.34702">
        <ele>89</ele>
        <time>2019-08-18T07:59:11Z</time>
      </trkpt>
      <trkpt lat="47.30453" lon="-2.34692">
        <ele>90</ele>
        <time>2019-08-18T07:59:13Z</time>
      </trkpt>
      <trkpt lat="47.30459" lon="-2.34687">
        <ele>90</ele>
        <time>2019-08-18T07:59:14Z</time>
      </trkpt>
      <trkpt lat="47.30464" lon="-2.34681">
        <ele>90</ele>
        <time>2019-08-18T07:59:15Z</time>
      </trkpt>
      <trkpt lat="47.30469" lon="-2.34676">
        <ele>90</ele>
        <time>2019-08-18T07:59:16Z</time>
      </trkpt>
      <trkpt lat="47.30474" lon="-2.3467">
        <ele>90</ele>
        <time>2019-08-18T07:59:17Z</time>
      </trkpt>
      <trkpt lat="47.30484" lon="-2.3466">
        <ele>90</ele>
        <time>2019-08-18T07:59:19Z</time>
      </trkpt>
      <trkpt lat="47.30488" lon="-2.34655">
        <ele>91</ele>
        <time>2019-08-18T07:59:20Z</time>
      </trkpt>
      <trkpt lat="47.30504" lon="-2.34636">
        <ele>91</ele>
        <time>2019-08-18T07:59:24Z</time>
      </trkpt>
      <trkpt lat="47.30507" lon="-2.34629">
        <ele>91</ele>
        <time>2019-08-18T07:59:25Z</time>
      </trkpt>
      <trkpt lat="47.30511" lon="-2.34624">
        <ele>92</ele>
        <time>2019-08-18T07:59:26Z</time>
      </trkpt>
      <trkpt lat="47.30514" lon="-2.3462">
        <ele>92</ele>
        <time>2019-08-18T07:59:27Z</time>
      </trkpt>
      <trkpt lat="47.30521" lon="-2.34612">
        <ele>93</ele>
        <time>2019-08-18T07:59:29Z</time>
      </trkpt>
      <trkpt lat="47.30528" lon="-2.34603">
        <ele>93</ele>
        <time>2019-08-18T07:59:31Z</time>
      </trkpt>
      <trkpt lat="47.30532" lon="-2.34598">
        <ele>93</ele>
        <time>2019-08-18T07:59:32Z</time>
      </trkpt>
      <trkpt lat="47.30535" lon="-2.34594">
        <ele>93</ele>
        <time>2019-08-18T07:59:33Z</time>
      </trkpt>
      <trkpt lat="47.30538" lon="-2.34589">
        <ele>93</ele>
        <time>2019-08-18T07:59:34Z</time>
      </trkpt>
      <trkpt lat="47.30542" lon="-2.34584">
        <ele>93</ele>
        <time>2019-08-18T07:59:35Z</time>
      </trkpt>
      <trkpt lat="47.30548" lon="-2.34573">
        <ele>93</ele>
        <time>2019-08-18T07:59:37Z</time>
      </trkpt>
      <trkpt lat="47.30553" lon="-2.34566">
        <ele>93</ele>
        <time>2019-08-18T07:59:39Z</time>
      </trkpt>
      <trkpt lat="47.30556" lon="-2.34562">
        <ele>93</ele>
        <time>2019-08-18T07:59:40Z</time>
      </trkpt>
      <trkpt lat="47.30559" lon="-2.34558">
        <ele>93</ele>
        <time>2019-08-18T07:59:42Z</time>
      </trkpt>
      <trkpt lat="47.30563" lon="-2.34552">
        <ele>93</ele>
        <time>2019-08-18T07:59:44Z</time>
      </trkpt>
      <trkpt lat="47.30564" lon="-2.34548">
        <ele>93</ele>
        <time>2019-08-18T07:59:45Z</time>
      </trkpt>
      <trkpt lat="47.30565" lon="-2.34541">
        <ele>94</ele>
        <time>2019-08-18T07:59:47Z</time>
      </trkpt>
      <trkpt lat="47.30561" lon="-2.34534">
        <ele>94</ele>
        <time>2019-08-18T07:59:50Z</time>
      </trkpt>
      <trkpt lat="47.30558" lon="-2.34529">
        <ele>94</ele>
        <time>2019-08-18T07:59:52Z</time>
      </trkpt>
      <trkpt lat="47.30556" lon="-2.34526">
        <ele>94</ele>
        <time>2019-08-18T07:59:53Z</time>
      </trkpt>
      <trkpt lat="47.30554" lon="-2.34523">
        <ele>94</ele>
        <time>2019-08-18T07:59:54Z</time>
      </trkpt>
      <trkpt lat="47.30551" lon="-2.34516">
        <ele>94</ele>
        <time>2019-08-18T07:59:56Z</time>
      </trkpt>
      <trkpt lat="47.30545" lon="-2.34508">
        <ele>94</ele>
        <time>2019-08-18T07:59:58Z</time>
      </trkpt>
      <trkpt lat="47.30537" lon="-2.34494">
        <ele>93</ele>
        <time>2019-08-18T08:00:01Z</time>
      </trkpt>
      <trkpt lat="47.30535" lon="-2.3449">
        <ele>93</ele>
        <time>2019-08-18T08:00:02Z</time>
      </trkpt>
      <trkpt lat="47.30524" lon="-2.34483">
        <ele>94</ele>
        <time>2019-08-18T08:00:05Z</time>
      </trkpt>
      <trkpt lat="47.30516" lon="-2.34474">
        <ele>94</ele>
        <time>2019-08-18T08:00:08Z</time>
      </trkpt>
      <trkpt lat="47.30514" lon="-2.3447">
        <ele>94</ele>
        <time>2019-08-18T08:00:09Z</time>
      </trkpt>
      <trkpt lat="47.30507" lon="-2.34465">
        <ele>95</ele>
        <time>2019-08-18T08:00:11Z</time>
      </trkpt>
      <trkpt lat="47.30504" lon="-2.34453">
        <ele>95</ele>
        <time>2019-08-18T08:00:14Z</time>
      </trkpt>
      <trkpt lat="47.30502" lon="-2.34442">
        <ele>96</ele>
        <time>2019-08-18T08:00:16Z</time>
      </trkpt>
      <trkpt lat="47.305" lon="-2.3443">
        <ele>96</ele>
        <time>2019-08-18T08:00:18Z</time>
      </trkpt>
      <trkpt lat="47.30503" lon="-2.34414">
        <ele>96</ele>
        <time>2019-08-18T08:00:21Z</time>
      </trkpt>
      <trkpt lat="47.30504" lon="-2.34408">
        <ele>96</ele>
        <time>2019-08-18T08:00:22Z</time>
      </trkpt>
      <trkpt lat="47.30506" lon="-2.344">
        <ele>96</ele>
        <time>2019-08-18T08:00:24Z</time>
      </trkpt>
      <trkpt lat="47.30508" lon="-2.34393">
        <ele>97</ele>
        <time>2019-08-18T08:00:26Z</time>
      </trkpt>
      <trkpt lat="47.30508" lon="-2.34388">
        <ele>97</ele>
        <time>2019-08-18T08:00:27Z</time>
      </trkpt>
      <trkpt lat="47.3051" lon="-2.34379">
        <ele>97</ele>
        <time>2019-08-18T08:00:29Z</time>
      </trkpt>
      <trkpt lat="47.30511" lon="-2.34373">
        <ele>97</ele>
        <time>2019-08-18T08:00:30Z</time>
      </trkpt>
      <trkpt lat="47.30512" lon="-2.34361">
        <ele>97</ele>
        <time>2019-08-18T08:00:32Z</time>
      </trkpt>
      <trkpt lat="47.30512" lon="-2.34347">
        <ele>96</ele>
        <time>2019-08-18T08:00:34Z</time>
      </trkpt>
      <trkpt lat="47.30512" lon="-2.34339">
        <ele>95</ele>
        <time>2019-08-18T08:00:35Z</time>
      </trkpt>
      <trkpt lat="47.30511" lon="-2.34333">
        <ele>95</ele>
        <time>2019-08-18T08:00:36Z</time>
      </trkpt>
      <trkpt lat="47.3051" lon="-2.34326">
        <ele>94</ele>
        <time>2019-08-18T08:00:37Z</time>
      </trkpt>
      <trkpt lat="47.30506" lon="-2.34316">
        <ele>94</ele>
        <time>2019-08-18T08:00:39Z</time>
      </trkpt>
      <trkpt lat="47.30504" lon="-2.3431">
        <ele>94</ele>
        <time>2019-08-18T08:00:40Z</time>
      </trkpt>
      <trkpt lat="47.30503" lon="-2.34303">
        <ele>94</ele>
        <time>2019-08-18T08:00:41Z</time>
      </trkpt>
      <trkpt lat="47.30499" lon="-2.34293">
        <ele>93</ele>
        <time>2019-08-18T08:00:43Z</time>
      </trkpt>
      <trkpt lat="47.30493" lon="-2.34283">
        <ele>94</ele>
        <time>2019-08-18T08:00:45Z</time>
      </trkpt>
      <trkpt lat="47.3049" lon="-2.34272">
        <ele>94</ele>
        <time>2019-08-18T08:00:47Z</time>
      </trkpt>
      <trkpt lat="47.3049" lon="-2.34262">
        <ele>95</ele>
        <time>2019-08-18T08:00:49Z</time>
      </trkpt>
      <trkpt lat="47.30493" lon="-2.34252">
        <ele>96</ele>
        <time>2019-08-18T08:00:51Z</time>
      </trkpt>
      <trkpt lat="47.30497" lon="-2.34245">
        <ele>96</ele>
        <time>2019-08-18T08:00:53Z</time>
      </trkpt>
      <trkpt lat="47.30503" lon="-2.34231">
        <ele>96</ele>
        <time>2019-08-18T08:00:56Z</time>
      </trkpt>
      <trkpt lat="47.30506" lon="-2.34221">
        <ele>97</ele>
        <time>2019-08-18T08:00:58Z</time>
      </trkpt>
      <trkpt lat="47.30509" lon="-2.34211">
        <ele>97</ele>
        <time>2019-08-18T08:01:00Z</time>
      </trkpt>
      <trkpt lat="47.30514" lon="-2.342">
        <ele>97</ele>
        <time>2019-08-18T08:01:02Z</time>
      </trkpt>
      <trkpt lat="47.30518" lon="-2.34194">
        <ele>97</ele>
        <time>2019-08-18T08:01:04Z</time>
      </trkpt>
      <trkpt lat="47.30523" lon="-2.34189">
        <ele>98</ele>
        <time>2019-08-18T08:01:06Z</time>
      </trkpt>
      <trkpt lat="47.30531" lon="-2.34184">
        <ele>98</ele>
        <time>2019-08-18T08:01:08Z</time>
      </trkpt>
      <trkpt lat="47.30538" lon="-2.34182">
        <ele>98</ele>
        <time>2019-08-18T08:01:09Z</time>
      </trkpt>
      <trkpt lat="47.30543" lon="-2.34178">
        <ele>97</ele>
        <time>2019-08-18T08:01:10Z</time>
      </trkpt>
      <trkpt lat="47.30548" lon="-2.34175">
        <ele>97</ele>
        <time>2019-08-18T08:01:11Z</time>
      </trkpt>
      <trkpt lat="47.30553" lon="-2.3417">
        <ele>96</ele>
        <time>2019-08-18T08:01:12Z</time>
      </trkpt>
      <trkpt lat="47.30557" lon="-2.34165">
        <ele>95</ele>
        <time>2019-08-18T08:01:13Z</time>
      </trkpt>
      <trkpt lat="47.30561" lon="-2.34158">
        <ele>95</ele>
        <time>2019-08-18T08:01:14Z</time>
      </trkpt>
      <trkpt lat="47.30565" lon="-2.34154">
        <ele>94</ele>
        <time>2019-08-18T08:01:15Z</time>
      </trkpt>
      <trkpt lat="47.3057" lon="-2.34149">
        <ele>94</ele>
        <time>2019-08-18T08:01:16Z</time>
      </trkpt>
      <trkpt lat="47.30574" lon="-2.34145">
        <ele>93</ele>
        <time>2019-08-18T08:01:17Z</time>
      </trkpt>
      <trkpt lat="47.30577" lon="-2.3414">
        <ele>92</ele>
        <time>2019-08-18T08:01:18Z</time>
      </trkpt>
      <trkpt lat="47.30581" lon="-2.34135">
        <ele>92</ele>
        <time>2019-08-18T08:01:19Z</time>
      </trkpt>
      <trkpt lat="47.30584" lon="-2.34129">
        <ele>91</ele>
        <time>2019-08-18T08:01:20Z</time>
      </trkpt>
      <trkpt lat="47.30587" lon="-2.34123">
        <ele>91</ele>
        <time>2019-08-18T08:01:21Z</time>
      </trkpt>
      <trkpt lat="47.30589" lon="-2.34116">
        <ele>90</ele>
        <time>2019-08-18T08:01:22Z</time>
      </trkpt>
      <trkpt lat="47.30592" lon="-2.34109">
        <ele>89</ele>
        <time>2019-08-18T08:01:23Z</time>
      </trkpt>
      <trkpt lat="47.30594" lon="-2.34102">
        <ele>88</ele>
        <time>2019-08-18T08:01:24Z</time>
      </trkpt>
      <trkpt lat="47.30597" lon="-2.34096">
        <ele>87</ele>
        <time>2019-08-18T08:01:25Z</time>
      </trkpt>
      <trkpt lat="47.30599" lon="-2.3409">
        <ele>88</ele>
        <time>2019-08-18T08:01:26Z</time>
      </trkpt>
      <trkpt lat="47.3061" lon="-2.34078">
        <ele>87</ele>
        <time>2019-08-18T08:01:29Z</time>
      </trkpt>
      <trkpt lat="47.30618" lon="-2.34071">
        <ele>87</ele>
        <time>2019-08-18T08:01:31Z</time>
      </trkpt>
      <trkpt lat="47.30622" lon="-2.34069">
        <ele>86</ele>
        <time>2019-08-18T08:01:32Z</time>
      </trkpt>
      <trkpt lat="47.30634" lon="-2.34062">
        <ele>86</ele>
        <time>2019-08-18T08:01:35Z</time>
      </trkpt>
      <trkpt lat="47.30637" lon="-2.3406">
        <ele>86</ele>
        <time>2019-08-18T08:01:36Z</time>
      </trkpt>
      <trkpt lat="47.30641" lon="-2.34058">
        <ele>86</ele>
        <time>2019-08-18T08:01:37Z</time>
      </trkpt>
      <trkpt lat="47.30649" lon="-2.34057">
        <ele>86</ele>
        <time>2019-08-18T08:01:39Z</time>
      </trkpt>
      <trkpt lat="47.30658" lon="-2.34052">
        <ele>86</ele>
        <time>2019-08-18T08:01:42Z</time>
      </trkpt>
      <trkpt lat="47.30664" lon="-2.34046">
        <ele>86</ele>
        <time>2019-08-18T08:01:44Z</time>
      </trkpt>
      <trkpt lat="47.30673" lon="-2.34037">
        <ele>86</ele>
        <time>2019-08-18T08:01:47Z</time>
      </trkpt>
      <trkpt lat="47.30678" lon="-2.34031">
        <ele>86</ele>
        <time>2019-08-18T08:01:49Z</time>
      </trkpt>
      <trkpt lat="47.30684" lon="-2.34027">
        <ele>86</ele>
        <time>2019-08-18T08:01:51Z</time>
      </trkpt>
      <trkpt lat="47.30694" lon="-2.34026">
        <ele>86</ele>
        <time>2019-08-18T08:01:54Z</time>
      </trkpt>
      <trkpt lat="47.30697" lon="-2.34025">
        <ele>86</ele>
        <time>2019-08-18T08:01:55Z</time>
      </trkpt>
      <trkpt lat="47.30703" lon="-2.34024">
        <ele>86</ele>
        <time>2019-08-18T08:01:57Z</time>
      </trkpt>
      <trkpt lat="47.3071" lon="-2.34022">
        <ele>86</ele>
        <time>2019-08-18T08:02:00Z</time>
      </trkpt>
      <trkpt lat="47.30716" lon="-2.34015">
        <ele>87</ele>
        <time>2019-08-18T08:02:03Z</time>
      </trkpt>
      <trkpt lat="47.30718" lon="-2.34005">
        <ele>87</ele>
        <time>2019-08-18T08:02:05Z</time>
      </trkpt>
      <trkpt lat="47.30718" lon="-2.34">
        <ele>87</ele>
        <time>2019-08-18T08:02:06Z</time>
      </trkpt>
      <trkpt lat="47.30721" lon="-2.33991">
        <ele>86</ele>
        <time>2019-08-18T08:02:08Z</time>
      </trkpt>
      <trkpt lat="47.30729" lon="-2.33984">
        <ele>86</ele>
        <time>2019-08-18T08:02:10Z</time>
      </trkpt>
      <trkpt lat="47.30733" lon="-2.33982">
        <ele>86</ele>
        <time>2019-08-18T08:02:11Z</time>
      </trkpt>
      <trkpt lat="47.30738" lon="-2.3398">
        <ele>86</ele>
        <time>2019-08-18T08:02:12Z</time>
      </trkpt>
      <trkpt lat="47.30747" lon="-2.33977">
        <ele>86</ele>
        <time>2019-08-18T08:02:14Z</time>
      </trkpt>
      <trkpt lat="47.30751" lon="-2.33976">
        <ele>86</ele>
        <time>2019-08-18T08:02:15Z</time>
      </trkpt>
      <trkpt lat="47.30756" lon="-2.33974">
        <ele>86</ele>
        <time>2019-08-18T08:02:16Z</time>
      </trkpt>
      <trkpt lat="47.30765" lon="-2.33973">
        <ele>86</ele>
        <time>2019-08-18T08:02:18Z</time>
      </trkpt>
      <trkpt lat="47.30772" lon="-2.33971">
        <ele>86</ele>
        <time>2019-08-18T08:02:20Z</time>
      </trkpt>
      <trkpt lat="47.30785" lon="-2.3397">
        <ele>87</ele>
        <time>2019-08-18T08:02:23Z</time>
      </trkpt>
      <trkpt lat="47.30793" lon="-2.33968">
        <ele>88</ele>
        <time>2019-08-18T08:02:25Z</time>
      </trkpt>
      <trkpt lat="47.30798" lon="-2.33967">
        <ele>88</ele>
        <time>2019-08-18T08:02:26Z</time>
      </trkpt>
      <trkpt lat="47.30814" lon="-2.33962">
        <ele>88</ele>
        <time>2019-08-18T08:02:30Z</time>
      </trkpt>
      <trkpt lat="47.30819" lon="-2.33961">
        <ele>88</ele>
        <time>2019-08-18T08:02:31Z</time>
      </trkpt>
      <trkpt lat="47.30824" lon="-2.3396">
        <ele>88</ele>
        <time>2019-08-18T08:02:32Z</time>
      </trkpt>
      <trkpt lat="47.30829" lon="-2.33958">
        <ele>88</ele>
        <time>2019-08-18T08:02:33Z</time>
      </trkpt>
      <trkpt lat="47.30834" lon="-2.33957">
        <ele>88</ele>
        <time>2019-08-18T08:02:34Z</time>
      </trkpt>
      <trkpt lat="47.30839" lon="-2.33955">
        <ele>88</ele>
        <time>2019-08-18T08:02:35Z</time>
      </trkpt>
      <trkpt lat="47.30844" lon="-2.33954">
        <ele>88</ele>
        <time>2019-08-18T08:02:36Z</time>
      </trkpt>
      <trkpt lat="47.3085" lon="-2.33955">
        <ele>88</ele>
        <time>2019-08-18T08:02:37Z</time>
      </trkpt>
      <trkpt lat="47.30855" lon="-2.33955">
        <ele>87</ele>
        <time>2019-08-18T08:02:38Z</time>
      </trkpt>
      <trkpt lat="47.3086" lon="-2.33955">
        <ele>87</ele>
        <time>2019-08-18T08:02:39Z</time>
      </trkpt>
      <trkpt lat="47.30865" lon="-2.33954">
        <ele>87</ele>
        <time>2019-08-18T08:02:40Z</time>
      </trkpt>
      <trkpt lat="47.30871" lon="-2.33952">
        <ele>87</ele>
        <time>2019-08-18T08:02:41Z</time>
      </trkpt>
      <trkpt lat="47.30887" lon="-2.3395">
        <ele>86</ele>
        <time>2019-08-18T08:02:44Z</time>
      </trkpt>
      <trkpt lat="47.30898" lon="-2.33948">
        <ele>87</ele>
        <time>2019-08-18T08:02:46Z</time>
      </trkpt>
      <trkpt lat="47.30904" lon="-2.33947">
        <ele>87</ele>
        <time>2019-08-18T08:02:47Z</time>
      </trkpt>
      <trkpt lat="47.30915" lon="-2.33948">
        <ele>87</ele>
        <time>2019-08-18T08:02:49Z</time>
      </trkpt>
      <trkpt lat="47.30926" lon="-2.3395">
        <ele>87</ele>
        <time>2019-08-18T08:02:51Z</time>
      </trkpt>
      <trkpt lat="47.30931" lon="-2.33951">
        <ele>87</ele>
        <time>2019-08-18T08:02:52Z</time>
      </trkpt>
      <trkpt lat="47.30942" lon="-2.33952">
        <ele>86</ele>
        <time>2019-08-18T08:02:54Z</time>
      </trkpt>
      <trkpt lat="47.30947" lon="-2.33954">
        <ele>86</ele>
        <time>2019-08-18T08:02:55Z</time>
      </trkpt>
      <trkpt lat="47.30953" lon="-2.33954">
        <ele>86</ele>
        <time>2019-08-18T08:02:56Z</time>
      </trkpt>
      <trkpt lat="47.30959" lon="-2.33955">
        <ele>86</ele>
        <time>2019-08-18T08:02:57Z</time>
      </trkpt>
      <trkpt lat="47.30965" lon="-2.33956">
        <ele>86</ele>
        <time>2019-08-18T08:02:58Z</time>
      </trkpt>
      <trkpt lat="47.3097" lon="-2.33956">
        <ele>85</ele>
        <time>2019-08-18T08:02:59Z</time>
      </trkpt>
      <trkpt lat="47.30975" lon="-2.33957">
        <ele>85</ele>
        <time>2019-08-18T08:03:00Z</time>
      </trkpt>
      <trkpt lat="47.30981" lon="-2.33956">
        <ele>85</ele>
        <time>2019-08-18T08:03:01Z</time>
      </trkpt>
      <trkpt lat="47.30992" lon="-2.33956">
        <ele>85</ele>
        <time>2019-08-18T08:03:03Z</time>
      </trkpt>
      <trkpt lat="47.30997" lon="-2.33955">
        <ele>85</ele>
        <time>2019-08-18T08:03:04Z</time>
      </trkpt>
      <trkpt lat="47.31009" lon="-2.33954">
        <ele>85</ele>
        <time>2019-08-18T08:03:06Z</time>
      </trkpt>
      <trkpt lat="47.31021" lon="-2.33953">
        <ele>84</ele>
        <time>2019-08-18T08:03:08Z</time>
      </trkpt>
      <trkpt lat="47.31027" lon="-2.33952">
        <ele>84</ele>
        <time>2019-08-18T08:03:09Z</time>
      </trkpt>
      <trkpt lat="47.31033" lon="-2.33951">
        <ele>84</ele>
        <time>2019-08-18T08:03:10Z</time>
      </trkpt>
      <trkpt lat="47.31057" lon="-2.33952">
        <ele>85</ele>
        <time>2019-08-18T08:03:15Z</time>
      </trkpt>
      <trkpt lat="47.31061" lon="-2.33964">
        <ele>85</ele>
        <time>2019-08-18T08:03:17Z</time>
      </trkpt>
      <trkpt lat="47.31063" lon="-2.33979">
        <ele>84</ele>
        <time>2019-08-18T08:03:19Z</time>
      </trkpt>
      <trkpt lat="47.31063" lon="-2.33986">
        <ele>84</ele>
        <time>2019-08-18T08:03:20Z</time>
      </trkpt>
      <trkpt lat="47.31063" lon="-2.33994">
        <ele>84</ele>
        <time>2019-08-18T08:03:21Z</time>
      </trkpt>
      <trkpt lat="47.31064" lon="-2.34002">
        <ele>83</ele>
        <time>2019-08-18T08:03:22Z</time>
      </trkpt>
      <trkpt lat="47.31064" lon="-2.3401">
        <ele>83</ele>
        <time>2019-08-18T08:03:23Z</time>
      </trkpt>
      <trkpt lat="47.31065" lon="-2.34019">
        <ele>83</ele>
        <time>2019-08-18T08:03:24Z</time>
      </trkpt>
      <trkpt lat="47.31066" lon="-2.34027">
        <ele>83</ele>
        <time>2019-08-18T08:03:25Z</time>
      </trkpt>
      <trkpt lat="47.31066" lon="-2.34035">
        <ele>83</ele>
        <time>2019-08-18T08:03:26Z</time>
      </trkpt>
      <trkpt lat="47.31067" lon="-2.34043">
        <ele>83</ele>
        <time>2019-08-18T08:03:27Z</time>
      </trkpt>
      <trkpt lat="47.31072" lon="-2.34069">
        <ele>83</ele>
        <time>2019-08-18T08:03:30Z</time>
      </trkpt>
      <trkpt lat="47.31074" lon="-2.34078">
        <ele>83</ele>
        <time>2019-08-18T08:03:31Z</time>
      </trkpt>
      <trkpt lat="47.31079" lon="-2.34095">
        <ele>82</ele>
        <time>2019-08-18T08:03:33Z</time>
      </trkpt>
      <trkpt lat="47.31083" lon="-2.34103">
        <ele>82</ele>
        <time>2019-08-18T08:03:34Z</time>
      </trkpt>
      <trkpt lat="47.31086" lon="-2.34111">
        <ele>82</ele>
        <time>2019-08-18T08:03:35Z</time>
      </trkpt>
      <trkpt lat="47.31089" lon="-2.3412">
        <ele>82</ele>
        <time>2019-08-18T08:03:36Z</time>
      </trkpt>
      <trkpt lat="47.31093" lon="-2.34129">
        <ele>82</ele>
        <time>2019-08-18T08:03:37Z</time>
      </trkpt>
      <trkpt lat="47.31097" lon="-2.34137">
        <ele>81</ele>
        <time>2019-08-18T08:03:38Z</time>
      </trkpt>
      <trkpt lat="47.31107" lon="-2.34154">
        <ele>81</ele>
        <time>2019-08-18T08:03:40Z</time>
      </trkpt>
      <trkpt lat="47.31111" lon="-2.34164">
        <ele>80</ele>
        <time>2019-08-18T08:03:41Z</time>
      </trkpt>
      <trkpt lat="47.31116" lon="-2.34173">
        <ele>80</ele>
        <time>2019-08-18T08:03:42Z</time>
      </trkpt>
      <trkpt lat="47.31131" lon="-2.34202">
        <ele>79</ele>
        <time>2019-08-18T08:03:45Z</time>
      </trkpt>
      <trkpt lat="47.31137" lon="-2.34213">
        <ele>79</ele>
        <time>2019-08-18T08:03:46Z</time>
      </trkpt>
      <trkpt lat="47.31143" lon="-2.34224">
        <ele>79</ele>
        <time>2019-08-18T08:03:47Z</time>
      </trkpt>
      <trkpt lat="47.31149" lon="-2.34235">
        <ele>79</ele>
        <time>2019-08-18T08:03:48Z</time>
      </trkpt>
      <trkpt lat="47.31156" lon="-2.34246">
        <ele>78</ele>
        <time>2019-08-18T08:03:49Z</time>
      </trkpt>
      <trkpt lat="47.31162" lon="-2.34258">
        <ele>78</ele>
        <time>2019-08-18T08:03:50Z</time>
      </trkpt>
      <trkpt lat="47.31182" lon="-2.34304">
        <ele>77</ele>
        <time>2019-08-18T08:03:54Z</time>
      </trkpt>
      <trkpt lat="47.312" lon="-2.34334">
        <ele>78</ele>
        <time>2019-08-18T08:03:57Z</time>
      </trkpt>
      <trkpt lat="47.31207" lon="-2.3434">
        <ele>78</ele>
        <time>2019-08-18T08:03:58Z</time>
      </trkpt>
      <trkpt lat="47.31215" lon="-2.34345">
        <ele>78</ele>
        <time>2019-08-18T08:03:59Z</time>
      </trkpt>
      <trkpt lat="47.31222" lon="-2.34347">
        <ele>78</ele>
        <time>2019-08-18T08:04:00Z</time>
      </trkpt>
      <trkpt lat="47.31249" lon="-2.34362">
        <ele>78</ele>
        <time>2019-08-18T08:04:04Z</time>
      </trkpt>
      <trkpt lat="47.31254" lon="-2.34367">
        <ele>78</ele>
        <time>2019-08-18T08:04:05Z</time>
      </trkpt>
      <trkpt lat="47.31262" lon="-2.34383">
        <ele>78</ele>
        <time>2019-08-18T08:04:07Z</time>
      </trkpt>
      <trkpt lat="47.31265" lon="-2.34391">
        <ele>78</ele>
        <time>2019-08-18T08:04:08Z</time>
      </trkpt>
      <trkpt lat="47.31267" lon="-2.344">
        <ele>78</ele>
        <time>2019-08-18T08:04:09Z</time>
      </trkpt>
      <trkpt lat="47.31269" lon="-2.34408">
        <ele>77</ele>
        <time>2019-08-18T08:04:10Z</time>
      </trkpt>
      <trkpt lat="47.3127" lon="-2.34417">
        <ele>77</ele>
        <time>2019-08-18T08:04:11Z</time>
      </trkpt>
      <trkpt lat="47.31271" lon="-2.34435">
        <ele>78</ele>
        <time>2019-08-18T08:04:13Z</time>
      </trkpt>
      <trkpt lat="47.31272" lon="-2.34444">
        <ele>77</ele>
        <time>2019-08-18T08:04:14Z</time>
      </trkpt>
      <trkpt lat="47.31273" lon="-2.34454">
        <ele>77</ele>
        <time>2019-08-18T08:04:15Z</time>
      </trkpt>
      <trkpt lat="47.31274" lon="-2.34462">
        <ele>78</ele>
        <time>2019-08-18T08:04:16Z</time>
      </trkpt>
      <trkpt lat="47.31275" lon="-2.34469">
        <ele>77</ele>
        <time>2019-08-18T08:04:17Z</time>
      </trkpt>
      <trkpt lat="47.31276" lon="-2.34477">
        <ele>77</ele>
        <time>2019-08-18T08:04:18Z</time>
      </trkpt>
      <trkpt lat="47.31277" lon="-2.34486">
        <ele>77</ele>
        <time>2019-08-18T08:04:19Z</time>
      </trkpt>
      <trkpt lat="47.31277" lon="-2.34494">
        <ele>77</ele>
        <time>2019-08-18T08:04:20Z</time>
      </trkpt>
      <trkpt lat="47.31278" lon="-2.34502">
        <ele>78</ele>
        <time>2019-08-18T08:04:21Z</time>
      </trkpt>
      <trkpt lat="47.31279" lon="-2.34512">
        <ele>77</ele>
        <time>2019-08-18T08:04:22Z</time>
      </trkpt>
      <trkpt lat="47.3128" lon="-2.3452">
        <ele>78</ele>
        <time>2019-08-18T08:04:23Z</time>
      </trkpt>
      <trkpt lat="47.3128" lon="-2.34528">
        <ele>78</ele>
        <time>2019-08-18T08:04:24Z</time>
      </trkpt>
      <trkpt lat="47.31282" lon="-2.34537">
        <ele>78</ele>
        <time>2019-08-18T08:04:25Z</time>
      </trkpt>
      <trkpt lat="47.31283" lon="-2.34545">
        <ele>78</ele>
        <time>2019-08-18T08:04:26Z</time>
      </trkpt>
      <trkpt lat="47.31283" lon="-2.34553">
        <ele>78</ele>
        <time>2019-08-18T08:04:27Z</time>
      </trkpt>
      <trkpt lat="47.31284" lon="-2.34561">
        <ele>78</ele>
        <time>2019-08-18T08:04:28Z</time>
      </trkpt>
      <trkpt lat="47.31285" lon="-2.34569">
        <ele>78</ele>
        <time>2019-08-18T08:04:29Z</time>
      </trkpt>
      <trkpt lat="47.31286" lon="-2.34576">
        <ele>79</ele>
        <time>2019-08-18T08:04:30Z</time>
      </trkpt>
      <trkpt lat="47.31288" lon="-2.34592">
        <ele>79</ele>
        <time>2019-08-18T08:04:32Z</time>
      </trkpt>
      <trkpt lat="47.31288" lon="-2.346">
        <ele>79</ele>
        <time>2019-08-18T08:04:33Z</time>
      </trkpt>
      <trkpt lat="47.3129" lon="-2.34615">
        <ele>79</ele>
        <time>2019-08-18T08:04:35Z</time>
      </trkpt>
      <trkpt lat="47.31291" lon="-2.34622">
        <ele>79</ele>
        <time>2019-08-18T08:04:36Z</time>
      </trkpt>
      <trkpt lat="47.31291" lon="-2.34629">
        <ele>79</ele>
        <time>2019-08-18T08:04:37Z</time>
      </trkpt>
      <trkpt lat="47.31293" lon="-2.34636">
        <ele>79</ele>
        <time>2019-08-18T08:04:38Z</time>
      </trkpt>
      <trkpt lat="47.31294" lon="-2.34648">
        <ele>79</ele>
        <time>2019-08-18T08:04:40Z</time>
      </trkpt>
      <trkpt lat="47.31298" lon="-2.34659">
        <ele>80</ele>
        <time>2019-08-18T08:04:42Z</time>
      </trkpt>
      <trkpt lat="47.31302" lon="-2.3467">
        <ele>80</ele>
        <time>2019-08-18T08:04:44Z</time>
      </trkpt>
      <trkpt lat="47.31297" lon="-2.34679">
        <ele>80</ele>
        <time>2019-08-18T08:04:46Z</time>
      </trkpt>
      <trkpt lat="47.31293" lon="-2.34683">
        <ele>80</ele>
        <time>2019-08-18T08:04:47Z</time>
      </trkpt>
      <trkpt lat="47.31289" lon="-2.34687">
        <ele>80</ele>
        <time>2019-08-18T08:04:48Z</time>
      </trkpt>
      <trkpt lat="47.31278" lon="-2.3471">
        <ele>81</ele>
        <time>2019-08-18T08:04:52Z</time>
      </trkpt>
      <trkpt lat="47.31278" lon="-2.34718">
        <ele>81</ele>
        <time>2019-08-18T08:04:53Z</time>
      </trkpt>
      <trkpt lat="47.31279" lon="-2.34726">
        <ele>81</ele>
        <time>2019-08-18T08:04:54Z</time>
      </trkpt>
      <trkpt lat="47.3128" lon="-2.34734">
        <ele>81</ele>
        <time>2019-08-18T08:04:55Z</time>
      </trkpt>
      <trkpt lat="47.31282" lon="-2.34749">
        <ele>81</ele>
        <time>2019-08-18T08:04:57Z</time>
      </trkpt>
      <trkpt lat="47.31284" lon="-2.34757">
        <ele>82</ele>
        <time>2019-08-18T08:04:58Z</time>
      </trkpt>
      <trkpt lat="47.31285" lon="-2.34764">
        <ele>82</ele>
        <time>2019-08-18T08:04:59Z</time>
      </trkpt>
      <trkpt lat="47.31286" lon="-2.34771">
        <ele>82</ele>
        <time>2019-08-18T08:05:00Z</time>
      </trkpt>
      <trkpt lat="47.31288" lon="-2.34779">
        <ele>82</ele>
        <time>2019-08-18T08:05:01Z</time>
      </trkpt>
      <trkpt lat="47.31289" lon="-2.34787">
        <ele>82</ele>
        <time>2019-08-18T08:05:02Z</time>
      </trkpt>
      <trkpt lat="47.31291" lon="-2.34794">
        <ele>82</ele>
        <time>2019-08-18T08:05:03Z</time>
      </trkpt>
      <trkpt lat="47.31292" lon="-2.34802">
        <ele>82</ele>
        <time>2019-08-18T08:05:04Z</time>
      </trkpt>
      <trkpt lat="47.31293" lon="-2.34809">
        <ele>82</ele>
        <time>2019-08-18T08:05:05Z</time>
      </trkpt>
      <trkpt lat="47.31295" lon="-2.34816">
        <ele>82</ele>
        <time>2019-08-18T08:05:06Z</time>
      </trkpt>
      <trkpt lat="47.31298" lon="-2.3483">
        <ele>82</ele>
        <time>2019-08-18T08:05:08Z</time>
      </trkpt>
      <trkpt lat="47.31299" lon="-2.34838">
        <ele>82</ele>
        <time>2019-08-18T08:05:09Z</time>
      </trkpt>
      <trkpt lat="47.31301" lon="-2.34845">
        <ele>82</ele>
        <time>2019-08-18T08:05:10Z</time>
      </trkpt>
      <trkpt lat="47.31302" lon="-2.34852">
        <ele>82</ele>
        <time>2019-08-18T08:05:11Z</time>
      </trkpt>
      <trkpt lat="47.31304" lon="-2.3486">
        <ele>83</ele>
        <time>2019-08-18T08:05:12Z</time>
      </trkpt>
      <trkpt lat="47.31306" lon="-2.34867">
        <ele>83</ele>
        <time>2019-08-18T08:05:13Z</time>
      </trkpt>
      <trkpt lat="47.31308" lon="-2.34875">
        <ele>83</ele>
        <time>2019-08-18T08:05:14Z</time>
      </trkpt>
      <trkpt lat="47.3131" lon="-2.34883">
        <ele>82</ele>
        <time>2019-08-18T08:05:15Z</time>
      </trkpt>
      <trkpt lat="47.31313" lon="-2.34891">
        <ele>83</ele>
        <time>2019-08-18T08:05:16Z</time>
      </trkpt>
      <trkpt lat="47.31315" lon="-2.34899">
        <ele>82</ele>
        <time>2019-08-18T08:05:17Z</time>
      </trkpt>
      <trkpt lat="47.31323" lon="-2.34925">
        <ele>82</ele>
        <time>2019-08-18T08:05:20Z</time>
      </trkpt>
      <trkpt lat="47.31325" lon="-2.34933">
        <ele>82</ele>
        <time>2019-08-18T08:05:21Z</time>
      </trkpt>
      <trkpt lat="47.31327" lon="-2.34943">
        <ele>82</ele>
        <time>2019-08-18T08:05:22Z</time>
      </trkpt>
      <trkpt lat="47.31329" lon="-2.34951">
        <ele>82</ele>
        <time>2019-08-18T08:05:23Z</time>
      </trkpt>
      <trkpt lat="47.31331" lon="-2.3496">
        <ele>81</ele>
        <time>2019-08-18T08:05:24Z</time>
      </trkpt>
      <trkpt lat="47.31333" lon="-2.34969">
        <ele>82</ele>
        <time>2019-08-18T08:05:25Z</time>
      </trkpt>
      <trkpt lat="47.31335" lon="-2.34979">
        <ele>82</ele>
        <time>2019-08-18T08:05:26Z</time>
      </trkpt>
      <trkpt lat="47.3134" lon="-2.35005">
        <ele>83</ele>
        <time>2019-08-18T08:05:29Z</time>
      </trkpt>
      <trkpt lat="47.31343" lon="-2.35023">
        <ele>83</ele>
        <time>2019-08-18T08:05:31Z</time>
      </trkpt>
      <trkpt lat="47.31343" lon="-2.35032">
        <ele>82</ele>
        <time>2019-08-18T08:05:32Z</time>
      </trkpt>
      <trkpt lat="47.31343" lon="-2.35042">
        <ele>82</ele>
        <time>2019-08-18T08:05:33Z</time>
      </trkpt>
      <trkpt lat="47.31343" lon="-2.35061">
        <ele>82</ele>
        <time>2019-08-18T08:05:35Z</time>
      </trkpt>
      <trkpt lat="47.31343" lon="-2.35071">
        <ele>83</ele>
        <time>2019-08-18T08:05:36Z</time>
      </trkpt>
      <trkpt lat="47.31343" lon="-2.3508">
        <ele>83</ele>
        <time>2019-08-18T08:05:37Z</time>
      </trkpt>
      <trkpt lat="47.31343" lon="-2.3509">
        <ele>83</ele>
        <time>2019-08-18T08:05:38Z</time>
      </trkpt>
      <trkpt lat="47.31343" lon="-2.35099">
        <ele>83</ele>
        <time>2019-08-18T08:05:39Z</time>
      </trkpt>
      <trkpt lat="47.31343" lon="-2.35118">
        <ele>83</ele>
        <time>2019-08-18T08:05:41Z</time>
      </trkpt>
      <trkpt lat="47.31343" lon="-2.35128">
        <ele>83</ele>
        <time>2019-08-18T08:05:42Z</time>
      </trkpt>
      <trkpt lat="47.31342" lon="-2.35139">
        <ele>83</ele>
        <time>2019-08-18T08:05:43Z</time>
      </trkpt>
      <trkpt lat="47.31342" lon="-2.35158">
        <ele>83</ele>
        <time>2019-08-18T08:05:45Z</time>
      </trkpt>
      <trkpt lat="47.31342" lon="-2.35169">
        <ele>83</ele>
        <time>2019-08-18T08:05:46Z</time>
      </trkpt>
      <trkpt lat="47.31341" lon="-2.35179">
        <ele>83</ele>
        <time>2019-08-18T08:05:47Z</time>
      </trkpt>
      <trkpt lat="47.31342" lon="-2.3519">
        <ele>83</ele>
        <time>2019-08-18T08:05:48Z</time>
      </trkpt>
      <trkpt lat="47.31341" lon="-2.35201">
        <ele>83</ele>
        <time>2019-08-18T08:05:49Z</time>
      </trkpt>
      <trkpt lat="47.3134" lon="-2.35211">
        <ele>84</ele>
        <time>2019-08-18T08:05:50Z</time>
      </trkpt>
      <trkpt lat="47.3134" lon="-2.35221">
        <ele>84</ele>
        <time>2019-08-18T08:05:51Z</time>
      </trkpt>
      <trkpt lat="47.31338" lon="-2.35252">
        <ele>83</ele>
        <time>2019-08-18T08:05:54Z</time>
      </trkpt>
      <trkpt lat="47.31338" lon="-2.3528">
        <ele>83</ele>
        <time>2019-08-18T08:05:57Z</time>
      </trkpt>
      <trkpt lat="47.31338" lon="-2.35287">
        <ele>83</ele>
        <time>2019-08-18T08:05:58Z</time>
      </trkpt>
      <trkpt lat="47.31337" lon="-2.35303">
        <ele>83</ele>
        <time>2019-08-18T08:06:00Z</time>
      </trkpt>
      <trkpt lat="47.31337" lon="-2.35311">
        <ele>84</ele>
        <time>2019-08-18T08:06:01Z</time>
      </trkpt>
      <trkpt lat="47.31337" lon="-2.35319">
        <ele>84</ele>
        <time>2019-08-18T08:06:02Z</time>
      </trkpt>
      <trkpt lat="47.31336" lon="-2.35327">
        <ele>84</ele>
        <time>2019-08-18T08:06:03Z</time>
      </trkpt>
      <trkpt lat="47.31336" lon="-2.35335">
        <ele>84</ele>
        <time>2019-08-18T08:06:04Z</time>
      </trkpt>
      <trkpt lat="47.31334" lon="-2.35355">
        <ele>84</ele>
        <time>2019-08-18T08:06:07Z</time>
      </trkpt>
      <trkpt lat="47.31333" lon="-2.3538">
        <ele>85</ele>
        <time>2019-08-18T08:06:10Z</time>
      </trkpt>
      <trkpt lat="47.31331" lon="-2.35406">
        <ele>86</ele>
        <time>2019-08-18T08:06:13Z</time>
      </trkpt>
      <trkpt lat="47.31332" lon="-2.35415">
        <ele>86</ele>
        <time>2019-08-18T08:06:14Z</time>
      </trkpt>
      <trkpt lat="47.31332" lon="-2.35424">
        <ele>86</ele>
        <time>2019-08-18T08:06:15Z</time>
      </trkpt>
      <trkpt lat="47.31331" lon="-2.35443">
        <ele>86</ele>
        <time>2019-08-18T08:06:17Z</time>
      </trkpt>
      <trkpt lat="47.31331" lon="-2.35451">
        <ele>86</ele>
        <time>2019-08-18T08:06:18Z</time>
      </trkpt>
      <trkpt lat="47.3133" lon="-2.35485">
        <ele>86</ele>
        <time>2019-08-18T08:06:21Z</time>
      </trkpt>
      <trkpt lat="47.31329" lon="-2.35495">
        <ele>86</ele>
        <time>2019-08-18T08:06:22Z</time>
      </trkpt>
      <trkpt lat="47.31328" lon="-2.35514">
        <ele>86</ele>
        <time>2019-08-18T08:06:24Z</time>
      </trkpt>
      <trkpt lat="47.31328" lon="-2.35521">
        <ele>86</ele>
        <time>2019-08-18T08:06:25Z</time>
      </trkpt>
      <trkpt lat="47.31329" lon="-2.35529">
        <ele>86</ele>
        <time>2019-08-18T08:06:26Z</time>
      </trkpt>
      <trkpt lat="47.31331" lon="-2.35536">
        <ele>85</ele>
        <time>2019-08-18T08:06:27Z</time>
      </trkpt>
      <trkpt lat="47.31334" lon="-2.35541">
        <ele>85</ele>
        <time>2019-08-18T08:06:28Z</time>
      </trkpt>
      <trkpt lat="47.31339" lon="-2.35545">
        <ele>85</ele>
        <time>2019-08-18T08:06:29Z</time>
      </trkpt>
      <trkpt lat="47.31348" lon="-2.35546">
        <ele>84</ele>
        <time>2019-08-18T08:06:31Z</time>
      </trkpt>
      <trkpt lat="47.31356" lon="-2.35543">
        <ele>84</ele>
        <time>2019-08-18T08:06:33Z</time>
      </trkpt>
      <trkpt lat="47.31361" lon="-2.3554">
        <ele>84</ele>
        <time>2019-08-18T08:06:34Z</time>
      </trkpt>
      <trkpt lat="47.3137" lon="-2.35535">
        <ele>84</ele>
        <time>2019-08-18T08:06:36Z</time>
      </trkpt>
      <trkpt lat="47.31375" lon="-2.35532">
        <ele>84</ele>
        <time>2019-08-18T08:06:37Z</time>
      </trkpt>
      <trkpt lat="47.3138" lon="-2.3553">
        <ele>83</ele>
        <time>2019-08-18T08:06:38Z</time>
      </trkpt>
      <trkpt lat="47.3139" lon="-2.35529">
        <ele>84</ele>
        <time>2019-08-18T08:06:40Z</time>
      </trkpt>
      <trkpt lat="47.31396" lon="-2.35529">
        <ele>84</ele>
        <time>2019-08-18T08:06:41Z</time>
      </trkpt>
      <trkpt lat="47.31401" lon="-2.35528">
        <ele>84</ele>
        <time>2019-08-18T08:06:42Z</time>
      </trkpt>
      <trkpt lat="47.31406" lon="-2.35529">
        <ele>84</ele>
        <time>2019-08-18T08:06:43Z</time>
      </trkpt>
      <trkpt lat="47.31412" lon="-2.35529">
        <ele>85</ele>
        <time>2019-08-18T08:06:44Z</time>
      </trkpt>
      <trkpt lat="47.31417" lon="-2.35529">
        <ele>85</ele>
        <time>2019-08-18T08:06:45Z</time>
      </trkpt>
      <trkpt lat="47.31423" lon="-2.35529">
        <ele>85</ele>
        <time>2019-08-18T08:06:46Z</time>
      </trkpt>
      <trkpt lat="47.31429" lon="-2.35529">
        <ele>85</ele>
        <time>2019-08-18T08:06:47Z</time>
      </trkpt>
      <trkpt lat="47.31435" lon="-2.35529">
        <ele>85</ele>
        <time>2019-08-18T08:06:48Z</time>
      </trkpt>
      <trkpt lat="47.31441" lon="-2.35529">
        <ele>85</ele>
        <time>2019-08-18T08:06:49Z</time>
      </trkpt>
      <trkpt lat="47.31446" lon="-2.35528">
        <ele>85</ele>
        <time>2019-08-18T08:06:50Z</time>
      </trkpt>
      <trkpt lat="47.31456" lon="-2.35527">
        <ele>86</ele>
        <time>2019-08-18T08:06:52Z</time>
      </trkpt>
      <trkpt lat="47.31462" lon="-2.35526">
        <ele>86</ele>
        <time>2019-08-18T08:06:53Z</time>
      </trkpt>
      <trkpt lat="47.31467" lon="-2.35524">
        <ele>86</ele>
        <time>2019-08-18T08:06:54Z</time>
      </trkpt>
      <trkpt lat="47.31471" lon="-2.3552">
        <ele>86</ele>
        <time>2019-08-18T08:06:55Z</time>
      </trkpt>
      <trkpt lat="47.31476" lon="-2.35514">
        <ele>86</ele>
        <time>2019-08-18T08:06:56Z</time>
      </trkpt>
      <trkpt lat="47.31479" lon="-2.35506">
        <ele>86</ele>
        <time>2019-08-18T08:06:57Z</time>
      </trkpt>
      <trkpt lat="47.31481" lon="-2.35498">
        <ele>86</ele>
        <time>2019-08-18T08:06:58Z</time>
      </trkpt>
      <trkpt lat="47.31483" lon="-2.35488">
        <ele>86</ele>
        <time>2019-08-18T08:06:59Z</time>
      </trkpt>
      <trkpt lat="47.31484" lon="-2.3548">
        <ele>86</ele>
        <time>2019-08-18T08:07:00Z</time>
      </trkpt>
      <trkpt lat="47.31485" lon="-2.35471">
        <ele>86</ele>
        <time>2019-08-18T08:07:01Z</time>
      </trkpt>
      <trkpt lat="47.31486" lon="-2.35462">
        <ele>87</ele>
        <time>2019-08-18T08:07:02Z</time>
      </trkpt>
      <trkpt lat="47.31488" lon="-2.35454">
        <ele>87</ele>
        <time>2019-08-18T08:07:03Z</time>
      </trkpt>
      <trkpt lat="47.31495" lon="-2.35438">
        <ele>87</ele>
        <time>2019-08-18T08:07:05Z</time>
      </trkpt>
      <trkpt lat="47.31504" lon="-2.35425">
        <ele>87</ele>
        <time>2019-08-18T08:07:07Z</time>
      </trkpt>
      <trkpt lat="47.31515" lon="-2.35415">
        <ele>87</ele>
        <time>2019-08-18T08:07:09Z</time>
      </trkpt>
      <trkpt lat="47.31527" lon="-2.35406">
        <ele>87</ele>
        <time>2019-08-18T08:07:11Z</time>
      </trkpt>
      <trkpt lat="47.31534" lon="-2.35401">
        <ele>87</ele>
        <time>2019-08-18T08:07:12Z</time>
      </trkpt>
      <trkpt lat="47.3154" lon="-2.35396">
        <ele>87</ele>
        <time>2019-08-18T08:07:13Z</time>
      </trkpt>
      <trkpt lat="47.31551" lon="-2.35389">
        <ele>87</ele>
        <time>2019-08-18T08:07:15Z</time>
      </trkpt>
      <trkpt lat="47.31557" lon="-2.35386">
        <ele>87</ele>
        <time>2019-08-18T08:07:16Z</time>
      </trkpt>
      <trkpt lat="47.31563" lon="-2.35382">
        <ele>87</ele>
        <time>2019-08-18T08:07:17Z</time>
      </trkpt>
      <trkpt lat="47.3157" lon="-2.35379">
        <ele>87</ele>
        <time>2019-08-18T08:07:18Z</time>
      </trkpt>
      <trkpt lat="47.31576" lon="-2.35376">
        <ele>87</ele>
        <time>2019-08-18T08:07:19Z</time>
      </trkpt>
      <trkpt lat="47.31589" lon="-2.35369">
        <ele>87</ele>
        <time>2019-08-18T08:07:21Z</time>
      </trkpt>
      <trkpt lat="47.31595" lon="-2.35366">
        <ele>87</ele>
        <time>2019-08-18T08:07:22Z</time>
      </trkpt>
      <trkpt lat="47.31601" lon="-2.35364">
        <ele>87</ele>
        <time>2019-08-18T08:07:23Z</time>
      </trkpt>
      <trkpt lat="47.31608" lon="-2.35363">
        <ele>87</ele>
        <time>2019-08-18T08:07:24Z</time>
      </trkpt>
      <trkpt lat="47.31615" lon="-2.35362">
        <ele>87</ele>
        <time>2019-08-18T08:07:25Z</time>
      </trkpt>
      <trkpt lat="47.31627" lon="-2.35365">
        <ele>87</ele>
        <time>2019-08-18T08:07:27Z</time>
      </trkpt>
      <trkpt lat="47.31634" lon="-2.35367">
        <ele>87</ele>
        <time>2019-08-18T08:07:28Z</time>
      </trkpt>
      <trkpt lat="47.3164" lon="-2.35369">
        <ele>87</ele>
        <time>2019-08-18T08:07:29Z</time>
      </trkpt>
      <trkpt lat="47.31647" lon="-2.35371">
        <ele>87</ele>
        <time>2019-08-18T08:07:30Z</time>
      </trkpt>
      <trkpt lat="47.31653" lon="-2.35373">
        <ele>86</ele>
        <time>2019-08-18T08:07:31Z</time>
      </trkpt>
      <trkpt lat="47.3166" lon="-2.35375">
        <ele>86</ele>
        <time>2019-08-18T08:07:32Z</time>
      </trkpt>
      <trkpt lat="47.31667" lon="-2.35376">
        <ele>86</ele>
        <time>2019-08-18T08:07:33Z</time>
      </trkpt>
      <trkpt lat="47.31702" lon="-2.35376">
        <ele>86</ele>
        <time>2019-08-18T08:07:38Z</time>
      </trkpt>
      <trkpt lat="47.31712" lon="-2.35376">
        <ele>86</ele>
        <time>2019-08-18T08:07:40Z</time>
      </trkpt>
      <trkpt lat="47.31722" lon="-2.35375">
        <ele>87</ele>
        <time>2019-08-18T08:07:42Z</time>
      </trkpt>
      <trkpt lat="47.31727" lon="-2.35377">
        <ele>87</ele>
        <time>2019-08-18T08:07:43Z</time>
      </trkpt>
      <trkpt lat="47.31732" lon="-2.35376">
        <ele>86</ele>
        <time>2019-08-18T08:07:44Z</time>
      </trkpt>
      <trkpt lat="47.31737" lon="-2.35375">
        <ele>87</ele>
        <time>2019-08-18T08:07:45Z</time>
      </trkpt>
      <trkpt lat="47.31741" lon="-2.35374">
        <ele>87</ele>
        <time>2019-08-18T08:07:46Z</time>
      </trkpt>
      <trkpt lat="47.31747" lon="-2.35379">
        <ele>87</ele>
        <time>2019-08-18T08:07:48Z</time>
      </trkpt>
      <trkpt lat="47.31754" lon="-2.35389">
        <ele>88</ele>
        <time>2019-08-18T08:07:50Z</time>
      </trkpt>
      <trkpt lat="47.31758" lon="-2.35394">
        <ele>88</ele>
        <time>2019-08-18T08:07:51Z</time>
      </trkpt>
      <trkpt lat="47.31767" lon="-2.35408">
        <ele>88</ele>
        <time>2019-08-18T08:07:53Z</time>
      </trkpt>
      <trkpt lat="47.31773" lon="-2.35414">
        <ele>87</ele>
        <time>2019-08-18T08:07:54Z</time>
      </trkpt>
      <trkpt lat="47.3179" lon="-2.35441">
        <ele>88</ele>
        <time>2019-08-18T08:07:58Z</time>
      </trkpt>
      <trkpt lat="47.31795" lon="-2.35452">
        <ele>88</ele>
        <time>2019-08-18T08:08:00Z</time>
      </trkpt>
      <trkpt lat="47.31803" lon="-2.35467">
        <ele>88</ele>
        <time>2019-08-18T08:08:03Z</time>
      </trkpt>
      <trkpt lat="47.31805" lon="-2.35473">
        <ele>88</ele>
        <time>2019-08-18T08:08:04Z</time>
      </trkpt>
      <trkpt lat="47.31808" lon="-2.35481">
        <ele>87</ele>
        <time>2019-08-18T08:08:05Z</time>
      </trkpt>
      <trkpt lat="47.31812" lon="-2.35486">
        <ele>87</ele>
        <time>2019-08-18T08:08:06Z</time>
      </trkpt>
      <trkpt lat="47.31815" lon="-2.35491">
        <ele>87</ele>
        <time>2019-08-18T08:08:07Z</time>
      </trkpt>
      <trkpt lat="47.3182" lon="-2.355">
        <ele>87</ele>
        <time>2019-08-18T08:08:09Z</time>
      </trkpt>
      <trkpt lat="47.31827" lon="-2.35513">
        <ele>86</ele>
        <time>2019-08-18T08:08:12Z</time>
      </trkpt>
      <trkpt lat="47.31829" lon="-2.35518">
        <ele>86</ele>
        <time>2019-08-18T08:08:13Z</time>
      </trkpt>
      <trkpt lat="47.31833" lon="-2.3553">
        <ele>86</ele>
        <time>2019-08-18T08:08:15Z</time>
      </trkpt>
      <trkpt lat="47.31833" lon="-2.35547">
        <ele>87</ele>
        <time>2019-08-18T08:08:18Z</time>
      </trkpt>
      <trkpt lat="47.31827" lon="-2.35555">
        <ele>87</ele>
        <time>2019-08-18T08:08:20Z</time>
      </trkpt>
      <trkpt lat="47.31822" lon="-2.35563">
        <ele>87</ele>
        <time>2019-08-18T08:08:22Z</time>
      </trkpt>
      <trkpt lat="47.31819" lon="-2.35567">
        <ele>88</ele>
        <time>2019-08-18T08:08:23Z</time>
      </trkpt>
      <trkpt lat="47.31812" lon="-2.35576">
        <ele>88</ele>
        <time>2019-08-18T08:08:25Z</time>
      </trkpt>
      <trkpt lat="47.31807" lon="-2.35582">
        <ele>88</ele>
        <time>2019-08-18T08:08:26Z</time>
      </trkpt>
      <trkpt lat="47.31802" lon="-2.35594">
        <ele>87</ele>
        <time>2019-08-18T08:08:28Z</time>
      </trkpt>
      <trkpt lat="47.31799" lon="-2.35599">
        <ele>87</ele>
        <time>2019-08-18T08:08:29Z</time>
      </trkpt>
      <trkpt lat="47.31795" lon="-2.35604">
        <ele>87</ele>
        <time>2019-08-18T08:08:30Z</time>
      </trkpt>
      <trkpt lat="47.31792" lon="-2.35609">
        <ele>87</ele>
        <time>2019-08-18T08:08:31Z</time>
      </trkpt>
      <trkpt lat="47.31779" lon="-2.35634">
        <ele>86</ele>
        <time>2019-08-18T08:08:35Z</time>
      </trkpt>
      <trkpt lat="47.31775" lon="-2.35646">
        <ele>85</ele>
        <time>2019-08-18T08:08:37Z</time>
      </trkpt>
      <trkpt lat="47.31779" lon="-2.35659">
        <ele>85</ele>
        <time>2019-08-18T08:08:39Z</time>
      </trkpt>
      <trkpt lat="47.31779" lon="-2.35667">
        <ele>85</ele>
        <time>2019-08-18T08:08:40Z</time>
      </trkpt>
      <trkpt lat="47.31779" lon="-2.35674">
        <ele>85</ele>
        <time>2019-08-18T08:08:41Z</time>
      </trkpt>
      <trkpt lat="47.31779" lon="-2.35687">
        <ele>85</ele>
        <time>2019-08-18T08:08:43Z</time>
      </trkpt>
      <trkpt lat="47.31778" lon="-2.35708">
        <ele>85</ele>
        <time>2019-08-18T08:08:46Z</time>
      </trkpt>
      <trkpt lat="47.31777" lon="-2.35716">
        <ele>85</ele>
        <time>2019-08-18T08:08:47Z</time>
      </trkpt>
      <trkpt lat="47.31776" lon="-2.3574">
        <ele>86</ele>
        <time>2019-08-18T08:08:50Z</time>
      </trkpt>
      <trkpt lat="47.31776" lon="-2.35747">
        <ele>86</ele>
        <time>2019-08-18T08:08:51Z</time>
      </trkpt>
      <trkpt lat="47.31776" lon="-2.35754">
        <ele>85</ele>
        <time>2019-08-18T08:08:52Z</time>
      </trkpt>
      <trkpt lat="47.31778" lon="-2.35778">
        <ele>87</ele>
        <time>2019-08-18T08:08:55Z</time>
      </trkpt>
      <trkpt lat="47.31781" lon="-2.3579">
        <ele>87</ele>
        <time>2019-08-18T08:08:57Z</time>
      </trkpt>
      <trkpt lat="47.31783" lon="-2.35796">
        <ele>87</ele>
        <time>2019-08-18T08:08:58Z</time>
      </trkpt>
      <trkpt lat="47.31784" lon="-2.35802">
        <ele>87</ele>
        <time>2019-08-18T08:08:59Z</time>
      </trkpt>
      <trkpt lat="47.31788" lon="-2.35807">
        <ele>87</ele>
        <time>2019-08-18T08:09:00Z</time>
      </trkpt>
      <trkpt lat="47.31791" lon="-2.35813">
        <ele>87</ele>
        <time>2019-08-18T08:09:01Z</time>
      </trkpt>
      <trkpt lat="47.31796" lon="-2.35818">
        <ele>86</ele>
        <time>2019-08-18T08:09:02Z</time>
      </trkpt>
      <trkpt lat="47.31799" lon="-2.35823">
        <ele>86</ele>
        <time>2019-08-18T08:09:03Z</time>
      </trkpt>
      <trkpt lat="47.31803" lon="-2.35828">
        <ele>86</ele>
        <time>2019-08-18T08:09:04Z</time>
      </trkpt>
      <trkpt lat="47.31807" lon="-2.35833">
        <ele>86</ele>
        <time>2019-08-18T08:09:05Z</time>
      </trkpt>
      <trkpt lat="47.3181" lon="-2.35837">
        <ele>86</ele>
        <time>2019-08-18T08:09:06Z</time>
      </trkpt>
      <trkpt lat="47.31813" lon="-2.35843">
        <ele>86</ele>
        <time>2019-08-18T08:09:07Z</time>
      </trkpt>
      <trkpt lat="47.31817" lon="-2.35848">
        <ele>87</ele>
        <time>2019-08-18T08:09:08Z</time>
      </trkpt>
      <trkpt lat="47.31821" lon="-2.35862">
        <ele>87</ele>
        <time>2019-08-18T08:09:10Z</time>
      </trkpt>
      <trkpt lat="47.31822" lon="-2.35874">
        <ele>87</ele>
        <time>2019-08-18T08:09:12Z</time>
      </trkpt>
      <trkpt lat="47.3182" lon="-2.3588">
        <ele>86</ele>
        <time>2019-08-18T08:09:13Z</time>
      </trkpt>
      <trkpt lat="47.31813" lon="-2.35887">
        <ele>86</ele>
        <time>2019-08-18T08:09:15Z</time>
      </trkpt>
      <trkpt lat="47.31809" lon="-2.3589">
        <ele>86</ele>
        <time>2019-08-18T08:09:16Z</time>
      </trkpt>
      <trkpt lat="47.31793" lon="-2.35901">
        <ele>86</ele>
        <time>2019-08-18T08:09:20Z</time>
      </trkpt>
      <trkpt lat="47.31784" lon="-2.35906">
        <ele>86</ele>
        <time>2019-08-18T08:09:22Z</time>
      </trkpt>
      <trkpt lat="47.31776" lon="-2.35912">
        <ele>86</ele>
        <time>2019-08-18T08:09:24Z</time>
      </trkpt>
      <trkpt lat="47.3177" lon="-2.35913">
        <ele>86</ele>
        <time>2019-08-18T08:09:25Z</time>
      </trkpt>
      <trkpt lat="47.31759" lon="-2.3592">
        <ele>86</ele>
        <time>2019-08-18T08:09:27Z</time>
      </trkpt>
      <trkpt lat="47.31754" lon="-2.35922">
        <ele>85</ele>
        <time>2019-08-18T08:09:28Z</time>
      </trkpt>
      <trkpt lat="47.31749" lon="-2.35924">
        <ele>85</ele>
        <time>2019-08-18T08:09:29Z</time>
      </trkpt>
      <trkpt lat="47.31744" lon="-2.35926">
        <ele>84</ele>
        <time>2019-08-18T08:09:30Z</time>
      </trkpt>
      <trkpt lat="47.31739" lon="-2.35928">
        <ele>84</ele>
        <time>2019-08-18T08:09:31Z</time>
      </trkpt>
      <trkpt lat="47.31735" lon="-2.35932">
        <ele>83</ele>
        <time>2019-08-18T08:09:32Z</time>
      </trkpt>
      <trkpt lat="47.3173" lon="-2.35934">
        <ele>83</ele>
        <time>2019-08-18T08:09:33Z</time>
      </trkpt>
      <trkpt lat="47.31725" lon="-2.35937">
        <ele>83</ele>
        <time>2019-08-18T08:09:34Z</time>
      </trkpt>
      <trkpt lat="47.3172" lon="-2.35939">
        <ele>83</ele>
        <time>2019-08-18T08:09:35Z</time>
      </trkpt>
      <trkpt lat="47.31715" lon="-2.35942">
        <ele>83</ele>
        <time>2019-08-18T08:09:36Z</time>
      </trkpt>
      <trkpt lat="47.3171" lon="-2.35945">
        <ele>83</ele>
        <time>2019-08-18T08:09:37Z</time>
      </trkpt>
      <trkpt lat="47.31706" lon="-2.35948">
        <ele>83</ele>
        <time>2019-08-18T08:09:38Z</time>
      </trkpt>
      <trkpt lat="47.31701" lon="-2.35951">
        <ele>82</ele>
        <time>2019-08-18T08:09:39Z</time>
      </trkpt>
      <trkpt lat="47.31697" lon="-2.35953">
        <ele>82</ele>
        <time>2019-08-18T08:09:40Z</time>
      </trkpt>
      <trkpt lat="47.31693" lon="-2.35956">
        <ele>82</ele>
        <time>2019-08-18T08:09:41Z</time>
      </trkpt>
      <trkpt lat="47.31688" lon="-2.35958">
        <ele>82</ele>
        <time>2019-08-18T08:09:42Z</time>
      </trkpt>
      <trkpt lat="47.31684" lon="-2.3596">
        <ele>83</ele>
        <time>2019-08-18T08:09:43Z</time>
      </trkpt>
      <trkpt lat="47.3168" lon="-2.35963">
        <ele>83</ele>
        <time>2019-08-18T08:09:44Z</time>
      </trkpt>
      <trkpt lat="47.31671" lon="-2.35969">
        <ele>83</ele>
        <time>2019-08-18T08:09:46Z</time>
      </trkpt>
      <trkpt lat="47.31662" lon="-2.35974">
        <ele>84</ele>
        <time>2019-08-18T08:09:48Z</time>
      </trkpt>
      <trkpt lat="47.31658" lon="-2.35977">
        <ele>84</ele>
        <time>2019-08-18T08:09:49Z</time>
      </trkpt>
      <trkpt lat="47.3165" lon="-2.35983">
        <ele>84</ele>
        <time>2019-08-18T08:09:51Z</time>
      </trkpt>
      <trkpt lat="47.31645" lon="-2.35986">
        <ele>84</ele>
        <time>2019-08-18T08:09:52Z</time>
      </trkpt>
      <trkpt lat="47.31642" lon="-2.35989">
        <ele>85</ele>
        <time>2019-08-18T08:09:53Z</time>
      </trkpt>
      <trkpt lat="47.31638" lon="-2.35993">
        <ele>85</ele>
        <time>2019-08-18T08:09:54Z</time>
      </trkpt>
      <trkpt lat="47.31634" lon="-2.35997">
        <ele>85</ele>
        <time>2019-08-18T08:09:55Z</time>
      </trkpt>
      <trkpt lat="47.31626" lon="-2.36005">
        <ele>85</ele>
        <time>2019-08-18T08:09:57Z</time>
      </trkpt>
      <trkpt lat="47.31619" lon="-2.36013">
        <ele>85</ele>
        <time>2019-08-18T08:09:59Z</time>
      </trkpt>
      <trkpt lat="47.31616" lon="-2.36018">
        <ele>85</ele>
        <time>2019-08-18T08:10:00Z</time>
      </trkpt>
      <trkpt lat="47.31612" lon="-2.36022">
        <ele>85</ele>
        <time>2019-08-18T08:10:01Z</time>
      </trkpt>
      <trkpt lat="47.31608" lon="-2.36027">
        <ele>85</ele>
        <time>2019-08-18T08:10:02Z</time>
      </trkpt>
      <trkpt lat="47.31605" lon="-2.36031">
        <ele>85</ele>
        <time>2019-08-18T08:10:03Z</time>
      </trkpt>
      <trkpt lat="47.31596" lon="-2.36039">
        <ele>85</ele>
        <time>2019-08-18T08:10:05Z</time>
      </trkpt>
      <trkpt lat="47.31592" lon="-2.36044">
        <ele>86</ele>
        <time>2019-08-18T08:10:06Z</time>
      </trkpt>
      <trkpt lat="47.31584" lon="-2.36051">
        <ele>86</ele>
        <time>2019-08-18T08:10:08Z</time>
      </trkpt>
      <trkpt lat="47.31581" lon="-2.36055">
        <ele>86</ele>
        <time>2019-08-18T08:10:09Z</time>
      </trkpt>
      <trkpt lat="47.31573" lon="-2.36062">
        <ele>85</ele>
        <time>2019-08-18T08:10:11Z</time>
      </trkpt>
      <trkpt lat="47.3157" lon="-2.36066">
        <ele>86</ele>
        <time>2019-08-18T08:10:12Z</time>
      </trkpt>
      <trkpt lat="47.3156" lon="-2.36075">
        <ele>87</ele>
        <time>2019-08-18T08:10:15Z</time>
      </trkpt>
      <trkpt lat="47.31556" lon="-2.36078">
        <ele>87</ele>
        <time>2019-08-18T08:10:16Z</time>
      </trkpt>
      <trkpt lat="47.31549" lon="-2.36086">
        <ele>88</ele>
        <time>2019-08-18T08:10:18Z</time>
      </trkpt>
      <trkpt lat="47.31543" lon="-2.36093">
        <ele>88</ele>
        <time>2019-08-18T08:10:20Z</time>
      </trkpt>
      <trkpt lat="47.31535" lon="-2.36098">
        <ele>88</ele>
        <time>2019-08-18T08:10:22Z</time>
      </trkpt>
      <trkpt lat="47.31532" lon="-2.36103">
        <ele>88</ele>
        <time>2019-08-18T08:10:23Z</time>
      </trkpt>
      <trkpt lat="47.31523" lon="-2.36111">
        <ele>88</ele>
        <time>2019-08-18T08:10:25Z</time>
      </trkpt>
      <trkpt lat="47.31517" lon="-2.36119">
        <ele>88</ele>
        <time>2019-08-18T08:10:27Z</time>
      </trkpt>
      <trkpt lat="47.31511" lon="-2.36126">
        <ele>88</ele>
        <time>2019-08-18T08:10:29Z</time>
      </trkpt>
      <trkpt lat="47.31506" lon="-2.36129">
        <ele>89</ele>
        <time>2019-08-18T08:10:30Z</time>
      </trkpt>
      <trkpt lat="47.31503" lon="-2.36133">
        <ele>89</ele>
        <time>2019-08-18T08:10:31Z</time>
      </trkpt>
      <trkpt lat="47.31499" lon="-2.36137">
        <ele>89</ele>
        <time>2019-08-18T08:10:32Z</time>
      </trkpt>
      <trkpt lat="47.31495" lon="-2.36141">
        <ele>90</ele>
        <time>2019-08-18T08:10:33Z</time>
      </trkpt>
      <trkpt lat="47.31488" lon="-2.3615">
        <ele>89</ele>
        <time>2019-08-18T08:10:35Z</time>
      </trkpt>
      <trkpt lat="47.31481" lon="-2.36159">
        <ele>90</ele>
        <time>2019-08-18T08:10:37Z</time>
      </trkpt>
      <trkpt lat="47.31478" lon="-2.36163">
        <ele>90</ele>
        <time>2019-08-18T08:10:38Z</time>
      </trkpt>
      <trkpt lat="47.31474" lon="-2.36166">
        <ele>90</ele>
        <time>2019-08-18T08:10:39Z</time>
      </trkpt>
      <trkpt lat="47.31468" lon="-2.36174">
        <ele>89</ele>
        <time>2019-08-18T08:10:41Z</time>
      </trkpt>
      <trkpt lat="47.3146" lon="-2.36186">
        <ele>90</ele>
        <time>2019-08-18T08:10:45Z</time>
      </trkpt>
      <trkpt lat="47.31459" lon="-2.36189">
        <ele>89</ele>
        <time>2019-08-18T08:10:49Z</time>
      </trkpt>
      <trkpt lat="47.31462" lon="-2.36203">
        <ele>90</ele>
        <time>2019-08-18T08:11:34Z</time>
      </trkpt>
      <trkpt lat="47.31463" lon="-2.36207">
        <ele>90</ele>
        <time>2019-08-18T08:11:35Z</time>
      </trkpt>
      <trkpt lat="47.31464" lon="-2.36212">
        <ele>90</ele>
        <time>2019-08-18T08:11:36Z</time>
      </trkpt>
      <trkpt lat="47.31465" lon="-2.36218">
        <ele>90</ele>
        <time>2019-08-18T08:11:37Z</time>
      </trkpt>
      <trkpt lat="47.31466" lon="-2.36223">
        <ele>90</ele>
        <time>2019-08-18T08:11:38Z</time>
      </trkpt>
      <trkpt lat="47.3147" lon="-2.36241">
        <ele>89</ele>
        <time>2019-08-18T08:11:41Z</time>
      </trkpt>
      <trkpt lat="47.31471" lon="-2.36248">
        <ele>89</ele>
        <time>2019-08-18T08:11:42Z</time>
      </trkpt>
      <trkpt lat="47.31475" lon="-2.36258">
        <ele>89</ele>
        <time>2019-08-18T08:11:44Z</time>
      </trkpt>
      <trkpt lat="47.31477" lon="-2.36264">
        <ele>89</ele>
        <time>2019-08-18T08:11:45Z</time>
      </trkpt>
      <trkpt lat="47.31478" lon="-2.36271">
        <ele>88</ele>
        <time>2019-08-18T08:11:46Z</time>
      </trkpt>
      <trkpt lat="47.31484" lon="-2.36299">
        <ele>88</ele>
        <time>2019-08-18T08:11:50Z</time>
      </trkpt>
      <trkpt lat="47.31486" lon="-2.36306">
        <ele>88</ele>
        <time>2019-08-18T08:11:51Z</time>
      </trkpt>
      <trkpt lat="47.31488" lon="-2.36313">
        <ele>87</ele>
        <time>2019-08-18T08:11:52Z</time>
      </trkpt>
      <trkpt lat="47.31488" lon="-2.3632">
        <ele>86</ele>
        <time>2019-08-18T08:11:53Z</time>
      </trkpt>
      <trkpt lat="47.3149" lon="-2.36343">
        <ele>86</ele>
        <time>2019-08-18T08:11:56Z</time>
      </trkpt>
      <trkpt lat="47.31491" lon="-2.3635">
        <ele>86</ele>
        <time>2019-08-18T08:11:57Z</time>
      </trkpt>
      <trkpt lat="47.31491" lon="-2.36357">
        <ele>86</ele>
        <time>2019-08-18T08:11:58Z</time>
      </trkpt>
      <trkpt lat="47.31491" lon="-2.36364">
        <ele>85</ele>
        <time>2019-08-18T08:11:59Z</time>
      </trkpt>
      <trkpt lat="47.3149" lon="-2.36371">
        <ele>86</ele>
        <time>2019-08-18T08:12:00Z</time>
      </trkpt>
      <trkpt lat="47.31491" lon="-2.36384">
        <ele>85</ele>
        <time>2019-08-18T08:12:02Z</time>
      </trkpt>
      <trkpt lat="47.31491" lon="-2.36392">
        <ele>85</ele>
        <time>2019-08-18T08:12:03Z</time>
      </trkpt>
      <trkpt lat="47.3149" lon="-2.36399">
        <ele>85</ele>
        <time>2019-08-18T08:12:04Z</time>
      </trkpt>
      <trkpt lat="47.31491" lon="-2.36406">
        <ele>85</ele>
        <time>2019-08-18T08:12:05Z</time>
      </trkpt>
      <trkpt lat="47.31491" lon="-2.36413">
        <ele>85</ele>
        <time>2019-08-18T08:12:06Z</time>
      </trkpt>
      <trkpt lat="47.31491" lon="-2.36427">
        <ele>84</ele>
        <time>2019-08-18T08:12:08Z</time>
      </trkpt>
      <trkpt lat="47.31491" lon="-2.36434">
        <ele>84</ele>
        <time>2019-08-18T08:12:09Z</time>
      </trkpt>
      <trkpt lat="47.31493" lon="-2.36442">
        <ele>83</ele>
        <time>2019-08-18T08:12:11Z</time>
      </trkpt>
      <trkpt lat="47.31494" lon="-2.36457">
        <ele>84</ele>
        <time>2019-08-18T08:12:14Z</time>
      </trkpt>
      <trkpt lat="47.31496" lon="-2.36469">
        <ele>84</ele>
        <time>2019-08-18T08:12:16Z</time>
      </trkpt>
      <trkpt lat="47.31496" lon="-2.36474">
        <ele>84</ele>
        <time>2019-08-18T08:12:17Z</time>
      </trkpt>
      <trkpt lat="47.31496" lon="-2.36485">
        <ele>84</ele>
        <time>2019-08-18T08:12:19Z</time>
      </trkpt>
      <trkpt lat="47.31495" lon="-2.36492">
        <ele>84</ele>
        <time>2019-08-18T08:12:20Z</time>
      </trkpt>
      <trkpt lat="47.31494" lon="-2.36504">
        <ele>84</ele>
        <time>2019-08-18T08:12:22Z</time>
      </trkpt>
      <trkpt lat="47.31494" lon="-2.36509">
        <ele>84</ele>
        <time>2019-08-18T08:12:23Z</time>
      </trkpt>
      <trkpt lat="47.31495" lon="-2.36525">
        <ele>84</ele>
        <time>2019-08-18T08:12:26Z</time>
      </trkpt>
      <trkpt lat="47.31495" lon="-2.36531">
        <ele>84</ele>
        <time>2019-08-18T08:12:27Z</time>
      </trkpt>
      <trkpt lat="47.31494" lon="-2.36546">
        <ele>84</ele>
        <time>2019-08-18T08:12:30Z</time>
      </trkpt>
      <trkpt lat="47.31494" lon="-2.36562">
        <ele>84</ele>
        <time>2019-08-18T08:12:33Z</time>
      </trkpt>
      <trkpt lat="47.31495" lon="-2.36567">
        <ele>84</ele>
        <time>2019-08-18T08:12:34Z</time>
      </trkpt>
      <trkpt lat="47.31495" lon="-2.36572">
        <ele>84</ele>
        <time>2019-08-18T08:12:35Z</time>
      </trkpt>
      <trkpt lat="47.31495" lon="-2.36582">
        <ele>84</ele>
        <time>2019-08-18T08:12:37Z</time>
      </trkpt>
      <trkpt lat="47.31496" lon="-2.36608">
        <ele>84</ele>
        <time>2019-08-18T08:12:41Z</time>
      </trkpt>
      <trkpt lat="47.31497" lon="-2.36615">
        <ele>84</ele>
        <time>2019-08-18T08:12:42Z</time>
      </trkpt>
      <trkpt lat="47.31501" lon="-2.36628">
        <ele>85</ele>
        <time>2019-08-18T08:12:44Z</time>
      </trkpt>
      <trkpt lat="47.31503" lon="-2.36633">
        <ele>85</ele>
        <time>2019-08-18T08:12:45Z</time>
      </trkpt>
      <trkpt lat="47.31506" lon="-2.36639">
        <ele>85</ele>
        <time>2019-08-18T08:12:46Z</time>
      </trkpt>
      <trkpt lat="47.31508" lon="-2.36658">
        <ele>84</ele>
        <time>2019-08-18T08:12:49Z</time>
      </trkpt>
      <trkpt lat="47.31509" lon="-2.36664">
        <ele>84</ele>
        <time>2019-08-18T08:12:50Z</time>
      </trkpt>
      <trkpt lat="47.3151" lon="-2.3667">
        <ele>84</ele>
        <time>2019-08-18T08:12:51Z</time>
      </trkpt>
      <trkpt lat="47.31514" lon="-2.36682">
        <ele>84</ele>
        <time>2019-08-18T08:12:53Z</time>
      </trkpt>
      <trkpt lat="47.31515" lon="-2.36688">
        <ele>84</ele>
        <time>2019-08-18T08:12:54Z</time>
      </trkpt>
      <trkpt lat="47.31518" lon="-2.36694">
        <ele>84</ele>
        <time>2019-08-18T08:12:55Z</time>
      </trkpt>
      <trkpt lat="47.31523" lon="-2.36711">
        <ele>83</ele>
        <time>2019-08-18T08:12:58Z</time>
      </trkpt>
      <trkpt lat="47.31524" lon="-2.36718">
        <ele>83</ele>
        <time>2019-08-18T08:12:59Z</time>
      </trkpt>
      <trkpt lat="47.31525" lon="-2.36723">
        <ele>82</ele>
        <time>2019-08-18T08:13:00Z</time>
      </trkpt>
      <trkpt lat="47.31527" lon="-2.3673">
        <ele>82</ele>
        <time>2019-08-18T08:13:01Z</time>
      </trkpt>
      <trkpt lat="47.3153" lon="-2.36742">
        <ele>82</ele>
        <time>2019-08-18T08:13:03Z</time>
      </trkpt>
      <trkpt lat="47.31533" lon="-2.36754">
        <ele>81</ele>
        <time>2019-08-18T08:13:05Z</time>
      </trkpt>
      <trkpt lat="47.31534" lon="-2.3676">
        <ele>82</ele>
        <time>2019-08-18T08:13:06Z</time>
      </trkpt>
      <trkpt lat="47.31536" lon="-2.36767">
        <ele>82</ele>
        <time>2019-08-18T08:13:07Z</time>
      </trkpt>
      <trkpt lat="47.31538" lon="-2.36779">
        <ele>82</ele>
        <time>2019-08-18T08:13:09Z</time>
      </trkpt>
      <trkpt lat="47.3154" lon="-2.36786">
        <ele>81</ele>
        <time>2019-08-18T08:13:10Z</time>
      </trkpt>
      <trkpt lat="47.31542" lon="-2.36792">
        <ele>81</ele>
        <time>2019-08-18T08:13:11Z</time>
      </trkpt>
      <trkpt lat="47.31545" lon="-2.36803">
        <ele>82</ele>
        <time>2019-08-18T08:13:13Z</time>
      </trkpt>
      <trkpt lat="47.31548" lon="-2.36816">
        <ele>82</ele>
        <time>2019-08-18T08:13:15Z</time>
      </trkpt>
      <trkpt lat="47.3155" lon="-2.36821">
        <ele>83</ele>
        <time>2019-08-18T08:13:16Z</time>
      </trkpt>
      <trkpt lat="47.31551" lon="-2.36825">
        <ele>83</ele>
        <time>2019-08-18T08:13:17Z</time>
      </trkpt>
      <trkpt lat="47.31555" lon="-2.36836">
        <ele>83</ele>
        <time>2019-08-18T08:13:19Z</time>
      </trkpt>
      <trkpt lat="47.31557" lon="-2.36842">
        <ele>83</ele>
        <time>2019-08-18T08:13:20Z</time>
      </trkpt>
      <trkpt lat="47.31562" lon="-2.36859">
        <ele>83</ele>
        <time>2019-08-18T08:13:23Z</time>
      </trkpt>
      <trkpt lat="47.31563" lon="-2.36864">
        <ele>84</ele>
        <time>2019-08-18T08:13:24Z</time>
      </trkpt>
      <trkpt lat="47.31567" lon="-2.36876">
        <ele>85</ele>
        <time>2019-08-18T08:13:26Z</time>
      </trkpt>
      <trkpt lat="47.31569" lon="-2.36882">
        <ele>85</ele>
        <time>2019-08-18T08:13:27Z</time>
      </trkpt>
      <trkpt lat="47.31571" lon="-2.36887">
        <ele>84</ele>
        <time>2019-08-18T08:13:28Z</time>
      </trkpt>
      <trkpt lat="47.31574" lon="-2.36899">
        <ele>85</ele>
        <time>2019-08-18T08:13:30Z</time>
      </trkpt>
      <trkpt lat="47.31576" lon="-2.36905">
        <ele>85</ele>
        <time>2019-08-18T08:13:31Z</time>
      </trkpt>
      <trkpt lat="47.31578" lon="-2.36911">
        <ele>86</ele>
        <time>2019-08-18T08:13:32Z</time>
      </trkpt>
      <trkpt lat="47.31579" lon="-2.36917">
        <ele>85</ele>
        <time>2019-08-18T08:13:33Z</time>
      </trkpt>
      <trkpt lat="47.31581" lon="-2.36923">
        <ele>85</ele>
        <time>2019-08-18T08:13:34Z</time>
      </trkpt>
      <trkpt lat="47.31583" lon="-2.36928">
        <ele>85</ele>
        <time>2019-08-18T08:13:35Z</time>
      </trkpt>
      <trkpt lat="47.31584" lon="-2.36933">
        <ele>85</ele>
        <time>2019-08-18T08:13:36Z</time>
      </trkpt>
      <trkpt lat="47.31587" lon="-2.36939">
        <ele>86</ele>
        <time>2019-08-18T08:13:37Z</time>
      </trkpt>
      <trkpt lat="47.31593" lon="-2.36956">
        <ele>87</ele>
        <time>2019-08-18T08:13:40Z</time>
      </trkpt>
      <trkpt lat="47.31595" lon="-2.36963">
        <ele>87</ele>
        <time>2019-08-18T08:13:41Z</time>
      </trkpt>
      <trkpt lat="47.31597" lon="-2.36969">
        <ele>87</ele>
        <time>2019-08-18T08:13:42Z</time>
      </trkpt>
      <trkpt lat="47.31599" lon="-2.36975">
        <ele>88</ele>
        <time>2019-08-18T08:13:43Z</time>
      </trkpt>
      <trkpt lat="47.31603" lon="-2.36988">
        <ele>88</ele>
        <time>2019-08-18T08:13:45Z</time>
      </trkpt>
      <trkpt lat="47.31604" lon="-2.36993">
        <ele>88</ele>
        <time>2019-08-18T08:13:46Z</time>
      </trkpt>
      <trkpt lat="47.31608" lon="-2.37005">
        <ele>88</ele>
        <time>2019-08-18T08:13:48Z</time>
      </trkpt>
      <trkpt lat="47.31611" lon="-2.37018">
        <ele>88</ele>
        <time>2019-08-18T08:13:50Z</time>
      </trkpt>
      <trkpt lat="47.31614" lon="-2.3703">
        <ele>88</ele>
        <time>2019-08-18T08:13:52Z</time>
      </trkpt>
      <trkpt lat="47.31618" lon="-2.37041">
        <ele>88</ele>
        <time>2019-08-18T08:13:54Z</time>
      </trkpt>
      <trkpt lat="47.31623" lon="-2.37052">
        <ele>89</ele>
        <time>2019-08-18T08:13:56Z</time>
      </trkpt>
      <trkpt lat="47.31625" lon="-2.37057">
        <ele>89</ele>
        <time>2019-08-18T08:13:57Z</time>
      </trkpt>
      <trkpt lat="47.31627" lon="-2.37062">
        <ele>89</ele>
        <time>2019-08-18T08:13:58Z</time>
      </trkpt>
      <trkpt lat="47.3163" lon="-2.37067">
        <ele>89</ele>
        <time>2019-08-18T08:13:59Z</time>
      </trkpt>
      <trkpt lat="47.31633" lon="-2.37073">
        <ele>90</ele>
        <time>2019-08-18T08:14:00Z</time>
      </trkpt>
      <trkpt lat="47.31635" lon="-2.37078">
        <ele>90</ele>
        <time>2019-08-18T08:14:01Z</time>
      </trkpt>
      <trkpt lat="47.31639" lon="-2.37084">
        <ele>90</ele>
        <time>2019-08-18T08:14:02Z</time>
      </trkpt>
      <trkpt lat="47.31642" lon="-2.3709">
        <ele>90</ele>
        <time>2019-08-18T08:14:03Z</time>
      </trkpt>
      <trkpt lat="47.31646" lon="-2.37096">
        <ele>90</ele>
        <time>2019-08-18T08:14:04Z</time>
      </trkpt>
      <trkpt lat="47.31657" lon="-2.37121">
        <ele>91</ele>
        <time>2019-08-18T08:14:08Z</time>
      </trkpt>
      <trkpt lat="47.31661" lon="-2.37127">
        <ele>91</ele>
        <time>2019-08-18T08:14:09Z</time>
      </trkpt>
      <trkpt lat="47.31666" lon="-2.37138">
        <ele>92</ele>
        <time>2019-08-18T08:14:11Z</time>
      </trkpt>
      <trkpt lat="47.31675" lon="-2.37153">
        <ele>92</ele>
        <time>2019-08-18T08:14:14Z</time>
      </trkpt>
      <trkpt lat="47.31678" lon="-2.37159">
        <ele>93</ele>
        <time>2019-08-18T08:14:15Z</time>
      </trkpt>
      <trkpt lat="47.31681" lon="-2.37165">
        <ele>93</ele>
        <time>2019-08-18T08:14:16Z</time>
      </trkpt>
      <trkpt lat="47.31684" lon="-2.37173">
        <ele>93</ele>
        <time>2019-08-18T08:14:17Z</time>
      </trkpt>
      <trkpt lat="47.31687" lon="-2.3718">
        <ele>93</ele>
        <time>2019-08-18T08:14:18Z</time>
      </trkpt>
      <trkpt lat="47.31692" lon="-2.37196">
        <ele>93</ele>
        <time>2019-08-18T08:14:20Z</time>
      </trkpt>
      <trkpt lat="47.31692" lon="-2.37204">
        <ele>93</ele>
        <time>2019-08-18T08:14:21Z</time>
      </trkpt>
      <trkpt lat="47.3169" lon="-2.37212">
        <ele>93</ele>
        <time>2019-08-18T08:14:22Z</time>
      </trkpt>
      <trkpt lat="47.31688" lon="-2.3722">
        <ele>92</ele>
        <time>2019-08-18T08:14:23Z</time>
      </trkpt>
      <trkpt lat="47.31685" lon="-2.37226">
        <ele>92</ele>
        <time>2019-08-18T08:14:24Z</time>
      </trkpt>
      <trkpt lat="47.31683" lon="-2.37232">
        <ele>91</ele>
        <time>2019-08-18T08:14:25Z</time>
      </trkpt>
      <trkpt lat="47.31678" lon="-2.37237">
        <ele>92</ele>
        <time>2019-08-18T08:14:26Z</time>
      </trkpt>
      <trkpt lat="47.31673" lon="-2.37242">
        <ele>92</ele>
        <time>2019-08-18T08:14:27Z</time>
      </trkpt>
      <trkpt lat="47.31669" lon="-2.37248">
        <ele>92</ele>
        <time>2019-08-18T08:14:28Z</time>
      </trkpt>
      <trkpt lat="47.31664" lon="-2.37253">
        <ele>92</ele>
        <time>2019-08-18T08:14:29Z</time>
      </trkpt>
      <trkpt lat="47.31659" lon="-2.37258">
        <ele>91</ele>
        <time>2019-08-18T08:14:30Z</time>
      </trkpt>
      <trkpt lat="47.3165" lon="-2.37267">
        <ele>91</ele>
        <time>2019-08-18T08:14:32Z</time>
      </trkpt>
      <trkpt lat="47.31634" lon="-2.37278">
        <ele>91</ele>
        <time>2019-08-18T08:14:35Z</time>
      </trkpt>
      <trkpt lat="47.31629" lon="-2.37283">
        <ele>91</ele>
        <time>2019-08-18T08:14:36Z</time>
      </trkpt>
      <trkpt lat="47.31625" lon="-2.3729">
        <ele>91</ele>
        <time>2019-08-18T08:14:37Z</time>
      </trkpt>
      <trkpt lat="47.31622" lon="-2.37298">
        <ele>91</ele>
        <time>2019-08-18T08:14:38Z</time>
      </trkpt>
      <trkpt lat="47.31621" lon="-2.37318">
        <ele>91</ele>
        <time>2019-08-18T08:14:40Z</time>
      </trkpt>
      <trkpt lat="47.31621" lon="-2.37327">
        <ele>91</ele>
        <time>2019-08-18T08:14:41Z</time>
      </trkpt>
      <trkpt lat="47.31622" lon="-2.37337">
        <ele>90</ele>
        <time>2019-08-18T08:14:42Z</time>
      </trkpt>
      <trkpt lat="47.31628" lon="-2.37364">
        <ele>90</ele>
        <time>2019-08-18T08:14:45Z</time>
      </trkpt>
      <trkpt lat="47.31629" lon="-2.37372">
        <ele>90</ele>
        <time>2019-08-18T08:14:46Z</time>
      </trkpt>
      <trkpt lat="47.31631" lon="-2.37381">
        <ele>90</ele>
        <time>2019-08-18T08:14:47Z</time>
      </trkpt>
      <trkpt lat="47.31633" lon="-2.3739">
        <ele>90</ele>
        <time>2019-08-18T08:14:48Z</time>
      </trkpt>
      <trkpt lat="47.31636" lon="-2.37416">
        <ele>91</ele>
        <time>2019-08-18T08:14:51Z</time>
      </trkpt>
      <trkpt lat="47.31636" lon="-2.37425">
        <ele>91</ele>
        <time>2019-08-18T08:14:52Z</time>
      </trkpt>
      <trkpt lat="47.31636" lon="-2.37434">
        <ele>90</ele>
        <time>2019-08-18T08:14:53Z</time>
      </trkpt>
      <trkpt lat="47.31636" lon="-2.37443">
        <ele>90</ele>
        <time>2019-08-18T08:14:54Z</time>
      </trkpt>
      <trkpt lat="47.31637" lon="-2.37451">
        <ele>90</ele>
        <time>2019-08-18T08:14:55Z</time>
      </trkpt>
      <trkpt lat="47.31637" lon="-2.3746">
        <ele>91</ele>
        <time>2019-08-18T08:14:56Z</time>
      </trkpt>
      <trkpt lat="47.31638" lon="-2.37469">
        <ele>91</ele>
        <time>2019-08-18T08:14:57Z</time>
      </trkpt>
      <trkpt lat="47.31639" lon="-2.37478">
        <ele>91</ele>
        <time>2019-08-18T08:14:58Z</time>
      </trkpt>
      <trkpt lat="47.31639" lon="-2.37486">
        <ele>91</ele>
        <time>2019-08-18T08:14:59Z</time>
      </trkpt>
      <trkpt lat="47.31638" lon="-2.37495">
        <ele>91</ele>
        <time>2019-08-18T08:15:00Z</time>
      </trkpt>
      <trkpt lat="47.31636" lon="-2.37504">
        <ele>91</ele>
        <time>2019-08-18T08:15:01Z</time>
      </trkpt>
      <trkpt lat="47.31634" lon="-2.37513">
        <ele>90</ele>
        <time>2019-08-18T08:15:02Z</time>
      </trkpt>
      <trkpt lat="47.31632" lon="-2.37522">
        <ele>90</ele>
        <time>2019-08-18T08:15:03Z</time>
      </trkpt>
      <trkpt lat="47.31629" lon="-2.3753">
        <ele>89</ele>
        <time>2019-08-18T08:15:04Z</time>
      </trkpt>
      <trkpt lat="47.31626" lon="-2.37538">
        <ele>89</ele>
        <time>2019-08-18T08:15:05Z</time>
      </trkpt>
      <trkpt lat="47.31623" lon="-2.37546">
        <ele>89</ele>
        <time>2019-08-18T08:15:06Z</time>
      </trkpt>
      <trkpt lat="47.3162" lon="-2.37554">
        <ele>89</ele>
        <time>2019-08-18T08:15:07Z</time>
      </trkpt>
      <trkpt lat="47.31614" lon="-2.37591">
        <ele>88</ele>
        <time>2019-08-18T08:15:11Z</time>
      </trkpt>
      <trkpt lat="47.31614" lon="-2.376">
        <ele>89</ele>
        <time>2019-08-18T08:15:12Z</time>
      </trkpt>
      <trkpt lat="47.31615" lon="-2.37609">
        <ele>89</ele>
        <time>2019-08-18T08:15:13Z</time>
      </trkpt>
      <trkpt lat="47.31616" lon="-2.37619">
        <ele>89</ele>
        <time>2019-08-18T08:15:14Z</time>
      </trkpt>
      <trkpt lat="47.31622" lon="-2.37646">
        <ele>89</ele>
        <time>2019-08-18T08:15:17Z</time>
      </trkpt>
      <trkpt lat="47.31626" lon="-2.37651">
        <ele>89</ele>
        <time>2019-08-18T08:15:18Z</time>
      </trkpt>
      <trkpt lat="47.31631" lon="-2.37656">
        <ele>90</ele>
        <time>2019-08-18T08:15:19Z</time>
      </trkpt>
      <trkpt lat="47.31637" lon="-2.37659">
        <ele>89</ele>
        <time>2019-08-18T08:15:20Z</time>
      </trkpt>
      <trkpt lat="47.31642" lon="-2.37662">
        <ele>89</ele>
        <time>2019-08-18T08:15:21Z</time>
      </trkpt>
      <trkpt lat="47.31647" lon="-2.37665">
        <ele>89</ele>
        <time>2019-08-18T08:15:22Z</time>
      </trkpt>
      <trkpt lat="47.31652" lon="-2.37668">
        <ele>89</ele>
        <time>2019-08-18T08:15:23Z</time>
      </trkpt>
      <trkpt lat="47.31657" lon="-2.37673">
        <ele>89</ele>
        <time>2019-08-18T08:15:24Z</time>
      </trkpt>
      <trkpt lat="47.31662" lon="-2.37677">
        <ele>89</ele>
        <time>2019-08-18T08:15:25Z</time>
      </trkpt>
      <trkpt lat="47.31666" lon="-2.37682">
        <ele>89</ele>
        <time>2019-08-18T08:15:26Z</time>
      </trkpt>
      <trkpt lat="47.3167" lon="-2.37687">
        <ele>89</ele>
        <time>2019-08-18T08:15:27Z</time>
      </trkpt>
      <trkpt lat="47.31674" lon="-2.37693">
        <ele>89</ele>
        <time>2019-08-18T08:15:28Z</time>
      </trkpt>
      <trkpt lat="47.31679" lon="-2.37699">
        <ele>89</ele>
        <time>2019-08-18T08:15:29Z</time>
      </trkpt>
      <trkpt lat="47.31683" lon="-2.37704">
        <ele>89</ele>
        <time>2019-08-18T08:15:30Z</time>
      </trkpt>
      <trkpt lat="47.31688" lon="-2.37708">
        <ele>89</ele>
        <time>2019-08-18T08:15:31Z</time>
      </trkpt>
      <trkpt lat="47.31693" lon="-2.37711">
        <ele>89</ele>
        <time>2019-08-18T08:15:32Z</time>
      </trkpt>
      <trkpt lat="47.31699" lon="-2.37713">
        <ele>89</ele>
        <time>2019-08-18T08:15:33Z</time>
      </trkpt>
      <trkpt lat="47.31705" lon="-2.37715">
        <ele>89</ele>
        <time>2019-08-18T08:15:34Z</time>
      </trkpt>
      <trkpt lat="47.31716" lon="-2.37716">
        <ele>90</ele>
        <time>2019-08-18T08:15:36Z</time>
      </trkpt>
      <trkpt lat="47.31722" lon="-2.37714">
        <ele>89</ele>
        <time>2019-08-18T08:15:37Z</time>
      </trkpt>
      <trkpt lat="47.31727" lon="-2.37713">
        <ele>89</ele>
        <time>2019-08-18T08:15:38Z</time>
      </trkpt>
      <trkpt lat="47.31733" lon="-2.3771">
        <ele>89</ele>
        <time>2019-08-18T08:15:39Z</time>
      </trkpt>
      <trkpt lat="47.31738" lon="-2.37707">
        <ele>89</ele>
        <time>2019-08-18T08:15:40Z</time>
      </trkpt>
      <trkpt lat="47.31744" lon="-2.37704">
        <ele>89</ele>
        <time>2019-08-18T08:15:41Z</time>
      </trkpt>
      <trkpt lat="47.31755" lon="-2.37696">
        <ele>90</ele>
        <time>2019-08-18T08:15:43Z</time>
      </trkpt>
      <trkpt lat="47.31759" lon="-2.37693">
        <ele>90</ele>
        <time>2019-08-18T08:15:44Z</time>
      </trkpt>
      <trkpt lat="47.31764" lon="-2.37689">
        <ele>90</ele>
        <time>2019-08-18T08:15:45Z</time>
      </trkpt>
      <trkpt lat="47.31769" lon="-2.37684">
        <ele>90</ele>
        <time>2019-08-18T08:15:46Z</time>
      </trkpt>
      <trkpt lat="47.31784" lon="-2.3767">
        <ele>89</ele>
        <time>2019-08-18T08:15:49Z</time>
      </trkpt>
      <trkpt lat="47.31794" lon="-2.37662">
        <ele>89</ele>
        <time>2019-08-18T08:15:51Z</time>
      </trkpt>
      <trkpt lat="47.31798" lon="-2.3766">
        <ele>88</ele>
        <time>2019-08-18T08:15:52Z</time>
      </trkpt>
      <trkpt lat="47.31803" lon="-2.37657">
        <ele>88</ele>
        <time>2019-08-18T08:15:53Z</time>
      </trkpt>
      <trkpt lat="47.31807" lon="-2.37654">
        <ele>88</ele>
        <time>2019-08-18T08:15:54Z</time>
      </trkpt>
      <trkpt lat="47.31815" lon="-2.37651">
        <ele>89</ele>
        <time>2019-08-18T08:15:56Z</time>
      </trkpt>
      <trkpt lat="47.31823" lon="-2.3766">
        <ele>89</ele>
        <time>2019-08-18T08:15:59Z</time>
      </trkpt>
      <trkpt lat="47.31823" lon="-2.37672">
        <ele>89</ele>
        <time>2019-08-18T08:16:01Z</time>
      </trkpt>
      <trkpt lat="47.31821" lon="-2.37685">
        <ele>89</ele>
        <time>2019-08-18T08:16:03Z</time>
      </trkpt>
      <trkpt lat="47.31821" lon="-2.37691">
        <ele>89</ele>
        <time>2019-08-18T08:16:04Z</time>
      </trkpt>
      <trkpt lat="47.31819" lon="-2.37698">
        <ele>89</ele>
        <time>2019-08-18T08:16:05Z</time>
      </trkpt>
      <trkpt lat="47.31816" lon="-2.37722">
        <ele>88</ele>
        <time>2019-08-18T08:16:08Z</time>
      </trkpt>
      <trkpt lat="47.31816" lon="-2.3773">
        <ele>88</ele>
        <time>2019-08-18T08:16:09Z</time>
      </trkpt>
      <trkpt lat="47.31815" lon="-2.37738">
        <ele>88</ele>
        <time>2019-08-18T08:16:10Z</time>
      </trkpt>
      <trkpt lat="47.31815" lon="-2.37746">
        <ele>88</ele>
        <time>2019-08-18T08:16:11Z</time>
      </trkpt>
      <trkpt lat="47.31814" lon="-2.37754">
        <ele>88</ele>
        <time>2019-08-18T08:16:12Z</time>
      </trkpt>
      <trkpt lat="47.31812" lon="-2.3777">
        <ele>87</ele>
        <time>2019-08-18T08:16:14Z</time>
      </trkpt>
      <trkpt lat="47.31812" lon="-2.37778">
        <ele>87</ele>
        <time>2019-08-18T08:16:15Z</time>
      </trkpt>
      <trkpt lat="47.31811" lon="-2.37786">
        <ele>87</ele>
        <time>2019-08-18T08:16:16Z</time>
      </trkpt>
      <trkpt lat="47.3181" lon="-2.37801">
        <ele>86</ele>
        <time>2019-08-18T08:16:18Z</time>
      </trkpt>
      <trkpt lat="47.31809" lon="-2.37809">
        <ele>86</ele>
        <time>2019-08-18T08:16:19Z</time>
      </trkpt>
      <trkpt lat="47.31808" lon="-2.37818">
        <ele>86</ele>
        <time>2019-08-18T08:16:20Z</time>
      </trkpt>
      <trkpt lat="47.31807" lon="-2.37825">
        <ele>86</ele>
        <time>2019-08-18T08:16:21Z</time>
      </trkpt>
      <trkpt lat="47.31805" lon="-2.37833">
        <ele>86</ele>
        <time>2019-08-18T08:16:22Z</time>
      </trkpt>
      <trkpt lat="47.31804" lon="-2.37841">
        <ele>86</ele>
        <time>2019-08-18T08:16:23Z</time>
      </trkpt>
      <trkpt lat="47.31803" lon="-2.37849">
        <ele>86</ele>
        <time>2019-08-18T08:16:24Z</time>
      </trkpt>
      <trkpt lat="47.31802" lon="-2.37858">
        <ele>86</ele>
        <time>2019-08-18T08:16:25Z</time>
      </trkpt>
      <trkpt lat="47.31802" lon="-2.37866">
        <ele>86</ele>
        <time>2019-08-18T08:16:26Z</time>
      </trkpt>
      <trkpt lat="47.31801" lon="-2.37874">
        <ele>86</ele>
        <time>2019-08-18T08:16:27Z</time>
      </trkpt>
      <trkpt lat="47.31801" lon="-2.37882">
        <ele>86</ele>
        <time>2019-08-18T08:16:28Z</time>
      </trkpt>
      <trkpt lat="47.318" lon="-2.37891">
        <ele>86</ele>
        <time>2019-08-18T08:16:29Z</time>
      </trkpt>
      <trkpt lat="47.31799" lon="-2.379">
        <ele>85</ele>
        <time>2019-08-18T08:16:30Z</time>
      </trkpt>
      <trkpt lat="47.31799" lon="-2.37909">
        <ele>85</ele>
        <time>2019-08-18T08:16:31Z</time>
      </trkpt>
      <trkpt lat="47.31798" lon="-2.37917">
        <ele>85</ele>
        <time>2019-08-18T08:16:32Z</time>
      </trkpt>
      <trkpt lat="47.31796" lon="-2.37935">
        <ele>84</ele>
        <time>2019-08-18T08:16:34Z</time>
      </trkpt>
      <trkpt lat="47.31795" lon="-2.37944">
        <ele>84</ele>
        <time>2019-08-18T08:16:35Z</time>
      </trkpt>
      <trkpt lat="47.31795" lon="-2.37972">
        <ele>84</ele>
        <time>2019-08-18T08:16:38Z</time>
      </trkpt>
      <trkpt lat="47.31795" lon="-2.37982">
        <ele>83</ele>
        <time>2019-08-18T08:16:39Z</time>
      </trkpt>
      <trkpt lat="47.31795" lon="-2.37991">
        <ele>83</ele>
        <time>2019-08-18T08:16:40Z</time>
      </trkpt>
      <trkpt lat="47.31796" lon="-2.38032">
        <ele>82</ele>
        <time>2019-08-18T08:16:43Z</time>
      </trkpt>
      <trkpt lat="47.31796" lon="-2.38043">
        <ele>82</ele>
        <time>2019-08-18T08:16:44Z</time>
      </trkpt>
      <trkpt lat="47.31797" lon="-2.38053">
        <ele>83</ele>
        <time>2019-08-18T08:16:45Z</time>
      </trkpt>
      <trkpt lat="47.31799" lon="-2.38074">
        <ele>83</ele>
        <time>2019-08-18T08:16:47Z</time>
      </trkpt>
      <trkpt lat="47.31799" lon="-2.38085">
        <ele>83</ele>
        <time>2019-08-18T08:16:48Z</time>
      </trkpt>
      <trkpt lat="47.31799" lon="-2.38095">
        <ele>83</ele>
        <time>2019-08-18T08:16:50Z</time>
      </trkpt>
      <trkpt lat="47.318" lon="-2.38104">
        <ele>83</ele>
        <time>2019-08-18T08:16:51Z</time>
      </trkpt>
      <trkpt lat="47.31801" lon="-2.38115">
        <ele>83</ele>
        <time>2019-08-18T08:16:52Z</time>
      </trkpt>
      <trkpt lat="47.31801" lon="-2.38124">
        <ele>83</ele>
        <time>2019-08-18T08:16:53Z</time>
      </trkpt>
      <trkpt lat="47.31801" lon="-2.38134">
        <ele>83</ele>
        <time>2019-08-18T08:16:54Z</time>
      </trkpt>
      <trkpt lat="47.31802" lon="-2.38143">
        <ele>82</ele>
        <time>2019-08-18T08:16:55Z</time>
      </trkpt>
      <trkpt lat="47.31804" lon="-2.38171">
        <ele>82</ele>
        <time>2019-08-18T08:16:58Z</time>
      </trkpt>
      <trkpt lat="47.31804" lon="-2.38181">
        <ele>82</ele>
        <time>2019-08-18T08:16:59Z</time>
      </trkpt>
      <trkpt lat="47.31805" lon="-2.3819">
        <ele>83</ele>
        <time>2019-08-18T08:17:00Z</time>
      </trkpt>
      <trkpt lat="47.31806" lon="-2.38209">
        <ele>82</ele>
        <time>2019-08-18T08:17:02Z</time>
      </trkpt>
      <trkpt lat="47.31806" lon="-2.38217">
        <ele>82</ele>
        <time>2019-08-18T08:17:03Z</time>
      </trkpt>
      <trkpt lat="47.31806" lon="-2.38227">
        <ele>83</ele>
        <time>2019-08-18T08:17:04Z</time>
      </trkpt>
      <trkpt lat="47.31806" lon="-2.38235">
        <ele>83</ele>
        <time>2019-08-18T08:17:05Z</time>
      </trkpt>
      <trkpt lat="47.31807" lon="-2.38245">
        <ele>83</ele>
        <time>2019-08-18T08:17:06Z</time>
      </trkpt>
      <trkpt lat="47.31807" lon="-2.38253">
        <ele>84</ele>
        <time>2019-08-18T08:17:07Z</time>
      </trkpt>
      <trkpt lat="47.31808" lon="-2.38262">
        <ele>84</ele>
        <time>2019-08-18T08:17:08Z</time>
      </trkpt>
      <trkpt lat="47.31808" lon="-2.3827">
        <ele>84</ele>
        <time>2019-08-18T08:17:09Z</time>
      </trkpt>
      <trkpt lat="47.31808" lon="-2.38279">
        <ele>84</ele>
        <time>2019-08-18T08:17:10Z</time>
      </trkpt>
      <trkpt lat="47.31809" lon="-2.38305">
        <ele>84</ele>
        <time>2019-08-18T08:17:13Z</time>
      </trkpt>
      <trkpt lat="47.31809" lon="-2.38314">
        <ele>85</ele>
        <time>2019-08-18T08:17:14Z</time>
      </trkpt>
      <trkpt lat="47.3181" lon="-2.38323">
        <ele>85</ele>
        <time>2019-08-18T08:17:15Z</time>
      </trkpt>
      <trkpt lat="47.3181" lon="-2.38332">
        <ele>85</ele>
        <time>2019-08-18T08:17:16Z</time>
      </trkpt>
      <trkpt lat="47.3181" lon="-2.38341">
        <ele>86</ele>
        <time>2019-08-18T08:17:17Z</time>
      </trkpt>
      <trkpt lat="47.3181" lon="-2.38349">
        <ele>86</ele>
        <time>2019-08-18T08:17:18Z</time>
      </trkpt>
      <trkpt lat="47.3181" lon="-2.38358">
        <ele>86</ele>
        <time>2019-08-18T08:17:19Z</time>
      </trkpt>
      <trkpt lat="47.3181" lon="-2.38367">
        <ele>86</ele>
        <time>2019-08-18T08:17:20Z</time>
      </trkpt>
      <trkpt lat="47.3181" lon="-2.38375">
        <ele>86</ele>
        <time>2019-08-18T08:17:21Z</time>
      </trkpt>
      <trkpt lat="47.3181" lon="-2.38392">
        <ele>87</ele>
        <time>2019-08-18T08:17:23Z</time>
      </trkpt>
      <trkpt lat="47.3181" lon="-2.38408">
        <ele>87</ele>
        <time>2019-08-18T08:17:25Z</time>
      </trkpt>
      <trkpt lat="47.3181" lon="-2.38424">
        <ele>87</ele>
        <time>2019-08-18T08:17:27Z</time>
      </trkpt>
      <trkpt lat="47.3181" lon="-2.38432">
        <ele>87</ele>
        <time>2019-08-18T08:17:28Z</time>
      </trkpt>
      <trkpt lat="47.3181" lon="-2.38449">
        <ele>88</ele>
        <time>2019-08-18T08:17:30Z</time>
      </trkpt>
      <trkpt lat="47.3181" lon="-2.38458">
        <ele>88</ele>
        <time>2019-08-18T08:17:31Z</time>
      </trkpt>
      <trkpt lat="47.3181" lon="-2.38466">
        <ele>88</ele>
        <time>2019-08-18T08:17:32Z</time>
      </trkpt>
      <trkpt lat="47.3181" lon="-2.38475">
        <ele>88</ele>
        <time>2019-08-18T08:17:33Z</time>
      </trkpt>
      <trkpt lat="47.31809" lon="-2.38483">
        <ele>88</ele>
        <time>2019-08-18T08:17:34Z</time>
      </trkpt>
      <trkpt lat="47.31809" lon="-2.38491">
        <ele>88</ele>
        <time>2019-08-18T08:17:35Z</time>
      </trkpt>
      <trkpt lat="47.31809" lon="-2.38498">
        <ele>88</ele>
        <time>2019-08-18T08:17:36Z</time>
      </trkpt>
      <trkpt lat="47.31809" lon="-2.38505">
        <ele>88</ele>
        <time>2019-08-18T08:17:37Z</time>
      </trkpt>
      <trkpt lat="47.31809" lon="-2.38511">
        <ele>88</ele>
        <time>2019-08-18T08:17:38Z</time>
      </trkpt>
      <trkpt lat="47.31809" lon="-2.38517">
        <ele>88</ele>
        <time>2019-08-18T08:17:39Z</time>
      </trkpt>
      <trkpt lat="47.31809" lon="-2.38523">
        <ele>88</ele>
        <time>2019-08-18T08:17:40Z</time>
      </trkpt>
      <trkpt lat="47.31809" lon="-2.38528">
        <ele>88</ele>
        <time>2019-08-18T08:17:41Z</time>
      </trkpt>
      <trkpt lat="47.31811" lon="-2.38537">
        <ele>89</ele>
        <time>2019-08-18T08:17:43Z</time>
      </trkpt>
      <trkpt lat="47.31817" lon="-2.38541">
        <ele>89</ele>
        <time>2019-08-18T08:17:45Z</time>
      </trkpt>
      <trkpt lat="47.31825" lon="-2.3854">
        <ele>89</ele>
        <time>2019-08-18T08:17:47Z</time>
      </trkpt>
      <trkpt lat="47.31829" lon="-2.38539">
        <ele>89</ele>
        <time>2019-08-18T08:17:48Z</time>
      </trkpt>
      <trkpt lat="47.31834" lon="-2.38538">
        <ele>89</ele>
        <time>2019-08-18T08:17:49Z</time>
      </trkpt>
      <trkpt lat="47.31838" lon="-2.38536">
        <ele>89</ele>
        <time>2019-08-18T08:17:50Z</time>
      </trkpt>
      <trkpt lat="47.31853" lon="-2.38531">
        <ele>89</ele>
        <time>2019-08-18T08:17:53Z</time>
      </trkpt>
      <trkpt lat="47.31858" lon="-2.38528">
        <ele>89</ele>
        <time>2019-08-18T08:17:54Z</time>
      </trkpt>
      <trkpt lat="47.31863" lon="-2.38526">
        <ele>89</ele>
        <time>2019-08-18T08:17:55Z</time>
      </trkpt>
      <trkpt lat="47.3187" lon="-2.38523">
        <ele>89</ele>
        <time>2019-08-18T08:17:56Z</time>
      </trkpt>
      <trkpt lat="47.31876" lon="-2.38521">
        <ele>89</ele>
        <time>2019-08-18T08:17:57Z</time>
      </trkpt>
      <trkpt lat="47.31881" lon="-2.38519">
        <ele>90</ele>
        <time>2019-08-18T08:17:58Z</time>
      </trkpt>
      <trkpt lat="47.31906" lon="-2.38506">
        <ele>89</ele>
        <time>2019-08-18T08:18:01Z</time>
      </trkpt>
      <trkpt lat="47.31923" lon="-2.38496">
        <ele>89</ele>
        <time>2019-08-18T08:18:04Z</time>
      </trkpt>
      <trkpt lat="47.31929" lon="-2.38493">
        <ele>88</ele>
        <time>2019-08-18T08:18:06Z</time>
      </trkpt>
      <trkpt lat="47.31941" lon="-2.38491">
        <ele>88</ele>
        <time>2019-08-18T08:18:08Z</time>
      </trkpt>
      <trkpt lat="47.31947" lon="-2.3849">
        <ele>88</ele>
        <time>2019-08-18T08:18:09Z</time>
      </trkpt>
      <trkpt lat="47.31958" lon="-2.38485">
        <ele>88</ele>
        <time>2019-08-18T08:18:11Z</time>
      </trkpt>
      <trkpt lat="47.31963" lon="-2.38484">
        <ele>88</ele>
        <time>2019-08-18T08:18:12Z</time>
      </trkpt>
      <trkpt lat="47.31969" lon="-2.38482">
        <ele>88</ele>
        <time>2019-08-18T08:18:13Z</time>
      </trkpt>
      <trkpt lat="47.31975" lon="-2.3848">
        <ele>88</ele>
        <time>2019-08-18T08:18:14Z</time>
      </trkpt>
      <trkpt lat="47.3198" lon="-2.38479">
        <ele>88</ele>
        <time>2019-08-18T08:18:15Z</time>
      </trkpt>
      <trkpt lat="47.31985" lon="-2.38477">
        <ele>88</ele>
        <time>2019-08-18T08:18:16Z</time>
      </trkpt>
      <trkpt lat="47.31991" lon="-2.38474">
        <ele>88</ele>
        <time>2019-08-18T08:18:17Z</time>
      </trkpt>
      <trkpt lat="47.31996" lon="-2.38472">
        <ele>88</ele>
        <time>2019-08-18T08:18:18Z</time>
      </trkpt>
      <trkpt lat="47.32001" lon="-2.38469">
        <ele>87</ele>
        <time>2019-08-18T08:18:19Z</time>
      </trkpt>
      <trkpt lat="47.32013" lon="-2.38464">
        <ele>87</ele>
        <time>2019-08-18T08:18:21Z</time>
      </trkpt>
      <trkpt lat="47.32019" lon="-2.38461">
        <ele>87</ele>
        <time>2019-08-18T08:18:22Z</time>
      </trkpt>
      <trkpt lat="47.32025" lon="-2.38459">
        <ele>87</ele>
        <time>2019-08-18T08:18:23Z</time>
      </trkpt>
      <trkpt lat="47.32042" lon="-2.3845">
        <ele>87</ele>
        <time>2019-08-18T08:18:26Z</time>
      </trkpt>
      <trkpt lat="47.32048" lon="-2.38448">
        <ele>86</ele>
        <time>2019-08-18T08:18:27Z</time>
      </trkpt>
      <trkpt lat="47.32055" lon="-2.38445">
        <ele>86</ele>
        <time>2019-08-18T08:18:28Z</time>
      </trkpt>
      <trkpt lat="47.32061" lon="-2.38443">
        <ele>86</ele>
        <time>2019-08-18T08:18:29Z</time>
      </trkpt>
      <trkpt lat="47.32081" lon="-2.38435">
        <ele>86</ele>
        <time>2019-08-18T08:18:32Z</time>
      </trkpt>
      <trkpt lat="47.32093" lon="-2.38429">
        <ele>86</ele>
        <time>2019-08-18T08:18:34Z</time>
      </trkpt>
      <trkpt lat="47.32099" lon="-2.38427">
        <ele>86</ele>
        <time>2019-08-18T08:18:35Z</time>
      </trkpt>
      <trkpt lat="47.32105" lon="-2.38425">
        <ele>86</ele>
        <time>2019-08-18T08:18:36Z</time>
      </trkpt>
      <trkpt lat="47.32116" lon="-2.3842">
        <ele>85</ele>
        <time>2019-08-18T08:18:38Z</time>
      </trkpt>
      <trkpt lat="47.32121" lon="-2.38419">
        <ele>85</ele>
        <time>2019-08-18T08:18:39Z</time>
      </trkpt>
      <trkpt lat="47.3213" lon="-2.38414">
        <ele>84</ele>
        <time>2019-08-18T08:18:41Z</time>
      </trkpt>
      <trkpt lat="47.32138" lon="-2.3841">
        <ele>84</ele>
        <time>2019-08-18T08:18:43Z</time>
      </trkpt>
      <trkpt lat="47.32142" lon="-2.38406">
        <ele>84</ele>
        <time>2019-08-18T08:18:44Z</time>
      </trkpt>
      <trkpt lat="47.3215" lon="-2.38394">
        <ele>84</ele>
        <time>2019-08-18T08:18:47Z</time>
      </trkpt>
      <trkpt lat="47.32155" lon="-2.38384">
        <ele>85</ele>
        <time>2019-08-18T08:18:49Z</time>
      </trkpt>
      <trkpt lat="47.3216" lon="-2.38374">
        <ele>85</ele>
        <time>2019-08-18T08:18:51Z</time>
      </trkpt>
      <trkpt lat="47.32168" lon="-2.38365">
        <ele>85</ele>
        <time>2019-08-18T08:18:54Z</time>
      </trkpt>
      <trkpt lat="47.3217" lon="-2.38363">
        <ele>86</ele>
        <time>2019-08-18T08:18:55Z</time>
      </trkpt>
      <trkpt lat="47.32174" lon="-2.38353">
        <ele>86</ele>
        <time>2019-08-18T08:18:57Z</time>
      </trkpt>
      <trkpt lat="47.32182" lon="-2.38341">
        <ele>85</ele>
        <time>2019-08-18T08:19:00Z</time>
      </trkpt>
      <trkpt lat="47.32185" lon="-2.38337">
        <ele>85</ele>
        <time>2019-08-18T08:19:01Z</time>
      </trkpt>
      <trkpt lat="47.32189" lon="-2.38331">
        <ele>85</ele>
        <time>2019-08-18T08:19:02Z</time>
      </trkpt>
      <trkpt lat="47.32194" lon="-2.38326">
        <ele>84</ele>
        <time>2019-08-18T08:19:03Z</time>
      </trkpt>
      <trkpt lat="47.32198" lon="-2.38321">
        <ele>84</ele>
        <time>2019-08-18T08:19:04Z</time>
      </trkpt>
      <trkpt lat="47.32202" lon="-2.38316">
        <ele>83</ele>
        <time>2019-08-18T08:19:05Z</time>
      </trkpt>
      <trkpt lat="47.32205" lon="-2.38309">
        <ele>82</ele>
        <time>2019-08-18T08:19:06Z</time>
      </trkpt>
      <trkpt lat="47.32209" lon="-2.38304">
        <ele>82</ele>
        <time>2019-08-18T08:19:07Z</time>
      </trkpt>
      <trkpt lat="47.32216" lon="-2.38297">
        <ele>82</ele>
        <time>2019-08-18T08:19:09Z</time>
      </trkpt>
      <trkpt lat="47.32224" lon="-2.38297">
        <ele>83</ele>
        <time>2019-08-18T08:19:11Z</time>
      </trkpt>
      <trkpt lat="47.32229" lon="-2.38298">
        <ele>83</ele>
        <time>2019-08-18T08:19:12Z</time>
      </trkpt>
      <trkpt lat="47.32234" lon="-2.38297">
        <ele>82</ele>
        <time>2019-08-18T08:19:13Z</time>
      </trkpt>
      <trkpt lat="47.32239" lon="-2.38296">
        <ele>83</ele>
        <time>2019-08-18T08:19:14Z</time>
      </trkpt>
      <trkpt lat="47.32245" lon="-2.38294">
        <ele>83</ele>
        <time>2019-08-18T08:19:15Z</time>
      </trkpt>
      <trkpt lat="47.3225" lon="-2.38292">
        <ele>83</ele>
        <time>2019-08-18T08:19:16Z</time>
      </trkpt>
      <trkpt lat="47.32255" lon="-2.38291">
        <ele>82</ele>
        <time>2019-08-18T08:19:17Z</time>
      </trkpt>
      <trkpt lat="47.32261" lon="-2.38291">
        <ele>82</ele>
        <time>2019-08-18T08:19:18Z</time>
      </trkpt>
      <trkpt lat="47.32266" lon="-2.3829">
        <ele>81</ele>
        <time>2019-08-18T08:19:19Z</time>
      </trkpt>
      <trkpt lat="47.3227" lon="-2.38289">
        <ele>81</ele>
        <time>2019-08-18T08:19:20Z</time>
      </trkpt>
      <trkpt lat="47.32275" lon="-2.3829">
        <ele>82</ele>
        <time>2019-08-18T08:19:21Z</time>
      </trkpt>
      <trkpt lat="47.3228" lon="-2.38291">
        <ele>81</ele>
        <time>2019-08-18T08:19:22Z</time>
      </trkpt>
      <trkpt lat="47.32285" lon="-2.38292">
        <ele>82</ele>
        <time>2019-08-18T08:19:23Z</time>
      </trkpt>
      <trkpt lat="47.3229" lon="-2.38294">
        <ele>82</ele>
        <time>2019-08-18T08:19:24Z</time>
      </trkpt>
      <trkpt lat="47.32298" lon="-2.38296">
        <ele>82</ele>
        <time>2019-08-18T08:19:26Z</time>
      </trkpt>
      <trkpt lat="47.32303" lon="-2.38297">
        <ele>82</ele>
        <time>2019-08-18T08:19:27Z</time>
      </trkpt>
      <trkpt lat="47.32308" lon="-2.38299">
        <ele>83</ele>
        <time>2019-08-18T08:19:28Z</time>
      </trkpt>
      <trkpt lat="47.32325" lon="-2.38308">
        <ele>84</ele>
        <time>2019-08-18T08:19:32Z</time>
      </trkpt>
      <trkpt lat="47.3233" lon="-2.38311">
        <ele>84</ele>
        <time>2019-08-18T08:19:33Z</time>
      </trkpt>
      <trkpt lat="47.32335" lon="-2.38313">
        <ele>84</ele>
        <time>2019-08-18T08:19:34Z</time>
      </trkpt>
      <trkpt lat="47.32351" lon="-2.38317">
        <ele>85</ele>
        <time>2019-08-18T08:19:37Z</time>
      </trkpt>
      <trkpt lat="47.32356" lon="-2.38318">
        <ele>85</ele>
        <time>2019-08-18T08:19:38Z</time>
      </trkpt>
      <trkpt lat="47.32361" lon="-2.38321">
        <ele>86</ele>
        <time>2019-08-18T08:19:39Z</time>
      </trkpt>
      <trkpt lat="47.32374" lon="-2.38327">
        <ele>87</ele>
        <time>2019-08-18T08:19:42Z</time>
      </trkpt>
      <trkpt lat="47.3238" lon="-2.3833">
        <ele>87</ele>
        <time>2019-08-18T08:19:43Z</time>
      </trkpt>
      <trkpt lat="47.32385" lon="-2.38331">
        <ele>87</ele>
        <time>2019-08-18T08:19:44Z</time>
      </trkpt>
      <trkpt lat="47.3239" lon="-2.38333">
        <ele>87</ele>
        <time>2019-08-18T08:19:45Z</time>
      </trkpt>
      <trkpt lat="47.32399" lon="-2.38337">
        <ele>87</ele>
        <time>2019-08-18T08:19:47Z</time>
      </trkpt>
      <trkpt lat="47.32404" lon="-2.3834">
        <ele>87</ele>
        <time>2019-08-18T08:19:48Z</time>
      </trkpt>
      <trkpt lat="47.32413" lon="-2.38347">
        <ele>88</ele>
        <time>2019-08-18T08:19:50Z</time>
      </trkpt>
      <trkpt lat="47.32423" lon="-2.38352">
        <ele>88</ele>
        <time>2019-08-18T08:19:52Z</time>
      </trkpt>
      <trkpt lat="47.32429" lon="-2.38355">
        <ele>88</ele>
        <time>2019-08-18T08:19:53Z</time>
      </trkpt>
      <trkpt lat="47.32435" lon="-2.38357">
        <ele>89</ele>
        <time>2019-08-18T08:19:54Z</time>
      </trkpt>
      <trkpt lat="47.32441" lon="-2.38358">
        <ele>89</ele>
        <time>2019-08-18T08:19:55Z</time>
      </trkpt>
      <trkpt lat="47.32446" lon="-2.3836">
        <ele>89</ele>
        <time>2019-08-18T08:19:56Z</time>
      </trkpt>
      <trkpt lat="47.32452" lon="-2.38362">
        <ele>89</ele>
        <time>2019-08-18T08:19:57Z</time>
      </trkpt>
      <trkpt lat="47.32467" lon="-2.38366">
        <ele>90</ele>
        <time>2019-08-18T08:20:00Z</time>
      </trkpt>
      <trkpt lat="47.32477" lon="-2.38359">
        <ele>95</ele>
        <time>2019-08-18T08:20:02Z</time>
      </trkpt>
      <trkpt lat="47.32482" lon="-2.38358">
        <ele>100</ele>
        <time>2019-08-18T08:20:03Z</time>
      </trkpt>
      <trkpt lat="47.32504" lon="-2.38381">
        <ele>103</ele>
        <time>2019-08-18T08:20:07Z</time>
      </trkpt>
      <trkpt lat="47.32508" lon="-2.38384">
        <ele>102</ele>
        <time>2019-08-18T08:20:08Z</time>
      </trkpt>
      <trkpt lat="47.32515" lon="-2.38387">
        <ele>100</ele>
        <time>2019-08-18T08:20:10Z</time>
      </trkpt>
      <trkpt lat="47.32515" lon="-2.38387">
        <ele>100</ele>
        <time>2019-08-18T08:20:15Z</time>
      </trkpt>
      <trkpt lat="47.32515" lon="-2.38387">
        <ele>34.9</ele>
        <time>2019-08-18T08:20:15Z</time>
      </trkpt>
      <trkpt lat="47.32515" lon="-2.38387">
        <ele>34.9</ele>
        <time>2019-08-18T08:20:24Z</time>
      </trkpt>
      <trkpt lat="47.32522" lon="-2.38348">
        <ele>97</ele>
        <time>2019-08-18T08:20:24Z</time>
      </trkpt>
      <trkpt lat="47.32549" lon="-2.38312">
        <ele>79</ele>
        <time>2019-08-18T08:20:32Z</time>
      </trkpt>
      <trkpt lat="47.32562" lon="-2.38308">
        <ele>81</ele>
        <time>2019-08-18T08:20:33Z</time>
      </trkpt>
      <trkpt lat="47.32568" lon="-2.38308">
        <ele>84</ele>
        <time>2019-08-18T08:20:35Z</time>
      </trkpt>
      <trkpt lat="47.32581" lon="-2.38304">
        <ele>82</ele>
        <time>2019-08-18T08:20:36Z</time>
      </trkpt>
      <trkpt lat="47.32599" lon="-2.383">
        <ele>85</ele>
        <time>2019-08-18T08:20:39Z</time>
      </trkpt>
      <trkpt lat="47.32606" lon="-2.38301">
        <ele>84</ele>
        <time>2019-08-18T08:20:40Z</time>
      </trkpt>
      <trkpt lat="47.32611" lon="-2.38303">
        <ele>83</ele>
        <time>2019-08-18T08:20:42Z</time>
      </trkpt>
      <trkpt lat="47.32615" lon="-2.38307">
        <ele>83</ele>
        <time>2019-08-18T08:20:43Z</time>
      </trkpt>
      <trkpt lat="47.32619" lon="-2.38312">
        <ele>83</ele>
        <time>2019-08-18T08:20:44Z</time>
      </trkpt>
      <trkpt lat="47.32622" lon="-2.38317">
        <ele>83</ele>
        <time>2019-08-18T08:20:45Z</time>
      </trkpt>
      <trkpt lat="47.32632" lon="-2.38332">
        <ele>84</ele>
        <time>2019-08-18T08:20:48Z</time>
      </trkpt>
      <trkpt lat="47.32636" lon="-2.38336">
        <ele>85</ele>
        <time>2019-08-18T08:20:49Z</time>
      </trkpt>
      <trkpt lat="47.32642" lon="-2.38345">
        <ele>85</ele>
        <time>2019-08-18T08:20:51Z</time>
      </trkpt>
      <trkpt lat="47.32646" lon="-2.38348">
        <ele>85</ele>
        <time>2019-08-18T08:20:52Z</time>
      </trkpt>
      <trkpt lat="47.32652" lon="-2.38356">
        <ele>86</ele>
        <time>2019-08-18T08:20:53Z</time>
      </trkpt>
      <trkpt lat="47.32656" lon="-2.3836">
        <ele>86</ele>
        <time>2019-08-18T08:20:54Z</time>
      </trkpt>
      <trkpt lat="47.32659" lon="-2.38364">
        <ele>86</ele>
        <time>2019-08-18T08:20:56Z</time>
      </trkpt>
      <trkpt lat="47.32662" lon="-2.38368">
        <ele>87</ele>
        <time>2019-08-18T08:20:57Z</time>
      </trkpt>
      <trkpt lat="47.32665" lon="-2.38373">
        <ele>87</ele>
        <time>2019-08-18T08:20:58Z</time>
      </trkpt>
      <trkpt lat="47.32668" lon="-2.38377">
        <ele>86</ele>
        <time>2019-08-18T08:20:59Z</time>
      </trkpt>
      <trkpt lat="47.32674" lon="-2.38384">
        <ele>86</ele>
        <time>2019-08-18T08:21:01Z</time>
      </trkpt>
      <trkpt lat="47.32677" lon="-2.38389">
        <ele>86</ele>
        <time>2019-08-18T08:21:02Z</time>
      </trkpt>
      <trkpt lat="47.3268" lon="-2.38392">
        <ele>86</ele>
        <time>2019-08-18T08:21:03Z</time>
      </trkpt>
      <trkpt lat="47.32683" lon="-2.38397">
        <ele>86</ele>
        <time>2019-08-18T08:21:04Z</time>
      </trkpt>
      <trkpt lat="47.3269" lon="-2.38404">
        <ele>87</ele>
        <time>2019-08-18T08:21:06Z</time>
      </trkpt>
      <trkpt lat="47.32696" lon="-2.38407">
        <ele>87</ele>
        <time>2019-08-18T08:21:08Z</time>
      </trkpt>
      <trkpt lat="47.32708" lon="-2.38409">
        <ele>87</ele>
        <time>2019-08-18T08:21:11Z</time>
      </trkpt>
      <trkpt lat="47.32714" lon="-2.38407">
        <ele>88</ele>
        <time>2019-08-18T08:21:13Z</time>
      </trkpt>
      <trkpt lat="47.32723" lon="-2.38407">
        <ele>88</ele>
        <time>2019-08-18T08:21:15Z</time>
      </trkpt>
      <trkpt lat="47.32727" lon="-2.38406">
        <ele>88</ele>
        <time>2019-08-18T08:21:16Z</time>
      </trkpt>
      <trkpt lat="47.32731" lon="-2.38405">
        <ele>88</ele>
        <time>2019-08-18T08:21:17Z</time>
      </trkpt>
      <trkpt lat="47.32738" lon="-2.38403">
        <ele>89</ele>
        <time>2019-08-18T08:21:19Z</time>
      </trkpt>
      <trkpt lat="47.32747" lon="-2.38398">
        <ele>88</ele>
        <time>2019-08-18T08:21:22Z</time>
      </trkpt>
      <trkpt lat="47.32756" lon="-2.38399">
        <ele>89</ele>
        <time>2019-08-18T08:21:24Z</time>
      </trkpt>
      <trkpt lat="47.32764" lon="-2.38399">
        <ele>89</ele>
        <time>2019-08-18T08:21:25Z</time>
      </trkpt>
      <trkpt lat="47.32767" lon="-2.38399">
        <ele>89</ele>
        <time>2019-08-18T08:21:26Z</time>
      </trkpt>
      <trkpt lat="47.32773" lon="-2.38397">
        <ele>89</ele>
        <time>2019-08-18T08:21:28Z</time>
      </trkpt>
      <trkpt lat="47.32777" lon="-2.38396">
        <ele>90</ele>
        <time>2019-08-18T08:21:30Z</time>
      </trkpt>
      <trkpt lat="47.32781" lon="-2.38392">
        <ele>90</ele>
        <time>2019-08-18T08:21:32Z</time>
      </trkpt>
      <trkpt lat="47.32784" lon="-2.38387">
        <ele>91</ele>
        <time>2019-08-18T08:21:35Z</time>
      </trkpt>
      <trkpt lat="47.32786" lon="-2.38381">
        <ele>91</ele>
        <time>2019-08-18T08:21:38Z</time>
      </trkpt>
      <trkpt lat="47.32786" lon="-2.38381">
        <ele>41</ele>
        <time>2019-08-18T08:21:43Z</time>
      </trkpt>
      <trkpt lat="47.32786" lon="-2.38381">
        <ele>41</ele>
        <time>2019-08-18T08:22:38Z</time>
      </trkpt>
      <trkpt lat="47.328" lon="-2.38286">
        <ele>84</ele>
        <time>2019-08-18T08:22:46Z</time>
      </trkpt>
      <trkpt lat="47.32803" lon="-2.38275">
        <ele>84</ele>
        <time>2019-08-18T08:22:47Z</time>
      </trkpt>
      <trkpt lat="47.32806" lon="-2.38265">
        <ele>84</ele>
        <time>2019-08-18T08:22:48Z</time>
      </trkpt>
      <trkpt lat="47.32808" lon="-2.38256">
        <ele>83</ele>
        <time>2019-08-18T08:22:49Z</time>
      </trkpt>
      <trkpt lat="47.32814" lon="-2.38232">
        <ele>84</ele>
        <time>2019-08-18T08:22:51Z</time>
      </trkpt>
      <trkpt lat="47.32817" lon="-2.38221">
        <ele>85</ele>
        <time>2019-08-18T08:22:52Z</time>
      </trkpt>
      <trkpt lat="47.32821" lon="-2.38211">
        <ele>86</ele>
        <time>2019-08-18T08:22:53Z</time>
      </trkpt>
      <trkpt lat="47.32824" lon="-2.38201">
        <ele>87</ele>
        <time>2019-08-18T08:22:54Z</time>
      </trkpt>
      <trkpt lat="47.32835" lon="-2.38173">
        <ele>86</ele>
        <time>2019-08-18T08:22:56Z</time>
      </trkpt>
      <trkpt lat="47.32841" lon="-2.38164">
        <ele>86</ele>
        <time>2019-08-18T08:22:57Z</time>
      </trkpt>
      <trkpt lat="47.32845" lon="-2.38156">
        <ele>85</ele>
        <time>2019-08-18T08:22:58Z</time>
      </trkpt>
      <trkpt lat="47.32855" lon="-2.3814">
        <ele>87</ele>
        <time>2019-08-18T08:23:00Z</time>
      </trkpt>
      <trkpt lat="47.3286" lon="-2.38132">
        <ele>87</ele>
        <time>2019-08-18T08:23:01Z</time>
      </trkpt>
      <trkpt lat="47.32865" lon="-2.38124">
        <ele>87</ele>
        <time>2019-08-18T08:23:02Z</time>
      </trkpt>
      <trkpt lat="47.3287" lon="-2.38116">
        <ele>87</ele>
        <time>2019-08-18T08:23:03Z</time>
      </trkpt>
      <trkpt lat="47.32874" lon="-2.38107">
        <ele>87</ele>
        <time>2019-08-18T08:23:04Z</time>
      </trkpt>
      <trkpt lat="47.32879" lon="-2.38099">
        <ele>86</ele>
        <time>2019-08-18T08:23:05Z</time>
      </trkpt>
      <trkpt lat="47.32883" lon="-2.38091">
        <ele>85</ele>
        <time>2019-08-18T08:23:06Z</time>
      </trkpt>
      <trkpt lat="47.32888" lon="-2.38083">
        <ele>84</ele>
        <time>2019-08-18T08:23:07Z</time>
      </trkpt>
      <trkpt lat="47.32897" lon="-2.38066">
        <ele>83</ele>
        <time>2019-08-18T08:23:09Z</time>
      </trkpt>
      <trkpt lat="47.32901" lon="-2.38058">
        <ele>82</ele>
        <time>2019-08-18T08:23:10Z</time>
      </trkpt>
      <trkpt lat="47.32904" lon="-2.38051">
        <ele>82</ele>
        <time>2019-08-18T08:23:11Z</time>
      </trkpt>
      <trkpt lat="47.32908" lon="-2.38043">
        <ele>82</ele>
        <time>2019-08-18T08:23:12Z</time>
      </trkpt>
      <trkpt lat="47.32913" lon="-2.38035">
        <ele>82</ele>
        <time>2019-08-18T08:23:13Z</time>
      </trkpt>
      <trkpt lat="47.32918" lon="-2.38027">
        <ele>82</ele>
        <time>2019-08-18T08:23:14Z</time>
      </trkpt>
      <trkpt lat="47.32927" lon="-2.38012">
        <ele>82</ele>
        <time>2019-08-18T08:23:16Z</time>
      </trkpt>
      <trkpt lat="47.32939" lon="-2.37995">
        <ele>82</ele>
        <time>2019-08-18T08:23:19Z</time>
      </trkpt>
      <trkpt lat="47.32945" lon="-2.37983">
        <ele>82</ele>
        <time>2019-08-18T08:23:21Z</time>
      </trkpt>
      <trkpt lat="47.32948" lon="-2.37977">
        <ele>82</ele>
        <time>2019-08-18T08:23:22Z</time>
      </trkpt>
      <trkpt lat="47.32953" lon="-2.37972">
        <ele>82</ele>
        <time>2019-08-18T08:23:23Z</time>
      </trkpt>
      <trkpt lat="47.32956" lon="-2.37965">
        <ele>81</ele>
        <time>2019-08-18T08:23:24Z</time>
      </trkpt>
      <trkpt lat="47.32974" lon="-2.37937">
        <ele>81</ele>
        <time>2019-08-18T08:23:28Z</time>
      </trkpt>
      <trkpt lat="47.32979" lon="-2.37931">
        <ele>82</ele>
        <time>2019-08-18T08:23:29Z</time>
      </trkpt>
      <trkpt lat="47.32987" lon="-2.37919">
        <ele>82</ele>
        <time>2019-08-18T08:23:31Z</time>
      </trkpt>
      <trkpt lat="47.32992" lon="-2.37913">
        <ele>82</ele>
        <time>2019-08-18T08:23:32Z</time>
      </trkpt>
      <trkpt lat="47.33001" lon="-2.37898">
        <ele>83</ele>
        <time>2019-08-18T08:23:34Z</time>
      </trkpt>
      <trkpt lat="47.33005" lon="-2.3789">
        <ele>83</ele>
        <time>2019-08-18T08:23:35Z</time>
      </trkpt>
      <trkpt lat="47.33009" lon="-2.37883">
        <ele>83</ele>
        <time>2019-08-18T08:23:36Z</time>
      </trkpt>
      <trkpt lat="47.33013" lon="-2.37878">
        <ele>83</ele>
        <time>2019-08-18T08:23:37Z</time>
      </trkpt>
      <trkpt lat="47.33016" lon="-2.37871">
        <ele>83</ele>
        <time>2019-08-18T08:23:38Z</time>
      </trkpt>
      <trkpt lat="47.33019" lon="-2.37864">
        <ele>82</ele>
        <time>2019-08-18T08:23:39Z</time>
      </trkpt>
      <trkpt lat="47.33031" lon="-2.37848">
        <ele>83</ele>
        <time>2019-08-18T08:23:42Z</time>
      </trkpt>
      <trkpt lat="47.33034" lon="-2.37843">
        <ele>83</ele>
        <time>2019-08-18T08:23:43Z</time>
      </trkpt>
      <trkpt lat="47.33043" lon="-2.37834">
        <ele>82</ele>
        <time>2019-08-18T08:23:45Z</time>
      </trkpt>
      <trkpt lat="47.33056" lon="-2.37819">
        <ele>82</ele>
        <time>2019-08-18T08:23:48Z</time>
      </trkpt>
      <trkpt lat="47.3306" lon="-2.37815">
        <ele>82</ele>
        <time>2019-08-18T08:23:49Z</time>
      </trkpt>
      <trkpt lat="47.33069" lon="-2.37807">
        <ele>83</ele>
        <time>2019-08-18T08:23:51Z</time>
      </trkpt>
      <trkpt lat="47.33079" lon="-2.37796">
        <ele>82</ele>
        <time>2019-08-18T08:23:54Z</time>
      </trkpt>
      <trkpt lat="47.33089" lon="-2.37786">
        <ele>83</ele>
        <time>2019-08-18T08:23:56Z</time>
      </trkpt>
      <trkpt lat="47.33095" lon="-2.37782">
        <ele>83</ele>
        <time>2019-08-18T08:23:57Z</time>
      </trkpt>
      <trkpt lat="47.33104" lon="-2.37769">
        <ele>83</ele>
        <time>2019-08-18T08:23:59Z</time>
      </trkpt>
      <trkpt lat="47.33108" lon="-2.37765">
        <ele>83</ele>
        <time>2019-08-18T08:24:00Z</time>
      </trkpt>
      <trkpt lat="47.33113" lon="-2.3776">
        <ele>83</ele>
        <time>2019-08-18T08:24:02Z</time>
      </trkpt>
      <trkpt lat="47.33116" lon="-2.37756">
        <ele>83</ele>
        <time>2019-08-18T08:24:04Z</time>
      </trkpt>
      <trkpt lat="47.3312" lon="-2.3775">
        <ele>83</ele>
        <time>2019-08-18T08:24:07Z</time>
      </trkpt>
      <trkpt lat="47.33115" lon="-2.37743">
        <ele>83</ele>
        <time>2019-08-18T08:24:12Z</time>
      </trkpt>
      <trkpt lat="47.33109" lon="-2.37739">
        <ele>84</ele>
        <time>2019-08-18T08:24:15Z</time>
      </trkpt>
      <trkpt lat="47.33105" lon="-2.37734">
        <ele>85</ele>
        <time>2019-08-18T08:24:18Z</time>
      </trkpt>
      <trkpt lat="47.33103" lon="-2.37732">
        <ele>85</ele>
        <time>2019-08-18T08:24:19Z</time>
      </trkpt>
      <trkpt lat="47.33096" lon="-2.37727">
        <ele>85</ele>
        <time>2019-08-18T08:24:21Z</time>
      </trkpt>
      <trkpt lat="47.33091" lon="-2.3772">
        <ele>85</ele>
        <time>2019-08-18T08:24:23Z</time>
      </trkpt>
      <trkpt lat="47.33084" lon="-2.37716">
        <ele>84</ele>
        <time>2019-08-18T08:24:26Z</time>
      </trkpt>
      <trkpt lat="47.33073" lon="-2.37707">
        <ele>83</ele>
        <time>2019-08-18T08:24:29Z</time>
      </trkpt>
      <trkpt lat="47.33069" lon="-2.37704">
        <ele>83</ele>
        <time>2019-08-18T08:24:30Z</time>
      </trkpt>
      <trkpt lat="47.33066" lon="-2.37699">
        <ele>82</ele>
        <time>2019-08-18T08:24:31Z</time>
      </trkpt>
      <trkpt lat="47.33063" lon="-2.37694">
        <ele>81</ele>
        <time>2019-08-18T08:24:32Z</time>
      </trkpt>
      <trkpt lat="47.33053" lon="-2.3768">
        <ele>80</ele>
        <time>2019-08-18T08:24:34Z</time>
      </trkpt>
      <trkpt lat="47.33049" lon="-2.37675">
        <ele>80</ele>
        <time>2019-08-18T08:24:35Z</time>
      </trkpt>
      <trkpt lat="47.33045" lon="-2.37671">
        <ele>79</ele>
        <time>2019-08-18T08:24:36Z</time>
      </trkpt>
      <trkpt lat="47.33042" lon="-2.37667">
        <ele>79</ele>
        <time>2019-08-18T08:24:37Z</time>
      </trkpt>
      <trkpt lat="47.33039" lon="-2.37662">
        <ele>79</ele>
        <time>2019-08-18T08:24:38Z</time>
      </trkpt>
      <trkpt lat="47.33036" lon="-2.37656">
        <ele>79</ele>
        <time>2019-08-18T08:24:39Z</time>
      </trkpt>
      <trkpt lat="47.33033" lon="-2.37651">
        <ele>78</ele>
        <time>2019-08-18T08:24:40Z</time>
      </trkpt>
      <trkpt lat="47.3303" lon="-2.37646">
        <ele>78</ele>
        <time>2019-08-18T08:24:41Z</time>
      </trkpt>
      <trkpt lat="47.33031" lon="-2.37628">
        <ele>78</ele>
        <time>2019-08-18T08:24:44Z</time>
      </trkpt>
      <trkpt lat="47.33039" lon="-2.37611">
        <ele>78</ele>
        <time>2019-08-18T08:24:47Z</time>
      </trkpt>
      <trkpt lat="47.33042" lon="-2.37605">
        <ele>78</ele>
        <time>2019-08-18T08:24:48Z</time>
      </trkpt>
      <trkpt lat="47.33045" lon="-2.37599">
        <ele>77</ele>
        <time>2019-08-18T08:24:49Z</time>
      </trkpt>
      <trkpt lat="47.33048" lon="-2.37592">
        <ele>77</ele>
        <time>2019-08-18T08:24:50Z</time>
      </trkpt>
      <trkpt lat="47.33051" lon="-2.37586">
        <ele>77</ele>
        <time>2019-08-18T08:24:51Z</time>
      </trkpt>
      <trkpt lat="47.33054" lon="-2.37578">
        <ele>77</ele>
        <time>2019-08-18T08:24:52Z</time>
      </trkpt>
      <trkpt lat="47.33057" lon="-2.37571">
        <ele>76</ele>
        <time>2019-08-18T08:24:53Z</time>
      </trkpt>
      <trkpt lat="47.33063" lon="-2.37556">
        <ele>77</ele>
        <time>2019-08-18T08:24:56Z</time>
      </trkpt>
      <trkpt lat="47.33066" lon="-2.37549">
        <ele>76</ele>
        <time>2019-08-18T08:24:57Z</time>
      </trkpt>
      <trkpt lat="47.33081" lon="-2.3752">
        <ele>76</ele>
        <time>2019-08-18T08:25:01Z</time>
      </trkpt>
      <trkpt lat="47.33096" lon="-2.37488">
        <ele>77</ele>
        <time>2019-08-18T08:25:05Z</time>
      </trkpt>
      <trkpt lat="47.331" lon="-2.3748">
        <ele>77</ele>
        <time>2019-08-18T08:25:06Z</time>
      </trkpt>
      <trkpt lat="47.33103" lon="-2.37471">
        <ele>77</ele>
        <time>2019-08-18T08:25:07Z</time>
      </trkpt>
      <trkpt lat="47.33105" lon="-2.37463">
        <ele>77</ele>
        <time>2019-08-18T08:25:08Z</time>
      </trkpt>
      <trkpt lat="47.33112" lon="-2.37433">
        <ele>76</ele>
        <time>2019-08-18T08:25:10Z</time>
      </trkpt>
      <trkpt lat="47.33112" lon="-2.37425">
        <ele>76</ele>
        <time>2019-08-18T08:25:11Z</time>
      </trkpt>
      <trkpt lat="47.33111" lon="-2.37415">
        <ele>76</ele>
        <time>2019-08-18T08:25:12Z</time>
      </trkpt>
      <trkpt lat="47.3311" lon="-2.37406">
        <ele>76</ele>
        <time>2019-08-18T08:25:13Z</time>
      </trkpt>
      <trkpt lat="47.3311" lon="-2.37396">
        <ele>76</ele>
        <time>2019-08-18T08:25:14Z</time>
      </trkpt>
      <trkpt lat="47.33109" lon="-2.37388">
        <ele>76</ele>
        <time>2019-08-18T08:25:15Z</time>
      </trkpt>
      <trkpt lat="47.33108" lon="-2.3738">
        <ele>76</ele>
        <time>2019-08-18T08:25:16Z</time>
      </trkpt>
      <trkpt lat="47.33105" lon="-2.37356">
        <ele>77</ele>
        <time>2019-08-18T08:25:19Z</time>
      </trkpt>
      <trkpt lat="47.33103" lon="-2.37339">
        <ele>77</ele>
        <time>2019-08-18T08:25:21Z</time>
      </trkpt>
      <trkpt lat="47.33102" lon="-2.37332">
        <ele>77</ele>
        <time>2019-08-18T08:25:22Z</time>
      </trkpt>
      <trkpt lat="47.33101" lon="-2.37323">
        <ele>76</ele>
        <time>2019-08-18T08:25:23Z</time>
      </trkpt>
      <trkpt lat="47.33102" lon="-2.37315">
        <ele>76</ele>
        <time>2019-08-18T08:25:24Z</time>
      </trkpt>
      <trkpt lat="47.33101" lon="-2.37307">
        <ele>77</ele>
        <time>2019-08-18T08:25:25Z</time>
      </trkpt>
      <trkpt lat="47.33101" lon="-2.37299">
        <ele>77</ele>
        <time>2019-08-18T08:25:26Z</time>
      </trkpt>
      <trkpt lat="47.33101" lon="-2.37292">
        <ele>77</ele>
        <time>2019-08-18T08:25:28Z</time>
      </trkpt>
      <trkpt lat="47.33101" lon="-2.37278">
        <ele>77</ele>
        <time>2019-08-18T08:25:29Z</time>
      </trkpt>
      <trkpt lat="47.33101" lon="-2.37271">
        <ele>77</ele>
        <time>2019-08-18T08:25:30Z</time>
      </trkpt>
      <trkpt lat="47.33101" lon="-2.37264">
        <ele>77</ele>
        <time>2019-08-18T08:25:31Z</time>
      </trkpt>
      <trkpt lat="47.33101" lon="-2.37258">
        <ele>77</ele>
        <time>2019-08-18T08:25:32Z</time>
      </trkpt>
      <trkpt lat="47.33101" lon="-2.37251">
        <ele>77</ele>
        <time>2019-08-18T08:25:33Z</time>
      </trkpt>
      <trkpt lat="47.33101" lon="-2.37239">
        <ele>77</ele>
        <time>2019-08-18T08:25:35Z</time>
      </trkpt>
      <trkpt lat="47.33102" lon="-2.37216">
        <ele>77</ele>
        <time>2019-08-18T08:25:39Z</time>
      </trkpt>
      <trkpt lat="47.33102" lon="-2.37206">
        <ele>78</ele>
        <time>2019-08-18T08:25:41Z</time>
      </trkpt>
      <trkpt lat="47.33103" lon="-2.3719">
        <ele>79</ele>
        <time>2019-08-18T08:25:44Z</time>
      </trkpt>
      <trkpt lat="47.33103" lon="-2.37185">
        <ele>79</ele>
        <time>2019-08-18T08:25:45Z</time>
      </trkpt>
      <trkpt lat="47.33103" lon="-2.3718">
        <ele>79</ele>
        <time>2019-08-18T08:25:46Z</time>
      </trkpt>
      <trkpt lat="47.33104" lon="-2.37165">
        <ele>80</ele>
        <time>2019-08-18T08:25:49Z</time>
      </trkpt>
      <trkpt lat="47.33104" lon="-2.37154">
        <ele>80</ele>
        <time>2019-08-18T08:25:51Z</time>
      </trkpt>
      <trkpt lat="47.33105" lon="-2.37144">
        <ele>80</ele>
        <time>2019-08-18T08:25:53Z</time>
      </trkpt>
      <trkpt lat="47.33105" lon="-2.37133">
        <ele>81</ele>
        <time>2019-08-18T08:25:55Z</time>
      </trkpt>
      <trkpt lat="47.33105" lon="-2.37127">
        <ele>81</ele>
        <time>2019-08-18T08:25:56Z</time>
      </trkpt>
      <trkpt lat="47.33105" lon="-2.37115">
        <ele>81</ele>
        <time>2019-08-18T08:25:58Z</time>
      </trkpt>
      <trkpt lat="47.33106" lon="-2.37095">
        <ele>82</ele>
        <time>2019-08-18T08:26:01Z</time>
      </trkpt>
      <trkpt lat="47.33106" lon="-2.37088">
        <ele>82</ele>
        <time>2019-08-18T08:26:02Z</time>
      </trkpt>
      <trkpt lat="47.33104" lon="-2.37075">
        <ele>82</ele>
        <time>2019-08-18T08:26:04Z</time>
      </trkpt>
      <trkpt lat="47.33103" lon="-2.37069">
        <ele>82</ele>
        <time>2019-08-18T08:26:05Z</time>
      </trkpt>
      <trkpt lat="47.33102" lon="-2.37062">
        <ele>82</ele>
        <time>2019-08-18T08:26:06Z</time>
      </trkpt>
      <trkpt lat="47.33101" lon="-2.37055">
        <ele>83</ele>
        <time>2019-08-18T08:26:07Z</time>
      </trkpt>
      <trkpt lat="47.331" lon="-2.37048">
        <ele>83</ele>
        <time>2019-08-18T08:26:08Z</time>
      </trkpt>
      <trkpt lat="47.331" lon="-2.3704">
        <ele>83</ele>
        <time>2019-08-18T08:26:09Z</time>
      </trkpt>
      <trkpt lat="47.331" lon="-2.37033">
        <ele>83</ele>
        <time>2019-08-18T08:26:10Z</time>
      </trkpt>
      <trkpt lat="47.331" lon="-2.37025">
        <ele>83</ele>
        <time>2019-08-18T08:26:11Z</time>
      </trkpt>
      <trkpt lat="47.33101" lon="-2.37018">
        <ele>84</ele>
        <time>2019-08-18T08:26:12Z</time>
      </trkpt>
      <trkpt lat="47.331" lon="-2.37011">
        <ele>84</ele>
        <time>2019-08-18T08:26:13Z</time>
      </trkpt>
      <trkpt lat="47.331" lon="-2.37003">
        <ele>84</ele>
        <time>2019-08-18T08:26:14Z</time>
      </trkpt>
      <trkpt lat="47.331" lon="-2.36995">
        <ele>84</ele>
        <time>2019-08-18T08:26:15Z</time>
      </trkpt>
      <trkpt lat="47.33101" lon="-2.36986">
        <ele>84</ele>
        <time>2019-08-18T08:26:16Z</time>
      </trkpt>
      <trkpt lat="47.33101" lon="-2.36977">
        <ele>84</ele>
        <time>2019-08-18T08:26:18Z</time>
      </trkpt>
      <trkpt lat="47.33102" lon="-2.36968">
        <ele>83</ele>
        <time>2019-08-18T08:26:19Z</time>
      </trkpt>
      <trkpt lat="47.33102" lon="-2.36958">
        <ele>83</ele>
        <time>2019-08-18T08:26:20Z</time>
      </trkpt>
      <trkpt lat="47.33103" lon="-2.36938">
        <ele>83</ele>
        <time>2019-08-18T08:26:22Z</time>
      </trkpt>
      <trkpt lat="47.33102" lon="-2.36929">
        <ele>83</ele>
        <time>2019-08-18T08:26:23Z</time>
      </trkpt>
      <trkpt lat="47.33101" lon="-2.3692">
        <ele>83</ele>
        <time>2019-08-18T08:26:24Z</time>
      </trkpt>
      <trkpt lat="47.33103" lon="-2.36897">
        <ele>82</ele>
        <time>2019-08-18T08:26:27Z</time>
      </trkpt>
      <trkpt lat="47.3311" lon="-2.36887">
        <ele>81</ele>
        <time>2019-08-18T08:26:29Z</time>
      </trkpt>
      <trkpt lat="47.33124" lon="-2.36878">
        <ele>82</ele>
        <time>2019-08-18T08:26:32Z</time>
      </trkpt>
      <trkpt lat="47.3314" lon="-2.36863">
        <ele>82</ele>
        <time>2019-08-18T08:26:34Z</time>
      </trkpt>
      <trkpt lat="47.33146" lon="-2.36857">
        <ele>82</ele>
        <time>2019-08-18T08:26:35Z</time>
      </trkpt>
      <trkpt lat="47.33158" lon="-2.36848">
        <ele>82</ele>
        <time>2019-08-18T08:26:37Z</time>
      </trkpt>
      <trkpt lat="47.33167" lon="-2.36838">
        <ele>82</ele>
        <time>2019-08-18T08:26:40Z</time>
      </trkpt>
      <trkpt lat="47.33199" lon="-2.36806">
        <ele>83</ele>
        <time>2019-08-18T08:26:44Z</time>
      </trkpt>
      <trkpt lat="47.33206" lon="-2.368">
        <ele>82</ele>
        <time>2019-08-18T08:26:45Z</time>
      </trkpt>
      <trkpt lat="47.33214" lon="-2.36794">
        <ele>82</ele>
        <time>2019-08-18T08:26:46Z</time>
      </trkpt>
      <trkpt lat="47.33221" lon="-2.36787">
        <ele>82</ele>
        <time>2019-08-18T08:26:47Z</time>
      </trkpt>
      <trkpt lat="47.33228" lon="-2.3678">
        <ele>82</ele>
        <time>2019-08-18T08:26:48Z</time>
      </trkpt>
      <trkpt lat="47.33235" lon="-2.36773">
        <ele>82</ele>
        <time>2019-08-18T08:26:49Z</time>
      </trkpt>
      <trkpt lat="47.33248" lon="-2.36757">
        <ele>81</ele>
        <time>2019-08-18T08:26:51Z</time>
      </trkpt>
      <trkpt lat="47.33264" lon="-2.36731">
        <ele>81</ele>
        <time>2019-08-18T08:26:54Z</time>
      </trkpt>
      <trkpt lat="47.33267" lon="-2.3672">
        <ele>81</ele>
        <time>2019-08-18T08:26:55Z</time>
      </trkpt>
      <trkpt lat="47.33271" lon="-2.36711">
        <ele>81</ele>
        <time>2019-08-18T08:26:56Z</time>
      </trkpt>
      <trkpt lat="47.33278" lon="-2.3669">
        <ele>81</ele>
        <time>2019-08-18T08:26:59Z</time>
      </trkpt>
      <trkpt lat="47.33282" lon="-2.36679">
        <ele>81</ele>
        <time>2019-08-18T08:27:00Z</time>
      </trkpt>
      <trkpt lat="47.33286" lon="-2.36669">
        <ele>81</ele>
        <time>2019-08-18T08:27:01Z</time>
      </trkpt>
      <trkpt lat="47.33289" lon="-2.36659">
        <ele>81</ele>
        <time>2019-08-18T08:27:02Z</time>
      </trkpt>
      <trkpt lat="47.33292" lon="-2.36649">
        <ele>81</ele>
        <time>2019-08-18T08:27:03Z</time>
      </trkpt>
      <trkpt lat="47.33296" lon="-2.36633">
        <ele>80</ele>
        <time>2019-08-18T08:27:04Z</time>
      </trkpt>
      <trkpt lat="47.33299" lon="-2.36624">
        <ele>80</ele>
        <time>2019-08-18T08:27:06Z</time>
      </trkpt>
      <trkpt lat="47.33306" lon="-2.36604">
        <ele>78</ele>
        <time>2019-08-18T08:27:08Z</time>
      </trkpt>
      <trkpt lat="47.33307" lon="-2.36598">
        <ele>78</ele>
        <time>2019-08-18T08:27:09Z</time>
      </trkpt>
      <trkpt lat="47.33309" lon="-2.36592">
        <ele>78</ele>
        <time>2019-08-18T08:27:11Z</time>
      </trkpt>
      <trkpt lat="47.33313" lon="-2.36574">
        <ele>77</ele>
        <time>2019-08-18T08:27:13Z</time>
      </trkpt>
      <trkpt lat="47.33315" lon="-2.36567">
        <ele>77</ele>
        <time>2019-08-18T08:27:14Z</time>
      </trkpt>
      <trkpt lat="47.33316" lon="-2.3656">
        <ele>76</ele>
        <time>2019-08-18T08:27:15Z</time>
      </trkpt>
      <trkpt lat="47.33318" lon="-2.36554">
        <ele>76</ele>
        <time>2019-08-18T08:27:16Z</time>
      </trkpt>
      <trkpt lat="47.3332" lon="-2.36547">
        <ele>76</ele>
        <time>2019-08-18T08:27:17Z</time>
      </trkpt>
      <trkpt lat="47.33321" lon="-2.36539">
        <ele>77</ele>
        <time>2019-08-18T08:27:18Z</time>
      </trkpt>
      <trkpt lat="47.33324" lon="-2.36532">
        <ele>76</ele>
        <time>2019-08-18T08:27:19Z</time>
      </trkpt>
      <trkpt lat="47.33325" lon="-2.36525">
        <ele>76</ele>
        <time>2019-08-18T08:27:20Z</time>
      </trkpt>
      <trkpt lat="47.33327" lon="-2.36518">
        <ele>76</ele>
        <time>2019-08-18T08:27:21Z</time>
      </trkpt>
      <trkpt lat="47.33328" lon="-2.36511">
        <ele>76</ele>
        <time>2019-08-18T08:27:22Z</time>
      </trkpt>
      <trkpt lat="47.33329" lon="-2.36504">
        <ele>76</ele>
        <time>2019-08-18T08:27:24Z</time>
      </trkpt>
      <trkpt lat="47.33332" lon="-2.36485">
        <ele>77</ele>
        <time>2019-08-18T08:27:26Z</time>
      </trkpt>
      <trkpt lat="47.33332" lon="-2.36478">
        <ele>77</ele>
        <time>2019-08-18T08:27:28Z</time>
      </trkpt>
      <trkpt lat="47.33331" lon="-2.36458">
        <ele>78</ele>
        <time>2019-08-18T08:27:31Z</time>
      </trkpt>
      <trkpt lat="47.3333" lon="-2.36451">
        <ele>78</ele>
        <time>2019-08-18T08:27:32Z</time>
      </trkpt>
      <trkpt lat="47.33329" lon="-2.36445">
        <ele>78</ele>
        <time>2019-08-18T08:27:33Z</time>
      </trkpt>
      <trkpt lat="47.33327" lon="-2.36438">
        <ele>78</ele>
        <time>2019-08-18T08:27:34Z</time>
      </trkpt>
      <trkpt lat="47.33326" lon="-2.36432">
        <ele>78</ele>
        <time>2019-08-18T08:27:35Z</time>
      </trkpt>
      <trkpt lat="47.33325" lon="-2.36425">
        <ele>78</ele>
        <time>2019-08-18T08:27:36Z</time>
      </trkpt>
      <trkpt lat="47.33323" lon="-2.36411">
        <ele>78</ele>
        <time>2019-08-18T08:27:37Z</time>
      </trkpt>
      <trkpt lat="47.33322" lon="-2.36405">
        <ele>78</ele>
        <time>2019-08-18T08:27:38Z</time>
      </trkpt>
      <trkpt lat="47.33321" lon="-2.36397">
        <ele>78</ele>
        <time>2019-08-18T08:27:39Z</time>
      </trkpt>
      <trkpt lat="47.3332" lon="-2.3639">
        <ele>78</ele>
        <time>2019-08-18T08:27:40Z</time>
      </trkpt>
      <trkpt lat="47.33318" lon="-2.36383">
        <ele>78</ele>
        <time>2019-08-18T08:27:41Z</time>
      </trkpt>
      <trkpt lat="47.33317" lon="-2.36375">
        <ele>78</ele>
        <time>2019-08-18T08:27:42Z</time>
      </trkpt>
      <trkpt lat="47.33316" lon="-2.36367">
        <ele>78</ele>
        <time>2019-08-18T08:27:43Z</time>
      </trkpt>
      <trkpt lat="47.33315" lon="-2.36358">
        <ele>78</ele>
        <time>2019-08-18T08:27:45Z</time>
      </trkpt>
      <trkpt lat="47.33312" lon="-2.36342">
        <ele>78</ele>
        <time>2019-08-18T08:27:47Z</time>
      </trkpt>
      <trkpt lat="47.33308" lon="-2.36317">
        <ele>79</ele>
        <time>2019-08-18T08:27:49Z</time>
      </trkpt>
      <trkpt lat="47.33308" lon="-2.36309">
        <ele>79</ele>
        <time>2019-08-18T08:27:50Z</time>
      </trkpt>
      <trkpt lat="47.33307" lon="-2.363">
        <ele>79</ele>
        <time>2019-08-18T08:27:51Z</time>
      </trkpt>
      <trkpt lat="47.33306" lon="-2.36292">
        <ele>79</ele>
        <time>2019-08-18T08:27:52Z</time>
      </trkpt>
      <trkpt lat="47.33306" lon="-2.36283">
        <ele>79</ele>
        <time>2019-08-18T08:27:53Z</time>
      </trkpt>
      <trkpt lat="47.33306" lon="-2.36274">
        <ele>79</ele>
        <time>2019-08-18T08:27:54Z</time>
      </trkpt>
      <trkpt lat="47.33306" lon="-2.36266">
        <ele>80</ele>
        <time>2019-08-18T08:27:55Z</time>
      </trkpt>
      <trkpt lat="47.33306" lon="-2.36257">
        <ele>80</ele>
        <time>2019-08-18T08:27:56Z</time>
      </trkpt>
      <trkpt lat="47.33306" lon="-2.36248">
        <ele>80</ele>
        <time>2019-08-18T08:27:57Z</time>
      </trkpt>
      <trkpt lat="47.33305" lon="-2.36238">
        <ele>80</ele>
        <time>2019-08-18T08:27:58Z</time>
      </trkpt>
      <trkpt lat="47.33306" lon="-2.36211">
        <ele>80</ele>
        <time>2019-08-18T08:28:01Z</time>
      </trkpt>
      <trkpt lat="47.33306" lon="-2.36202">
        <ele>80</ele>
        <time>2019-08-18T08:28:02Z</time>
      </trkpt>
      <trkpt lat="47.33306" lon="-2.36193">
        <ele>80</ele>
        <time>2019-08-18T08:28:03Z</time>
      </trkpt>
      <trkpt lat="47.33306" lon="-2.36184">
        <ele>80</ele>
        <time>2019-08-18T08:28:04Z</time>
      </trkpt>
      <trkpt lat="47.33306" lon="-2.36176">
        <ele>80</ele>
        <time>2019-08-18T08:28:05Z</time>
      </trkpt>
      <trkpt lat="47.33306" lon="-2.36167">
        <ele>80</ele>
        <time>2019-08-18T08:28:06Z</time>
      </trkpt>
      <trkpt lat="47.33306" lon="-2.36158">
        <ele>80</ele>
        <time>2019-08-18T08:28:07Z</time>
      </trkpt>
      <trkpt lat="47.33307" lon="-2.36149">
        <ele>80</ele>
        <time>2019-08-18T08:28:08Z</time>
      </trkpt>
      <trkpt lat="47.33307" lon="-2.36132">
        <ele>80</ele>
        <time>2019-08-18T08:28:11Z</time>
      </trkpt>
      <trkpt lat="47.33307" lon="-2.36124">
        <ele>81</ele>
        <time>2019-08-18T08:28:12Z</time>
      </trkpt>
      <trkpt lat="47.33307" lon="-2.36115">
        <ele>81</ele>
        <time>2019-08-18T08:28:13Z</time>
      </trkpt>
      <trkpt lat="47.33307" lon="-2.36098">
        <ele>81</ele>
        <time>2019-08-18T08:28:14Z</time>
      </trkpt>
      <trkpt lat="47.33307" lon="-2.3609">
        <ele>81</ele>
        <time>2019-08-18T08:28:15Z</time>
      </trkpt>
      <trkpt lat="47.33308" lon="-2.36072">
        <ele>82</ele>
        <time>2019-08-18T08:28:18Z</time>
      </trkpt>
      <trkpt lat="47.33308" lon="-2.36048">
        <ele>82</ele>
        <time>2019-08-18T08:28:20Z</time>
      </trkpt>
      <trkpt lat="47.33309" lon="-2.3604">
        <ele>82</ele>
        <time>2019-08-18T08:28:21Z</time>
      </trkpt>
      <trkpt lat="47.3331" lon="-2.36022">
        <ele>82</ele>
        <time>2019-08-18T08:28:23Z</time>
      </trkpt>
      <trkpt lat="47.33311" lon="-2.36013">
        <ele>82</ele>
        <time>2019-08-18T08:28:24Z</time>
      </trkpt>
      <trkpt lat="47.33312" lon="-2.36003">
        <ele>82</ele>
        <time>2019-08-18T08:28:25Z</time>
      </trkpt>
      <trkpt lat="47.33313" lon="-2.35994">
        <ele>82</ele>
        <time>2019-08-18T08:28:26Z</time>
      </trkpt>
      <trkpt lat="47.33315" lon="-2.35986">
        <ele>82</ele>
        <time>2019-08-18T08:28:27Z</time>
      </trkpt>
      <trkpt lat="47.33317" lon="-2.35969">
        <ele>82</ele>
        <time>2019-08-18T08:28:29Z</time>
      </trkpt>
      <trkpt lat="47.33318" lon="-2.3596">
        <ele>82</ele>
        <time>2019-08-18T08:28:30Z</time>
      </trkpt>
      <trkpt lat="47.33319" lon="-2.35951">
        <ele>82</ele>
        <time>2019-08-18T08:28:31Z</time>
      </trkpt>
      <trkpt lat="47.33315" lon="-2.35926">
        <ele>83</ele>
        <time>2019-08-18T08:28:34Z</time>
      </trkpt>
      <trkpt lat="47.33314" lon="-2.35917">
        <ele>83</ele>
        <time>2019-08-18T08:28:35Z</time>
      </trkpt>
      <trkpt lat="47.33307" lon="-2.35901">
        <ele>82</ele>
        <time>2019-08-18T08:28:37Z</time>
      </trkpt>
      <trkpt lat="47.33302" lon="-2.35895">
        <ele>83</ele>
        <time>2019-08-18T08:28:38Z</time>
      </trkpt>
      <trkpt lat="47.33296" lon="-2.35888">
        <ele>82</ele>
        <time>2019-08-18T08:28:39Z</time>
      </trkpt>
      <trkpt lat="47.33282" lon="-2.35877">
        <ele>82</ele>
        <time>2019-08-18T08:28:41Z</time>
      </trkpt>
      <trkpt lat="47.33275" lon="-2.35872">
        <ele>82</ele>
        <time>2019-08-18T08:28:42Z</time>
      </trkpt>
      <trkpt lat="47.33269" lon="-2.35865">
        <ele>82</ele>
        <time>2019-08-18T08:28:43Z</time>
      </trkpt>
      <trkpt lat="47.33263" lon="-2.35857">
        <ele>82</ele>
        <time>2019-08-18T08:28:44Z</time>
      </trkpt>
      <trkpt lat="47.33256" lon="-2.35849">
        <ele>81</ele>
        <time>2019-08-18T08:28:45Z</time>
      </trkpt>
      <trkpt lat="47.33249" lon="-2.35841">
        <ele>81</ele>
        <time>2019-08-18T08:28:46Z</time>
      </trkpt>
      <trkpt lat="47.33224" lon="-2.35827">
        <ele>80</ele>
        <time>2019-08-18T08:28:49Z</time>
      </trkpt>
      <trkpt lat="47.33215" lon="-2.35823">
        <ele>79</ele>
        <time>2019-08-18T08:28:50Z</time>
      </trkpt>
      <trkpt lat="47.33206" lon="-2.3582">
        <ele>78</ele>
        <time>2019-08-18T08:28:51Z</time>
      </trkpt>
      <trkpt lat="47.33196" lon="-2.35817">
        <ele>78</ele>
        <time>2019-08-18T08:28:52Z</time>
      </trkpt>
      <trkpt lat="47.33186" lon="-2.35814">
        <ele>78</ele>
        <time>2019-08-18T08:28:53Z</time>
      </trkpt>
      <trkpt lat="47.33177" lon="-2.35813">
        <ele>77</ele>
        <time>2019-08-18T08:28:54Z</time>
      </trkpt>
      <trkpt lat="47.33142" lon="-2.35809">
        <ele>76</ele>
        <time>2019-08-18T08:28:58Z</time>
      </trkpt>
      <trkpt lat="47.33134" lon="-2.35807">
        <ele>76</ele>
        <time>2019-08-18T08:28:59Z</time>
      </trkpt>
      <trkpt lat="47.33126" lon="-2.35806">
        <ele>76</ele>
        <time>2019-08-18T08:29:00Z</time>
      </trkpt>
      <trkpt lat="47.33109" lon="-2.35806">
        <ele>76</ele>
        <time>2019-08-18T08:29:03Z</time>
      </trkpt>
      <trkpt lat="47.33085" lon="-2.35805">
        <ele>76</ele>
        <time>2019-08-18T08:29:06Z</time>
      </trkpt>
      <trkpt lat="47.33063" lon="-2.35807">
        <ele>77</ele>
        <time>2019-08-18T08:29:09Z</time>
      </trkpt>
      <trkpt lat="47.33054" lon="-2.35806">
        <ele>77</ele>
        <time>2019-08-18T08:29:10Z</time>
      </trkpt>
      <trkpt lat="47.33033" lon="-2.35792">
        <ele>77</ele>
        <time>2019-08-18T08:29:12Z</time>
      </trkpt>
      <trkpt lat="47.33025" lon="-2.35784">
        <ele>77</ele>
        <time>2019-08-18T08:29:14Z</time>
      </trkpt>
      <trkpt lat="47.3302" lon="-2.35775">
        <ele>77</ele>
        <time>2019-08-18T08:29:15Z</time>
      </trkpt>
      <trkpt lat="47.33008" lon="-2.35742">
        <ele>77</ele>
        <time>2019-08-18T08:29:17Z</time>
      </trkpt>
      <trkpt lat="47.33008" lon="-2.35731">
        <ele>77</ele>
        <time>2019-08-18T08:29:18Z</time>
      </trkpt>
      <trkpt lat="47.33009" lon="-2.35719">
        <ele>77</ele>
        <time>2019-08-18T08:29:19Z</time>
      </trkpt>
      <trkpt lat="47.3301" lon="-2.35695">
        <ele>76</ele>
        <time>2019-08-18T08:29:21Z</time>
      </trkpt>
      <trkpt lat="47.33011" lon="-2.35684">
        <ele>76</ele>
        <time>2019-08-18T08:29:22Z</time>
      </trkpt>
      <trkpt lat="47.33014" lon="-2.35673">
        <ele>75</ele>
        <time>2019-08-18T08:29:23Z</time>
      </trkpt>
      <trkpt lat="47.33015" lon="-2.35662">
        <ele>76</ele>
        <time>2019-08-18T08:29:24Z</time>
      </trkpt>
      <trkpt lat="47.33016" lon="-2.35653">
        <ele>76</ele>
        <time>2019-08-18T08:29:25Z</time>
      </trkpt>
      <trkpt lat="47.33017" lon="-2.35644">
        <ele>76</ele>
        <time>2019-08-18T08:29:26Z</time>
      </trkpt>
      <trkpt lat="47.33019" lon="-2.35608">
        <ele>75</ele>
        <time>2019-08-18T08:29:30Z</time>
      </trkpt>
      <trkpt lat="47.3302" lon="-2.356">
        <ele>75</ele>
        <time>2019-08-18T08:29:31Z</time>
      </trkpt>
      <trkpt lat="47.33022" lon="-2.35592">
        <ele>75</ele>
        <time>2019-08-18T08:29:32Z</time>
      </trkpt>
      <trkpt lat="47.33025" lon="-2.35585">
        <ele>75</ele>
        <time>2019-08-18T08:29:33Z</time>
      </trkpt>
      <trkpt lat="47.33026" lon="-2.35578">
        <ele>75</ele>
        <time>2019-08-18T08:29:34Z</time>
      </trkpt>
      <trkpt lat="47.33027" lon="-2.35572">
        <ele>75</ele>
        <time>2019-08-18T08:29:35Z</time>
      </trkpt>
      <trkpt lat="47.33027" lon="-2.35559">
        <ele>76</ele>
        <time>2019-08-18T08:29:37Z</time>
      </trkpt>
      <trkpt lat="47.33027" lon="-2.35547">
        <ele>77</ele>
        <time>2019-08-18T08:29:39Z</time>
      </trkpt>
      <trkpt lat="47.33028" lon="-2.35535">
        <ele>77</ele>
        <time>2019-08-18T08:29:41Z</time>
      </trkpt>
      <trkpt lat="47.33027" lon="-2.3552">
        <ele>77</ele>
        <time>2019-08-18T08:29:43Z</time>
      </trkpt>
      <trkpt lat="47.33029" lon="-2.35505">
        <ele>77</ele>
        <time>2019-08-18T08:29:46Z</time>
      </trkpt>
      <trkpt lat="47.33032" lon="-2.3549">
        <ele>77</ele>
        <time>2019-08-18T08:29:47Z</time>
      </trkpt>
      <trkpt lat="47.33032" lon="-2.35483">
        <ele>78</ele>
        <time>2019-08-18T08:29:49Z</time>
      </trkpt>
      <trkpt lat="47.33032" lon="-2.35476">
        <ele>77</ele>
        <time>2019-08-18T08:29:50Z</time>
      </trkpt>
      <trkpt lat="47.33032" lon="-2.35463">
        <ele>77</ele>
        <time>2019-08-18T08:29:52Z</time>
      </trkpt>
      <trkpt lat="47.3303" lon="-2.35445">
        <ele>78</ele>
        <time>2019-08-18T08:29:56Z</time>
      </trkpt>
      <trkpt lat="47.33031" lon="-2.3543">
        <ele>78</ele>
        <time>2019-08-18T08:29:58Z</time>
      </trkpt>
      <trkpt lat="47.33032" lon="-2.35421">
        <ele>78</ele>
        <time>2019-08-18T08:30:00Z</time>
      </trkpt>
      <trkpt lat="47.3303" lon="-2.35413">
        <ele>78</ele>
        <time>2019-08-18T08:30:01Z</time>
      </trkpt>
      <trkpt lat="47.33029" lon="-2.35406">
        <ele>78</ele>
        <time>2019-08-18T08:30:02Z</time>
      </trkpt>
      <trkpt lat="47.33028" lon="-2.354">
        <ele>78</ele>
        <time>2019-08-18T08:30:03Z</time>
      </trkpt>
      <trkpt lat="47.33028" lon="-2.35386">
        <ele>79</ele>
        <time>2019-08-18T08:30:05Z</time>
      </trkpt>
      <trkpt lat="47.33028" lon="-2.35379">
        <ele>79</ele>
        <time>2019-08-18T08:30:06Z</time>
      </trkpt>
      <trkpt lat="47.33028" lon="-2.35372">
        <ele>79</ele>
        <time>2019-08-18T08:30:07Z</time>
      </trkpt>
      <trkpt lat="47.33027" lon="-2.35365">
        <ele>79</ele>
        <time>2019-08-18T08:30:08Z</time>
      </trkpt>
      <trkpt lat="47.33026" lon="-2.35357">
        <ele>79</ele>
        <time>2019-08-18T08:30:09Z</time>
      </trkpt>
      <trkpt lat="47.33023" lon="-2.35344">
        <ele>80</ele>
        <time>2019-08-18T08:30:11Z</time>
      </trkpt>
      <trkpt lat="47.33022" lon="-2.3533">
        <ele>81</ele>
        <time>2019-08-18T08:30:13Z</time>
      </trkpt>
      <trkpt lat="47.3302" lon="-2.35324">
        <ele>81</ele>
        <time>2019-08-18T08:30:14Z</time>
      </trkpt>
      <trkpt lat="47.33019" lon="-2.35317">
        <ele>81</ele>
        <time>2019-08-18T08:30:15Z</time>
      </trkpt>
      <trkpt lat="47.33019" lon="-2.3531">
        <ele>82</ele>
        <time>2019-08-18T08:30:16Z</time>
      </trkpt>
      <trkpt lat="47.33021" lon="-2.35304">
        <ele>82</ele>
        <time>2019-08-18T08:30:17Z</time>
      </trkpt>
      <trkpt lat="47.33022" lon="-2.35287">
        <ele>82</ele>
        <time>2019-08-18T08:30:19Z</time>
      </trkpt>
      <trkpt lat="47.33024" lon="-2.35273">
        <ele>82</ele>
        <time>2019-08-18T08:30:21Z</time>
      </trkpt>
      <trkpt lat="47.33025" lon="-2.35266">
        <ele>83</ele>
        <time>2019-08-18T08:30:22Z</time>
      </trkpt>
      <trkpt lat="47.33026" lon="-2.35258">
        <ele>83</ele>
        <time>2019-08-18T08:30:23Z</time>
      </trkpt>
      <trkpt lat="47.33026" lon="-2.35251">
        <ele>83</ele>
        <time>2019-08-18T08:30:24Z</time>
      </trkpt>
      <trkpt lat="47.33024" lon="-2.35239">
        <ele>84</ele>
        <time>2019-08-18T08:30:26Z</time>
      </trkpt>
      <trkpt lat="47.33023" lon="-2.35232">
        <ele>85</ele>
        <time>2019-08-18T08:30:27Z</time>
      </trkpt>
      <trkpt lat="47.33022" lon="-2.35225">
        <ele>85</ele>
        <time>2019-08-18T08:30:28Z</time>
      </trkpt>
      <trkpt lat="47.33021" lon="-2.35217">
        <ele>85</ele>
        <time>2019-08-18T08:30:29Z</time>
      </trkpt>
      <trkpt lat="47.33021" lon="-2.35197">
        <ele>84</ele>
        <time>2019-08-18T08:30:32Z</time>
      </trkpt>
      <trkpt lat="47.33018" lon="-2.35182">
        <ele>85</ele>
        <time>2019-08-18T08:30:34Z</time>
      </trkpt>
      <trkpt lat="47.33016" lon="-2.35176">
        <ele>85</ele>
        <time>2019-08-18T08:30:35Z</time>
      </trkpt>
      <trkpt lat="47.33014" lon="-2.35154">
        <ele>86</ele>
        <time>2019-08-18T08:30:38Z</time>
      </trkpt>
      <trkpt lat="47.33015" lon="-2.35147">
        <ele>86</ele>
        <time>2019-08-18T08:30:39Z</time>
      </trkpt>
      <trkpt lat="47.33016" lon="-2.35133">
        <ele>86</ele>
        <time>2019-08-18T08:30:42Z</time>
      </trkpt>
      <trkpt lat="47.33016" lon="-2.35125">
        <ele>86</ele>
        <time>2019-08-18T08:30:43Z</time>
      </trkpt>
      <trkpt lat="47.33016" lon="-2.35119">
        <ele>86</ele>
        <time>2019-08-18T08:30:44Z</time>
      </trkpt>
      <trkpt lat="47.33013" lon="-2.35103">
        <ele>87</ele>
        <time>2019-08-18T08:30:46Z</time>
      </trkpt>
      <trkpt lat="47.33011" lon="-2.35093">
        <ele>87</ele>
        <time>2019-08-18T08:30:48Z</time>
      </trkpt>
      <trkpt lat="47.33011" lon="-2.35087">
        <ele>88</ele>
        <time>2019-08-18T08:30:50Z</time>
      </trkpt>
      <trkpt lat="47.33008" lon="-2.35078">
        <ele>88</ele>
        <time>2019-08-18T08:30:53Z</time>
      </trkpt>
      <trkpt lat="47.33007" lon="-2.35071">
        <ele>88</ele>
        <time>2019-08-18T08:30:55Z</time>
      </trkpt>
      <trkpt lat="47.33005" lon="-2.35063">
        <ele>89</ele>
        <time>2019-08-18T08:30:58Z</time>
      </trkpt>
      <trkpt lat="47.33004" lon="-2.35056">
        <ele>89</ele>
        <time>2019-08-18T08:31:00Z</time>
      </trkpt>
      <trkpt lat="47.33001" lon="-2.35046">
        <ele>89</ele>
        <time>2019-08-18T08:31:02Z</time>
      </trkpt>
      <trkpt lat="47.32999" lon="-2.35041">
        <ele>89</ele>
        <time>2019-08-18T08:31:03Z</time>
      </trkpt>
      <trkpt lat="47.32997" lon="-2.35033">
        <ele>90</ele>
        <time>2019-08-18T08:31:06Z</time>
      </trkpt>
      <trkpt lat="47.32995" lon="-2.35026">
        <ele>90</ele>
        <time>2019-08-18T08:31:08Z</time>
      </trkpt>
      <trkpt lat="47.32993" lon="-2.35015">
        <ele>89</ele>
        <time>2019-08-18T08:31:10Z</time>
      </trkpt>
      <trkpt lat="47.32992" lon="-2.35011">
        <ele>89</ele>
        <time>2019-08-18T08:31:11Z</time>
      </trkpt>
      <trkpt lat="47.3299" lon="-2.35002">
        <ele>89</ele>
        <time>2019-08-18T08:31:13Z</time>
      </trkpt>
      <trkpt lat="47.32984" lon="-2.34987">
        <ele>89</ele>
        <time>2019-08-18T08:31:16Z</time>
      </trkpt>
      <trkpt lat="47.32982" lon="-2.34981">
        <ele>88</ele>
        <time>2019-08-18T08:31:18Z</time>
      </trkpt>
      <trkpt lat="47.32977" lon="-2.34965">
        <ele>88</ele>
        <time>2019-08-18T08:31:21Z</time>
      </trkpt>
      <trkpt lat="47.32974" lon="-2.3496">
        <ele>89</ele>
        <time>2019-08-18T08:31:22Z</time>
      </trkpt>
      <trkpt lat="47.32971" lon="-2.34953">
        <ele>88</ele>
        <time>2019-08-18T08:31:23Z</time>
      </trkpt>
      <trkpt lat="47.32969" lon="-2.34948">
        <ele>88</ele>
        <time>2019-08-18T08:31:24Z</time>
      </trkpt>
      <trkpt lat="47.32966" lon="-2.34938">
        <ele>87</ele>
        <time>2019-08-18T08:31:26Z</time>
      </trkpt>
      <trkpt lat="47.32964" lon="-2.34932">
        <ele>87</ele>
        <time>2019-08-18T08:31:27Z</time>
      </trkpt>
      <trkpt lat="47.32963" lon="-2.34926">
        <ele>86</ele>
        <time>2019-08-18T08:31:28Z</time>
      </trkpt>
      <trkpt lat="47.3296" lon="-2.34914">
        <ele>86</ele>
        <time>2019-08-18T08:31:30Z</time>
      </trkpt>
      <trkpt lat="47.32959" lon="-2.34908">
        <ele>85</ele>
        <time>2019-08-18T08:31:32Z</time>
      </trkpt>
      <trkpt lat="47.32958" lon="-2.34902">
        <ele>85</ele>
        <time>2019-08-18T08:31:33Z</time>
      </trkpt>
      <trkpt lat="47.32956" lon="-2.34896">
        <ele>85</ele>
        <time>2019-08-18T08:31:35Z</time>
      </trkpt>
      <trkpt lat="47.32949" lon="-2.34885">
        <ele>86</ele>
        <time>2019-08-18T08:31:38Z</time>
      </trkpt>
      <trkpt lat="47.32945" lon="-2.34872">
        <ele>86</ele>
        <time>2019-08-18T08:31:41Z</time>
      </trkpt>
      <trkpt lat="47.3294" lon="-2.34856">
        <ele>86</ele>
        <time>2019-08-18T08:31:43Z</time>
      </trkpt>
      <trkpt lat="47.32939" lon="-2.34851">
        <ele>86</ele>
        <time>2019-08-18T08:31:44Z</time>
      </trkpt>
      <trkpt lat="47.32937" lon="-2.34846">
        <ele>86</ele>
        <time>2019-08-18T08:31:45Z</time>
      </trkpt>
      <trkpt lat="47.32935" lon="-2.3484">
        <ele>86</ele>
        <time>2019-08-18T08:31:46Z</time>
      </trkpt>
      <trkpt lat="47.32931" lon="-2.34831">
        <ele>86</ele>
        <time>2019-08-18T08:31:48Z</time>
      </trkpt>
      <trkpt lat="47.32927" lon="-2.34821">
        <ele>86</ele>
        <time>2019-08-18T08:31:50Z</time>
      </trkpt>
      <trkpt lat="47.32923" lon="-2.34812">
        <ele>86</ele>
        <time>2019-08-18T08:31:52Z</time>
      </trkpt>
      <trkpt lat="47.32921" lon="-2.34808">
        <ele>86</ele>
        <time>2019-08-18T08:31:54Z</time>
      </trkpt>
      <trkpt lat="47.32916" lon="-2.348">
        <ele>86</ele>
        <time>2019-08-18T08:31:55Z</time>
      </trkpt>
      <trkpt lat="47.32913" lon="-2.34791">
        <ele>86</ele>
        <time>2019-08-18T08:31:57Z</time>
      </trkpt>
      <trkpt lat="47.32913" lon="-2.34782">
        <ele>85</ele>
        <time>2019-08-18T08:31:59Z</time>
      </trkpt>
      <trkpt lat="47.32917" lon="-2.34776">
        <ele>84</ele>
        <time>2019-08-18T08:32:01Z</time>
      </trkpt>
      <trkpt lat="47.32922" lon="-2.34775">
        <ele>83</ele>
        <time>2019-08-18T08:32:03Z</time>
      </trkpt>
      <trkpt lat="47.32932" lon="-2.34767">
        <ele>82</ele>
        <time>2019-08-18T08:32:06Z</time>
      </trkpt>
      <trkpt lat="47.32935" lon="-2.34762">
        <ele>81</ele>
        <time>2019-08-18T08:32:07Z</time>
      </trkpt>
      <trkpt lat="47.3294" lon="-2.34759">
        <ele>81</ele>
        <time>2019-08-18T08:32:08Z</time>
      </trkpt>
      <trkpt lat="47.32945" lon="-2.34757">
        <ele>79</ele>
        <time>2019-08-18T08:32:10Z</time>
      </trkpt>
      <trkpt lat="47.32954" lon="-2.34753">
        <ele>77</ele>
        <time>2019-08-18T08:32:11Z</time>
      </trkpt>
      <trkpt lat="47.32959" lon="-2.3475">
        <ele>76</ele>
        <time>2019-08-18T08:32:12Z</time>
      </trkpt>
      <trkpt lat="47.32965" lon="-2.34745">
        <ele>76</ele>
        <time>2019-08-18T08:32:14Z</time>
      </trkpt>
      <trkpt lat="47.32968" lon="-2.34743">
        <ele>76</ele>
        <time>2019-08-18T08:32:15Z</time>
      </trkpt>
      <trkpt lat="47.32976" lon="-2.34737">
        <ele>76</ele>
        <time>2019-08-18T08:32:17Z</time>
      </trkpt>
      <trkpt lat="47.32981" lon="-2.34733">
        <ele>76</ele>
        <time>2019-08-18T08:32:18Z</time>
      </trkpt>
      <trkpt lat="47.32991" lon="-2.34724">
        <ele>76</ele>
        <time>2019-08-18T08:32:21Z</time>
      </trkpt>
      <trkpt lat="47.32996" lon="-2.3472">
        <ele>75</ele>
        <time>2019-08-18T08:32:22Z</time>
      </trkpt>
      <trkpt lat="47.33007" lon="-2.34711">
        <ele>75</ele>
        <time>2019-08-18T08:32:24Z</time>
      </trkpt>
      <trkpt lat="47.33017" lon="-2.34701">
        <ele>75</ele>
        <time>2019-08-18T08:32:26Z</time>
      </trkpt>
      <trkpt lat="47.33022" lon="-2.34696">
        <ele>75</ele>
        <time>2019-08-18T08:32:27Z</time>
      </trkpt>
      <trkpt lat="47.33027" lon="-2.34692">
        <ele>75</ele>
        <time>2019-08-18T08:32:28Z</time>
      </trkpt>
      <trkpt lat="47.33032" lon="-2.34687">
        <ele>75</ele>
        <time>2019-08-18T08:32:29Z</time>
      </trkpt>
      <trkpt lat="47.33036" lon="-2.34683">
        <ele>75</ele>
        <time>2019-08-18T08:32:30Z</time>
      </trkpt>
      <trkpt lat="47.33049" lon="-2.34667">
        <ele>76</ele>
        <time>2019-08-18T08:32:32Z</time>
      </trkpt>
      <trkpt lat="47.33054" lon="-2.34662">
        <ele>75</ele>
        <time>2019-08-18T08:32:33Z</time>
      </trkpt>
      <trkpt lat="47.33059" lon="-2.34657">
        <ele>76</ele>
        <time>2019-08-18T08:32:34Z</time>
      </trkpt>
      <trkpt lat="47.33078" lon="-2.34634">
        <ele>76</ele>
        <time>2019-08-18T08:32:38Z</time>
      </trkpt>
      <trkpt lat="47.33083" lon="-2.34627">
        <ele>76</ele>
        <time>2019-08-18T08:32:39Z</time>
      </trkpt>
      <trkpt lat="47.33089" lon="-2.34621">
        <ele>76</ele>
        <time>2019-08-18T08:32:40Z</time>
      </trkpt>
      <trkpt lat="47.33092" lon="-2.34615">
        <ele>75</ele>
        <time>2019-08-18T08:32:41Z</time>
      </trkpt>
      <trkpt lat="47.33097" lon="-2.3461">
        <ele>75</ele>
        <time>2019-08-18T08:32:42Z</time>
      </trkpt>
      <trkpt lat="47.33103" lon="-2.34606">
        <ele>75</ele>
        <time>2019-08-18T08:32:43Z</time>
      </trkpt>
      <trkpt lat="47.33114" lon="-2.34595">
        <ele>75</ele>
        <time>2019-08-18T08:32:46Z</time>
      </trkpt>
      <trkpt lat="47.33119" lon="-2.34592">
        <ele>75</ele>
        <time>2019-08-18T08:32:47Z</time>
      </trkpt>
      <trkpt lat="47.33125" lon="-2.34588">
        <ele>75</ele>
        <time>2019-08-18T08:32:48Z</time>
      </trkpt>
      <trkpt lat="47.3313" lon="-2.34582">
        <ele>75</ele>
        <time>2019-08-18T08:32:49Z</time>
      </trkpt>
      <trkpt lat="47.3314" lon="-2.34572">
        <ele>75</ele>
        <time>2019-08-18T08:32:50Z</time>
      </trkpt>
      <trkpt lat="47.33145" lon="-2.34567">
        <ele>74</ele>
        <time>2019-08-18T08:32:51Z</time>
      </trkpt>
      <trkpt lat="47.33151" lon="-2.34563">
        <ele>74</ele>
        <time>2019-08-18T08:32:52Z</time>
      </trkpt>
      <trkpt lat="47.33156" lon="-2.34559">
        <ele>74</ele>
        <time>2019-08-18T08:32:53Z</time>
      </trkpt>
      <trkpt lat="47.33166" lon="-2.34549">
        <ele>73</ele>
        <time>2019-08-18T08:32:55Z</time>
      </trkpt>
      <trkpt lat="47.33176" lon="-2.34539">
        <ele>73</ele>
        <time>2019-08-18T08:32:57Z</time>
      </trkpt>
      <trkpt lat="47.33181" lon="-2.34534">
        <ele>72</ele>
        <time>2019-08-18T08:32:58Z</time>
      </trkpt>
      <trkpt lat="47.3319" lon="-2.34526">
        <ele>72</ele>
        <time>2019-08-18T08:33:00Z</time>
      </trkpt>
      <trkpt lat="47.33199" lon="-2.34517">
        <ele>73</ele>
        <time>2019-08-18T08:33:03Z</time>
      </trkpt>
      <trkpt lat="47.33218" lon="-2.34497">
        <ele>74</ele>
        <time>2019-08-18T08:33:06Z</time>
      </trkpt>
      <trkpt lat="47.33223" lon="-2.34494">
        <ele>74</ele>
        <time>2019-08-18T08:33:07Z</time>
      </trkpt>
      <trkpt lat="47.3323" lon="-2.34488">
        <ele>73</ele>
        <time>2019-08-18T08:33:09Z</time>
      </trkpt>
      <trkpt lat="47.33235" lon="-2.34484">
        <ele>73</ele>
        <time>2019-08-18T08:33:10Z</time>
      </trkpt>
      <trkpt lat="47.33243" lon="-2.34479">
        <ele>73</ele>
        <time>2019-08-18T08:33:12Z</time>
      </trkpt>
      <trkpt lat="47.33253" lon="-2.34478">
        <ele>74</ele>
        <time>2019-08-18T08:33:14Z</time>
      </trkpt>
      <trkpt lat="47.33258" lon="-2.34478">
        <ele>74</ele>
        <time>2019-08-18T08:33:15Z</time>
      </trkpt>
      <trkpt lat="47.33271" lon="-2.34484">
        <ele>73</ele>
        <time>2019-08-18T08:33:18Z</time>
      </trkpt>
      <trkpt lat="47.33276" lon="-2.34486">
        <ele>73</ele>
        <time>2019-08-18T08:33:19Z</time>
      </trkpt>
      <trkpt lat="47.3328" lon="-2.34489">
        <ele>74</ele>
        <time>2019-08-18T08:33:20Z</time>
      </trkpt>
      <trkpt lat="47.33288" lon="-2.34493">
        <ele>75</ele>
        <time>2019-08-18T08:33:22Z</time>
      </trkpt>
      <trkpt lat="47.33293" lon="-2.34495">
        <ele>75</ele>
        <time>2019-08-18T08:33:23Z</time>
      </trkpt>
      <trkpt lat="47.33305" lon="-2.34497">
        <ele>76</ele>
        <time>2019-08-18T08:33:26Z</time>
      </trkpt>
      <trkpt lat="47.33312" lon="-2.345">
        <ele>76</ele>
        <time>2019-08-18T08:33:28Z</time>
      </trkpt>
      <trkpt lat="47.33319" lon="-2.34503">
        <ele>75</ele>
        <time>2019-08-18T08:33:30Z</time>
      </trkpt>
      <trkpt lat="47.33325" lon="-2.34505">
        <ele>76</ele>
        <time>2019-08-18T08:33:32Z</time>
      </trkpt>
      <trkpt lat="47.33329" lon="-2.34511">
        <ele>76</ele>
        <time>2019-08-18T08:33:34Z</time>
      </trkpt>
      <trkpt lat="47.3333" lon="-2.3452">
        <ele>76</ele>
        <time>2019-08-18T08:33:36Z</time>
      </trkpt>
      <trkpt lat="47.33331" lon="-2.34529">
        <ele>75</ele>
        <time>2019-08-18T08:33:38Z</time>
      </trkpt>
      <trkpt lat="47.33332" lon="-2.34534">
        <ele>75</ele>
        <time>2019-08-18T08:33:39Z</time>
      </trkpt>
      <trkpt lat="47.33331" lon="-2.34547">
        <ele>74</ele>
        <time>2019-08-18T08:33:42Z</time>
      </trkpt>
      <trkpt lat="47.33329" lon="-2.34558">
        <ele>74</ele>
        <time>2019-08-18T08:33:45Z</time>
      </trkpt>
      <trkpt lat="47.33328" lon="-2.34564">
        <ele>74</ele>
        <time>2019-08-18T08:33:47Z</time>
      </trkpt>
      <trkpt lat="47.33323" lon="-2.3457">
        <ele>74</ele>
        <time>2019-08-18T08:33:50Z</time>
      </trkpt>
      <trkpt lat="47.33321" lon="-2.34574">
        <ele>74</ele>
        <time>2019-08-18T08:33:52Z</time>
      </trkpt>
      <trkpt lat="47.3332" lon="-2.3458">
        <ele>74</ele>
        <time>2019-08-18T08:33:55Z</time>
      </trkpt>
      <trkpt lat="47.3332" lon="-2.34586">
        <ele>74</ele>
        <time>2019-08-18T08:33:57Z</time>
      </trkpt>
      <trkpt lat="47.33319" lon="-2.3459">
        <ele>74</ele>
        <time>2019-08-18T08:33:58Z</time>
      </trkpt>
      <trkpt lat="47.33319" lon="-2.34595">
        <ele>74</ele>
        <time>2019-08-18T08:33:59Z</time>
      </trkpt>
      <trkpt lat="47.33316" lon="-2.34608">
        <ele>75</ele>
        <time>2019-08-18T08:34:02Z</time>
      </trkpt>
      <trkpt lat="47.33311" lon="-2.34622">
        <ele>75</ele>
        <time>2019-08-18T08:34:05Z</time>
      </trkpt>
      <trkpt lat="47.33309" lon="-2.34627">
        <ele>76</ele>
        <time>2019-08-18T08:34:06Z</time>
      </trkpt>
      <trkpt lat="47.33305" lon="-2.34638">
        <ele>76</ele>
        <time>2019-08-18T08:34:08Z</time>
      </trkpt>
      <trkpt lat="47.33303" lon="-2.34644">
        <ele>76</ele>
        <time>2019-08-18T08:34:09Z</time>
      </trkpt>
      <trkpt lat="47.33299" lon="-2.34653">
        <ele>76</ele>
        <time>2019-08-18T08:34:11Z</time>
      </trkpt>
      <trkpt lat="47.33296" lon="-2.34663">
        <ele>76</ele>
        <time>2019-08-18T08:34:13Z</time>
      </trkpt>
      <trkpt lat="47.33292" lon="-2.34671">
        <ele>77</ele>
        <time>2019-08-18T08:34:15Z</time>
      </trkpt>
      <trkpt lat="47.33291" lon="-2.34679">
        <ele>77</ele>
        <time>2019-08-18T08:34:17Z</time>
      </trkpt>
      <trkpt lat="47.33289" lon="-2.34686">
        <ele>77</ele>
        <time>2019-08-18T08:34:19Z</time>
      </trkpt>
      <trkpt lat="47.33284" lon="-2.34694">
        <ele>77</ele>
        <time>2019-08-18T08:34:21Z</time>
      </trkpt>
      <trkpt lat="47.33278" lon="-2.34703">
        <ele>77</ele>
        <time>2019-08-18T08:34:24Z</time>
      </trkpt>
      <trkpt lat="47.33274" lon="-2.34712">
        <ele>78</ele>
        <time>2019-08-18T08:34:25Z</time>
      </trkpt>
      <trkpt lat="47.33271" lon="-2.34717">
        <ele>77</ele>
        <time>2019-08-18T08:34:27Z</time>
      </trkpt>
      <trkpt lat="47.33266" lon="-2.34729">
        <ele>77</ele>
        <time>2019-08-18T08:34:29Z</time>
      </trkpt>
      <trkpt lat="47.33263" lon="-2.34735">
        <ele>77</ele>
        <time>2019-08-18T08:34:30Z</time>
      </trkpt>
      <trkpt lat="47.33259" lon="-2.34746">
        <ele>78</ele>
        <time>2019-08-18T08:34:31Z</time>
      </trkpt>
      <trkpt lat="47.33257" lon="-2.34756">
        <ele>78</ele>
        <time>2019-08-18T08:34:33Z</time>
      </trkpt>
      <trkpt lat="47.33255" lon="-2.34766">
        <ele>78</ele>
        <time>2019-08-18T08:34:36Z</time>
      </trkpt>
      <trkpt lat="47.33249" lon="-2.34781">
        <ele>79</ele>
        <time>2019-08-18T08:34:39Z</time>
      </trkpt>
      <trkpt lat="47.33245" lon="-2.34789">
        <ele>79</ele>
        <time>2019-08-18T08:34:41Z</time>
      </trkpt>
      <trkpt lat="47.33241" lon="-2.34806">
        <ele>79</ele>
        <time>2019-08-18T08:34:44Z</time>
      </trkpt>
      <trkpt lat="47.33239" lon="-2.34813">
        <ele>79</ele>
        <time>2019-08-18T08:34:45Z</time>
      </trkpt>
      <trkpt lat="47.33235" lon="-2.34819">
        <ele>79</ele>
        <time>2019-08-18T08:34:46Z</time>
      </trkpt>
      <trkpt lat="47.33229" lon="-2.34832">
        <ele>79</ele>
        <time>2019-08-18T08:34:48Z</time>
      </trkpt>
      <trkpt lat="47.33225" lon="-2.34839">
        <ele>79</ele>
        <time>2019-08-18T08:34:50Z</time>
      </trkpt>
      <trkpt lat="47.33216" lon="-2.34857">
        <ele>79</ele>
        <time>2019-08-18T08:34:54Z</time>
      </trkpt>
      <trkpt lat="47.33214" lon="-2.34862">
        <ele>79</ele>
        <time>2019-08-18T08:34:55Z</time>
      </trkpt>
      <trkpt lat="47.33211" lon="-2.3487">
        <ele>79</ele>
        <time>2019-08-18T08:34:57Z</time>
      </trkpt>
      <trkpt lat="47.33203" lon="-2.34884">
        <ele>79</ele>
        <time>2019-08-18T08:35:00Z</time>
      </trkpt>
      <trkpt lat="47.33199" lon="-2.34893">
        <ele>79</ele>
        <time>2019-08-18T08:35:02Z</time>
      </trkpt>
      <trkpt lat="47.33197" lon="-2.34899">
        <ele>79</ele>
        <time>2019-08-18T08:35:03Z</time>
      </trkpt>
      <trkpt lat="47.33195" lon="-2.34905">
        <ele>79</ele>
        <time>2019-08-18T08:35:04Z</time>
      </trkpt>
      <trkpt lat="47.33192" lon="-2.34911">
        <ele>79</ele>
        <time>2019-08-18T08:35:05Z</time>
      </trkpt>
      <trkpt lat="47.3319" lon="-2.34915">
        <ele>79</ele>
        <time>2019-08-18T08:35:06Z</time>
      </trkpt>
      <trkpt lat="47.33184" lon="-2.34925">
        <ele>80</ele>
        <time>2019-08-18T08:35:08Z</time>
      </trkpt>
      <trkpt lat="47.33182" lon="-2.34929">
        <ele>79</ele>
        <time>2019-08-18T08:35:09Z</time>
      </trkpt>
      <trkpt lat="47.33178" lon="-2.34938">
        <ele>79</ele>
        <time>2019-08-18T08:35:11Z</time>
      </trkpt>
      <trkpt lat="47.33173" lon="-2.34948">
        <ele>79</ele>
        <time>2019-08-18T08:35:13Z</time>
      </trkpt>
      <trkpt lat="47.3317" lon="-2.34957">
        <ele>80</ele>
        <time>2019-08-18T08:35:15Z</time>
      </trkpt>
      <trkpt lat="47.3316" lon="-2.34972">
        <ele>80</ele>
        <time>2019-08-18T08:35:19Z</time>
      </trkpt>
      <trkpt lat="47.33159" lon="-2.34982">
        <ele>80</ele>
        <time>2019-08-18T08:35:21Z</time>
      </trkpt>
      <trkpt lat="47.33159" lon="-2.34987">
        <ele>80</ele>
        <time>2019-08-18T08:35:23Z</time>
      </trkpt>
      <trkpt lat="47.3316" lon="-2.34996">
        <ele>81</ele>
        <time>2019-08-18T08:35:25Z</time>
      </trkpt>
      <trkpt lat="47.33165" lon="-2.3501">
        <ele>81</ele>
        <time>2019-08-18T08:35:27Z</time>
      </trkpt>
      <trkpt lat="47.33175" lon="-2.35011">
        <ele>80</ele>
        <time>2019-08-18T08:35:31Z</time>
      </trkpt>
      <trkpt lat="47.33192" lon="-2.34996">
        <ele>79</ele>
        <time>2019-08-18T08:35:36Z</time>
      </trkpt>
      <trkpt lat="47.33196" lon="-2.34993">
        <ele>79</ele>
        <time>2019-08-18T08:35:37Z</time>
      </trkpt>
      <trkpt lat="47.332" lon="-2.34988">
        <ele>79</ele>
        <time>2019-08-18T08:35:38Z</time>
      </trkpt>
      <trkpt lat="47.33204" lon="-2.34982">
        <ele>79</ele>
        <time>2019-08-18T08:35:39Z</time>
      </trkpt>
      <trkpt lat="47.33211" lon="-2.34974">
        <ele>79</ele>
        <time>2019-08-18T08:35:41Z</time>
      </trkpt>
      <trkpt lat="47.33218" lon="-2.34968">
        <ele>78</ele>
        <time>2019-08-18T08:35:43Z</time>
      </trkpt>
      <trkpt lat="47.33222" lon="-2.34965">
        <ele>77</ele>
        <time>2019-08-18T08:35:44Z</time>
      </trkpt>
      <trkpt lat="47.33227" lon="-2.34963">
        <ele>77</ele>
        <time>2019-08-18T08:35:45Z</time>
      </trkpt>
      <trkpt lat="47.33234" lon="-2.34959">
        <ele>77</ele>
        <time>2019-08-18T08:35:47Z</time>
      </trkpt>
      <trkpt lat="47.33237" lon="-2.34958">
        <ele>77</ele>
        <time>2019-08-18T08:35:48Z</time>
      </trkpt>
      <trkpt lat="47.33243" lon="-2.34955">
        <ele>77</ele>
        <time>2019-08-18T08:35:50Z</time>
      </trkpt>
      <trkpt lat="47.33248" lon="-2.34951">
        <ele>78</ele>
        <time>2019-08-18T08:35:52Z</time>
      </trkpt>
      <trkpt lat="47.33251" lon="-2.34949">
        <ele>78</ele>
        <time>2019-08-18T08:35:53Z</time>
      </trkpt>
      <trkpt lat="47.33258" lon="-2.34948">
        <ele>78</ele>
        <time>2019-08-18T08:35:55Z</time>
      </trkpt>
      <trkpt lat="47.33265" lon="-2.34945">
        <ele>77</ele>
        <time>2019-08-18T08:35:57Z</time>
      </trkpt>
      <trkpt lat="47.3327" lon="-2.34945">
        <ele>77</ele>
        <time>2019-08-18T08:35:58Z</time>
      </trkpt>
      <trkpt lat="47.3328" lon="-2.34944">
        <ele>77</ele>
        <time>2019-08-18T08:36:00Z</time>
      </trkpt>
      <trkpt lat="47.33293" lon="-2.34943">
        <ele>76</ele>
        <time>2019-08-18T08:36:03Z</time>
      </trkpt>
      <trkpt lat="47.33304" lon="-2.34944">
        <ele>77</ele>
        <time>2019-08-18T08:36:06Z</time>
      </trkpt>
      <trkpt lat="47.3331" lon="-2.34943">
        <ele>77</ele>
        <time>2019-08-18T08:36:07Z</time>
      </trkpt>
      <trkpt lat="47.33314" lon="-2.34943">
        <ele>77</ele>
        <time>2019-08-18T08:36:09Z</time>
      </trkpt>
      <trkpt lat="47.33319" lon="-2.34939">
        <ele>78</ele>
        <time>2019-08-18T08:36:13Z</time>
      </trkpt>
      <trkpt lat="47.33324" lon="-2.3494">
        <ele>78</ele>
        <time>2019-08-18T08:36:17Z</time>
      </trkpt>
      <trkpt lat="47.3333" lon="-2.34939">
        <ele>78</ele>
        <time>2019-08-18T08:36:21Z</time>
      </trkpt>
      <trkpt lat="47.33336" lon="-2.34941">
        <ele>78</ele>
        <time>2019-08-18T08:36:24Z</time>
      </trkpt>
      <trkpt lat="47.33342" lon="-2.3494">
        <ele>78</ele>
        <time>2019-08-18T08:36:26Z</time>
      </trkpt>
      <trkpt lat="47.33349" lon="-2.34938">
        <ele>78</ele>
        <time>2019-08-18T08:36:28Z</time>
      </trkpt>
      <trkpt lat="47.33353" lon="-2.34937">
        <ele>78</ele>
        <time>2019-08-18T08:36:29Z</time>
      </trkpt>
      <trkpt lat="47.3336" lon="-2.34936">
        <ele>78</ele>
        <time>2019-08-18T08:36:31Z</time>
      </trkpt>
      <trkpt lat="47.33363" lon="-2.34935">
        <ele>79</ele>
        <time>2019-08-18T08:36:33Z</time>
      </trkpt>
      <trkpt lat="47.3337" lon="-2.34936">
        <ele>79</ele>
        <time>2019-08-18T08:36:35Z</time>
      </trkpt>
      <trkpt lat="47.33376" lon="-2.34932">
        <ele>79</ele>
        <time>2019-08-18T08:36:37Z</time>
      </trkpt>
      <trkpt lat="47.33379" lon="-2.34931">
        <ele>80</ele>
        <time>2019-08-18T08:36:38Z</time>
      </trkpt>
      <trkpt lat="47.33384" lon="-2.34931">
        <ele>80</ele>
        <time>2019-08-18T08:36:40Z</time>
      </trkpt>
      <trkpt lat="47.33392" lon="-2.3493">
        <ele>80</ele>
        <time>2019-08-18T08:36:42Z</time>
      </trkpt>
      <trkpt lat="47.33399" lon="-2.34928">
        <ele>80</ele>
        <time>2019-08-18T08:36:44Z</time>
      </trkpt>
      <trkpt lat="47.33406" lon="-2.34924">
        <ele>80</ele>
        <time>2019-08-18T08:36:46Z</time>
      </trkpt>
      <trkpt lat="47.33411" lon="-2.34923">
        <ele>80</ele>
        <time>2019-08-18T08:36:47Z</time>
      </trkpt>
      <trkpt lat="47.33428" lon="-2.34917">
        <ele>80</ele>
        <time>2019-08-18T08:36:49Z</time>
      </trkpt>
      <trkpt lat="47.33433" lon="-2.34915">
        <ele>79</ele>
        <time>2019-08-18T08:36:51Z</time>
      </trkpt>
      <trkpt lat="47.33447" lon="-2.34908">
        <ele>80</ele>
        <time>2019-08-18T08:36:53Z</time>
      </trkpt>
      <trkpt lat="47.33451" lon="-2.34906">
        <ele>80</ele>
        <time>2019-08-18T08:36:54Z</time>
      </trkpt>
      <trkpt lat="47.33458" lon="-2.34905">
        <ele>80</ele>
        <time>2019-08-18T08:36:56Z</time>
      </trkpt>
      <trkpt lat="47.33464" lon="-2.34902">
        <ele>80</ele>
        <time>2019-08-18T08:36:58Z</time>
      </trkpt>
      <trkpt lat="47.33478" lon="-2.34899">
        <ele>82</ele>
        <time>2019-08-18T08:37:02Z</time>
      </trkpt>
      <trkpt lat="47.33484" lon="-2.34896">
        <ele>82</ele>
        <time>2019-08-18T08:37:03Z</time>
      </trkpt>
      <trkpt lat="47.33489" lon="-2.34895">
        <ele>82</ele>
        <time>2019-08-18T08:37:04Z</time>
      </trkpt>
      <trkpt lat="47.33505" lon="-2.34898">
        <ele>82</ele>
        <time>2019-08-18T08:37:07Z</time>
      </trkpt>
      <trkpt lat="47.3351" lon="-2.34901">
        <ele>82</ele>
        <time>2019-08-18T08:37:08Z</time>
      </trkpt>
      <trkpt lat="47.33518" lon="-2.34907">
        <ele>83</ele>
        <time>2019-08-18T08:37:10Z</time>
      </trkpt>
      <trkpt lat="47.33523" lon="-2.34909">
        <ele>83</ele>
        <time>2019-08-18T08:37:11Z</time>
      </trkpt>
      <trkpt lat="47.33527" lon="-2.34911">
        <ele>84</ele>
        <time>2019-08-18T08:37:12Z</time>
      </trkpt>
      <trkpt lat="47.3354" lon="-2.34918">
        <ele>84</ele>
        <time>2019-08-18T08:37:15Z</time>
      </trkpt>
      <trkpt lat="47.33545" lon="-2.34919">
        <ele>85</ele>
        <time>2019-08-18T08:37:16Z</time>
      </trkpt>
      <trkpt lat="47.3355" lon="-2.3492">
        <ele>85</ele>
        <time>2019-08-18T08:37:17Z</time>
      </trkpt>
      <trkpt lat="47.33555" lon="-2.34922">
        <ele>85</ele>
        <time>2019-08-18T08:37:18Z</time>
      </trkpt>
      <trkpt lat="47.3356" lon="-2.34925">
        <ele>85</ele>
        <time>2019-08-18T08:37:20Z</time>
      </trkpt>
      <trkpt lat="47.33565" lon="-2.34927">
        <ele>86</ele>
        <time>2019-08-18T08:37:21Z</time>
      </trkpt>
      <trkpt lat="47.33574" lon="-2.34931">
        <ele>86</ele>
        <time>2019-08-18T08:37:23Z</time>
      </trkpt>
      <trkpt lat="47.33579" lon="-2.34934">
        <ele>86</ele>
        <time>2019-08-18T08:37:24Z</time>
      </trkpt>
      <trkpt lat="47.33589" lon="-2.3494">
        <ele>85</ele>
        <time>2019-08-18T08:37:26Z</time>
      </trkpt>
      <trkpt lat="47.33595" lon="-2.34944">
        <ele>86</ele>
        <time>2019-08-18T08:37:27Z</time>
      </trkpt>
      <trkpt lat="47.33599" lon="-2.34946">
        <ele>86</ele>
        <time>2019-08-18T08:37:28Z</time>
      </trkpt>
      <trkpt lat="47.3362" lon="-2.34955">
        <ele>86</ele>
        <time>2019-08-18T08:37:32Z</time>
      </trkpt>
      <trkpt lat="47.33625" lon="-2.34958">
        <ele>86</ele>
        <time>2019-08-18T08:37:33Z</time>
      </trkpt>
      <trkpt lat="47.33628" lon="-2.3496">
        <ele>86</ele>
        <time>2019-08-18T08:37:34Z</time>
      </trkpt>
      <trkpt lat="47.33637" lon="-2.34963">
        <ele>86</ele>
        <time>2019-08-18T08:37:36Z</time>
      </trkpt>
      <trkpt lat="47.33649" lon="-2.34964">
        <ele>86</ele>
        <time>2019-08-18T08:37:39Z</time>
      </trkpt>
      <trkpt lat="47.33654" lon="-2.34965">
        <ele>85</ele>
        <time>2019-08-18T08:37:40Z</time>
      </trkpt>
      <trkpt lat="47.33661" lon="-2.34967">
        <ele>85</ele>
        <time>2019-08-18T08:37:41Z</time>
      </trkpt>
      <trkpt lat="47.33666" lon="-2.34971">
        <ele>85</ele>
        <time>2019-08-18T08:37:42Z</time>
      </trkpt>
      <trkpt lat="47.33671" lon="-2.34975">
        <ele>84</ele>
        <time>2019-08-18T08:37:43Z</time>
      </trkpt>
      <trkpt lat="47.33677" lon="-2.34979">
        <ele>84</ele>
        <time>2019-08-18T08:37:44Z</time>
      </trkpt>
      <trkpt lat="47.33681" lon="-2.34984">
        <ele>83</ele>
        <time>2019-08-18T08:37:45Z</time>
      </trkpt>
      <trkpt lat="47.33685" lon="-2.34989">
        <ele>82</ele>
        <time>2019-08-18T08:37:46Z</time>
      </trkpt>
      <trkpt lat="47.3369" lon="-2.34993">
        <ele>81</ele>
        <time>2019-08-18T08:37:47Z</time>
      </trkpt>
      <trkpt lat="47.337" lon="-2.35005">
        <ele>79</ele>
        <time>2019-08-18T08:37:49Z</time>
      </trkpt>
      <trkpt lat="47.33705" lon="-2.35006">
        <ele>79</ele>
        <time>2019-08-18T08:37:50Z</time>
      </trkpt>
      <trkpt lat="47.33709" lon="-2.35005">
        <ele>79</ele>
        <time>2019-08-18T08:37:51Z</time>
      </trkpt>
      <trkpt lat="47.33714" lon="-2.35003">
        <ele>78</ele>
        <time>2019-08-18T08:37:52Z</time>
      </trkpt>
      <trkpt lat="47.33719" lon="-2.34999">
        <ele>78</ele>
        <time>2019-08-18T08:37:53Z</time>
      </trkpt>
      <trkpt lat="47.33724" lon="-2.34995">
        <ele>78</ele>
        <time>2019-08-18T08:37:55Z</time>
      </trkpt>
      <trkpt lat="47.33745" lon="-2.34976">
        <ele>77</ele>
        <time>2019-08-18T08:37:58Z</time>
      </trkpt>
      <trkpt lat="47.3375" lon="-2.34972">
        <ele>76</ele>
        <time>2019-08-18T08:37:59Z</time>
      </trkpt>
      <trkpt lat="47.33761" lon="-2.34963">
        <ele>76</ele>
        <time>2019-08-18T08:38:01Z</time>
      </trkpt>
      <trkpt lat="47.33766" lon="-2.34959">
        <ele>76</ele>
        <time>2019-08-18T08:38:02Z</time>
      </trkpt>
      <trkpt lat="47.33778" lon="-2.34943">
        <ele>76</ele>
        <time>2019-08-18T08:38:05Z</time>
      </trkpt>
      <trkpt lat="47.33781" lon="-2.34937">
        <ele>76</ele>
        <time>2019-08-18T08:38:06Z</time>
      </trkpt>
      <trkpt lat="47.33789" lon="-2.34925">
        <ele>76</ele>
        <time>2019-08-18T08:38:09Z</time>
      </trkpt>
      <trkpt lat="47.33793" lon="-2.3492">
        <ele>76</ele>
        <time>2019-08-18T08:38:10Z</time>
      </trkpt>
      <trkpt lat="47.33797" lon="-2.34914">
        <ele>76</ele>
        <time>2019-08-18T08:38:11Z</time>
      </trkpt>
      <trkpt lat="47.33801" lon="-2.34908">
        <ele>76</ele>
        <time>2019-08-18T08:38:12Z</time>
      </trkpt>
      <trkpt lat="47.33808" lon="-2.34897">
        <ele>76</ele>
        <time>2019-08-18T08:38:13Z</time>
      </trkpt>
      <trkpt lat="47.3381" lon="-2.34893">
        <ele>76</ele>
        <time>2019-08-18T08:38:14Z</time>
      </trkpt>
      <trkpt lat="47.33813" lon="-2.34886">
        <ele>76</ele>
        <time>2019-08-18T08:38:16Z</time>
      </trkpt>
      <trkpt lat="47.33815" lon="-2.3488">
        <ele>76</ele>
        <time>2019-08-18T08:38:18Z</time>
      </trkpt>
      <trkpt lat="47.33819" lon="-2.34873">
        <ele>76</ele>
        <time>2019-08-18T08:38:20Z</time>
      </trkpt>
      <trkpt lat="47.33828" lon="-2.34864">
        <ele>75</ele>
        <time>2019-08-18T08:38:23Z</time>
      </trkpt>
      <trkpt lat="47.33835" lon="-2.34856">
        <ele>74</ele>
        <time>2019-08-18T08:38:25Z</time>
      </trkpt>
      <trkpt lat="47.33839" lon="-2.34852">
        <ele>73</ele>
        <time>2019-08-18T08:38:26Z</time>
      </trkpt>
      <trkpt lat="47.33846" lon="-2.34847">
        <ele>72</ele>
        <time>2019-08-18T08:38:29Z</time>
      </trkpt>
      <trkpt lat="47.3385" lon="-2.34842">
        <ele>72</ele>
        <time>2019-08-18T08:38:31Z</time>
      </trkpt>
      <trkpt lat="47.33853" lon="-2.34831">
        <ele>73</ele>
        <time>2019-08-18T08:38:34Z</time>
      </trkpt>
      <trkpt lat="47.33859" lon="-2.34816">
        <ele>73</ele>
        <time>2019-08-18T08:38:38Z</time>
      </trkpt>
      <trkpt lat="47.33861" lon="-2.34804">
        <ele>73</ele>
        <time>2019-08-18T08:38:41Z</time>
      </trkpt>
      <trkpt lat="47.33864" lon="-2.34789">
        <ele>74</ele>
        <time>2019-08-18T08:38:44Z</time>
      </trkpt>
      <trkpt lat="47.33863" lon="-2.34779">
        <ele>74</ele>
        <time>2019-08-18T08:38:46Z</time>
      </trkpt>
      <trkpt lat="47.33862" lon="-2.34769">
        <ele>74</ele>
        <time>2019-08-18T08:38:48Z</time>
      </trkpt>
      <trkpt lat="47.33865" lon="-2.34759">
        <ele>75</ele>
        <time>2019-08-18T08:38:50Z</time>
      </trkpt>
      <trkpt lat="47.33871" lon="-2.34738">
        <ele>75</ele>
        <time>2019-08-18T08:38:52Z</time>
      </trkpt>
      <trkpt lat="47.33874" lon="-2.34726">
        <ele>75</ele>
        <time>2019-08-18T08:38:54Z</time>
      </trkpt>
      <trkpt lat="47.33874" lon="-2.34716">
        <ele>76</ele>
        <time>2019-08-18T08:38:56Z</time>
      </trkpt>
      <trkpt lat="47.33876" lon="-2.34698">
        <ele>76</ele>
        <time>2019-08-18T08:38:59Z</time>
      </trkpt>
      <trkpt lat="47.33877" lon="-2.34688">
        <ele>76</ele>
        <time>2019-08-18T08:39:01Z</time>
      </trkpt>
      <trkpt lat="47.33877" lon="-2.34671">
        <ele>75</ele>
        <time>2019-08-18T08:39:04Z</time>
      </trkpt>
      <trkpt lat="47.33879" lon="-2.34656">
        <ele>76</ele>
        <time>2019-08-18T08:39:07Z</time>
      </trkpt>
      <trkpt lat="47.3388" lon="-2.3465">
        <ele>76</ele>
        <time>2019-08-18T08:39:08Z</time>
      </trkpt>
      <trkpt lat="47.33881" lon="-2.34641">
        <ele>76</ele>
        <time>2019-08-18T08:39:10Z</time>
      </trkpt>
      <trkpt lat="47.33883" lon="-2.34628">
        <ele>76</ele>
        <time>2019-08-18T08:39:12Z</time>
      </trkpt>
      <trkpt lat="47.33884" lon="-2.34621">
        <ele>76</ele>
        <time>2019-08-18T08:39:13Z</time>
      </trkpt>
      <trkpt lat="47.3389" lon="-2.34607">
        <ele>77</ele>
        <time>2019-08-18T08:39:16Z</time>
      </trkpt>
      <trkpt lat="47.33892" lon="-2.34604">
        <ele>77</ele>
        <time>2019-08-18T08:39:17Z</time>
      </trkpt>
      <trkpt lat="47.33897" lon="-2.34601">
        <ele>78</ele>
        <time>2019-08-18T08:39:20Z</time>
      </trkpt>
      <trkpt lat="47.33905" lon="-2.346">
        <ele>78</ele>
        <time>2019-08-18T08:39:22Z</time>
      </trkpt>
      <trkpt lat="47.3391" lon="-2.346">
        <ele>78</ele>
        <time>2019-08-18T08:39:23Z</time>
      </trkpt>
      <trkpt lat="47.33918" lon="-2.34596">
        <ele>76</ele>
        <time>2019-08-18T08:39:25Z</time>
      </trkpt>
      <trkpt lat="47.33928" lon="-2.34593">
        <ele>76</ele>
        <time>2019-08-18T08:39:28Z</time>
      </trkpt>
      <trkpt lat="47.33933" lon="-2.34591">
        <ele>74</ele>
        <time>2019-08-18T08:39:29Z</time>
      </trkpt>
      <trkpt lat="47.33942" lon="-2.34592">
        <ele>74</ele>
        <time>2019-08-18T08:39:30Z</time>
      </trkpt>
      <trkpt lat="47.3395" lon="-2.34593">
        <ele>74</ele>
        <time>2019-08-18T08:39:32Z</time>
      </trkpt>
      <trkpt lat="47.33959" lon="-2.34594">
        <ele>74</ele>
        <time>2019-08-18T08:39:34Z</time>
      </trkpt>
      <trkpt lat="47.33966" lon="-2.34598">
        <ele>75</ele>
        <time>2019-08-18T08:39:36Z</time>
      </trkpt>
      <trkpt lat="47.3397" lon="-2.346">
        <ele>75</ele>
        <time>2019-08-18T08:39:37Z</time>
      </trkpt>
      <trkpt lat="47.33989" lon="-2.34605">
        <ele>76</ele>
        <time>2019-08-18T08:39:41Z</time>
      </trkpt>
      <trkpt lat="47.33995" lon="-2.34607">
        <ele>77</ele>
        <time>2019-08-18T08:39:42Z</time>
      </trkpt>
      <trkpt lat="47.34001" lon="-2.34606">
        <ele>78</ele>
        <time>2019-08-18T08:39:43Z</time>
      </trkpt>
      <trkpt lat="47.34006" lon="-2.34605">
        <ele>77</ele>
        <time>2019-08-18T08:39:44Z</time>
      </trkpt>
      <trkpt lat="47.34013" lon="-2.34604">
        <ele>77</ele>
        <time>2019-08-18T08:39:45Z</time>
      </trkpt>
      <trkpt lat="47.3402" lon="-2.34603">
        <ele>77</ele>
        <time>2019-08-18T08:39:46Z</time>
      </trkpt>
      <trkpt lat="47.34026" lon="-2.34603">
        <ele>77</ele>
        <time>2019-08-18T08:39:47Z</time>
      </trkpt>
      <trkpt lat="47.34034" lon="-2.34598">
        <ele>78</ele>
        <time>2019-08-18T08:39:49Z</time>
      </trkpt>
      <trkpt lat="47.34043" lon="-2.34594">
        <ele>78</ele>
        <time>2019-08-18T08:39:51Z</time>
      </trkpt>
      <trkpt lat="47.34046" lon="-2.3459">
        <ele>78</ele>
        <time>2019-08-18T08:39:52Z</time>
      </trkpt>
      <trkpt lat="47.34051" lon="-2.34588">
        <ele>77</ele>
        <time>2019-08-18T08:39:53Z</time>
      </trkpt>
      <trkpt lat="47.34055" lon="-2.34584">
        <ele>76</ele>
        <time>2019-08-18T08:39:54Z</time>
      </trkpt>
      <trkpt lat="47.34061" lon="-2.34578">
        <ele>76</ele>
        <time>2019-08-18T08:39:56Z</time>
      </trkpt>
      <trkpt lat="47.34064" lon="-2.34574">
        <ele>76</ele>
        <time>2019-08-18T08:39:57Z</time>
      </trkpt>
      <trkpt lat="47.34073" lon="-2.34568">
        <ele>75</ele>
        <time>2019-08-18T08:40:00Z</time>
      </trkpt>
      <trkpt lat="47.34085" lon="-2.3456">
        <ele>73</ele>
        <time>2019-08-18T08:40:02Z</time>
      </trkpt>
      <trkpt lat="47.34092" lon="-2.34554">
        <ele>73</ele>
        <time>2019-08-18T08:40:04Z</time>
      </trkpt>
      <trkpt lat="47.34099" lon="-2.34549">
        <ele>72</ele>
        <time>2019-08-18T08:40:06Z</time>
      </trkpt>
      <trkpt lat="47.34108" lon="-2.34542">
        <ele>73</ele>
        <time>2019-08-18T08:40:09Z</time>
      </trkpt>
      <trkpt lat="47.34113" lon="-2.3454">
        <ele>73</ele>
        <time>2019-08-18T08:40:11Z</time>
      </trkpt>
      <trkpt lat="47.3412" lon="-2.34538">
        <ele>73</ele>
        <time>2019-08-18T08:40:14Z</time>
      </trkpt>
      <trkpt lat="47.34124" lon="-2.34535">
        <ele>73</ele>
        <time>2019-08-18T08:40:16Z</time>
      </trkpt>
      <trkpt lat="47.34131" lon="-2.34534">
        <ele>73</ele>
        <time>2019-08-18T08:40:20Z</time>
      </trkpt>
      <trkpt lat="47.34136" lon="-2.34533">
        <ele>74</ele>
        <time>2019-08-18T08:40:22Z</time>
      </trkpt>
      <trkpt lat="47.34142" lon="-2.34531">
        <ele>74</ele>
        <time>2019-08-18T08:40:25Z</time>
      </trkpt>
      <trkpt lat="47.34146" lon="-2.3453">
        <ele>74</ele>
        <time>2019-08-18T08:40:27Z</time>
      </trkpt>
      <trkpt lat="47.34151" lon="-2.34529">
        <ele>74</ele>
        <time>2019-08-18T08:40:30Z</time>
      </trkpt>
      <trkpt lat="47.34156" lon="-2.34527">
        <ele>75</ele>
        <time>2019-08-18T08:40:32Z</time>
      </trkpt>
      <trkpt lat="47.3416" lon="-2.34524">
        <ele>75</ele>
        <time>2019-08-18T08:40:34Z</time>
      </trkpt>
      <trkpt lat="47.34174" lon="-2.34515">
        <ele>79</ele>
        <time>2019-08-18T08:40:39Z</time>
      </trkpt>
      <trkpt lat="47.3421" lon="-2.34524">
        <ele>83</ele>
        <time>2019-08-18T08:40:50Z</time>
      </trkpt>
      <trkpt lat="47.3418" lon="-2.34509">
        <ele>65</ele>
        <time>2019-08-18T08:40:55Z</time>
      </trkpt>
      <trkpt lat="47.34211" lon="-2.34471">
        <ele>21</ele>
        <time>2019-08-18T08:40:58Z</time>
      </trkpt>
      <trkpt lat="47.34218" lon="-2.34459">
        <ele>6</ele>
        <time>2019-08-18T08:40:59Z</time>
      </trkpt>
      <trkpt lat="47.34224" lon="-2.34451">
        <ele>-8</ele>
        <time>2019-08-18T08:41:00Z</time>
      </trkpt>
      <trkpt lat="47.34227" lon="-2.34443">
        <ele>-17</ele>
        <time>2019-08-18T08:41:01Z</time>
      </trkpt>
      <trkpt lat="47.3423" lon="-2.34436">
        <ele>-26</ele>
        <time>2019-08-18T08:41:02Z</time>
      </trkpt>
      <trkpt lat="47.34235" lon="-2.34428">
        <ele>-37</ele>
        <time>2019-08-18T08:41:03Z</time>
      </trkpt>
      <trkpt lat="47.34241" lon="-2.34422">
        <ele>-46</ele>
        <time>2019-08-18T08:41:04Z</time>
      </trkpt>
      <trkpt lat="47.34247" lon="-2.34419">
        <ele>-49</ele>
        <time>2019-08-18T08:41:06Z</time>
      </trkpt>
      <trkpt lat="47.34261" lon="-2.34407">
        <ele>-59</ele>
        <time>2019-08-18T08:41:09Z</time>
      </trkpt>
      <trkpt lat="47.34266" lon="-2.34404">
        <ele>-60</ele>
        <time>2019-08-18T08:41:10Z</time>
      </trkpt>
      <trkpt lat="47.34271" lon="-2.34402">
        <ele>-60</ele>
        <time>2019-08-18T08:41:11Z</time>
      </trkpt>
      <trkpt lat="47.34276" lon="-2.34399">
        <ele>-63</ele>
        <time>2019-08-18T08:41:12Z</time>
      </trkpt>
      <trkpt lat="47.3428" lon="-2.34397">
        <ele>-63</ele>
        <time>2019-08-18T08:41:13Z</time>
      </trkpt>
      <trkpt lat="47.34287" lon="-2.34393">
        <ele>-63</ele>
        <time>2019-08-18T08:41:15Z</time>
      </trkpt>
      <trkpt lat="47.34294" lon="-2.3439">
        <ele>-62</ele>
        <time>2019-08-18T08:41:17Z</time>
      </trkpt>
      <trkpt lat="47.34297" lon="-2.34389">
        <ele>-62</ele>
        <time>2019-08-18T08:41:18Z</time>
      </trkpt>
      <trkpt lat="47.34299" lon="-2.34388">
        <ele>-60</ele>
        <time>2019-08-18T08:41:19Z</time>
      </trkpt>
      <trkpt lat="47.3431" lon="-2.3439">
        <ele>-53</ele>
        <time>2019-08-18T08:41:23Z</time>
      </trkpt>
      <trkpt lat="47.34318" lon="-2.34388">
        <ele>-51</ele>
        <time>2019-08-18T08:41:25Z</time>
      </trkpt>
      <trkpt lat="47.34323" lon="-2.34387">
        <ele>-50</ele>
        <time>2019-08-18T08:41:26Z</time>
      </trkpt>
      <trkpt lat="47.34326" lon="-2.34386">
        <ele>-50</ele>
        <time>2019-08-18T08:41:27Z</time>
      </trkpt>
      <trkpt lat="47.34336" lon="-2.34384">
        <ele>-48</ele>
        <time>2019-08-18T08:41:29Z</time>
      </trkpt>
      <trkpt lat="47.34341" lon="-2.34384">
        <ele>-47</ele>
        <time>2019-08-18T08:41:30Z</time>
      </trkpt>
      <trkpt lat="47.34346" lon="-2.34385">
        <ele>-46</ele>
        <time>2019-08-18T08:41:31Z</time>
      </trkpt>
      <trkpt lat="47.34351" lon="-2.34385">
        <ele>-46</ele>
        <time>2019-08-18T08:41:32Z</time>
      </trkpt>
      <trkpt lat="47.34355" lon="-2.34385">
        <ele>-45</ele>
        <time>2019-08-18T08:41:33Z</time>
      </trkpt>
      <trkpt lat="47.34361" lon="-2.34385">
        <ele>-44</ele>
        <time>2019-08-18T08:41:34Z</time>
      </trkpt>
      <trkpt lat="47.34366" lon="-2.34384">
        <ele>-43</ele>
        <time>2019-08-18T08:41:35Z</time>
      </trkpt>
      <trkpt lat="47.34371" lon="-2.34383">
        <ele>-42</ele>
        <time>2019-08-18T08:41:36Z</time>
      </trkpt>
      <trkpt lat="47.3438" lon="-2.34383">
        <ele>-39</ele>
        <time>2019-08-18T08:41:38Z</time>
      </trkpt>
      <trkpt lat="47.34388" lon="-2.34383">
        <ele>-36</ele>
        <time>2019-08-18T08:41:40Z</time>
      </trkpt>
      <trkpt lat="47.34393" lon="-2.34382">
        <ele>-35</ele>
        <time>2019-08-18T08:41:41Z</time>
      </trkpt>
      <trkpt lat="47.34405" lon="-2.34374">
        <ele>-33</ele>
        <time>2019-08-18T08:41:44Z</time>
      </trkpt>
      <trkpt lat="47.34413" lon="-2.34369">
        <ele>-32</ele>
        <time>2019-08-18T08:41:46Z</time>
      </trkpt>
      <trkpt lat="47.34418" lon="-2.34366">
        <ele>-31</ele>
        <time>2019-08-18T08:41:47Z</time>
      </trkpt>
      <trkpt lat="47.34426" lon="-2.34363">
        <ele>-30</ele>
        <time>2019-08-18T08:41:49Z</time>
      </trkpt>
      <trkpt lat="47.34435" lon="-2.3436">
        <ele>-29</ele>
        <time>2019-08-18T08:41:51Z</time>
      </trkpt>
      <trkpt lat="47.3444" lon="-2.34358">
        <ele>-28</ele>
        <time>2019-08-18T08:41:52Z</time>
      </trkpt>
      <trkpt lat="47.34444" lon="-2.34356">
        <ele>-28</ele>
        <time>2019-08-18T08:41:53Z</time>
      </trkpt>
      <trkpt lat="47.34449" lon="-2.34354">
        <ele>-27</ele>
        <time>2019-08-18T08:41:54Z</time>
      </trkpt>
      <trkpt lat="47.34459" lon="-2.34349">
        <ele>-26</ele>
        <time>2019-08-18T08:41:56Z</time>
      </trkpt>
      <trkpt lat="47.34464" lon="-2.34346">
        <ele>-26</ele>
        <time>2019-08-18T08:41:57Z</time>
      </trkpt>
      <trkpt lat="47.34469" lon="-2.34344">
        <ele>-25</ele>
        <time>2019-08-18T08:41:58Z</time>
      </trkpt>
      <trkpt lat="47.34485" lon="-2.3434">
        <ele>-24</ele>
        <time>2019-08-18T08:42:01Z</time>
      </trkpt>
      <trkpt lat="47.3449" lon="-2.34338">
        <ele>-24</ele>
        <time>2019-08-18T08:42:02Z</time>
      </trkpt>
      <trkpt lat="47.34496" lon="-2.34336">
        <ele>-23</ele>
        <time>2019-08-18T08:42:03Z</time>
      </trkpt>
      <trkpt lat="47.34501" lon="-2.34334">
        <ele>-23</ele>
        <time>2019-08-18T08:42:04Z</time>
      </trkpt>
      <trkpt lat="47.34507" lon="-2.34332">
        <ele>-22</ele>
        <time>2019-08-18T08:42:05Z</time>
      </trkpt>
      <trkpt lat="47.34513" lon="-2.3433">
        <ele>-22</ele>
        <time>2019-08-18T08:42:06Z</time>
      </trkpt>
      <trkpt lat="47.34524" lon="-2.34324">
        <ele>-21</ele>
        <time>2019-08-18T08:42:08Z</time>
      </trkpt>
      <trkpt lat="47.34529" lon="-2.34321">
        <ele>-21</ele>
        <time>2019-08-18T08:42:09Z</time>
      </trkpt>
      <trkpt lat="47.34539" lon="-2.34312">
        <ele>-20</ele>
        <time>2019-08-18T08:42:11Z</time>
      </trkpt>
      <trkpt lat="47.34544" lon="-2.34308">
        <ele>-20</ele>
        <time>2019-08-18T08:42:12Z</time>
      </trkpt>
      <trkpt lat="47.34547" lon="-2.34303">
        <ele>-19</ele>
        <time>2019-08-18T08:42:13Z</time>
      </trkpt>
      <trkpt lat="47.34553" lon="-2.34295">
        <ele>-18</ele>
        <time>2019-08-18T08:42:15Z</time>
      </trkpt>
      <trkpt lat="47.34558" lon="-2.3429">
        <ele>-18</ele>
        <time>2019-08-18T08:42:17Z</time>
      </trkpt>
      <trkpt lat="47.34562" lon="-2.34286">
        <ele>-17</ele>
        <time>2019-08-18T08:42:19Z</time>
      </trkpt>
      <trkpt lat="47.34566" lon="-2.34283">
        <ele>-16</ele>
        <time>2019-08-18T08:42:21Z</time>
      </trkpt>
      <trkpt lat="47.34572" lon="-2.34277">
        <ele>-15</ele>
        <time>2019-08-18T08:42:24Z</time>
      </trkpt>
      <trkpt lat="47.34577" lon="-2.34273">
        <ele>-14</ele>
        <time>2019-08-18T08:42:26Z</time>
      </trkpt>
      <trkpt lat="47.34585" lon="-2.34267">
        <ele>-13</ele>
        <time>2019-08-18T08:42:29Z</time>
      </trkpt>
      <trkpt lat="47.34591" lon="-2.34263">
        <ele>-12</ele>
        <time>2019-08-18T08:42:31Z</time>
      </trkpt>
      <trkpt lat="47.34595" lon="-2.34262">
        <ele>-12</ele>
        <time>2019-08-18T08:42:32Z</time>
      </trkpt>
      <trkpt lat="47.346" lon="-2.3426">
        <ele>-11</ele>
        <time>2019-08-18T08:42:33Z</time>
      </trkpt>
      <trkpt lat="47.34604" lon="-2.34257">
        <ele>-11</ele>
        <time>2019-08-18T08:42:34Z</time>
      </trkpt>
      <trkpt lat="47.34609" lon="-2.34254">
        <ele>-11</ele>
        <time>2019-08-18T08:42:35Z</time>
      </trkpt>
      <trkpt lat="47.34624" lon="-2.34249">
        <ele>-11</ele>
        <time>2019-08-18T08:42:38Z</time>
      </trkpt>
      <trkpt lat="47.3463" lon="-2.34249">
        <ele>-10</ele>
        <time>2019-08-18T08:42:39Z</time>
      </trkpt>
      <trkpt lat="47.34634" lon="-2.34249">
        <ele>-10</ele>
        <time>2019-08-18T08:42:40Z</time>
      </trkpt>
      <trkpt lat="47.34644" lon="-2.34249">
        <ele>-10</ele>
        <time>2019-08-18T08:42:42Z</time>
      </trkpt>
      <trkpt lat="47.3465" lon="-2.3425">
        <ele>-10</ele>
        <time>2019-08-18T08:42:43Z</time>
      </trkpt>
      <trkpt lat="47.34662" lon="-2.34246">
        <ele>-7</ele>
        <time>2019-08-18T08:42:46Z</time>
      </trkpt>
      <trkpt lat="47.34669" lon="-2.34247">
        <ele>-3</ele>
        <time>2019-08-18T08:42:49Z</time>
      </trkpt>
      <trkpt lat="47.34678" lon="-2.34245">
        <ele>-1</ele>
        <time>2019-08-18T08:42:51Z</time>
      </trkpt>
      <trkpt lat="47.34685" lon="-2.34244">
        <ele>13.9</ele>
        <time>2019-08-18T08:42:52Z</time>
      </trkpt>
      <trkpt lat="47.3469" lon="-2.34244">
        <ele>1</ele>
        <time>2019-08-18T08:42:53Z</time>
      </trkpt>
      <trkpt lat="47.34696" lon="-2.34244">
        <ele>3</ele>
        <time>2019-08-18T08:42:54Z</time>
      </trkpt>
      <trkpt lat="47.34703" lon="-2.34245">
        <ele>6</ele>
        <time>2019-08-18T08:42:55Z</time>
      </trkpt>
      <trkpt lat="47.34716" lon="-2.34248">
        <ele>12</ele>
        <time>2019-08-18T08:42:57Z</time>
      </trkpt>
      <trkpt lat="47.34722" lon="-2.34248">
        <ele>15</ele>
        <time>2019-08-18T08:42:58Z</time>
      </trkpt>
      <trkpt lat="47.34729" lon="-2.34249">
        <ele>18</ele>
        <time>2019-08-18T08:42:59Z</time>
      </trkpt>
      <trkpt lat="47.34735" lon="-2.34249">
        <ele>20</ele>
        <time>2019-08-18T08:43:00Z</time>
      </trkpt>
      <trkpt lat="47.34837" lon="-2.34236">
        <ele>65</ele>
        <time>2019-08-18T08:43:25Z</time>
      </trkpt>
      <trkpt lat="47.34843" lon="-2.34233">
        <ele>63</ele>
        <time>2019-08-18T08:43:26Z</time>
      </trkpt>
      <trkpt lat="47.34845" lon="-2.34232">
        <ele>63</ele>
        <time>2019-08-18T08:43:27Z</time>
      </trkpt>
      <trkpt lat="47.34851" lon="-2.34237">
        <ele>71</ele>
        <time>2019-08-18T08:43:32Z</time>
      </trkpt>
      <trkpt lat="47.34858" lon="-2.34235">
        <ele>74</ele>
        <time>2019-08-18T08:43:35Z</time>
      </trkpt>
      <trkpt lat="47.34864" lon="-2.34232">
        <ele>76</ele>
        <time>2019-08-18T08:43:38Z</time>
      </trkpt>
      <trkpt lat="47.34869" lon="-2.34226">
        <ele>76</ele>
        <time>2019-08-18T08:43:41Z</time>
      </trkpt>
      <trkpt lat="47.34873" lon="-2.34219">
        <ele>77</ele>
        <time>2019-08-18T08:43:44Z</time>
      </trkpt>
      <trkpt lat="47.34876" lon="-2.34216">
        <ele>79</ele>
        <time>2019-08-18T08:43:46Z</time>
      </trkpt>
      <trkpt lat="47.3488" lon="-2.34214">
        <ele>79</ele>
        <time>2019-08-18T08:43:49Z</time>
      </trkpt>
      <trkpt lat="47.34883" lon="-2.34213">
        <ele>80</ele>
        <time>2019-08-18T08:43:50Z</time>
      </trkpt>
      <trkpt lat="47.34887" lon="-2.34209">
        <ele>80</ele>
        <time>2019-08-18T08:43:54Z</time>
      </trkpt>
      <trkpt lat="47.34893" lon="-2.34203">
        <ele>79</ele>
        <time>2019-08-18T08:44:00Z</time>
      </trkpt>
      <trkpt lat="47.34893" lon="-2.34203">
        <ele>79</ele>
        <time>2019-08-18T08:44:08Z</time>
      </trkpt>
      <trkpt lat="47.34893" lon="-2.34203">
        <ele>25.6</ele>
        <time>2019-08-18T08:44:08Z</time>
      </trkpt>
      <trkpt lat="47.34893" lon="-2.34203">
        <ele>25.6</ele>
        <time>2019-08-18T08:58:41Z</time>
      </trkpt>
      <trkpt lat="47.34911" lon="-2.34215">
        <ele>72</ele>
        <time>2019-08-18T08:58:41Z</time>
      </trkpt>
      <trkpt lat="47.34929" lon="-2.34237">
        <ele>74</ele>
        <time>2019-08-18T08:58:47Z</time>
      </trkpt>
      <trkpt lat="47.34929" lon="-2.34247">
        <ele>71</ele>
        <time>2019-08-18T08:58:48Z</time>
      </trkpt>
      <trkpt lat="47.3493" lon="-2.34256">
        <ele>69</ele>
        <time>2019-08-18T08:58:49Z</time>
      </trkpt>
      <trkpt lat="47.34932" lon="-2.34263">
        <ele>68</ele>
        <time>2019-08-18T08:58:50Z</time>
      </trkpt>
      <trkpt lat="47.34937" lon="-2.34277">
        <ele>67</ele>
        <time>2019-08-18T08:58:52Z</time>
      </trkpt>
      <trkpt lat="47.34939" lon="-2.34283">
        <ele>68</ele>
        <time>2019-08-18T08:58:53Z</time>
      </trkpt>
      <trkpt lat="47.34941" lon="-2.34291">
        <ele>68</ele>
        <time>2019-08-18T08:58:54Z</time>
      </trkpt>
      <trkpt lat="47.34944" lon="-2.34297">
        <ele>68</ele>
        <time>2019-08-18T08:58:55Z</time>
      </trkpt>
      <trkpt lat="47.34946" lon="-2.34305">
        <ele>68</ele>
        <time>2019-08-18T08:58:56Z</time>
      </trkpt>
      <trkpt lat="47.34949" lon="-2.34313">
        <ele>67</ele>
        <time>2019-08-18T08:58:57Z</time>
      </trkpt>
      <trkpt lat="47.34951" lon="-2.3432">
        <ele>67</ele>
        <time>2019-08-18T08:58:58Z</time>
      </trkpt>
      <trkpt lat="47.34958" lon="-2.34335">
        <ele>64</ele>
        <time>2019-08-18T08:59:00Z</time>
      </trkpt>
      <trkpt lat="47.34961" lon="-2.34341">
        <ele>64</ele>
        <time>2019-08-18T08:59:01Z</time>
      </trkpt>
      <trkpt lat="47.34965" lon="-2.34347">
        <ele>64</ele>
        <time>2019-08-18T08:59:02Z</time>
      </trkpt>
      <trkpt lat="47.34977" lon="-2.34369">
        <ele>63</ele>
        <time>2019-08-18T08:59:05Z</time>
      </trkpt>
      <trkpt lat="47.34982" lon="-2.34376">
        <ele>63</ele>
        <time>2019-08-18T08:59:06Z</time>
      </trkpt>
      <trkpt lat="47.34986" lon="-2.34383">
        <ele>63</ele>
        <time>2019-08-18T08:59:07Z</time>
      </trkpt>
      <trkpt lat="47.34989" lon="-2.3439">
        <ele>63</ele>
        <time>2019-08-18T08:59:08Z</time>
      </trkpt>
      <trkpt lat="47.34992" lon="-2.34397">
        <ele>62</ele>
        <time>2019-08-18T08:59:09Z</time>
      </trkpt>
      <trkpt lat="47.34997" lon="-2.3442">
        <ele>60</ele>
        <time>2019-08-18T08:59:12Z</time>
      </trkpt>
      <trkpt lat="47.34999" lon="-2.34427">
        <ele>60</ele>
        <time>2019-08-18T08:59:13Z</time>
      </trkpt>
      <trkpt lat="47.35001" lon="-2.34438">
        <ele>60</ele>
        <time>2019-08-18T08:59:15Z</time>
      </trkpt>
      <trkpt lat="47.35004" lon="-2.3445">
        <ele>59</ele>
        <time>2019-08-18T08:59:18Z</time>
      </trkpt>
      <trkpt lat="47.35006" lon="-2.34454">
        <ele>59</ele>
        <time>2019-08-18T08:59:19Z</time>
      </trkpt>
      <trkpt lat="47.35007" lon="-2.34458">
        <ele>59</ele>
        <time>2019-08-18T08:59:20Z</time>
      </trkpt>
      <trkpt lat="47.35008" lon="-2.34462">
        <ele>59</ele>
        <time>2019-08-18T08:59:21Z</time>
      </trkpt>
      <trkpt lat="47.35012" lon="-2.34467">
        <ele>59</ele>
        <time>2019-08-18T08:59:23Z</time>
      </trkpt>
      <trkpt lat="47.3502" lon="-2.34471">
        <ele>59</ele>
        <time>2019-08-18T08:59:26Z</time>
      </trkpt>
      <trkpt lat="47.35022" lon="-2.34473">
        <ele>59</ele>
        <time>2019-08-18T08:59:27Z</time>
      </trkpt>
      <trkpt lat="47.35027" lon="-2.34476">
        <ele>59</ele>
        <time>2019-08-18T08:59:29Z</time>
      </trkpt>
      <trkpt lat="47.35032" lon="-2.34482">
        <ele>58</ele>
        <time>2019-08-18T08:59:31Z</time>
      </trkpt>
      <trkpt lat="47.35035" lon="-2.34487">
        <ele>59</ele>
        <time>2019-08-18T08:59:36Z</time>
      </trkpt>
      <trkpt lat="47.35035" lon="-2.34487">
        <ele>6.6</ele>
        <time>2019-08-18T08:59:42Z</time>
      </trkpt>
      <trkpt lat="47.35035" lon="-2.34487">
        <ele>6.6</ele>
        <time>2019-08-18T09:00:30Z</time>
      </trkpt>
      <trkpt lat="47.35067" lon="-2.34508">
        <ele>68</ele>
        <time>2019-08-18T09:00:30Z</time>
      </trkpt>
      <trkpt lat="47.35077" lon="-2.34511">
        <ele>62</ele>
        <time>2019-08-18T09:00:35Z</time>
      </trkpt>
      <trkpt lat="47.35077" lon="-2.34524">
        <ele>71</ele>
        <time>2019-08-18T09:00:36Z</time>
      </trkpt>
      <trkpt lat="47.35081" lon="-2.34536">
        <ele>68</ele>
        <time>2019-08-18T09:00:39Z</time>
      </trkpt>
      <trkpt lat="47.35082" lon="-2.34541">
        <ele>67</ele>
        <time>2019-08-18T09:00:40Z</time>
      </trkpt>
      <trkpt lat="47.35087" lon="-2.34546">
        <ele>67</ele>
        <time>2019-08-18T09:00:42Z</time>
      </trkpt>
      <trkpt lat="47.35094" lon="-2.34547">
        <ele>71</ele>
        <time>2019-08-18T09:00:44Z</time>
      </trkpt>
      <trkpt lat="47.35099" lon="-2.34546">
        <ele>73</ele>
        <time>2019-08-18T09:00:45Z</time>
      </trkpt>
      <trkpt lat="47.35106" lon="-2.34544">
        <ele>75</ele>
        <time>2019-08-18T09:00:47Z</time>
      </trkpt>
      <trkpt lat="47.35119" lon="-2.34537">
        <ele>81</ele>
        <time>2019-08-18T09:00:51Z</time>
      </trkpt>
      <trkpt lat="47.35125" lon="-2.34535">
        <ele>79</ele>
        <time>2019-08-18T09:00:52Z</time>
      </trkpt>
      <trkpt lat="47.3513" lon="-2.34534">
        <ele>73</ele>
        <time>2019-08-18T09:00:53Z</time>
      </trkpt>
      <trkpt lat="47.35135" lon="-2.34533">
        <ele>70</ele>
        <time>2019-08-18T09:00:54Z</time>
      </trkpt>
      <trkpt lat="47.35139" lon="-2.34531">
        <ele>69</ele>
        <time>2019-08-18T09:00:55Z</time>
      </trkpt>
      <trkpt lat="47.35156" lon="-2.34525">
        <ele>67</ele>
        <time>2019-08-18T09:00:58Z</time>
      </trkpt>
      <trkpt lat="47.35161" lon="-2.34522">
        <ele>65</ele>
        <time>2019-08-18T09:00:59Z</time>
      </trkpt>
      <trkpt lat="47.35167" lon="-2.34519">
        <ele>64</ele>
        <time>2019-08-18T09:01:00Z</time>
      </trkpt>
      <trkpt lat="47.35198" lon="-2.34508">
        <ele>68</ele>
        <time>2019-08-18T09:01:04Z</time>
      </trkpt>
      <trkpt lat="47.35204" lon="-2.34506">
        <ele>68</ele>
        <time>2019-08-18T09:01:05Z</time>
      </trkpt>
      <trkpt lat="47.35223" lon="-2.345">
        <ele>66</ele>
        <time>2019-08-18T09:01:08Z</time>
      </trkpt>
      <trkpt lat="47.35229" lon="-2.34498">
        <ele>65</ele>
        <time>2019-08-18T09:01:09Z</time>
      </trkpt>
      <trkpt lat="47.35236" lon="-2.34495">
        <ele>64</ele>
        <time>2019-08-18T09:01:10Z</time>
      </trkpt>
      <trkpt lat="47.35242" lon="-2.34493">
        <ele>63</ele>
        <time>2019-08-18T09:01:11Z</time>
      </trkpt>
      <trkpt lat="47.35247" lon="-2.34491">
        <ele>62</ele>
        <time>2019-08-18T09:01:12Z</time>
      </trkpt>
      <trkpt lat="47.35253" lon="-2.34488">
        <ele>62</ele>
        <time>2019-08-18T09:01:13Z</time>
      </trkpt>
      <trkpt lat="47.35265" lon="-2.34483">
        <ele>60</ele>
        <time>2019-08-18T09:01:15Z</time>
      </trkpt>
      <trkpt lat="47.35271" lon="-2.3448">
        <ele>60</ele>
        <time>2019-08-18T09:01:16Z</time>
      </trkpt>
      <trkpt lat="47.35278" lon="-2.34476">
        <ele>60</ele>
        <time>2019-08-18T09:01:17Z</time>
      </trkpt>
      <trkpt lat="47.35284" lon="-2.34473">
        <ele>60</ele>
        <time>2019-08-18T09:01:18Z</time>
      </trkpt>
      <trkpt lat="47.35289" lon="-2.34472">
        <ele>60</ele>
        <time>2019-08-18T09:01:19Z</time>
      </trkpt>
      <trkpt lat="47.35295" lon="-2.34472">
        <ele>60</ele>
        <time>2019-08-18T09:01:20Z</time>
      </trkpt>
      <trkpt lat="47.35317" lon="-2.34473">
        <ele>60</ele>
        <time>2019-08-18T09:01:24Z</time>
      </trkpt>
      <trkpt lat="47.35329" lon="-2.34481">
        <ele>61</ele>
        <time>2019-08-18T09:01:27Z</time>
      </trkpt>
      <trkpt lat="47.35334" lon="-2.34485">
        <ele>61</ele>
        <time>2019-08-18T09:01:28Z</time>
      </trkpt>
      <trkpt lat="47.35338" lon="-2.3449">
        <ele>62</ele>
        <time>2019-08-18T09:01:29Z</time>
      </trkpt>
      <trkpt lat="47.35343" lon="-2.34497">
        <ele>62</ele>
        <time>2019-08-18T09:01:30Z</time>
      </trkpt>
      <trkpt lat="47.35347" lon="-2.34504">
        <ele>62</ele>
        <time>2019-08-18T09:01:31Z</time>
      </trkpt>
      <trkpt lat="47.35352" lon="-2.34509">
        <ele>63</ele>
        <time>2019-08-18T09:01:32Z</time>
      </trkpt>
      <trkpt lat="47.35356" lon="-2.34516">
        <ele>63</ele>
        <time>2019-08-18T09:01:33Z</time>
      </trkpt>
      <trkpt lat="47.35364" lon="-2.34528">
        <ele>67</ele>
        <time>2019-08-18T09:01:36Z</time>
      </trkpt>
      <trkpt lat="47.35367" lon="-2.34535">
        <ele>68</ele>
        <time>2019-08-18T09:01:37Z</time>
      </trkpt>
      <trkpt lat="47.35369" lon="-2.3454">
        <ele>69</ele>
        <time>2019-08-18T09:01:38Z</time>
      </trkpt>
      <trkpt lat="47.35426" lon="-2.3468">
        <ele>74</ele>
        <time>2019-08-18T09:01:59Z</time>
      </trkpt>
      <trkpt lat="47.35443" lon="-2.34698">
        <ele>64</ele>
        <time>2019-08-18T09:02:03Z</time>
      </trkpt>
      <trkpt lat="47.35455" lon="-2.34686">
        <ele>63</ele>
        <time>2019-08-18T09:02:07Z</time>
      </trkpt>
      <trkpt lat="47.35458" lon="-2.34681">
        <ele>61</ele>
        <time>2019-08-18T09:02:08Z</time>
      </trkpt>
      <trkpt lat="47.35461" lon="-2.34673">
        <ele>60</ele>
        <time>2019-08-18T09:02:09Z</time>
      </trkpt>
      <trkpt lat="47.35464" lon="-2.34665">
        <ele>60</ele>
        <time>2019-08-18T09:02:10Z</time>
      </trkpt>
      <trkpt lat="47.35467" lon="-2.34657">
        <ele>60</ele>
        <time>2019-08-18T09:02:11Z</time>
      </trkpt>
      <trkpt lat="47.35469" lon="-2.3465">
        <ele>59</ele>
        <time>2019-08-18T09:02:12Z</time>
      </trkpt>
      <trkpt lat="47.35472" lon="-2.34642">
        <ele>58</ele>
        <time>2019-08-18T09:02:13Z</time>
      </trkpt>
      <trkpt lat="47.35475" lon="-2.34634">
        <ele>58</ele>
        <time>2019-08-18T09:02:14Z</time>
      </trkpt>
      <trkpt lat="47.35479" lon="-2.34626">
        <ele>59</ele>
        <time>2019-08-18T09:02:15Z</time>
      </trkpt>
      <trkpt lat="47.35486" lon="-2.3461">
        <ele>59</ele>
        <time>2019-08-18T09:02:17Z</time>
      </trkpt>
      <trkpt lat="47.35489" lon="-2.34602">
        <ele>58</ele>
        <time>2019-08-18T09:02:18Z</time>
      </trkpt>
      <trkpt lat="47.35493" lon="-2.34595">
        <ele>56</ele>
        <time>2019-08-18T09:02:19Z</time>
      </trkpt>
      <trkpt lat="47.35504" lon="-2.34574">
        <ele>56</ele>
        <time>2019-08-18T09:02:22Z</time>
      </trkpt>
      <trkpt lat="47.35508" lon="-2.34564">
        <ele>55</ele>
        <time>2019-08-18T09:02:23Z</time>
      </trkpt>
      <trkpt lat="47.35511" lon="-2.34556">
        <ele>56</ele>
        <time>2019-08-18T09:02:24Z</time>
      </trkpt>
      <trkpt lat="47.35515" lon="-2.34547">
        <ele>56</ele>
        <time>2019-08-18T09:02:25Z</time>
      </trkpt>
      <trkpt lat="47.35517" lon="-2.3454">
        <ele>57</ele>
        <time>2019-08-18T09:02:26Z</time>
      </trkpt>
      <trkpt lat="47.35519" lon="-2.34531">
        <ele>57</ele>
        <time>2019-08-18T09:02:27Z</time>
      </trkpt>
      <trkpt lat="47.35525" lon="-2.34501">
        <ele>57</ele>
        <time>2019-08-18T09:02:30Z</time>
      </trkpt>
      <trkpt lat="47.35526" lon="-2.34491">
        <ele>56</ele>
        <time>2019-08-18T09:02:31Z</time>
      </trkpt>
      <trkpt lat="47.35527" lon="-2.34482">
        <ele>56</ele>
        <time>2019-08-18T09:02:32Z</time>
      </trkpt>
      <trkpt lat="47.35527" lon="-2.34472">
        <ele>57</ele>
        <time>2019-08-18T09:02:33Z</time>
      </trkpt>
      <trkpt lat="47.35531" lon="-2.34447">
        <ele>58</ele>
        <time>2019-08-18T09:02:36Z</time>
      </trkpt>
      <trkpt lat="47.35532" lon="-2.34438">
        <ele>58</ele>
        <time>2019-08-18T09:02:37Z</time>
      </trkpt>
      <trkpt lat="47.35536" lon="-2.34421">
        <ele>58</ele>
        <time>2019-08-18T09:02:39Z</time>
      </trkpt>
      <trkpt lat="47.35537" lon="-2.34412">
        <ele>59</ele>
        <time>2019-08-18T09:02:40Z</time>
      </trkpt>
      <trkpt lat="47.35538" lon="-2.34404">
        <ele>58</ele>
        <time>2019-08-18T09:02:41Z</time>
      </trkpt>
      <trkpt lat="47.35541" lon="-2.34395">
        <ele>58</ele>
        <time>2019-08-18T09:02:42Z</time>
      </trkpt>
      <trkpt lat="47.35546" lon="-2.34369">
        <ele>59</ele>
        <time>2019-08-18T09:02:45Z</time>
      </trkpt>
      <trkpt lat="47.35548" lon="-2.3436">
        <ele>59</ele>
        <time>2019-08-18T09:02:46Z</time>
      </trkpt>
      <trkpt lat="47.3555" lon="-2.34352">
        <ele>59</ele>
        <time>2019-08-18T09:02:47Z</time>
      </trkpt>
      <trkpt lat="47.35554" lon="-2.34335">
        <ele>59</ele>
        <time>2019-08-18T09:02:49Z</time>
      </trkpt>
      <trkpt lat="47.35555" lon="-2.34327">
        <ele>59</ele>
        <time>2019-08-18T09:02:50Z</time>
      </trkpt>
      <trkpt lat="47.35556" lon="-2.34318">
        <ele>59</ele>
        <time>2019-08-18T09:02:51Z</time>
      </trkpt>
      <trkpt lat="47.35558" lon="-2.34301">
        <ele>59</ele>
        <time>2019-08-18T09:02:53Z</time>
      </trkpt>
      <trkpt lat="47.35558" lon="-2.34292">
        <ele>59</ele>
        <time>2019-08-18T09:02:54Z</time>
      </trkpt>
      <trkpt lat="47.35558" lon="-2.34283">
        <ele>60</ele>
        <time>2019-08-18T09:02:55Z</time>
      </trkpt>
      <trkpt lat="47.3556" lon="-2.34275">
        <ele>60</ele>
        <time>2019-08-18T09:02:56Z</time>
      </trkpt>
      <trkpt lat="47.3556" lon="-2.34267">
        <ele>59</ele>
        <time>2019-08-18T09:02:57Z</time>
      </trkpt>
      <trkpt lat="47.35563" lon="-2.34234">
        <ele>60</ele>
        <time>2019-08-18T09:03:01Z</time>
      </trkpt>
      <trkpt lat="47.35564" lon="-2.34226">
        <ele>60</ele>
        <time>2019-08-18T09:03:02Z</time>
      </trkpt>
      <trkpt lat="47.35563" lon="-2.34219">
        <ele>60</ele>
        <time>2019-08-18T09:03:03Z</time>
      </trkpt>
      <trkpt lat="47.35563" lon="-2.34211">
        <ele>60</ele>
        <time>2019-08-18T09:03:04Z</time>
      </trkpt>
      <trkpt lat="47.35564" lon="-2.34199">
        <ele>60</ele>
        <time>2019-08-18T09:03:06Z</time>
      </trkpt>
      <trkpt lat="47.35569" lon="-2.34185">
        <ele>61</ele>
        <time>2019-08-18T09:03:09Z</time>
      </trkpt>
      <trkpt lat="47.35577" lon="-2.34181">
        <ele>61</ele>
        <time>2019-08-18T09:03:11Z</time>
      </trkpt>
      <trkpt lat="47.35582" lon="-2.34182">
        <ele>61</ele>
        <time>2019-08-18T09:03:12Z</time>
      </trkpt>
      <trkpt lat="47.35596" lon="-2.34184">
        <ele>61</ele>
        <time>2019-08-18T09:03:15Z</time>
      </trkpt>
      <trkpt lat="47.35601" lon="-2.34185">
        <ele>61</ele>
        <time>2019-08-18T09:03:16Z</time>
      </trkpt>
      <trkpt lat="47.35607" lon="-2.34186">
        <ele>61</ele>
        <time>2019-08-18T09:03:17Z</time>
      </trkpt>
      <trkpt lat="47.35612" lon="-2.34187">
        <ele>61</ele>
        <time>2019-08-18T09:03:18Z</time>
      </trkpt>
      <trkpt lat="47.35623" lon="-2.34188">
        <ele>61</ele>
        <time>2019-08-18T09:03:20Z</time>
      </trkpt>
      <trkpt lat="47.35627" lon="-2.34189">
        <ele>61</ele>
        <time>2019-08-18T09:03:21Z</time>
      </trkpt>
      <trkpt lat="47.35632" lon="-2.34191">
        <ele>61</ele>
        <time>2019-08-18T09:03:22Z</time>
      </trkpt>
      <trkpt lat="47.35637" lon="-2.34194">
        <ele>62</ele>
        <time>2019-08-18T09:03:23Z</time>
      </trkpt>
      <trkpt lat="47.35647" lon="-2.34196">
        <ele>62</ele>
        <time>2019-08-18T09:03:25Z</time>
      </trkpt>
      <trkpt lat="47.35653" lon="-2.34198">
        <ele>62</ele>
        <time>2019-08-18T09:03:26Z</time>
      </trkpt>
      <trkpt lat="47.35658" lon="-2.342">
        <ele>62</ele>
        <time>2019-08-18T09:03:27Z</time>
      </trkpt>
      <trkpt lat="47.35663" lon="-2.34202">
        <ele>62</ele>
        <time>2019-08-18T09:03:28Z</time>
      </trkpt>
      <trkpt lat="47.35668" lon="-2.34203">
        <ele>62</ele>
        <time>2019-08-18T09:03:29Z</time>
      </trkpt>
      <trkpt lat="47.35674" lon="-2.34204">
        <ele>62</ele>
        <time>2019-08-18T09:03:30Z</time>
      </trkpt>
      <trkpt lat="47.35684" lon="-2.34207">
        <ele>63</ele>
        <time>2019-08-18T09:03:32Z</time>
      </trkpt>
      <trkpt lat="47.35689" lon="-2.34208">
        <ele>63</ele>
        <time>2019-08-18T09:03:33Z</time>
      </trkpt>
      <trkpt lat="47.35694" lon="-2.3421">
        <ele>63</ele>
        <time>2019-08-18T09:03:34Z</time>
      </trkpt>
      <trkpt lat="47.35699" lon="-2.34211">
        <ele>63</ele>
        <time>2019-08-18T09:03:35Z</time>
      </trkpt>
      <trkpt lat="47.35704" lon="-2.34212">
        <ele>63</ele>
        <time>2019-08-18T09:03:36Z</time>
      </trkpt>
      <trkpt lat="47.35709" lon="-2.34212">
        <ele>64</ele>
        <time>2019-08-18T09:03:37Z</time>
      </trkpt>
      <trkpt lat="47.35713" lon="-2.34211">
        <ele>64</ele>
        <time>2019-08-18T09:03:38Z</time>
      </trkpt>
      <trkpt lat="47.35722" lon="-2.34211">
        <ele>64</ele>
        <time>2019-08-18T09:03:40Z</time>
      </trkpt>
      <trkpt lat="47.35728" lon="-2.34209">
        <ele>64</ele>
        <time>2019-08-18T09:03:41Z</time>
      </trkpt>
      <trkpt lat="47.35732" lon="-2.34208">
        <ele>64</ele>
        <time>2019-08-18T09:03:42Z</time>
      </trkpt>
      <trkpt lat="47.35736" lon="-2.34207">
        <ele>64</ele>
        <time>2019-08-18T09:03:43Z</time>
      </trkpt>
      <trkpt lat="47.35741" lon="-2.34205">
        <ele>65</ele>
        <time>2019-08-18T09:03:44Z</time>
      </trkpt>
      <trkpt lat="47.35754" lon="-2.34204">
        <ele>65</ele>
        <time>2019-08-18T09:03:47Z</time>
      </trkpt>
      <trkpt lat="47.35761" lon="-2.34208">
        <ele>65</ele>
        <time>2019-08-18T09:03:49Z</time>
      </trkpt>
      <trkpt lat="47.35765" lon="-2.3422">
        <ele>66</ele>
        <time>2019-08-18T09:03:51Z</time>
      </trkpt>
      <trkpt lat="47.35765" lon="-2.34227">
        <ele>66</ele>
        <time>2019-08-18T09:03:52Z</time>
      </trkpt>
      <trkpt lat="47.35764" lon="-2.34234">
        <ele>66</ele>
        <time>2019-08-18T09:03:53Z</time>
      </trkpt>
      <trkpt lat="47.35764" lon="-2.34242">
        <ele>67</ele>
        <time>2019-08-18T09:03:54Z</time>
      </trkpt>
      <trkpt lat="47.35763" lon="-2.3425">
        <ele>67</ele>
        <time>2019-08-18T09:03:55Z</time>
      </trkpt>
      <trkpt lat="47.35762" lon="-2.34258">
        <ele>67</ele>
        <time>2019-08-18T09:03:56Z</time>
      </trkpt>
      <trkpt lat="47.35762" lon="-2.34266">
        <ele>67</ele>
        <time>2019-08-18T09:03:57Z</time>
      </trkpt>
      <trkpt lat="47.35761" lon="-2.34274">
        <ele>67</ele>
        <time>2019-08-18T09:03:58Z</time>
      </trkpt>
      <trkpt lat="47.35761" lon="-2.34283">
        <ele>67</ele>
        <time>2019-08-18T09:03:59Z</time>
      </trkpt>
      <trkpt lat="47.35761" lon="-2.34292">
        <ele>66</ele>
        <time>2019-08-18T09:04:00Z</time>
      </trkpt>
      <trkpt lat="47.35762" lon="-2.34301">
        <ele>66</ele>
        <time>2019-08-18T09:04:01Z</time>
      </trkpt>
      <trkpt lat="47.35763" lon="-2.3431">
        <ele>66</ele>
        <time>2019-08-18T09:04:02Z</time>
      </trkpt>
      <trkpt lat="47.35764" lon="-2.34319">
        <ele>66</ele>
        <time>2019-08-18T09:04:03Z</time>
      </trkpt>
      <trkpt lat="47.35765" lon="-2.34328">
        <ele>67</ele>
        <time>2019-08-18T09:04:04Z</time>
      </trkpt>
      <trkpt lat="47.35766" lon="-2.34337">
        <ele>67</ele>
        <time>2019-08-18T09:04:05Z</time>
      </trkpt>
      <trkpt lat="47.35767" lon="-2.34346">
        <ele>66</ele>
        <time>2019-08-18T09:04:06Z</time>
      </trkpt>
      <trkpt lat="47.35768" lon="-2.34356">
        <ele>66</ele>
        <time>2019-08-18T09:04:07Z</time>
      </trkpt>
      <trkpt lat="47.3577" lon="-2.34365">
        <ele>66</ele>
        <time>2019-08-18T09:04:08Z</time>
      </trkpt>
      <trkpt lat="47.35771" lon="-2.34374">
        <ele>66</ele>
        <time>2019-08-18T09:04:09Z</time>
      </trkpt>
      <trkpt lat="47.35772" lon="-2.34383">
        <ele>66</ele>
        <time>2019-08-18T09:04:10Z</time>
      </trkpt>
      <trkpt lat="47.35773" lon="-2.34392">
        <ele>66</ele>
        <time>2019-08-18T09:04:11Z</time>
      </trkpt>
      <trkpt lat="47.35775" lon="-2.34401">
        <ele>66</ele>
        <time>2019-08-18T09:04:12Z</time>
      </trkpt>
      <trkpt lat="47.35776" lon="-2.3441">
        <ele>65</ele>
        <time>2019-08-18T09:04:13Z</time>
      </trkpt>
      <trkpt lat="47.35777" lon="-2.34419">
        <ele>65</ele>
        <time>2019-08-18T09:04:14Z</time>
      </trkpt>
      <trkpt lat="47.35778" lon="-2.34428">
        <ele>65</ele>
        <time>2019-08-18T09:04:15Z</time>
      </trkpt>
      <trkpt lat="47.35779" lon="-2.34437">
        <ele>64</ele>
        <time>2019-08-18T09:04:16Z</time>
      </trkpt>
      <trkpt lat="47.35781" lon="-2.34445">
        <ele>64</ele>
        <time>2019-08-18T09:04:17Z</time>
      </trkpt>
      <trkpt lat="47.35782" lon="-2.34454">
        <ele>64</ele>
        <time>2019-08-18T09:04:18Z</time>
      </trkpt>
      <trkpt lat="47.35783" lon="-2.34463">
        <ele>64</ele>
        <time>2019-08-18T09:04:19Z</time>
      </trkpt>
      <trkpt lat="47.35784" lon="-2.34471">
        <ele>63</ele>
        <time>2019-08-18T09:04:20Z</time>
      </trkpt>
      <trkpt lat="47.35786" lon="-2.34479">
        <ele>63</ele>
        <time>2019-08-18T09:04:21Z</time>
      </trkpt>
      <trkpt lat="47.35787" lon="-2.34488">
        <ele>63</ele>
        <time>2019-08-18T09:04:22Z</time>
      </trkpt>
      <trkpt lat="47.35788" lon="-2.34496">
        <ele>63</ele>
        <time>2019-08-18T09:04:23Z</time>
      </trkpt>
      <trkpt lat="47.35789" lon="-2.34504">
        <ele>62</ele>
        <time>2019-08-18T09:04:24Z</time>
      </trkpt>
      <trkpt lat="47.35791" lon="-2.34513">
        <ele>62</ele>
        <time>2019-08-18T09:04:25Z</time>
      </trkpt>
      <trkpt lat="47.35794" lon="-2.34528">
        <ele>62</ele>
        <time>2019-08-18T09:04:27Z</time>
      </trkpt>
      <trkpt lat="47.35795" lon="-2.34536">
        <ele>62</ele>
        <time>2019-08-18T09:04:28Z</time>
      </trkpt>
      <trkpt lat="47.35796" lon="-2.34545">
        <ele>62</ele>
        <time>2019-08-18T09:04:29Z</time>
      </trkpt>
      <trkpt lat="47.35798" lon="-2.34564">
        <ele>62</ele>
        <time>2019-08-18T09:04:31Z</time>
      </trkpt>
      <trkpt lat="47.35799" lon="-2.34572">
        <ele>62</ele>
        <time>2019-08-18T09:04:32Z</time>
      </trkpt>
      <trkpt lat="47.35802" lon="-2.3458">
        <ele>62</ele>
        <time>2019-08-18T09:04:33Z</time>
      </trkpt>
      <trkpt lat="47.35808" lon="-2.34593">
        <ele>62</ele>
        <time>2019-08-18T09:04:35Z</time>
      </trkpt>
      <trkpt lat="47.35811" lon="-2.34601">
        <ele>62</ele>
        <time>2019-08-18T09:04:36Z</time>
      </trkpt>
      <trkpt lat="47.35814" lon="-2.34607">
        <ele>62</ele>
        <time>2019-08-18T09:04:37Z</time>
      </trkpt>
      <trkpt lat="47.35817" lon="-2.34614">
        <ele>62</ele>
        <time>2019-08-18T09:04:38Z</time>
      </trkpt>
      <trkpt lat="47.35821" lon="-2.34622">
        <ele>62</ele>
        <time>2019-08-18T09:04:39Z</time>
      </trkpt>
      <trkpt lat="47.35824" lon="-2.34629">
        <ele>62</ele>
        <time>2019-08-18T09:04:40Z</time>
      </trkpt>
      <trkpt lat="47.35834" lon="-2.3465">
        <ele>62</ele>
        <time>2019-08-18T09:04:43Z</time>
      </trkpt>
      <trkpt lat="47.35837" lon="-2.34657">
        <ele>62</ele>
        <time>2019-08-18T09:04:44Z</time>
      </trkpt>
      <trkpt lat="47.3584" lon="-2.34665">
        <ele>62</ele>
        <time>2019-08-18T09:04:45Z</time>
      </trkpt>
      <trkpt lat="47.35843" lon="-2.34672">
        <ele>62</ele>
        <time>2019-08-18T09:04:46Z</time>
      </trkpt>
      <trkpt lat="47.35846" lon="-2.34679">
        <ele>62</ele>
        <time>2019-08-18T09:04:47Z</time>
      </trkpt>
      <trkpt lat="47.35852" lon="-2.34692">
        <ele>63</ele>
        <time>2019-08-18T09:04:49Z</time>
      </trkpt>
      <trkpt lat="47.35855" lon="-2.347">
        <ele>63</ele>
        <time>2019-08-18T09:04:50Z</time>
      </trkpt>
      <trkpt lat="47.35858" lon="-2.34706">
        <ele>63</ele>
        <time>2019-08-18T09:04:51Z</time>
      </trkpt>
      <trkpt lat="47.35864" lon="-2.34722">
        <ele>63</ele>
        <time>2019-08-18T09:04:53Z</time>
      </trkpt>
      <trkpt lat="47.35867" lon="-2.3473">
        <ele>63</ele>
        <time>2019-08-18T09:04:54Z</time>
      </trkpt>
      <trkpt lat="47.3587" lon="-2.34737">
        <ele>63</ele>
        <time>2019-08-18T09:04:55Z</time>
      </trkpt>
      <trkpt lat="47.35874" lon="-2.34745">
        <ele>63</ele>
        <time>2019-08-18T09:04:56Z</time>
      </trkpt>
      <trkpt lat="47.35885" lon="-2.34768">
        <ele>61</ele>
        <time>2019-08-18T09:04:59Z</time>
      </trkpt>
      <trkpt lat="47.35888" lon="-2.34776">
        <ele>61</ele>
        <time>2019-08-18T09:05:00Z</time>
      </trkpt>
      <trkpt lat="47.35891" lon="-2.34783">
        <ele>62</ele>
        <time>2019-08-18T09:05:01Z</time>
      </trkpt>
      <trkpt lat="47.35895" lon="-2.3479">
        <ele>61</ele>
        <time>2019-08-18T09:05:02Z</time>
      </trkpt>
      <trkpt lat="47.35897" lon="-2.34797">
        <ele>61</ele>
        <time>2019-08-18T09:05:03Z</time>
      </trkpt>
      <trkpt lat="47.35899" lon="-2.34805">
        <ele>61</ele>
        <time>2019-08-18T09:05:04Z</time>
      </trkpt>
      <trkpt lat="47.35902" lon="-2.34811">
        <ele>61</ele>
        <time>2019-08-18T09:05:05Z</time>
      </trkpt>
      <trkpt lat="47.35905" lon="-2.34819">
        <ele>61</ele>
        <time>2019-08-18T09:05:06Z</time>
      </trkpt>
      <trkpt lat="47.35908" lon="-2.34827">
        <ele>61</ele>
        <time>2019-08-18T09:05:07Z</time>
      </trkpt>
      <trkpt lat="47.35911" lon="-2.34835">
        <ele>61</ele>
        <time>2019-08-18T09:05:08Z</time>
      </trkpt>
      <trkpt lat="47.35914" lon="-2.34841">
        <ele>61</ele>
        <time>2019-08-18T09:05:09Z</time>
      </trkpt>
      <trkpt lat="47.35919" lon="-2.34848">
        <ele>61</ele>
        <time>2019-08-18T09:05:10Z</time>
      </trkpt>
      <trkpt lat="47.35924" lon="-2.34853">
        <ele>60</ele>
        <time>2019-08-18T09:05:11Z</time>
      </trkpt>
      <trkpt lat="47.35929" lon="-2.34857">
        <ele>60</ele>
        <time>2019-08-18T09:05:12Z</time>
      </trkpt>
      <trkpt lat="47.35935" lon="-2.3486">
        <ele>60</ele>
        <time>2019-08-18T09:05:13Z</time>
      </trkpt>
      <trkpt lat="47.35946" lon="-2.34864">
        <ele>60</ele>
        <time>2019-08-18T09:05:15Z</time>
      </trkpt>
      <trkpt lat="47.35952" lon="-2.34866">
        <ele>59</ele>
        <time>2019-08-18T09:05:16Z</time>
      </trkpt>
      <trkpt lat="47.35957" lon="-2.34866">
        <ele>59</ele>
        <time>2019-08-18T09:05:17Z</time>
      </trkpt>
      <trkpt lat="47.35963" lon="-2.34866">
        <ele>59</ele>
        <time>2019-08-18T09:05:18Z</time>
      </trkpt>
      <trkpt lat="47.35969" lon="-2.34868">
        <ele>59</ele>
        <time>2019-08-18T09:05:19Z</time>
      </trkpt>
      <trkpt lat="47.35976" lon="-2.3487">
        <ele>59</ele>
        <time>2019-08-18T09:05:20Z</time>
      </trkpt>
      <trkpt lat="47.35982" lon="-2.3487">
        <ele>59</ele>
        <time>2019-08-18T09:05:21Z</time>
      </trkpt>
      <trkpt lat="47.35988" lon="-2.34871">
        <ele>59</ele>
        <time>2019-08-18T09:05:22Z</time>
      </trkpt>
      <trkpt lat="47.35993" lon="-2.34872">
        <ele>60</ele>
        <time>2019-08-18T09:05:23Z</time>
      </trkpt>
      <trkpt lat="47.35999" lon="-2.34872">
        <ele>59</ele>
        <time>2019-08-18T09:05:24Z</time>
      </trkpt>
      <trkpt lat="47.36004" lon="-2.34873">
        <ele>60</ele>
        <time>2019-08-18T09:05:25Z</time>
      </trkpt>
      <trkpt lat="47.3601" lon="-2.34873">
        <ele>60</ele>
        <time>2019-08-18T09:05:26Z</time>
      </trkpt>
      <trkpt lat="47.36016" lon="-2.34873">
        <ele>59</ele>
        <time>2019-08-18T09:05:27Z</time>
      </trkpt>
      <trkpt lat="47.36021" lon="-2.34874">
        <ele>60</ele>
        <time>2019-08-18T09:05:28Z</time>
      </trkpt>
      <trkpt lat="47.36027" lon="-2.34874">
        <ele>60</ele>
        <time>2019-08-18T09:05:29Z</time>
      </trkpt>
      <trkpt lat="47.36032" lon="-2.34875">
        <ele>60</ele>
        <time>2019-08-18T09:05:30Z</time>
      </trkpt>
      <trkpt lat="47.36038" lon="-2.34876">
        <ele>60</ele>
        <time>2019-08-18T09:05:31Z</time>
      </trkpt>
      <trkpt lat="47.36043" lon="-2.34876">
        <ele>60</ele>
        <time>2019-08-18T09:05:32Z</time>
      </trkpt>
      <trkpt lat="47.36049" lon="-2.34876">
        <ele>60</ele>
        <time>2019-08-18T09:05:33Z</time>
      </trkpt>
      <trkpt lat="47.36054" lon="-2.34877">
        <ele>61</ele>
        <time>2019-08-18T09:05:34Z</time>
      </trkpt>
      <trkpt lat="47.3606" lon="-2.34878">
        <ele>61</ele>
        <time>2019-08-18T09:05:35Z</time>
      </trkpt>
      <trkpt lat="47.36066" lon="-2.34878">
        <ele>61</ele>
        <time>2019-08-18T09:05:36Z</time>
      </trkpt>
      <trkpt lat="47.3607" lon="-2.34878">
        <ele>61</ele>
        <time>2019-08-18T09:05:37Z</time>
      </trkpt>
      <trkpt lat="47.36079" lon="-2.3488">
        <ele>61</ele>
        <time>2019-08-18T09:05:39Z</time>
      </trkpt>
      <trkpt lat="47.36089" lon="-2.34891">
        <ele>61</ele>
        <time>2019-08-18T09:05:42Z</time>
      </trkpt>
      <trkpt lat="47.36092" lon="-2.34902">
        <ele>62</ele>
        <time>2019-08-18T09:05:44Z</time>
      </trkpt>
      <trkpt lat="47.36091" lon="-2.34922">
        <ele>62</ele>
        <time>2019-08-18T09:05:46Z</time>
      </trkpt>
      <trkpt lat="47.36091" lon="-2.34931">
        <ele>63</ele>
        <time>2019-08-18T09:05:47Z</time>
      </trkpt>
      <trkpt lat="47.36091" lon="-2.34941">
        <ele>63</ele>
        <time>2019-08-18T09:05:48Z</time>
      </trkpt>
      <trkpt lat="47.36092" lon="-2.3495">
        <ele>63</ele>
        <time>2019-08-18T09:05:49Z</time>
      </trkpt>
      <trkpt lat="47.36093" lon="-2.34959">
        <ele>63</ele>
        <time>2019-08-18T09:05:50Z</time>
      </trkpt>
      <trkpt lat="47.36099" lon="-2.34983">
        <ele>63</ele>
        <time>2019-08-18T09:05:53Z</time>
      </trkpt>
      <trkpt lat="47.361" lon="-2.34992">
        <ele>63</ele>
        <time>2019-08-18T09:05:54Z</time>
      </trkpt>
      <trkpt lat="47.36101" lon="-2.35002">
        <ele>63</ele>
        <time>2019-08-18T09:05:55Z</time>
      </trkpt>
      <trkpt lat="47.36101" lon="-2.35013">
        <ele>63</ele>
        <time>2019-08-18T09:05:56Z</time>
      </trkpt>
      <trkpt lat="47.36101" lon="-2.35022">
        <ele>63</ele>
        <time>2019-08-18T09:05:57Z</time>
      </trkpt>
      <trkpt lat="47.361" lon="-2.35032">
        <ele>63</ele>
        <time>2019-08-18T09:05:58Z</time>
      </trkpt>
      <trkpt lat="47.36099" lon="-2.35042">
        <ele>63</ele>
        <time>2019-08-18T09:05:59Z</time>
      </trkpt>
      <trkpt lat="47.36098" lon="-2.35052">
        <ele>62</ele>
        <time>2019-08-18T09:06:00Z</time>
      </trkpt>
      <trkpt lat="47.36097" lon="-2.35062">
        <ele>62</ele>
        <time>2019-08-18T09:06:01Z</time>
      </trkpt>
      <trkpt lat="47.36097" lon="-2.35072">
        <ele>62</ele>
        <time>2019-08-18T09:06:02Z</time>
      </trkpt>
      <trkpt lat="47.36095" lon="-2.35092">
        <ele>63</ele>
        <time>2019-08-18T09:06:04Z</time>
      </trkpt>
      <trkpt lat="47.36094" lon="-2.35102">
        <ele>63</ele>
        <time>2019-08-18T09:06:05Z</time>
      </trkpt>
      <trkpt lat="47.36092" lon="-2.35165">
        <ele>76</ele>
        <time>2019-08-18T09:06:12Z</time>
      </trkpt>
      <trkpt lat="47.36108" lon="-2.35161">
        <ele>74</ele>
        <time>2019-08-18T09:06:15Z</time>
      </trkpt>
      <trkpt lat="47.36112" lon="-2.35157">
        <ele>74</ele>
        <time>2019-08-18T09:06:17Z</time>
      </trkpt>
      <trkpt lat="47.36122" lon="-2.35146">
        <ele>73</ele>
        <time>2019-08-18T09:06:18Z</time>
      </trkpt>
      <trkpt lat="47.36136" lon="-2.35125">
        <ele>74</ele>
        <time>2019-08-18T09:06:21Z</time>
      </trkpt>
      <trkpt lat="47.36166" lon="-2.35094">
        <ele>71</ele>
        <time>2019-08-18T09:06:26Z</time>
      </trkpt>
      <trkpt lat="47.36172" lon="-2.35089">
        <ele>70</ele>
        <time>2019-08-18T09:06:27Z</time>
      </trkpt>
      <trkpt lat="47.36177" lon="-2.35083">
        <ele>69</ele>
        <time>2019-08-18T09:06:28Z</time>
      </trkpt>
      <trkpt lat="47.36183" lon="-2.35077">
        <ele>68</ele>
        <time>2019-08-18T09:06:29Z</time>
      </trkpt>
      <trkpt lat="47.36193" lon="-2.35068">
        <ele>67</ele>
        <time>2019-08-18T09:06:31Z</time>
      </trkpt>
      <trkpt lat="47.36206" lon="-2.35059">
        <ele>65</ele>
        <time>2019-08-18T09:06:33Z</time>
      </trkpt>
      <trkpt lat="47.36211" lon="-2.3505">
        <ele>65</ele>
        <time>2019-08-18T09:06:34Z</time>
      </trkpt>
      <trkpt lat="47.36216" lon="-2.35043">
        <ele>65</ele>
        <time>2019-08-18T09:06:35Z</time>
      </trkpt>
      <trkpt lat="47.36221" lon="-2.35036">
        <ele>63</ele>
        <time>2019-08-18T09:06:36Z</time>
      </trkpt>
      <trkpt lat="47.36225" lon="-2.35028">
        <ele>63</ele>
        <time>2019-08-18T09:06:37Z</time>
      </trkpt>
      <trkpt lat="47.36229" lon="-2.35021">
        <ele>62</ele>
        <time>2019-08-18T09:06:38Z</time>
      </trkpt>
      <trkpt lat="47.36233" lon="-2.35013">
        <ele>63</ele>
        <time>2019-08-18T09:06:39Z</time>
      </trkpt>
      <trkpt lat="47.36237" lon="-2.35004">
        <ele>62</ele>
        <time>2019-08-18T09:06:40Z</time>
      </trkpt>
      <trkpt lat="47.36242" lon="-2.34996">
        <ele>63</ele>
        <time>2019-08-18T09:06:41Z</time>
      </trkpt>
      <trkpt lat="47.36245" lon="-2.34988">
        <ele>63</ele>
        <time>2019-08-18T09:06:42Z</time>
      </trkpt>
      <trkpt lat="47.36249" lon="-2.34979">
        <ele>63</ele>
        <time>2019-08-18T09:06:43Z</time>
      </trkpt>
      <trkpt lat="47.36252" lon="-2.34971">
        <ele>63</ele>
        <time>2019-08-18T09:06:44Z</time>
      </trkpt>
      <trkpt lat="47.36256" lon="-2.34964">
        <ele>63</ele>
        <time>2019-08-18T09:06:45Z</time>
      </trkpt>
      <trkpt lat="47.3626" lon="-2.34957">
        <ele>63</ele>
        <time>2019-08-18T09:06:46Z</time>
      </trkpt>
      <trkpt lat="47.36263" lon="-2.34951">
        <ele>63</ele>
        <time>2019-08-18T09:06:47Z</time>
      </trkpt>
      <trkpt lat="47.36297" lon="-2.35011">
        <ele>57</ele>
        <time>2019-08-18T09:07:04Z</time>
      </trkpt>
      <trkpt lat="47.36301" lon="-2.35015">
        <ele>58</ele>
        <time>2019-08-18T09:07:05Z</time>
      </trkpt>
      <trkpt lat="47.36311" lon="-2.35015">
        <ele>60</ele>
        <time>2019-08-18T09:07:07Z</time>
      </trkpt>
      <trkpt lat="47.36316" lon="-2.3501">
        <ele>63</ele>
        <time>2019-08-18T09:07:09Z</time>
      </trkpt>
      <trkpt lat="47.36324" lon="-2.35005">
        <ele>62</ele>
        <time>2019-08-18T09:07:11Z</time>
      </trkpt>
      <trkpt lat="47.36327" lon="-2.35002">
        <ele>63</ele>
        <time>2019-08-18T09:07:12Z</time>
      </trkpt>
      <trkpt lat="47.36337" lon="-2.34989">
        <ele>62</ele>
        <time>2019-08-18T09:07:15Z</time>
      </trkpt>
      <trkpt lat="47.36344" lon="-2.3498">
        <ele>64</ele>
        <time>2019-08-18T09:07:17Z</time>
      </trkpt>
      <trkpt lat="47.36348" lon="-2.34976">
        <ele>65</ele>
        <time>2019-08-18T09:07:18Z</time>
      </trkpt>
      <trkpt lat="47.36352" lon="-2.34971">
        <ele>65</ele>
        <time>2019-08-18T09:07:19Z</time>
      </trkpt>
      <trkpt lat="47.36359" lon="-2.34964">
        <ele>63</ele>
        <time>2019-08-18T09:07:21Z</time>
      </trkpt>
      <trkpt lat="47.36366" lon="-2.34962">
        <ele>62</ele>
        <time>2019-08-18T09:07:23Z</time>
      </trkpt>
      <trkpt lat="47.36371" lon="-2.34967">
        <ele>64</ele>
        <time>2019-08-18T09:07:25Z</time>
      </trkpt>
      <trkpt lat="47.36371" lon="-2.34979">
        <ele>63</ele>
        <time>2019-08-18T09:07:27Z</time>
      </trkpt>
      <trkpt lat="47.36372" lon="-2.34991">
        <ele>63</ele>
        <time>2019-08-18T09:07:29Z</time>
      </trkpt>
      <trkpt lat="47.36376" lon="-2.3501">
        <ele>65</ele>
        <time>2019-08-18T09:07:32Z</time>
      </trkpt>
      <trkpt lat="47.36378" lon="-2.35023">
        <ele>65</ele>
        <time>2019-08-18T09:07:34Z</time>
      </trkpt>
      <trkpt lat="47.36382" lon="-2.35036">
        <ele>64</ele>
        <time>2019-08-18T09:07:36Z</time>
      </trkpt>
      <trkpt lat="47.36384" lon="-2.35044">
        <ele>64</ele>
        <time>2019-08-18T09:07:37Z</time>
      </trkpt>
      <trkpt lat="47.36386" lon="-2.3505">
        <ele>64</ele>
        <time>2019-08-18T09:07:38Z</time>
      </trkpt>
      <trkpt lat="47.36387" lon="-2.35056">
        <ele>64</ele>
        <time>2019-08-18T09:07:39Z</time>
      </trkpt>
      <trkpt lat="47.36396" lon="-2.35073">
        <ele>63</ele>
        <time>2019-08-18T09:07:42Z</time>
      </trkpt>
      <trkpt lat="47.36401" lon="-2.35076">
        <ele>62</ele>
        <time>2019-08-18T09:07:43Z</time>
      </trkpt>
      <trkpt lat="47.36407" lon="-2.35076">
        <ele>62</ele>
        <time>2019-08-18T09:07:45Z</time>
      </trkpt>
      <trkpt lat="47.36411" lon="-2.35072">
        <ele>62</ele>
        <time>2019-08-18T09:07:50Z</time>
      </trkpt>
      <trkpt lat="47.36411" lon="-2.35072">
        <ele>62</ele>
        <time>2019-08-18T09:07:58Z</time>
      </trkpt>
      <trkpt lat="47.36411" lon="-2.35072">
        <ele>9</ele>
        <time>2019-08-18T09:07:59Z</time>
      </trkpt>
      <trkpt lat="47.36411" lon="-2.35072">
        <ele>9</ele>
        <time>2019-08-18T09:08:19Z</time>
      </trkpt>
      <trkpt lat="47.36426" lon="-2.35072">
        <ele>64</ele>
        <time>2019-08-18T09:08:19Z</time>
      </trkpt>
      <trkpt lat="47.36445" lon="-2.35081">
        <ele>62</ele>
        <time>2019-08-18T09:08:24Z</time>
      </trkpt>
      <trkpt lat="47.36453" lon="-2.35082">
        <ele>64</ele>
        <time>2019-08-18T09:08:27Z</time>
      </trkpt>
      <trkpt lat="47.36465" lon="-2.35089">
        <ele>64</ele>
        <time>2019-08-18T09:08:29Z</time>
      </trkpt>
      <trkpt lat="47.36472" lon="-2.35093">
        <ele>64</ele>
        <time>2019-08-18T09:08:31Z</time>
      </trkpt>
      <trkpt lat="47.36479" lon="-2.35098">
        <ele>64</ele>
        <time>2019-08-18T09:08:33Z</time>
      </trkpt>
      <trkpt lat="47.36485" lon="-2.35102">
        <ele>67</ele>
        <time>2019-08-18T09:08:35Z</time>
      </trkpt>
      <trkpt lat="47.36491" lon="-2.35108">
        <ele>70</ele>
        <time>2019-08-18T09:08:38Z</time>
      </trkpt>
      <trkpt lat="47.36497" lon="-2.35106">
        <ele>76</ele>
        <time>2019-08-18T09:08:40Z</time>
      </trkpt>
      <trkpt lat="47.36503" lon="-2.35102">
        <ele>80</ele>
        <time>2019-08-18T09:08:41Z</time>
      </trkpt>
      <trkpt lat="47.36508" lon="-2.35098">
        <ele>83</ele>
        <time>2019-08-18T09:08:42Z</time>
      </trkpt>
      <trkpt lat="47.36516" lon="-2.35092">
        <ele>89</ele>
        <time>2019-08-18T09:08:44Z</time>
      </trkpt>
      <trkpt lat="47.36525" lon="-2.35093">
        <ele>97</ele>
        <time>2019-08-18T09:08:46Z</time>
      </trkpt>
      <trkpt lat="47.3653" lon="-2.35094">
        <ele>94</ele>
        <time>2019-08-18T09:08:47Z</time>
      </trkpt>
      <trkpt lat="47.36535" lon="-2.35097">
        <ele>91</ele>
        <time>2019-08-18T09:08:48Z</time>
      </trkpt>
      <trkpt lat="47.36539" lon="-2.35099">
        <ele>89</ele>
        <time>2019-08-18T09:08:49Z</time>
      </trkpt>
      <trkpt lat="47.36542" lon="-2.35101">
        <ele>85</ele>
        <time>2019-08-18T09:08:52Z</time>
      </trkpt>
      <trkpt lat="47.36529" lon="-2.3508">
        <ele>84</ele>
        <time>2019-08-18T09:08:59Z</time>
      </trkpt>
      <trkpt lat="47.36526" lon="-2.35072">
        <ele>83</ele>
        <time>2019-08-18T09:09:01Z</time>
      </trkpt>
      <trkpt lat="47.36522" lon="-2.35063">
        <ele>82</ele>
        <time>2019-08-18T09:09:03Z</time>
      </trkpt>
      <trkpt lat="47.36519" lon="-2.3506">
        <ele>82</ele>
        <time>2019-08-18T09:09:04Z</time>
      </trkpt>
      <trkpt lat="47.36514" lon="-2.35049">
        <ele>81</ele>
        <time>2019-08-18T09:09:06Z</time>
      </trkpt>
      <trkpt lat="47.36511" lon="-2.35044">
        <ele>81</ele>
        <time>2019-08-18T09:09:07Z</time>
      </trkpt>
      <trkpt lat="47.36507" lon="-2.35038">
        <ele>80</ele>
        <time>2019-08-18T09:09:09Z</time>
      </trkpt>
      <trkpt lat="47.365" lon="-2.35023">
        <ele>78</ele>
        <time>2019-08-18T09:09:12Z</time>
      </trkpt>
      <trkpt lat="47.36498" lon="-2.35019">
        <ele>77</ele>
        <time>2019-08-18T09:09:13Z</time>
      </trkpt>
      <trkpt lat="47.36496" lon="-2.35015">
        <ele>77</ele>
        <time>2019-08-18T09:09:14Z</time>
      </trkpt>
      <trkpt lat="47.36494" lon="-2.35008">
        <ele>75</ele>
        <time>2019-08-18T09:09:16Z</time>
      </trkpt>
      <trkpt lat="47.36492" lon="-2.34998">
        <ele>75</ele>
        <time>2019-08-18T09:09:19Z</time>
      </trkpt>
      <trkpt lat="47.36495" lon="-2.34994">
        <ele>74</ele>
        <time>2019-08-18T09:09:21Z</time>
      </trkpt>
      <trkpt lat="47.36502" lon="-2.34999">
        <ele>72</ele>
        <time>2019-08-18T09:09:24Z</time>
      </trkpt>
      <trkpt lat="47.36506" lon="-2.35002">
        <ele>72</ele>
        <time>2019-08-18T09:09:25Z</time>
      </trkpt>
      <trkpt lat="47.36515" lon="-2.35016">
        <ele>72</ele>
        <time>2019-08-18T09:09:28Z</time>
      </trkpt>
      <trkpt lat="47.36518" lon="-2.35021">
        <ele>71</ele>
        <time>2019-08-18T09:09:29Z</time>
      </trkpt>
      <trkpt lat="47.36521" lon="-2.35027">
        <ele>71</ele>
        <time>2019-08-18T09:09:30Z</time>
      </trkpt>
      <trkpt lat="47.36525" lon="-2.35033">
        <ele>71</ele>
        <time>2019-08-18T09:09:31Z</time>
      </trkpt>
      <trkpt lat="47.36529" lon="-2.35039">
        <ele>71</ele>
        <time>2019-08-18T09:09:32Z</time>
      </trkpt>
      <trkpt lat="47.36533" lon="-2.35045">
        <ele>71</ele>
        <time>2019-08-18T09:09:33Z</time>
      </trkpt>
      <trkpt lat="47.36536" lon="-2.35052">
        <ele>71</ele>
        <time>2019-08-18T09:09:34Z</time>
      </trkpt>
      <trkpt lat="47.36544" lon="-2.35064">
        <ele>72</ele>
        <time>2019-08-18T09:09:36Z</time>
      </trkpt>
      <trkpt lat="47.36552" lon="-2.35073">
        <ele>72</ele>
        <time>2019-08-18T09:09:38Z</time>
      </trkpt>
      <trkpt lat="47.36558" lon="-2.35081">
        <ele>73</ele>
        <time>2019-08-18T09:09:40Z</time>
      </trkpt>
      <trkpt lat="47.36568" lon="-2.35102">
        <ele>73</ele>
        <time>2019-08-18T09:09:43Z</time>
      </trkpt>
      <trkpt lat="47.36572" lon="-2.35109">
        <ele>73</ele>
        <time>2019-08-18T09:09:44Z</time>
      </trkpt>
      <trkpt lat="47.36576" lon="-2.35115">
        <ele>72</ele>
        <time>2019-08-18T09:09:45Z</time>
      </trkpt>
      <trkpt lat="47.36579" lon="-2.35123">
        <ele>72</ele>
        <time>2019-08-18T09:09:46Z</time>
      </trkpt>
      <trkpt lat="47.36584" lon="-2.3513">
        <ele>72</ele>
        <time>2019-08-18T09:09:47Z</time>
      </trkpt>
      <trkpt lat="47.36596" lon="-2.35152">
        <ele>72</ele>
        <time>2019-08-18T09:09:50Z</time>
      </trkpt>
      <trkpt lat="47.366" lon="-2.35159">
        <ele>72</ele>
        <time>2019-08-18T09:09:51Z</time>
      </trkpt>
      <trkpt lat="47.36605" lon="-2.35165">
        <ele>71</ele>
        <time>2019-08-18T09:09:52Z</time>
      </trkpt>
      <trkpt lat="47.36609" lon="-2.35172">
        <ele>71</ele>
        <time>2019-08-18T09:09:53Z</time>
      </trkpt>
      <trkpt lat="47.36613" lon="-2.3518">
        <ele>70</ele>
        <time>2019-08-18T09:09:54Z</time>
      </trkpt>
      <trkpt lat="47.3662" lon="-2.35194">
        <ele>70</ele>
        <time>2019-08-18T09:09:56Z</time>
      </trkpt>
      <trkpt lat="47.36624" lon="-2.35202">
        <ele>69</ele>
        <time>2019-08-18T09:09:57Z</time>
      </trkpt>
      <trkpt lat="47.36628" lon="-2.35209">
        <ele>69</ele>
        <time>2019-08-18T09:09:58Z</time>
      </trkpt>
      <trkpt lat="47.36631" lon="-2.35214">
        <ele>69</ele>
        <time>2019-08-18T09:09:59Z</time>
      </trkpt>
      <trkpt lat="47.36636" lon="-2.35217">
        <ele>70</ele>
        <time>2019-08-18T09:10:00Z</time>
      </trkpt>
      <trkpt lat="47.36645" lon="-2.35221">
        <ele>68</ele>
        <time>2019-08-18T09:10:02Z</time>
      </trkpt>
      <trkpt lat="47.36652" lon="-2.35215">
        <ele>68</ele>
        <time>2019-08-18T09:10:04Z</time>
      </trkpt>
      <trkpt lat="47.36661" lon="-2.35206">
        <ele>67</ele>
        <time>2019-08-18T09:10:06Z</time>
      </trkpt>
      <trkpt lat="47.36664" lon="-2.352">
        <ele>67</ele>
        <time>2019-08-18T09:10:07Z</time>
      </trkpt>
      <trkpt lat="47.36668" lon="-2.35195">
        <ele>66</ele>
        <time>2019-08-18T09:10:08Z</time>
      </trkpt>
      <trkpt lat="47.36672" lon="-2.35189">
        <ele>65</ele>
        <time>2019-08-18T09:10:09Z</time>
      </trkpt>
      <trkpt lat="47.36677" lon="-2.35182">
        <ele>64</ele>
        <time>2019-08-18T09:10:10Z</time>
      </trkpt>
      <trkpt lat="47.36681" lon="-2.35175">
        <ele>63</ele>
        <time>2019-08-18T09:10:11Z</time>
      </trkpt>
      <trkpt lat="47.36685" lon="-2.35169">
        <ele>63</ele>
        <time>2019-08-18T09:10:12Z</time>
      </trkpt>
      <trkpt lat="47.36697" lon="-2.35148">
        <ele>61</ele>
        <time>2019-08-18T09:10:15Z</time>
      </trkpt>
      <trkpt lat="47.36701" lon="-2.35141">
        <ele>61</ele>
        <time>2019-08-18T09:10:16Z</time>
      </trkpt>
      <trkpt lat="47.36705" lon="-2.35135">
        <ele>60</ele>
        <time>2019-08-18T09:10:17Z</time>
      </trkpt>
      <trkpt lat="47.36709" lon="-2.35129">
        <ele>60</ele>
        <time>2019-08-18T09:10:18Z</time>
      </trkpt>
      <trkpt lat="47.36713" lon="-2.35122">
        <ele>60</ele>
        <time>2019-08-18T09:10:19Z</time>
      </trkpt>
      <trkpt lat="47.36716" lon="-2.35116">
        <ele>59</ele>
        <time>2019-08-18T09:10:20Z</time>
      </trkpt>
      <trkpt lat="47.3672" lon="-2.35109">
        <ele>59</ele>
        <time>2019-08-18T09:10:21Z</time>
      </trkpt>
      <trkpt lat="47.36727" lon="-2.35097">
        <ele>60</ele>
        <time>2019-08-18T09:10:23Z</time>
      </trkpt>
      <trkpt lat="47.3673" lon="-2.35092">
        <ele>59</ele>
        <time>2019-08-18T09:10:24Z</time>
      </trkpt>
      <trkpt lat="47.36734" lon="-2.35086">
        <ele>59</ele>
        <time>2019-08-18T09:10:25Z</time>
      </trkpt>
      <trkpt lat="47.36737" lon="-2.3508">
        <ele>59</ele>
        <time>2019-08-18T09:10:26Z</time>
      </trkpt>
      <trkpt lat="47.3674" lon="-2.35073">
        <ele>60</ele>
        <time>2019-08-18T09:10:27Z</time>
      </trkpt>
      <trkpt lat="47.36755" lon="-2.35049">
        <ele>59</ele>
        <time>2019-08-18T09:10:31Z</time>
      </trkpt>
      <trkpt lat="47.36758" lon="-2.35043">
        <ele>60</ele>
        <time>2019-08-18T09:10:32Z</time>
      </trkpt>
      <trkpt lat="47.36765" lon="-2.35029">
        <ele>59</ele>
        <time>2019-08-18T09:10:34Z</time>
      </trkpt>
      <trkpt lat="47.36768" lon="-2.35023">
        <ele>59</ele>
        <time>2019-08-18T09:10:35Z</time>
      </trkpt>
      <trkpt lat="47.36772" lon="-2.35017">
        <ele>59</ele>
        <time>2019-08-18T09:10:36Z</time>
      </trkpt>
      <trkpt lat="47.36775" lon="-2.35012">
        <ele>59</ele>
        <time>2019-08-18T09:10:37Z</time>
      </trkpt>
      <trkpt lat="47.36779" lon="-2.35006">
        <ele>59</ele>
        <time>2019-08-18T09:10:38Z</time>
      </trkpt>
      <trkpt lat="47.36782" lon="-2.35">
        <ele>59</ele>
        <time>2019-08-18T09:10:39Z</time>
      </trkpt>
      <trkpt lat="47.3679" lon="-2.3499">
        <ele>58</ele>
        <time>2019-08-18T09:10:41Z</time>
      </trkpt>
      <trkpt lat="47.36794" lon="-2.34984">
        <ele>58</ele>
        <time>2019-08-18T09:10:42Z</time>
      </trkpt>
      <trkpt lat="47.36799" lon="-2.34979">
        <ele>58</ele>
        <time>2019-08-18T09:10:43Z</time>
      </trkpt>
      <trkpt lat="47.36808" lon="-2.34971">
        <ele>58</ele>
        <time>2019-08-18T09:10:45Z</time>
      </trkpt>
      <trkpt lat="47.3682" lon="-2.34965">
        <ele>58</ele>
        <time>2019-08-18T09:10:47Z</time>
      </trkpt>
      <trkpt lat="47.36826" lon="-2.34964">
        <ele>58</ele>
        <time>2019-08-18T09:10:48Z</time>
      </trkpt>
      <trkpt lat="47.36832" lon="-2.34962">
        <ele>58</ele>
        <time>2019-08-18T09:10:49Z</time>
      </trkpt>
      <trkpt lat="47.36838" lon="-2.3496">
        <ele>58</ele>
        <time>2019-08-18T09:10:50Z</time>
      </trkpt>
      <trkpt lat="47.36844" lon="-2.34958">
        <ele>58</ele>
        <time>2019-08-18T09:10:51Z</time>
      </trkpt>
      <trkpt lat="47.3685" lon="-2.34956">
        <ele>58</ele>
        <time>2019-08-18T09:10:52Z</time>
      </trkpt>
      <trkpt lat="47.36856" lon="-2.34955">
        <ele>58</ele>
        <time>2019-08-18T09:10:53Z</time>
      </trkpt>
      <trkpt lat="47.36863" lon="-2.34954">
        <ele>58</ele>
        <time>2019-08-18T09:10:54Z</time>
      </trkpt>
      <trkpt lat="47.36869" lon="-2.34952">
        <ele>58</ele>
        <time>2019-08-18T09:10:55Z</time>
      </trkpt>
      <trkpt lat="47.36876" lon="-2.3495">
        <ele>58</ele>
        <time>2019-08-18T09:10:56Z</time>
      </trkpt>
      <trkpt lat="47.36904" lon="-2.34943">
        <ele>59</ele>
        <time>2019-08-18T09:11:00Z</time>
      </trkpt>
      <trkpt lat="47.36911" lon="-2.34941">
        <ele>59</ele>
        <time>2019-08-18T09:11:01Z</time>
      </trkpt>
      <trkpt lat="47.36918" lon="-2.3494">
        <ele>59</ele>
        <time>2019-08-18T09:11:02Z</time>
      </trkpt>
      <trkpt lat="47.36932" lon="-2.34936">
        <ele>59</ele>
        <time>2019-08-18T09:11:04Z</time>
      </trkpt>
      <trkpt lat="47.36939" lon="-2.34934">
        <ele>59</ele>
        <time>2019-08-18T09:11:05Z</time>
      </trkpt>
      <trkpt lat="47.36945" lon="-2.34931">
        <ele>59</ele>
        <time>2019-08-18T09:11:06Z</time>
      </trkpt>
      <trkpt lat="47.3695" lon="-2.34927">
        <ele>60</ele>
        <time>2019-08-18T09:11:07Z</time>
      </trkpt>
      <trkpt lat="47.36964" lon="-2.34909">
        <ele>58</ele>
        <time>2019-08-18T09:11:10Z</time>
      </trkpt>
      <trkpt lat="47.36966" lon="-2.34902">
        <ele>58</ele>
        <time>2019-08-18T09:11:11Z</time>
      </trkpt>
      <trkpt lat="47.36969" lon="-2.34895">
        <ele>58</ele>
        <time>2019-08-18T09:11:12Z</time>
      </trkpt>
      <trkpt lat="47.3697" lon="-2.34887">
        <ele>58</ele>
        <time>2019-08-18T09:11:13Z</time>
      </trkpt>
      <trkpt lat="47.36972" lon="-2.34882">
        <ele>58</ele>
        <time>2019-08-18T09:11:14Z</time>
      </trkpt>
      <trkpt lat="47.36975" lon="-2.34875">
        <ele>57</ele>
        <time>2019-08-18T09:11:16Z</time>
      </trkpt>
      <trkpt lat="47.36982" lon="-2.34872">
        <ele>58</ele>
        <time>2019-08-18T09:11:19Z</time>
      </trkpt>
      <trkpt lat="47.36991" lon="-2.34872">
        <ele>57</ele>
        <time>2019-08-18T09:11:21Z</time>
      </trkpt>
      <trkpt lat="47.36996" lon="-2.34874">
        <ele>58</ele>
        <time>2019-08-18T09:11:22Z</time>
      </trkpt>
      <trkpt lat="47.37001" lon="-2.34875">
        <ele>58</ele>
        <time>2019-08-18T09:11:23Z</time>
      </trkpt>
      <trkpt lat="47.37013" lon="-2.34877">
        <ele>58</ele>
        <time>2019-08-18T09:11:25Z</time>
      </trkpt>
      <trkpt lat="47.37019" lon="-2.34876">
        <ele>58</ele>
        <time>2019-08-18T09:11:26Z</time>
      </trkpt>
      <trkpt lat="47.37026" lon="-2.34875">
        <ele>59</ele>
        <time>2019-08-18T09:11:27Z</time>
      </trkpt>
      <trkpt lat="47.37032" lon="-2.34873">
        <ele>59</ele>
        <time>2019-08-18T09:11:28Z</time>
      </trkpt>
      <trkpt lat="47.37045" lon="-2.3487">
        <ele>59</ele>
        <time>2019-08-18T09:11:30Z</time>
      </trkpt>
      <trkpt lat="47.37051" lon="-2.34868">
        <ele>60</ele>
        <time>2019-08-18T09:11:31Z</time>
      </trkpt>
      <trkpt lat="47.37057" lon="-2.34865">
        <ele>60</ele>
        <time>2019-08-18T09:11:32Z</time>
      </trkpt>
      <trkpt lat="47.37064" lon="-2.34862">
        <ele>59</ele>
        <time>2019-08-18T09:11:33Z</time>
      </trkpt>
      <trkpt lat="47.3707" lon="-2.3486">
        <ele>59</ele>
        <time>2019-08-18T09:11:34Z</time>
      </trkpt>
      <trkpt lat="47.37076" lon="-2.34861">
        <ele>59</ele>
        <time>2019-08-18T09:11:35Z</time>
      </trkpt>
      <trkpt lat="47.37083" lon="-2.34862">
        <ele>59</ele>
        <time>2019-08-18T09:11:36Z</time>
      </trkpt>
      <trkpt lat="47.37089" lon="-2.34865">
        <ele>59</ele>
        <time>2019-08-18T09:11:37Z</time>
      </trkpt>
      <trkpt lat="47.37095" lon="-2.34869">
        <ele>59</ele>
        <time>2019-08-18T09:11:38Z</time>
      </trkpt>
      <trkpt lat="47.371" lon="-2.34872">
        <ele>59</ele>
        <time>2019-08-18T09:11:39Z</time>
      </trkpt>
      <trkpt lat="47.37106" lon="-2.34876">
        <ele>59</ele>
        <time>2019-08-18T09:11:40Z</time>
      </trkpt>
      <trkpt lat="47.37112" lon="-2.3488">
        <ele>59</ele>
        <time>2019-08-18T09:11:41Z</time>
      </trkpt>
      <trkpt lat="47.37118" lon="-2.34884">
        <ele>59</ele>
        <time>2019-08-18T09:11:42Z</time>
      </trkpt>
      <trkpt lat="47.37124" lon="-2.34888">
        <ele>59</ele>
        <time>2019-08-18T09:11:43Z</time>
      </trkpt>
      <trkpt lat="47.3713" lon="-2.34892">
        <ele>59</ele>
        <time>2019-08-18T09:11:44Z</time>
      </trkpt>
      <trkpt lat="47.37136" lon="-2.34895">
        <ele>58</ele>
        <time>2019-08-18T09:11:45Z</time>
      </trkpt>
      <trkpt lat="47.37142" lon="-2.349">
        <ele>58</ele>
        <time>2019-08-18T09:11:46Z</time>
      </trkpt>
      <trkpt lat="47.37147" lon="-2.34905">
        <ele>58</ele>
        <time>2019-08-18T09:11:47Z</time>
      </trkpt>
      <trkpt lat="47.37153" lon="-2.3491">
        <ele>57</ele>
        <time>2019-08-18T09:11:48Z</time>
      </trkpt>
      <trkpt lat="47.37159" lon="-2.34915">
        <ele>58</ele>
        <time>2019-08-18T09:11:49Z</time>
      </trkpt>
      <trkpt lat="47.37164" lon="-2.34923">
        <ele>58</ele>
        <time>2019-08-18T09:11:50Z</time>
      </trkpt>
      <trkpt lat="47.37169" lon="-2.3493">
        <ele>58</ele>
        <time>2019-08-18T09:11:51Z</time>
      </trkpt>
      <trkpt lat="47.37174" lon="-2.34938">
        <ele>57</ele>
        <time>2019-08-18T09:11:52Z</time>
      </trkpt>
      <trkpt lat="47.37181" lon="-2.34954">
        <ele>58</ele>
        <time>2019-08-18T09:11:54Z</time>
      </trkpt>
      <trkpt lat="47.37184" lon="-2.34963">
        <ele>58</ele>
        <time>2019-08-18T09:11:55Z</time>
      </trkpt>
      <trkpt lat="47.3719" lon="-2.34982">
        <ele>58</ele>
        <time>2019-08-18T09:11:57Z</time>
      </trkpt>
      <trkpt lat="47.37196" lon="-2.35009">
        <ele>59</ele>
        <time>2019-08-18T09:12:00Z</time>
      </trkpt>
      <trkpt lat="47.37199" lon="-2.35027">
        <ele>60</ele>
        <time>2019-08-18T09:12:02Z</time>
      </trkpt>
      <trkpt lat="47.37201" lon="-2.35035">
        <ele>60</ele>
        <time>2019-08-18T09:12:03Z</time>
      </trkpt>
      <trkpt lat="47.37202" lon="-2.35043">
        <ele>60</ele>
        <time>2019-08-18T09:12:04Z</time>
      </trkpt>
      <trkpt lat="47.37207" lon="-2.35069">
        <ele>60</ele>
        <time>2019-08-18T09:12:07Z</time>
      </trkpt>
      <trkpt lat="47.37209" lon="-2.35078">
        <ele>60</ele>
        <time>2019-08-18T09:12:08Z</time>
      </trkpt>
      <trkpt lat="47.3721" lon="-2.35086">
        <ele>60</ele>
        <time>2019-08-18T09:12:09Z</time>
      </trkpt>
      <trkpt lat="47.37212" lon="-2.35094">
        <ele>59</ele>
        <time>2019-08-18T09:12:10Z</time>
      </trkpt>
      <trkpt lat="47.37213" lon="-2.35103">
        <ele>60</ele>
        <time>2019-08-18T09:12:11Z</time>
      </trkpt>
      <trkpt lat="47.37217" lon="-2.35125">
        <ele>60</ele>
        <time>2019-08-18T09:12:14Z</time>
      </trkpt>
      <trkpt lat="47.37219" lon="-2.35131">
        <ele>60</ele>
        <time>2019-08-18T09:12:15Z</time>
      </trkpt>
      <trkpt lat="47.3722" lon="-2.35139">
        <ele>60</ele>
        <time>2019-08-18T09:12:16Z</time>
      </trkpt>
      <trkpt lat="47.37222" lon="-2.35145">
        <ele>61</ele>
        <time>2019-08-18T09:12:17Z</time>
      </trkpt>
      <trkpt lat="47.37226" lon="-2.35155">
        <ele>59</ele>
        <time>2019-08-18T09:12:19Z</time>
      </trkpt>
      <trkpt lat="47.37228" lon="-2.35163">
        <ele>59</ele>
        <time>2019-08-18T09:12:21Z</time>
      </trkpt>
      <trkpt lat="47.37229" lon="-2.35175">
        <ele>59</ele>
        <time>2019-08-18T09:12:23Z</time>
      </trkpt>
      <trkpt lat="47.3723" lon="-2.35182">
        <ele>59</ele>
        <time>2019-08-18T09:12:24Z</time>
      </trkpt>
      <trkpt lat="47.37233" lon="-2.35201">
        <ele>60</ele>
        <time>2019-08-18T09:12:27Z</time>
      </trkpt>
      <trkpt lat="47.37235" lon="-2.35209">
        <ele>60</ele>
        <time>2019-08-18T09:12:28Z</time>
      </trkpt>
      <trkpt lat="47.37239" lon="-2.35222">
        <ele>59</ele>
        <time>2019-08-18T09:12:30Z</time>
      </trkpt>
      <trkpt lat="47.37241" lon="-2.35229">
        <ele>59</ele>
        <time>2019-08-18T09:12:31Z</time>
      </trkpt>
      <trkpt lat="47.37243" lon="-2.35237">
        <ele>60</ele>
        <time>2019-08-18T09:12:32Z</time>
      </trkpt>
      <trkpt lat="47.37246" lon="-2.35244">
        <ele>60</ele>
        <time>2019-08-18T09:12:33Z</time>
      </trkpt>
      <trkpt lat="47.37248" lon="-2.35252">
        <ele>60</ele>
        <time>2019-08-18T09:12:34Z</time>
      </trkpt>
      <trkpt lat="47.37252" lon="-2.35269">
        <ele>61</ele>
        <time>2019-08-18T09:12:36Z</time>
      </trkpt>
      <trkpt lat="47.37258" lon="-2.35293">
        <ele>61</ele>
        <time>2019-08-18T09:12:39Z</time>
      </trkpt>
      <trkpt lat="47.37258" lon="-2.353">
        <ele>61</ele>
        <time>2019-08-18T09:12:40Z</time>
      </trkpt>
      <trkpt lat="47.37258" lon="-2.35309">
        <ele>61</ele>
        <time>2019-08-18T09:12:41Z</time>
      </trkpt>
      <trkpt lat="47.37256" lon="-2.35317">
        <ele>61</ele>
        <time>2019-08-18T09:12:42Z</time>
      </trkpt>
      <trkpt lat="47.37247" lon="-2.35329">
        <ele>61</ele>
        <time>2019-08-18T09:12:44Z</time>
      </trkpt>
      <trkpt lat="47.37243" lon="-2.35334">
        <ele>61</ele>
        <time>2019-08-18T09:12:45Z</time>
      </trkpt>
      <trkpt lat="47.37238" lon="-2.3534">
        <ele>61</ele>
        <time>2019-08-18T09:12:46Z</time>
      </trkpt>
      <trkpt lat="47.37231" lon="-2.35352">
        <ele>62</ele>
        <time>2019-08-18T09:12:48Z</time>
      </trkpt>
      <trkpt lat="47.37223" lon="-2.35365">
        <ele>62</ele>
        <time>2019-08-18T09:12:50Z</time>
      </trkpt>
      <trkpt lat="47.37219" lon="-2.35371">
        <ele>63</ele>
        <time>2019-08-18T09:12:51Z</time>
      </trkpt>
      <trkpt lat="47.37215" lon="-2.35376">
        <ele>62</ele>
        <time>2019-08-18T09:12:52Z</time>
      </trkpt>
      <trkpt lat="47.37208" lon="-2.35388">
        <ele>63</ele>
        <time>2019-08-18T09:12:54Z</time>
      </trkpt>
      <trkpt lat="47.37202" lon="-2.35406">
        <ele>75</ele>
        <time>2019-08-18T09:12:58Z</time>
      </trkpt>
      <trkpt lat="47.37195" lon="-2.35419">
        <ele>78</ele>
        <time>2019-08-18T09:13:00Z</time>
      </trkpt>
      <trkpt lat="47.37193" lon="-2.35425">
        <ele>79</ele>
        <time>2019-08-18T09:13:01Z</time>
      </trkpt>
      <trkpt lat="47.37185" lon="-2.3544">
        <ele>79</ele>
        <time>2019-08-18T09:13:03Z</time>
      </trkpt>
      <trkpt lat="47.37193" lon="-2.35455">
        <ele>78</ele>
        <time>2019-08-18T09:13:06Z</time>
      </trkpt>
      <trkpt lat="47.37197" lon="-2.35462">
        <ele>77</ele>
        <time>2019-08-18T09:13:07Z</time>
      </trkpt>
      <trkpt lat="47.37201" lon="-2.35467">
        <ele>76</ele>
        <time>2019-08-18T09:13:08Z</time>
      </trkpt>
      <trkpt lat="47.37205" lon="-2.35473">
        <ele>76</ele>
        <time>2019-08-18T09:13:09Z</time>
      </trkpt>
      <trkpt lat="47.37209" lon="-2.35479">
        <ele>74</ele>
        <time>2019-08-18T09:13:10Z</time>
      </trkpt>
      <trkpt lat="47.37214" lon="-2.35483">
        <ele>74</ele>
        <time>2019-08-18T09:13:11Z</time>
      </trkpt>
      <trkpt lat="47.37218" lon="-2.3549">
        <ele>74</ele>
        <time>2019-08-18T09:13:12Z</time>
      </trkpt>
      <trkpt lat="47.37221" lon="-2.35497">
        <ele>74</ele>
        <time>2019-08-18T09:13:13Z</time>
      </trkpt>
      <trkpt lat="47.37225" lon="-2.35503">
        <ele>74</ele>
        <time>2019-08-18T09:13:14Z</time>
      </trkpt>
      <trkpt lat="47.37229" lon="-2.3551">
        <ele>74</ele>
        <time>2019-08-18T09:13:15Z</time>
      </trkpt>
      <trkpt lat="47.37233" lon="-2.35516">
        <ele>73</ele>
        <time>2019-08-18T09:13:16Z</time>
      </trkpt>
      <trkpt lat="47.37237" lon="-2.35524">
        <ele>73</ele>
        <time>2019-08-18T09:13:17Z</time>
      </trkpt>
      <trkpt lat="47.3724" lon="-2.35531">
        <ele>73</ele>
        <time>2019-08-18T09:13:18Z</time>
      </trkpt>
      <trkpt lat="47.37253" lon="-2.35553">
        <ele>71</ele>
        <time>2019-08-18T09:13:21Z</time>
      </trkpt>
      <trkpt lat="47.37257" lon="-2.3556">
        <ele>72</ele>
        <time>2019-08-18T09:13:22Z</time>
      </trkpt>
      <trkpt lat="47.3726" lon="-2.35566">
        <ele>72</ele>
        <time>2019-08-18T09:13:23Z</time>
      </trkpt>
      <trkpt lat="47.37264" lon="-2.35572">
        <ele>71</ele>
        <time>2019-08-18T09:13:24Z</time>
      </trkpt>
      <trkpt lat="47.37268" lon="-2.35578">
        <ele>70</ele>
        <time>2019-08-18T09:13:25Z</time>
      </trkpt>
      <trkpt lat="47.37272" lon="-2.35585">
        <ele>70</ele>
        <time>2019-08-18T09:13:26Z</time>
      </trkpt>
      <trkpt lat="47.37276" lon="-2.35592">
        <ele>70</ele>
        <time>2019-08-18T09:13:27Z</time>
      </trkpt>
      <trkpt lat="47.37281" lon="-2.35598">
        <ele>70</ele>
        <time>2019-08-18T09:13:28Z</time>
      </trkpt>
      <trkpt lat="47.37297" lon="-2.35611">
        <ele>68</ele>
        <time>2019-08-18T09:13:31Z</time>
      </trkpt>
      <trkpt lat="47.37303" lon="-2.35614">
        <ele>66</ele>
        <time>2019-08-18T09:13:32Z</time>
      </trkpt>
      <trkpt lat="47.3731" lon="-2.35616">
        <ele>66</ele>
        <time>2019-08-18T09:13:33Z</time>
      </trkpt>
      <trkpt lat="47.37316" lon="-2.35619">
        <ele>66</ele>
        <time>2019-08-18T09:13:34Z</time>
      </trkpt>
      <trkpt lat="47.37323" lon="-2.35621">
        <ele>65</ele>
        <time>2019-08-18T09:13:35Z</time>
      </trkpt>
      <trkpt lat="47.37329" lon="-2.35624">
        <ele>64</ele>
        <time>2019-08-18T09:13:36Z</time>
      </trkpt>
      <trkpt lat="47.37335" lon="-2.35626">
        <ele>64</ele>
        <time>2019-08-18T09:13:37Z</time>
      </trkpt>
      <trkpt lat="47.37342" lon="-2.35628">
        <ele>63</ele>
        <time>2019-08-18T09:13:38Z</time>
      </trkpt>
      <trkpt lat="47.37348" lon="-2.3563">
        <ele>63</ele>
        <time>2019-08-18T09:13:39Z</time>
      </trkpt>
      <trkpt lat="47.37355" lon="-2.35631">
        <ele>63</ele>
        <time>2019-08-18T09:13:40Z</time>
      </trkpt>
      <trkpt lat="47.37361" lon="-2.35633">
        <ele>63</ele>
        <time>2019-08-18T09:13:41Z</time>
      </trkpt>
      <trkpt lat="47.37368" lon="-2.35634">
        <ele>63</ele>
        <time>2019-08-18T09:13:42Z</time>
      </trkpt>
      <trkpt lat="47.37375" lon="-2.35635">
        <ele>62</ele>
        <time>2019-08-18T09:13:43Z</time>
      </trkpt>
      <trkpt lat="47.37388" lon="-2.35639">
        <ele>62</ele>
        <time>2019-08-18T09:13:45Z</time>
      </trkpt>
      <trkpt lat="47.37394" lon="-2.3564">
        <ele>62</ele>
        <time>2019-08-18T09:13:46Z</time>
      </trkpt>
      <trkpt lat="47.374" lon="-2.35642">
        <ele>62</ele>
        <time>2019-08-18T09:13:47Z</time>
      </trkpt>
      <trkpt lat="47.37406" lon="-2.35645">
        <ele>62</ele>
        <time>2019-08-18T09:13:48Z</time>
      </trkpt>
      <trkpt lat="47.37412" lon="-2.35648">
        <ele>62</ele>
        <time>2019-08-18T09:13:49Z</time>
      </trkpt>
      <trkpt lat="47.37418" lon="-2.35663">
        <ele>62</ele>
        <time>2019-08-18T09:13:51Z</time>
      </trkpt>
      <trkpt lat="47.37418" lon="-2.35683">
        <ele>62</ele>
        <time>2019-08-18T09:13:53Z</time>
      </trkpt>
      <trkpt lat="47.37419" lon="-2.35693">
        <ele>62</ele>
        <time>2019-08-18T09:13:54Z</time>
      </trkpt>
      <trkpt lat="47.37415" lon="-2.35721">
        <ele>64</ele>
        <time>2019-08-18T09:13:59Z</time>
      </trkpt>
      <trkpt lat="47.37416" lon="-2.35728">
        <ele>64</ele>
        <time>2019-08-18T09:14:00Z</time>
      </trkpt>
      <trkpt lat="47.37413" lon="-2.35741">
        <ele>64</ele>
        <time>2019-08-18T09:14:02Z</time>
      </trkpt>
      <trkpt lat="47.37397" lon="-2.35731">
        <ele>69</ele>
        <time>2019-08-18T09:14:06Z</time>
      </trkpt>
      <trkpt lat="47.37422" lon="-2.35743">
        <ele>125</ele>
        <time>2019-08-18T09:14:13Z</time>
      </trkpt>
      <trkpt lat="47.37411" lon="-2.35765">
        <ele>133</ele>
        <time>2019-08-18T09:14:14Z</time>
      </trkpt>
      <trkpt lat="47.37393" lon="-2.35777">
        <ele>138</ele>
        <time>2019-08-18T09:14:15Z</time>
      </trkpt>
      <trkpt lat="47.37339" lon="-2.35831">
        <ele>132</ele>
        <time>2019-08-18T09:14:21Z</time>
      </trkpt>
      <trkpt lat="47.37331" lon="-2.35836">
        <ele>128</ele>
        <time>2019-08-18T09:14:22Z</time>
      </trkpt>
      <trkpt lat="47.37323" lon="-2.35844">
        <ele>122</ele>
        <time>2019-08-18T09:14:23Z</time>
      </trkpt>
      <trkpt lat="47.37319" lon="-2.35852">
        <ele>120</ele>
        <time>2019-08-18T09:14:24Z</time>
      </trkpt>
      <trkpt lat="47.37343" lon="-2.35972">
        <ele>191</ele>
        <time>2019-08-18T09:14:39Z</time>
      </trkpt>
      <trkpt lat="47.37329" lon="-2.35983">
        <ele>179</ele>
        <time>2019-08-18T09:14:40Z</time>
      </trkpt>
      <trkpt lat="47.37319" lon="-2.35989">
        <ele>172</ele>
        <time>2019-08-18T09:14:41Z</time>
      </trkpt>
      <trkpt lat="47.3731" lon="-2.35998">
        <ele>166</ele>
        <time>2019-08-18T09:14:42Z</time>
      </trkpt>
      <trkpt lat="47.37301" lon="-2.36008">
        <ele>161</ele>
        <time>2019-08-18T09:14:43Z</time>
      </trkpt>
      <trkpt lat="47.3729" lon="-2.36017">
        <ele>154</ele>
        <time>2019-08-18T09:14:44Z</time>
      </trkpt>
      <trkpt lat="47.3728" lon="-2.36023">
        <ele>147</ele>
        <time>2019-08-18T09:14:45Z</time>
      </trkpt>
      <trkpt lat="47.37251" lon="-2.36034">
        <ele>124</ele>
        <time>2019-08-18T09:14:48Z</time>
      </trkpt>
      <trkpt lat="47.37245" lon="-2.36038">
        <ele>117</ele>
        <time>2019-08-18T09:14:49Z</time>
      </trkpt>
      <trkpt lat="47.37228" lon="-2.36056">
        <ele>100</ele>
        <time>2019-08-18T09:14:52Z</time>
      </trkpt>
      <trkpt lat="47.37228" lon="-2.36063">
        <ele>97</ele>
        <time>2019-08-18T09:14:53Z</time>
      </trkpt>
      <trkpt lat="47.37227" lon="-2.3607">
        <ele>94</ele>
        <time>2019-08-18T09:14:54Z</time>
      </trkpt>
      <trkpt lat="47.37227" lon="-2.36077">
        <ele>91</ele>
        <time>2019-08-18T09:14:55Z</time>
      </trkpt>
      <trkpt lat="47.37227" lon="-2.36081">
        <ele>89</ele>
        <time>2019-08-18T09:14:56Z</time>
      </trkpt>
      <trkpt lat="47.3723" lon="-2.36093">
        <ele>88</ele>
        <time>2019-08-18T09:14:59Z</time>
      </trkpt>
      <trkpt lat="47.3724" lon="-2.36097">
        <ele>86</ele>
        <time>2019-08-18T09:15:03Z</time>
      </trkpt>
      <trkpt lat="47.3724" lon="-2.36097">
        <ele>2.7</ele>
        <time>2019-08-18T09:15:09Z</time>
      </trkpt>
      <trkpt lat="47.3724" lon="-2.36097">
        <ele>2.7</ele>
        <time>2019-08-18T09:15:41Z</time>
      </trkpt>
      <trkpt lat="47.37257" lon="-2.36108">
        <ele>58</ele>
        <time>2019-08-18T09:16:08Z</time>
      </trkpt>
      <trkpt lat="47.37262" lon="-2.36112">
        <ele>59</ele>
        <time>2019-08-18T09:16:25Z</time>
      </trkpt>
      <trkpt lat="47.37265" lon="-2.36118">
        <ele>59</ele>
        <time>2019-08-18T09:16:31Z</time>
      </trkpt>
      <trkpt lat="47.3727" lon="-2.3612">
        <ele>60</ele>
        <time>2019-08-18T09:16:33Z</time>
      </trkpt>
      <trkpt lat="47.37276" lon="-2.36127">
        <ele>60</ele>
        <time>2019-08-18T09:16:36Z</time>
      </trkpt>
      <trkpt lat="47.37283" lon="-2.36129">
        <ele>59</ele>
        <time>2019-08-18T09:16:39Z</time>
      </trkpt>
      <trkpt lat="47.37287" lon="-2.36123">
        <ele>58</ele>
        <time>2019-08-18T09:16:42Z</time>
      </trkpt>
      <trkpt lat="47.37293" lon="-2.36112">
        <ele>74</ele>
        <time>2019-08-18T09:16:46Z</time>
      </trkpt>
      <trkpt lat="47.37301" lon="-2.36111">
        <ele>83</ele>
        <time>2019-08-18T09:16:48Z</time>
      </trkpt>
      <trkpt lat="47.37307" lon="-2.36108">
        <ele>86</ele>
        <time>2019-08-18T09:16:49Z</time>
      </trkpt>
      <trkpt lat="47.37318" lon="-2.36113">
        <ele>85</ele>
        <time>2019-08-18T09:16:51Z</time>
      </trkpt>
      <trkpt lat="47.37323" lon="-2.36114">
        <ele>82</ele>
        <time>2019-08-18T09:16:52Z</time>
      </trkpt>
      <trkpt lat="47.37328" lon="-2.36117">
        <ele>79</ele>
        <time>2019-08-18T09:16:53Z</time>
      </trkpt>
      <trkpt lat="47.37332" lon="-2.36119">
        <ele>77</ele>
        <time>2019-08-18T09:16:55Z</time>
      </trkpt>
      <trkpt lat="47.37342" lon="-2.36125">
        <ele>72</ele>
        <time>2019-08-18T09:16:56Z</time>
      </trkpt>
      <trkpt lat="47.37354" lon="-2.36131">
        <ele>72</ele>
        <time>2019-08-18T09:16:59Z</time>
      </trkpt>
      <trkpt lat="47.37359" lon="-2.3613">
        <ele>70</ele>
        <time>2019-08-18T09:17:00Z</time>
      </trkpt>
      <trkpt lat="47.37365" lon="-2.36127">
        <ele>69</ele>
        <time>2019-08-18T09:17:01Z</time>
      </trkpt>
      <trkpt lat="47.3737" lon="-2.36125">
        <ele>67</ele>
        <time>2019-08-18T09:17:02Z</time>
      </trkpt>
      <trkpt lat="47.37375" lon="-2.36121">
        <ele>65</ele>
        <time>2019-08-18T09:17:03Z</time>
      </trkpt>
      <trkpt lat="47.37379" lon="-2.36118">
        <ele>65</ele>
        <time>2019-08-18T09:17:04Z</time>
      </trkpt>
      <trkpt lat="47.37384" lon="-2.36115">
        <ele>65</ele>
        <time>2019-08-18T09:17:05Z</time>
      </trkpt>
      <trkpt lat="47.37388" lon="-2.36112">
        <ele>65</ele>
        <time>2019-08-18T09:17:06Z</time>
      </trkpt>
      <trkpt lat="47.37396" lon="-2.36121">
        <ele>64</ele>
        <time>2019-08-18T09:17:09Z</time>
      </trkpt>
      <trkpt lat="47.37401" lon="-2.3613">
        <ele>65</ele>
        <time>2019-08-18T09:17:12Z</time>
      </trkpt>
      <trkpt lat="47.37405" lon="-2.36134">
        <ele>65</ele>
        <time>2019-08-18T09:17:13Z</time>
      </trkpt>
      <trkpt lat="47.37408" lon="-2.36138">
        <ele>64</ele>
        <time>2019-08-18T09:17:14Z</time>
      </trkpt>
      <trkpt lat="47.37413" lon="-2.36139">
        <ele>63</ele>
        <time>2019-08-18T09:17:15Z</time>
      </trkpt>
      <trkpt lat="47.3743" lon="-2.36132">
        <ele>62</ele>
        <time>2019-08-18T09:17:18Z</time>
      </trkpt>
      <trkpt lat="47.37439" lon="-2.36127">
        <ele>61</ele>
        <time>2019-08-18T09:17:20Z</time>
      </trkpt>
      <trkpt lat="47.37448" lon="-2.36121">
        <ele>61</ele>
        <time>2019-08-18T09:17:22Z</time>
      </trkpt>
      <trkpt lat="47.37452" lon="-2.36118">
        <ele>61</ele>
        <time>2019-08-18T09:17:23Z</time>
      </trkpt>
      <trkpt lat="47.37456" lon="-2.36115">
        <ele>61</ele>
        <time>2019-08-18T09:17:24Z</time>
      </trkpt>
      <trkpt lat="47.3746" lon="-2.36111">
        <ele>60</ele>
        <time>2019-08-18T09:17:25Z</time>
      </trkpt>
      <trkpt lat="47.37468" lon="-2.36108">
        <ele>59</ele>
        <time>2019-08-18T09:17:27Z</time>
      </trkpt>
      <trkpt lat="47.37476" lon="-2.36103">
        <ele>57</ele>
        <time>2019-08-18T09:17:29Z</time>
      </trkpt>
      <trkpt lat="47.3748" lon="-2.36101">
        <ele>57</ele>
        <time>2019-08-18T09:17:30Z</time>
      </trkpt>
      <trkpt lat="47.37483" lon="-2.361">
        <ele>57</ele>
        <time>2019-08-18T09:17:31Z</time>
      </trkpt>
      <trkpt lat="47.37486" lon="-2.36098">
        <ele>57</ele>
        <time>2019-08-18T09:17:32Z</time>
      </trkpt>
      <trkpt lat="47.3749" lon="-2.36097">
        <ele>57</ele>
        <time>2019-08-18T09:17:33Z</time>
      </trkpt>
      <trkpt lat="47.37497" lon="-2.36093">
        <ele>57</ele>
        <time>2019-08-18T09:17:35Z</time>
      </trkpt>
      <trkpt lat="47.37501" lon="-2.36091">
        <ele>57</ele>
        <time>2019-08-18T09:17:36Z</time>
      </trkpt>
      <trkpt lat="47.37505" lon="-2.36088">
        <ele>57</ele>
        <time>2019-08-18T09:17:37Z</time>
      </trkpt>
      <trkpt lat="47.37509" lon="-2.36085">
        <ele>56</ele>
        <time>2019-08-18T09:17:38Z</time>
      </trkpt>
      <trkpt lat="47.37517" lon="-2.36081">
        <ele>56</ele>
        <time>2019-08-18T09:17:40Z</time>
      </trkpt>
      <trkpt lat="47.37522" lon="-2.36079">
        <ele>56</ele>
        <time>2019-08-18T09:17:41Z</time>
      </trkpt>
      <trkpt lat="47.37526" lon="-2.36077">
        <ele>56</ele>
        <time>2019-08-18T09:17:42Z</time>
      </trkpt>
      <trkpt lat="47.3753" lon="-2.36076">
        <ele>56</ele>
        <time>2019-08-18T09:17:43Z</time>
      </trkpt>
      <trkpt lat="47.37534" lon="-2.36075">
        <ele>56</ele>
        <time>2019-08-18T09:17:44Z</time>
      </trkpt>
      <trkpt lat="47.37538" lon="-2.36074">
        <ele>56</ele>
        <time>2019-08-18T09:17:45Z</time>
      </trkpt>
      <trkpt lat="47.37551" lon="-2.3607">
        <ele>57</ele>
        <time>2019-08-18T09:17:48Z</time>
      </trkpt>
      <trkpt lat="47.37556" lon="-2.36067">
        <ele>57</ele>
        <time>2019-08-18T09:17:49Z</time>
      </trkpt>
      <trkpt lat="47.37565" lon="-2.36064">
        <ele>57</ele>
        <time>2019-08-18T09:17:51Z</time>
      </trkpt>
      <trkpt lat="47.3757" lon="-2.36062">
        <ele>57</ele>
        <time>2019-08-18T09:17:52Z</time>
      </trkpt>
      <trkpt lat="47.37579" lon="-2.36059">
        <ele>57</ele>
        <time>2019-08-18T09:17:54Z</time>
      </trkpt>
      <trkpt lat="47.37583" lon="-2.36057">
        <ele>57</ele>
        <time>2019-08-18T09:17:55Z</time>
      </trkpt>
      <trkpt lat="47.37588" lon="-2.36056">
        <ele>57</ele>
        <time>2019-08-18T09:17:56Z</time>
      </trkpt>
      <trkpt lat="47.37592" lon="-2.36054">
        <ele>56</ele>
        <time>2019-08-18T09:17:57Z</time>
      </trkpt>
      <trkpt lat="47.37604" lon="-2.36051">
        <ele>56</ele>
        <time>2019-08-18T09:18:00Z</time>
      </trkpt>
      <trkpt lat="47.37612" lon="-2.3605">
        <ele>56</ele>
        <time>2019-08-18T09:18:02Z</time>
      </trkpt>
      <trkpt lat="47.37617" lon="-2.36049">
        <ele>56</ele>
        <time>2019-08-18T09:18:03Z</time>
      </trkpt>
      <trkpt lat="47.37622" lon="-2.36048">
        <ele>56</ele>
        <time>2019-08-18T09:18:04Z</time>
      </trkpt>
      <trkpt lat="47.37627" lon="-2.36047">
        <ele>56</ele>
        <time>2019-08-18T09:18:05Z</time>
      </trkpt>
      <trkpt lat="47.37635" lon="-2.36045">
        <ele>56</ele>
        <time>2019-08-18T09:18:07Z</time>
      </trkpt>
      <trkpt lat="47.37639" lon="-2.3605">
        <ele>56</ele>
        <time>2019-08-18T09:18:09Z</time>
      </trkpt>
      <trkpt lat="47.37642" lon="-2.36056">
        <ele>56</ele>
        <time>2019-08-18T09:18:12Z</time>
      </trkpt>
      <trkpt lat="47.37642" lon="-2.36056">
        <ele>56</ele>
        <time>2019-08-18T09:18:19Z</time>
      </trkpt>
      <trkpt lat="47.37642" lon="-2.36056">
        <ele>7.1</ele>
        <time>2019-08-18T09:18:19Z</time>
      </trkpt>
      <trkpt lat="47.37642" lon="-2.36056">
        <ele>7.1</ele>
        <time>2019-08-18T09:18:26Z</time>
      </trkpt>
      <trkpt lat="47.37641" lon="-2.36023">
        <ele>57</ele>
        <time>2019-08-18T09:18:26Z</time>
      </trkpt>
      <trkpt lat="47.37657" lon="-2.36009">
        <ele>61</ele>
        <time>2019-08-18T09:18:32Z</time>
      </trkpt>
      <trkpt lat="47.37662" lon="-2.3601">
        <ele>60</ele>
        <time>2019-08-18T09:18:33Z</time>
      </trkpt>
      <trkpt lat="47.37667" lon="-2.36011">
        <ele>57</ele>
        <time>2019-08-18T09:18:34Z</time>
      </trkpt>
      <trkpt lat="47.37673" lon="-2.36011">
        <ele>54</ele>
        <time>2019-08-18T09:18:35Z</time>
      </trkpt>
      <trkpt lat="47.37678" lon="-2.36013">
        <ele>51</ele>
        <time>2019-08-18T09:18:36Z</time>
      </trkpt>
      <trkpt lat="47.37687" lon="-2.36017">
        <ele>52</ele>
        <time>2019-08-18T09:18:38Z</time>
      </trkpt>
      <trkpt lat="47.37692" lon="-2.36019">
        <ele>54</ele>
        <time>2019-08-18T09:18:39Z</time>
      </trkpt>
      <trkpt lat="47.37696" lon="-2.36022">
        <ele>54</ele>
        <time>2019-08-18T09:18:40Z</time>
      </trkpt>
      <trkpt lat="47.37705" lon="-2.36027">
        <ele>55</ele>
        <time>2019-08-18T09:18:42Z</time>
      </trkpt>
      <trkpt lat="47.37709" lon="-2.3603">
        <ele>56</ele>
        <time>2019-08-18T09:18:43Z</time>
      </trkpt>
      <trkpt lat="47.37724" lon="-2.36037">
        <ele>59</ele>
        <time>2019-08-18T09:18:46Z</time>
      </trkpt>
      <trkpt lat="47.37729" lon="-2.3604">
        <ele>60</ele>
        <time>2019-08-18T09:18:47Z</time>
      </trkpt>
      <trkpt lat="47.37734" lon="-2.36043">
        <ele>60</ele>
        <time>2019-08-18T09:18:48Z</time>
      </trkpt>
      <trkpt lat="47.37748" lon="-2.36052">
        <ele>62</ele>
        <time>2019-08-18T09:18:51Z</time>
      </trkpt>
      <trkpt lat="47.37753" lon="-2.36056">
        <ele>64</ele>
        <time>2019-08-18T09:18:52Z</time>
      </trkpt>
      <trkpt lat="47.37759" lon="-2.36058">
        <ele>64</ele>
        <time>2019-08-18T09:18:53Z</time>
      </trkpt>
      <trkpt lat="47.37763" lon="-2.36061">
        <ele>65</ele>
        <time>2019-08-18T09:18:54Z</time>
      </trkpt>
      <trkpt lat="47.37778" lon="-2.3607">
        <ele>66</ele>
        <time>2019-08-18T09:18:57Z</time>
      </trkpt>
      <trkpt lat="47.37784" lon="-2.36072">
        <ele>66</ele>
        <time>2019-08-18T09:18:58Z</time>
      </trkpt>
      <trkpt lat="47.37789" lon="-2.36075">
        <ele>66</ele>
        <time>2019-08-18T09:18:59Z</time>
      </trkpt>
      <trkpt lat="47.37793" lon="-2.36078">
        <ele>67</ele>
        <time>2019-08-18T09:19:00Z</time>
      </trkpt>
      <trkpt lat="47.37798" lon="-2.36081">
        <ele>67</ele>
        <time>2019-08-18T09:19:01Z</time>
      </trkpt>
      <trkpt lat="47.37803" lon="-2.36084">
        <ele>67</ele>
        <time>2019-08-18T09:19:02Z</time>
      </trkpt>
      <trkpt lat="47.37808" lon="-2.36086">
        <ele>68</ele>
        <time>2019-08-18T09:19:03Z</time>
      </trkpt>
      <trkpt lat="47.37822" lon="-2.36093">
        <ele>68</ele>
        <time>2019-08-18T09:19:06Z</time>
      </trkpt>
      <trkpt lat="47.37827" lon="-2.36095">
        <ele>68</ele>
        <time>2019-08-18T09:19:07Z</time>
      </trkpt>
      <trkpt lat="47.37832" lon="-2.36097">
        <ele>67</ele>
        <time>2019-08-18T09:19:08Z</time>
      </trkpt>
      <trkpt lat="47.37841" lon="-2.36103">
        <ele>67</ele>
        <time>2019-08-18T09:19:10Z</time>
      </trkpt>
      <trkpt lat="47.37846" lon="-2.36105">
        <ele>66</ele>
        <time>2019-08-18T09:19:11Z</time>
      </trkpt>
      <trkpt lat="47.37851" lon="-2.36108">
        <ele>66</ele>
        <time>2019-08-18T09:19:12Z</time>
      </trkpt>
      <trkpt lat="47.37856" lon="-2.3611">
        <ele>66</ele>
        <time>2019-08-18T09:19:13Z</time>
      </trkpt>
      <trkpt lat="47.37861" lon="-2.36112">
        <ele>66</ele>
        <time>2019-08-18T09:19:14Z</time>
      </trkpt>
      <trkpt lat="47.37865" lon="-2.36114">
        <ele>66</ele>
        <time>2019-08-18T09:19:15Z</time>
      </trkpt>
      <trkpt lat="47.3787" lon="-2.36116">
        <ele>66</ele>
        <time>2019-08-18T09:19:16Z</time>
      </trkpt>
      <trkpt lat="47.37874" lon="-2.36117">
        <ele>66</ele>
        <time>2019-08-18T09:19:17Z</time>
      </trkpt>
      <trkpt lat="47.37882" lon="-2.36121">
        <ele>66</ele>
        <time>2019-08-18T09:19:19Z</time>
      </trkpt>
      <trkpt lat="47.37895" lon="-2.36125">
        <ele>66</ele>
        <time>2019-08-18T09:19:22Z</time>
      </trkpt>
      <trkpt lat="47.379" lon="-2.36124">
        <ele>66</ele>
        <time>2019-08-18T09:19:23Z</time>
      </trkpt>
      <trkpt lat="47.37911" lon="-2.36122">
        <ele>66</ele>
        <time>2019-08-18T09:19:25Z</time>
      </trkpt>
      <trkpt lat="47.37916" lon="-2.3612">
        <ele>65</ele>
        <time>2019-08-18T09:19:26Z</time>
      </trkpt>
      <trkpt lat="47.37922" lon="-2.36118">
        <ele>65</ele>
        <time>2019-08-18T09:19:27Z</time>
      </trkpt>
      <trkpt lat="47.37928" lon="-2.36114">
        <ele>64</ele>
        <time>2019-08-18T09:19:28Z</time>
      </trkpt>
      <trkpt lat="47.37939" lon="-2.36109">
        <ele>64</ele>
        <time>2019-08-18T09:19:30Z</time>
      </trkpt>
      <trkpt lat="47.37945" lon="-2.36106">
        <ele>64</ele>
        <time>2019-08-18T09:19:31Z</time>
      </trkpt>
      <trkpt lat="47.37951" lon="-2.36104">
        <ele>64</ele>
        <time>2019-08-18T09:19:32Z</time>
      </trkpt>
      <trkpt lat="47.37958" lon="-2.36101">
        <ele>63</ele>
        <time>2019-08-18T09:19:33Z</time>
      </trkpt>
      <trkpt lat="47.37964" lon="-2.36098">
        <ele>63</ele>
        <time>2019-08-18T09:19:34Z</time>
      </trkpt>
      <trkpt lat="47.3797" lon="-2.36094">
        <ele>63</ele>
        <time>2019-08-18T09:19:35Z</time>
      </trkpt>
      <trkpt lat="47.37977" lon="-2.36089">
        <ele>63</ele>
        <time>2019-08-18T09:19:36Z</time>
      </trkpt>
      <trkpt lat="47.37983" lon="-2.36086">
        <ele>63</ele>
        <time>2019-08-18T09:19:37Z</time>
      </trkpt>
      <trkpt lat="47.3799" lon="-2.36083">
        <ele>63</ele>
        <time>2019-08-18T09:19:38Z</time>
      </trkpt>
      <trkpt lat="47.37996" lon="-2.3608">
        <ele>63</ele>
        <time>2019-08-18T09:19:39Z</time>
      </trkpt>
      <trkpt lat="47.38002" lon="-2.36077">
        <ele>63</ele>
        <time>2019-08-18T09:19:40Z</time>
      </trkpt>
      <trkpt lat="47.38009" lon="-2.36075">
        <ele>62</ele>
        <time>2019-08-18T09:19:41Z</time>
      </trkpt>
      <trkpt lat="47.38015" lon="-2.36071">
        <ele>62</ele>
        <time>2019-08-18T09:19:42Z</time>
      </trkpt>
      <trkpt lat="47.38026" lon="-2.36066">
        <ele>62</ele>
        <time>2019-08-18T09:19:44Z</time>
      </trkpt>
      <trkpt lat="47.38043" lon="-2.3606">
        <ele>62</ele>
        <time>2019-08-18T09:19:47Z</time>
      </trkpt>
      <trkpt lat="47.38073" lon="-2.36053">
        <ele>64</ele>
        <time>2019-08-18T09:19:52Z</time>
      </trkpt>
      <trkpt lat="47.38079" lon="-2.36051">
        <ele>65</ele>
        <time>2019-08-18T09:19:53Z</time>
      </trkpt>
      <trkpt lat="47.38085" lon="-2.36049">
        <ele>65</ele>
        <time>2019-08-18T09:19:54Z</time>
      </trkpt>
      <trkpt lat="47.3809" lon="-2.36047">
        <ele>65</ele>
        <time>2019-08-18T09:19:55Z</time>
      </trkpt>
      <trkpt lat="47.38096" lon="-2.36044">
        <ele>65</ele>
        <time>2019-08-18T09:19:56Z</time>
      </trkpt>
      <trkpt lat="47.38117" lon="-2.36037">
        <ele>65</ele>
        <time>2019-08-18T09:19:59Z</time>
      </trkpt>
      <trkpt lat="47.38123" lon="-2.36035">
        <ele>65</ele>
        <time>2019-08-18T09:20:00Z</time>
      </trkpt>
      <trkpt lat="47.38129" lon="-2.36032">
        <ele>65</ele>
        <time>2019-08-18T09:20:01Z</time>
      </trkpt>
      <trkpt lat="47.38135" lon="-2.36029">
        <ele>65</ele>
        <time>2019-08-18T09:20:02Z</time>
      </trkpt>
      <trkpt lat="47.38178" lon="-2.36003">
        <ele>54</ele>
        <time>2019-08-18T09:20:09Z</time>
      </trkpt>
      <trkpt lat="47.3818" lon="-2.35995">
        <ele>50</ele>
        <time>2019-08-18T09:20:10Z</time>
      </trkpt>
      <trkpt lat="47.38199" lon="-2.35982">
        <ele>55</ele>
        <time>2019-08-18T09:20:13Z</time>
      </trkpt>
      <trkpt lat="47.38206" lon="-2.35977">
        <ele>53</ele>
        <time>2019-08-18T09:20:14Z</time>
      </trkpt>
      <trkpt lat="47.38211" lon="-2.35973">
        <ele>57</ele>
        <time>2019-08-18T09:20:15Z</time>
      </trkpt>
      <trkpt lat="47.38217" lon="-2.3597">
        <ele>57</ele>
        <time>2019-08-18T09:20:16Z</time>
      </trkpt>
      <trkpt lat="47.38223" lon="-2.35967">
        <ele>57</ele>
        <time>2019-08-18T09:20:17Z</time>
      </trkpt>
      <trkpt lat="47.38237" lon="-2.35957">
        <ele>56</ele>
        <time>2019-08-18T09:20:19Z</time>
      </trkpt>
      <trkpt lat="47.38243" lon="-2.35954">
        <ele>57</ele>
        <time>2019-08-18T09:20:20Z</time>
      </trkpt>
      <trkpt lat="47.38251" lon="-2.35949">
        <ele>58</ele>
        <time>2019-08-18T09:20:21Z</time>
      </trkpt>
      <trkpt lat="47.38257" lon="-2.35946">
        <ele>57</ele>
        <time>2019-08-18T09:20:22Z</time>
      </trkpt>
      <trkpt lat="47.38268" lon="-2.35939">
        <ele>57</ele>
        <time>2019-08-18T09:20:24Z</time>
      </trkpt>
      <trkpt lat="47.38275" lon="-2.35934">
        <ele>55</ele>
        <time>2019-08-18T09:20:25Z</time>
      </trkpt>
      <trkpt lat="47.38291" lon="-2.35925">
        <ele>53</ele>
        <time>2019-08-18T09:20:27Z</time>
      </trkpt>
      <trkpt lat="47.38296" lon="-2.35932">
        <ele>52</ele>
        <time>2019-08-18T09:20:29Z</time>
      </trkpt>
      <trkpt lat="47.383" lon="-2.35945">
        <ele>52</ele>
        <time>2019-08-18T09:20:31Z</time>
      </trkpt>
      <trkpt lat="47.38301" lon="-2.35952">
        <ele>53</ele>
        <time>2019-08-18T09:20:32Z</time>
      </trkpt>
      <trkpt lat="47.38302" lon="-2.35959">
        <ele>54</ele>
        <time>2019-08-18T09:20:33Z</time>
      </trkpt>
      <trkpt lat="47.38303" lon="-2.35966">
        <ele>54</ele>
        <time>2019-08-18T09:20:34Z</time>
      </trkpt>
      <trkpt lat="47.38305" lon="-2.35973">
        <ele>54</ele>
        <time>2019-08-18T09:20:35Z</time>
      </trkpt>
      <trkpt lat="47.38307" lon="-2.35989">
        <ele>54</ele>
        <time>2019-08-18T09:20:37Z</time>
      </trkpt>
      <trkpt lat="47.38312" lon="-2.36013">
        <ele>55</ele>
        <time>2019-08-18T09:20:40Z</time>
      </trkpt>
      <trkpt lat="47.38312" lon="-2.36021">
        <ele>55</ele>
        <time>2019-08-18T09:20:41Z</time>
      </trkpt>
      <trkpt lat="47.38313" lon="-2.3603">
        <ele>54</ele>
        <time>2019-08-18T09:20:42Z</time>
      </trkpt>
      <trkpt lat="47.38314" lon="-2.36038">
        <ele>55</ele>
        <time>2019-08-18T09:20:43Z</time>
      </trkpt>
      <trkpt lat="47.38316" lon="-2.36046">
        <ele>54</ele>
        <time>2019-08-18T09:20:44Z</time>
      </trkpt>
      <trkpt lat="47.38319" lon="-2.36053">
        <ele>55</ele>
        <time>2019-08-18T09:20:45Z</time>
      </trkpt>
      <trkpt lat="47.38325" lon="-2.36068">
        <ele>55</ele>
        <time>2019-08-18T09:20:47Z</time>
      </trkpt>
      <trkpt lat="47.38328" lon="-2.36075">
        <ele>55</ele>
        <time>2019-08-18T09:20:48Z</time>
      </trkpt>
      <trkpt lat="47.38333" lon="-2.36092">
        <ele>56</ele>
        <time>2019-08-18T09:20:50Z</time>
      </trkpt>
      <trkpt lat="47.38336" lon="-2.36099">
        <ele>55</ele>
        <time>2019-08-18T09:20:51Z</time>
      </trkpt>
      <trkpt lat="47.38338" lon="-2.36107">
        <ele>55</ele>
        <time>2019-08-18T09:20:52Z</time>
      </trkpt>
      <trkpt lat="47.38341" lon="-2.36114">
        <ele>55</ele>
        <time>2019-08-18T09:20:53Z</time>
      </trkpt>
      <trkpt lat="47.38344" lon="-2.36122">
        <ele>55</ele>
        <time>2019-08-18T09:20:54Z</time>
      </trkpt>
      <trkpt lat="47.38369" lon="-2.36191">
        <ele>65</ele>
        <time>2019-08-18T09:21:04Z</time>
      </trkpt>
      <trkpt lat="47.38374" lon="-2.36197">
        <ele>64</ele>
        <time>2019-08-18T09:21:05Z</time>
      </trkpt>
      <trkpt lat="47.38379" lon="-2.36198">
        <ele>61</ele>
        <time>2019-08-18T09:21:06Z</time>
      </trkpt>
      <trkpt lat="47.38395" lon="-2.36202">
        <ele>59</ele>
        <time>2019-08-18T09:21:09Z</time>
      </trkpt>
      <trkpt lat="47.38404" lon="-2.36208">
        <ele>56</ele>
        <time>2019-08-18T09:21:11Z</time>
      </trkpt>
      <trkpt lat="47.38411" lon="-2.36207">
        <ele>59</ele>
        <time>2019-08-18T09:21:13Z</time>
      </trkpt>
      <trkpt lat="47.38418" lon="-2.36207">
        <ele>62</ele>
        <time>2019-08-18T09:21:16Z</time>
      </trkpt>
      <trkpt lat="47.38423" lon="-2.36208">
        <ele>66</ele>
        <time>2019-08-18T09:21:19Z</time>
      </trkpt>
      <trkpt lat="47.38429" lon="-2.36206">
        <ele>71</ele>
        <time>2019-08-18T09:21:21Z</time>
      </trkpt>
      <trkpt lat="47.3844" lon="-2.36191">
        <ele>116</ele>
        <time>2019-08-18T09:21:24Z</time>
      </trkpt>
      <trkpt lat="47.38446" lon="-2.36197">
        <ele>135</ele>
        <time>2019-08-18T09:21:27Z</time>
      </trkpt>
      <trkpt lat="47.38449" lon="-2.36203">
        <ele>134</ele>
        <time>2019-08-18T09:21:28Z</time>
      </trkpt>
      <trkpt lat="47.38456" lon="-2.36233">
        <ele>123</ele>
        <time>2019-08-18T09:21:32Z</time>
      </trkpt>
      <trkpt lat="47.38461" lon="-2.36243">
        <ele>120</ele>
        <time>2019-08-18T09:21:35Z</time>
      </trkpt>
      <trkpt lat="47.38466" lon="-2.36245">
        <ele>114</ele>
        <time>2019-08-18T09:21:38Z</time>
      </trkpt>
      <trkpt lat="47.38474" lon="-2.36243">
        <ele>109</ele>
        <time>2019-08-18T09:21:40Z</time>
      </trkpt>
      <trkpt lat="47.38481" lon="-2.36236">
        <ele>109</ele>
        <time>2019-08-18T09:21:42Z</time>
      </trkpt>
      <trkpt lat="47.38488" lon="-2.36231">
        <ele>110</ele>
        <time>2019-08-18T09:21:44Z</time>
      </trkpt>
      <trkpt lat="47.38493" lon="-2.36229">
        <ele>110</ele>
        <time>2019-08-18T09:21:45Z</time>
      </trkpt>
      <trkpt lat="47.38499" lon="-2.36227">
        <ele>108</ele>
        <time>2019-08-18T09:21:46Z</time>
      </trkpt>
      <trkpt lat="47.38505" lon="-2.36227">
        <ele>106</ele>
        <time>2019-08-18T09:21:47Z</time>
      </trkpt>
      <trkpt lat="47.38511" lon="-2.36229">
        <ele>105</ele>
        <time>2019-08-18T09:21:48Z</time>
      </trkpt>
      <trkpt lat="47.38517" lon="-2.3623">
        <ele>104</ele>
        <time>2019-08-18T09:21:49Z</time>
      </trkpt>
      <trkpt lat="47.38523" lon="-2.36233">
        <ele>102</ele>
        <time>2019-08-18T09:21:50Z</time>
      </trkpt>
      <trkpt lat="47.3854" lon="-2.36241">
        <ele>95</ele>
        <time>2019-08-18T09:21:53Z</time>
      </trkpt>
      <trkpt lat="47.38546" lon="-2.36244">
        <ele>91</ele>
        <time>2019-08-18T09:21:54Z</time>
      </trkpt>
      <trkpt lat="47.38551" lon="-2.36247">
        <ele>89</ele>
        <time>2019-08-18T09:21:55Z</time>
      </trkpt>
      <trkpt lat="47.38557" lon="-2.36247">
        <ele>87</ele>
        <time>2019-08-18T09:21:56Z</time>
      </trkpt>
      <trkpt lat="47.38562" lon="-2.36247">
        <ele>86</ele>
        <time>2019-08-18T09:21:57Z</time>
      </trkpt>
      <trkpt lat="47.38569" lon="-2.36248">
        <ele>85</ele>
        <time>2019-08-18T09:21:58Z</time>
      </trkpt>
      <trkpt lat="47.38575" lon="-2.36249">
        <ele>85</ele>
        <time>2019-08-18T09:21:59Z</time>
      </trkpt>
      <trkpt lat="47.38591" lon="-2.36254">
        <ele>83</ele>
        <time>2019-08-18T09:22:02Z</time>
      </trkpt>
      <trkpt lat="47.38596" lon="-2.36257">
        <ele>83</ele>
        <time>2019-08-18T09:22:03Z</time>
      </trkpt>
      <trkpt lat="47.38607" lon="-2.36262">
        <ele>82</ele>
        <time>2019-08-18T09:22:05Z</time>
      </trkpt>
      <trkpt lat="47.38611" lon="-2.36267">
        <ele>81</ele>
        <time>2019-08-18T09:22:06Z</time>
      </trkpt>
      <trkpt lat="47.38614" lon="-2.36273">
        <ele>80</ele>
        <time>2019-08-18T09:22:07Z</time>
      </trkpt>
      <trkpt lat="47.38617" lon="-2.36282">
        <ele>79</ele>
        <time>2019-08-18T09:22:08Z</time>
      </trkpt>
      <trkpt lat="47.3862" lon="-2.3629">
        <ele>79</ele>
        <time>2019-08-18T09:22:09Z</time>
      </trkpt>
      <trkpt lat="47.38621" lon="-2.36298">
        <ele>79</ele>
        <time>2019-08-18T09:22:10Z</time>
      </trkpt>
      <trkpt lat="47.38622" lon="-2.36306">
        <ele>79</ele>
        <time>2019-08-18T09:22:11Z</time>
      </trkpt>
      <trkpt lat="47.38622" lon="-2.36313">
        <ele>79</ele>
        <time>2019-08-18T09:22:12Z</time>
      </trkpt>
      <trkpt lat="47.38622" lon="-2.36329">
        <ele>77</ele>
        <time>2019-08-18T09:22:14Z</time>
      </trkpt>
      <trkpt lat="47.3862" lon="-2.36337">
        <ele>77</ele>
        <time>2019-08-18T09:22:15Z</time>
      </trkpt>
      <trkpt lat="47.38618" lon="-2.36345">
        <ele>75</ele>
        <time>2019-08-18T09:22:16Z</time>
      </trkpt>
      <trkpt lat="47.38614" lon="-2.36353">
        <ele>75</ele>
        <time>2019-08-18T09:22:17Z</time>
      </trkpt>
      <trkpt lat="47.38612" lon="-2.36361">
        <ele>76</ele>
        <time>2019-08-18T09:22:18Z</time>
      </trkpt>
      <trkpt lat="47.38609" lon="-2.36367">
        <ele>75</ele>
        <time>2019-08-18T09:22:19Z</time>
      </trkpt>
      <trkpt lat="47.38607" lon="-2.36374">
        <ele>74</ele>
        <time>2019-08-18T09:22:20Z</time>
      </trkpt>
      <trkpt lat="47.38605" lon="-2.36382">
        <ele>74</ele>
        <time>2019-08-18T09:22:21Z</time>
      </trkpt>
      <trkpt lat="47.38602" lon="-2.3639">
        <ele>73</ele>
        <time>2019-08-18T09:22:22Z</time>
      </trkpt>
      <trkpt lat="47.386" lon="-2.36398">
        <ele>73</ele>
        <time>2019-08-18T09:22:23Z</time>
      </trkpt>
      <trkpt lat="47.38596" lon="-2.36405">
        <ele>72</ele>
        <time>2019-08-18T09:22:24Z</time>
      </trkpt>
      <trkpt lat="47.38593" lon="-2.36412">
        <ele>72</ele>
        <time>2019-08-18T09:22:25Z</time>
      </trkpt>
      <trkpt lat="47.38589" lon="-2.36419">
        <ele>72</ele>
        <time>2019-08-18T09:22:26Z</time>
      </trkpt>
      <trkpt lat="47.38583" lon="-2.36434">
        <ele>72</ele>
        <time>2019-08-18T09:22:28Z</time>
      </trkpt>
      <trkpt lat="47.38579" lon="-2.3644">
        <ele>72</ele>
        <time>2019-08-18T09:22:29Z</time>
      </trkpt>
      <trkpt lat="47.38576" lon="-2.36447">
        <ele>72</ele>
        <time>2019-08-18T09:22:30Z</time>
      </trkpt>
      <trkpt lat="47.3857" lon="-2.36462">
        <ele>72</ele>
        <time>2019-08-18T09:22:32Z</time>
      </trkpt>
      <trkpt lat="47.38566" lon="-2.3647">
        <ele>71</ele>
        <time>2019-08-18T09:22:33Z</time>
      </trkpt>
      <trkpt lat="47.38562" lon="-2.36477">
        <ele>71</ele>
        <time>2019-08-18T09:22:34Z</time>
      </trkpt>
      <trkpt lat="47.38558" lon="-2.36483">
        <ele>70</ele>
        <time>2019-08-18T09:22:35Z</time>
      </trkpt>
      <trkpt lat="47.38547" lon="-2.36508">
        <ele>70</ele>
        <time>2019-08-18T09:22:38Z</time>
      </trkpt>
      <trkpt lat="47.38542" lon="-2.36514">
        <ele>70</ele>
        <time>2019-08-18T09:22:39Z</time>
      </trkpt>
      <trkpt lat="47.38537" lon="-2.3652">
        <ele>70</ele>
        <time>2019-08-18T09:22:40Z</time>
      </trkpt>
      <trkpt lat="47.38531" lon="-2.36526">
        <ele>70</ele>
        <time>2019-08-18T09:22:41Z</time>
      </trkpt>
      <trkpt lat="47.38525" lon="-2.36532">
        <ele>69</ele>
        <time>2019-08-18T09:22:42Z</time>
      </trkpt>
      <trkpt lat="47.3852" lon="-2.36539">
        <ele>69</ele>
        <time>2019-08-18T09:22:43Z</time>
      </trkpt>
      <trkpt lat="47.38515" lon="-2.36546">
        <ele>69</ele>
        <time>2019-08-18T09:22:44Z</time>
      </trkpt>
      <trkpt lat="47.38509" lon="-2.36551">
        <ele>69</ele>
        <time>2019-08-18T09:22:45Z</time>
      </trkpt>
      <trkpt lat="47.38502" lon="-2.36557">
        <ele>70</ele>
        <time>2019-08-18T09:22:46Z</time>
      </trkpt>
      <trkpt lat="47.38497" lon="-2.36561">
        <ele>69</ele>
        <time>2019-08-18T09:22:47Z</time>
      </trkpt>
      <trkpt lat="47.38486" lon="-2.36568">
        <ele>69</ele>
        <time>2019-08-18T09:22:49Z</time>
      </trkpt>
      <trkpt lat="47.3848" lon="-2.36572">
        <ele>69</ele>
        <time>2019-08-18T09:22:50Z</time>
      </trkpt>
      <trkpt lat="47.3847" lon="-2.36578">
        <ele>68</ele>
        <time>2019-08-18T09:22:52Z</time>
      </trkpt>
      <trkpt lat="47.38465" lon="-2.3658">
        <ele>68</ele>
        <time>2019-08-18T09:22:53Z</time>
      </trkpt>
      <trkpt lat="47.3846" lon="-2.36583">
        <ele>68</ele>
        <time>2019-08-18T09:22:54Z</time>
      </trkpt>
      <trkpt lat="47.3845" lon="-2.36589">
        <ele>68</ele>
        <time>2019-08-18T09:22:56Z</time>
      </trkpt>
      <trkpt lat="47.38446" lon="-2.36593">
        <ele>68</ele>
        <time>2019-08-18T09:22:57Z</time>
      </trkpt>
      <trkpt lat="47.3844" lon="-2.36597">
        <ele>68</ele>
        <time>2019-08-18T09:22:58Z</time>
      </trkpt>
      <trkpt lat="47.38434" lon="-2.36601">
        <ele>67</ele>
        <time>2019-08-18T09:22:59Z</time>
      </trkpt>
      <trkpt lat="47.38429" lon="-2.36606">
        <ele>67</ele>
        <time>2019-08-18T09:23:00Z</time>
      </trkpt>
      <trkpt lat="47.38421" lon="-2.36619">
        <ele>67</ele>
        <time>2019-08-18T09:23:02Z</time>
      </trkpt>
      <trkpt lat="47.38416" lon="-2.36625">
        <ele>67</ele>
        <time>2019-08-18T09:23:03Z</time>
      </trkpt>
      <trkpt lat="47.38413" lon="-2.36631">
        <ele>67</ele>
        <time>2019-08-18T09:23:04Z</time>
      </trkpt>
      <trkpt lat="47.3841" lon="-2.36638">
        <ele>67</ele>
        <time>2019-08-18T09:23:05Z</time>
      </trkpt>
      <trkpt lat="47.38408" lon="-2.36645">
        <ele>67</ele>
        <time>2019-08-18T09:23:06Z</time>
      </trkpt>
      <trkpt lat="47.38406" lon="-2.36652">
        <ele>67</ele>
        <time>2019-08-18T09:23:07Z</time>
      </trkpt>
      <trkpt lat="47.38404" lon="-2.36659">
        <ele>67</ele>
        <time>2019-08-18T09:23:08Z</time>
      </trkpt>
      <trkpt lat="47.38401" lon="-2.36665">
        <ele>67</ele>
        <time>2019-08-18T09:23:09Z</time>
      </trkpt>
      <trkpt lat="47.38398" lon="-2.36672">
        <ele>66</ele>
        <time>2019-08-18T09:23:10Z</time>
      </trkpt>
      <trkpt lat="47.38397" lon="-2.36679">
        <ele>66</ele>
        <time>2019-08-18T09:23:11Z</time>
      </trkpt>
      <trkpt lat="47.38394" lon="-2.36685">
        <ele>65</ele>
        <time>2019-08-18T09:23:12Z</time>
      </trkpt>
      <trkpt lat="47.3839" lon="-2.36697">
        <ele>66</ele>
        <time>2019-08-18T09:23:14Z</time>
      </trkpt>
      <trkpt lat="47.38389" lon="-2.36705">
        <ele>66</ele>
        <time>2019-08-18T09:23:15Z</time>
      </trkpt>
      <trkpt lat="47.38386" lon="-2.36712">
        <ele>66</ele>
        <time>2019-08-18T09:23:16Z</time>
      </trkpt>
      <trkpt lat="47.38384" lon="-2.36719">
        <ele>65</ele>
        <time>2019-08-18T09:23:17Z</time>
      </trkpt>
      <trkpt lat="47.38382" lon="-2.36727">
        <ele>66</ele>
        <time>2019-08-18T09:23:18Z</time>
      </trkpt>
      <trkpt lat="47.38378" lon="-2.36734">
        <ele>66</ele>
        <time>2019-08-18T09:23:19Z</time>
      </trkpt>
      <trkpt lat="47.38375" lon="-2.36742">
        <ele>66</ele>
        <time>2019-08-18T09:23:20Z</time>
      </trkpt>
      <trkpt lat="47.38372" lon="-2.36751">
        <ele>66</ele>
        <time>2019-08-18T09:23:21Z</time>
      </trkpt>
      <trkpt lat="47.38369" lon="-2.36759">
        <ele>65</ele>
        <time>2019-08-18T09:23:22Z</time>
      </trkpt>
      <trkpt lat="47.38366" lon="-2.36766">
        <ele>65</ele>
        <time>2019-08-18T09:23:23Z</time>
      </trkpt>
      <trkpt lat="47.38353" lon="-2.36781">
        <ele>64</ele>
        <time>2019-08-18T09:23:26Z</time>
      </trkpt>
      <trkpt lat="47.38338" lon="-2.36791">
        <ele>64</ele>
        <time>2019-08-18T09:23:29Z</time>
      </trkpt>
      <trkpt lat="47.3831" lon="-2.36801">
        <ele>62</ele>
        <time>2019-08-18T09:23:34Z</time>
      </trkpt>
      <trkpt lat="47.38265" lon="-2.36821">
        <ele>70</ele>
        <time>2019-08-18T09:23:43Z</time>
      </trkpt>
      <trkpt lat="47.38257" lon="-2.36822">
        <ele>71</ele>
        <time>2019-08-18T09:23:44Z</time>
      </trkpt>
      <trkpt lat="47.38254" lon="-2.36821">
        <ele>71</ele>
        <time>2019-08-18T09:23:45Z</time>
      </trkpt>
      <trkpt lat="47.38249" lon="-2.36824">
        <ele>72</ele>
        <time>2019-08-18T09:23:46Z</time>
      </trkpt>
      <trkpt lat="47.38243" lon="-2.36828">
        <ele>72</ele>
        <time>2019-08-18T09:23:47Z</time>
      </trkpt>
      <trkpt lat="47.38236" lon="-2.36831">
        <ele>73</ele>
        <time>2019-08-18T09:23:48Z</time>
      </trkpt>
      <trkpt lat="47.3823" lon="-2.36837">
        <ele>70</ele>
        <time>2019-08-18T09:23:50Z</time>
      </trkpt>
      <trkpt lat="47.38222" lon="-2.36841">
        <ele>70</ele>
        <time>2019-08-18T09:23:52Z</time>
      </trkpt>
      <trkpt lat="47.38219" lon="-2.36843">
        <ele>71</ele>
        <time>2019-08-18T09:23:53Z</time>
      </trkpt>
      <trkpt lat="47.38215" lon="-2.36845">
        <ele>68</ele>
        <time>2019-08-18T09:23:54Z</time>
      </trkpt>
      <trkpt lat="47.38208" lon="-2.3685">
        <ele>70</ele>
        <time>2019-08-18T09:23:56Z</time>
      </trkpt>
      <trkpt lat="47.38199" lon="-2.36855">
        <ele>74</ele>
        <time>2019-08-18T09:23:58Z</time>
      </trkpt>
      <trkpt lat="47.38194" lon="-2.36857">
        <ele>75</ele>
        <time>2019-08-18T09:23:59Z</time>
      </trkpt>
      <trkpt lat="47.38189" lon="-2.3686">
        <ele>74</ele>
        <time>2019-08-18T09:24:00Z</time>
      </trkpt>
      <trkpt lat="47.38182" lon="-2.36862">
        <ele>71</ele>
        <time>2019-08-18T09:24:01Z</time>
      </trkpt>
      <trkpt lat="47.38177" lon="-2.36865">
        <ele>69</ele>
        <time>2019-08-18T09:24:02Z</time>
      </trkpt>
      <trkpt lat="47.38172" lon="-2.36868">
        <ele>69</ele>
        <time>2019-08-18T09:24:03Z</time>
      </trkpt>
      <trkpt lat="47.38168" lon="-2.36872">
        <ele>69</ele>
        <time>2019-08-18T09:24:04Z</time>
      </trkpt>
      <trkpt lat="47.3815" lon="-2.36883">
        <ele>69</ele>
        <time>2019-08-18T09:24:08Z</time>
      </trkpt>
      <trkpt lat="47.3814" lon="-2.36888">
        <ele>68</ele>
        <time>2019-08-18T09:24:10Z</time>
      </trkpt>
      <trkpt lat="47.38134" lon="-2.36891">
        <ele>67</ele>
        <time>2019-08-18T09:24:11Z</time>
      </trkpt>
      <trkpt lat="47.38129" lon="-2.36894">
        <ele>66</ele>
        <time>2019-08-18T09:24:12Z</time>
      </trkpt>
      <trkpt lat="47.38124" lon="-2.36896">
        <ele>66</ele>
        <time>2019-08-18T09:24:13Z</time>
      </trkpt>
      <trkpt lat="47.38121" lon="-2.36898">
        <ele>66</ele>
        <time>2019-08-18T09:24:14Z</time>
      </trkpt>
      <trkpt lat="47.38118" lon="-2.36899">
        <ele>66</ele>
        <time>2019-08-18T09:24:15Z</time>
      </trkpt>
      <trkpt lat="47.3811" lon="-2.369">
        <ele>66</ele>
        <time>2019-08-18T09:24:18Z</time>
      </trkpt>
      <trkpt lat="47.38107" lon="-2.36901">
        <ele>66</ele>
        <time>2019-08-18T09:24:21Z</time>
      </trkpt>
      <trkpt lat="47.38109" lon="-2.36914">
        <ele>65</ele>
        <time>2019-08-18T09:24:26Z</time>
      </trkpt>
      <trkpt lat="47.38114" lon="-2.36928">
        <ele>65</ele>
        <time>2019-08-18T09:24:29Z</time>
      </trkpt>
      <trkpt lat="47.38118" lon="-2.36938">
        <ele>65</ele>
        <time>2019-08-18T09:24:31Z</time>
      </trkpt>
      <trkpt lat="47.3812" lon="-2.36943">
        <ele>65</ele>
        <time>2019-08-18T09:24:32Z</time>
      </trkpt>
      <trkpt lat="47.38122" lon="-2.36948">
        <ele>65</ele>
        <time>2019-08-18T09:24:33Z</time>
      </trkpt>
      <trkpt lat="47.38124" lon="-2.36953">
        <ele>66</ele>
        <time>2019-08-18T09:24:34Z</time>
      </trkpt>
      <trkpt lat="47.38128" lon="-2.36963">
        <ele>66</ele>
        <time>2019-08-18T09:24:36Z</time>
      </trkpt>
      <trkpt lat="47.38132" lon="-2.36972">
        <ele>65</ele>
        <time>2019-08-18T09:24:38Z</time>
      </trkpt>
      <trkpt lat="47.38135" lon="-2.36983">
        <ele>66</ele>
        <time>2019-08-18T09:24:40Z</time>
      </trkpt>
      <trkpt lat="47.38138" lon="-2.36991">
        <ele>66</ele>
        <time>2019-08-18T09:24:43Z</time>
      </trkpt>
      <trkpt lat="47.3814" lon="-2.36998">
        <ele>67</ele>
        <time>2019-08-18T09:24:46Z</time>
      </trkpt>
      <trkpt lat="47.38145" lon="-2.37005">
        <ele>67</ele>
        <time>2019-08-18T09:24:49Z</time>
      </trkpt>
      <trkpt lat="47.38148" lon="-2.37012">
        <ele>67</ele>
        <time>2019-08-18T09:24:51Z</time>
      </trkpt>
      <trkpt lat="47.38149" lon="-2.37015">
        <ele>68</ele>
        <time>2019-08-18T09:24:52Z</time>
      </trkpt>
      <trkpt lat="47.38151" lon="-2.37018">
        <ele>68</ele>
        <time>2019-08-18T09:24:53Z</time>
      </trkpt>
      <trkpt lat="47.38155" lon="-2.37025">
        <ele>68</ele>
        <time>2019-08-18T09:24:55Z</time>
      </trkpt>
      <trkpt lat="47.3816" lon="-2.37038">
        <ele>68</ele>
        <time>2019-08-18T09:24:58Z</time>
      </trkpt>
      <trkpt lat="47.38165" lon="-2.37047">
        <ele>68</ele>
        <time>2019-08-18T09:25:01Z</time>
      </trkpt>
      <trkpt lat="47.3817" lon="-2.37059">
        <ele>69</ele>
        <time>2019-08-18T09:25:04Z</time>
      </trkpt>
      <trkpt lat="47.38174" lon="-2.37066">
        <ele>69</ele>
        <time>2019-08-18T09:25:06Z</time>
      </trkpt>
      <trkpt lat="47.38176" lon="-2.3707">
        <ele>68</ele>
        <time>2019-08-18T09:25:07Z</time>
      </trkpt>
      <trkpt lat="47.38179" lon="-2.37079">
        <ele>68</ele>
        <time>2019-08-18T09:25:09Z</time>
      </trkpt>
      <trkpt lat="47.38181" lon="-2.37084">
        <ele>68</ele>
        <time>2019-08-18T09:25:10Z</time>
      </trkpt>
      <trkpt lat="47.38185" lon="-2.37092">
        <ele>68</ele>
        <time>2019-08-18T09:25:12Z</time>
      </trkpt>
      <trkpt lat="47.38187" lon="-2.37097">
        <ele>68</ele>
        <time>2019-08-18T09:25:13Z</time>
      </trkpt>
      <trkpt lat="47.38193" lon="-2.3711">
        <ele>69</ele>
        <time>2019-08-18T09:25:15Z</time>
      </trkpt>
      <trkpt lat="47.38197" lon="-2.37116">
        <ele>69</ele>
        <time>2019-08-18T09:25:16Z</time>
      </trkpt>
      <trkpt lat="47.38203" lon="-2.37134">
        <ele>68</ele>
        <time>2019-08-18T09:25:18Z</time>
      </trkpt>
      <trkpt lat="47.38207" lon="-2.37143">
        <ele>67</ele>
        <time>2019-08-18T09:25:19Z</time>
      </trkpt>
      <trkpt lat="47.38211" lon="-2.37151">
        <ele>68</ele>
        <time>2019-08-18T09:25:20Z</time>
      </trkpt>
      <trkpt lat="47.38222" lon="-2.37176">
        <ele>69</ele>
        <time>2019-08-18T09:25:23Z</time>
      </trkpt>
      <trkpt lat="47.3823" lon="-2.37191">
        <ele>70</ele>
        <time>2019-08-18T09:25:25Z</time>
      </trkpt>
      <trkpt lat="47.38235" lon="-2.37198">
        <ele>71</ele>
        <time>2019-08-18T09:25:26Z</time>
      </trkpt>
      <trkpt lat="47.38238" lon="-2.37205">
        <ele>70</ele>
        <time>2019-08-18T09:25:27Z</time>
      </trkpt>
      <trkpt lat="47.38244" lon="-2.37211">
        <ele>69</ele>
        <time>2019-08-18T09:25:29Z</time>
      </trkpt>
      <trkpt lat="47.38255" lon="-2.37219">
        <ele>70</ele>
        <time>2019-08-18T09:25:33Z</time>
      </trkpt>
      <trkpt lat="47.38263" lon="-2.37222">
        <ele>70</ele>
        <time>2019-08-18T09:25:36Z</time>
      </trkpt>
      <trkpt lat="47.38269" lon="-2.37222">
        <ele>70</ele>
        <time>2019-08-18T09:25:39Z</time>
      </trkpt>
      <trkpt lat="47.38271" lon="-2.37222">
        <ele>70</ele>
        <time>2019-08-18T09:25:40Z</time>
      </trkpt>
      <trkpt lat="47.38275" lon="-2.37217">
        <ele>70</ele>
        <time>2019-08-18T09:25:42Z</time>
      </trkpt>
      <trkpt lat="47.38279" lon="-2.37214">
        <ele>70</ele>
        <time>2019-08-18T09:25:44Z</time>
      </trkpt>
      <trkpt lat="47.38279" lon="-2.37214">
        <ele>3</ele>
        <time>2019-08-18T09:25:50Z</time>
      </trkpt>
      <trkpt lat="47.38279" lon="-2.37214">
        <ele>3</ele>
        <time>2019-08-18T09:26:14Z</time>
      </trkpt>
      <trkpt lat="47.383" lon="-2.37228">
        <ele>72</ele>
        <time>2019-08-18T09:26:14Z</time>
      </trkpt>
      <trkpt lat="47.38318" lon="-2.37266">
        <ele>74</ele>
        <time>2019-08-18T09:26:20Z</time>
      </trkpt>
      <trkpt lat="47.38321" lon="-2.3727">
        <ele>79</ele>
        <time>2019-08-18T09:26:22Z</time>
      </trkpt>
      <trkpt lat="47.38326" lon="-2.37276">
        <ele>79</ele>
        <time>2019-08-18T09:26:25Z</time>
      </trkpt>
      <trkpt lat="47.38332" lon="-2.37279">
        <ele>79</ele>
        <time>2019-08-18T09:26:27Z</time>
      </trkpt>
      <trkpt lat="47.38334" lon="-2.37288">
        <ele>81</ele>
        <time>2019-08-18T09:26:32Z</time>
      </trkpt>
      <trkpt lat="47.38335" lon="-2.37296">
        <ele>88</ele>
        <time>2019-08-18T09:26:36Z</time>
      </trkpt>
      <trkpt lat="47.38332" lon="-2.37303">
        <ele>87</ele>
        <time>2019-08-18T09:26:42Z</time>
      </trkpt>
      <trkpt lat="47.38331" lon="-2.37307">
        <ele>89</ele>
        <time>2019-08-18T09:26:44Z</time>
      </trkpt>
      <trkpt lat="47.38332" lon="-2.37317">
        <ele>87</ele>
        <time>2019-08-18T09:26:47Z</time>
      </trkpt>
      <trkpt lat="47.38332" lon="-2.37321">
        <ele>86</ele>
        <time>2019-08-18T09:26:48Z</time>
      </trkpt>
      <trkpt lat="47.38332" lon="-2.37325">
        <ele>86</ele>
        <time>2019-08-18T09:26:49Z</time>
      </trkpt>
      <trkpt lat="47.38332" lon="-2.37334">
        <ele>86</ele>
        <time>2019-08-18T09:26:51Z</time>
      </trkpt>
      <trkpt lat="47.38332" lon="-2.37338">
        <ele>85</ele>
        <time>2019-08-18T09:26:52Z</time>
      </trkpt>
      <trkpt lat="47.38333" lon="-2.37348">
        <ele>83</ele>
        <time>2019-08-18T09:26:54Z</time>
      </trkpt>
      <trkpt lat="47.38334" lon="-2.37359">
        <ele>81</ele>
        <time>2019-08-18T09:26:56Z</time>
      </trkpt>
      <trkpt lat="47.38335" lon="-2.37365">
        <ele>81</ele>
        <time>2019-08-18T09:26:57Z</time>
      </trkpt>
      <trkpt lat="47.38337" lon="-2.37381">
        <ele>80</ele>
        <time>2019-08-18T09:27:00Z</time>
      </trkpt>
      <trkpt lat="47.38339" lon="-2.37394">
        <ele>81</ele>
        <time>2019-08-18T09:27:02Z</time>
      </trkpt>
      <trkpt lat="47.38344" lon="-2.3741">
        <ele>81</ele>
        <time>2019-08-18T09:27:05Z</time>
      </trkpt>
      <trkpt lat="47.38346" lon="-2.37416">
        <ele>80</ele>
        <time>2019-08-18T09:27:06Z</time>
      </trkpt>
      <trkpt lat="47.38348" lon="-2.3743">
        <ele>80</ele>
        <time>2019-08-18T09:27:08Z</time>
      </trkpt>
      <trkpt lat="47.3835" lon="-2.37437">
        <ele>79</ele>
        <time>2019-08-18T09:27:09Z</time>
      </trkpt>
      <trkpt lat="47.38351" lon="-2.37444">
        <ele>79</ele>
        <time>2019-08-18T09:27:10Z</time>
      </trkpt>
      <trkpt lat="47.38352" lon="-2.37451">
        <ele>78</ele>
        <time>2019-08-18T09:27:11Z</time>
      </trkpt>
      <trkpt lat="47.38353" lon="-2.37458">
        <ele>78</ele>
        <time>2019-08-18T09:27:12Z</time>
      </trkpt>
      <trkpt lat="47.38355" lon="-2.37465">
        <ele>78</ele>
        <time>2019-08-18T09:27:14Z</time>
      </trkpt>
      <trkpt lat="47.38357" lon="-2.37483">
        <ele>79</ele>
        <time>2019-08-18T09:27:17Z</time>
      </trkpt>
      <trkpt lat="47.38358" lon="-2.37497">
        <ele>79</ele>
        <time>2019-08-18T09:27:19Z</time>
      </trkpt>
      <trkpt lat="47.38358" lon="-2.37504">
        <ele>80</ele>
        <time>2019-08-18T09:27:20Z</time>
      </trkpt>
      <trkpt lat="47.38358" lon="-2.37516">
        <ele>80</ele>
        <time>2019-08-18T09:27:22Z</time>
      </trkpt>
      <trkpt lat="47.38358" lon="-2.37527">
        <ele>81</ele>
        <time>2019-08-18T09:27:24Z</time>
      </trkpt>
      <trkpt lat="47.38358" lon="-2.37534">
        <ele>81</ele>
        <time>2019-08-18T09:27:25Z</time>
      </trkpt>
      <trkpt lat="47.38358" lon="-2.37541">
        <ele>81</ele>
        <time>2019-08-18T09:27:26Z</time>
      </trkpt>
      <trkpt lat="47.38358" lon="-2.37548">
        <ele>81</ele>
        <time>2019-08-18T09:27:27Z</time>
      </trkpt>
      <trkpt lat="47.38358" lon="-2.37554">
        <ele>82</ele>
        <time>2019-08-18T09:27:28Z</time>
      </trkpt>
      <trkpt lat="47.38358" lon="-2.3756">
        <ele>82</ele>
        <time>2019-08-18T09:27:29Z</time>
      </trkpt>
      <trkpt lat="47.38356" lon="-2.37566">
        <ele>83</ele>
        <time>2019-08-18T09:27:30Z</time>
      </trkpt>
      <trkpt lat="47.38352" lon="-2.37571">
        <ele>82</ele>
        <time>2019-08-18T09:27:31Z</time>
      </trkpt>
      <trkpt lat="47.38345" lon="-2.37576">
        <ele>82</ele>
        <time>2019-08-18T09:27:33Z</time>
      </trkpt>
      <trkpt lat="47.38341" lon="-2.37578">
        <ele>82</ele>
        <time>2019-08-18T09:27:34Z</time>
      </trkpt>
      <trkpt lat="47.38337" lon="-2.37582">
        <ele>82</ele>
        <time>2019-08-18T09:27:35Z</time>
      </trkpt>
      <trkpt lat="47.38329" lon="-2.37588">
        <ele>82</ele>
        <time>2019-08-18T09:27:37Z</time>
      </trkpt>
      <trkpt lat="47.38325" lon="-2.37591">
        <ele>82</ele>
        <time>2019-08-18T09:27:38Z</time>
      </trkpt>
      <trkpt lat="47.38322" lon="-2.37594">
        <ele>82</ele>
        <time>2019-08-18T09:27:39Z</time>
      </trkpt>
      <trkpt lat="47.38317" lon="-2.37597">
        <ele>82</ele>
        <time>2019-08-18T09:27:40Z</time>
      </trkpt>
      <trkpt lat="47.38312" lon="-2.37599">
        <ele>82</ele>
        <time>2019-08-18T09:27:41Z</time>
      </trkpt>
      <trkpt lat="47.38304" lon="-2.37605">
        <ele>80</ele>
        <time>2019-08-18T09:27:43Z</time>
      </trkpt>
      <trkpt lat="47.38299" lon="-2.37607">
        <ele>80</ele>
        <time>2019-08-18T09:27:44Z</time>
      </trkpt>
      <trkpt lat="47.38293" lon="-2.37609">
        <ele>80</ele>
        <time>2019-08-18T09:27:45Z</time>
      </trkpt>
      <trkpt lat="47.38289" lon="-2.37612">
        <ele>79</ele>
        <time>2019-08-18T09:27:46Z</time>
      </trkpt>
      <trkpt lat="47.38285" lon="-2.37614">
        <ele>78</ele>
        <time>2019-08-18T09:27:47Z</time>
      </trkpt>
      <trkpt lat="47.38278" lon="-2.37618">
        <ele>78</ele>
        <time>2019-08-18T09:27:49Z</time>
      </trkpt>
      <trkpt lat="47.38275" lon="-2.3762">
        <ele>77</ele>
        <time>2019-08-18T09:27:50Z</time>
      </trkpt>
      <trkpt lat="47.38269" lon="-2.37622">
        <ele>77</ele>
        <time>2019-08-18T09:27:52Z</time>
      </trkpt>
      <trkpt lat="47.38263" lon="-2.37622">
        <ele>77</ele>
        <time>2019-08-18T09:27:55Z</time>
      </trkpt>
      <trkpt lat="47.38257" lon="-2.37624">
        <ele>77</ele>
        <time>2019-08-18T09:27:57Z</time>
      </trkpt>
      <trkpt lat="47.38251" lon="-2.37629">
        <ele>78</ele>
        <time>2019-08-18T09:27:59Z</time>
      </trkpt>
      <trkpt lat="47.38247" lon="-2.37632">
        <ele>78</ele>
        <time>2019-08-18T09:28:00Z</time>
      </trkpt>
      <trkpt lat="47.38243" lon="-2.37634">
        <ele>77</ele>
        <time>2019-08-18T09:28:01Z</time>
      </trkpt>
      <trkpt lat="47.38238" lon="-2.37635">
        <ele>77</ele>
        <time>2019-08-18T09:28:02Z</time>
      </trkpt>
      <trkpt lat="47.38234" lon="-2.37636">
        <ele>76</ele>
        <time>2019-08-18T09:28:03Z</time>
      </trkpt>
      <trkpt lat="47.38225" lon="-2.37639">
        <ele>77</ele>
        <time>2019-08-18T09:28:05Z</time>
      </trkpt>
      <trkpt lat="47.38221" lon="-2.37643">
        <ele>76</ele>
        <time>2019-08-18T09:28:06Z</time>
      </trkpt>
      <trkpt lat="47.38213" lon="-2.37649">
        <ele>75</ele>
        <time>2019-08-18T09:28:08Z</time>
      </trkpt>
      <trkpt lat="47.38208" lon="-2.37653">
        <ele>75</ele>
        <time>2019-08-18T09:28:09Z</time>
      </trkpt>
      <trkpt lat="47.38204" lon="-2.37656">
        <ele>74</ele>
        <time>2019-08-18T09:28:10Z</time>
      </trkpt>
      <trkpt lat="47.382" lon="-2.3766">
        <ele>75</ele>
        <time>2019-08-18T09:28:11Z</time>
      </trkpt>
      <trkpt lat="47.38195" lon="-2.37664">
        <ele>76</ele>
        <time>2019-08-18T09:28:12Z</time>
      </trkpt>
      <trkpt lat="47.38191" lon="-2.37668">
        <ele>76</ele>
        <time>2019-08-18T09:28:13Z</time>
      </trkpt>
      <trkpt lat="47.38183" lon="-2.37674">
        <ele>76</ele>
        <time>2019-08-18T09:28:15Z</time>
      </trkpt>
      <trkpt lat="47.38178" lon="-2.37678">
        <ele>77</ele>
        <time>2019-08-18T09:28:16Z</time>
      </trkpt>
      <trkpt lat="47.38173" lon="-2.37682">
        <ele>76</ele>
        <time>2019-08-18T09:28:17Z</time>
      </trkpt>
      <trkpt lat="47.38165" lon="-2.37689">
        <ele>76</ele>
        <time>2019-08-18T09:28:19Z</time>
      </trkpt>
      <trkpt lat="47.38161" lon="-2.37693">
        <ele>76</ele>
        <time>2019-08-18T09:28:20Z</time>
      </trkpt>
      <trkpt lat="47.38154" lon="-2.37701">
        <ele>75</ele>
        <time>2019-08-18T09:28:22Z</time>
      </trkpt>
      <trkpt lat="47.3815" lon="-2.37704">
        <ele>75</ele>
        <time>2019-08-18T09:28:23Z</time>
      </trkpt>
      <trkpt lat="47.38138" lon="-2.37714">
        <ele>75</ele>
        <time>2019-08-18T09:28:26Z</time>
      </trkpt>
      <trkpt lat="47.38134" lon="-2.37718">
        <ele>76</ele>
        <time>2019-08-18T09:28:27Z</time>
      </trkpt>
      <trkpt lat="47.38126" lon="-2.37725">
        <ele>75</ele>
        <time>2019-08-18T09:28:28Z</time>
      </trkpt>
      <trkpt lat="47.38122" lon="-2.37728">
        <ele>75</ele>
        <time>2019-08-18T09:28:29Z</time>
      </trkpt>
      <trkpt lat="47.38118" lon="-2.37732">
        <ele>75</ele>
        <time>2019-08-18T09:28:30Z</time>
      </trkpt>
      <trkpt lat="47.3811" lon="-2.37739">
        <ele>75</ele>
        <time>2019-08-18T09:28:32Z</time>
      </trkpt>
      <trkpt lat="47.38107" lon="-2.37742">
        <ele>75</ele>
        <time>2019-08-18T09:28:33Z</time>
      </trkpt>
      <trkpt lat="47.38099" lon="-2.37749">
        <ele>74</ele>
        <time>2019-08-18T09:28:35Z</time>
      </trkpt>
      <trkpt lat="47.38092" lon="-2.37756">
        <ele>74</ele>
        <time>2019-08-18T09:28:37Z</time>
      </trkpt>
      <trkpt lat="47.38086" lon="-2.37761">
        <ele>74</ele>
        <time>2019-08-18T09:28:39Z</time>
      </trkpt>
      <trkpt lat="47.38082" lon="-2.37765">
        <ele>74</ele>
        <time>2019-08-18T09:28:40Z</time>
      </trkpt>
      <trkpt lat="47.38076" lon="-2.37771">
        <ele>73</ele>
        <time>2019-08-18T09:28:42Z</time>
      </trkpt>
      <trkpt lat="47.38074" lon="-2.37773">
        <ele>72</ele>
        <time>2019-08-18T09:28:43Z</time>
      </trkpt>
      <trkpt lat="47.38071" lon="-2.37776">
        <ele>72</ele>
        <time>2019-08-18T09:28:44Z</time>
      </trkpt>
      <trkpt lat="47.3806" lon="-2.37787">
        <ele>74</ele>
        <time>2019-08-18T09:28:48Z</time>
      </trkpt>
      <trkpt lat="47.38055" lon="-2.37791">
        <ele>74</ele>
        <time>2019-08-18T09:28:49Z</time>
      </trkpt>
      <trkpt lat="47.38039" lon="-2.378">
        <ele>74</ele>
        <time>2019-08-18T09:28:52Z</time>
      </trkpt>
      <trkpt lat="47.38035" lon="-2.37803">
        <ele>74</ele>
        <time>2019-08-18T09:28:53Z</time>
      </trkpt>
      <trkpt lat="47.38024" lon="-2.37815">
        <ele>75</ele>
        <time>2019-08-18T09:28:56Z</time>
      </trkpt>
      <trkpt lat="47.3802" lon="-2.37817">
        <ele>75</ele>
        <time>2019-08-18T09:28:57Z</time>
      </trkpt>
      <trkpt lat="47.38013" lon="-2.37824">
        <ele>74</ele>
        <time>2019-08-18T09:28:59Z</time>
      </trkpt>
      <trkpt lat="47.38006" lon="-2.37831">
        <ele>75</ele>
        <time>2019-08-18T09:29:01Z</time>
      </trkpt>
      <trkpt lat="47.38002" lon="-2.37834">
        <ele>75</ele>
        <time>2019-08-18T09:29:02Z</time>
      </trkpt>
      <trkpt lat="47.37997" lon="-2.37837">
        <ele>76</ele>
        <time>2019-08-18T09:29:03Z</time>
      </trkpt>
      <trkpt lat="47.37993" lon="-2.3784">
        <ele>76</ele>
        <time>2019-08-18T09:29:04Z</time>
      </trkpt>
      <trkpt lat="47.37988" lon="-2.37843">
        <ele>76</ele>
        <time>2019-08-18T09:29:05Z</time>
      </trkpt>
      <trkpt lat="47.37984" lon="-2.37847">
        <ele>76</ele>
        <time>2019-08-18T09:29:06Z</time>
      </trkpt>
      <trkpt lat="47.3798" lon="-2.37851">
        <ele>76</ele>
        <time>2019-08-18T09:29:07Z</time>
      </trkpt>
      <trkpt lat="47.37976" lon="-2.37854">
        <ele>76</ele>
        <time>2019-08-18T09:29:08Z</time>
      </trkpt>
      <trkpt lat="47.37971" lon="-2.37857">
        <ele>76</ele>
        <time>2019-08-18T09:29:09Z</time>
      </trkpt>
      <trkpt lat="47.37967" lon="-2.3786">
        <ele>77</ele>
        <time>2019-08-18T09:29:10Z</time>
      </trkpt>
      <trkpt lat="47.37963" lon="-2.37863">
        <ele>77</ele>
        <time>2019-08-18T09:29:11Z</time>
      </trkpt>
      <trkpt lat="47.37958" lon="-2.37866">
        <ele>77</ele>
        <time>2019-08-18T09:29:12Z</time>
      </trkpt>
      <trkpt lat="47.37954" lon="-2.3787">
        <ele>76</ele>
        <time>2019-08-18T09:29:13Z</time>
      </trkpt>
      <trkpt lat="47.37949" lon="-2.37874">
        <ele>76</ele>
        <time>2019-08-18T09:29:14Z</time>
      </trkpt>
      <trkpt lat="47.37944" lon="-2.37878">
        <ele>76</ele>
        <time>2019-08-18T09:29:15Z</time>
      </trkpt>
      <trkpt lat="47.37939" lon="-2.37881">
        <ele>75</ele>
        <time>2019-08-18T09:29:16Z</time>
      </trkpt>
      <trkpt lat="47.37935" lon="-2.37884">
        <ele>75</ele>
        <time>2019-08-18T09:29:17Z</time>
      </trkpt>
      <trkpt lat="47.37931" lon="-2.37887">
        <ele>75</ele>
        <time>2019-08-18T09:29:18Z</time>
      </trkpt>
      <trkpt lat="47.37926" lon="-2.37891">
        <ele>75</ele>
        <time>2019-08-18T09:29:19Z</time>
      </trkpt>
      <trkpt lat="47.3792" lon="-2.37895">
        <ele>75</ele>
        <time>2019-08-18T09:29:20Z</time>
      </trkpt>
      <trkpt lat="47.37916" lon="-2.37899">
        <ele>75</ele>
        <time>2019-08-18T09:29:21Z</time>
      </trkpt>
      <trkpt lat="47.37904" lon="-2.37906">
        <ele>74</ele>
        <time>2019-08-18T09:29:23Z</time>
      </trkpt>
      <trkpt lat="47.37899" lon="-2.3791">
        <ele>75</ele>
        <time>2019-08-18T09:29:24Z</time>
      </trkpt>
      <trkpt lat="47.37893" lon="-2.37914">
        <ele>75</ele>
        <time>2019-08-18T09:29:25Z</time>
      </trkpt>
      <trkpt lat="47.37887" lon="-2.37918">
        <ele>74</ele>
        <time>2019-08-18T09:29:26Z</time>
      </trkpt>
      <trkpt lat="47.37881" lon="-2.37923">
        <ele>74</ele>
        <time>2019-08-18T09:29:27Z</time>
      </trkpt>
      <trkpt lat="47.37875" lon="-2.37928">
        <ele>74</ele>
        <time>2019-08-18T09:29:28Z</time>
      </trkpt>
      <trkpt lat="47.37869" lon="-2.37931">
        <ele>73</ele>
        <time>2019-08-18T09:29:29Z</time>
      </trkpt>
      <trkpt lat="47.37863" lon="-2.37935">
        <ele>73</ele>
        <time>2019-08-18T09:29:30Z</time>
      </trkpt>
      <trkpt lat="47.37858" lon="-2.37939">
        <ele>73</ele>
        <time>2019-08-18T09:29:31Z</time>
      </trkpt>
      <trkpt lat="47.37852" lon="-2.37943">
        <ele>72</ele>
        <time>2019-08-18T09:29:32Z</time>
      </trkpt>
      <trkpt lat="47.37846" lon="-2.37947">
        <ele>72</ele>
        <time>2019-08-18T09:29:33Z</time>
      </trkpt>
      <trkpt lat="47.37841" lon="-2.37951">
        <ele>71</ele>
        <time>2019-08-18T09:29:34Z</time>
      </trkpt>
      <trkpt lat="47.37835" lon="-2.37955">
        <ele>71</ele>
        <time>2019-08-18T09:29:35Z</time>
      </trkpt>
      <trkpt lat="47.37823" lon="-2.37963">
        <ele>70</ele>
        <time>2019-08-18T09:29:38Z</time>
      </trkpt>
      <trkpt lat="47.378" lon="-2.37979">
        <ele>70</ele>
        <time>2019-08-18T09:29:41Z</time>
      </trkpt>
      <trkpt lat="47.37794" lon="-2.37983">
        <ele>69</ele>
        <time>2019-08-18T09:29:42Z</time>
      </trkpt>
      <trkpt lat="47.37788" lon="-2.37988">
        <ele>69</ele>
        <time>2019-08-18T09:29:43Z</time>
      </trkpt>
      <trkpt lat="47.37782" lon="-2.37992">
        <ele>69</ele>
        <time>2019-08-18T09:29:44Z</time>
      </trkpt>
      <trkpt lat="47.37777" lon="-2.37996">
        <ele>68</ele>
        <time>2019-08-18T09:29:45Z</time>
      </trkpt>
      <trkpt lat="47.37753" lon="-2.38013">
        <ele>68</ele>
        <time>2019-08-18T09:29:49Z</time>
      </trkpt>
      <trkpt lat="47.37748" lon="-2.38017">
        <ele>68</ele>
        <time>2019-08-18T09:29:50Z</time>
      </trkpt>
      <trkpt lat="47.3773" lon="-2.38028">
        <ele>68</ele>
        <time>2019-08-18T09:29:53Z</time>
      </trkpt>
      <trkpt lat="47.37724" lon="-2.38032">
        <ele>68</ele>
        <time>2019-08-18T09:29:54Z</time>
      </trkpt>
      <trkpt lat="47.37716" lon="-2.3804">
        <ele>68</ele>
        <time>2019-08-18T09:29:56Z</time>
      </trkpt>
      <trkpt lat="47.37712" lon="-2.38046">
        <ele>69</ele>
        <time>2019-08-18T09:29:58Z</time>
      </trkpt>
      <trkpt lat="47.37711" lon="-2.38054">
        <ele>69</ele>
        <time>2019-08-18T09:30:01Z</time>
      </trkpt>
      <trkpt lat="47.37704" lon="-2.38054">
        <ele>69</ele>
        <time>2019-08-18T09:30:04Z</time>
      </trkpt>
      <trkpt lat="47.377" lon="-2.38054">
        <ele>69</ele>
        <time>2019-08-18T09:30:05Z</time>
      </trkpt>
      <trkpt lat="47.37695" lon="-2.38059">
        <ele>68</ele>
        <time>2019-08-18T09:30:06Z</time>
      </trkpt>
      <trkpt lat="47.3769" lon="-2.38065">
        <ele>67</ele>
        <time>2019-08-18T09:30:07Z</time>
      </trkpt>
      <trkpt lat="47.37681" lon="-2.38076">
        <ele>66</ele>
        <time>2019-08-18T09:30:09Z</time>
      </trkpt>
      <trkpt lat="47.3767" lon="-2.38087">
        <ele>65</ele>
        <time>2019-08-18T09:30:11Z</time>
      </trkpt>
      <trkpt lat="47.37665" lon="-2.38092">
        <ele>64</ele>
        <time>2019-08-18T09:30:12Z</time>
      </trkpt>
      <trkpt lat="47.37659" lon="-2.38097">
        <ele>64</ele>
        <time>2019-08-18T09:30:13Z</time>
      </trkpt>
      <trkpt lat="47.37653" lon="-2.38101">
        <ele>63</ele>
        <time>2019-08-18T09:30:14Z</time>
      </trkpt>
      <trkpt lat="47.37635" lon="-2.38114">
        <ele>62</ele>
        <time>2019-08-18T09:30:17Z</time>
      </trkpt>
      <trkpt lat="47.37629" lon="-2.38118">
        <ele>62</ele>
        <time>2019-08-18T09:30:18Z</time>
      </trkpt>
      <trkpt lat="47.37612" lon="-2.38128">
        <ele>63</ele>
        <time>2019-08-18T09:30:21Z</time>
      </trkpt>
      <trkpt lat="47.37606" lon="-2.3813">
        <ele>63</ele>
        <time>2019-08-18T09:30:22Z</time>
      </trkpt>
      <trkpt lat="47.37599" lon="-2.38134">
        <ele>63</ele>
        <time>2019-08-18T09:30:23Z</time>
      </trkpt>
      <trkpt lat="47.37593" lon="-2.38137">
        <ele>62</ele>
        <time>2019-08-18T09:30:24Z</time>
      </trkpt>
      <trkpt lat="47.37587" lon="-2.3814">
        <ele>62</ele>
        <time>2019-08-18T09:30:25Z</time>
      </trkpt>
      <trkpt lat="47.37576" lon="-2.38148">
        <ele>63</ele>
        <time>2019-08-18T09:30:27Z</time>
      </trkpt>
      <trkpt lat="47.37564" lon="-2.38154">
        <ele>63</ele>
        <time>2019-08-18T09:30:29Z</time>
      </trkpt>
      <trkpt lat="47.37558" lon="-2.38157">
        <ele>63</ele>
        <time>2019-08-18T09:30:30Z</time>
      </trkpt>
      <trkpt lat="47.37547" lon="-2.38164">
        <ele>63</ele>
        <time>2019-08-18T09:30:32Z</time>
      </trkpt>
      <trkpt lat="47.37541" lon="-2.38167">
        <ele>63</ele>
        <time>2019-08-18T09:30:33Z</time>
      </trkpt>
      <trkpt lat="47.37535" lon="-2.38171">
        <ele>63</ele>
        <time>2019-08-18T09:30:34Z</time>
      </trkpt>
      <trkpt lat="47.37528" lon="-2.38176">
        <ele>63</ele>
        <time>2019-08-18T09:30:35Z</time>
      </trkpt>
      <trkpt lat="47.37522" lon="-2.3818">
        <ele>63</ele>
        <time>2019-08-18T09:30:36Z</time>
      </trkpt>
      <trkpt lat="47.37516" lon="-2.38184">
        <ele>63</ele>
        <time>2019-08-18T09:30:37Z</time>
      </trkpt>
      <trkpt lat="47.3751" lon="-2.38187">
        <ele>63</ele>
        <time>2019-08-18T09:30:38Z</time>
      </trkpt>
      <trkpt lat="47.37505" lon="-2.38191">
        <ele>64</ele>
        <time>2019-08-18T09:30:39Z</time>
      </trkpt>
      <trkpt lat="47.37499" lon="-2.38195">
        <ele>64</ele>
        <time>2019-08-18T09:30:40Z</time>
      </trkpt>
      <trkpt lat="47.37482" lon="-2.38207">
        <ele>65</ele>
        <time>2019-08-18T09:30:43Z</time>
      </trkpt>
      <trkpt lat="47.37469" lon="-2.38213">
        <ele>65</ele>
        <time>2019-08-18T09:30:45Z</time>
      </trkpt>
      <trkpt lat="47.37462" lon="-2.38216">
        <ele>65</ele>
        <time>2019-08-18T09:30:46Z</time>
      </trkpt>
      <trkpt lat="47.37456" lon="-2.3822">
        <ele>64</ele>
        <time>2019-08-18T09:30:47Z</time>
      </trkpt>
      <trkpt lat="47.37451" lon="-2.38223">
        <ele>64</ele>
        <time>2019-08-18T09:30:48Z</time>
      </trkpt>
      <trkpt lat="47.37441" lon="-2.38231">
        <ele>64</ele>
        <time>2019-08-18T09:30:50Z</time>
      </trkpt>
      <trkpt lat="47.37436" lon="-2.38234">
        <ele>65</ele>
        <time>2019-08-18T09:30:51Z</time>
      </trkpt>
      <trkpt lat="47.37431" lon="-2.38237">
        <ele>64</ele>
        <time>2019-08-18T09:30:52Z</time>
      </trkpt>
      <trkpt lat="47.3742" lon="-2.38245">
        <ele>64</ele>
        <time>2019-08-18T09:30:54Z</time>
      </trkpt>
      <trkpt lat="47.37415" lon="-2.38249">
        <ele>64</ele>
        <time>2019-08-18T09:30:55Z</time>
      </trkpt>
      <trkpt lat="47.37399" lon="-2.38258">
        <ele>65</ele>
        <time>2019-08-18T09:30:58Z</time>
      </trkpt>
      <trkpt lat="47.37394" lon="-2.38261">
        <ele>64</ele>
        <time>2019-08-18T09:30:59Z</time>
      </trkpt>
      <trkpt lat="47.37384" lon="-2.38268">
        <ele>65</ele>
        <time>2019-08-18T09:31:01Z</time>
      </trkpt>
      <trkpt lat="47.37379" lon="-2.38271">
        <ele>65</ele>
        <time>2019-08-18T09:31:02Z</time>
      </trkpt>
      <trkpt lat="47.37373" lon="-2.38272">
        <ele>66</ele>
        <time>2019-08-18T09:31:03Z</time>
      </trkpt>
      <trkpt lat="47.37357" lon="-2.38282">
        <ele>67</ele>
        <time>2019-08-18T09:31:06Z</time>
      </trkpt>
      <trkpt lat="47.37352" lon="-2.38286">
        <ele>67</ele>
        <time>2019-08-18T09:31:07Z</time>
      </trkpt>
      <trkpt lat="47.37347" lon="-2.38289">
        <ele>67</ele>
        <time>2019-08-18T09:31:08Z</time>
      </trkpt>
      <trkpt lat="47.37342" lon="-2.38293">
        <ele>67</ele>
        <time>2019-08-18T09:31:09Z</time>
      </trkpt>
      <trkpt lat="47.37338" lon="-2.38295">
        <ele>67</ele>
        <time>2019-08-18T09:31:10Z</time>
      </trkpt>
      <trkpt lat="47.37332" lon="-2.38297">
        <ele>67</ele>
        <time>2019-08-18T09:31:11Z</time>
      </trkpt>
      <trkpt lat="47.37325" lon="-2.38298">
        <ele>67</ele>
        <time>2019-08-18T09:31:12Z</time>
      </trkpt>
      <trkpt lat="47.3732" lon="-2.38302">
        <ele>67</ele>
        <time>2019-08-18T09:31:13Z</time>
      </trkpt>
      <trkpt lat="47.37314" lon="-2.38305">
        <ele>67</ele>
        <time>2019-08-18T09:31:14Z</time>
      </trkpt>
      <trkpt lat="47.37309" lon="-2.38308">
        <ele>67</ele>
        <time>2019-08-18T09:31:15Z</time>
      </trkpt>
      <trkpt lat="47.37305" lon="-2.38313">
        <ele>68</ele>
        <time>2019-08-18T09:31:16Z</time>
      </trkpt>
      <trkpt lat="47.373" lon="-2.38316">
        <ele>68</ele>
        <time>2019-08-18T09:31:17Z</time>
      </trkpt>
      <trkpt lat="47.37295" lon="-2.3832">
        <ele>68</ele>
        <time>2019-08-18T09:31:18Z</time>
      </trkpt>
      <trkpt lat="47.37289" lon="-2.38323">
        <ele>67</ele>
        <time>2019-08-18T09:31:19Z</time>
      </trkpt>
      <trkpt lat="47.37266" lon="-2.38336">
        <ele>68</ele>
        <time>2019-08-18T09:31:23Z</time>
      </trkpt>
      <trkpt lat="47.37261" lon="-2.3834">
        <ele>67</ele>
        <time>2019-08-18T09:31:24Z</time>
      </trkpt>
      <trkpt lat="47.37256" lon="-2.38342">
        <ele>67</ele>
        <time>2019-08-18T09:31:25Z</time>
      </trkpt>
      <trkpt lat="47.37249" lon="-2.38346">
        <ele>67</ele>
        <time>2019-08-18T09:31:26Z</time>
      </trkpt>
      <trkpt lat="47.37228" lon="-2.38351">
        <ele>67</ele>
        <time>2019-08-18T09:31:29Z</time>
      </trkpt>
      <trkpt lat="47.37221" lon="-2.38351">
        <ele>66</ele>
        <time>2019-08-18T09:31:30Z</time>
      </trkpt>
      <trkpt lat="47.37207" lon="-2.38352">
        <ele>66</ele>
        <time>2019-08-18T09:31:32Z</time>
      </trkpt>
      <trkpt lat="47.37201" lon="-2.38351">
        <ele>66</ele>
        <time>2019-08-18T09:31:33Z</time>
      </trkpt>
      <trkpt lat="47.37194" lon="-2.38351">
        <ele>66</ele>
        <time>2019-08-18T09:31:34Z</time>
      </trkpt>
      <trkpt lat="47.37179" lon="-2.38353">
        <ele>66</ele>
        <time>2019-08-18T09:31:36Z</time>
      </trkpt>
      <trkpt lat="47.37168" lon="-2.38357">
        <ele>66</ele>
        <time>2019-08-18T09:31:38Z</time>
      </trkpt>
      <trkpt lat="47.3715" lon="-2.38364">
        <ele>67</ele>
        <time>2019-08-18T09:31:41Z</time>
      </trkpt>
      <trkpt lat="47.37145" lon="-2.38367">
        <ele>67</ele>
        <time>2019-08-18T09:31:42Z</time>
      </trkpt>
      <trkpt lat="47.37132" lon="-2.38373">
        <ele>67</ele>
        <time>2019-08-18T09:31:44Z</time>
      </trkpt>
      <trkpt lat="47.37126" lon="-2.38374">
        <ele>67</ele>
        <time>2019-08-18T09:31:45Z</time>
      </trkpt>
      <trkpt lat="47.37119" lon="-2.38378">
        <ele>67</ele>
        <time>2019-08-18T09:31:46Z</time>
      </trkpt>
      <trkpt lat="47.371" lon="-2.38391">
        <ele>67</ele>
        <time>2019-08-18T09:31:49Z</time>
      </trkpt>
      <trkpt lat="47.37093" lon="-2.38397">
        <ele>67</ele>
        <time>2019-08-18T09:31:50Z</time>
      </trkpt>
      <trkpt lat="47.37086" lon="-2.38403">
        <ele>66</ele>
        <time>2019-08-18T09:31:51Z</time>
      </trkpt>
      <trkpt lat="47.3708" lon="-2.3841">
        <ele>66</ele>
        <time>2019-08-18T09:31:52Z</time>
      </trkpt>
      <trkpt lat="47.37075" lon="-2.38416">
        <ele>66</ele>
        <time>2019-08-18T09:31:53Z</time>
      </trkpt>
      <trkpt lat="47.37071" lon="-2.38424">
        <ele>66</ele>
        <time>2019-08-18T09:31:54Z</time>
      </trkpt>
      <trkpt lat="47.37067" lon="-2.38431">
        <ele>66</ele>
        <time>2019-08-18T09:31:55Z</time>
      </trkpt>
      <trkpt lat="47.37064" lon="-2.38437">
        <ele>65</ele>
        <time>2019-08-18T09:31:56Z</time>
      </trkpt>
      <trkpt lat="47.37062" lon="-2.38445">
        <ele>65</ele>
        <time>2019-08-18T09:31:57Z</time>
      </trkpt>
      <trkpt lat="47.37062" lon="-2.38462">
        <ele>65</ele>
        <time>2019-08-18T09:32:00Z</time>
      </trkpt>
      <trkpt lat="47.37073" lon="-2.38471">
        <ele>64</ele>
        <time>2019-08-18T09:32:03Z</time>
      </trkpt>
      <trkpt lat="47.37076" lon="-2.38473">
        <ele>64</ele>
        <time>2019-08-18T09:32:04Z</time>
      </trkpt>
      <trkpt lat="47.37087" lon="-2.38482">
        <ele>64</ele>
        <time>2019-08-18T09:32:07Z</time>
      </trkpt>
      <trkpt lat="47.37094" lon="-2.38487">
        <ele>63</ele>
        <time>2019-08-18T09:32:09Z</time>
      </trkpt>
      <trkpt lat="47.37098" lon="-2.3849">
        <ele>63</ele>
        <time>2019-08-18T09:32:10Z</time>
      </trkpt>
      <trkpt lat="47.37102" lon="-2.38493">
        <ele>62</ele>
        <time>2019-08-18T09:32:11Z</time>
      </trkpt>
      <trkpt lat="47.37118" lon="-2.38505">
        <ele>61</ele>
        <time>2019-08-18T09:32:15Z</time>
      </trkpt>
      <trkpt lat="47.37122" lon="-2.38508">
        <ele>62</ele>
        <time>2019-08-18T09:32:16Z</time>
      </trkpt>
      <trkpt lat="47.37126" lon="-2.38511">
        <ele>62</ele>
        <time>2019-08-18T09:32:17Z</time>
      </trkpt>
      <trkpt lat="47.37134" lon="-2.38517">
        <ele>61</ele>
        <time>2019-08-18T09:32:19Z</time>
      </trkpt>
      <trkpt lat="47.37137" lon="-2.38521">
        <ele>61</ele>
        <time>2019-08-18T09:32:20Z</time>
      </trkpt>
      <trkpt lat="47.37141" lon="-2.38525">
        <ele>61</ele>
        <time>2019-08-18T09:32:21Z</time>
      </trkpt>
      <trkpt lat="47.37145" lon="-2.38531">
        <ele>61</ele>
        <time>2019-08-18T09:32:22Z</time>
      </trkpt>
      <trkpt lat="47.37149" lon="-2.38535">
        <ele>61</ele>
        <time>2019-08-18T09:32:23Z</time>
      </trkpt>
      <trkpt lat="47.37155" lon="-2.38545">
        <ele>61</ele>
        <time>2019-08-18T09:32:25Z</time>
      </trkpt>
      <trkpt lat="47.3716" lon="-2.38555">
        <ele>62</ele>
        <time>2019-08-18T09:32:27Z</time>
      </trkpt>
      <trkpt lat="47.37163" lon="-2.38561">
        <ele>61</ele>
        <time>2019-08-18T09:32:28Z</time>
      </trkpt>
      <trkpt lat="47.37167" lon="-2.38572">
        <ele>61</ele>
        <time>2019-08-18T09:32:30Z</time>
      </trkpt>
      <trkpt lat="47.37172" lon="-2.38582">
        <ele>61</ele>
        <time>2019-08-18T09:32:32Z</time>
      </trkpt>
      <trkpt lat="47.37174" lon="-2.38587">
        <ele>61</ele>
        <time>2019-08-18T09:32:33Z</time>
      </trkpt>
      <trkpt lat="47.37177" lon="-2.38592">
        <ele>61</ele>
        <time>2019-08-18T09:32:34Z</time>
      </trkpt>
      <trkpt lat="47.37179" lon="-2.38599">
        <ele>62</ele>
        <time>2019-08-18T09:32:35Z</time>
      </trkpt>
      <trkpt lat="47.37181" lon="-2.38605">
        <ele>62</ele>
        <time>2019-08-18T09:32:36Z</time>
      </trkpt>
      <trkpt lat="47.37184" lon="-2.38611">
        <ele>62</ele>
        <time>2019-08-18T09:32:37Z</time>
      </trkpt>
      <trkpt lat="47.37187" lon="-2.38618">
        <ele>62</ele>
        <time>2019-08-18T09:32:38Z</time>
      </trkpt>
      <trkpt lat="47.37189" lon="-2.38624">
        <ele>62</ele>
        <time>2019-08-18T09:32:39Z</time>
      </trkpt>
      <trkpt lat="47.37192" lon="-2.3863">
        <ele>62</ele>
        <time>2019-08-18T09:32:40Z</time>
      </trkpt>
      <trkpt lat="47.37195" lon="-2.38637">
        <ele>62</ele>
        <time>2019-08-18T09:32:41Z</time>
      </trkpt>
      <trkpt lat="47.37197" lon="-2.38643">
        <ele>62</ele>
        <time>2019-08-18T09:32:42Z</time>
      </trkpt>
      <trkpt lat="47.37199" lon="-2.3865">
        <ele>62</ele>
        <time>2019-08-18T09:32:43Z</time>
      </trkpt>
      <trkpt lat="47.37207" lon="-2.38671">
        <ele>61</ele>
        <time>2019-08-18T09:32:46Z</time>
      </trkpt>
      <trkpt lat="47.37212" lon="-2.38685">
        <ele>61</ele>
        <time>2019-08-18T09:32:48Z</time>
      </trkpt>
      <trkpt lat="47.37218" lon="-2.38698">
        <ele>61</ele>
        <time>2019-08-18T09:32:50Z</time>
      </trkpt>
      <trkpt lat="47.3722" lon="-2.38706">
        <ele>61</ele>
        <time>2019-08-18T09:32:51Z</time>
      </trkpt>
      <trkpt lat="47.37223" lon="-2.38712">
        <ele>61</ele>
        <time>2019-08-18T09:32:52Z</time>
      </trkpt>
      <trkpt lat="47.37225" lon="-2.38719">
        <ele>61</ele>
        <time>2019-08-18T09:32:53Z</time>
      </trkpt>
      <trkpt lat="47.37228" lon="-2.38726">
        <ele>61</ele>
        <time>2019-08-18T09:32:54Z</time>
      </trkpt>
      <trkpt lat="47.37236" lon="-2.38744">
        <ele>61</ele>
        <time>2019-08-18T09:32:56Z</time>
      </trkpt>
      <trkpt lat="47.37239" lon="-2.3875">
        <ele>61</ele>
        <time>2019-08-18T09:32:57Z</time>
      </trkpt>
      <trkpt lat="47.37241" lon="-2.38757">
        <ele>61</ele>
        <time>2019-08-18T09:32:58Z</time>
      </trkpt>
      <trkpt lat="47.37244" lon="-2.38763">
        <ele>60</ele>
        <time>2019-08-18T09:32:59Z</time>
      </trkpt>
      <trkpt lat="47.37246" lon="-2.38769">
        <ele>60</ele>
        <time>2019-08-18T09:33:00Z</time>
      </trkpt>
      <trkpt lat="47.37249" lon="-2.38776">
        <ele>60</ele>
        <time>2019-08-18T09:33:01Z</time>
      </trkpt>
      <trkpt lat="47.37251" lon="-2.38782">
        <ele>61</ele>
        <time>2019-08-18T09:33:02Z</time>
      </trkpt>
      <trkpt lat="47.37254" lon="-2.3879">
        <ele>60</ele>
        <time>2019-08-18T09:33:03Z</time>
      </trkpt>
      <trkpt lat="47.37256" lon="-2.38796">
        <ele>61</ele>
        <time>2019-08-18T09:33:04Z</time>
      </trkpt>
      <trkpt lat="47.37259" lon="-2.38802">
        <ele>60</ele>
        <time>2019-08-18T09:33:05Z</time>
      </trkpt>
      <trkpt lat="47.37261" lon="-2.38809">
        <ele>60</ele>
        <time>2019-08-18T09:33:06Z</time>
      </trkpt>
      <trkpt lat="47.37263" lon="-2.38815">
        <ele>61</ele>
        <time>2019-08-18T09:33:07Z</time>
      </trkpt>
      <trkpt lat="47.37265" lon="-2.38822">
        <ele>60</ele>
        <time>2019-08-18T09:33:08Z</time>
      </trkpt>
      <trkpt lat="47.37269" lon="-2.38836">
        <ele>61</ele>
        <time>2019-08-18T09:33:10Z</time>
      </trkpt>
      <trkpt lat="47.37272" lon="-2.38844">
        <ele>62</ele>
        <time>2019-08-18T09:33:11Z</time>
      </trkpt>
      <trkpt lat="47.37274" lon="-2.38852">
        <ele>62</ele>
        <time>2019-08-18T09:33:12Z</time>
      </trkpt>
      <trkpt lat="47.37276" lon="-2.38859">
        <ele>62</ele>
        <time>2019-08-18T09:33:13Z</time>
      </trkpt>
      <trkpt lat="47.37277" lon="-2.38867">
        <ele>62</ele>
        <time>2019-08-18T09:33:14Z</time>
      </trkpt>
      <trkpt lat="47.3728" lon="-2.38874">
        <ele>61</ele>
        <time>2019-08-18T09:33:15Z</time>
      </trkpt>
      <trkpt lat="47.37282" lon="-2.38882">
        <ele>62</ele>
        <time>2019-08-18T09:33:16Z</time>
      </trkpt>
      <trkpt lat="47.37284" lon="-2.3889">
        <ele>62</ele>
        <time>2019-08-18T09:33:17Z</time>
      </trkpt>
      <trkpt lat="47.37287" lon="-2.38899">
        <ele>62</ele>
        <time>2019-08-18T09:33:18Z</time>
      </trkpt>
      <trkpt lat="47.37289" lon="-2.38907">
        <ele>62</ele>
        <time>2019-08-18T09:33:19Z</time>
      </trkpt>
      <trkpt lat="47.37292" lon="-2.38915">
        <ele>62</ele>
        <time>2019-08-18T09:33:20Z</time>
      </trkpt>
      <trkpt lat="47.37294" lon="-2.38923">
        <ele>62</ele>
        <time>2019-08-18T09:33:21Z</time>
      </trkpt>
      <trkpt lat="47.37296" lon="-2.38931">
        <ele>62</ele>
        <time>2019-08-18T09:33:23Z</time>
      </trkpt>
      <trkpt lat="47.37301" lon="-2.38956">
        <ele>62</ele>
        <time>2019-08-18T09:33:25Z</time>
      </trkpt>
      <trkpt lat="47.37303" lon="-2.38966">
        <ele>62</ele>
        <time>2019-08-18T09:33:26Z</time>
      </trkpt>
      <trkpt lat="47.37304" lon="-2.38975">
        <ele>63</ele>
        <time>2019-08-18T09:33:27Z</time>
      </trkpt>
      <trkpt lat="47.37306" lon="-2.38993">
        <ele>63</ele>
        <time>2019-08-18T09:33:29Z</time>
      </trkpt>
      <trkpt lat="47.37307" lon="-2.39003">
        <ele>62</ele>
        <time>2019-08-18T09:33:30Z</time>
      </trkpt>
      <trkpt lat="47.37309" lon="-2.39021">
        <ele>62</ele>
        <time>2019-08-18T09:33:32Z</time>
      </trkpt>
      <trkpt lat="47.3731" lon="-2.3903">
        <ele>63</ele>
        <time>2019-08-18T09:33:33Z</time>
      </trkpt>
      <trkpt lat="47.37311" lon="-2.39046">
        <ele>63</ele>
        <time>2019-08-18T09:33:35Z</time>
      </trkpt>
      <trkpt lat="47.37312" lon="-2.39054">
        <ele>63</ele>
        <time>2019-08-18T09:33:36Z</time>
      </trkpt>
      <trkpt lat="47.37313" lon="-2.39062">
        <ele>63</ele>
        <time>2019-08-18T09:33:37Z</time>
      </trkpt>
      <trkpt lat="47.37313" lon="-2.39077">
        <ele>64</ele>
        <time>2019-08-18T09:33:39Z</time>
      </trkpt>
      <trkpt lat="47.37313" lon="-2.39083">
        <ele>64</ele>
        <time>2019-08-18T09:33:40Z</time>
      </trkpt>
      <trkpt lat="47.37314" lon="-2.3909">
        <ele>64</ele>
        <time>2019-08-18T09:33:41Z</time>
      </trkpt>
      <trkpt lat="47.37314" lon="-2.39097">
        <ele>65</ele>
        <time>2019-08-18T09:33:42Z</time>
      </trkpt>
      <trkpt lat="47.37315" lon="-2.39104">
        <ele>65</ele>
        <time>2019-08-18T09:33:43Z</time>
      </trkpt>
      <trkpt lat="47.37316" lon="-2.39111">
        <ele>65</ele>
        <time>2019-08-18T09:33:44Z</time>
      </trkpt>
      <trkpt lat="47.37316" lon="-2.39118">
        <ele>65</ele>
        <time>2019-08-18T09:33:45Z</time>
      </trkpt>
      <trkpt lat="47.37316" lon="-2.39123">
        <ele>66</ele>
        <time>2019-08-18T09:33:46Z</time>
      </trkpt>
      <trkpt lat="47.37317" lon="-2.39136">
        <ele>66</ele>
        <time>2019-08-18T09:33:49Z</time>
      </trkpt>
      <trkpt lat="47.37309" lon="-2.3916">
        <ele>67</ele>
        <time>2019-08-18T09:33:52Z</time>
      </trkpt>
      <trkpt lat="47.37304" lon="-2.39166">
        <ele>67</ele>
        <time>2019-08-18T09:33:53Z</time>
      </trkpt>
      <trkpt lat="47.37298" lon="-2.39171">
        <ele>67</ele>
        <time>2019-08-18T09:33:55Z</time>
      </trkpt>
      <trkpt lat="47.37293" lon="-2.39177">
        <ele>66</ele>
        <time>2019-08-18T09:33:56Z</time>
      </trkpt>
      <trkpt lat="47.37283" lon="-2.39187">
        <ele>66</ele>
        <time>2019-08-18T09:33:57Z</time>
      </trkpt>
      <trkpt lat="47.37269" lon="-2.39203">
        <ele>67</ele>
        <time>2019-08-18T09:34:01Z</time>
      </trkpt>
      <trkpt lat="47.37253" lon="-2.39219">
        <ele>67</ele>
        <time>2019-08-18T09:34:04Z</time>
      </trkpt>
      <trkpt lat="47.37248" lon="-2.39225">
        <ele>68</ele>
        <time>2019-08-18T09:34:05Z</time>
      </trkpt>
      <trkpt lat="47.37242" lon="-2.3923">
        <ele>68</ele>
        <time>2019-08-18T09:34:06Z</time>
      </trkpt>
      <trkpt lat="47.37225" lon="-2.39245">
        <ele>68</ele>
        <time>2019-08-18T09:34:08Z</time>
      </trkpt>
      <trkpt lat="47.3722" lon="-2.3925">
        <ele>68</ele>
        <time>2019-08-18T09:34:09Z</time>
      </trkpt>
      <trkpt lat="47.37215" lon="-2.39254">
        <ele>69</ele>
        <time>2019-08-18T09:34:11Z</time>
      </trkpt>
      <trkpt lat="47.37206" lon="-2.39262">
        <ele>69</ele>
        <time>2019-08-18T09:34:13Z</time>
      </trkpt>
      <trkpt lat="47.37201" lon="-2.39267">
        <ele>69</ele>
        <time>2019-08-18T09:34:14Z</time>
      </trkpt>
      <trkpt lat="47.37183" lon="-2.39281">
        <ele>68</ele>
        <time>2019-08-18T09:34:16Z</time>
      </trkpt>
      <trkpt lat="47.37178" lon="-2.39287">
        <ele>69</ele>
        <time>2019-08-18T09:34:17Z</time>
      </trkpt>
      <trkpt lat="47.37169" lon="-2.39297">
        <ele>68</ele>
        <time>2019-08-18T09:34:19Z</time>
      </trkpt>
      <trkpt lat="47.37164" lon="-2.39301">
        <ele>68</ele>
        <time>2019-08-18T09:34:20Z</time>
      </trkpt>
      <trkpt lat="47.37159" lon="-2.39305">
        <ele>69</ele>
        <time>2019-08-18T09:34:21Z</time>
      </trkpt>
      <trkpt lat="47.37154" lon="-2.39309">
        <ele>69</ele>
        <time>2019-08-18T09:34:22Z</time>
      </trkpt>
      <trkpt lat="47.3715" lon="-2.39313">
        <ele>69</ele>
        <time>2019-08-18T09:34:23Z</time>
      </trkpt>
      <trkpt lat="47.37141" lon="-2.3932">
        <ele>69</ele>
        <time>2019-08-18T09:34:25Z</time>
      </trkpt>
      <trkpt lat="47.37137" lon="-2.39323">
        <ele>69</ele>
        <time>2019-08-18T09:34:26Z</time>
      </trkpt>
      <trkpt lat="47.37133" lon="-2.39327">
        <ele>69</ele>
        <time>2019-08-18T09:34:27Z</time>
      </trkpt>
      <trkpt lat="47.37129" lon="-2.39331">
        <ele>69</ele>
        <time>2019-08-18T09:34:28Z</time>
      </trkpt>
      <trkpt lat="47.37125" lon="-2.39335">
        <ele>68</ele>
        <time>2019-08-18T09:34:29Z</time>
      </trkpt>
      <trkpt lat="47.37121" lon="-2.39338">
        <ele>68</ele>
        <time>2019-08-18T09:34:30Z</time>
      </trkpt>
      <trkpt lat="47.37116" lon="-2.39343">
        <ele>68</ele>
        <time>2019-08-18T09:34:31Z</time>
      </trkpt>
      <trkpt lat="47.37112" lon="-2.39347">
        <ele>68</ele>
        <time>2019-08-18T09:34:32Z</time>
      </trkpt>
      <trkpt lat="47.37107" lon="-2.39351">
        <ele>68</ele>
        <time>2019-08-18T09:34:33Z</time>
      </trkpt>
      <trkpt lat="47.37098" lon="-2.3936">
        <ele>67</ele>
        <time>2019-08-18T09:34:35Z</time>
      </trkpt>
      <trkpt lat="47.37093" lon="-2.39364">
        <ele>67</ele>
        <time>2019-08-18T09:34:36Z</time>
      </trkpt>
      <trkpt lat="47.37088" lon="-2.39369">
        <ele>67</ele>
        <time>2019-08-18T09:34:37Z</time>
      </trkpt>
      <trkpt lat="47.37072" lon="-2.39383">
        <ele>67</ele>
        <time>2019-08-18T09:34:40Z</time>
      </trkpt>
      <trkpt lat="47.37067" lon="-2.39388">
        <ele>67</ele>
        <time>2019-08-18T09:34:41Z</time>
      </trkpt>
      <trkpt lat="47.37054" lon="-2.39403">
        <ele>67</ele>
        <time>2019-08-18T09:34:44Z</time>
      </trkpt>
      <trkpt lat="47.37049" lon="-2.39409">
        <ele>67</ele>
        <time>2019-08-18T09:34:45Z</time>
      </trkpt>
      <trkpt lat="47.37045" lon="-2.39414">
        <ele>67</ele>
        <time>2019-08-18T09:34:46Z</time>
      </trkpt>
      <trkpt lat="47.3704" lon="-2.39419">
        <ele>67</ele>
        <time>2019-08-18T09:34:47Z</time>
      </trkpt>
      <trkpt lat="47.37035" lon="-2.39424">
        <ele>67</ele>
        <time>2019-08-18T09:34:48Z</time>
      </trkpt>
      <trkpt lat="47.37031" lon="-2.39429">
        <ele>67</ele>
        <time>2019-08-18T09:34:49Z</time>
      </trkpt>
      <trkpt lat="47.37026" lon="-2.39434">
        <ele>67</ele>
        <time>2019-08-18T09:34:50Z</time>
      </trkpt>
      <trkpt lat="47.37022" lon="-2.3944">
        <ele>67</ele>
        <time>2019-08-18T09:34:51Z</time>
      </trkpt>
      <trkpt lat="47.37017" lon="-2.39445">
        <ele>67</ele>
        <time>2019-08-18T09:34:52Z</time>
      </trkpt>
      <trkpt lat="47.37013" lon="-2.39449">
        <ele>67</ele>
        <time>2019-08-18T09:34:53Z</time>
      </trkpt>
      <trkpt lat="47.37008" lon="-2.39453">
        <ele>67</ele>
        <time>2019-08-18T09:34:54Z</time>
      </trkpt>
      <trkpt lat="47.37004" lon="-2.39457">
        <ele>67</ele>
        <time>2019-08-18T09:34:55Z</time>
      </trkpt>
      <trkpt lat="47.36999" lon="-2.39462">
        <ele>67</ele>
        <time>2019-08-18T09:34:56Z</time>
      </trkpt>
      <trkpt lat="47.36984" lon="-2.39475">
        <ele>67</ele>
        <time>2019-08-18T09:34:59Z</time>
      </trkpt>
      <trkpt lat="47.3698" lon="-2.39479">
        <ele>67</ele>
        <time>2019-08-18T09:35:00Z</time>
      </trkpt>
      <trkpt lat="47.36975" lon="-2.39482">
        <ele>66</ele>
        <time>2019-08-18T09:35:01Z</time>
      </trkpt>
      <trkpt lat="47.36971" lon="-2.39485">
        <ele>66</ele>
        <time>2019-08-18T09:35:02Z</time>
      </trkpt>
      <trkpt lat="47.36967" lon="-2.39487">
        <ele>66</ele>
        <time>2019-08-18T09:35:03Z</time>
      </trkpt>
      <trkpt lat="47.36962" lon="-2.39492">
        <ele>66</ele>
        <time>2019-08-18T09:35:04Z</time>
      </trkpt>
      <trkpt lat="47.36958" lon="-2.39497">
        <ele>66</ele>
        <time>2019-08-18T09:35:05Z</time>
      </trkpt>
      <trkpt lat="47.36953" lon="-2.39501">
        <ele>66</ele>
        <time>2019-08-18T09:35:06Z</time>
      </trkpt>
      <trkpt lat="47.36948" lon="-2.39506">
        <ele>66</ele>
        <time>2019-08-18T09:35:07Z</time>
      </trkpt>
      <trkpt lat="47.36943" lon="-2.39511">
        <ele>66</ele>
        <time>2019-08-18T09:35:08Z</time>
      </trkpt>
      <trkpt lat="47.36934" lon="-2.39523">
        <ele>67</ele>
        <time>2019-08-18T09:35:10Z</time>
      </trkpt>
      <trkpt lat="47.36929" lon="-2.3953">
        <ele>67</ele>
        <time>2019-08-18T09:35:11Z</time>
      </trkpt>
      <trkpt lat="47.36924" lon="-2.39536">
        <ele>66</ele>
        <time>2019-08-18T09:35:12Z</time>
      </trkpt>
      <trkpt lat="47.36919" lon="-2.39542">
        <ele>66</ele>
        <time>2019-08-18T09:35:13Z</time>
      </trkpt>
      <trkpt lat="47.36908" lon="-2.39561">
        <ele>67</ele>
        <time>2019-08-18T09:35:16Z</time>
      </trkpt>
      <trkpt lat="47.36903" lon="-2.39568">
        <ele>66</ele>
        <time>2019-08-18T09:35:17Z</time>
      </trkpt>
      <trkpt lat="47.36898" lon="-2.39573">
        <ele>67</ele>
        <time>2019-08-18T09:35:18Z</time>
      </trkpt>
      <trkpt lat="47.36893" lon="-2.39578">
        <ele>66</ele>
        <time>2019-08-18T09:35:19Z</time>
      </trkpt>
      <trkpt lat="47.36888" lon="-2.39584">
        <ele>66</ele>
        <time>2019-08-18T09:35:20Z</time>
      </trkpt>
      <trkpt lat="47.36873" lon="-2.39603">
        <ele>66</ele>
        <time>2019-08-18T09:35:23Z</time>
      </trkpt>
      <trkpt lat="47.36863" lon="-2.39616">
        <ele>66</ele>
        <time>2019-08-18T09:35:25Z</time>
      </trkpt>
      <trkpt lat="47.36857" lon="-2.39622">
        <ele>66</ele>
        <time>2019-08-18T09:35:26Z</time>
      </trkpt>
      <trkpt lat="47.36851" lon="-2.39626">
        <ele>66</ele>
        <time>2019-08-18T09:35:27Z</time>
      </trkpt>
      <trkpt lat="47.36845" lon="-2.39631">
        <ele>66</ele>
        <time>2019-08-18T09:35:28Z</time>
      </trkpt>
      <trkpt lat="47.36839" lon="-2.39637">
        <ele>65</ele>
        <time>2019-08-18T09:35:29Z</time>
      </trkpt>
      <trkpt lat="47.36834" lon="-2.39642">
        <ele>66</ele>
        <time>2019-08-18T09:35:30Z</time>
      </trkpt>
      <trkpt lat="47.36829" lon="-2.39648">
        <ele>66</ele>
        <time>2019-08-18T09:35:31Z</time>
      </trkpt>
      <trkpt lat="47.36824" lon="-2.39652">
        <ele>66</ele>
        <time>2019-08-18T09:35:32Z</time>
      </trkpt>
      <trkpt lat="47.36813" lon="-2.39656">
        <ele>66</ele>
        <time>2019-08-18T09:35:34Z</time>
      </trkpt>
      <trkpt lat="47.36807" lon="-2.39658">
        <ele>66</ele>
        <time>2019-08-18T09:35:35Z</time>
      </trkpt>
      <trkpt lat="47.36801" lon="-2.3966">
        <ele>66</ele>
        <time>2019-08-18T09:35:36Z</time>
      </trkpt>
      <trkpt lat="47.36796" lon="-2.39664">
        <ele>66</ele>
        <time>2019-08-18T09:35:37Z</time>
      </trkpt>
      <trkpt lat="47.36791" lon="-2.39668">
        <ele>65</ele>
        <time>2019-08-18T09:35:38Z</time>
      </trkpt>
      <trkpt lat="47.36786" lon="-2.39671">
        <ele>65</ele>
        <time>2019-08-18T09:35:39Z</time>
      </trkpt>
      <trkpt lat="47.3678" lon="-2.39673">
        <ele>65</ele>
        <time>2019-08-18T09:35:40Z</time>
      </trkpt>
      <trkpt lat="47.36774" lon="-2.39675">
        <ele>66</ele>
        <time>2019-08-18T09:35:41Z</time>
      </trkpt>
      <trkpt lat="47.36769" lon="-2.39675">
        <ele>65</ele>
        <time>2019-08-18T09:35:42Z</time>
      </trkpt>
      <trkpt lat="47.36764" lon="-2.39676">
        <ele>65</ele>
        <time>2019-08-18T09:35:43Z</time>
      </trkpt>
      <trkpt lat="47.36758" lon="-2.39676">
        <ele>65</ele>
        <time>2019-08-18T09:35:44Z</time>
      </trkpt>
      <trkpt lat="47.36746" lon="-2.39674">
        <ele>64</ele>
        <time>2019-08-18T09:35:46Z</time>
      </trkpt>
      <trkpt lat="47.36741" lon="-2.39673">
        <ele>64</ele>
        <time>2019-08-18T09:35:47Z</time>
      </trkpt>
      <trkpt lat="47.36735" lon="-2.39673">
        <ele>63</ele>
        <time>2019-08-18T09:35:48Z</time>
      </trkpt>
      <trkpt lat="47.36729" lon="-2.39672">
        <ele>63</ele>
        <time>2019-08-18T09:35:49Z</time>
      </trkpt>
      <trkpt lat="47.36718" lon="-2.39671">
        <ele>63</ele>
        <time>2019-08-18T09:35:52Z</time>
      </trkpt>
      <trkpt lat="47.36699" lon="-2.39663">
        <ele>63</ele>
        <time>2019-08-18T09:35:55Z</time>
      </trkpt>
      <trkpt lat="47.36694" lon="-2.39659">
        <ele>64</ele>
        <time>2019-08-18T09:35:56Z</time>
      </trkpt>
      <trkpt lat="47.36685" lon="-2.39651">
        <ele>64</ele>
        <time>2019-08-18T09:35:58Z</time>
      </trkpt>
      <trkpt lat="47.36673" lon="-2.39638">
        <ele>65</ele>
        <time>2019-08-18T09:36:01Z</time>
      </trkpt>
      <trkpt lat="47.36666" lon="-2.3963">
        <ele>65</ele>
        <time>2019-08-18T09:36:02Z</time>
      </trkpt>
      <trkpt lat="47.3666" lon="-2.39624">
        <ele>65</ele>
        <time>2019-08-18T09:36:03Z</time>
      </trkpt>
      <trkpt lat="47.36655" lon="-2.39619">
        <ele>64</ele>
        <time>2019-08-18T09:36:04Z</time>
      </trkpt>
      <trkpt lat="47.3665" lon="-2.39616">
        <ele>64</ele>
        <time>2019-08-18T09:36:05Z</time>
      </trkpt>
      <trkpt lat="47.36644" lon="-2.39615">
        <ele>64</ele>
        <time>2019-08-18T09:36:06Z</time>
      </trkpt>
      <trkpt lat="47.36638" lon="-2.39614">
        <ele>64</ele>
        <time>2019-08-18T09:36:07Z</time>
      </trkpt>
      <trkpt lat="47.36633" lon="-2.39613">
        <ele>64</ele>
        <time>2019-08-18T09:36:08Z</time>
      </trkpt>
      <trkpt lat="47.36628" lon="-2.39612">
        <ele>64</ele>
        <time>2019-08-18T09:36:09Z</time>
      </trkpt>
      <trkpt lat="47.36622" lon="-2.3961">
        <ele>64</ele>
        <time>2019-08-18T09:36:10Z</time>
      </trkpt>
      <trkpt lat="47.36606" lon="-2.39604">
        <ele>64</ele>
        <time>2019-08-18T09:36:12Z</time>
      </trkpt>
      <trkpt lat="47.36601" lon="-2.39603">
        <ele>64</ele>
        <time>2019-08-18T09:36:14Z</time>
      </trkpt>
      <trkpt lat="47.3659" lon="-2.39602">
        <ele>63</ele>
        <time>2019-08-18T09:36:15Z</time>
      </trkpt>
      <trkpt lat="47.36583" lon="-2.39601">
        <ele>63</ele>
        <time>2019-08-18T09:36:16Z</time>
      </trkpt>
      <trkpt lat="47.36578" lon="-2.39601">
        <ele>63</ele>
        <time>2019-08-18T09:36:17Z</time>
      </trkpt>
      <trkpt lat="47.36573" lon="-2.39601">
        <ele>63</ele>
        <time>2019-08-18T09:36:18Z</time>
      </trkpt>
      <trkpt lat="47.36567" lon="-2.396">
        <ele>63</ele>
        <time>2019-08-18T09:36:19Z</time>
      </trkpt>
      <trkpt lat="47.36562" lon="-2.396">
        <ele>63</ele>
        <time>2019-08-18T09:36:20Z</time>
      </trkpt>
      <trkpt lat="47.36538" lon="-2.39594">
        <ele>65</ele>
        <time>2019-08-18T09:36:25Z</time>
      </trkpt>
      <trkpt lat="47.36531" lon="-2.39597">
        <ele>69</ele>
        <time>2019-08-18T09:36:27Z</time>
      </trkpt>
      <trkpt lat="47.36524" lon="-2.39604">
        <ele>71</ele>
        <time>2019-08-18T09:36:28Z</time>
      </trkpt>
      <trkpt lat="47.36513" lon="-2.39617">
        <ele>70</ele>
        <time>2019-08-18T09:36:30Z</time>
      </trkpt>
      <trkpt lat="47.36506" lon="-2.39625">
        <ele>68</ele>
        <time>2019-08-18T09:36:31Z</time>
      </trkpt>
      <trkpt lat="47.36499" lon="-2.39631">
        <ele>67</ele>
        <time>2019-08-18T09:36:32Z</time>
      </trkpt>
      <trkpt lat="47.36492" lon="-2.39635">
        <ele>67</ele>
        <time>2019-08-18T09:36:33Z</time>
      </trkpt>
      <trkpt lat="47.36487" lon="-2.39638">
        <ele>67</ele>
        <time>2019-08-18T09:36:34Z</time>
      </trkpt>
      <trkpt lat="47.36481" lon="-2.39641">
        <ele>67</ele>
        <time>2019-08-18T09:36:35Z</time>
      </trkpt>
      <trkpt lat="47.36469" lon="-2.39644">
        <ele>67</ele>
        <time>2019-08-18T09:36:37Z</time>
      </trkpt>
      <trkpt lat="47.36463" lon="-2.39645">
        <ele>67</ele>
        <time>2019-08-18T09:36:39Z</time>
      </trkpt>
      <trkpt lat="47.36456" lon="-2.39655">
        <ele>68</ele>
        <time>2019-08-18T09:36:40Z</time>
      </trkpt>
      <trkpt lat="47.36453" lon="-2.39662">
        <ele>67</ele>
        <time>2019-08-18T09:36:41Z</time>
      </trkpt>
      <trkpt lat="47.36458" lon="-2.39684">
        <ele>65</ele>
        <time>2019-08-18T09:36:44Z</time>
      </trkpt>
      <trkpt lat="47.3646" lon="-2.39692">
        <ele>65</ele>
        <time>2019-08-18T09:36:45Z</time>
      </trkpt>
      <trkpt lat="47.36462" lon="-2.397">
        <ele>65</ele>
        <time>2019-08-18T09:36:46Z</time>
      </trkpt>
      <trkpt lat="47.36464" lon="-2.39708">
        <ele>65</ele>
        <time>2019-08-18T09:36:47Z</time>
      </trkpt>
      <trkpt lat="47.36466" lon="-2.39716">
        <ele>65</ele>
        <time>2019-08-18T09:36:48Z</time>
      </trkpt>
      <trkpt lat="47.36469" lon="-2.39724">
        <ele>65</ele>
        <time>2019-08-18T09:36:49Z</time>
      </trkpt>
      <trkpt lat="47.36472" lon="-2.39732">
        <ele>65</ele>
        <time>2019-08-18T09:36:50Z</time>
      </trkpt>
      <trkpt lat="47.36474" lon="-2.3974">
        <ele>65</ele>
        <time>2019-08-18T09:36:51Z</time>
      </trkpt>
      <trkpt lat="47.36478" lon="-2.39748">
        <ele>65</ele>
        <time>2019-08-18T09:36:52Z</time>
      </trkpt>
      <trkpt lat="47.36481" lon="-2.39756">
        <ele>65</ele>
        <time>2019-08-18T09:36:53Z</time>
      </trkpt>
      <trkpt lat="47.365" lon="-2.39773">
        <ele>64</ele>
        <time>2019-08-18T09:36:57Z</time>
      </trkpt>
      <trkpt lat="47.36506" lon="-2.39775">
        <ele>64</ele>
        <time>2019-08-18T09:36:58Z</time>
      </trkpt>
      <trkpt lat="47.36515" lon="-2.39782">
        <ele>64</ele>
        <time>2019-08-18T09:37:00Z</time>
      </trkpt>
      <trkpt lat="47.36525" lon="-2.39804">
        <ele>64</ele>
        <time>2019-08-18T09:37:03Z</time>
      </trkpt>
      <trkpt lat="47.36527" lon="-2.39811">
        <ele>64</ele>
        <time>2019-08-18T09:37:04Z</time>
      </trkpt>
      <trkpt lat="47.36529" lon="-2.39818">
        <ele>65</ele>
        <time>2019-08-18T09:37:05Z</time>
      </trkpt>
      <trkpt lat="47.36535" lon="-2.3983">
        <ele>65</ele>
        <time>2019-08-18T09:37:07Z</time>
      </trkpt>
      <trkpt lat="47.36539" lon="-2.39836">
        <ele>65</ele>
        <time>2019-08-18T09:37:08Z</time>
      </trkpt>
      <trkpt lat="47.36542" lon="-2.39842">
        <ele>65</ele>
        <time>2019-08-18T09:37:09Z</time>
      </trkpt>
      <trkpt lat="47.36547" lon="-2.39848">
        <ele>65</ele>
        <time>2019-08-18T09:37:10Z</time>
      </trkpt>
      <trkpt lat="47.36555" lon="-2.39858">
        <ele>65</ele>
        <time>2019-08-18T09:37:12Z</time>
      </trkpt>
      <trkpt lat="47.3656" lon="-2.39861">
        <ele>65</ele>
        <time>2019-08-18T09:37:13Z</time>
      </trkpt>
      <trkpt lat="47.36572" lon="-2.39872">
        <ele>65</ele>
        <time>2019-08-18T09:37:16Z</time>
      </trkpt>
      <trkpt lat="47.36576" lon="-2.39877">
        <ele>65</ele>
        <time>2019-08-18T09:37:17Z</time>
      </trkpt>
      <trkpt lat="47.36579" lon="-2.39881">
        <ele>64</ele>
        <time>2019-08-18T09:37:18Z</time>
      </trkpt>
      <trkpt lat="47.3659" lon="-2.39897">
        <ele>64</ele>
        <time>2019-08-18T09:37:21Z</time>
      </trkpt>
      <trkpt lat="47.36592" lon="-2.39904">
        <ele>65</ele>
        <time>2019-08-18T09:37:22Z</time>
      </trkpt>
      <trkpt lat="47.36591" lon="-2.39915">
        <ele>65</ele>
        <time>2019-08-18T09:37:24Z</time>
      </trkpt>
      <trkpt lat="47.36583" lon="-2.3993">
        <ele>64</ele>
        <time>2019-08-18T09:37:27Z</time>
      </trkpt>
      <trkpt lat="47.36579" lon="-2.39936">
        <ele>65</ele>
        <time>2019-08-18T09:37:28Z</time>
      </trkpt>
      <trkpt lat="47.36576" lon="-2.39942">
        <ele>65</ele>
        <time>2019-08-18T09:37:29Z</time>
      </trkpt>
      <trkpt lat="47.36568" lon="-2.39955">
        <ele>65</ele>
        <time>2019-08-18T09:37:32Z</time>
      </trkpt>
      <trkpt lat="47.36565" lon="-2.3996">
        <ele>66</ele>
        <time>2019-08-18T09:37:33Z</time>
      </trkpt>
      <trkpt lat="47.36557" lon="-2.39973">
        <ele>67</ele>
        <time>2019-08-18T09:37:37Z</time>
      </trkpt>
      <trkpt lat="47.36541" lon="-2.39986">
        <ele>71</ele>
        <time>2019-08-18T09:37:41Z</time>
      </trkpt>
      <trkpt lat="47.36509" lon="-2.40009">
        <ele>77</ele>
        <time>2019-08-18T09:37:45Z</time>
      </trkpt>
      <trkpt lat="47.36498" lon="-2.40018">
        <ele>78</ele>
        <time>2019-08-18T09:37:47Z</time>
      </trkpt>
      <trkpt lat="47.3648" lon="-2.40014">
        <ele>83</ele>
        <time>2019-08-18T09:37:51Z</time>
      </trkpt>
      <trkpt lat="47.36475" lon="-2.40018">
        <ele>90</ele>
        <time>2019-08-18T09:37:53Z</time>
      </trkpt>
      <trkpt lat="47.3646" lon="-2.40042">
        <ele>93</ele>
        <time>2019-08-18T09:37:57Z</time>
      </trkpt>
      <trkpt lat="47.36449" lon="-2.40036">
        <ele>119</ele>
        <time>2019-08-18T09:38:01Z</time>
      </trkpt>
      <trkpt lat="47.36397" lon="-2.40061">
        <ele>108</ele>
        <time>2019-08-18T09:38:06Z</time>
      </trkpt>
      <trkpt lat="47.36391" lon="-2.40063">
        <ele>106</ele>
        <time>2019-08-18T09:38:07Z</time>
      </trkpt>
      <trkpt lat="47.36368" lon="-2.40077">
        <ele>91</ele>
        <time>2019-08-18T09:38:11Z</time>
      </trkpt>
      <trkpt lat="47.36359" lon="-2.40083">
        <ele>84</ele>
        <time>2019-08-18T09:38:12Z</time>
      </trkpt>
      <trkpt lat="47.36354" lon="-2.40087">
        <ele>81</ele>
        <time>2019-08-18T09:38:13Z</time>
      </trkpt>
      <trkpt lat="47.3635" lon="-2.4009">
        <ele>79</ele>
        <time>2019-08-18T09:38:15Z</time>
      </trkpt>
      <trkpt lat="47.36345" lon="-2.40093">
        <ele>79</ele>
        <time>2019-08-18T09:38:16Z</time>
      </trkpt>
      <trkpt lat="47.36339" lon="-2.40097">
        <ele>78</ele>
        <time>2019-08-18T09:38:17Z</time>
      </trkpt>
      <trkpt lat="47.3633" lon="-2.40102">
        <ele>76</ele>
        <time>2019-08-18T09:38:18Z</time>
      </trkpt>
      <trkpt lat="47.36325" lon="-2.40105">
        <ele>75</ele>
        <time>2019-08-18T09:38:19Z</time>
      </trkpt>
      <trkpt lat="47.36319" lon="-2.40108">
        <ele>74</ele>
        <time>2019-08-18T09:38:20Z</time>
      </trkpt>
      <trkpt lat="47.36314" lon="-2.40111">
        <ele>73</ele>
        <time>2019-08-18T09:38:21Z</time>
      </trkpt>
      <trkpt lat="47.36307" lon="-2.40113">
        <ele>72</ele>
        <time>2019-08-18T09:38:22Z</time>
      </trkpt>
      <trkpt lat="47.36302" lon="-2.40114">
        <ele>71</ele>
        <time>2019-08-18T09:38:23Z</time>
      </trkpt>
      <trkpt lat="47.36296" lon="-2.40116">
        <ele>70</ele>
        <time>2019-08-18T09:38:24Z</time>
      </trkpt>
      <trkpt lat="47.36291" lon="-2.40119">
        <ele>70</ele>
        <time>2019-08-18T09:38:25Z</time>
      </trkpt>
      <trkpt lat="47.36279" lon="-2.40123">
        <ele>69</ele>
        <time>2019-08-18T09:38:27Z</time>
      </trkpt>
      <trkpt lat="47.36273" lon="-2.40124">
        <ele>69</ele>
        <time>2019-08-18T09:38:28Z</time>
      </trkpt>
      <trkpt lat="47.36267" lon="-2.40125">
        <ele>68</ele>
        <time>2019-08-18T09:38:29Z</time>
      </trkpt>
      <trkpt lat="47.36256" lon="-2.4013">
        <ele>68</ele>
        <time>2019-08-18T09:38:31Z</time>
      </trkpt>
      <trkpt lat="47.36251" lon="-2.40133">
        <ele>68</ele>
        <time>2019-08-18T09:38:32Z</time>
      </trkpt>
      <trkpt lat="47.36246" lon="-2.40137">
        <ele>68</ele>
        <time>2019-08-18T09:38:33Z</time>
      </trkpt>
      <trkpt lat="47.36242" lon="-2.4014">
        <ele>68</ele>
        <time>2019-08-18T09:38:34Z</time>
      </trkpt>
      <trkpt lat="47.36237" lon="-2.40143">
        <ele>68</ele>
        <time>2019-08-18T09:38:35Z</time>
      </trkpt>
      <trkpt lat="47.36232" lon="-2.40147">
        <ele>68</ele>
        <time>2019-08-18T09:38:36Z</time>
      </trkpt>
      <trkpt lat="47.36225" lon="-2.40155">
        <ele>68</ele>
        <time>2019-08-18T09:38:38Z</time>
      </trkpt>
      <trkpt lat="47.3622" lon="-2.4016">
        <ele>68</ele>
        <time>2019-08-18T09:38:39Z</time>
      </trkpt>
      <trkpt lat="47.36208" lon="-2.40173">
        <ele>68</ele>
        <time>2019-08-18T09:38:42Z</time>
      </trkpt>
      <trkpt lat="47.36204" lon="-2.40177">
        <ele>68</ele>
        <time>2019-08-18T09:38:43Z</time>
      </trkpt>
      <trkpt lat="47.362" lon="-2.40181">
        <ele>68</ele>
        <time>2019-08-18T09:38:44Z</time>
      </trkpt>
      <trkpt lat="47.36197" lon="-2.40186">
        <ele>68</ele>
        <time>2019-08-18T09:38:45Z</time>
      </trkpt>
      <trkpt lat="47.36193" lon="-2.4019">
        <ele>67</ele>
        <time>2019-08-18T09:38:46Z</time>
      </trkpt>
      <trkpt lat="47.36188" lon="-2.40195">
        <ele>68</ele>
        <time>2019-08-18T09:38:47Z</time>
      </trkpt>
      <trkpt lat="47.36184" lon="-2.40198">
        <ele>67</ele>
        <time>2019-08-18T09:38:48Z</time>
      </trkpt>
      <trkpt lat="47.36169" lon="-2.4021">
        <ele>67</ele>
        <time>2019-08-18T09:38:52Z</time>
      </trkpt>
      <trkpt lat="47.36165" lon="-2.40213">
        <ele>67</ele>
        <time>2019-08-18T09:38:53Z</time>
      </trkpt>
      <trkpt lat="47.3616" lon="-2.40217">
        <ele>67</ele>
        <time>2019-08-18T09:38:54Z</time>
      </trkpt>
      <trkpt lat="47.36154" lon="-2.4022">
        <ele>67</ele>
        <time>2019-08-18T09:38:55Z</time>
      </trkpt>
      <trkpt lat="47.36148" lon="-2.40224">
        <ele>67</ele>
        <time>2019-08-18T09:38:56Z</time>
      </trkpt>
      <trkpt lat="47.36142" lon="-2.40229">
        <ele>67</ele>
        <time>2019-08-18T09:38:57Z</time>
      </trkpt>
      <trkpt lat="47.36137" lon="-2.40235">
        <ele>67</ele>
        <time>2019-08-18T09:38:58Z</time>
      </trkpt>
      <trkpt lat="47.36121" lon="-2.40247">
        <ele>67</ele>
        <time>2019-08-18T09:39:01Z</time>
      </trkpt>
      <trkpt lat="47.3611" lon="-2.40255">
        <ele>67</ele>
        <time>2019-08-18T09:39:03Z</time>
      </trkpt>
      <trkpt lat="47.36099" lon="-2.40263">
        <ele>67</ele>
        <time>2019-08-18T09:39:05Z</time>
      </trkpt>
      <trkpt lat="47.36094" lon="-2.40266">
        <ele>67</ele>
        <time>2019-08-18T09:39:06Z</time>
      </trkpt>
      <trkpt lat="47.36085" lon="-2.40274">
        <ele>67</ele>
        <time>2019-08-18T09:39:08Z</time>
      </trkpt>
      <trkpt lat="47.36079" lon="-2.40278">
        <ele>67</ele>
        <time>2019-08-18T09:39:09Z</time>
      </trkpt>
      <trkpt lat="47.36073" lon="-2.40282">
        <ele>66</ele>
        <time>2019-08-18T09:39:10Z</time>
      </trkpt>
      <trkpt lat="47.36067" lon="-2.40288">
        <ele>66</ele>
        <time>2019-08-18T09:39:11Z</time>
      </trkpt>
      <trkpt lat="47.36063" lon="-2.40292">
        <ele>66</ele>
        <time>2019-08-18T09:39:12Z</time>
      </trkpt>
      <trkpt lat="47.36049" lon="-2.40308">
        <ele>65</ele>
        <time>2019-08-18T09:39:15Z</time>
      </trkpt>
      <trkpt lat="47.36044" lon="-2.40315">
        <ele>65</ele>
        <time>2019-08-18T09:39:16Z</time>
      </trkpt>
      <trkpt lat="47.3604" lon="-2.4032">
        <ele>65</ele>
        <time>2019-08-18T09:39:17Z</time>
      </trkpt>
      <trkpt lat="47.36036" lon="-2.40326">
        <ele>66</ele>
        <time>2019-08-18T09:39:18Z</time>
      </trkpt>
      <trkpt lat="47.36033" lon="-2.40335">
        <ele>66</ele>
        <time>2019-08-18T09:39:19Z</time>
      </trkpt>
      <trkpt lat="47.3603" lon="-2.40343">
        <ele>66</ele>
        <time>2019-08-18T09:39:20Z</time>
      </trkpt>
      <trkpt lat="47.36028" lon="-2.40351">
        <ele>66</ele>
        <time>2019-08-18T09:39:21Z</time>
      </trkpt>
      <trkpt lat="47.36026" lon="-2.40369">
        <ele>65</ele>
        <time>2019-08-18T09:39:23Z</time>
      </trkpt>
      <trkpt lat="47.36025" lon="-2.40378">
        <ele>66</ele>
        <time>2019-08-18T09:39:24Z</time>
      </trkpt>
      <trkpt lat="47.36025" lon="-2.40386">
        <ele>66</ele>
        <time>2019-08-18T09:39:25Z</time>
      </trkpt>
      <trkpt lat="47.36024" lon="-2.40394">
        <ele>66</ele>
        <time>2019-08-18T09:39:26Z</time>
      </trkpt>
      <trkpt lat="47.36024" lon="-2.40403">
        <ele>66</ele>
        <time>2019-08-18T09:39:27Z</time>
      </trkpt>
      <trkpt lat="47.36023" lon="-2.40411">
        <ele>66</ele>
        <time>2019-08-18T09:39:28Z</time>
      </trkpt>
      <trkpt lat="47.36024" lon="-2.40418">
        <ele>66</ele>
        <time>2019-08-18T09:39:29Z</time>
      </trkpt>
      <trkpt lat="47.36023" lon="-2.40427">
        <ele>66</ele>
        <time>2019-08-18T09:39:30Z</time>
      </trkpt>
      <trkpt lat="47.36022" lon="-2.40433">
        <ele>67</ele>
        <time>2019-08-18T09:39:31Z</time>
      </trkpt>
      <trkpt lat="47.36019" lon="-2.40441">
        <ele>66</ele>
        <time>2019-08-18T09:39:32Z</time>
      </trkpt>
      <trkpt lat="47.36014" lon="-2.40447">
        <ele>67</ele>
        <time>2019-08-18T09:39:33Z</time>
      </trkpt>
      <trkpt lat="47.3601" lon="-2.40453">
        <ele>67</ele>
        <time>2019-08-18T09:39:34Z</time>
      </trkpt>
      <trkpt lat="47.36006" lon="-2.40459">
        <ele>66</ele>
        <time>2019-08-18T09:39:35Z</time>
      </trkpt>
      <trkpt lat="47.36002" lon="-2.40464">
        <ele>66</ele>
        <time>2019-08-18T09:39:36Z</time>
      </trkpt>
      <trkpt lat="47.35997" lon="-2.40469">
        <ele>66</ele>
        <time>2019-08-18T09:39:37Z</time>
      </trkpt>
      <trkpt lat="47.35987" lon="-2.40479">
        <ele>66</ele>
        <time>2019-08-18T09:39:39Z</time>
      </trkpt>
      <trkpt lat="47.35983" lon="-2.40485">
        <ele>66</ele>
        <time>2019-08-18T09:39:40Z</time>
      </trkpt>
      <trkpt lat="47.35978" lon="-2.4049">
        <ele>66</ele>
        <time>2019-08-18T09:39:41Z</time>
      </trkpt>
      <trkpt lat="47.35974" lon="-2.40495">
        <ele>66</ele>
        <time>2019-08-18T09:39:42Z</time>
      </trkpt>
      <trkpt lat="47.3597" lon="-2.40502">
        <ele>65</ele>
        <time>2019-08-18T09:39:43Z</time>
      </trkpt>
      <trkpt lat="47.35966" lon="-2.40508">
        <ele>65</ele>
        <time>2019-08-18T09:39:44Z</time>
      </trkpt>
      <trkpt lat="47.35961" lon="-2.40514">
        <ele>65</ele>
        <time>2019-08-18T09:39:45Z</time>
      </trkpt>
      <trkpt lat="47.35956" lon="-2.4052">
        <ele>65</ele>
        <time>2019-08-18T09:39:46Z</time>
      </trkpt>
      <trkpt lat="47.35952" lon="-2.40526">
        <ele>64</ele>
        <time>2019-08-18T09:39:47Z</time>
      </trkpt>
      <trkpt lat="47.35948" lon="-2.40532">
        <ele>64</ele>
        <time>2019-08-18T09:39:48Z</time>
      </trkpt>
      <trkpt lat="47.3594" lon="-2.40544">
        <ele>64</ele>
        <time>2019-08-18T09:39:50Z</time>
      </trkpt>
      <trkpt lat="47.35932" lon="-2.40556">
        <ele>64</ele>
        <time>2019-08-18T09:39:52Z</time>
      </trkpt>
      <trkpt lat="47.35928" lon="-2.40562">
        <ele>64</ele>
        <time>2019-08-18T09:39:53Z</time>
      </trkpt>
      <trkpt lat="47.35921" lon="-2.40574">
        <ele>64</ele>
        <time>2019-08-18T09:39:55Z</time>
      </trkpt>
      <trkpt lat="47.35913" lon="-2.40586">
        <ele>64</ele>
        <time>2019-08-18T09:39:57Z</time>
      </trkpt>
      <trkpt lat="47.35908" lon="-2.40593">
        <ele>64</ele>
        <time>2019-08-18T09:39:58Z</time>
      </trkpt>
      <trkpt lat="47.35903" lon="-2.40599">
        <ele>64</ele>
        <time>2019-08-18T09:39:59Z</time>
      </trkpt>
      <trkpt lat="47.359" lon="-2.40605">
        <ele>64</ele>
        <time>2019-08-18T09:40:00Z</time>
      </trkpt>
      <trkpt lat="47.35896" lon="-2.40612">
        <ele>64</ele>
        <time>2019-08-18T09:40:01Z</time>
      </trkpt>
      <trkpt lat="47.35892" lon="-2.40619">
        <ele>65</ele>
        <time>2019-08-18T09:40:02Z</time>
      </trkpt>
      <trkpt lat="47.3588" lon="-2.40639">
        <ele>64</ele>
        <time>2019-08-18T09:40:05Z</time>
      </trkpt>
      <trkpt lat="47.35876" lon="-2.40646">
        <ele>64</ele>
        <time>2019-08-18T09:40:06Z</time>
      </trkpt>
      <trkpt lat="47.35873" lon="-2.40653">
        <ele>64</ele>
        <time>2019-08-18T09:40:07Z</time>
      </trkpt>
      <trkpt lat="47.35869" lon="-2.40661">
        <ele>63</ele>
        <time>2019-08-18T09:40:08Z</time>
      </trkpt>
      <trkpt lat="47.35865" lon="-2.40668">
        <ele>63</ele>
        <time>2019-08-18T09:40:09Z</time>
      </trkpt>
      <trkpt lat="47.35857" lon="-2.40692">
        <ele>63</ele>
        <time>2019-08-18T09:40:12Z</time>
      </trkpt>
      <trkpt lat="47.35855" lon="-2.40699">
        <ele>63</ele>
        <time>2019-08-18T09:40:13Z</time>
      </trkpt>
      <trkpt lat="47.35853" lon="-2.40707">
        <ele>63</ele>
        <time>2019-08-18T09:40:14Z</time>
      </trkpt>
      <trkpt lat="47.35853" lon="-2.40715">
        <ele>63</ele>
        <time>2019-08-18T09:40:15Z</time>
      </trkpt>
      <trkpt lat="47.35852" lon="-2.40723">
        <ele>63</ele>
        <time>2019-08-18T09:40:16Z</time>
      </trkpt>
      <trkpt lat="47.35846" lon="-2.40745">
        <ele>63</ele>
        <time>2019-08-18T09:40:19Z</time>
      </trkpt>
      <trkpt lat="47.35842" lon="-2.40751">
        <ele>63</ele>
        <time>2019-08-18T09:40:20Z</time>
      </trkpt>
      <trkpt lat="47.35835" lon="-2.40763">
        <ele>63</ele>
        <time>2019-08-18T09:40:22Z</time>
      </trkpt>
      <trkpt lat="47.35872" lon="-2.40824">
        <ele>73</ele>
        <time>2019-08-18T09:40:29Z</time>
      </trkpt>
      <trkpt lat="47.35872" lon="-2.40841">
        <ele>82</ele>
        <time>2019-08-18T09:40:31Z</time>
      </trkpt>
      <trkpt lat="47.35857" lon="-2.40831">
        <ele>85</ele>
        <time>2019-08-18T09:40:32Z</time>
      </trkpt>
      <trkpt lat="47.3576" lon="-2.40872">
        <ele>86</ele>
        <time>2019-08-18T09:40:41Z</time>
      </trkpt>
      <trkpt lat="47.35752" lon="-2.40885">
        <ele>83</ele>
        <time>2019-08-18T09:40:43Z</time>
      </trkpt>
      <trkpt lat="47.35747" lon="-2.40892">
        <ele>82</ele>
        <time>2019-08-18T09:40:44Z</time>
      </trkpt>
      <trkpt lat="47.35742" lon="-2.40899">
        <ele>82</ele>
        <time>2019-08-18T09:40:45Z</time>
      </trkpt>
      <trkpt lat="47.35738" lon="-2.40906">
        <ele>81</ele>
        <time>2019-08-18T09:40:46Z</time>
      </trkpt>
      <trkpt lat="47.35733" lon="-2.40912">
        <ele>80</ele>
        <time>2019-08-18T09:40:47Z</time>
      </trkpt>
      <trkpt lat="47.3573" lon="-2.40918">
        <ele>79</ele>
        <time>2019-08-18T09:40:48Z</time>
      </trkpt>
      <trkpt lat="47.35726" lon="-2.40924">
        <ele>79</ele>
        <time>2019-08-18T09:40:49Z</time>
      </trkpt>
      <trkpt lat="47.35722" lon="-2.4093">
        <ele>78</ele>
        <time>2019-08-18T09:40:50Z</time>
      </trkpt>
      <trkpt lat="47.35718" lon="-2.40935">
        <ele>78</ele>
        <time>2019-08-18T09:40:51Z</time>
      </trkpt>
      <trkpt lat="47.35713" lon="-2.40939">
        <ele>77</ele>
        <time>2019-08-18T09:40:52Z</time>
      </trkpt>
      <trkpt lat="47.35709" lon="-2.40944">
        <ele>76</ele>
        <time>2019-08-18T09:40:53Z</time>
      </trkpt>
      <trkpt lat="47.35702" lon="-2.40957">
        <ele>75</ele>
        <time>2019-08-18T09:40:56Z</time>
      </trkpt>
      <trkpt lat="47.35699" lon="-2.40962">
        <ele>74</ele>
        <time>2019-08-18T09:40:57Z</time>
      </trkpt>
      <trkpt lat="47.35693" lon="-2.40973">
        <ele>72</ele>
        <time>2019-08-18T09:40:59Z</time>
      </trkpt>
      <trkpt lat="47.35689" lon="-2.40978">
        <ele>72</ele>
        <time>2019-08-18T09:41:00Z</time>
      </trkpt>
      <trkpt lat="47.35685" lon="-2.40984">
        <ele>71</ele>
        <time>2019-08-18T09:41:01Z</time>
      </trkpt>
      <trkpt lat="47.35682" lon="-2.4099">
        <ele>71</ele>
        <time>2019-08-18T09:41:02Z</time>
      </trkpt>
      <trkpt lat="47.35678" lon="-2.40995">
        <ele>71</ele>
        <time>2019-08-18T09:41:03Z</time>
      </trkpt>
      <trkpt lat="47.35667" lon="-2.41012">
        <ele>70</ele>
        <time>2019-08-18T09:41:06Z</time>
      </trkpt>
      <trkpt lat="47.35663" lon="-2.41018">
        <ele>70</ele>
        <time>2019-08-18T09:41:07Z</time>
      </trkpt>
      <trkpt lat="47.35659" lon="-2.41024">
        <ele>69</ele>
        <time>2019-08-18T09:41:08Z</time>
      </trkpt>
      <trkpt lat="47.35655" lon="-2.4103">
        <ele>69</ele>
        <time>2019-08-18T09:41:09Z</time>
      </trkpt>
      <trkpt lat="47.35651" lon="-2.41035">
        <ele>69</ele>
        <time>2019-08-18T09:41:10Z</time>
      </trkpt>
      <trkpt lat="47.35646" lon="-2.41041">
        <ele>69</ele>
        <time>2019-08-18T09:41:11Z</time>
      </trkpt>
      <trkpt lat="47.35642" lon="-2.41047">
        <ele>69</ele>
        <time>2019-08-18T09:41:12Z</time>
      </trkpt>
      <trkpt lat="47.35634" lon="-2.41058">
        <ele>69</ele>
        <time>2019-08-18T09:41:14Z</time>
      </trkpt>
      <trkpt lat="47.3563" lon="-2.41062">
        <ele>69</ele>
        <time>2019-08-18T09:41:15Z</time>
      </trkpt>
      <trkpt lat="47.35625" lon="-2.41066">
        <ele>69</ele>
        <time>2019-08-18T09:41:16Z</time>
      </trkpt>
      <trkpt lat="47.35621" lon="-2.4107">
        <ele>70</ele>
        <time>2019-08-18T09:41:17Z</time>
      </trkpt>
      <trkpt lat="47.35613" lon="-2.41079">
        <ele>70</ele>
        <time>2019-08-18T09:41:19Z</time>
      </trkpt>
      <trkpt lat="47.35609" lon="-2.41083">
        <ele>69</ele>
        <time>2019-08-18T09:41:20Z</time>
      </trkpt>
      <trkpt lat="47.35605" lon="-2.41087">
        <ele>70</ele>
        <time>2019-08-18T09:41:21Z</time>
      </trkpt>
      <trkpt lat="47.35602" lon="-2.41091">
        <ele>69</ele>
        <time>2019-08-18T09:41:22Z</time>
      </trkpt>
      <trkpt lat="47.35596" lon="-2.41098">
        <ele>70</ele>
        <time>2019-08-18T09:41:24Z</time>
      </trkpt>
      <trkpt lat="47.35591" lon="-2.41104">
        <ele>71</ele>
        <time>2019-08-18T09:41:26Z</time>
      </trkpt>
      <trkpt lat="47.35584" lon="-2.41109">
        <ele>70</ele>
        <time>2019-08-18T09:41:28Z</time>
      </trkpt>
      <trkpt lat="47.35577" lon="-2.41116">
        <ele>70</ele>
        <time>2019-08-18T09:41:30Z</time>
      </trkpt>
      <trkpt lat="47.3557" lon="-2.41121">
        <ele>70</ele>
        <time>2019-08-18T09:41:32Z</time>
      </trkpt>
      <trkpt lat="47.35562" lon="-2.41128">
        <ele>70</ele>
        <time>2019-08-18T09:41:34Z</time>
      </trkpt>
      <trkpt lat="47.35558" lon="-2.41131">
        <ele>70</ele>
        <time>2019-08-18T09:41:35Z</time>
      </trkpt>
      <trkpt lat="47.35554" lon="-2.41133">
        <ele>71</ele>
        <time>2019-08-18T09:41:36Z</time>
      </trkpt>
      <trkpt lat="47.35545" lon="-2.41141">
        <ele>71</ele>
        <time>2019-08-18T09:41:39Z</time>
      </trkpt>
      <trkpt lat="47.35542" lon="-2.41143">
        <ele>70</ele>
        <time>2019-08-18T09:41:40Z</time>
      </trkpt>
      <trkpt lat="47.35534" lon="-2.41148">
        <ele>70</ele>
        <time>2019-08-18T09:41:42Z</time>
      </trkpt>
      <trkpt lat="47.3553" lon="-2.41151">
        <ele>69</ele>
        <time>2019-08-18T09:41:43Z</time>
      </trkpt>
      <trkpt lat="47.35522" lon="-2.41157">
        <ele>69</ele>
        <time>2019-08-18T09:41:45Z</time>
      </trkpt>
      <trkpt lat="47.35518" lon="-2.41159">
        <ele>69</ele>
        <time>2019-08-18T09:41:46Z</time>
      </trkpt>
      <trkpt lat="47.35511" lon="-2.41166">
        <ele>68</ele>
        <time>2019-08-18T09:41:48Z</time>
      </trkpt>
      <trkpt lat="47.35508" lon="-2.4117">
        <ele>68</ele>
        <time>2019-08-18T09:41:49Z</time>
      </trkpt>
      <trkpt lat="47.35504" lon="-2.41173">
        <ele>68</ele>
        <time>2019-08-18T09:41:50Z</time>
      </trkpt>
      <trkpt lat="47.35497" lon="-2.4118">
        <ele>68</ele>
        <time>2019-08-18T09:41:52Z</time>
      </trkpt>
      <trkpt lat="47.35494" lon="-2.41184">
        <ele>68</ele>
        <time>2019-08-18T09:41:53Z</time>
      </trkpt>
      <trkpt lat="47.35484" lon="-2.41191">
        <ele>67</ele>
        <time>2019-08-18T09:41:56Z</time>
      </trkpt>
      <trkpt lat="47.35478" lon="-2.41197">
        <ele>67</ele>
        <time>2019-08-18T09:41:58Z</time>
      </trkpt>
      <trkpt lat="47.35469" lon="-2.41203">
        <ele>68</ele>
        <time>2019-08-18T09:42:01Z</time>
      </trkpt>
      <trkpt lat="47.35466" lon="-2.41205">
        <ele>68</ele>
        <time>2019-08-18T09:42:02Z</time>
      </trkpt>
      <trkpt lat="47.3546" lon="-2.4121">
        <ele>68</ele>
        <time>2019-08-18T09:42:04Z</time>
      </trkpt>
      <trkpt lat="47.35456" lon="-2.41213">
        <ele>68</ele>
        <time>2019-08-18T09:42:05Z</time>
      </trkpt>
      <trkpt lat="47.35451" lon="-2.41219">
        <ele>67</ele>
        <time>2019-08-18T09:42:07Z</time>
      </trkpt>
      <trkpt lat="47.35448" lon="-2.41222">
        <ele>68</ele>
        <time>2019-08-18T09:42:08Z</time>
      </trkpt>
      <trkpt lat="47.35446" lon="-2.41225">
        <ele>68</ele>
        <time>2019-08-18T09:42:09Z</time>
      </trkpt>
      <trkpt lat="47.35442" lon="-2.4123">
        <ele>68</ele>
        <time>2019-08-18T09:42:11Z</time>
      </trkpt>
      <trkpt lat="47.35438" lon="-2.41235">
        <ele>68</ele>
        <time>2019-08-18T09:42:13Z</time>
      </trkpt>
      <trkpt lat="47.35433" lon="-2.41243">
        <ele>68</ele>
        <time>2019-08-18T09:42:15Z</time>
      </trkpt>
      <trkpt lat="47.35429" lon="-2.41249">
        <ele>68</ele>
        <time>2019-08-18T09:42:17Z</time>
      </trkpt>
      <trkpt lat="47.35424" lon="-2.41257">
        <ele>67</ele>
        <time>2019-08-18T09:42:19Z</time>
      </trkpt>
      <trkpt lat="47.35419" lon="-2.41262">
        <ele>67</ele>
        <time>2019-08-18T09:42:21Z</time>
      </trkpt>
      <trkpt lat="47.35413" lon="-2.41269">
        <ele>67</ele>
        <time>2019-08-18T09:42:23Z</time>
      </trkpt>
      <trkpt lat="47.35406" lon="-2.41275">
        <ele>67</ele>
        <time>2019-08-18T09:42:25Z</time>
      </trkpt>
      <trkpt lat="47.35403" lon="-2.41277">
        <ele>68</ele>
        <time>2019-08-18T09:42:26Z</time>
      </trkpt>
      <trkpt lat="47.354" lon="-2.41279">
        <ele>68</ele>
        <time>2019-08-18T09:42:27Z</time>
      </trkpt>
      <trkpt lat="47.35397" lon="-2.41282">
        <ele>68</ele>
        <time>2019-08-18T09:42:28Z</time>
      </trkpt>
      <trkpt lat="47.35385" lon="-2.4129">
        <ele>68</ele>
        <time>2019-08-18T09:42:32Z</time>
      </trkpt>
      <trkpt lat="47.35372" lon="-2.41302">
        <ele>69</ele>
        <time>2019-08-18T09:42:36Z</time>
      </trkpt>
      <trkpt lat="47.35367" lon="-2.41309">
        <ele>68</ele>
        <time>2019-08-18T09:42:38Z</time>
      </trkpt>
      <trkpt lat="47.35363" lon="-2.41317">
        <ele>69</ele>
        <time>2019-08-18T09:42:40Z</time>
      </trkpt>
      <trkpt lat="47.35358" lon="-2.41325">
        <ele>69</ele>
        <time>2019-08-18T09:42:42Z</time>
      </trkpt>
      <trkpt lat="47.35356" lon="-2.41329">
        <ele>70</ele>
        <time>2019-08-18T09:42:43Z</time>
      </trkpt>
      <trkpt lat="47.35353" lon="-2.41333">
        <ele>69</ele>
        <time>2019-08-18T09:42:44Z</time>
      </trkpt>
      <trkpt lat="47.35349" lon="-2.41341">
        <ele>69</ele>
        <time>2019-08-18T09:42:46Z</time>
      </trkpt>
      <trkpt lat="47.35343" lon="-2.41348">
        <ele>69</ele>
        <time>2019-08-18T09:42:48Z</time>
      </trkpt>
      <trkpt lat="47.3534" lon="-2.41351">
        <ele>69</ele>
        <time>2019-08-18T09:42:49Z</time>
      </trkpt>
      <trkpt lat="47.35337" lon="-2.41354">
        <ele>69</ele>
        <time>2019-08-18T09:42:50Z</time>
      </trkpt>
      <trkpt lat="47.35332" lon="-2.41362">
        <ele>69</ele>
        <time>2019-08-18T09:42:52Z</time>
      </trkpt>
      <trkpt lat="47.35326" lon="-2.41369">
        <ele>68</ele>
        <time>2019-08-18T09:42:54Z</time>
      </trkpt>
      <trkpt lat="47.35322" lon="-2.41376">
        <ele>69</ele>
        <time>2019-08-18T09:42:57Z</time>
      </trkpt>
      <trkpt lat="47.3532" lon="-2.4138">
        <ele>69</ele>
        <time>2019-08-18T09:42:58Z</time>
      </trkpt>
      <trkpt lat="47.35315" lon="-2.41387">
        <ele>70</ele>
        <time>2019-08-18T09:43:00Z</time>
      </trkpt>
      <trkpt lat="47.35306" lon="-2.41401">
        <ele>70</ele>
        <time>2019-08-18T09:43:04Z</time>
      </trkpt>
      <trkpt lat="47.35302" lon="-2.41409">
        <ele>70</ele>
        <time>2019-08-18T09:43:06Z</time>
      </trkpt>
      <trkpt lat="47.353" lon="-2.41413">
        <ele>70</ele>
        <time>2019-08-18T09:43:07Z</time>
      </trkpt>
      <trkpt lat="47.35294" lon="-2.41422">
        <ele>71</ele>
        <time>2019-08-18T09:43:10Z</time>
      </trkpt>
      <trkpt lat="47.35292" lon="-2.41425">
        <ele>71</ele>
        <time>2019-08-18T09:43:11Z</time>
      </trkpt>
      <trkpt lat="47.35289" lon="-2.41428">
        <ele>71</ele>
        <time>2019-08-18T09:43:12Z</time>
      </trkpt>
      <trkpt lat="47.35287" lon="-2.41431">
        <ele>71</ele>
        <time>2019-08-18T09:43:13Z</time>
      </trkpt>
      <trkpt lat="47.35282" lon="-2.41436">
        <ele>72</ele>
        <time>2019-08-18T09:43:15Z</time>
      </trkpt>
      <trkpt lat="47.35277" lon="-2.41443">
        <ele>71</ele>
        <time>2019-08-18T09:43:17Z</time>
      </trkpt>
      <trkpt lat="47.3527" lon="-2.41445">
        <ele>71</ele>
        <time>2019-08-18T09:43:19Z</time>
      </trkpt>
      <trkpt lat="47.35263" lon="-2.41446">
        <ele>71</ele>
        <time>2019-08-18T09:43:21Z</time>
      </trkpt>
      <trkpt lat="47.35256" lon="-2.41443">
        <ele>71</ele>
        <time>2019-08-18T09:43:23Z</time>
      </trkpt>
      <trkpt lat="47.35251" lon="-2.41438">
        <ele>71</ele>
        <time>2019-08-18T09:43:25Z</time>
      </trkpt>
      <trkpt lat="47.35248" lon="-2.41436">
        <ele>71</ele>
        <time>2019-08-18T09:43:26Z</time>
      </trkpt>
      <trkpt lat="47.35237" lon="-2.41423">
        <ele>70</ele>
        <time>2019-08-18T09:43:30Z</time>
      </trkpt>
      <trkpt lat="47.35234" lon="-2.4142">
        <ele>71</ele>
        <time>2019-08-18T09:43:31Z</time>
      </trkpt>
      <trkpt lat="47.35228" lon="-2.41414">
        <ele>70</ele>
        <time>2019-08-18T09:43:33Z</time>
      </trkpt>
      <trkpt lat="47.3522" lon="-2.41404">
        <ele>70</ele>
        <time>2019-08-18T09:43:36Z</time>
      </trkpt>
      <trkpt lat="47.35215" lon="-2.41398">
        <ele>71</ele>
        <time>2019-08-18T09:43:38Z</time>
      </trkpt>
      <trkpt lat="47.3521" lon="-2.4139">
        <ele>71</ele>
        <time>2019-08-18T09:43:40Z</time>
      </trkpt>
      <trkpt lat="47.35204" lon="-2.41378">
        <ele>70</ele>
        <time>2019-08-18T09:43:43Z</time>
      </trkpt>
      <trkpt lat="47.35201" lon="-2.41374">
        <ele>70</ele>
        <time>2019-08-18T09:43:44Z</time>
      </trkpt>
      <trkpt lat="47.35196" lon="-2.41368">
        <ele>70</ele>
        <time>2019-08-18T09:43:46Z</time>
      </trkpt>
      <trkpt lat="47.35183" lon="-2.41362">
        <ele>69</ele>
        <time>2019-08-18T09:43:50Z</time>
      </trkpt>
      <trkpt lat="47.35174" lon="-2.41363">
        <ele>69</ele>
        <time>2019-08-18T09:43:53Z</time>
      </trkpt>
      <trkpt lat="47.35167" lon="-2.41365">
        <ele>69</ele>
        <time>2019-08-18T09:43:55Z</time>
      </trkpt>
      <trkpt lat="47.35161" lon="-2.4137">
        <ele>70</ele>
        <time>2019-08-18T09:43:57Z</time>
      </trkpt>
      <trkpt lat="47.35154" lon="-2.41375">
        <ele>70</ele>
        <time>2019-08-18T09:43:59Z</time>
      </trkpt>
      <trkpt lat="47.35145" lon="-2.41379">
        <ele>70</ele>
        <time>2019-08-18T09:44:01Z</time>
      </trkpt>
      <trkpt lat="47.3514" lon="-2.4138">
        <ele>71</ele>
        <time>2019-08-18T09:44:02Z</time>
      </trkpt>
      <trkpt lat="47.35133" lon="-2.41385">
        <ele>71</ele>
        <time>2019-08-18T09:44:04Z</time>
      </trkpt>
      <trkpt lat="47.3513" lon="-2.41387">
        <ele>71</ele>
        <time>2019-08-18T09:44:05Z</time>
      </trkpt>
      <trkpt lat="47.35123" lon="-2.41392">
        <ele>70</ele>
        <time>2019-08-18T09:44:07Z</time>
      </trkpt>
      <trkpt lat="47.3512" lon="-2.41394">
        <ele>71</ele>
        <time>2019-08-18T09:44:08Z</time>
      </trkpt>
      <trkpt lat="47.35114" lon="-2.41397">
        <ele>71</ele>
        <time>2019-08-18T09:44:10Z</time>
      </trkpt>
      <trkpt lat="47.35111" lon="-2.41399">
        <ele>70</ele>
        <time>2019-08-18T09:44:11Z</time>
      </trkpt>
      <trkpt lat="47.35107" lon="-2.41401">
        <ele>71</ele>
        <time>2019-08-18T09:44:12Z</time>
      </trkpt>
      <trkpt lat="47.35103" lon="-2.41404">
        <ele>70</ele>
        <time>2019-08-18T09:44:13Z</time>
      </trkpt>
      <trkpt lat="47.351" lon="-2.41406">
        <ele>70</ele>
        <time>2019-08-18T09:44:14Z</time>
      </trkpt>
      <trkpt lat="47.35097" lon="-2.41407">
        <ele>70</ele>
        <time>2019-08-18T09:44:15Z</time>
      </trkpt>
      <trkpt lat="47.35094" lon="-2.41409">
        <ele>70</ele>
        <time>2019-08-18T09:44:16Z</time>
      </trkpt>
      <trkpt lat="47.35091" lon="-2.4141">
        <ele>70</ele>
        <time>2019-08-18T09:44:17Z</time>
      </trkpt>
      <trkpt lat="47.35087" lon="-2.41411">
        <ele>70</ele>
        <time>2019-08-18T09:44:19Z</time>
      </trkpt>
      <trkpt lat="47.35083" lon="-2.41411">
        <ele>70</ele>
        <time>2019-08-18T09:44:21Z</time>
      </trkpt>
      <trkpt lat="47.35083" lon="-2.41411">
        <ele>15.2</ele>
        <time>2019-08-18T09:44:26Z</time>
      </trkpt>
      <trkpt lat="47.35083" lon="-2.41411">
        <ele>15.2</ele>
        <time>2019-08-18T09:45:09Z</time>
      </trkpt>
      <trkpt lat="47.35073" lon="-2.4139">
        <ele>69</ele>
        <time>2019-08-18T09:45:09Z</time>
      </trkpt>
      <trkpt lat="47.3506" lon="-2.41365">
        <ele>65</ele>
        <time>2019-08-18T09:45:16Z</time>
      </trkpt>
      <trkpt lat="47.35054" lon="-2.41361">
        <ele>70</ele>
        <time>2019-08-18T09:45:18Z</time>
      </trkpt>
      <trkpt lat="47.35051" lon="-2.41353">
        <ele>73</ele>
        <time>2019-08-18T09:45:20Z</time>
      </trkpt>
      <trkpt lat="47.35048" lon="-2.41341">
        <ele>75</ele>
        <time>2019-08-18T09:45:22Z</time>
      </trkpt>
      <trkpt lat="47.35044" lon="-2.41331">
        <ele>76</ele>
        <time>2019-08-18T09:45:24Z</time>
      </trkpt>
      <trkpt lat="47.35041" lon="-2.41322">
        <ele>77</ele>
        <time>2019-08-18T09:45:26Z</time>
      </trkpt>
      <trkpt lat="47.35035" lon="-2.41311">
        <ele>78</ele>
        <time>2019-08-18T09:45:28Z</time>
      </trkpt>
      <trkpt lat="47.35033" lon="-2.41305">
        <ele>77</ele>
        <time>2019-08-18T09:45:29Z</time>
      </trkpt>
      <trkpt lat="47.3503" lon="-2.41297">
        <ele>76</ele>
        <time>2019-08-18T09:45:30Z</time>
      </trkpt>
      <trkpt lat="47.35025" lon="-2.41282">
        <ele>77</ele>
        <time>2019-08-18T09:45:32Z</time>
      </trkpt>
      <trkpt lat="47.35023" lon="-2.41276">
        <ele>77</ele>
        <time>2019-08-18T09:45:33Z</time>
      </trkpt>
      <trkpt lat="47.35015" lon="-2.41262">
        <ele>83</ele>
        <time>2019-08-18T09:45:36Z</time>
      </trkpt>
      <trkpt lat="47.35011" lon="-2.41255">
        <ele>88</ele>
        <time>2019-08-18T09:45:38Z</time>
      </trkpt>
      <trkpt lat="47.35009" lon="-2.41249">
        <ele>91</ele>
        <time>2019-08-18T09:45:39Z</time>
      </trkpt>
      <trkpt lat="47.35005" lon="-2.41243">
        <ele>91</ele>
        <time>2019-08-18T09:45:40Z</time>
      </trkpt>
      <trkpt lat="47.35001" lon="-2.41234">
        <ele>87</ele>
        <time>2019-08-18T09:45:41Z</time>
      </trkpt>
      <trkpt lat="47.34995" lon="-2.41216">
        <ele>82</ele>
        <time>2019-08-18T09:45:42Z</time>
      </trkpt>
      <trkpt lat="47.34993" lon="-2.41208">
        <ele>81</ele>
        <time>2019-08-18T09:45:43Z</time>
      </trkpt>
      <trkpt lat="47.34991" lon="-2.41202">
        <ele>82</ele>
        <time>2019-08-18T09:45:44Z</time>
      </trkpt>
      <trkpt lat="47.34985" lon="-2.4118">
        <ele>82</ele>
        <time>2019-08-18T09:45:48Z</time>
      </trkpt>
      <trkpt lat="47.34982" lon="-2.41173">
        <ele>82</ele>
        <time>2019-08-18T09:45:49Z</time>
      </trkpt>
      <trkpt lat="47.34979" lon="-2.41167">
        <ele>80</ele>
        <time>2019-08-18T09:45:50Z</time>
      </trkpt>
      <trkpt lat="47.34974" lon="-2.41157">
        <ele>80</ele>
        <time>2019-08-18T09:45:52Z</time>
      </trkpt>
      <trkpt lat="47.34967" lon="-2.41147">
        <ele>80</ele>
        <time>2019-08-18T09:45:54Z</time>
      </trkpt>
      <trkpt lat="47.34964" lon="-2.41141">
        <ele>81</ele>
        <time>2019-08-18T09:45:55Z</time>
      </trkpt>
      <trkpt lat="47.3496" lon="-2.41135">
        <ele>81</ele>
        <time>2019-08-18T09:45:56Z</time>
      </trkpt>
      <trkpt lat="47.34958" lon="-2.41128">
        <ele>80</ele>
        <time>2019-08-18T09:45:57Z</time>
      </trkpt>
      <trkpt lat="47.34954" lon="-2.41117">
        <ele>78</ele>
        <time>2019-08-18T09:45:59Z</time>
      </trkpt>
      <trkpt lat="47.34951" lon="-2.4111">
        <ele>76</ele>
        <time>2019-08-18T09:46:00Z</time>
      </trkpt>
      <trkpt lat="47.34949" lon="-2.41105">
        <ele>75</ele>
        <time>2019-08-18T09:46:01Z</time>
      </trkpt>
      <trkpt lat="47.34946" lon="-2.41099">
        <ele>75</ele>
        <time>2019-08-18T09:46:02Z</time>
      </trkpt>
      <trkpt lat="47.34944" lon="-2.41092">
        <ele>74</ele>
        <time>2019-08-18T09:46:03Z</time>
      </trkpt>
      <trkpt lat="47.34941" lon="-2.41087">
        <ele>74</ele>
        <time>2019-08-18T09:46:04Z</time>
      </trkpt>
      <trkpt lat="47.34937" lon="-2.41077">
        <ele>73</ele>
        <time>2019-08-18T09:46:06Z</time>
      </trkpt>
      <trkpt lat="47.34934" lon="-2.41066">
        <ele>74</ele>
        <time>2019-08-18T09:46:08Z</time>
      </trkpt>
      <trkpt lat="47.34932" lon="-2.41061">
        <ele>73</ele>
        <time>2019-08-18T09:46:09Z</time>
      </trkpt>
      <trkpt lat="47.3493" lon="-2.41054">
        <ele>73</ele>
        <time>2019-08-18T09:46:10Z</time>
      </trkpt>
      <trkpt lat="47.3493" lon="-2.4104">
        <ele>74</ele>
        <time>2019-08-18T09:46:12Z</time>
      </trkpt>
      <trkpt lat="47.34931" lon="-2.41028">
        <ele>74</ele>
        <time>2019-08-18T09:46:14Z</time>
      </trkpt>
      <trkpt lat="47.34933" lon="-2.41015">
        <ele>75</ele>
        <time>2019-08-18T09:46:16Z</time>
      </trkpt>
      <trkpt lat="47.34933" lon="-2.41008">
        <ele>75</ele>
        <time>2019-08-18T09:46:17Z</time>
      </trkpt>
      <trkpt lat="47.34934" lon="-2.41001">
        <ele>75</ele>
        <time>2019-08-18T09:46:18Z</time>
      </trkpt>
      <trkpt lat="47.34934" lon="-2.40989">
        <ele>74</ele>
        <time>2019-08-18T09:46:20Z</time>
      </trkpt>
      <trkpt lat="47.34934" lon="-2.40976">
        <ele>74</ele>
        <time>2019-08-18T09:46:22Z</time>
      </trkpt>
      <trkpt lat="47.34935" lon="-2.40968">
        <ele>74</ele>
        <time>2019-08-18T09:46:23Z</time>
      </trkpt>
      <trkpt lat="47.34936" lon="-2.40943">
        <ele>74</ele>
        <time>2019-08-18T09:46:26Z</time>
      </trkpt>
      <trkpt lat="47.34936" lon="-2.40933">
        <ele>74</ele>
        <time>2019-08-18T09:46:27Z</time>
      </trkpt>
      <trkpt lat="47.34936" lon="-2.40918">
        <ele>75</ele>
        <time>2019-08-18T09:46:29Z</time>
      </trkpt>
      <trkpt lat="47.34937" lon="-2.4091">
        <ele>75</ele>
        <time>2019-08-18T09:46:30Z</time>
      </trkpt>
      <trkpt lat="47.34935" lon="-2.40893">
        <ele>76</ele>
        <time>2019-08-18T09:46:32Z</time>
      </trkpt>
      <trkpt lat="47.34933" lon="-2.40886">
        <ele>76</ele>
        <time>2019-08-18T09:46:33Z</time>
      </trkpt>
      <trkpt lat="47.34932" lon="-2.40878">
        <ele>76</ele>
        <time>2019-08-18T09:46:34Z</time>
      </trkpt>
      <trkpt lat="47.3493" lon="-2.40871">
        <ele>76</ele>
        <time>2019-08-18T09:46:35Z</time>
      </trkpt>
      <trkpt lat="47.34928" lon="-2.40864">
        <ele>76</ele>
        <time>2019-08-18T09:46:36Z</time>
      </trkpt>
      <trkpt lat="47.34925" lon="-2.40858">
        <ele>76</ele>
        <time>2019-08-18T09:46:37Z</time>
      </trkpt>
      <trkpt lat="47.34922" lon="-2.4085">
        <ele>76</ele>
        <time>2019-08-18T09:46:38Z</time>
      </trkpt>
      <trkpt lat="47.34919" lon="-2.40842">
        <ele>76</ele>
        <time>2019-08-18T09:46:39Z</time>
      </trkpt>
      <trkpt lat="47.34918" lon="-2.40834">
        <ele>76</ele>
        <time>2019-08-18T09:46:40Z</time>
      </trkpt>
      <trkpt lat="47.34911" lon="-2.4081">
        <ele>76</ele>
        <time>2019-08-18T09:46:43Z</time>
      </trkpt>
      <trkpt lat="47.34908" lon="-2.40803">
        <ele>76</ele>
        <time>2019-08-18T09:46:44Z</time>
      </trkpt>
      <trkpt lat="47.34905" lon="-2.40797">
        <ele>76</ele>
        <time>2019-08-18T09:46:45Z</time>
      </trkpt>
      <trkpt lat="47.34901" lon="-2.40791">
        <ele>76</ele>
        <time>2019-08-18T09:46:46Z</time>
      </trkpt>
      <trkpt lat="47.34897" lon="-2.40785">
        <ele>76</ele>
        <time>2019-08-18T09:46:47Z</time>
      </trkpt>
      <trkpt lat="47.34888" lon="-2.4078">
        <ele>76</ele>
        <time>2019-08-18T09:46:49Z</time>
      </trkpt>
      <trkpt lat="47.34883" lon="-2.40779">
        <ele>76</ele>
        <time>2019-08-18T09:46:50Z</time>
      </trkpt>
      <trkpt lat="47.34875" lon="-2.40779">
        <ele>77</ele>
        <time>2019-08-18T09:46:52Z</time>
      </trkpt>
      <trkpt lat="47.34868" lon="-2.40778">
        <ele>77</ele>
        <time>2019-08-18T09:46:54Z</time>
      </trkpt>
      <trkpt lat="47.34859" lon="-2.40778">
        <ele>77</ele>
        <time>2019-08-18T09:46:56Z</time>
      </trkpt>
      <trkpt lat="47.34849" lon="-2.40779">
        <ele>77</ele>
        <time>2019-08-18T09:46:59Z</time>
      </trkpt>
      <trkpt lat="47.34844" lon="-2.40777">
        <ele>77</ele>
        <time>2019-08-18T09:47:01Z</time>
      </trkpt>
      <trkpt lat="47.34838" lon="-2.40772">
        <ele>76</ele>
        <time>2019-08-18T09:47:03Z</time>
      </trkpt>
      <trkpt lat="47.34833" lon="-2.40769">
        <ele>75</ele>
        <time>2019-08-18T09:47:04Z</time>
      </trkpt>
      <trkpt lat="47.3483" lon="-2.40762">
        <ele>73</ele>
        <time>2019-08-18T09:47:05Z</time>
      </trkpt>
      <trkpt lat="47.34827" lon="-2.40755">
        <ele>72</ele>
        <time>2019-08-18T09:47:06Z</time>
      </trkpt>
      <trkpt lat="47.34825" lon="-2.40748">
        <ele>71</ele>
        <time>2019-08-18T09:47:07Z</time>
      </trkpt>
      <trkpt lat="47.34823" lon="-2.4074">
        <ele>70</ele>
        <time>2019-08-18T09:47:08Z</time>
      </trkpt>
      <trkpt lat="47.34822" lon="-2.40732">
        <ele>70</ele>
        <time>2019-08-18T09:47:09Z</time>
      </trkpt>
      <trkpt lat="47.34821" lon="-2.40723">
        <ele>69</ele>
        <time>2019-08-18T09:47:10Z</time>
      </trkpt>
      <trkpt lat="47.3482" lon="-2.40715">
        <ele>68</ele>
        <time>2019-08-18T09:47:11Z</time>
      </trkpt>
      <trkpt lat="47.3482" lon="-2.40706">
        <ele>68</ele>
        <time>2019-08-18T09:47:12Z</time>
      </trkpt>
      <trkpt lat="47.3482" lon="-2.40697">
        <ele>68</ele>
        <time>2019-08-18T09:47:13Z</time>
      </trkpt>
      <trkpt lat="47.34821" lon="-2.40688">
        <ele>68</ele>
        <time>2019-08-18T09:47:14Z</time>
      </trkpt>
      <trkpt lat="47.34826" lon="-2.40661">
        <ele>68</ele>
        <time>2019-08-18T09:47:17Z</time>
      </trkpt>
      <trkpt lat="47.34828" lon="-2.40651">
        <ele>68</ele>
        <time>2019-08-18T09:47:18Z</time>
      </trkpt>
      <trkpt lat="47.34831" lon="-2.40642">
        <ele>68</ele>
        <time>2019-08-18T09:47:19Z</time>
      </trkpt>
      <trkpt lat="47.3484" lon="-2.40615">
        <ele>68</ele>
        <time>2019-08-18T09:47:22Z</time>
      </trkpt>
      <trkpt lat="47.34849" lon="-2.40602">
        <ele>67</ele>
        <time>2019-08-18T09:47:24Z</time>
      </trkpt>
      <trkpt lat="47.34854" lon="-2.40597">
        <ele>67</ele>
        <time>2019-08-18T09:47:25Z</time>
      </trkpt>
      <trkpt lat="47.34868" lon="-2.40584">
        <ele>66</ele>
        <time>2019-08-18T09:47:28Z</time>
      </trkpt>
      <trkpt lat="47.34873" lon="-2.40577">
        <ele>66</ele>
        <time>2019-08-18T09:47:29Z</time>
      </trkpt>
      <trkpt lat="47.34877" lon="-2.40571">
        <ele>66</ele>
        <time>2019-08-18T09:47:30Z</time>
      </trkpt>
      <trkpt lat="47.34884" lon="-2.40555">
        <ele>67</ele>
        <time>2019-08-18T09:47:32Z</time>
      </trkpt>
      <trkpt lat="47.34885" lon="-2.40546">
        <ele>66</ele>
        <time>2019-08-18T09:47:33Z</time>
      </trkpt>
      <trkpt lat="47.34884" lon="-2.40535">
        <ele>67</ele>
        <time>2019-08-18T09:47:34Z</time>
      </trkpt>
      <trkpt lat="47.34881" lon="-2.40504">
        <ele>67</ele>
        <time>2019-08-18T09:47:37Z</time>
      </trkpt>
      <trkpt lat="47.34881" lon="-2.40494">
        <ele>67</ele>
        <time>2019-08-18T09:47:38Z</time>
      </trkpt>
      <trkpt lat="47.34879" lon="-2.40466">
        <ele>67</ele>
        <time>2019-08-18T09:47:41Z</time>
      </trkpt>
      <trkpt lat="47.34877" lon="-2.40457">
        <ele>67</ele>
        <time>2019-08-18T09:47:42Z</time>
      </trkpt>
      <trkpt lat="47.34872" lon="-2.40434">
        <ele>68</ele>
        <time>2019-08-18T09:47:45Z</time>
      </trkpt>
      <trkpt lat="47.34871" lon="-2.40428">
        <ele>68</ele>
        <time>2019-08-18T09:47:46Z</time>
      </trkpt>
      <trkpt lat="47.3487" lon="-2.40419">
        <ele>69</ele>
        <time>2019-08-18T09:47:47Z</time>
      </trkpt>
      <trkpt lat="47.34868" lon="-2.40411">
        <ele>68</ele>
        <time>2019-08-18T09:47:48Z</time>
      </trkpt>
      <trkpt lat="47.34867" lon="-2.40403">
        <ele>68</ele>
        <time>2019-08-18T09:47:49Z</time>
      </trkpt>
      <trkpt lat="47.34866" lon="-2.40394">
        <ele>68</ele>
        <time>2019-08-18T09:47:50Z</time>
      </trkpt>
      <trkpt lat="47.34864" lon="-2.40386">
        <ele>68</ele>
        <time>2019-08-18T09:47:51Z</time>
      </trkpt>
      <trkpt lat="47.34863" lon="-2.40378">
        <ele>68</ele>
        <time>2019-08-18T09:47:52Z</time>
      </trkpt>
      <trkpt lat="47.34862" lon="-2.40369">
        <ele>68</ele>
        <time>2019-08-18T09:47:53Z</time>
      </trkpt>
      <trkpt lat="47.3486" lon="-2.40361">
        <ele>68</ele>
        <time>2019-08-18T09:47:54Z</time>
      </trkpt>
      <trkpt lat="47.34858" lon="-2.40353">
        <ele>67</ele>
        <time>2019-08-18T09:47:55Z</time>
      </trkpt>
      <trkpt lat="47.34856" lon="-2.40345">
        <ele>68</ele>
        <time>2019-08-18T09:47:56Z</time>
      </trkpt>
      <trkpt lat="47.3485" lon="-2.40323">
        <ele>68</ele>
        <time>2019-08-18T09:47:59Z</time>
      </trkpt>
      <trkpt lat="47.34847" lon="-2.40316">
        <ele>68</ele>
        <time>2019-08-18T09:48:00Z</time>
      </trkpt>
      <trkpt lat="47.34844" lon="-2.40309">
        <ele>68</ele>
        <time>2019-08-18T09:48:01Z</time>
      </trkpt>
      <trkpt lat="47.3484" lon="-2.40301">
        <ele>68</ele>
        <time>2019-08-18T09:48:02Z</time>
      </trkpt>
      <trkpt lat="47.34837" lon="-2.40295">
        <ele>68</ele>
        <time>2019-08-18T09:48:03Z</time>
      </trkpt>
      <trkpt lat="47.34825" lon="-2.40276">
        <ele>69</ele>
        <time>2019-08-18T09:48:06Z</time>
      </trkpt>
      <trkpt lat="47.34822" lon="-2.40269">
        <ele>69</ele>
        <time>2019-08-18T09:48:07Z</time>
      </trkpt>
      <trkpt lat="47.34819" lon="-2.40263">
        <ele>69</ele>
        <time>2019-08-18T09:48:08Z</time>
      </trkpt>
      <trkpt lat="47.34816" lon="-2.40256">
        <ele>69</ele>
        <time>2019-08-18T09:48:09Z</time>
      </trkpt>
      <trkpt lat="47.3481" lon="-2.40244">
        <ele>69</ele>
        <time>2019-08-18T09:48:11Z</time>
      </trkpt>
      <trkpt lat="47.34806" lon="-2.40237">
        <ele>69</ele>
        <time>2019-08-18T09:48:12Z</time>
      </trkpt>
      <trkpt lat="47.34799" lon="-2.40224">
        <ele>70</ele>
        <time>2019-08-18T09:48:14Z</time>
      </trkpt>
      <trkpt lat="47.34794" lon="-2.4022">
        <ele>70</ele>
        <time>2019-08-18T09:48:15Z</time>
      </trkpt>
      <trkpt lat="47.34789" lon="-2.40216">
        <ele>70</ele>
        <time>2019-08-18T09:48:16Z</time>
      </trkpt>
      <trkpt lat="47.34784" lon="-2.40212">
        <ele>70</ele>
        <time>2019-08-18T09:48:17Z</time>
      </trkpt>
      <trkpt lat="47.34774" lon="-2.40204">
        <ele>71</ele>
        <time>2019-08-18T09:48:19Z</time>
      </trkpt>
      <trkpt lat="47.34769" lon="-2.40199">
        <ele>71</ele>
        <time>2019-08-18T09:48:20Z</time>
      </trkpt>
      <trkpt lat="47.34765" lon="-2.40194">
        <ele>71</ele>
        <time>2019-08-18T09:48:21Z</time>
      </trkpt>
      <trkpt lat="47.34761" lon="-2.40188">
        <ele>72</ele>
        <time>2019-08-18T09:48:22Z</time>
      </trkpt>
      <trkpt lat="47.34756" lon="-2.40182">
        <ele>72</ele>
        <time>2019-08-18T09:48:23Z</time>
      </trkpt>
      <trkpt lat="47.34752" lon="-2.40176">
        <ele>71</ele>
        <time>2019-08-18T09:48:24Z</time>
      </trkpt>
      <trkpt lat="47.34748" lon="-2.40171">
        <ele>71</ele>
        <time>2019-08-18T09:48:25Z</time>
      </trkpt>
      <trkpt lat="47.34744" lon="-2.40164">
        <ele>72</ele>
        <time>2019-08-18T09:48:26Z</time>
      </trkpt>
      <trkpt lat="47.34739" lon="-2.40158">
        <ele>72</ele>
        <time>2019-08-18T09:48:27Z</time>
      </trkpt>
      <trkpt lat="47.34734" lon="-2.40153">
        <ele>72</ele>
        <time>2019-08-18T09:48:28Z</time>
      </trkpt>
      <trkpt lat="47.34729" lon="-2.40147">
        <ele>71</ele>
        <time>2019-08-18T09:48:29Z</time>
      </trkpt>
      <trkpt lat="47.34724" lon="-2.40142">
        <ele>71</ele>
        <time>2019-08-18T09:48:30Z</time>
      </trkpt>
      <trkpt lat="47.34719" lon="-2.40139">
        <ele>72</ele>
        <time>2019-08-18T09:48:31Z</time>
      </trkpt>
      <trkpt lat="47.34713" lon="-2.40136">
        <ele>72</ele>
        <time>2019-08-18T09:48:32Z</time>
      </trkpt>
      <trkpt lat="47.34707" lon="-2.40133">
        <ele>71</ele>
        <time>2019-08-18T09:48:33Z</time>
      </trkpt>
      <trkpt lat="47.34701" lon="-2.40131">
        <ele>71</ele>
        <time>2019-08-18T09:48:34Z</time>
      </trkpt>
      <trkpt lat="47.34696" lon="-2.4013">
        <ele>72</ele>
        <time>2019-08-18T09:48:35Z</time>
      </trkpt>
      <trkpt lat="47.34684" lon="-2.40126">
        <ele>71</ele>
        <time>2019-08-18T09:48:37Z</time>
      </trkpt>
      <trkpt lat="47.34678" lon="-2.40125">
        <ele>71</ele>
        <time>2019-08-18T09:48:38Z</time>
      </trkpt>
      <trkpt lat="47.34673" lon="-2.40122">
        <ele>71</ele>
        <time>2019-08-18T09:48:39Z</time>
      </trkpt>
      <trkpt lat="47.34667" lon="-2.40117">
        <ele>71</ele>
        <time>2019-08-18T09:48:40Z</time>
      </trkpt>
      <trkpt lat="47.34649" lon="-2.40095">
        <ele>72</ele>
        <time>2019-08-18T09:48:44Z</time>
      </trkpt>
      <trkpt lat="47.34645" lon="-2.40089">
        <ele>72</ele>
        <time>2019-08-18T09:48:45Z</time>
      </trkpt>
      <trkpt lat="47.34637" lon="-2.40076">
        <ele>72</ele>
        <time>2019-08-18T09:48:47Z</time>
      </trkpt>
      <trkpt lat="47.34629" lon="-2.40063">
        <ele>73</ele>
        <time>2019-08-18T09:48:49Z</time>
      </trkpt>
      <trkpt lat="47.34625" lon="-2.40057">
        <ele>73</ele>
        <time>2019-08-18T09:48:50Z</time>
      </trkpt>
      <trkpt lat="47.34621" lon="-2.40051">
        <ele>73</ele>
        <time>2019-08-18T09:48:51Z</time>
      </trkpt>
      <trkpt lat="47.34617" lon="-2.40045">
        <ele>74</ele>
        <time>2019-08-18T09:48:52Z</time>
      </trkpt>
      <trkpt lat="47.34613" lon="-2.40039">
        <ele>74</ele>
        <time>2019-08-18T09:48:53Z</time>
      </trkpt>
      <trkpt lat="47.3461" lon="-2.40033">
        <ele>73</ele>
        <time>2019-08-18T09:48:54Z</time>
      </trkpt>
      <trkpt lat="47.34606" lon="-2.40027">
        <ele>73</ele>
        <time>2019-08-18T09:48:55Z</time>
      </trkpt>
      <trkpt lat="47.34603" lon="-2.40022">
        <ele>74</ele>
        <time>2019-08-18T09:48:56Z</time>
      </trkpt>
      <trkpt lat="47.346" lon="-2.40018">
        <ele>73</ele>
        <time>2019-08-18T09:48:57Z</time>
      </trkpt>
      <trkpt lat="47.34597" lon="-2.40013">
        <ele>73</ele>
        <time>2019-08-18T09:48:58Z</time>
      </trkpt>
      <trkpt lat="47.34594" lon="-2.40009">
        <ele>74</ele>
        <time>2019-08-18T09:48:59Z</time>
      </trkpt>
      <trkpt lat="47.34591" lon="-2.40004">
        <ele>74</ele>
        <time>2019-08-18T09:49:00Z</time>
      </trkpt>
      <trkpt lat="47.34588" lon="-2.4">
        <ele>74</ele>
        <time>2019-08-18T09:49:01Z</time>
      </trkpt>
      <trkpt lat="47.34584" lon="-2.39996">
        <ele>74</ele>
        <time>2019-08-18T09:49:03Z</time>
      </trkpt>
      <trkpt lat="47.34582" lon="-2.39994">
        <ele>74</ele>
        <time>2019-08-18T09:49:05Z</time>
      </trkpt>
      <trkpt lat="47.34582" lon="-2.39994">
        <ele>25</ele>
        <time>2019-08-18T09:49:11Z</time>
      </trkpt>
      <trkpt lat="47.34582" lon="-2.39994">
        <ele>25</ele>
        <time>2019-08-18T09:49:20Z</time>
      </trkpt>
      <trkpt lat="47.34583" lon="-2.39963">
        <ele>74</ele>
        <time>2019-08-18T09:49:20Z</time>
      </trkpt>
      <trkpt lat="47.34597" lon="-2.3992">
        <ele>68</ele>
        <time>2019-08-18T09:49:26Z</time>
      </trkpt>
      <trkpt lat="47.34599" lon="-2.39913">
        <ele>69</ele>
        <time>2019-08-18T09:49:27Z</time>
      </trkpt>
      <trkpt lat="47.34602" lon="-2.39903">
        <ele>68</ele>
        <time>2019-08-18T09:49:28Z</time>
      </trkpt>
      <trkpt lat="47.34604" lon="-2.39897">
        <ele>69</ele>
        <time>2019-08-18T09:49:29Z</time>
      </trkpt>
      <trkpt lat="47.34607" lon="-2.39888">
        <ele>68</ele>
        <time>2019-08-18T09:49:30Z</time>
      </trkpt>
      <trkpt lat="47.3461" lon="-2.39878">
        <ele>66</ele>
        <time>2019-08-18T09:49:31Z</time>
      </trkpt>
      <trkpt lat="47.3461" lon="-2.39869">
        <ele>66</ele>
        <time>2019-08-18T09:49:32Z</time>
      </trkpt>
      <trkpt lat="47.34597" lon="-2.39856">
        <ele>69</ele>
        <time>2019-08-18T09:49:35Z</time>
      </trkpt>
      <trkpt lat="47.34591" lon="-2.39854">
        <ele>71</ele>
        <time>2019-08-18T09:49:36Z</time>
      </trkpt>
      <trkpt lat="47.34586" lon="-2.39851">
        <ele>71</ele>
        <time>2019-08-18T09:49:37Z</time>
      </trkpt>
      <trkpt lat="47.3458" lon="-2.39848">
        <ele>72</ele>
        <time>2019-08-18T09:49:38Z</time>
      </trkpt>
      <trkpt lat="47.34575" lon="-2.39844">
        <ele>73</ele>
        <time>2019-08-18T09:49:39Z</time>
      </trkpt>
      <trkpt lat="47.3457" lon="-2.3984">
        <ele>72</ele>
        <time>2019-08-18T09:49:40Z</time>
      </trkpt>
      <trkpt lat="47.3456" lon="-2.39833">
        <ele>72</ele>
        <time>2019-08-18T09:49:42Z</time>
      </trkpt>
      <trkpt lat="47.34554" lon="-2.39829">
        <ele>72</ele>
        <time>2019-08-18T09:49:43Z</time>
      </trkpt>
      <trkpt lat="47.3455" lon="-2.39825">
        <ele>72</ele>
        <time>2019-08-18T09:49:44Z</time>
      </trkpt>
      <trkpt lat="47.34545" lon="-2.3982">
        <ele>72</ele>
        <time>2019-08-18T09:49:45Z</time>
      </trkpt>
      <trkpt lat="47.3454" lon="-2.39815">
        <ele>72</ele>
        <time>2019-08-18T09:49:46Z</time>
      </trkpt>
      <trkpt lat="47.34535" lon="-2.3981">
        <ele>72</ele>
        <time>2019-08-18T09:49:47Z</time>
      </trkpt>
      <trkpt lat="47.34515" lon="-2.39793">
        <ele>72</ele>
        <time>2019-08-18T09:49:51Z</time>
      </trkpt>
      <trkpt lat="47.3451" lon="-2.39788">
        <ele>73</ele>
        <time>2019-08-18T09:49:52Z</time>
      </trkpt>
      <trkpt lat="47.34505" lon="-2.39784">
        <ele>73</ele>
        <time>2019-08-18T09:49:53Z</time>
      </trkpt>
      <trkpt lat="47.34498" lon="-2.39781">
        <ele>73</ele>
        <time>2019-08-18T09:49:54Z</time>
      </trkpt>
      <trkpt lat="47.34492" lon="-2.39779">
        <ele>73</ele>
        <time>2019-08-18T09:49:55Z</time>
      </trkpt>
      <trkpt lat="47.34486" lon="-2.39777">
        <ele>72</ele>
        <time>2019-08-18T09:49:56Z</time>
      </trkpt>
      <trkpt lat="47.34481" lon="-2.39775">
        <ele>72</ele>
        <time>2019-08-18T09:49:57Z</time>
      </trkpt>
      <trkpt lat="47.3447" lon="-2.39772">
        <ele>73</ele>
        <time>2019-08-18T09:49:59Z</time>
      </trkpt>
      <trkpt lat="47.34465" lon="-2.39758">
        <ele>73</ele>
        <time>2019-08-18T09:50:01Z</time>
      </trkpt>
      <trkpt lat="47.34466" lon="-2.3975">
        <ele>72</ele>
        <time>2019-08-18T09:50:02Z</time>
      </trkpt>
      <trkpt lat="47.34468" lon="-2.39742">
        <ele>72</ele>
        <time>2019-08-18T09:50:03Z</time>
      </trkpt>
      <trkpt lat="47.3447" lon="-2.39723">
        <ele>72</ele>
        <time>2019-08-18T09:50:05Z</time>
      </trkpt>
      <trkpt lat="47.34472" lon="-2.39706">
        <ele>72</ele>
        <time>2019-08-18T09:50:07Z</time>
      </trkpt>
      <trkpt lat="47.34473" lon="-2.39699">
        <ele>72</ele>
        <time>2019-08-18T09:50:08Z</time>
      </trkpt>
      <trkpt lat="47.34477" lon="-2.39683">
        <ele>72</ele>
        <time>2019-08-18T09:50:10Z</time>
      </trkpt>
      <trkpt lat="47.34479" lon="-2.39676">
        <ele>72</ele>
        <time>2019-08-18T09:50:11Z</time>
      </trkpt>
      <trkpt lat="47.34483" lon="-2.39669">
        <ele>72</ele>
        <time>2019-08-18T09:50:12Z</time>
      </trkpt>
      <trkpt lat="47.34486" lon="-2.39661">
        <ele>73</ele>
        <time>2019-08-18T09:50:13Z</time>
      </trkpt>
      <trkpt lat="47.3449" lon="-2.39654">
        <ele>72</ele>
        <time>2019-08-18T09:50:14Z</time>
      </trkpt>
      <trkpt lat="47.34494" lon="-2.39648">
        <ele>73</ele>
        <time>2019-08-18T09:50:15Z</time>
      </trkpt>
      <trkpt lat="47.34499" lon="-2.39642">
        <ele>73</ele>
        <time>2019-08-18T09:50:16Z</time>
      </trkpt>
      <trkpt lat="47.34511" lon="-2.39621">
        <ele>72</ele>
        <time>2019-08-18T09:50:19Z</time>
      </trkpt>
      <trkpt lat="47.34518" lon="-2.39606">
        <ele>73</ele>
        <time>2019-08-18T09:50:21Z</time>
      </trkpt>
      <trkpt lat="47.3452" lon="-2.39598">
        <ele>73</ele>
        <time>2019-08-18T09:50:22Z</time>
      </trkpt>
      <trkpt lat="47.34523" lon="-2.39589">
        <ele>73</ele>
        <time>2019-08-18T09:50:23Z</time>
      </trkpt>
      <trkpt lat="47.34527" lon="-2.39582">
        <ele>73</ele>
        <time>2019-08-18T09:50:24Z</time>
      </trkpt>
      <trkpt lat="47.34534" lon="-2.39568">
        <ele>73</ele>
        <time>2019-08-18T09:50:26Z</time>
      </trkpt>
      <trkpt lat="47.34538" lon="-2.3956">
        <ele>73</ele>
        <time>2019-08-18T09:50:27Z</time>
      </trkpt>
      <trkpt lat="47.34541" lon="-2.39552">
        <ele>74</ele>
        <time>2019-08-18T09:50:28Z</time>
      </trkpt>
      <trkpt lat="47.34543" lon="-2.39544">
        <ele>74</ele>
        <time>2019-08-18T09:50:29Z</time>
      </trkpt>
      <trkpt lat="47.34545" lon="-2.39535">
        <ele>74</ele>
        <time>2019-08-18T09:50:30Z</time>
      </trkpt>
      <trkpt lat="47.34546" lon="-2.39526">
        <ele>74</ele>
        <time>2019-08-18T09:50:31Z</time>
      </trkpt>
      <trkpt lat="47.34549" lon="-2.39509">
        <ele>74</ele>
        <time>2019-08-18T09:50:33Z</time>
      </trkpt>
      <trkpt lat="47.34555" lon="-2.39473">
        <ele>75</ele>
        <time>2019-08-18T09:50:37Z</time>
      </trkpt>
      <trkpt lat="47.34565" lon="-2.39457">
        <ele>75</ele>
        <time>2019-08-18T09:50:39Z</time>
      </trkpt>
      <trkpt lat="47.34577" lon="-2.39446">
        <ele>74</ele>
        <time>2019-08-18T09:50:41Z</time>
      </trkpt>
      <trkpt lat="47.34582" lon="-2.3944">
        <ele>74</ele>
        <time>2019-08-18T09:50:42Z</time>
      </trkpt>
      <trkpt lat="47.34587" lon="-2.39434">
        <ele>73</ele>
        <time>2019-08-18T09:50:43Z</time>
      </trkpt>
      <trkpt lat="47.34593" lon="-2.39426">
        <ele>73</ele>
        <time>2019-08-18T09:50:44Z</time>
      </trkpt>
      <trkpt lat="47.34597" lon="-2.39419">
        <ele>73</ele>
        <time>2019-08-18T09:50:45Z</time>
      </trkpt>
      <trkpt lat="47.34602" lon="-2.3941">
        <ele>72</ele>
        <time>2019-08-18T09:50:46Z</time>
      </trkpt>
      <trkpt lat="47.34607" lon="-2.39403">
        <ele>72</ele>
        <time>2019-08-18T09:50:47Z</time>
      </trkpt>
      <trkpt lat="47.34611" lon="-2.39396">
        <ele>71</ele>
        <time>2019-08-18T09:50:48Z</time>
      </trkpt>
      <trkpt lat="47.34615" lon="-2.39389">
        <ele>71</ele>
        <time>2019-08-18T09:50:49Z</time>
      </trkpt>
      <trkpt lat="47.3462" lon="-2.39381">
        <ele>71</ele>
        <time>2019-08-18T09:50:50Z</time>
      </trkpt>
      <trkpt lat="47.34624" lon="-2.39374">
        <ele>71</ele>
        <time>2019-08-18T09:50:51Z</time>
      </trkpt>
      <trkpt lat="47.34629" lon="-2.39366">
        <ele>70</ele>
        <time>2019-08-18T09:50:52Z</time>
      </trkpt>
      <trkpt lat="47.34643" lon="-2.39345">
        <ele>70</ele>
        <time>2019-08-18T09:50:55Z</time>
      </trkpt>
      <trkpt lat="47.34648" lon="-2.39338">
        <ele>70</ele>
        <time>2019-08-18T09:50:56Z</time>
      </trkpt>
      <trkpt lat="47.34652" lon="-2.39333">
        <ele>70</ele>
        <time>2019-08-18T09:50:57Z</time>
      </trkpt>
      <trkpt lat="47.34657" lon="-2.39322">
        <ele>70</ele>
        <time>2019-08-18T09:50:59Z</time>
      </trkpt>
      <trkpt lat="47.34657" lon="-2.39312">
        <ele>70</ele>
        <time>2019-08-18T09:51:01Z</time>
      </trkpt>
      <trkpt lat="47.34649" lon="-2.39296">
        <ele>70</ele>
        <time>2019-08-18T09:51:04Z</time>
      </trkpt>
      <trkpt lat="47.34644" lon="-2.39291">
        <ele>70</ele>
        <time>2019-08-18T09:51:05Z</time>
      </trkpt>
      <trkpt lat="47.34639" lon="-2.39287">
        <ele>71</ele>
        <time>2019-08-18T09:51:06Z</time>
      </trkpt>
      <trkpt lat="47.34634" lon="-2.39283">
        <ele>71</ele>
        <time>2019-08-18T09:51:07Z</time>
      </trkpt>
      <trkpt lat="47.34629" lon="-2.39279">
        <ele>70</ele>
        <time>2019-08-18T09:51:08Z</time>
      </trkpt>
      <trkpt lat="47.34624" lon="-2.39274">
        <ele>70</ele>
        <time>2019-08-18T09:51:09Z</time>
      </trkpt>
      <trkpt lat="47.34618" lon="-2.3927">
        <ele>70</ele>
        <time>2019-08-18T09:51:10Z</time>
      </trkpt>
      <trkpt lat="47.34613" lon="-2.39266">
        <ele>70</ele>
        <time>2019-08-18T09:51:11Z</time>
      </trkpt>
      <trkpt lat="47.34608" lon="-2.39262">
        <ele>69</ele>
        <time>2019-08-18T09:51:12Z</time>
      </trkpt>
      <trkpt lat="47.34602" lon="-2.39258">
        <ele>69</ele>
        <time>2019-08-18T09:51:13Z</time>
      </trkpt>
      <trkpt lat="47.34596" lon="-2.39254">
        <ele>69</ele>
        <time>2019-08-18T09:51:14Z</time>
      </trkpt>
      <trkpt lat="47.3459" lon="-2.3925">
        <ele>69</ele>
        <time>2019-08-18T09:51:15Z</time>
      </trkpt>
      <trkpt lat="47.34584" lon="-2.39246">
        <ele>69</ele>
        <time>2019-08-18T09:51:16Z</time>
      </trkpt>
      <trkpt lat="47.34578" lon="-2.39242">
        <ele>69</ele>
        <time>2019-08-18T09:51:17Z</time>
      </trkpt>
      <trkpt lat="47.34559" lon="-2.39233">
        <ele>68</ele>
        <time>2019-08-18T09:51:20Z</time>
      </trkpt>
      <trkpt lat="47.34553" lon="-2.39231">
        <ele>68</ele>
        <time>2019-08-18T09:51:21Z</time>
      </trkpt>
      <trkpt lat="47.34547" lon="-2.39231">
        <ele>69</ele>
        <time>2019-08-18T09:51:22Z</time>
      </trkpt>
      <trkpt lat="47.34541" lon="-2.39229">
        <ele>69</ele>
        <time>2019-08-18T09:51:23Z</time>
      </trkpt>
      <trkpt lat="47.34523" lon="-2.39228">
        <ele>69</ele>
        <time>2019-08-18T09:51:26Z</time>
      </trkpt>
      <trkpt lat="47.34511" lon="-2.39229">
        <ele>69</ele>
        <time>2019-08-18T09:51:28Z</time>
      </trkpt>
      <trkpt lat="47.345" lon="-2.3923">
        <ele>69</ele>
        <time>2019-08-18T09:51:30Z</time>
      </trkpt>
      <trkpt lat="47.34495" lon="-2.39231">
        <ele>70</ele>
        <time>2019-08-18T09:51:31Z</time>
      </trkpt>
      <trkpt lat="47.3449" lon="-2.39232">
        <ele>70</ele>
        <time>2019-08-18T09:51:32Z</time>
      </trkpt>
      <trkpt lat="47.34485" lon="-2.39233">
        <ele>71</ele>
        <time>2019-08-18T09:51:33Z</time>
      </trkpt>
      <trkpt lat="47.3448" lon="-2.39235">
        <ele>71</ele>
        <time>2019-08-18T09:51:34Z</time>
      </trkpt>
      <trkpt lat="47.34475" lon="-2.39237">
        <ele>71</ele>
        <time>2019-08-18T09:51:35Z</time>
      </trkpt>
      <trkpt lat="47.34465" lon="-2.39239">
        <ele>71</ele>
        <time>2019-08-18T09:51:37Z</time>
      </trkpt>
      <trkpt lat="47.3446" lon="-2.39241">
        <ele>72</ele>
        <time>2019-08-18T09:51:38Z</time>
      </trkpt>
      <trkpt lat="47.34455" lon="-2.39243">
        <ele>72</ele>
        <time>2019-08-18T09:51:39Z</time>
      </trkpt>
      <trkpt lat="47.34451" lon="-2.39245">
        <ele>72</ele>
        <time>2019-08-18T09:51:40Z</time>
      </trkpt>
      <trkpt lat="47.34446" lon="-2.39247">
        <ele>72</ele>
        <time>2019-08-18T09:51:41Z</time>
      </trkpt>
      <trkpt lat="47.34441" lon="-2.39249">
        <ele>72</ele>
        <time>2019-08-18T09:51:42Z</time>
      </trkpt>
      <trkpt lat="47.34432" lon="-2.39252">
        <ele>72</ele>
        <time>2019-08-18T09:51:44Z</time>
      </trkpt>
      <trkpt lat="47.34427" lon="-2.39254">
        <ele>72</ele>
        <time>2019-08-18T09:51:45Z</time>
      </trkpt>
      <trkpt lat="47.34423" lon="-2.39255">
        <ele>72</ele>
        <time>2019-08-18T09:51:46Z</time>
      </trkpt>
      <trkpt lat="47.34419" lon="-2.39257">
        <ele>71</ele>
        <time>2019-08-18T09:51:47Z</time>
      </trkpt>
      <trkpt lat="47.34415" lon="-2.39258">
        <ele>71</ele>
        <time>2019-08-18T09:51:48Z</time>
      </trkpt>
      <trkpt lat="47.3441" lon="-2.39259">
        <ele>71</ele>
        <time>2019-08-18T09:51:49Z</time>
      </trkpt>
      <trkpt lat="47.34406" lon="-2.3926">
        <ele>71</ele>
        <time>2019-08-18T09:51:50Z</time>
      </trkpt>
      <trkpt lat="47.34402" lon="-2.39261">
        <ele>71</ele>
        <time>2019-08-18T09:51:51Z</time>
      </trkpt>
      <trkpt lat="47.34397" lon="-2.39263">
        <ele>72</ele>
        <time>2019-08-18T09:51:52Z</time>
      </trkpt>
      <trkpt lat="47.34392" lon="-2.39265">
        <ele>72</ele>
        <time>2019-08-18T09:51:53Z</time>
      </trkpt>
      <trkpt lat="47.34388" lon="-2.39267">
        <ele>72</ele>
        <time>2019-08-18T09:51:54Z</time>
      </trkpt>
      <trkpt lat="47.34383" lon="-2.39269">
        <ele>72</ele>
        <time>2019-08-18T09:51:55Z</time>
      </trkpt>
      <trkpt lat="47.34379" lon="-2.39271">
        <ele>72</ele>
        <time>2019-08-18T09:51:56Z</time>
      </trkpt>
      <trkpt lat="47.34374" lon="-2.39273">
        <ele>72</ele>
        <time>2019-08-18T09:51:57Z</time>
      </trkpt>
      <trkpt lat="47.3437" lon="-2.39274">
        <ele>72</ele>
        <time>2019-08-18T09:51:58Z</time>
      </trkpt>
      <trkpt lat="47.34365" lon="-2.39276">
        <ele>72</ele>
        <time>2019-08-18T09:51:59Z</time>
      </trkpt>
      <trkpt lat="47.34357" lon="-2.39281">
        <ele>74</ele>
        <time>2019-08-18T09:52:01Z</time>
      </trkpt>
      <trkpt lat="47.34353" lon="-2.39283">
        <ele>74</ele>
        <time>2019-08-18T09:52:02Z</time>
      </trkpt>
      <trkpt lat="47.34336" lon="-2.39292">
        <ele>75</ele>
        <time>2019-08-18T09:52:06Z</time>
      </trkpt>
      <trkpt lat="47.34328" lon="-2.39297">
        <ele>75</ele>
        <time>2019-08-18T09:52:08Z</time>
      </trkpt>
      <trkpt lat="47.34324" lon="-2.39299">
        <ele>75</ele>
        <time>2019-08-18T09:52:09Z</time>
      </trkpt>
      <trkpt lat="47.3431" lon="-2.39307">
        <ele>76</ele>
        <time>2019-08-18T09:52:12Z</time>
      </trkpt>
      <trkpt lat="47.34305" lon="-2.39309">
        <ele>75</ele>
        <time>2019-08-18T09:52:13Z</time>
      </trkpt>
      <trkpt lat="47.34301" lon="-2.39311">
        <ele>76</ele>
        <time>2019-08-18T09:52:14Z</time>
      </trkpt>
      <trkpt lat="47.34296" lon="-2.39314">
        <ele>76</ele>
        <time>2019-08-18T09:52:15Z</time>
      </trkpt>
      <trkpt lat="47.34292" lon="-2.39316">
        <ele>76</ele>
        <time>2019-08-18T09:52:16Z</time>
      </trkpt>
      <trkpt lat="47.34287" lon="-2.39318">
        <ele>76</ele>
        <time>2019-08-18T09:52:17Z</time>
      </trkpt>
      <trkpt lat="47.34282" lon="-2.3932">
        <ele>76</ele>
        <time>2019-08-18T09:52:18Z</time>
      </trkpt>
      <trkpt lat="47.34278" lon="-2.39322">
        <ele>76</ele>
        <time>2019-08-18T09:52:19Z</time>
      </trkpt>
      <trkpt lat="47.3427" lon="-2.39327">
        <ele>77</ele>
        <time>2019-08-18T09:52:21Z</time>
      </trkpt>
      <trkpt lat="47.34265" lon="-2.39329">
        <ele>77</ele>
        <time>2019-08-18T09:52:22Z</time>
      </trkpt>
      <trkpt lat="47.34258" lon="-2.39335">
        <ele>78</ele>
        <time>2019-08-18T09:52:24Z</time>
      </trkpt>
      <trkpt lat="47.34253" lon="-2.39338">
        <ele>78</ele>
        <time>2019-08-18T09:52:25Z</time>
      </trkpt>
      <trkpt lat="47.34249" lon="-2.39341">
        <ele>77</ele>
        <time>2019-08-18T09:52:26Z</time>
      </trkpt>
      <trkpt lat="47.3424" lon="-2.39348">
        <ele>78</ele>
        <time>2019-08-18T09:52:28Z</time>
      </trkpt>
      <trkpt lat="47.34236" lon="-2.39351">
        <ele>78</ele>
        <time>2019-08-18T09:52:29Z</time>
      </trkpt>
      <trkpt lat="47.34232" lon="-2.39354">
        <ele>78</ele>
        <time>2019-08-18T09:52:30Z</time>
      </trkpt>
      <trkpt lat="47.34228" lon="-2.39357">
        <ele>78</ele>
        <time>2019-08-18T09:52:31Z</time>
      </trkpt>
      <trkpt lat="47.34213" lon="-2.39367">
        <ele>79</ele>
        <time>2019-08-18T09:52:35Z</time>
      </trkpt>
      <trkpt lat="47.34209" lon="-2.39369">
        <ele>80</ele>
        <time>2019-08-18T09:52:36Z</time>
      </trkpt>
      <trkpt lat="47.34205" lon="-2.39371">
        <ele>80</ele>
        <time>2019-08-18T09:52:37Z</time>
      </trkpt>
      <trkpt lat="47.34201" lon="-2.39373">
        <ele>80</ele>
        <time>2019-08-18T09:52:38Z</time>
      </trkpt>
      <trkpt lat="47.34191" lon="-2.39379">
        <ele>81</ele>
        <time>2019-08-18T09:52:41Z</time>
      </trkpt>
      <trkpt lat="47.34182" lon="-2.39384">
        <ele>81</ele>
        <time>2019-08-18T09:52:43Z</time>
      </trkpt>
      <trkpt lat="47.3417" lon="-2.39393">
        <ele>82</ele>
        <time>2019-08-18T09:52:46Z</time>
      </trkpt>
      <trkpt lat="47.34165" lon="-2.39397">
        <ele>82</ele>
        <time>2019-08-18T09:52:47Z</time>
      </trkpt>
      <trkpt lat="47.34161" lon="-2.39399">
        <ele>83</ele>
        <time>2019-08-18T09:52:48Z</time>
      </trkpt>
      <trkpt lat="47.34153" lon="-2.39405">
        <ele>83</ele>
        <time>2019-08-18T09:52:50Z</time>
      </trkpt>
      <trkpt lat="47.34144" lon="-2.3941">
        <ele>83</ele>
        <time>2019-08-18T09:52:52Z</time>
      </trkpt>
      <trkpt lat="47.34134" lon="-2.39416">
        <ele>83</ele>
        <time>2019-08-18T09:52:54Z</time>
      </trkpt>
      <trkpt lat="47.34128" lon="-2.39419">
        <ele>83</ele>
        <time>2019-08-18T09:52:55Z</time>
      </trkpt>
      <trkpt lat="47.34123" lon="-2.39423">
        <ele>83</ele>
        <time>2019-08-18T09:52:56Z</time>
      </trkpt>
      <trkpt lat="47.34118" lon="-2.39426">
        <ele>83</ele>
        <time>2019-08-18T09:52:57Z</time>
      </trkpt>
      <trkpt lat="47.34111" lon="-2.3943">
        <ele>83</ele>
        <time>2019-08-18T09:52:58Z</time>
      </trkpt>
      <trkpt lat="47.34106" lon="-2.39432">
        <ele>83</ele>
        <time>2019-08-18T09:52:59Z</time>
      </trkpt>
      <trkpt lat="47.34096" lon="-2.39429">
        <ele>83</ele>
        <time>2019-08-18T09:53:01Z</time>
      </trkpt>
      <trkpt lat="47.34091" lon="-2.39424">
        <ele>83</ele>
        <time>2019-08-18T09:53:02Z</time>
      </trkpt>
      <trkpt lat="47.34087" lon="-2.39412">
        <ele>83</ele>
        <time>2019-08-18T09:53:04Z</time>
      </trkpt>
      <trkpt lat="47.34082" lon="-2.39389">
        <ele>83</ele>
        <time>2019-08-18T09:53:07Z</time>
      </trkpt>
      <trkpt lat="47.34081" lon="-2.39382">
        <ele>83</ele>
        <time>2019-08-18T09:53:08Z</time>
      </trkpt>
      <trkpt lat="47.34077" lon="-2.39365">
        <ele>83</ele>
        <time>2019-08-18T09:53:10Z</time>
      </trkpt>
      <trkpt lat="47.34075" lon="-2.39356">
        <ele>83</ele>
        <time>2019-08-18T09:53:11Z</time>
      </trkpt>
      <trkpt lat="47.34074" lon="-2.39347">
        <ele>83</ele>
        <time>2019-08-18T09:53:12Z</time>
      </trkpt>
      <trkpt lat="47.3407" lon="-2.39321">
        <ele>84</ele>
        <time>2019-08-18T09:53:15Z</time>
      </trkpt>
      <trkpt lat="47.3407" lon="-2.39312">
        <ele>84</ele>
        <time>2019-08-18T09:53:16Z</time>
      </trkpt>
      <trkpt lat="47.34068" lon="-2.39304">
        <ele>84</ele>
        <time>2019-08-18T09:53:17Z</time>
      </trkpt>
      <trkpt lat="47.34066" lon="-2.39296">
        <ele>84</ele>
        <time>2019-08-18T09:53:18Z</time>
      </trkpt>
      <trkpt lat="47.34065" lon="-2.39288">
        <ele>84</ele>
        <time>2019-08-18T09:53:19Z</time>
      </trkpt>
      <trkpt lat="47.34063" lon="-2.39281">
        <ele>84</ele>
        <time>2019-08-18T09:53:20Z</time>
      </trkpt>
      <trkpt lat="47.34061" lon="-2.39266">
        <ele>83</ele>
        <time>2019-08-18T09:53:22Z</time>
      </trkpt>
      <trkpt lat="47.3406" lon="-2.39258">
        <ele>83</ele>
        <time>2019-08-18T09:53:23Z</time>
      </trkpt>
      <trkpt lat="47.34053" lon="-2.39258">
        <ele>84</ele>
        <time>2019-08-18T09:53:25Z</time>
      </trkpt>
      <trkpt lat="47.34047" lon="-2.39258">
        <ele>83</ele>
        <time>2019-08-18T09:53:26Z</time>
      </trkpt>
      <trkpt lat="47.34042" lon="-2.39258">
        <ele>83</ele>
        <time>2019-08-18T09:53:27Z</time>
      </trkpt>
      <trkpt lat="47.34036" lon="-2.39259">
        <ele>83</ele>
        <time>2019-08-18T09:53:28Z</time>
      </trkpt>
      <trkpt lat="47.3403" lon="-2.39259">
        <ele>84</ele>
        <time>2019-08-18T09:53:29Z</time>
      </trkpt>
      <trkpt lat="47.34024" lon="-2.39258">
        <ele>84</ele>
        <time>2019-08-18T09:53:30Z</time>
      </trkpt>
      <trkpt lat="47.34018" lon="-2.39258">
        <ele>83</ele>
        <time>2019-08-18T09:53:31Z</time>
      </trkpt>
      <trkpt lat="47.34013" lon="-2.39258">
        <ele>83</ele>
        <time>2019-08-18T09:53:32Z</time>
      </trkpt>
      <trkpt lat="47.34007" lon="-2.39259">
        <ele>83</ele>
        <time>2019-08-18T09:53:33Z</time>
      </trkpt>
      <trkpt lat="47.34002" lon="-2.3926">
        <ele>82</ele>
        <time>2019-08-18T09:53:34Z</time>
      </trkpt>
      <trkpt lat="47.33997" lon="-2.39261">
        <ele>82</ele>
        <time>2019-08-18T09:53:35Z</time>
      </trkpt>
      <trkpt lat="47.33991" lon="-2.39262">
        <ele>82</ele>
        <time>2019-08-18T09:53:36Z</time>
      </trkpt>
      <trkpt lat="47.3398" lon="-2.39263">
        <ele>82</ele>
        <time>2019-08-18T09:53:38Z</time>
      </trkpt>
      <trkpt lat="47.33975" lon="-2.39263">
        <ele>82</ele>
        <time>2019-08-18T09:53:39Z</time>
      </trkpt>
      <trkpt lat="47.33969" lon="-2.39264">
        <ele>82</ele>
        <time>2019-08-18T09:53:40Z</time>
      </trkpt>
      <trkpt lat="47.33964" lon="-2.39265">
        <ele>82</ele>
        <time>2019-08-18T09:53:41Z</time>
      </trkpt>
      <trkpt lat="47.33959" lon="-2.39266">
        <ele>82</ele>
        <time>2019-08-18T09:53:42Z</time>
      </trkpt>
      <trkpt lat="47.33954" lon="-2.39267">
        <ele>82</ele>
        <time>2019-08-18T09:53:43Z</time>
      </trkpt>
      <trkpt lat="47.33949" lon="-2.39268">
        <ele>82</ele>
        <time>2019-08-18T09:53:44Z</time>
      </trkpt>
      <trkpt lat="47.33943" lon="-2.39269">
        <ele>82</ele>
        <time>2019-08-18T09:53:45Z</time>
      </trkpt>
      <trkpt lat="47.33938" lon="-2.3927">
        <ele>83</ele>
        <time>2019-08-18T09:53:46Z</time>
      </trkpt>
      <trkpt lat="47.33933" lon="-2.39271">
        <ele>83</ele>
        <time>2019-08-18T09:53:47Z</time>
      </trkpt>
      <trkpt lat="47.33923" lon="-2.39274">
        <ele>84</ele>
        <time>2019-08-18T09:53:49Z</time>
      </trkpt>
      <trkpt lat="47.33918" lon="-2.39275">
        <ele>84</ele>
        <time>2019-08-18T09:53:50Z</time>
      </trkpt>
      <trkpt lat="47.33907" lon="-2.39277">
        <ele>84</ele>
        <time>2019-08-18T09:53:52Z</time>
      </trkpt>
      <trkpt lat="47.33896" lon="-2.39279">
        <ele>85</ele>
        <time>2019-08-18T09:53:54Z</time>
      </trkpt>
      <trkpt lat="47.3389" lon="-2.3928">
        <ele>84</ele>
        <time>2019-08-18T09:53:55Z</time>
      </trkpt>
      <trkpt lat="47.33878" lon="-2.39281">
        <ele>85</ele>
        <time>2019-08-18T09:53:57Z</time>
      </trkpt>
      <trkpt lat="47.33872" lon="-2.39282">
        <ele>85</ele>
        <time>2019-08-18T09:53:58Z</time>
      </trkpt>
      <trkpt lat="47.33867" lon="-2.39283">
        <ele>85</ele>
        <time>2019-08-18T09:53:59Z</time>
      </trkpt>
      <trkpt lat="47.33861" lon="-2.39285">
        <ele>85</ele>
        <time>2019-08-18T09:54:00Z</time>
      </trkpt>
      <trkpt lat="47.33856" lon="-2.39286">
        <ele>85</ele>
        <time>2019-08-18T09:54:01Z</time>
      </trkpt>
      <trkpt lat="47.33851" lon="-2.39287">
        <ele>85</ele>
        <time>2019-08-18T09:54:02Z</time>
      </trkpt>
      <trkpt lat="47.33845" lon="-2.39288">
        <ele>85</ele>
        <time>2019-08-18T09:54:03Z</time>
      </trkpt>
      <trkpt lat="47.3384" lon="-2.39288">
        <ele>85</ele>
        <time>2019-08-18T09:54:04Z</time>
      </trkpt>
      <trkpt lat="47.33834" lon="-2.39289">
        <ele>85</ele>
        <time>2019-08-18T09:54:05Z</time>
      </trkpt>
      <trkpt lat="47.33829" lon="-2.3929">
        <ele>85</ele>
        <time>2019-08-18T09:54:06Z</time>
      </trkpt>
      <trkpt lat="47.33819" lon="-2.39292">
        <ele>85</ele>
        <time>2019-08-18T09:54:08Z</time>
      </trkpt>
      <trkpt lat="47.33814" lon="-2.39293">
        <ele>85</ele>
        <time>2019-08-18T09:54:09Z</time>
      </trkpt>
      <trkpt lat="47.33809" lon="-2.39293">
        <ele>85</ele>
        <time>2019-08-18T09:54:10Z</time>
      </trkpt>
      <trkpt lat="47.33803" lon="-2.39294">
        <ele>85</ele>
        <time>2019-08-18T09:54:11Z</time>
      </trkpt>
      <trkpt lat="47.33798" lon="-2.39294">
        <ele>85</ele>
        <time>2019-08-18T09:54:12Z</time>
      </trkpt>
      <trkpt lat="47.33793" lon="-2.39295">
        <ele>85</ele>
        <time>2019-08-18T09:54:13Z</time>
      </trkpt>
      <trkpt lat="47.33782" lon="-2.39298">
        <ele>85</ele>
        <time>2019-08-18T09:54:15Z</time>
      </trkpt>
      <trkpt lat="47.33777" lon="-2.39299">
        <ele>85</ele>
        <time>2019-08-18T09:54:16Z</time>
      </trkpt>
      <trkpt lat="47.33762" lon="-2.39302">
        <ele>85</ele>
        <time>2019-08-18T09:54:19Z</time>
      </trkpt>
      <trkpt lat="47.33752" lon="-2.39303">
        <ele>85</ele>
        <time>2019-08-18T09:54:21Z</time>
      </trkpt>
      <trkpt lat="47.33748" lon="-2.39303">
        <ele>85</ele>
        <time>2019-08-18T09:54:22Z</time>
      </trkpt>
      <trkpt lat="47.33743" lon="-2.39304">
        <ele>86</ele>
        <time>2019-08-18T09:54:23Z</time>
      </trkpt>
      <trkpt lat="47.33735" lon="-2.39305">
        <ele>86</ele>
        <time>2019-08-18T09:54:25Z</time>
      </trkpt>
      <trkpt lat="47.3373" lon="-2.39305">
        <ele>86</ele>
        <time>2019-08-18T09:54:26Z</time>
      </trkpt>
      <trkpt lat="47.33725" lon="-2.39305">
        <ele>86</ele>
        <time>2019-08-18T09:54:27Z</time>
      </trkpt>
      <trkpt lat="47.3372" lon="-2.39306">
        <ele>86</ele>
        <time>2019-08-18T09:54:28Z</time>
      </trkpt>
      <trkpt lat="47.33716" lon="-2.39309">
        <ele>86</ele>
        <time>2019-08-18T09:54:29Z</time>
      </trkpt>
      <trkpt lat="47.33713" lon="-2.39315">
        <ele>86</ele>
        <time>2019-08-18T09:54:30Z</time>
      </trkpt>
      <trkpt lat="47.33712" lon="-2.39322">
        <ele>86</ele>
        <time>2019-08-18T09:54:31Z</time>
      </trkpt>
      <trkpt lat="47.33712" lon="-2.3933">
        <ele>86</ele>
        <time>2019-08-18T09:54:32Z</time>
      </trkpt>
      <trkpt lat="47.33711" lon="-2.39338">
        <ele>86</ele>
        <time>2019-08-18T09:54:33Z</time>
      </trkpt>
      <trkpt lat="47.33711" lon="-2.39351">
        <ele>86</ele>
        <time>2019-08-18T09:54:35Z</time>
      </trkpt>
      <trkpt lat="47.3371" lon="-2.39358">
        <ele>86</ele>
        <time>2019-08-18T09:54:36Z</time>
      </trkpt>
      <trkpt lat="47.3371" lon="-2.39372">
        <ele>87</ele>
        <time>2019-08-18T09:54:38Z</time>
      </trkpt>
      <trkpt lat="47.33709" lon="-2.39385">
        <ele>87</ele>
        <time>2019-08-18T09:54:40Z</time>
      </trkpt>
      <trkpt lat="47.33708" lon="-2.39397">
        <ele>87</ele>
        <time>2019-08-18T09:54:42Z</time>
      </trkpt>
      <trkpt lat="47.33708" lon="-2.39404">
        <ele>88</ele>
        <time>2019-08-18T09:54:43Z</time>
      </trkpt>
      <trkpt lat="47.33707" lon="-2.39411">
        <ele>88</ele>
        <time>2019-08-18T09:54:44Z</time>
      </trkpt>
      <trkpt lat="47.33707" lon="-2.39418">
        <ele>88</ele>
        <time>2019-08-18T09:54:45Z</time>
      </trkpt>
      <trkpt lat="47.33705" lon="-2.39424">
        <ele>88</ele>
        <time>2019-08-18T09:54:46Z</time>
      </trkpt>
      <trkpt lat="47.33704" lon="-2.39431">
        <ele>88</ele>
        <time>2019-08-18T09:54:47Z</time>
      </trkpt>
      <trkpt lat="47.33701" lon="-2.39446">
        <ele>87</ele>
        <time>2019-08-18T09:54:49Z</time>
      </trkpt>
      <trkpt lat="47.33699" lon="-2.39453">
        <ele>88</ele>
        <time>2019-08-18T09:54:50Z</time>
      </trkpt>
      <trkpt lat="47.33697" lon="-2.3946">
        <ele>88</ele>
        <time>2019-08-18T09:54:51Z</time>
      </trkpt>
      <trkpt lat="47.33691" lon="-2.39481">
        <ele>88</ele>
        <time>2019-08-18T09:54:54Z</time>
      </trkpt>
      <trkpt lat="47.33689" lon="-2.3949">
        <ele>87</ele>
        <time>2019-08-18T09:54:55Z</time>
      </trkpt>
      <trkpt lat="47.33687" lon="-2.39497">
        <ele>87</ele>
        <time>2019-08-18T09:54:56Z</time>
      </trkpt>
      <trkpt lat="47.33684" lon="-2.39504">
        <ele>87</ele>
        <time>2019-08-18T09:54:57Z</time>
      </trkpt>
      <trkpt lat="47.33682" lon="-2.39511">
        <ele>87</ele>
        <time>2019-08-18T09:54:58Z</time>
      </trkpt>
      <trkpt lat="47.33679" lon="-2.39519">
        <ele>87</ele>
        <time>2019-08-18T09:54:59Z</time>
      </trkpt>
      <trkpt lat="47.33677" lon="-2.39526">
        <ele>88</ele>
        <time>2019-08-18T09:55:00Z</time>
      </trkpt>
      <trkpt lat="47.33674" lon="-2.39533">
        <ele>87</ele>
        <time>2019-08-18T09:55:01Z</time>
      </trkpt>
      <trkpt lat="47.33671" lon="-2.3954">
        <ele>87</ele>
        <time>2019-08-18T09:55:02Z</time>
      </trkpt>
      <trkpt lat="47.33669" lon="-2.39548">
        <ele>88</ele>
        <time>2019-08-18T09:55:03Z</time>
      </trkpt>
      <trkpt lat="47.33666" lon="-2.39555">
        <ele>87</ele>
        <time>2019-08-18T09:55:04Z</time>
      </trkpt>
      <trkpt lat="47.33664" lon="-2.39563">
        <ele>87</ele>
        <time>2019-08-18T09:55:05Z</time>
      </trkpt>
      <trkpt lat="47.33661" lon="-2.39571">
        <ele>87</ele>
        <time>2019-08-18T09:55:06Z</time>
      </trkpt>
      <trkpt lat="47.33658" lon="-2.39578">
        <ele>87</ele>
        <time>2019-08-18T09:55:07Z</time>
      </trkpt>
      <trkpt lat="47.33655" lon="-2.39587">
        <ele>87</ele>
        <time>2019-08-18T09:55:08Z</time>
      </trkpt>
      <trkpt lat="47.33652" lon="-2.39595">
        <ele>87</ele>
        <time>2019-08-18T09:55:09Z</time>
      </trkpt>
      <trkpt lat="47.3365" lon="-2.39603">
        <ele>87</ele>
        <time>2019-08-18T09:55:10Z</time>
      </trkpt>
      <trkpt lat="47.33647" lon="-2.39611">
        <ele>87</ele>
        <time>2019-08-18T09:55:11Z</time>
      </trkpt>
      <trkpt lat="47.33644" lon="-2.3962">
        <ele>87</ele>
        <time>2019-08-18T09:55:12Z</time>
      </trkpt>
      <trkpt lat="47.33641" lon="-2.39628">
        <ele>86</ele>
        <time>2019-08-18T09:55:13Z</time>
      </trkpt>
      <trkpt lat="47.33638" lon="-2.39637">
        <ele>86</ele>
        <time>2019-08-18T09:55:14Z</time>
      </trkpt>
      <trkpt lat="47.33634" lon="-2.39646">
        <ele>86</ele>
        <time>2019-08-18T09:55:15Z</time>
      </trkpt>
      <trkpt lat="47.33631" lon="-2.39654">
        <ele>85</ele>
        <time>2019-08-18T09:55:16Z</time>
      </trkpt>
      <trkpt lat="47.33626" lon="-2.39662">
        <ele>85</ele>
        <time>2019-08-18T09:55:17Z</time>
      </trkpt>
      <trkpt lat="47.33618" lon="-2.39676">
        <ele>86</ele>
        <time>2019-08-18T09:55:19Z</time>
      </trkpt>
      <trkpt lat="47.33609" lon="-2.3969">
        <ele>85</ele>
        <time>2019-08-18T09:55:21Z</time>
      </trkpt>
      <trkpt lat="47.33605" lon="-2.39697">
        <ele>85</ele>
        <time>2019-08-18T09:55:22Z</time>
      </trkpt>
      <trkpt lat="47.336" lon="-2.39702">
        <ele>85</ele>
        <time>2019-08-18T09:55:23Z</time>
      </trkpt>
      <trkpt lat="47.33597" lon="-2.39709">
        <ele>85</ele>
        <time>2019-08-18T09:55:24Z</time>
      </trkpt>
      <trkpt lat="47.33592" lon="-2.39715">
        <ele>84</ele>
        <time>2019-08-18T09:55:25Z</time>
      </trkpt>
      <trkpt lat="47.33588" lon="-2.39722">
        <ele>85</ele>
        <time>2019-08-18T09:55:26Z</time>
      </trkpt>
      <trkpt lat="47.33585" lon="-2.39729">
        <ele>85</ele>
        <time>2019-08-18T09:55:27Z</time>
      </trkpt>
      <trkpt lat="47.33581" lon="-2.39735">
        <ele>85</ele>
        <time>2019-08-18T09:55:28Z</time>
      </trkpt>
      <trkpt lat="47.33577" lon="-2.39741">
        <ele>85</ele>
        <time>2019-08-18T09:55:29Z</time>
      </trkpt>
      <trkpt lat="47.33568" lon="-2.3975">
        <ele>86</ele>
        <time>2019-08-18T09:55:31Z</time>
      </trkpt>
      <trkpt lat="47.33564" lon="-2.39754">
        <ele>86</ele>
        <time>2019-08-18T09:55:32Z</time>
      </trkpt>
      <trkpt lat="47.3356" lon="-2.39758">
        <ele>86</ele>
        <time>2019-08-18T09:55:33Z</time>
      </trkpt>
      <trkpt lat="47.33551" lon="-2.39766">
        <ele>86</ele>
        <time>2019-08-18T09:55:35Z</time>
      </trkpt>
      <trkpt lat="47.33546" lon="-2.39772">
        <ele>87</ele>
        <time>2019-08-18T09:55:36Z</time>
      </trkpt>
      <trkpt lat="47.33542" lon="-2.39777">
        <ele>87</ele>
        <time>2019-08-18T09:55:37Z</time>
      </trkpt>
      <trkpt lat="47.33538" lon="-2.39783">
        <ele>87</ele>
        <time>2019-08-18T09:55:38Z</time>
      </trkpt>
      <trkpt lat="47.33534" lon="-2.39788">
        <ele>87</ele>
        <time>2019-08-18T09:55:39Z</time>
      </trkpt>
      <trkpt lat="47.33527" lon="-2.398">
        <ele>87</ele>
        <time>2019-08-18T09:55:41Z</time>
      </trkpt>
      <trkpt lat="47.3352" lon="-2.39809">
        <ele>87</ele>
        <time>2019-08-18T09:55:43Z</time>
      </trkpt>
      <trkpt lat="47.33516" lon="-2.39814">
        <ele>87</ele>
        <time>2019-08-18T09:55:44Z</time>
      </trkpt>
      <trkpt lat="47.33512" lon="-2.39819">
        <ele>87</ele>
        <time>2019-08-18T09:55:45Z</time>
      </trkpt>
      <trkpt lat="47.33509" lon="-2.39824">
        <ele>88</ele>
        <time>2019-08-18T09:55:46Z</time>
      </trkpt>
      <trkpt lat="47.33505" lon="-2.3983">
        <ele>88</ele>
        <time>2019-08-18T09:55:47Z</time>
      </trkpt>
      <trkpt lat="47.33502" lon="-2.39835">
        <ele>88</ele>
        <time>2019-08-18T09:55:48Z</time>
      </trkpt>
      <trkpt lat="47.33499" lon="-2.3984">
        <ele>88</ele>
        <time>2019-08-18T09:55:49Z</time>
      </trkpt>
      <trkpt lat="47.33496" lon="-2.39844">
        <ele>88</ele>
        <time>2019-08-18T09:55:50Z</time>
      </trkpt>
      <trkpt lat="47.33492" lon="-2.39849">
        <ele>88</ele>
        <time>2019-08-18T09:55:51Z</time>
      </trkpt>
      <trkpt lat="47.33489" lon="-2.39854">
        <ele>88</ele>
        <time>2019-08-18T09:55:52Z</time>
      </trkpt>
      <trkpt lat="47.33485" lon="-2.39859">
        <ele>88</ele>
        <time>2019-08-18T09:55:53Z</time>
      </trkpt>
      <trkpt lat="47.33482" lon="-2.39863">
        <ele>88</ele>
        <time>2019-08-18T09:55:54Z</time>
      </trkpt>
      <trkpt lat="47.33478" lon="-2.39868">
        <ele>88</ele>
        <time>2019-08-18T09:55:55Z</time>
      </trkpt>
      <trkpt lat="47.33475" lon="-2.39873">
        <ele>88</ele>
        <time>2019-08-18T09:55:56Z</time>
      </trkpt>
      <trkpt lat="47.33471" lon="-2.39878">
        <ele>88</ele>
        <time>2019-08-18T09:55:57Z</time>
      </trkpt>
      <trkpt lat="47.33467" lon="-2.39882">
        <ele>89</ele>
        <time>2019-08-18T09:55:58Z</time>
      </trkpt>
      <trkpt lat="47.33464" lon="-2.39887">
        <ele>89</ele>
        <time>2019-08-18T09:55:59Z</time>
      </trkpt>
      <trkpt lat="47.3346" lon="-2.39891">
        <ele>89</ele>
        <time>2019-08-18T09:56:00Z</time>
      </trkpt>
      <trkpt lat="47.33452" lon="-2.39897">
        <ele>89</ele>
        <time>2019-08-18T09:56:02Z</time>
      </trkpt>
      <trkpt lat="47.33446" lon="-2.39906">
        <ele>89</ele>
        <time>2019-08-18T09:56:04Z</time>
      </trkpt>
      <trkpt lat="47.33437" lon="-2.39918">
        <ele>90</ele>
        <time>2019-08-18T09:56:07Z</time>
      </trkpt>
      <trkpt lat="47.33432" lon="-2.39928">
        <ele>90</ele>
        <time>2019-08-18T09:56:09Z</time>
      </trkpt>
      <trkpt lat="47.33429" lon="-2.39933">
        <ele>90</ele>
        <time>2019-08-18T09:56:10Z</time>
      </trkpt>
      <trkpt lat="47.3342" lon="-2.39948">
        <ele>90</ele>
        <time>2019-08-18T09:56:13Z</time>
      </trkpt>
      <trkpt lat="47.33417" lon="-2.39953">
        <ele>90</ele>
        <time>2019-08-18T09:56:14Z</time>
      </trkpt>
      <trkpt lat="47.3341" lon="-2.39963">
        <ele>90</ele>
        <time>2019-08-18T09:56:16Z</time>
      </trkpt>
      <trkpt lat="47.33407" lon="-2.39968">
        <ele>90</ele>
        <time>2019-08-18T09:56:17Z</time>
      </trkpt>
      <trkpt lat="47.33405" lon="-2.39973">
        <ele>90</ele>
        <time>2019-08-18T09:56:18Z</time>
      </trkpt>
      <trkpt lat="47.33403" lon="-2.39977">
        <ele>91</ele>
        <time>2019-08-18T09:56:19Z</time>
      </trkpt>
      <trkpt lat="47.334" lon="-2.39981">
        <ele>91</ele>
        <time>2019-08-18T09:56:20Z</time>
      </trkpt>
      <trkpt lat="47.33397" lon="-2.39985">
        <ele>92</ele>
        <time>2019-08-18T09:56:21Z</time>
      </trkpt>
      <trkpt lat="47.33392" lon="-2.39994">
        <ele>92</ele>
        <time>2019-08-18T09:56:23Z</time>
      </trkpt>
      <trkpt lat="47.33382" lon="-2.40009">
        <ele>93</ele>
        <time>2019-08-18T09:56:26Z</time>
      </trkpt>
      <trkpt lat="47.33377" lon="-2.40019">
        <ele>93</ele>
        <time>2019-08-18T09:56:28Z</time>
      </trkpt>
      <trkpt lat="47.33374" lon="-2.40024">
        <ele>93</ele>
        <time>2019-08-18T09:56:29Z</time>
      </trkpt>
      <trkpt lat="47.33369" lon="-2.40027">
        <ele>93</ele>
        <time>2019-08-18T09:56:30Z</time>
      </trkpt>
      <trkpt lat="47.33364" lon="-2.40037">
        <ele>93</ele>
        <time>2019-08-18T09:56:32Z</time>
      </trkpt>
      <trkpt lat="47.33361" lon="-2.40048">
        <ele>93</ele>
        <time>2019-08-18T09:56:34Z</time>
      </trkpt>
      <trkpt lat="47.33357" lon="-2.40059">
        <ele>94</ele>
        <time>2019-08-18T09:56:36Z</time>
      </trkpt>
      <trkpt lat="47.33355" lon="-2.40079">
        <ele>94</ele>
        <time>2019-08-18T09:56:39Z</time>
      </trkpt>
      <trkpt lat="47.33355" lon="-2.40086">
        <ele>94</ele>
        <time>2019-08-18T09:56:40Z</time>
      </trkpt>
      <trkpt lat="47.33354" lon="-2.40094">
        <ele>94</ele>
        <time>2019-08-18T09:56:41Z</time>
      </trkpt>
      <trkpt lat="47.33353" lon="-2.40101">
        <ele>94</ele>
        <time>2019-08-18T09:56:42Z</time>
      </trkpt>
      <trkpt lat="47.33353" lon="-2.40109">
        <ele>94</ele>
        <time>2019-08-18T09:56:43Z</time>
      </trkpt>
      <trkpt lat="47.33352" lon="-2.4013">
        <ele>94</ele>
        <time>2019-08-18T09:56:46Z</time>
      </trkpt>
      <trkpt lat="47.33351" lon="-2.40137">
        <ele>94</ele>
        <time>2019-08-18T09:56:47Z</time>
      </trkpt>
      <trkpt lat="47.33351" lon="-2.40145">
        <ele>94</ele>
        <time>2019-08-18T09:56:48Z</time>
      </trkpt>
      <trkpt lat="47.33351" lon="-2.40152">
        <ele>94</ele>
        <time>2019-08-18T09:56:49Z</time>
      </trkpt>
      <trkpt lat="47.33349" lon="-2.40166">
        <ele>94</ele>
        <time>2019-08-18T09:56:51Z</time>
      </trkpt>
      <trkpt lat="47.33348" lon="-2.4018">
        <ele>94</ele>
        <time>2019-08-18T09:56:53Z</time>
      </trkpt>
      <trkpt lat="47.33348" lon="-2.40187">
        <ele>94</ele>
        <time>2019-08-18T09:56:54Z</time>
      </trkpt>
      <trkpt lat="47.33348" lon="-2.40194">
        <ele>94</ele>
        <time>2019-08-18T09:56:55Z</time>
      </trkpt>
      <trkpt lat="47.33347" lon="-2.40201">
        <ele>95</ele>
        <time>2019-08-18T09:56:56Z</time>
      </trkpt>
      <trkpt lat="47.33345" lon="-2.40209">
        <ele>95</ele>
        <time>2019-08-18T09:56:57Z</time>
      </trkpt>
      <trkpt lat="47.33344" lon="-2.40217">
        <ele>95</ele>
        <time>2019-08-18T09:56:58Z</time>
      </trkpt>
      <trkpt lat="47.33344" lon="-2.40226">
        <ele>95</ele>
        <time>2019-08-18T09:56:59Z</time>
      </trkpt>
      <trkpt lat="47.33341" lon="-2.40244">
        <ele>95</ele>
        <time>2019-08-18T09:57:01Z</time>
      </trkpt>
      <trkpt lat="47.33339" lon="-2.40252">
        <ele>95</ele>
        <time>2019-08-18T09:57:02Z</time>
      </trkpt>
      <trkpt lat="47.33338" lon="-2.4026">
        <ele>94</ele>
        <time>2019-08-18T09:57:03Z</time>
      </trkpt>
      <trkpt lat="47.33337" lon="-2.40275">
        <ele>94</ele>
        <time>2019-08-18T09:57:05Z</time>
      </trkpt>
      <trkpt lat="47.33336" lon="-2.40282">
        <ele>95</ele>
        <time>2019-08-18T09:57:06Z</time>
      </trkpt>
      <trkpt lat="47.33336" lon="-2.4029">
        <ele>95</ele>
        <time>2019-08-18T09:57:07Z</time>
      </trkpt>
      <trkpt lat="47.33336" lon="-2.40299">
        <ele>95</ele>
        <time>2019-08-18T09:57:08Z</time>
      </trkpt>
      <trkpt lat="47.33333" lon="-2.40321">
        <ele>95</ele>
        <time>2019-08-18T09:57:11Z</time>
      </trkpt>
      <trkpt lat="47.3333" lon="-2.40329">
        <ele>95</ele>
        <time>2019-08-18T09:57:12Z</time>
      </trkpt>
      <trkpt lat="47.33327" lon="-2.40337">
        <ele>95</ele>
        <time>2019-08-18T09:57:13Z</time>
      </trkpt>
      <trkpt lat="47.33317" lon="-2.40361">
        <ele>95</ele>
        <time>2019-08-18T09:57:16Z</time>
      </trkpt>
      <trkpt lat="47.33313" lon="-2.40376">
        <ele>94</ele>
        <time>2019-08-18T09:57:18Z</time>
      </trkpt>
      <trkpt lat="47.33314" lon="-2.40385">
        <ele>94</ele>
        <time>2019-08-18T09:57:19Z</time>
      </trkpt>
      <trkpt lat="47.33315" lon="-2.40394">
        <ele>94</ele>
        <time>2019-08-18T09:57:20Z</time>
      </trkpt>
      <trkpt lat="47.33316" lon="-2.40404">
        <ele>94</ele>
        <time>2019-08-18T09:57:21Z</time>
      </trkpt>
      <trkpt lat="47.33317" lon="-2.40416">
        <ele>94</ele>
        <time>2019-08-18T09:57:22Z</time>
      </trkpt>
      <trkpt lat="47.33315" lon="-2.40428">
        <ele>94</ele>
        <time>2019-08-18T09:57:23Z</time>
      </trkpt>
      <trkpt lat="47.33313" lon="-2.40439">
        <ele>94</ele>
        <time>2019-08-18T09:57:24Z</time>
      </trkpt>
      <trkpt lat="47.33312" lon="-2.40451">
        <ele>94</ele>
        <time>2019-08-18T09:57:25Z</time>
      </trkpt>
      <trkpt lat="47.33311" lon="-2.40463">
        <ele>93</ele>
        <time>2019-08-18T09:57:26Z</time>
      </trkpt>
      <trkpt lat="47.33307" lon="-2.40494">
        <ele>92</ele>
        <time>2019-08-18T09:57:29Z</time>
      </trkpt>
      <trkpt lat="47.33303" lon="-2.40503">
        <ele>92</ele>
        <time>2019-08-18T09:57:30Z</time>
      </trkpt>
      <trkpt lat="47.33299" lon="-2.40513">
        <ele>91</ele>
        <time>2019-08-18T09:57:31Z</time>
      </trkpt>
      <trkpt lat="47.33294" lon="-2.40521">
        <ele>91</ele>
        <time>2019-08-18T09:57:32Z</time>
      </trkpt>
      <trkpt lat="47.3329" lon="-2.40529">
        <ele>91</ele>
        <time>2019-08-18T09:57:33Z</time>
      </trkpt>
      <trkpt lat="47.33283" lon="-2.40545">
        <ele>90</ele>
        <time>2019-08-18T09:57:35Z</time>
      </trkpt>
      <trkpt lat="47.33279" lon="-2.40555">
        <ele>90</ele>
        <time>2019-08-18T09:57:36Z</time>
      </trkpt>
      <trkpt lat="47.33276" lon="-2.40564">
        <ele>89</ele>
        <time>2019-08-18T09:57:37Z</time>
      </trkpt>
      <trkpt lat="47.33274" lon="-2.40572">
        <ele>89</ele>
        <time>2019-08-18T09:57:38Z</time>
      </trkpt>
      <trkpt lat="47.33271" lon="-2.40581">
        <ele>89</ele>
        <time>2019-08-18T09:57:39Z</time>
      </trkpt>
      <trkpt lat="47.33269" lon="-2.4059">
        <ele>88</ele>
        <time>2019-08-18T09:57:40Z</time>
      </trkpt>
      <trkpt lat="47.33267" lon="-2.40599">
        <ele>88</ele>
        <time>2019-08-18T09:57:41Z</time>
      </trkpt>
      <trkpt lat="47.33264" lon="-2.40607">
        <ele>88</ele>
        <time>2019-08-18T09:57:42Z</time>
      </trkpt>
      <trkpt lat="47.33257" lon="-2.40632">
        <ele>87</ele>
        <time>2019-08-18T09:57:45Z</time>
      </trkpt>
      <trkpt lat="47.33254" lon="-2.40641">
        <ele>87</ele>
        <time>2019-08-18T09:57:46Z</time>
      </trkpt>
      <trkpt lat="47.33251" lon="-2.40649">
        <ele>87</ele>
        <time>2019-08-18T09:57:47Z</time>
      </trkpt>
      <trkpt lat="47.33249" lon="-2.40657">
        <ele>87</ele>
        <time>2019-08-18T09:57:48Z</time>
      </trkpt>
      <trkpt lat="47.33246" lon="-2.40666">
        <ele>87</ele>
        <time>2019-08-18T09:57:49Z</time>
      </trkpt>
      <trkpt lat="47.33242" lon="-2.40681">
        <ele>87</ele>
        <time>2019-08-18T09:57:51Z</time>
      </trkpt>
      <trkpt lat="47.33241" lon="-2.40689">
        <ele>87</ele>
        <time>2019-08-18T09:57:52Z</time>
      </trkpt>
      <trkpt lat="47.33239" lon="-2.40697">
        <ele>86</ele>
        <time>2019-08-18T09:57:53Z</time>
      </trkpt>
      <trkpt lat="47.33238" lon="-2.40705">
        <ele>87</ele>
        <time>2019-08-18T09:57:54Z</time>
      </trkpt>
      <trkpt lat="47.33237" lon="-2.40713">
        <ele>87</ele>
        <time>2019-08-18T09:57:55Z</time>
      </trkpt>
      <trkpt lat="47.33235" lon="-2.40739">
        <ele>87</ele>
        <time>2019-08-18T09:57:58Z</time>
      </trkpt>
      <trkpt lat="47.33233" lon="-2.40746">
        <ele>87</ele>
        <time>2019-08-18T09:57:59Z</time>
      </trkpt>
      <trkpt lat="47.33232" lon="-2.40762">
        <ele>87</ele>
        <time>2019-08-18T09:58:01Z</time>
      </trkpt>
      <trkpt lat="47.33231" lon="-2.4077">
        <ele>87</ele>
        <time>2019-08-18T09:58:02Z</time>
      </trkpt>
      <trkpt lat="47.33229" lon="-2.40777">
        <ele>87</ele>
        <time>2019-08-18T09:58:03Z</time>
      </trkpt>
      <trkpt lat="47.33227" lon="-2.40784">
        <ele>87</ele>
        <time>2019-08-18T09:58:04Z</time>
      </trkpt>
      <trkpt lat="47.33224" lon="-2.40791">
        <ele>87</ele>
        <time>2019-08-18T09:58:05Z</time>
      </trkpt>
      <trkpt lat="47.33221" lon="-2.40798">
        <ele>87</ele>
        <time>2019-08-18T09:58:06Z</time>
      </trkpt>
      <trkpt lat="47.33218" lon="-2.40804">
        <ele>87</ele>
        <time>2019-08-18T09:58:07Z</time>
      </trkpt>
      <trkpt lat="47.33215" lon="-2.40809">
        <ele>87</ele>
        <time>2019-08-18T09:58:08Z</time>
      </trkpt>
      <trkpt lat="47.33212" lon="-2.40815">
        <ele>87</ele>
        <time>2019-08-18T09:58:09Z</time>
      </trkpt>
      <trkpt lat="47.33208" lon="-2.4082">
        <ele>88</ele>
        <time>2019-08-18T09:58:10Z</time>
      </trkpt>
      <trkpt lat="47.33205" lon="-2.40825">
        <ele>88</ele>
        <time>2019-08-18T09:58:11Z</time>
      </trkpt>
      <trkpt lat="47.33202" lon="-2.40831">
        <ele>88</ele>
        <time>2019-08-18T09:58:12Z</time>
      </trkpt>
      <trkpt lat="47.33198" lon="-2.40836">
        <ele>88</ele>
        <time>2019-08-18T09:58:13Z</time>
      </trkpt>
      <trkpt lat="47.33194" lon="-2.40841">
        <ele>89</ele>
        <time>2019-08-18T09:58:14Z</time>
      </trkpt>
      <trkpt lat="47.33191" lon="-2.40847">
        <ele>89</ele>
        <time>2019-08-18T09:58:15Z</time>
      </trkpt>
      <trkpt lat="47.33187" lon="-2.40853">
        <ele>89</ele>
        <time>2019-08-18T09:58:16Z</time>
      </trkpt>
      <trkpt lat="47.33183" lon="-2.40858">
        <ele>90</ele>
        <time>2019-08-18T09:58:17Z</time>
      </trkpt>
      <trkpt lat="47.33179" lon="-2.40863">
        <ele>90</ele>
        <time>2019-08-18T09:58:18Z</time>
      </trkpt>
      <trkpt lat="47.33176" lon="-2.40868">
        <ele>90</ele>
        <time>2019-08-18T09:58:19Z</time>
      </trkpt>
      <trkpt lat="47.33173" lon="-2.40874">
        <ele>91</ele>
        <time>2019-08-18T09:58:20Z</time>
      </trkpt>
      <trkpt lat="47.33169" lon="-2.40879">
        <ele>91</ele>
        <time>2019-08-18T09:58:21Z</time>
      </trkpt>
      <trkpt lat="47.33166" lon="-2.40885">
        <ele>91</ele>
        <time>2019-08-18T09:58:22Z</time>
      </trkpt>
      <trkpt lat="47.33162" lon="-2.40891">
        <ele>91</ele>
        <time>2019-08-18T09:58:23Z</time>
      </trkpt>
      <trkpt lat="47.33159" lon="-2.40897">
        <ele>92</ele>
        <time>2019-08-18T09:58:24Z</time>
      </trkpt>
      <trkpt lat="47.33155" lon="-2.40903">
        <ele>92</ele>
        <time>2019-08-18T09:58:25Z</time>
      </trkpt>
      <trkpt lat="47.33152" lon="-2.40909">
        <ele>92</ele>
        <time>2019-08-18T09:58:26Z</time>
      </trkpt>
      <trkpt lat="47.33141" lon="-2.40927">
        <ele>91</ele>
        <time>2019-08-18T09:58:29Z</time>
      </trkpt>
      <trkpt lat="47.33138" lon="-2.40934">
        <ele>92</ele>
        <time>2019-08-18T09:58:30Z</time>
      </trkpt>
      <trkpt lat="47.33134" lon="-2.4094">
        <ele>92</ele>
        <time>2019-08-18T09:58:31Z</time>
      </trkpt>
      <trkpt lat="47.33131" lon="-2.40946">
        <ele>92</ele>
        <time>2019-08-18T09:58:32Z</time>
      </trkpt>
      <trkpt lat="47.33128" lon="-2.40953">
        <ele>92</ele>
        <time>2019-08-18T09:58:33Z</time>
      </trkpt>
      <trkpt lat="47.33125" lon="-2.40959">
        <ele>93</ele>
        <time>2019-08-18T09:58:34Z</time>
      </trkpt>
      <trkpt lat="47.33123" lon="-2.40966">
        <ele>93</ele>
        <time>2019-08-18T09:58:35Z</time>
      </trkpt>
      <trkpt lat="47.33119" lon="-2.40972">
        <ele>92</ele>
        <time>2019-08-18T09:58:36Z</time>
      </trkpt>
      <trkpt lat="47.33116" lon="-2.40979">
        <ele>93</ele>
        <time>2019-08-18T09:58:37Z</time>
      </trkpt>
      <trkpt lat="47.33114" lon="-2.40985">
        <ele>93</ele>
        <time>2019-08-18T09:58:38Z</time>
      </trkpt>
      <trkpt lat="47.33109" lon="-2.40998">
        <ele>93</ele>
        <time>2019-08-18T09:58:40Z</time>
      </trkpt>
      <trkpt lat="47.33107" lon="-2.41005">
        <ele>93</ele>
        <time>2019-08-18T09:58:41Z</time>
      </trkpt>
      <trkpt lat="47.33104" lon="-2.41011">
        <ele>93</ele>
        <time>2019-08-18T09:58:42Z</time>
      </trkpt>
      <trkpt lat="47.33102" lon="-2.41018">
        <ele>93</ele>
        <time>2019-08-18T09:58:43Z</time>
      </trkpt>
      <trkpt lat="47.331" lon="-2.41026">
        <ele>93</ele>
        <time>2019-08-18T09:58:44Z</time>
      </trkpt>
      <trkpt lat="47.33095" lon="-2.4104">
        <ele>93</ele>
        <time>2019-08-18T09:58:46Z</time>
      </trkpt>
      <trkpt lat="47.33093" lon="-2.41047">
        <ele>93</ele>
        <time>2019-08-18T09:58:47Z</time>
      </trkpt>
      <trkpt lat="47.3309" lon="-2.41055">
        <ele>93</ele>
        <time>2019-08-18T09:58:48Z</time>
      </trkpt>
      <trkpt lat="47.33085" lon="-2.41068">
        <ele>93</ele>
        <time>2019-08-18T09:58:50Z</time>
      </trkpt>
      <trkpt lat="47.33082" lon="-2.41075">
        <ele>93</ele>
        <time>2019-08-18T09:58:51Z</time>
      </trkpt>
      <trkpt lat="47.33078" lon="-2.41089">
        <ele>94</ele>
        <time>2019-08-18T09:58:53Z</time>
      </trkpt>
      <trkpt lat="47.33076" lon="-2.41095">
        <ele>94</ele>
        <time>2019-08-18T09:58:54Z</time>
      </trkpt>
      <trkpt lat="47.33073" lon="-2.41102">
        <ele>94</ele>
        <time>2019-08-18T09:58:55Z</time>
      </trkpt>
      <trkpt lat="47.33068" lon="-2.41115">
        <ele>94</ele>
        <time>2019-08-18T09:58:57Z</time>
      </trkpt>
      <trkpt lat="47.33063" lon="-2.41127">
        <ele>93</ele>
        <time>2019-08-18T09:58:59Z</time>
      </trkpt>
      <trkpt lat="47.3306" lon="-2.41133">
        <ele>93</ele>
        <time>2019-08-18T09:59:00Z</time>
      </trkpt>
      <trkpt lat="47.33057" lon="-2.4114">
        <ele>94</ele>
        <time>2019-08-18T09:59:01Z</time>
      </trkpt>
      <trkpt lat="47.33055" lon="-2.41146">
        <ele>94</ele>
        <time>2019-08-18T09:59:02Z</time>
      </trkpt>
      <trkpt lat="47.33051" lon="-2.41152">
        <ele>94</ele>
        <time>2019-08-18T09:59:03Z</time>
      </trkpt>
      <trkpt lat="47.33049" lon="-2.41158">
        <ele>94</ele>
        <time>2019-08-18T09:59:04Z</time>
      </trkpt>
      <trkpt lat="47.33046" lon="-2.41163">
        <ele>95</ele>
        <time>2019-08-18T09:59:05Z</time>
      </trkpt>
      <trkpt lat="47.33043" lon="-2.41169">
        <ele>95</ele>
        <time>2019-08-18T09:59:06Z</time>
      </trkpt>
      <trkpt lat="47.3304" lon="-2.41175">
        <ele>95</ele>
        <time>2019-08-18T09:59:07Z</time>
      </trkpt>
      <trkpt lat="47.33037" lon="-2.41179">
        <ele>95</ele>
        <time>2019-08-18T09:59:08Z</time>
      </trkpt>
      <trkpt lat="47.33034" lon="-2.41185">
        <ele>95</ele>
        <time>2019-08-18T09:59:09Z</time>
      </trkpt>
      <trkpt lat="47.33027" lon="-2.41196">
        <ele>95</ele>
        <time>2019-08-18T09:59:11Z</time>
      </trkpt>
      <trkpt lat="47.33025" lon="-2.41202">
        <ele>95</ele>
        <time>2019-08-18T09:59:12Z</time>
      </trkpt>
      <trkpt lat="47.33022" lon="-2.41207">
        <ele>95</ele>
        <time>2019-08-18T09:59:13Z</time>
      </trkpt>
      <trkpt lat="47.3302" lon="-2.41212">
        <ele>96</ele>
        <time>2019-08-18T09:59:14Z</time>
      </trkpt>
      <trkpt lat="47.33017" lon="-2.41217">
        <ele>96</ele>
        <time>2019-08-18T09:59:15Z</time>
      </trkpt>
      <trkpt lat="47.33014" lon="-2.41222">
        <ele>96</ele>
        <time>2019-08-18T09:59:16Z</time>
      </trkpt>
      <trkpt lat="47.33009" lon="-2.4123">
        <ele>96</ele>
        <time>2019-08-18T09:59:18Z</time>
      </trkpt>
      <trkpt lat="47.33003" lon="-2.41236">
        <ele>97</ele>
        <time>2019-08-18T09:59:20Z</time>
      </trkpt>
      <trkpt lat="47.32999" lon="-2.41243">
        <ele>97</ele>
        <time>2019-08-18T09:59:22Z</time>
      </trkpt>
      <trkpt lat="47.32994" lon="-2.41245">
        <ele>97</ele>
        <time>2019-08-18T09:59:24Z</time>
      </trkpt>
      <trkpt lat="47.32988" lon="-2.41249">
        <ele>97</ele>
        <time>2019-08-18T09:59:27Z</time>
      </trkpt>
      <trkpt lat="47.32982" lon="-2.41254">
        <ele>97</ele>
        <time>2019-08-18T09:59:30Z</time>
      </trkpt>
      <trkpt lat="47.32976" lon="-2.41256">
        <ele>97</ele>
        <time>2019-08-18T09:59:32Z</time>
      </trkpt>
      <trkpt lat="47.32973" lon="-2.41257">
        <ele>97</ele>
        <time>2019-08-18T09:59:33Z</time>
      </trkpt>
      <trkpt lat="47.3297" lon="-2.41258">
        <ele>97</ele>
        <time>2019-08-18T09:59:34Z</time>
      </trkpt>
      <trkpt lat="47.32964" lon="-2.41261">
        <ele>97</ele>
        <time>2019-08-18T09:59:36Z</time>
      </trkpt>
      <trkpt lat="47.32958" lon="-2.41263">
        <ele>97</ele>
        <time>2019-08-18T09:59:38Z</time>
      </trkpt>
      <trkpt lat="47.32955" lon="-2.41264">
        <ele>97</ele>
        <time>2019-08-18T09:59:39Z</time>
      </trkpt>
      <trkpt lat="47.32947" lon="-2.41265">
        <ele>97</ele>
        <time>2019-08-18T09:59:41Z</time>
      </trkpt>
      <trkpt lat="47.32943" lon="-2.41266">
        <ele>97</ele>
        <time>2019-08-18T09:59:42Z</time>
      </trkpt>
      <trkpt lat="47.32938" lon="-2.41267">
        <ele>97</ele>
        <time>2019-08-18T09:59:43Z</time>
      </trkpt>
      <trkpt lat="47.32934" lon="-2.41268">
        <ele>97</ele>
        <time>2019-08-18T09:59:44Z</time>
      </trkpt>
      <trkpt lat="47.32922" lon="-2.41272">
        <ele>97</ele>
        <time>2019-08-18T09:59:47Z</time>
      </trkpt>
      <trkpt lat="47.32915" lon="-2.41271">
        <ele>97</ele>
        <time>2019-08-18T09:59:49Z</time>
      </trkpt>
      <trkpt lat="47.3291" lon="-2.41271">
        <ele>97</ele>
        <time>2019-08-18T09:59:50Z</time>
      </trkpt>
      <trkpt lat="47.32897" lon="-2.41274">
        <ele>96</ele>
        <time>2019-08-18T09:59:53Z</time>
      </trkpt>
      <trkpt lat="47.32888" lon="-2.41274">
        <ele>97</ele>
        <time>2019-08-18T09:59:55Z</time>
      </trkpt>
      <trkpt lat="47.32884" lon="-2.41274">
        <ele>97</ele>
        <time>2019-08-18T09:59:56Z</time>
      </trkpt>
      <trkpt lat="47.32871" lon="-2.41276">
        <ele>97</ele>
        <time>2019-08-18T09:59:59Z</time>
      </trkpt>
      <trkpt lat="47.32867" lon="-2.41276">
        <ele>98</ele>
        <time>2019-08-18T10:00:00Z</time>
      </trkpt>
      <trkpt lat="47.32863" lon="-2.41277">
        <ele>97</ele>
        <time>2019-08-18T10:00:01Z</time>
      </trkpt>
      <trkpt lat="47.32854" lon="-2.41279">
        <ele>98</ele>
        <time>2019-08-18T10:00:03Z</time>
      </trkpt>
      <trkpt lat="47.32849" lon="-2.4128">
        <ele>98</ele>
        <time>2019-08-18T10:00:04Z</time>
      </trkpt>
      <trkpt lat="47.32845" lon="-2.41281">
        <ele>98</ele>
        <time>2019-08-18T10:00:05Z</time>
      </trkpt>
      <trkpt lat="47.32841" lon="-2.41282">
        <ele>98</ele>
        <time>2019-08-18T10:00:06Z</time>
      </trkpt>
      <trkpt lat="47.32837" lon="-2.41282">
        <ele>98</ele>
        <time>2019-08-18T10:00:07Z</time>
      </trkpt>
      <trkpt lat="47.32834" lon="-2.41283">
        <ele>99</ele>
        <time>2019-08-18T10:00:08Z</time>
      </trkpt>
      <trkpt lat="47.32822" lon="-2.41287">
        <ele>99</ele>
        <time>2019-08-18T10:00:11Z</time>
      </trkpt>
      <trkpt lat="47.32814" lon="-2.41284">
        <ele>99</ele>
        <time>2019-08-18T10:00:13Z</time>
      </trkpt>
      <trkpt lat="47.32809" lon="-2.41283">
        <ele>99</ele>
        <time>2019-08-18T10:00:14Z</time>
      </trkpt>
      <trkpt lat="47.32801" lon="-2.41284">
        <ele>99</ele>
        <time>2019-08-18T10:00:16Z</time>
      </trkpt>
      <trkpt lat="47.32796" lon="-2.41285">
        <ele>99</ele>
        <time>2019-08-18T10:00:17Z</time>
      </trkpt>
      <trkpt lat="47.32791" lon="-2.41286">
        <ele>99</ele>
        <time>2019-08-18T10:00:18Z</time>
      </trkpt>
      <trkpt lat="47.32782" lon="-2.41286">
        <ele>99</ele>
        <time>2019-08-18T10:00:20Z</time>
      </trkpt>
      <trkpt lat="47.32778" lon="-2.41286">
        <ele>99</ele>
        <time>2019-08-18T10:00:21Z</time>
      </trkpt>
      <trkpt lat="47.32766" lon="-2.41289">
        <ele>99</ele>
        <time>2019-08-18T10:00:24Z</time>
      </trkpt>
      <trkpt lat="47.32754" lon="-2.41294">
        <ele>100</ele>
        <time>2019-08-18T10:00:27Z</time>
      </trkpt>
      <trkpt lat="47.32745" lon="-2.41301">
        <ele>100</ele>
        <time>2019-08-18T10:00:30Z</time>
      </trkpt>
      <trkpt lat="47.32741" lon="-2.41307">
        <ele>100</ele>
        <time>2019-08-18T10:00:32Z</time>
      </trkpt>
      <trkpt lat="47.32737" lon="-2.41315">
        <ele>100</ele>
        <time>2019-08-18T10:00:34Z</time>
      </trkpt>
      <trkpt lat="47.32735" lon="-2.41319">
        <ele>100</ele>
        <time>2019-08-18T10:00:35Z</time>
      </trkpt>
      <trkpt lat="47.32724" lon="-2.41325">
        <ele>100</ele>
        <time>2019-08-18T10:00:38Z</time>
      </trkpt>
      <trkpt lat="47.32714" lon="-2.41325">
        <ele>100</ele>
        <time>2019-08-18T10:00:40Z</time>
      </trkpt>
      <trkpt lat="47.32709" lon="-2.41325">
        <ele>99</ele>
        <time>2019-08-18T10:00:41Z</time>
      </trkpt>
      <trkpt lat="47.32704" lon="-2.41326">
        <ele>99</ele>
        <time>2019-08-18T10:00:42Z</time>
      </trkpt>
      <trkpt lat="47.327" lon="-2.41328">
        <ele>99</ele>
        <time>2019-08-18T10:00:43Z</time>
      </trkpt>
      <trkpt lat="47.32695" lon="-2.4133">
        <ele>99</ele>
        <time>2019-08-18T10:00:44Z</time>
      </trkpt>
      <trkpt lat="47.32691" lon="-2.41332">
        <ele>99</ele>
        <time>2019-08-18T10:00:45Z</time>
      </trkpt>
      <trkpt lat="47.32686" lon="-2.41333">
        <ele>99</ele>
        <time>2019-08-18T10:00:46Z</time>
      </trkpt>
      <trkpt lat="47.32682" lon="-2.41335">
        <ele>99</ele>
        <time>2019-08-18T10:00:47Z</time>
      </trkpt>
      <trkpt lat="47.32677" lon="-2.41337">
        <ele>99</ele>
        <time>2019-08-18T10:00:48Z</time>
      </trkpt>
      <trkpt lat="47.32669" lon="-2.41342">
        <ele>100</ele>
        <time>2019-08-18T10:00:50Z</time>
      </trkpt>
      <trkpt lat="47.32664" lon="-2.41344">
        <ele>100</ele>
        <time>2019-08-18T10:00:51Z</time>
      </trkpt>
      <trkpt lat="47.3266" lon="-2.41346">
        <ele>101</ele>
        <time>2019-08-18T10:00:52Z</time>
      </trkpt>
      <trkpt lat="47.32644" lon="-2.41357">
        <ele>101</ele>
        <time>2019-08-18T10:00:56Z</time>
      </trkpt>
      <trkpt lat="47.3264" lon="-2.4136">
        <ele>102</ele>
        <time>2019-08-18T10:00:57Z</time>
      </trkpt>
      <trkpt lat="47.32637" lon="-2.41363">
        <ele>102</ele>
        <time>2019-08-18T10:00:58Z</time>
      </trkpt>
      <trkpt lat="47.32633" lon="-2.41366">
        <ele>102</ele>
        <time>2019-08-18T10:00:59Z</time>
      </trkpt>
      <trkpt lat="47.32629" lon="-2.41369">
        <ele>102</ele>
        <time>2019-08-18T10:01:00Z</time>
      </trkpt>
      <trkpt lat="47.32626" lon="-2.41371">
        <ele>102</ele>
        <time>2019-08-18T10:01:01Z</time>
      </trkpt>
      <trkpt lat="47.32622" lon="-2.41373">
        <ele>102</ele>
        <time>2019-08-18T10:01:02Z</time>
      </trkpt>
      <trkpt lat="47.32619" lon="-2.41376">
        <ele>102</ele>
        <time>2019-08-18T10:01:03Z</time>
      </trkpt>
      <trkpt lat="47.32615" lon="-2.41378">
        <ele>102</ele>
        <time>2019-08-18T10:01:04Z</time>
      </trkpt>
      <trkpt lat="47.32608" lon="-2.41382">
        <ele>102</ele>
        <time>2019-08-18T10:01:06Z</time>
      </trkpt>
      <trkpt lat="47.32605" lon="-2.41384">
        <ele>102</ele>
        <time>2019-08-18T10:01:07Z</time>
      </trkpt>
      <trkpt lat="47.32601" lon="-2.41386">
        <ele>102</ele>
        <time>2019-08-18T10:01:08Z</time>
      </trkpt>
      <trkpt lat="47.32594" lon="-2.4139">
        <ele>103</ele>
        <time>2019-08-18T10:01:10Z</time>
      </trkpt>
      <trkpt lat="47.3259" lon="-2.41393">
        <ele>103</ele>
        <time>2019-08-18T10:01:11Z</time>
      </trkpt>
      <trkpt lat="47.32584" lon="-2.41398">
        <ele>102</ele>
        <time>2019-08-18T10:01:13Z</time>
      </trkpt>
      <trkpt lat="47.3258" lon="-2.41408">
        <ele>103</ele>
        <time>2019-08-18T10:01:15Z</time>
      </trkpt>
      <trkpt lat="47.32577" lon="-2.41419">
        <ele>103</ele>
        <time>2019-08-18T10:01:17Z</time>
      </trkpt>
      <trkpt lat="47.32576" lon="-2.4143">
        <ele>104</ele>
        <time>2019-08-18T10:01:19Z</time>
      </trkpt>
      <trkpt lat="47.32575" lon="-2.41435">
        <ele>104</ele>
        <time>2019-08-18T10:01:20Z</time>
      </trkpt>
      <trkpt lat="47.32574" lon="-2.4144">
        <ele>104</ele>
        <time>2019-08-18T10:01:21Z</time>
      </trkpt>
      <trkpt lat="47.32574" lon="-2.4145">
        <ele>104</ele>
        <time>2019-08-18T10:01:23Z</time>
      </trkpt>
      <trkpt lat="47.32573" lon="-2.41459">
        <ele>104</ele>
        <time>2019-08-18T10:01:25Z</time>
      </trkpt>
      <trkpt lat="47.32569" lon="-2.41462">
        <ele>104</ele>
        <time>2019-08-18T10:01:27Z</time>
      </trkpt>
      <trkpt lat="47.32563" lon="-2.41456">
        <ele>104</ele>
        <time>2019-08-18T10:01:30Z</time>
      </trkpt>
      <trkpt lat="47.32557" lon="-2.41442">
        <ele>103</ele>
        <time>2019-08-18T10:01:33Z</time>
      </trkpt>
      <trkpt lat="47.32552" lon="-2.41433">
        <ele>103</ele>
        <time>2019-08-18T10:01:35Z</time>
      </trkpt>
      <trkpt lat="47.32549" lon="-2.41428">
        <ele>103</ele>
        <time>2019-08-18T10:01:36Z</time>
      </trkpt>
      <trkpt lat="47.32546" lon="-2.41423">
        <ele>104</ele>
        <time>2019-08-18T10:01:37Z</time>
      </trkpt>
      <trkpt lat="47.32544" lon="-2.41419">
        <ele>104</ele>
        <time>2019-08-18T10:01:38Z</time>
      </trkpt>
      <trkpt lat="47.32539" lon="-2.41409">
        <ele>103</ele>
        <time>2019-08-18T10:01:40Z</time>
      </trkpt>
      <trkpt lat="47.32536" lon="-2.41404">
        <ele>103</ele>
        <time>2019-08-18T10:01:41Z</time>
      </trkpt>
      <trkpt lat="47.32534" lon="-2.414">
        <ele>103</ele>
        <time>2019-08-18T10:01:42Z</time>
      </trkpt>
      <trkpt lat="47.32531" lon="-2.41396">
        <ele>103</ele>
        <time>2019-08-18T10:01:43Z</time>
      </trkpt>
      <trkpt lat="47.32527" lon="-2.41386">
        <ele>103</ele>
        <time>2019-08-18T10:01:45Z</time>
      </trkpt>
      <trkpt lat="47.32523" lon="-2.41379">
        <ele>104</ele>
        <time>2019-08-18T10:01:47Z</time>
      </trkpt>
      <trkpt lat="47.32521" lon="-2.41376">
        <ele>104</ele>
        <time>2019-08-18T10:01:48Z</time>
      </trkpt>
      <trkpt lat="47.32518" lon="-2.41369">
        <ele>104</ele>
        <time>2019-08-18T10:01:50Z</time>
      </trkpt>
      <trkpt lat="47.32513" lon="-2.41356">
        <ele>104</ele>
        <time>2019-08-18T10:01:53Z</time>
      </trkpt>
      <trkpt lat="47.32506" lon="-2.41341">
        <ele>106</ele>
        <time>2019-08-18T10:01:56Z</time>
      </trkpt>
      <trkpt lat="47.32503" lon="-2.41335">
        <ele>106</ele>
        <time>2019-08-18T10:01:57Z</time>
      </trkpt>
      <trkpt lat="47.32501" lon="-2.4133">
        <ele>106</ele>
        <time>2019-08-18T10:01:58Z</time>
      </trkpt>
      <trkpt lat="47.32499" lon="-2.41325">
        <ele>106</ele>
        <time>2019-08-18T10:01:59Z</time>
      </trkpt>
      <trkpt lat="47.32493" lon="-2.41316">
        <ele>106</ele>
        <time>2019-08-18T10:02:01Z</time>
      </trkpt>
      <trkpt lat="47.32491" lon="-2.41312">
        <ele>106</ele>
        <time>2019-08-18T10:02:02Z</time>
      </trkpt>
      <trkpt lat="47.32486" lon="-2.41303">
        <ele>106</ele>
        <time>2019-08-18T10:02:04Z</time>
      </trkpt>
      <trkpt lat="47.32484" lon="-2.41298">
        <ele>106</ele>
        <time>2019-08-18T10:02:05Z</time>
      </trkpt>
      <trkpt lat="47.32479" lon="-2.41287">
        <ele>106</ele>
        <time>2019-08-18T10:02:07Z</time>
      </trkpt>
      <trkpt lat="47.32471" lon="-2.41271">
        <ele>106</ele>
        <time>2019-08-18T10:02:10Z</time>
      </trkpt>
      <trkpt lat="47.32465" lon="-2.41261">
        <ele>106</ele>
        <time>2019-08-18T10:02:12Z</time>
      </trkpt>
      <trkpt lat="47.32462" lon="-2.41255">
        <ele>106</ele>
        <time>2019-08-18T10:02:13Z</time>
      </trkpt>
      <trkpt lat="47.32457" lon="-2.41244">
        <ele>106</ele>
        <time>2019-08-18T10:02:15Z</time>
      </trkpt>
      <trkpt lat="47.32454" lon="-2.41238">
        <ele>106</ele>
        <time>2019-08-18T10:02:16Z</time>
      </trkpt>
      <trkpt lat="47.32448" lon="-2.41229">
        <ele>106</ele>
        <time>2019-08-18T10:02:18Z</time>
      </trkpt>
      <trkpt lat="47.32445" lon="-2.41224">
        <ele>106</ele>
        <time>2019-08-18T10:02:19Z</time>
      </trkpt>
      <trkpt lat="47.32442" lon="-2.41219">
        <ele>105</ele>
        <time>2019-08-18T10:02:20Z</time>
      </trkpt>
      <trkpt lat="47.3244" lon="-2.41213">
        <ele>105</ele>
        <time>2019-08-18T10:02:21Z</time>
      </trkpt>
      <trkpt lat="47.32437" lon="-2.41209">
        <ele>105</ele>
        <time>2019-08-18T10:02:22Z</time>
      </trkpt>
      <trkpt lat="47.32433" lon="-2.412">
        <ele>105</ele>
        <time>2019-08-18T10:02:24Z</time>
      </trkpt>
      <trkpt lat="47.32431" lon="-2.41195">
        <ele>105</ele>
        <time>2019-08-18T10:02:25Z</time>
      </trkpt>
      <trkpt lat="47.32422" lon="-2.41185">
        <ele>105</ele>
        <time>2019-08-18T10:02:28Z</time>
      </trkpt>
      <trkpt lat="47.32415" lon="-2.41172">
        <ele>105</ele>
        <time>2019-08-18T10:02:31Z</time>
      </trkpt>
      <trkpt lat="47.3241" lon="-2.41163">
        <ele>105</ele>
        <time>2019-08-18T10:02:33Z</time>
      </trkpt>
      <trkpt lat="47.32403" lon="-2.41149">
        <ele>104</ele>
        <time>2019-08-18T10:02:36Z</time>
      </trkpt>
      <trkpt lat="47.32401" lon="-2.41145">
        <ele>104</ele>
        <time>2019-08-18T10:02:37Z</time>
      </trkpt>
      <trkpt lat="47.32399" lon="-2.4114">
        <ele>104</ele>
        <time>2019-08-18T10:02:38Z</time>
      </trkpt>
      <trkpt lat="47.32396" lon="-2.41135">
        <ele>104</ele>
        <time>2019-08-18T10:02:39Z</time>
      </trkpt>
      <trkpt lat="47.32394" lon="-2.4113">
        <ele>104</ele>
        <time>2019-08-18T10:02:40Z</time>
      </trkpt>
      <trkpt lat="47.32392" lon="-2.41125">
        <ele>104</ele>
        <time>2019-08-18T10:02:41Z</time>
      </trkpt>
      <trkpt lat="47.3239" lon="-2.4112">
        <ele>104</ele>
        <time>2019-08-18T10:02:42Z</time>
      </trkpt>
      <trkpt lat="47.32385" lon="-2.41111">
        <ele>104</ele>
        <time>2019-08-18T10:02:44Z</time>
      </trkpt>
      <trkpt lat="47.32378" lon="-2.41099">
        <ele>105</ele>
        <time>2019-08-18T10:02:47Z</time>
      </trkpt>
      <trkpt lat="47.32373" lon="-2.4109">
        <ele>106</ele>
        <time>2019-08-18T10:02:49Z</time>
      </trkpt>
      <trkpt lat="47.32368" lon="-2.4108">
        <ele>106</ele>
        <time>2019-08-18T10:02:51Z</time>
      </trkpt>
      <trkpt lat="47.32363" lon="-2.41074">
        <ele>106</ele>
        <time>2019-08-18T10:02:53Z</time>
      </trkpt>
      <trkpt lat="47.32358" lon="-2.41064">
        <ele>106</ele>
        <time>2019-08-18T10:02:55Z</time>
      </trkpt>
      <trkpt lat="47.32355" lon="-2.41058">
        <ele>106</ele>
        <time>2019-08-18T10:02:56Z</time>
      </trkpt>
      <trkpt lat="47.32352" lon="-2.41053">
        <ele>106</ele>
        <time>2019-08-18T10:02:57Z</time>
      </trkpt>
      <trkpt lat="47.32349" lon="-2.41047">
        <ele>106</ele>
        <time>2019-08-18T10:02:58Z</time>
      </trkpt>
      <trkpt lat="47.32344" lon="-2.41036">
        <ele>106</ele>
        <time>2019-08-18T10:03:00Z</time>
      </trkpt>
      <trkpt lat="47.32334" lon="-2.4102">
        <ele>106</ele>
        <time>2019-08-18T10:03:03Z</time>
      </trkpt>
      <trkpt lat="47.32331" lon="-2.41014">
        <ele>106</ele>
        <time>2019-08-18T10:03:04Z</time>
      </trkpt>
      <trkpt lat="47.32325" lon="-2.41002">
        <ele>106</ele>
        <time>2019-08-18T10:03:06Z</time>
      </trkpt>
      <trkpt lat="47.32322" lon="-2.40996">
        <ele>106</ele>
        <time>2019-08-18T10:03:07Z</time>
      </trkpt>
      <trkpt lat="47.32316" lon="-2.40982">
        <ele>106</ele>
        <time>2019-08-18T10:03:09Z</time>
      </trkpt>
      <trkpt lat="47.32312" lon="-2.40976">
        <ele>106</ele>
        <time>2019-08-18T10:03:10Z</time>
      </trkpt>
      <trkpt lat="47.32305" lon="-2.40964">
        <ele>105</ele>
        <time>2019-08-18T10:03:12Z</time>
      </trkpt>
      <trkpt lat="47.32302" lon="-2.40957">
        <ele>105</ele>
        <time>2019-08-18T10:03:13Z</time>
      </trkpt>
      <trkpt lat="47.32298" lon="-2.40951">
        <ele>105</ele>
        <time>2019-08-18T10:03:14Z</time>
      </trkpt>
      <trkpt lat="47.32295" lon="-2.40945">
        <ele>105</ele>
        <time>2019-08-18T10:03:15Z</time>
      </trkpt>
      <trkpt lat="47.32292" lon="-2.40938">
        <ele>105</ele>
        <time>2019-08-18T10:03:16Z</time>
      </trkpt>
      <trkpt lat="47.32289" lon="-2.40932">
        <ele>105</ele>
        <time>2019-08-18T10:03:17Z</time>
      </trkpt>
      <trkpt lat="47.32285" lon="-2.40925">
        <ele>104</ele>
        <time>2019-08-18T10:03:18Z</time>
      </trkpt>
      <trkpt lat="47.32272" lon="-2.40901">
        <ele>104</ele>
        <time>2019-08-18T10:03:22Z</time>
      </trkpt>
      <trkpt lat="47.32266" lon="-2.40889">
        <ele>104</ele>
        <time>2019-08-18T10:03:24Z</time>
      </trkpt>
      <trkpt lat="47.32264" lon="-2.40883">
        <ele>105</ele>
        <time>2019-08-18T10:03:25Z</time>
      </trkpt>
      <trkpt lat="47.32262" lon="-2.40877">
        <ele>105</ele>
        <time>2019-08-18T10:03:26Z</time>
      </trkpt>
      <trkpt lat="47.32259" lon="-2.40872">
        <ele>105</ele>
        <time>2019-08-18T10:03:27Z</time>
      </trkpt>
      <trkpt lat="47.32256" lon="-2.40866">
        <ele>105</ele>
        <time>2019-08-18T10:03:28Z</time>
      </trkpt>
      <trkpt lat="47.32251" lon="-2.40861">
        <ele>104</ele>
        <time>2019-08-18T10:03:29Z</time>
      </trkpt>
      <trkpt lat="47.32248" lon="-2.40856">
        <ele>105</ele>
        <time>2019-08-18T10:03:30Z</time>
      </trkpt>
      <trkpt lat="47.32245" lon="-2.40851">
        <ele>105</ele>
        <time>2019-08-18T10:03:31Z</time>
      </trkpt>
      <trkpt lat="47.32241" lon="-2.40846">
        <ele>105</ele>
        <time>2019-08-18T10:03:32Z</time>
      </trkpt>
      <trkpt lat="47.32238" lon="-2.40841">
        <ele>105</ele>
        <time>2019-08-18T10:03:33Z</time>
      </trkpt>
      <trkpt lat="47.32232" lon="-2.4083">
        <ele>105</ele>
        <time>2019-08-18T10:03:35Z</time>
      </trkpt>
      <trkpt lat="47.32229" lon="-2.40825">
        <ele>105</ele>
        <time>2019-08-18T10:03:36Z</time>
      </trkpt>
      <trkpt lat="47.32222" lon="-2.40818">
        <ele>105</ele>
        <time>2019-08-18T10:03:38Z</time>
      </trkpt>
      <trkpt lat="47.3222" lon="-2.40814">
        <ele>105</ele>
        <time>2019-08-18T10:03:39Z</time>
      </trkpt>
      <trkpt lat="47.32213" lon="-2.40803">
        <ele>105</ele>
        <time>2019-08-18T10:03:42Z</time>
      </trkpt>
      <trkpt lat="47.32209" lon="-2.40797">
        <ele>105</ele>
        <time>2019-08-18T10:03:44Z</time>
      </trkpt>
      <trkpt lat="47.32208" lon="-2.40795">
        <ele>105</ele>
        <time>2019-08-18T10:03:45Z</time>
      </trkpt>
      <trkpt lat="47.32204" lon="-2.40789">
        <ele>105</ele>
        <time>2019-08-18T10:03:47Z</time>
      </trkpt>
      <trkpt lat="47.32198" lon="-2.4078">
        <ele>106</ele>
        <time>2019-08-18T10:03:50Z</time>
      </trkpt>
      <trkpt lat="47.32195" lon="-2.40777">
        <ele>106</ele>
        <time>2019-08-18T10:03:51Z</time>
      </trkpt>
      <trkpt lat="47.32189" lon="-2.40769">
        <ele>106</ele>
        <time>2019-08-18T10:03:53Z</time>
      </trkpt>
      <trkpt lat="47.32186" lon="-2.40765">
        <ele>106</ele>
        <time>2019-08-18T10:03:54Z</time>
      </trkpt>
      <trkpt lat="47.32179" lon="-2.40757">
        <ele>105</ele>
        <time>2019-08-18T10:03:56Z</time>
      </trkpt>
      <trkpt lat="47.32169" lon="-2.40743">
        <ele>105</ele>
        <time>2019-08-18T10:03:59Z</time>
      </trkpt>
      <trkpt lat="47.32166" lon="-2.40738">
        <ele>105</ele>
        <time>2019-08-18T10:04:00Z</time>
      </trkpt>
      <trkpt lat="47.32157" lon="-2.40725">
        <ele>104</ele>
        <time>2019-08-18T10:04:03Z</time>
      </trkpt>
      <trkpt lat="47.32153" lon="-2.40721">
        <ele>104</ele>
        <time>2019-08-18T10:04:04Z</time>
      </trkpt>
      <trkpt lat="47.32149" lon="-2.40717">
        <ele>104</ele>
        <time>2019-08-18T10:04:05Z</time>
      </trkpt>
      <trkpt lat="47.32144" lon="-2.40713">
        <ele>105</ele>
        <time>2019-08-18T10:04:06Z</time>
      </trkpt>
      <trkpt lat="47.3214" lon="-2.40708">
        <ele>105</ele>
        <time>2019-08-18T10:04:07Z</time>
      </trkpt>
      <trkpt lat="47.32132" lon="-2.40695">
        <ele>105</ele>
        <time>2019-08-18T10:04:09Z</time>
      </trkpt>
      <trkpt lat="47.32123" lon="-2.40685">
        <ele>105</ele>
        <time>2019-08-18T10:04:11Z</time>
      </trkpt>
      <trkpt lat="47.32096" lon="-2.4066">
        <ele>103</ele>
        <time>2019-08-18T10:04:16Z</time>
      </trkpt>
      <trkpt lat="47.32091" lon="-2.40655">
        <ele>103</ele>
        <time>2019-08-18T10:04:17Z</time>
      </trkpt>
      <trkpt lat="47.32087" lon="-2.40648">
        <ele>104</ele>
        <time>2019-08-18T10:04:18Z</time>
      </trkpt>
      <trkpt lat="47.32082" lon="-2.40643">
        <ele>104</ele>
        <time>2019-08-18T10:04:19Z</time>
      </trkpt>
      <trkpt lat="47.32077" lon="-2.40639">
        <ele>104</ele>
        <time>2019-08-18T10:04:20Z</time>
      </trkpt>
      <trkpt lat="47.32067" lon="-2.40629">
        <ele>103</ele>
        <time>2019-08-18T10:04:22Z</time>
      </trkpt>
      <trkpt lat="47.32063" lon="-2.40624">
        <ele>103</ele>
        <time>2019-08-18T10:04:23Z</time>
      </trkpt>
      <trkpt lat="47.32058" lon="-2.40619">
        <ele>103</ele>
        <time>2019-08-18T10:04:24Z</time>
      </trkpt>
      <trkpt lat="47.32052" lon="-2.40614">
        <ele>103</ele>
        <time>2019-08-18T10:04:25Z</time>
      </trkpt>
      <trkpt lat="47.32037" lon="-2.406">
        <ele>103</ele>
        <time>2019-08-18T10:04:28Z</time>
      </trkpt>
      <trkpt lat="47.32026" lon="-2.40593">
        <ele>103</ele>
        <time>2019-08-18T10:04:30Z</time>
      </trkpt>
      <trkpt lat="47.32021" lon="-2.40589">
        <ele>103</ele>
        <time>2019-08-18T10:04:31Z</time>
      </trkpt>
      <trkpt lat="47.32015" lon="-2.40585">
        <ele>103</ele>
        <time>2019-08-18T10:04:32Z</time>
      </trkpt>
      <trkpt lat="47.32003" lon="-2.40575">
        <ele>103</ele>
        <time>2019-08-18T10:04:34Z</time>
      </trkpt>
      <trkpt lat="47.31997" lon="-2.40569">
        <ele>103</ele>
        <time>2019-08-18T10:04:35Z</time>
      </trkpt>
      <trkpt lat="47.3199" lon="-2.40565">
        <ele>103</ele>
        <time>2019-08-18T10:04:36Z</time>
      </trkpt>
      <trkpt lat="47.31983" lon="-2.4056">
        <ele>103</ele>
        <time>2019-08-18T10:04:37Z</time>
      </trkpt>
      <trkpt lat="47.31976" lon="-2.40555">
        <ele>103</ele>
        <time>2019-08-18T10:04:38Z</time>
      </trkpt>
      <trkpt lat="47.31951" lon="-2.40535">
        <ele>104</ele>
        <time>2019-08-18T10:04:42Z</time>
      </trkpt>
      <trkpt lat="47.31944" lon="-2.40531">
        <ele>104</ele>
        <time>2019-08-18T10:04:43Z</time>
      </trkpt>
      <trkpt lat="47.31925" lon="-2.40514">
        <ele>104</ele>
        <time>2019-08-18T10:04:46Z</time>
      </trkpt>
      <trkpt lat="47.31918" lon="-2.40509">
        <ele>105</ele>
        <time>2019-08-18T10:04:47Z</time>
      </trkpt>
      <trkpt lat="47.31905" lon="-2.40498">
        <ele>105</ele>
        <time>2019-08-18T10:04:49Z</time>
      </trkpt>
      <trkpt lat="47.31898" lon="-2.40493">
        <ele>105</ele>
        <time>2019-08-18T10:04:50Z</time>
      </trkpt>
      <trkpt lat="47.31891" lon="-2.40487">
        <ele>105</ele>
        <time>2019-08-18T10:04:51Z</time>
      </trkpt>
      <trkpt lat="47.31885" lon="-2.40481">
        <ele>105</ele>
        <time>2019-08-18T10:04:52Z</time>
      </trkpt>
      <trkpt lat="47.31867" lon="-2.40466">
        <ele>104</ele>
        <time>2019-08-18T10:04:55Z</time>
      </trkpt>
      <trkpt lat="47.3186" lon="-2.40461">
        <ele>104</ele>
        <time>2019-08-18T10:04:56Z</time>
      </trkpt>
      <trkpt lat="47.31853" lon="-2.40457">
        <ele>104</ele>
        <time>2019-08-18T10:04:57Z</time>
      </trkpt>
      <trkpt lat="47.31828" lon="-2.40439">
        <ele>104</ele>
        <time>2019-08-18T10:05:01Z</time>
      </trkpt>
      <trkpt lat="47.31802" lon="-2.4042">
        <ele>105</ele>
        <time>2019-08-18T10:05:05Z</time>
      </trkpt>
      <trkpt lat="47.31795" lon="-2.40416">
        <ele>105</ele>
        <time>2019-08-18T10:05:06Z</time>
      </trkpt>
      <trkpt lat="47.31788" lon="-2.40412">
        <ele>105</ele>
        <time>2019-08-18T10:05:07Z</time>
      </trkpt>
      <trkpt lat="47.31782" lon="-2.40406">
        <ele>104</ele>
        <time>2019-08-18T10:05:08Z</time>
      </trkpt>
      <trkpt lat="47.31776" lon="-2.40401">
        <ele>103</ele>
        <time>2019-08-18T10:05:09Z</time>
      </trkpt>
      <trkpt lat="47.31766" lon="-2.40394">
        <ele>103</ele>
        <time>2019-08-18T10:05:11Z</time>
      </trkpt>
      <trkpt lat="47.3176" lon="-2.40391">
        <ele>103</ele>
        <time>2019-08-18T10:05:12Z</time>
      </trkpt>
      <trkpt lat="47.31751" lon="-2.40382">
        <ele>102</ele>
        <time>2019-08-18T10:05:14Z</time>
      </trkpt>
      <trkpt lat="47.31745" lon="-2.40378">
        <ele>102</ele>
        <time>2019-08-18T10:05:15Z</time>
      </trkpt>
      <trkpt lat="47.31727" lon="-2.40366">
        <ele>102</ele>
        <time>2019-08-18T10:05:18Z</time>
      </trkpt>
      <trkpt lat="47.31717" lon="-2.40359">
        <ele>102</ele>
        <time>2019-08-18T10:05:20Z</time>
      </trkpt>
      <trkpt lat="47.31705" lon="-2.4035">
        <ele>103</ele>
        <time>2019-08-18T10:05:22Z</time>
      </trkpt>
      <trkpt lat="47.31697" lon="-2.40345">
        <ele>103</ele>
        <time>2019-08-18T10:05:23Z</time>
      </trkpt>
      <trkpt lat="47.31689" lon="-2.40337">
        <ele>102</ele>
        <time>2019-08-18T10:05:25Z</time>
      </trkpt>
      <trkpt lat="47.31682" lon="-2.40333">
        <ele>101</ele>
        <time>2019-08-18T10:05:27Z</time>
      </trkpt>
      <trkpt lat="47.31677" lon="-2.40327">
        <ele>100</ele>
        <time>2019-08-18T10:05:30Z</time>
      </trkpt>
      <trkpt lat="47.31674" lon="-2.40325">
        <ele>100</ele>
        <time>2019-08-18T10:05:31Z</time>
      </trkpt>
      <trkpt lat="47.31664" lon="-2.40315">
        <ele>99</ele>
        <time>2019-08-18T10:05:34Z</time>
      </trkpt>
      <trkpt lat="47.31657" lon="-2.40306">
        <ele>99</ele>
        <time>2019-08-18T10:05:36Z</time>
      </trkpt>
      <trkpt lat="47.31648" lon="-2.403">
        <ele>99</ele>
        <time>2019-08-18T10:05:38Z</time>
      </trkpt>
      <trkpt lat="47.31644" lon="-2.40296">
        <ele>99</ele>
        <time>2019-08-18T10:05:39Z</time>
      </trkpt>
      <trkpt lat="47.31638" lon="-2.40292">
        <ele>98</ele>
        <time>2019-08-18T10:05:40Z</time>
      </trkpt>
      <trkpt lat="47.31633" lon="-2.40289">
        <ele>99</ele>
        <time>2019-08-18T10:05:41Z</time>
      </trkpt>
      <trkpt lat="47.31615" lon="-2.40276">
        <ele>98</ele>
        <time>2019-08-18T10:05:44Z</time>
      </trkpt>
      <trkpt lat="47.31609" lon="-2.40272">
        <ele>98</ele>
        <time>2019-08-18T10:05:45Z</time>
      </trkpt>
      <trkpt lat="47.31603" lon="-2.40269">
        <ele>99</ele>
        <time>2019-08-18T10:05:46Z</time>
      </trkpt>
      <trkpt lat="47.31596" lon="-2.40265">
        <ele>99</ele>
        <time>2019-08-18T10:05:47Z</time>
      </trkpt>
      <trkpt lat="47.31584" lon="-2.40256">
        <ele>99</ele>
        <time>2019-08-18T10:05:49Z</time>
      </trkpt>
      <trkpt lat="47.31579" lon="-2.40252">
        <ele>99</ele>
        <time>2019-08-18T10:05:50Z</time>
      </trkpt>
      <trkpt lat="47.31573" lon="-2.40247">
        <ele>99</ele>
        <time>2019-08-18T10:05:51Z</time>
      </trkpt>
      <trkpt lat="47.31568" lon="-2.40242">
        <ele>98</ele>
        <time>2019-08-18T10:05:52Z</time>
      </trkpt>
      <trkpt lat="47.31558" lon="-2.40235">
        <ele>98</ele>
        <time>2019-08-18T10:05:54Z</time>
      </trkpt>
      <trkpt lat="47.31549" lon="-2.40232">
        <ele>98</ele>
        <time>2019-08-18T10:05:56Z</time>
      </trkpt>
      <trkpt lat="47.31541" lon="-2.4022">
        <ele>98</ele>
        <time>2019-08-18T10:05:59Z</time>
      </trkpt>
      <trkpt lat="47.31538" lon="-2.40216">
        <ele>98</ele>
        <time>2019-08-18T10:06:00Z</time>
      </trkpt>
      <trkpt lat="47.31535" lon="-2.40211">
        <ele>98</ele>
        <time>2019-08-18T10:06:01Z</time>
      </trkpt>
      <trkpt lat="47.31525" lon="-2.40204">
        <ele>98</ele>
        <time>2019-08-18T10:06:03Z</time>
      </trkpt>
      <trkpt lat="47.315" lon="-2.40188">
        <ele>98</ele>
        <time>2019-08-18T10:06:07Z</time>
      </trkpt>
      <trkpt lat="47.31494" lon="-2.40184">
        <ele>98</ele>
        <time>2019-08-18T10:06:08Z</time>
      </trkpt>
      <trkpt lat="47.31487" lon="-2.4018">
        <ele>98</ele>
        <time>2019-08-18T10:06:09Z</time>
      </trkpt>
      <trkpt lat="47.3148" lon="-2.40176">
        <ele>98</ele>
        <time>2019-08-18T10:06:10Z</time>
      </trkpt>
      <trkpt lat="47.31474" lon="-2.40171">
        <ele>97</ele>
        <time>2019-08-18T10:06:11Z</time>
      </trkpt>
      <trkpt lat="47.31454" lon="-2.40158">
        <ele>96</ele>
        <time>2019-08-18T10:06:14Z</time>
      </trkpt>
      <trkpt lat="47.31441" lon="-2.40147">
        <ele>96</ele>
        <time>2019-08-18T10:06:16Z</time>
      </trkpt>
      <trkpt lat="47.31434" lon="-2.40143">
        <ele>95</ele>
        <time>2019-08-18T10:06:17Z</time>
      </trkpt>
      <trkpt lat="47.31428" lon="-2.4014">
        <ele>95</ele>
        <time>2019-08-18T10:06:18Z</time>
      </trkpt>
      <trkpt lat="47.31423" lon="-2.40136">
        <ele>95</ele>
        <time>2019-08-18T10:06:19Z</time>
      </trkpt>
      <trkpt lat="47.31412" lon="-2.40128">
        <ele>94</ele>
        <time>2019-08-18T10:06:21Z</time>
      </trkpt>
      <trkpt lat="47.31397" lon="-2.40122">
        <ele>94</ele>
        <time>2019-08-18T10:06:24Z</time>
      </trkpt>
      <trkpt lat="47.31392" lon="-2.40118">
        <ele>94</ele>
        <time>2019-08-18T10:06:25Z</time>
      </trkpt>
      <trkpt lat="47.31379" lon="-2.40111">
        <ele>94</ele>
        <time>2019-08-18T10:06:27Z</time>
      </trkpt>
      <trkpt lat="47.31374" lon="-2.40108">
        <ele>94</ele>
        <time>2019-08-18T10:06:28Z</time>
      </trkpt>
      <trkpt lat="47.31357" lon="-2.40097">
        <ele>94</ele>
        <time>2019-08-18T10:06:31Z</time>
      </trkpt>
      <trkpt lat="47.3135" lon="-2.40094">
        <ele>94</ele>
        <time>2019-08-18T10:06:32Z</time>
      </trkpt>
      <trkpt lat="47.31343" lon="-2.40092">
        <ele>94</ele>
        <time>2019-08-18T10:06:33Z</time>
      </trkpt>
      <trkpt lat="47.31338" lon="-2.4009">
        <ele>94</ele>
        <time>2019-08-18T10:06:34Z</time>
      </trkpt>
      <trkpt lat="47.3132" lon="-2.40085">
        <ele>94</ele>
        <time>2019-08-18T10:06:37Z</time>
      </trkpt>
      <trkpt lat="47.31314" lon="-2.40083">
        <ele>94</ele>
        <time>2019-08-18T10:06:38Z</time>
      </trkpt>
      <trkpt lat="47.31308" lon="-2.40081">
        <ele>94</ele>
        <time>2019-08-18T10:06:39Z</time>
      </trkpt>
      <trkpt lat="47.31302" lon="-2.40079">
        <ele>93</ele>
        <time>2019-08-18T10:06:40Z</time>
      </trkpt>
      <trkpt lat="47.3129" lon="-2.40079">
        <ele>93</ele>
        <time>2019-08-18T10:06:42Z</time>
      </trkpt>
      <trkpt lat="47.31281" lon="-2.40075">
        <ele>94</ele>
        <time>2019-08-18T10:06:44Z</time>
      </trkpt>
      <trkpt lat="47.31276" lon="-2.40073">
        <ele>94</ele>
        <time>2019-08-18T10:06:45Z</time>
      </trkpt>
      <trkpt lat="47.3127" lon="-2.40069">
        <ele>93</ele>
        <time>2019-08-18T10:06:46Z</time>
      </trkpt>
      <trkpt lat="47.31265" lon="-2.40064">
        <ele>93</ele>
        <time>2019-08-18T10:06:47Z</time>
      </trkpt>
      <trkpt lat="47.31258" lon="-2.40057">
        <ele>94</ele>
        <time>2019-08-18T10:06:49Z</time>
      </trkpt>
      <trkpt lat="47.31254" lon="-2.40054">
        <ele>94</ele>
        <time>2019-08-18T10:06:50Z</time>
      </trkpt>
      <trkpt lat="47.31249" lon="-2.40049">
        <ele>93</ele>
        <time>2019-08-18T10:06:52Z</time>
      </trkpt>
      <trkpt lat="47.31243" lon="-2.40046">
        <ele>93</ele>
        <time>2019-08-18T10:06:54Z</time>
      </trkpt>
      <trkpt lat="47.3124" lon="-2.40044">
        <ele>93</ele>
        <time>2019-08-18T10:06:55Z</time>
      </trkpt>
      <trkpt lat="47.31236" lon="-2.40038">
        <ele>92</ele>
        <time>2019-08-18T10:06:57Z</time>
      </trkpt>
      <trkpt lat="47.31235" lon="-2.40032">
        <ele>92</ele>
        <time>2019-08-18T10:06:59Z</time>
      </trkpt>
      <trkpt lat="47.31234" lon="-2.40028">
        <ele>92</ele>
        <time>2019-08-18T10:07:00Z</time>
      </trkpt>
      <trkpt lat="47.31232" lon="-2.40024">
        <ele>92</ele>
        <time>2019-08-18T10:07:01Z</time>
      </trkpt>
      <trkpt lat="47.31229" lon="-2.40014">
        <ele>93</ele>
        <time>2019-08-18T10:07:03Z</time>
      </trkpt>
      <trkpt lat="47.31225" lon="-2.39995">
        <ele>92</ele>
        <time>2019-08-18T10:07:07Z</time>
      </trkpt>
      <trkpt lat="47.31222" lon="-2.39986">
        <ele>92</ele>
        <time>2019-08-18T10:07:09Z</time>
      </trkpt>
      <trkpt lat="47.3122" lon="-2.39981">
        <ele>92</ele>
        <time>2019-08-18T10:07:10Z</time>
      </trkpt>
      <trkpt lat="47.31218" lon="-2.39973">
        <ele>93</ele>
        <time>2019-08-18T10:07:12Z</time>
      </trkpt>
      <trkpt lat="47.31216" lon="-2.39964">
        <ele>93</ele>
        <time>2019-08-18T10:07:14Z</time>
      </trkpt>
      <trkpt lat="47.31213" lon="-2.39955">
        <ele>93</ele>
        <time>2019-08-18T10:07:16Z</time>
      </trkpt>
      <trkpt lat="47.31211" lon="-2.39951">
        <ele>93</ele>
        <time>2019-08-18T10:07:17Z</time>
      </trkpt>
      <trkpt lat="47.31209" lon="-2.39946">
        <ele>94</ele>
        <time>2019-08-18T10:07:18Z</time>
      </trkpt>
      <trkpt lat="47.31205" lon="-2.39936">
        <ele>93</ele>
        <time>2019-08-18T10:07:20Z</time>
      </trkpt>
      <trkpt lat="47.31202" lon="-2.39927">
        <ele>94</ele>
        <time>2019-08-18T10:07:22Z</time>
      </trkpt>
      <trkpt lat="47.312" lon="-2.39922">
        <ele>94</ele>
        <time>2019-08-18T10:07:23Z</time>
      </trkpt>
      <trkpt lat="47.31197" lon="-2.39908">
        <ele>94</ele>
        <time>2019-08-18T10:07:26Z</time>
      </trkpt>
      <trkpt lat="47.31193" lon="-2.39899">
        <ele>94</ele>
        <time>2019-08-18T10:07:28Z</time>
      </trkpt>
      <trkpt lat="47.31191" lon="-2.39893">
        <ele>94</ele>
        <time>2019-08-18T10:07:30Z</time>
      </trkpt>
      <trkpt lat="47.31191" lon="-2.39893">
        <ele>94</ele>
        <time>2019-08-18T10:07:36Z</time>
      </trkpt>
      <trkpt lat="47.31191" lon="-2.39893">
        <ele>42.8</ele>
        <time>2019-08-18T10:07:36Z</time>
      </trkpt>
      <trkpt lat="47.31191" lon="-2.39893">
        <ele>42.8</ele>
        <time>2019-08-18T10:07:40Z</time>
      </trkpt>
      <trkpt lat="47.31188" lon="-2.39881">
        <ele>93</ele>
        <time>2019-08-18T10:07:40Z</time>
      </trkpt>
      <trkpt lat="47.31181" lon="-2.3985">
        <ele>98</ele>
        <time>2019-08-18T10:07:46Z</time>
      </trkpt>
      <trkpt lat="47.31179" lon="-2.39845">
        <ele>97</ele>
        <time>2019-08-18T10:07:47Z</time>
      </trkpt>
      <trkpt lat="47.31174" lon="-2.39838">
        <ele>94</ele>
        <time>2019-08-18T10:07:49Z</time>
      </trkpt>
      <trkpt lat="47.31166" lon="-2.39825">
        <ele>92</ele>
        <time>2019-08-18T10:07:52Z</time>
      </trkpt>
      <trkpt lat="47.31163" lon="-2.3982">
        <ele>93</ele>
        <time>2019-08-18T10:07:53Z</time>
      </trkpt>
      <trkpt lat="47.3116" lon="-2.39811">
        <ele>92</ele>
        <time>2019-08-18T10:07:55Z</time>
      </trkpt>
      <trkpt lat="47.31154" lon="-2.39796">
        <ele>91</ele>
        <time>2019-08-18T10:07:58Z</time>
      </trkpt>
      <trkpt lat="47.3115" lon="-2.39785">
        <ele>91</ele>
        <time>2019-08-18T10:08:00Z</time>
      </trkpt>
      <trkpt lat="47.31148" lon="-2.39779">
        <ele>92</ele>
        <time>2019-08-18T10:08:01Z</time>
      </trkpt>
      <trkpt lat="47.31146" lon="-2.39775">
        <ele>92</ele>
        <time>2019-08-18T10:08:02Z</time>
      </trkpt>
      <trkpt lat="47.31144" lon="-2.39769">
        <ele>92</ele>
        <time>2019-08-18T10:08:03Z</time>
      </trkpt>
      <trkpt lat="47.31143" lon="-2.39764">
        <ele>92</ele>
        <time>2019-08-18T10:08:04Z</time>
      </trkpt>
      <trkpt lat="47.31141" lon="-2.39758">
        <ele>93</ele>
        <time>2019-08-18T10:08:05Z</time>
      </trkpt>
      <trkpt lat="47.31136" lon="-2.39748">
        <ele>93</ele>
        <time>2019-08-18T10:08:07Z</time>
      </trkpt>
      <trkpt lat="47.31134" lon="-2.39743">
        <ele>94</ele>
        <time>2019-08-18T10:08:08Z</time>
      </trkpt>
      <trkpt lat="47.31133" lon="-2.39737">
        <ele>94</ele>
        <time>2019-08-18T10:08:09Z</time>
      </trkpt>
      <trkpt lat="47.3113" lon="-2.39732">
        <ele>94</ele>
        <time>2019-08-18T10:08:10Z</time>
      </trkpt>
      <trkpt lat="47.31128" lon="-2.39727">
        <ele>94</ele>
        <time>2019-08-18T10:08:11Z</time>
      </trkpt>
      <trkpt lat="47.31126" lon="-2.39721">
        <ele>94</ele>
        <time>2019-08-18T10:08:12Z</time>
      </trkpt>
      <trkpt lat="47.31124" lon="-2.39715">
        <ele>94</ele>
        <time>2019-08-18T10:08:13Z</time>
      </trkpt>
      <trkpt lat="47.31122" lon="-2.3971">
        <ele>95</ele>
        <time>2019-08-18T10:08:14Z</time>
      </trkpt>
      <trkpt lat="47.31116" lon="-2.39692">
        <ele>95</ele>
        <time>2019-08-18T10:08:17Z</time>
      </trkpt>
      <trkpt lat="47.31114" lon="-2.39686">
        <ele>95</ele>
        <time>2019-08-18T10:08:18Z</time>
      </trkpt>
      <trkpt lat="47.31112" lon="-2.3968">
        <ele>94</ele>
        <time>2019-08-18T10:08:19Z</time>
      </trkpt>
      <trkpt lat="47.31108" lon="-2.39669">
        <ele>94</ele>
        <time>2019-08-18T10:08:21Z</time>
      </trkpt>
      <trkpt lat="47.31106" lon="-2.39663">
        <ele>94</ele>
        <time>2019-08-18T10:08:22Z</time>
      </trkpt>
      <trkpt lat="47.31104" lon="-2.39658">
        <ele>94</ele>
        <time>2019-08-18T10:08:23Z</time>
      </trkpt>
      <trkpt lat="47.31102" lon="-2.39653">
        <ele>95</ele>
        <time>2019-08-18T10:08:24Z</time>
      </trkpt>
      <trkpt lat="47.31099" lon="-2.39647">
        <ele>95</ele>
        <time>2019-08-18T10:08:25Z</time>
      </trkpt>
      <trkpt lat="47.31097" lon="-2.39642">
        <ele>95</ele>
        <time>2019-08-18T10:08:26Z</time>
      </trkpt>
      <trkpt lat="47.31095" lon="-2.39635">
        <ele>95</ele>
        <time>2019-08-18T10:08:27Z</time>
      </trkpt>
      <trkpt lat="47.31093" lon="-2.3963">
        <ele>95</ele>
        <time>2019-08-18T10:08:28Z</time>
      </trkpt>
      <trkpt lat="47.31091" lon="-2.39624">
        <ele>95</ele>
        <time>2019-08-18T10:08:29Z</time>
      </trkpt>
      <trkpt lat="47.31089" lon="-2.39618">
        <ele>95</ele>
        <time>2019-08-18T10:08:30Z</time>
      </trkpt>
      <trkpt lat="47.31087" lon="-2.39612">
        <ele>95</ele>
        <time>2019-08-18T10:08:31Z</time>
      </trkpt>
      <trkpt lat="47.31085" lon="-2.39605">
        <ele>95</ele>
        <time>2019-08-18T10:08:32Z</time>
      </trkpt>
      <trkpt lat="47.31083" lon="-2.39599">
        <ele>95</ele>
        <time>2019-08-18T10:08:33Z</time>
      </trkpt>
      <trkpt lat="47.3108" lon="-2.39593">
        <ele>95</ele>
        <time>2019-08-18T10:08:34Z</time>
      </trkpt>
      <trkpt lat="47.31078" lon="-2.39587">
        <ele>95</ele>
        <time>2019-08-18T10:08:35Z</time>
      </trkpt>
      <trkpt lat="47.31075" lon="-2.3958">
        <ele>95</ele>
        <time>2019-08-18T10:08:36Z</time>
      </trkpt>
      <trkpt lat="47.31073" lon="-2.39573">
        <ele>95</ele>
        <time>2019-08-18T10:08:37Z</time>
      </trkpt>
      <trkpt lat="47.3107" lon="-2.39565">
        <ele>95</ele>
        <time>2019-08-18T10:08:38Z</time>
      </trkpt>
      <trkpt lat="47.31068" lon="-2.39558">
        <ele>96</ele>
        <time>2019-08-18T10:08:39Z</time>
      </trkpt>
      <trkpt lat="47.31066" lon="-2.3955">
        <ele>95</ele>
        <time>2019-08-18T10:08:40Z</time>
      </trkpt>
      <trkpt lat="47.31063" lon="-2.39541">
        <ele>95</ele>
        <time>2019-08-18T10:08:41Z</time>
      </trkpt>
      <trkpt lat="47.3106" lon="-2.39533">
        <ele>94</ele>
        <time>2019-08-18T10:08:42Z</time>
      </trkpt>
      <trkpt lat="47.31056" lon="-2.39524">
        <ele>94</ele>
        <time>2019-08-18T10:08:43Z</time>
      </trkpt>
      <trkpt lat="47.31046" lon="-2.39497">
        <ele>93</ele>
        <time>2019-08-18T10:08:46Z</time>
      </trkpt>
      <trkpt lat="47.31043" lon="-2.39488">
        <ele>93</ele>
        <time>2019-08-18T10:08:47Z</time>
      </trkpt>
      <trkpt lat="47.31037" lon="-2.39469">
        <ele>93</ele>
        <time>2019-08-18T10:08:49Z</time>
      </trkpt>
      <trkpt lat="47.31034" lon="-2.39459">
        <ele>93</ele>
        <time>2019-08-18T10:08:50Z</time>
      </trkpt>
      <trkpt lat="47.31031" lon="-2.3945">
        <ele>93</ele>
        <time>2019-08-18T10:08:51Z</time>
      </trkpt>
      <trkpt lat="47.31028" lon="-2.39442">
        <ele>93</ele>
        <time>2019-08-18T10:08:52Z</time>
      </trkpt>
      <trkpt lat="47.31025" lon="-2.39433">
        <ele>94</ele>
        <time>2019-08-18T10:08:53Z</time>
      </trkpt>
      <trkpt lat="47.31023" lon="-2.39425">
        <ele>94</ele>
        <time>2019-08-18T10:08:54Z</time>
      </trkpt>
      <trkpt lat="47.3102" lon="-2.39417">
        <ele>94</ele>
        <time>2019-08-18T10:08:55Z</time>
      </trkpt>
      <trkpt lat="47.31017" lon="-2.39409">
        <ele>94</ele>
        <time>2019-08-18T10:08:56Z</time>
      </trkpt>
      <trkpt lat="47.31015" lon="-2.39401">
        <ele>94</ele>
        <time>2019-08-18T10:08:57Z</time>
      </trkpt>
      <trkpt lat="47.31012" lon="-2.39393">
        <ele>94</ele>
        <time>2019-08-18T10:08:58Z</time>
      </trkpt>
      <trkpt lat="47.31005" lon="-2.3937">
        <ele>93</ele>
        <time>2019-08-18T10:09:01Z</time>
      </trkpt>
      <trkpt lat="47.31003" lon="-2.39362">
        <ele>93</ele>
        <time>2019-08-18T10:09:02Z</time>
      </trkpt>
      <trkpt lat="47.31001" lon="-2.39355">
        <ele>93</ele>
        <time>2019-08-18T10:09:03Z</time>
      </trkpt>
      <trkpt lat="47.30999" lon="-2.39347">
        <ele>93</ele>
        <time>2019-08-18T10:09:04Z</time>
      </trkpt>
      <trkpt lat="47.30996" lon="-2.39339">
        <ele>93</ele>
        <time>2019-08-18T10:09:05Z</time>
      </trkpt>
      <trkpt lat="47.30994" lon="-2.3933">
        <ele>93</ele>
        <time>2019-08-18T10:09:06Z</time>
      </trkpt>
      <trkpt lat="47.3099" lon="-2.39322">
        <ele>93</ele>
        <time>2019-08-18T10:09:07Z</time>
      </trkpt>
      <trkpt lat="47.30987" lon="-2.39314">
        <ele>92</ele>
        <time>2019-08-18T10:09:08Z</time>
      </trkpt>
      <trkpt lat="47.30985" lon="-2.39305">
        <ele>92</ele>
        <time>2019-08-18T10:09:09Z</time>
      </trkpt>
      <trkpt lat="47.30982" lon="-2.39297">
        <ele>92</ele>
        <time>2019-08-18T10:09:10Z</time>
      </trkpt>
      <trkpt lat="47.30979" lon="-2.39289">
        <ele>92</ele>
        <time>2019-08-18T10:09:11Z</time>
      </trkpt>
      <trkpt lat="47.30976" lon="-2.39282">
        <ele>91</ele>
        <time>2019-08-18T10:09:12Z</time>
      </trkpt>
      <trkpt lat="47.3097" lon="-2.39266">
        <ele>91</ele>
        <time>2019-08-18T10:09:14Z</time>
      </trkpt>
      <trkpt lat="47.30967" lon="-2.39259">
        <ele>91</ele>
        <time>2019-08-18T10:09:15Z</time>
      </trkpt>
      <trkpt lat="47.30964" lon="-2.39251">
        <ele>91</ele>
        <time>2019-08-18T10:09:16Z</time>
      </trkpt>
      <trkpt lat="47.30961" lon="-2.39244">
        <ele>91</ele>
        <time>2019-08-18T10:09:17Z</time>
      </trkpt>
      <trkpt lat="47.30958" lon="-2.39236">
        <ele>91</ele>
        <time>2019-08-18T10:09:18Z</time>
      </trkpt>
      <trkpt lat="47.30955" lon="-2.39229">
        <ele>92</ele>
        <time>2019-08-18T10:09:19Z</time>
      </trkpt>
      <trkpt lat="47.30951" lon="-2.39221">
        <ele>92</ele>
        <time>2019-08-18T10:09:20Z</time>
      </trkpt>
      <trkpt lat="47.30945" lon="-2.39207">
        <ele>92</ele>
        <time>2019-08-18T10:09:22Z</time>
      </trkpt>
      <trkpt lat="47.30939" lon="-2.39192">
        <ele>93</ele>
        <time>2019-08-18T10:09:24Z</time>
      </trkpt>
      <trkpt lat="47.30935" lon="-2.39185">
        <ele>93</ele>
        <time>2019-08-18T10:09:25Z</time>
      </trkpt>
      <trkpt lat="47.30926" lon="-2.39162">
        <ele>92</ele>
        <time>2019-08-18T10:09:28Z</time>
      </trkpt>
      <trkpt lat="47.3092" lon="-2.39146">
        <ele>93</ele>
        <time>2019-08-18T10:09:30Z</time>
      </trkpt>
      <trkpt lat="47.30914" lon="-2.39131">
        <ele>92</ele>
        <time>2019-08-18T10:09:32Z</time>
      </trkpt>
      <trkpt lat="47.30911" lon="-2.39123">
        <ele>92</ele>
        <time>2019-08-18T10:09:33Z</time>
      </trkpt>
      <trkpt lat="47.30906" lon="-2.39108">
        <ele>93</ele>
        <time>2019-08-18T10:09:35Z</time>
      </trkpt>
      <trkpt lat="47.30904" lon="-2.391">
        <ele>93</ele>
        <time>2019-08-18T10:09:36Z</time>
      </trkpt>
      <trkpt lat="47.30901" lon="-2.39092">
        <ele>93</ele>
        <time>2019-08-18T10:09:37Z</time>
      </trkpt>
      <trkpt lat="47.30899" lon="-2.39085">
        <ele>93</ele>
        <time>2019-08-18T10:09:38Z</time>
      </trkpt>
      <trkpt lat="47.30898" lon="-2.39076">
        <ele>94</ele>
        <time>2019-08-18T10:09:39Z</time>
      </trkpt>
      <trkpt lat="47.30897" lon="-2.39067">
        <ele>94</ele>
        <time>2019-08-18T10:09:40Z</time>
      </trkpt>
      <trkpt lat="47.30897" lon="-2.39059">
        <ele>94</ele>
        <time>2019-08-18T10:09:41Z</time>
      </trkpt>
      <trkpt lat="47.30897" lon="-2.3905">
        <ele>94</ele>
        <time>2019-08-18T10:09:42Z</time>
      </trkpt>
      <trkpt lat="47.30897" lon="-2.39041">
        <ele>94</ele>
        <time>2019-08-18T10:09:43Z</time>
      </trkpt>
      <trkpt lat="47.30898" lon="-2.39032">
        <ele>94</ele>
        <time>2019-08-18T10:09:44Z</time>
      </trkpt>
      <trkpt lat="47.30899" lon="-2.39023">
        <ele>94</ele>
        <time>2019-08-18T10:09:45Z</time>
      </trkpt>
      <trkpt lat="47.30901" lon="-2.39005">
        <ele>94</ele>
        <time>2019-08-18T10:09:47Z</time>
      </trkpt>
      <trkpt lat="47.30902" lon="-2.38996">
        <ele>94</ele>
        <time>2019-08-18T10:09:48Z</time>
      </trkpt>
      <trkpt lat="47.30903" lon="-2.38988">
        <ele>94</ele>
        <time>2019-08-18T10:09:49Z</time>
      </trkpt>
      <trkpt lat="47.30904" lon="-2.3898">
        <ele>94</ele>
        <time>2019-08-18T10:09:50Z</time>
      </trkpt>
      <trkpt lat="47.30906" lon="-2.38972">
        <ele>94</ele>
        <time>2019-08-18T10:09:51Z</time>
      </trkpt>
      <trkpt lat="47.30909" lon="-2.38966">
        <ele>94</ele>
        <time>2019-08-18T10:09:52Z</time>
      </trkpt>
      <trkpt lat="47.30912" lon="-2.38959">
        <ele>94</ele>
        <time>2019-08-18T10:09:53Z</time>
      </trkpt>
      <trkpt lat="47.30915" lon="-2.38953">
        <ele>94</ele>
        <time>2019-08-18T10:09:54Z</time>
      </trkpt>
      <trkpt lat="47.30918" lon="-2.38947">
        <ele>93</ele>
        <time>2019-08-18T10:09:55Z</time>
      </trkpt>
      <trkpt lat="47.30921" lon="-2.38941">
        <ele>93</ele>
        <time>2019-08-18T10:09:56Z</time>
      </trkpt>
      <trkpt lat="47.30924" lon="-2.38934">
        <ele>93</ele>
        <time>2019-08-18T10:09:57Z</time>
      </trkpt>
      <trkpt lat="47.30925" lon="-2.38927">
        <ele>93</ele>
        <time>2019-08-18T10:09:58Z</time>
      </trkpt>
      <trkpt lat="47.30926" lon="-2.38919">
        <ele>93</ele>
        <time>2019-08-18T10:09:59Z</time>
      </trkpt>
      <trkpt lat="47.30924" lon="-2.38911">
        <ele>93</ele>
        <time>2019-08-18T10:10:00Z</time>
      </trkpt>
      <trkpt lat="47.30921" lon="-2.38904">
        <ele>93</ele>
        <time>2019-08-18T10:10:01Z</time>
      </trkpt>
      <trkpt lat="47.30917" lon="-2.38898">
        <ele>92</ele>
        <time>2019-08-18T10:10:02Z</time>
      </trkpt>
      <trkpt lat="47.30912" lon="-2.38893">
        <ele>92</ele>
        <time>2019-08-18T10:10:03Z</time>
      </trkpt>
      <trkpt lat="47.30907" lon="-2.38889">
        <ele>92</ele>
        <time>2019-08-18T10:10:04Z</time>
      </trkpt>
      <trkpt lat="47.30901" lon="-2.38887">
        <ele>92</ele>
        <time>2019-08-18T10:10:05Z</time>
      </trkpt>
      <trkpt lat="47.30896" lon="-2.38886">
        <ele>92</ele>
        <time>2019-08-18T10:10:06Z</time>
      </trkpt>
      <trkpt lat="47.30891" lon="-2.38888">
        <ele>92</ele>
        <time>2019-08-18T10:10:07Z</time>
      </trkpt>
      <trkpt lat="47.30886" lon="-2.3889">
        <ele>92</ele>
        <time>2019-08-18T10:10:08Z</time>
      </trkpt>
      <trkpt lat="47.3088" lon="-2.38891">
        <ele>92</ele>
        <time>2019-08-18T10:10:09Z</time>
      </trkpt>
      <trkpt lat="47.30874" lon="-2.3889">
        <ele>92</ele>
        <time>2019-08-18T10:10:10Z</time>
      </trkpt>
      <trkpt lat="47.30868" lon="-2.3889">
        <ele>92</ele>
        <time>2019-08-18T10:10:11Z</time>
      </trkpt>
      <trkpt lat="47.30862" lon="-2.38891">
        <ele>92</ele>
        <time>2019-08-18T10:10:12Z</time>
      </trkpt>
      <trkpt lat="47.30856" lon="-2.38894">
        <ele>92</ele>
        <time>2019-08-18T10:10:13Z</time>
      </trkpt>
      <trkpt lat="47.3085" lon="-2.38897">
        <ele>91</ele>
        <time>2019-08-18T10:10:14Z</time>
      </trkpt>
      <trkpt lat="47.30843" lon="-2.38902">
        <ele>91</ele>
        <time>2019-08-18T10:10:15Z</time>
      </trkpt>
      <trkpt lat="47.30837" lon="-2.38907">
        <ele>91</ele>
        <time>2019-08-18T10:10:16Z</time>
      </trkpt>
      <trkpt lat="47.3083" lon="-2.38912">
        <ele>91</ele>
        <time>2019-08-18T10:10:17Z</time>
      </trkpt>
      <trkpt lat="47.30823" lon="-2.38917">
        <ele>91</ele>
        <time>2019-08-18T10:10:18Z</time>
      </trkpt>
      <trkpt lat="47.30792" lon="-2.38942">
        <ele>92</ele>
        <time>2019-08-18T10:10:23Z</time>
      </trkpt>
      <trkpt lat="47.30785" lon="-2.38947">
        <ele>92</ele>
        <time>2019-08-18T10:10:24Z</time>
      </trkpt>
      <trkpt lat="47.30775" lon="-2.38954">
        <ele>92</ele>
        <time>2019-08-18T10:10:26Z</time>
      </trkpt>
      <trkpt lat="47.3077" lon="-2.38958">
        <ele>93</ele>
        <time>2019-08-18T10:10:27Z</time>
      </trkpt>
      <trkpt lat="47.30765" lon="-2.38963">
        <ele>93</ele>
        <time>2019-08-18T10:10:28Z</time>
      </trkpt>
      <trkpt lat="47.30761" lon="-2.38967">
        <ele>93</ele>
        <time>2019-08-18T10:10:29Z</time>
      </trkpt>
      <trkpt lat="47.30757" lon="-2.38973">
        <ele>93</ele>
        <time>2019-08-18T10:10:30Z</time>
      </trkpt>
      <trkpt lat="47.3075" lon="-2.38985">
        <ele>93</ele>
        <time>2019-08-18T10:10:32Z</time>
      </trkpt>
      <trkpt lat="47.30747" lon="-2.38991">
        <ele>93</ele>
        <time>2019-08-18T10:10:33Z</time>
      </trkpt>
      <trkpt lat="47.30743" lon="-2.38996">
        <ele>94</ele>
        <time>2019-08-18T10:10:34Z</time>
      </trkpt>
      <trkpt lat="47.30739" lon="-2.38999">
        <ele>94</ele>
        <time>2019-08-18T10:10:35Z</time>
      </trkpt>
      <trkpt lat="47.30729" lon="-2.38998">
        <ele>94</ele>
        <time>2019-08-18T10:10:37Z</time>
      </trkpt>
      <trkpt lat="47.30721" lon="-2.38991">
        <ele>93</ele>
        <time>2019-08-18T10:10:39Z</time>
      </trkpt>
      <trkpt lat="47.30717" lon="-2.38986">
        <ele>93</ele>
        <time>2019-08-18T10:10:40Z</time>
      </trkpt>
      <trkpt lat="47.30714" lon="-2.38981">
        <ele>93</ele>
        <time>2019-08-18T10:10:41Z</time>
      </trkpt>
      <trkpt lat="47.30711" lon="-2.38975">
        <ele>92</ele>
        <time>2019-08-18T10:10:42Z</time>
      </trkpt>
      <trkpt lat="47.30707" lon="-2.3897">
        <ele>92</ele>
        <time>2019-08-18T10:10:43Z</time>
      </trkpt>
      <trkpt lat="47.30703" lon="-2.38965">
        <ele>92</ele>
        <time>2019-08-18T10:10:44Z</time>
      </trkpt>
      <trkpt lat="47.307" lon="-2.38959">
        <ele>92</ele>
        <time>2019-08-18T10:10:45Z</time>
      </trkpt>
      <trkpt lat="47.30698" lon="-2.38954">
        <ele>91</ele>
        <time>2019-08-18T10:10:46Z</time>
      </trkpt>
      <trkpt lat="47.30695" lon="-2.38934">
        <ele>91</ele>
        <time>2019-08-18T10:10:49Z</time>
      </trkpt>
      <trkpt lat="47.30696" lon="-2.38922">
        <ele>92</ele>
        <time>2019-08-18T10:10:51Z</time>
      </trkpt>
      <trkpt lat="47.30691" lon="-2.38913">
        <ele>92</ele>
        <time>2019-08-18T10:10:53Z</time>
      </trkpt>
      <trkpt lat="47.30676" lon="-2.38917">
        <ele>93</ele>
        <time>2019-08-18T10:10:57Z</time>
      </trkpt>
      <trkpt lat="47.3067" lon="-2.38923">
        <ele>94</ele>
        <time>2019-08-18T10:10:59Z</time>
      </trkpt>
      <trkpt lat="47.30663" lon="-2.38929">
        <ele>94</ele>
        <time>2019-08-18T10:11:01Z</time>
      </trkpt>
      <trkpt lat="47.30657" lon="-2.38934">
        <ele>94</ele>
        <time>2019-08-18T10:11:03Z</time>
      </trkpt>
      <trkpt lat="47.30648" lon="-2.38944">
        <ele>96</ele>
        <time>2019-08-18T10:11:06Z</time>
      </trkpt>
      <trkpt lat="47.30638" lon="-2.38957">
        <ele>95</ele>
        <time>2019-08-18T10:11:09Z</time>
      </trkpt>
      <trkpt lat="47.30629" lon="-2.38964">
        <ele>95</ele>
        <time>2019-08-18T10:11:11Z</time>
      </trkpt>
      <trkpt lat="47.30624" lon="-2.38969">
        <ele>95</ele>
        <time>2019-08-18T10:11:12Z</time>
      </trkpt>
      <trkpt lat="47.3062" lon="-2.38973">
        <ele>94</ele>
        <time>2019-08-18T10:11:13Z</time>
      </trkpt>
      <trkpt lat="47.30615" lon="-2.38979">
        <ele>94</ele>
        <time>2019-08-18T10:11:14Z</time>
      </trkpt>
      <trkpt lat="47.30602" lon="-2.38996">
        <ele>94</ele>
        <time>2019-08-18T10:11:17Z</time>
      </trkpt>
      <trkpt lat="47.30597" lon="-2.39002">
        <ele>94</ele>
        <time>2019-08-18T10:11:18Z</time>
      </trkpt>
      <trkpt lat="47.30592" lon="-2.39008">
        <ele>94</ele>
        <time>2019-08-18T10:11:19Z</time>
      </trkpt>
      <trkpt lat="47.30587" lon="-2.39014">
        <ele>94</ele>
        <time>2019-08-18T10:11:20Z</time>
      </trkpt>
      <trkpt lat="47.30581" lon="-2.39021">
        <ele>94</ele>
        <time>2019-08-18T10:11:21Z</time>
      </trkpt>
      <trkpt lat="47.30576" lon="-2.39027">
        <ele>94</ele>
        <time>2019-08-18T10:11:22Z</time>
      </trkpt>
      <trkpt lat="47.30567" lon="-2.39038">
        <ele>94</ele>
        <time>2019-08-18T10:11:24Z</time>
      </trkpt>
      <trkpt lat="47.30557" lon="-2.3905">
        <ele>94</ele>
        <time>2019-08-18T10:11:26Z</time>
      </trkpt>
      <trkpt lat="47.30548" lon="-2.39061">
        <ele>94</ele>
        <time>2019-08-18T10:11:28Z</time>
      </trkpt>
      <trkpt lat="47.30538" lon="-2.39071">
        <ele>95</ele>
        <time>2019-08-18T10:11:30Z</time>
      </trkpt>
      <trkpt lat="47.30528" lon="-2.3908">
        <ele>95</ele>
        <time>2019-08-18T10:11:32Z</time>
      </trkpt>
      <trkpt lat="47.30522" lon="-2.39083">
        <ele>95</ele>
        <time>2019-08-18T10:11:33Z</time>
      </trkpt>
      <trkpt lat="47.30504" lon="-2.391">
        <ele>93</ele>
        <time>2019-08-18T10:11:36Z</time>
      </trkpt>
      <trkpt lat="47.30499" lon="-2.39106">
        <ele>93</ele>
        <time>2019-08-18T10:11:37Z</time>
      </trkpt>
      <trkpt lat="47.30488" lon="-2.39118">
        <ele>93</ele>
        <time>2019-08-18T10:11:39Z</time>
      </trkpt>
      <trkpt lat="47.30483" lon="-2.39125">
        <ele>93</ele>
        <time>2019-08-18T10:11:40Z</time>
      </trkpt>
      <trkpt lat="47.30478" lon="-2.3913">
        <ele>93</ele>
        <time>2019-08-18T10:11:41Z</time>
      </trkpt>
      <trkpt lat="47.30473" lon="-2.39137">
        <ele>92</ele>
        <time>2019-08-18T10:11:42Z</time>
      </trkpt>
      <trkpt lat="47.30467" lon="-2.39144">
        <ele>92</ele>
        <time>2019-08-18T10:11:43Z</time>
      </trkpt>
      <trkpt lat="47.3046" lon="-2.3915">
        <ele>92</ele>
        <time>2019-08-18T10:11:44Z</time>
      </trkpt>
      <trkpt lat="47.30454" lon="-2.39155">
        <ele>91</ele>
        <time>2019-08-18T10:11:45Z</time>
      </trkpt>
      <trkpt lat="47.30447" lon="-2.39161">
        <ele>91</ele>
        <time>2019-08-18T10:11:46Z</time>
      </trkpt>
      <trkpt lat="47.30441" lon="-2.39167">
        <ele>91</ele>
        <time>2019-08-18T10:11:47Z</time>
      </trkpt>
      <trkpt lat="47.30434" lon="-2.39171">
        <ele>91</ele>
        <time>2019-08-18T10:11:48Z</time>
      </trkpt>
      <trkpt lat="47.30427" lon="-2.39173">
        <ele>91</ele>
        <time>2019-08-18T10:11:49Z</time>
      </trkpt>
      <trkpt lat="47.3042" lon="-2.39175">
        <ele>91</ele>
        <time>2019-08-18T10:11:50Z</time>
      </trkpt>
      <trkpt lat="47.30413" lon="-2.39175">
        <ele>91</ele>
        <time>2019-08-18T10:11:51Z</time>
      </trkpt>
      <trkpt lat="47.30399" lon="-2.3917">
        <ele>89</ele>
        <time>2019-08-18T10:11:53Z</time>
      </trkpt>
      <trkpt lat="47.30393" lon="-2.39165">
        <ele>89</ele>
        <time>2019-08-18T10:11:54Z</time>
      </trkpt>
      <trkpt lat="47.30387" lon="-2.39159">
        <ele>88</ele>
        <time>2019-08-18T10:11:55Z</time>
      </trkpt>
      <trkpt lat="47.30382" lon="-2.39152">
        <ele>88</ele>
        <time>2019-08-18T10:11:56Z</time>
      </trkpt>
      <trkpt lat="47.30378" lon="-2.39144">
        <ele>88</ele>
        <time>2019-08-18T10:11:57Z</time>
      </trkpt>
      <trkpt lat="47.30374" lon="-2.39137">
        <ele>87</ele>
        <time>2019-08-18T10:11:58Z</time>
      </trkpt>
      <trkpt lat="47.3037" lon="-2.39129">
        <ele>87</ele>
        <time>2019-08-18T10:11:59Z</time>
      </trkpt>
      <trkpt lat="47.30367" lon="-2.39122">
        <ele>87</ele>
        <time>2019-08-18T10:12:00Z</time>
      </trkpt>
      <trkpt lat="47.30365" lon="-2.39114">
        <ele>87</ele>
        <time>2019-08-18T10:12:01Z</time>
      </trkpt>
      <trkpt lat="47.30363" lon="-2.39107">
        <ele>86</ele>
        <time>2019-08-18T10:12:02Z</time>
      </trkpt>
      <trkpt lat="47.30361" lon="-2.39099">
        <ele>86</ele>
        <time>2019-08-18T10:12:03Z</time>
      </trkpt>
      <trkpt lat="47.3036" lon="-2.39092">
        <ele>86</ele>
        <time>2019-08-18T10:12:04Z</time>
      </trkpt>
      <trkpt lat="47.30358" lon="-2.39084">
        <ele>86</ele>
        <time>2019-08-18T10:12:05Z</time>
      </trkpt>
      <trkpt lat="47.30357" lon="-2.39077">
        <ele>86</ele>
        <time>2019-08-18T10:12:06Z</time>
      </trkpt>
      <trkpt lat="47.30355" lon="-2.39071">
        <ele>86</ele>
        <time>2019-08-18T10:12:07Z</time>
      </trkpt>
      <trkpt lat="47.30354" lon="-2.39064">
        <ele>86</ele>
        <time>2019-08-18T10:12:08Z</time>
      </trkpt>
      <trkpt lat="47.30353" lon="-2.39058">
        <ele>86</ele>
        <time>2019-08-18T10:12:09Z</time>
      </trkpt>
      <trkpt lat="47.30351" lon="-2.39051">
        <ele>85</ele>
        <time>2019-08-18T10:12:10Z</time>
      </trkpt>
      <trkpt lat="47.3035" lon="-2.39045">
        <ele>86</ele>
        <time>2019-08-18T10:12:11Z</time>
      </trkpt>
      <trkpt lat="47.30348" lon="-2.39038">
        <ele>86</ele>
        <time>2019-08-18T10:12:12Z</time>
      </trkpt>
      <trkpt lat="47.30347" lon="-2.39031">
        <ele>86</ele>
        <time>2019-08-18T10:12:13Z</time>
      </trkpt>
      <trkpt lat="47.30345" lon="-2.39023">
        <ele>86</ele>
        <time>2019-08-18T10:12:14Z</time>
      </trkpt>
      <trkpt lat="47.30339" lon="-2.39008">
        <ele>86</ele>
        <time>2019-08-18T10:12:16Z</time>
      </trkpt>
      <trkpt lat="47.30336" lon="-2.39">
        <ele>86</ele>
        <time>2019-08-18T10:12:17Z</time>
      </trkpt>
      <trkpt lat="47.3033" lon="-2.38984">
        <ele>85</ele>
        <time>2019-08-18T10:12:19Z</time>
      </trkpt>
      <trkpt lat="47.30327" lon="-2.38976">
        <ele>85</ele>
        <time>2019-08-18T10:12:20Z</time>
      </trkpt>
      <trkpt lat="47.30324" lon="-2.38968">
        <ele>85</ele>
        <time>2019-08-18T10:12:21Z</time>
      </trkpt>
      <trkpt lat="47.3032" lon="-2.3896">
        <ele>85</ele>
        <time>2019-08-18T10:12:22Z</time>
      </trkpt>
      <trkpt lat="47.30311" lon="-2.38946">
        <ele>85</ele>
        <time>2019-08-18T10:12:24Z</time>
      </trkpt>
      <trkpt lat="47.30306" lon="-2.38939">
        <ele>85</ele>
        <time>2019-08-18T10:12:25Z</time>
      </trkpt>
      <trkpt lat="47.30301" lon="-2.38931">
        <ele>85</ele>
        <time>2019-08-18T10:12:26Z</time>
      </trkpt>
      <trkpt lat="47.30297" lon="-2.38923">
        <ele>84</ele>
        <time>2019-08-18T10:12:27Z</time>
      </trkpt>
      <trkpt lat="47.30293" lon="-2.38914">
        <ele>84</ele>
        <time>2019-08-18T10:12:28Z</time>
      </trkpt>
      <trkpt lat="47.3029" lon="-2.38904">
        <ele>84</ele>
        <time>2019-08-18T10:12:29Z</time>
      </trkpt>
      <trkpt lat="47.30287" lon="-2.38895">
        <ele>83</ele>
        <time>2019-08-18T10:12:30Z</time>
      </trkpt>
      <trkpt lat="47.30284" lon="-2.38886">
        <ele>83</ele>
        <time>2019-08-18T10:12:31Z</time>
      </trkpt>
      <trkpt lat="47.30281" lon="-2.38878">
        <ele>83</ele>
        <time>2019-08-18T10:12:32Z</time>
      </trkpt>
      <trkpt lat="47.30278" lon="-2.38869">
        <ele>83</ele>
        <time>2019-08-18T10:12:33Z</time>
      </trkpt>
      <trkpt lat="47.30275" lon="-2.3886">
        <ele>83</ele>
        <time>2019-08-18T10:12:34Z</time>
      </trkpt>
      <trkpt lat="47.30272" lon="-2.38852">
        <ele>83</ele>
        <time>2019-08-18T10:12:35Z</time>
      </trkpt>
      <trkpt lat="47.30265" lon="-2.38836">
        <ele>83</ele>
        <time>2019-08-18T10:12:37Z</time>
      </trkpt>
      <trkpt lat="47.30261" lon="-2.38828">
        <ele>83</ele>
        <time>2019-08-18T10:12:38Z</time>
      </trkpt>
      <trkpt lat="47.30258" lon="-2.3882">
        <ele>83</ele>
        <time>2019-08-18T10:12:39Z</time>
      </trkpt>
      <trkpt lat="47.3025" lon="-2.38804">
        <ele>83</ele>
        <time>2019-08-18T10:12:41Z</time>
      </trkpt>
      <trkpt lat="47.30244" lon="-2.38797">
        <ele>83</ele>
        <time>2019-08-18T10:12:42Z</time>
      </trkpt>
      <trkpt lat="47.30232" lon="-2.38782">
        <ele>82</ele>
        <time>2019-08-18T10:12:44Z</time>
      </trkpt>
      <trkpt lat="47.30225" lon="-2.38776">
        <ele>82</ele>
        <time>2019-08-18T10:12:45Z</time>
      </trkpt>
      <trkpt lat="47.3022" lon="-2.38772">
        <ele>82</ele>
        <time>2019-08-18T10:12:46Z</time>
      </trkpt>
      <trkpt lat="47.302" lon="-2.38777">
        <ele>82</ele>
        <time>2019-08-18T10:12:49Z</time>
      </trkpt>
      <trkpt lat="47.30195" lon="-2.38785">
        <ele>82</ele>
        <time>2019-08-18T10:12:50Z</time>
      </trkpt>
      <trkpt lat="47.30185" lon="-2.38799">
        <ele>81</ele>
        <time>2019-08-18T10:12:52Z</time>
      </trkpt>
      <trkpt lat="47.3018" lon="-2.38806">
        <ele>81</ele>
        <time>2019-08-18T10:12:53Z</time>
      </trkpt>
      <trkpt lat="47.30175" lon="-2.38813">
        <ele>81</ele>
        <time>2019-08-18T10:12:54Z</time>
      </trkpt>
      <trkpt lat="47.30169" lon="-2.38821">
        <ele>81</ele>
        <time>2019-08-18T10:12:55Z</time>
      </trkpt>
      <trkpt lat="47.30152" lon="-2.38849">
        <ele>80</ele>
        <time>2019-08-18T10:12:58Z</time>
      </trkpt>
      <trkpt lat="47.30136" lon="-2.38875">
        <ele>79</ele>
        <time>2019-08-18T10:13:01Z</time>
      </trkpt>
      <trkpt lat="47.3013" lon="-2.38884">
        <ele>79</ele>
        <time>2019-08-18T10:13:02Z</time>
      </trkpt>
      <trkpt lat="47.30124" lon="-2.38892">
        <ele>78</ele>
        <time>2019-08-18T10:13:03Z</time>
      </trkpt>
      <trkpt lat="47.30119" lon="-2.38899">
        <ele>78</ele>
        <time>2019-08-18T10:13:04Z</time>
      </trkpt>
      <trkpt lat="47.30115" lon="-2.38906">
        <ele>78</ele>
        <time>2019-08-18T10:13:05Z</time>
      </trkpt>
      <trkpt lat="47.3011" lon="-2.38913">
        <ele>77</ele>
        <time>2019-08-18T10:13:06Z</time>
      </trkpt>
      <trkpt lat="47.30097" lon="-2.38924">
        <ele>76</ele>
        <time>2019-08-18T10:13:08Z</time>
      </trkpt>
      <trkpt lat="47.3009" lon="-2.38929">
        <ele>75</ele>
        <time>2019-08-18T10:13:09Z</time>
      </trkpt>
      <trkpt lat="47.30072" lon="-2.38943">
        <ele>74</ele>
        <time>2019-08-18T10:13:12Z</time>
      </trkpt>
      <trkpt lat="47.30066" lon="-2.38948">
        <ele>73</ele>
        <time>2019-08-18T10:13:13Z</time>
      </trkpt>
      <trkpt lat="47.30061" lon="-2.38952">
        <ele>73</ele>
        <time>2019-08-18T10:13:14Z</time>
      </trkpt>
      <trkpt lat="47.30048" lon="-2.38966">
        <ele>71</ele>
        <time>2019-08-18T10:13:17Z</time>
      </trkpt>
      <trkpt lat="47.30045" lon="-2.3897">
        <ele>70</ele>
        <time>2019-08-18T10:13:18Z</time>
      </trkpt>
      <trkpt lat="47.30039" lon="-2.38978">
        <ele>69</ele>
        <time>2019-08-18T10:13:20Z</time>
      </trkpt>
      <trkpt lat="47.30036" lon="-2.38986">
        <ele>69</ele>
        <time>2019-08-18T10:13:22Z</time>
      </trkpt>
      <trkpt lat="47.30035" lon="-2.38995">
        <ele>68</ele>
        <time>2019-08-18T10:13:24Z</time>
      </trkpt>
      <trkpt lat="47.30035" lon="-2.39004">
        <ele>68</ele>
        <time>2019-08-18T10:13:26Z</time>
      </trkpt>
      <trkpt lat="47.30031" lon="-2.39014">
        <ele>67</ele>
        <time>2019-08-18T10:13:28Z</time>
      </trkpt>
      <trkpt lat="47.30026" lon="-2.39023">
        <ele>65</ele>
        <time>2019-08-18T10:13:30Z</time>
      </trkpt>
      <trkpt lat="47.30018" lon="-2.39026">
        <ele>66</ele>
        <time>2019-08-18T10:13:32Z</time>
      </trkpt>
      <trkpt lat="47.30006" lon="-2.39018">
        <ele>65</ele>
        <time>2019-08-18T10:13:35Z</time>
      </trkpt>
      <trkpt lat="47.30003" lon="-2.39013">
        <ele>65</ele>
        <time>2019-08-18T10:13:36Z</time>
      </trkpt>
      <trkpt lat="47.29999" lon="-2.39008">
        <ele>65</ele>
        <time>2019-08-18T10:13:37Z</time>
      </trkpt>
      <trkpt lat="47.29995" lon="-2.39003">
        <ele>64</ele>
        <time>2019-08-18T10:13:38Z</time>
      </trkpt>
      <trkpt lat="47.29984" lon="-2.39002">
        <ele>63</ele>
        <time>2019-08-18T10:13:40Z</time>
      </trkpt>
      <trkpt lat="47.29979" lon="-2.39004">
        <ele>63</ele>
        <time>2019-08-18T10:13:41Z</time>
      </trkpt>
      <trkpt lat="47.29961" lon="-2.39014">
        <ele>63</ele>
        <time>2019-08-18T10:13:44Z</time>
      </trkpt>
      <trkpt lat="47.29956" lon="-2.39018">
        <ele>62</ele>
        <time>2019-08-18T10:13:45Z</time>
      </trkpt>
      <trkpt lat="47.29951" lon="-2.39022">
        <ele>62</ele>
        <time>2019-08-18T10:13:46Z</time>
      </trkpt>
      <trkpt lat="47.29945" lon="-2.39026">
        <ele>62</ele>
        <time>2019-08-18T10:13:47Z</time>
      </trkpt>
      <trkpt lat="47.29935" lon="-2.39034">
        <ele>62</ele>
        <time>2019-08-18T10:13:49Z</time>
      </trkpt>
      <trkpt lat="47.29929" lon="-2.39038">
        <ele>62</ele>
        <time>2019-08-18T10:13:50Z</time>
      </trkpt>
      <trkpt lat="47.29923" lon="-2.39043">
        <ele>62</ele>
        <time>2019-08-18T10:13:51Z</time>
      </trkpt>
      <trkpt lat="47.29917" lon="-2.39048">
        <ele>62</ele>
        <time>2019-08-18T10:13:52Z</time>
      </trkpt>
      <trkpt lat="47.29911" lon="-2.39052">
        <ele>61</ele>
        <time>2019-08-18T10:13:53Z</time>
      </trkpt>
      <trkpt lat="47.29905" lon="-2.39056">
        <ele>61</ele>
        <time>2019-08-18T10:13:54Z</time>
      </trkpt>
      <trkpt lat="47.29899" lon="-2.39061">
        <ele>61</ele>
        <time>2019-08-18T10:13:55Z</time>
      </trkpt>
      <trkpt lat="47.29894" lon="-2.39065">
        <ele>61</ele>
        <time>2019-08-18T10:13:56Z</time>
      </trkpt>
      <trkpt lat="47.29887" lon="-2.3907">
        <ele>61</ele>
        <time>2019-08-18T10:13:57Z</time>
      </trkpt>
      <trkpt lat="47.29882" lon="-2.39075">
        <ele>61</ele>
        <time>2019-08-18T10:13:58Z</time>
      </trkpt>
      <trkpt lat="47.29877" lon="-2.39079">
        <ele>60</ele>
        <time>2019-08-18T10:13:59Z</time>
      </trkpt>
      <trkpt lat="47.2987" lon="-2.39084">
        <ele>60</ele>
        <time>2019-08-18T10:14:00Z</time>
      </trkpt>
      <trkpt lat="47.29864" lon="-2.39089">
        <ele>60</ele>
        <time>2019-08-18T10:14:01Z</time>
      </trkpt>
      <trkpt lat="47.29858" lon="-2.39093">
        <ele>60</ele>
        <time>2019-08-18T10:14:02Z</time>
      </trkpt>
      <trkpt lat="47.29852" lon="-2.39098">
        <ele>60</ele>
        <time>2019-08-18T10:14:03Z</time>
      </trkpt>
      <trkpt lat="47.29846" lon="-2.39102">
        <ele>60</ele>
        <time>2019-08-18T10:14:04Z</time>
      </trkpt>
      <trkpt lat="47.29839" lon="-2.39106">
        <ele>60</ele>
        <time>2019-08-18T10:14:05Z</time>
      </trkpt>
      <trkpt lat="47.29833" lon="-2.39109">
        <ele>60</ele>
        <time>2019-08-18T10:14:06Z</time>
      </trkpt>
      <trkpt lat="47.29826" lon="-2.39112">
        <ele>59</ele>
        <time>2019-08-18T10:14:07Z</time>
      </trkpt>
      <trkpt lat="47.29819" lon="-2.39116">
        <ele>60</ele>
        <time>2019-08-18T10:14:08Z</time>
      </trkpt>
      <trkpt lat="47.29813" lon="-2.39119">
        <ele>60</ele>
        <time>2019-08-18T10:14:09Z</time>
      </trkpt>
      <trkpt lat="47.29806" lon="-2.39124">
        <ele>60</ele>
        <time>2019-08-18T10:14:10Z</time>
      </trkpt>
      <trkpt lat="47.298" lon="-2.39127">
        <ele>59</ele>
        <time>2019-08-18T10:14:11Z</time>
      </trkpt>
      <trkpt lat="47.29793" lon="-2.3913">
        <ele>59</ele>
        <time>2019-08-18T10:14:12Z</time>
      </trkpt>
      <trkpt lat="47.29787" lon="-2.39133">
        <ele>59</ele>
        <time>2019-08-18T10:14:13Z</time>
      </trkpt>
      <trkpt lat="47.2978" lon="-2.39137">
        <ele>58</ele>
        <time>2019-08-18T10:14:14Z</time>
      </trkpt>
      <trkpt lat="47.29773" lon="-2.39139">
        <ele>59</ele>
        <time>2019-08-18T10:14:15Z</time>
      </trkpt>
      <trkpt lat="47.29767" lon="-2.39143">
        <ele>59</ele>
        <time>2019-08-18T10:14:16Z</time>
      </trkpt>
      <trkpt lat="47.29761" lon="-2.39146">
        <ele>59</ele>
        <time>2019-08-18T10:14:17Z</time>
      </trkpt>
      <trkpt lat="47.29756" lon="-2.39149">
        <ele>59</ele>
        <time>2019-08-18T10:14:18Z</time>
      </trkpt>
      <trkpt lat="47.2975" lon="-2.39153">
        <ele>59</ele>
        <time>2019-08-18T10:14:19Z</time>
      </trkpt>
      <trkpt lat="47.29743" lon="-2.39156">
        <ele>59</ele>
        <time>2019-08-18T10:14:20Z</time>
      </trkpt>
      <trkpt lat="47.29731" lon="-2.39163">
        <ele>58</ele>
        <time>2019-08-18T10:14:22Z</time>
      </trkpt>
      <trkpt lat="47.29725" lon="-2.39166">
        <ele>58</ele>
        <time>2019-08-18T10:14:23Z</time>
      </trkpt>
      <trkpt lat="47.29718" lon="-2.39169">
        <ele>58</ele>
        <time>2019-08-18T10:14:24Z</time>
      </trkpt>
      <trkpt lat="47.29712" lon="-2.39172">
        <ele>58</ele>
        <time>2019-08-18T10:14:25Z</time>
      </trkpt>
      <trkpt lat="47.29706" lon="-2.39174">
        <ele>58</ele>
        <time>2019-08-18T10:14:26Z</time>
      </trkpt>
      <trkpt lat="47.29701" lon="-2.39177">
        <ele>58</ele>
        <time>2019-08-18T10:14:27Z</time>
      </trkpt>
      <trkpt lat="47.29685" lon="-2.39184">
        <ele>58</ele>
        <time>2019-08-18T10:14:30Z</time>
      </trkpt>
      <trkpt lat="47.2968" lon="-2.39187">
        <ele>58</ele>
        <time>2019-08-18T10:14:31Z</time>
      </trkpt>
      <trkpt lat="47.29669" lon="-2.39191">
        <ele>57</ele>
        <time>2019-08-18T10:14:33Z</time>
      </trkpt>
      <trkpt lat="47.29664" lon="-2.39191">
        <ele>56</ele>
        <time>2019-08-18T10:14:34Z</time>
      </trkpt>
      <trkpt lat="47.29656" lon="-2.3919">
        <ele>56</ele>
        <time>2019-08-18T10:14:36Z</time>
      </trkpt>
      <trkpt lat="47.29653" lon="-2.3919">
        <ele>56</ele>
        <time>2019-08-18T10:14:37Z</time>
      </trkpt>
      <trkpt lat="47.29644" lon="-2.39182">
        <ele>57</ele>
        <time>2019-08-18T10:14:40Z</time>
      </trkpt>
      <trkpt lat="47.29631" lon="-2.39175">
        <ele>56</ele>
        <time>2019-08-18T10:14:43Z</time>
      </trkpt>
      <trkpt lat="47.29627" lon="-2.39174">
        <ele>56</ele>
        <time>2019-08-18T10:14:44Z</time>
      </trkpt>
      <trkpt lat="47.29621" lon="-2.39173">
        <ele>55</ele>
        <time>2019-08-18T10:14:45Z</time>
      </trkpt>
      <trkpt lat="47.29616" lon="-2.39172">
        <ele>55</ele>
        <time>2019-08-18T10:14:46Z</time>
      </trkpt>
      <trkpt lat="47.29611" lon="-2.39171">
        <ele>56</ele>
        <time>2019-08-18T10:14:47Z</time>
      </trkpt>
      <trkpt lat="47.29605" lon="-2.3917">
        <ele>56</ele>
        <time>2019-08-18T10:14:48Z</time>
      </trkpt>
      <trkpt lat="47.296" lon="-2.39169">
        <ele>55</ele>
        <time>2019-08-18T10:14:49Z</time>
      </trkpt>
      <trkpt lat="47.29595" lon="-2.39169">
        <ele>56</ele>
        <time>2019-08-18T10:14:50Z</time>
      </trkpt>
      <trkpt lat="47.2959" lon="-2.39168">
        <ele>56</ele>
        <time>2019-08-18T10:14:51Z</time>
      </trkpt>
      <trkpt lat="47.29585" lon="-2.39167">
        <ele>57</ele>
        <time>2019-08-18T10:14:52Z</time>
      </trkpt>
      <trkpt lat="47.2958" lon="-2.39167">
        <ele>57</ele>
        <time>2019-08-18T10:14:53Z</time>
      </trkpt>
      <trkpt lat="47.29574" lon="-2.39167">
        <ele>57</ele>
        <time>2019-08-18T10:14:54Z</time>
      </trkpt>
      <trkpt lat="47.29569" lon="-2.39168">
        <ele>56</ele>
        <time>2019-08-18T10:14:55Z</time>
      </trkpt>
      <trkpt lat="47.29563" lon="-2.39169">
        <ele>56</ele>
        <time>2019-08-18T10:14:56Z</time>
      </trkpt>
      <trkpt lat="47.29558" lon="-2.39169">
        <ele>56</ele>
        <time>2019-08-18T10:14:57Z</time>
      </trkpt>
      <trkpt lat="47.29553" lon="-2.3917">
        <ele>56</ele>
        <time>2019-08-18T10:14:58Z</time>
      </trkpt>
      <trkpt lat="47.29547" lon="-2.39171">
        <ele>57</ele>
        <time>2019-08-18T10:14:59Z</time>
      </trkpt>
      <trkpt lat="47.29532" lon="-2.39171">
        <ele>57</ele>
        <time>2019-08-18T10:15:02Z</time>
      </trkpt>
      <trkpt lat="47.29527" lon="-2.39172">
        <ele>57</ele>
        <time>2019-08-18T10:15:03Z</time>
      </trkpt>
      <trkpt lat="47.29521" lon="-2.39173">
        <ele>57</ele>
        <time>2019-08-18T10:15:04Z</time>
      </trkpt>
      <trkpt lat="47.29516" lon="-2.39173">
        <ele>57</ele>
        <time>2019-08-18T10:15:05Z</time>
      </trkpt>
      <trkpt lat="47.29504" lon="-2.39173">
        <ele>57</ele>
        <time>2019-08-18T10:15:07Z</time>
      </trkpt>
      <trkpt lat="47.29498" lon="-2.39173">
        <ele>57</ele>
        <time>2019-08-18T10:15:08Z</time>
      </trkpt>
      <trkpt lat="47.29493" lon="-2.39173">
        <ele>57</ele>
        <time>2019-08-18T10:15:09Z</time>
      </trkpt>
      <trkpt lat="47.29487" lon="-2.39174">
        <ele>57</ele>
        <time>2019-08-18T10:15:10Z</time>
      </trkpt>
      <trkpt lat="47.29481" lon="-2.39174">
        <ele>57</ele>
        <time>2019-08-18T10:15:11Z</time>
      </trkpt>
      <trkpt lat="47.29474" lon="-2.39174">
        <ele>57</ele>
        <time>2019-08-18T10:15:12Z</time>
      </trkpt>
      <trkpt lat="47.29468" lon="-2.39175">
        <ele>57</ele>
        <time>2019-08-18T10:15:13Z</time>
      </trkpt>
      <trkpt lat="47.29462" lon="-2.39175">
        <ele>57</ele>
        <time>2019-08-18T10:15:14Z</time>
      </trkpt>
      <trkpt lat="47.29456" lon="-2.39176">
        <ele>57</ele>
        <time>2019-08-18T10:15:15Z</time>
      </trkpt>
      <trkpt lat="47.2945" lon="-2.39177">
        <ele>57</ele>
        <time>2019-08-18T10:15:16Z</time>
      </trkpt>
      <trkpt lat="47.29444" lon="-2.39177">
        <ele>57</ele>
        <time>2019-08-18T10:15:17Z</time>
      </trkpt>
      <trkpt lat="47.29434" lon="-2.39176">
        <ele>57</ele>
        <time>2019-08-18T10:15:19Z</time>
      </trkpt>
      <trkpt lat="47.2943" lon="-2.39175">
        <ele>57</ele>
        <time>2019-08-18T10:15:20Z</time>
      </trkpt>
      <trkpt lat="47.29421" lon="-2.39177">
        <ele>58</ele>
        <time>2019-08-18T10:15:23Z</time>
      </trkpt>
      <trkpt lat="47.29413" lon="-2.39179">
        <ele>57</ele>
        <time>2019-08-18T10:15:25Z</time>
      </trkpt>
      <trkpt lat="47.29408" lon="-2.39177">
        <ele>57</ele>
        <time>2019-08-18T10:15:26Z</time>
      </trkpt>
      <trkpt lat="47.29403" lon="-2.39176">
        <ele>57</ele>
        <time>2019-08-18T10:15:27Z</time>
      </trkpt>
      <trkpt lat="47.29397" lon="-2.39176">
        <ele>57</ele>
        <time>2019-08-18T10:15:28Z</time>
      </trkpt>
      <trkpt lat="47.29387" lon="-2.39172">
        <ele>57</ele>
        <time>2019-08-18T10:15:30Z</time>
      </trkpt>
      <trkpt lat="47.29382" lon="-2.3917">
        <ele>57</ele>
        <time>2019-08-18T10:15:31Z</time>
      </trkpt>
      <trkpt lat="47.29377" lon="-2.39169">
        <ele>57</ele>
        <time>2019-08-18T10:15:32Z</time>
      </trkpt>
      <trkpt lat="47.29372" lon="-2.39167">
        <ele>56</ele>
        <time>2019-08-18T10:15:33Z</time>
      </trkpt>
      <trkpt lat="47.29366" lon="-2.39167">
        <ele>57</ele>
        <time>2019-08-18T10:15:34Z</time>
      </trkpt>
      <trkpt lat="47.29356" lon="-2.39173">
        <ele>57</ele>
        <time>2019-08-18T10:15:36Z</time>
      </trkpt>
      <trkpt lat="47.29355" lon="-2.39181">
        <ele>58</ele>
        <time>2019-08-18T10:15:37Z</time>
      </trkpt>
      <trkpt lat="47.29354" lon="-2.3919">
        <ele>58</ele>
        <time>2019-08-18T10:15:38Z</time>
      </trkpt>
      <trkpt lat="47.29353" lon="-2.39198">
        <ele>58</ele>
        <time>2019-08-18T10:15:39Z</time>
      </trkpt>
      <trkpt lat="47.29353" lon="-2.39206">
        <ele>58</ele>
        <time>2019-08-18T10:15:40Z</time>
      </trkpt>
      <trkpt lat="47.29352" lon="-2.39215">
        <ele>58</ele>
        <time>2019-08-18T10:15:41Z</time>
      </trkpt>
      <trkpt lat="47.29352" lon="-2.39223">
        <ele>58</ele>
        <time>2019-08-18T10:15:42Z</time>
      </trkpt>
      <trkpt lat="47.29352" lon="-2.39231">
        <ele>58</ele>
        <time>2019-08-18T10:15:43Z</time>
      </trkpt>
      <trkpt lat="47.29352" lon="-2.39239">
        <ele>58</ele>
        <time>2019-08-18T10:15:44Z</time>
      </trkpt>
      <trkpt lat="47.29351" lon="-2.39246">
        <ele>57</ele>
        <time>2019-08-18T10:15:45Z</time>
      </trkpt>
      <trkpt lat="47.29351" lon="-2.39252">
        <ele>57</ele>
        <time>2019-08-18T10:15:46Z</time>
      </trkpt>
      <trkpt lat="47.29354" lon="-2.39265">
        <ele>57</ele>
        <time>2019-08-18T10:15:48Z</time>
      </trkpt>
      <trkpt lat="47.29354" lon="-2.39277">
        <ele>57</ele>
        <time>2019-08-18T10:15:50Z</time>
      </trkpt>
      <trkpt lat="47.29354" lon="-2.39289">
        <ele>57</ele>
        <time>2019-08-18T10:15:52Z</time>
      </trkpt>
      <trkpt lat="47.29354" lon="-2.39295">
        <ele>57</ele>
        <time>2019-08-18T10:15:53Z</time>
      </trkpt>
      <trkpt lat="47.29354" lon="-2.39301">
        <ele>57</ele>
        <time>2019-08-18T10:15:54Z</time>
      </trkpt>
      <trkpt lat="47.29351" lon="-2.39313">
        <ele>56</ele>
        <time>2019-08-18T10:15:56Z</time>
      </trkpt>
      <trkpt lat="47.2934" lon="-2.39322">
        <ele>57</ele>
        <time>2019-08-18T10:15:59Z</time>
      </trkpt>
      <trkpt lat="47.29336" lon="-2.39322">
        <ele>56</ele>
        <time>2019-08-18T10:16:00Z</time>
      </trkpt>
      <trkpt lat="47.29326" lon="-2.39318">
        <ele>55</ele>
        <time>2019-08-18T10:16:02Z</time>
      </trkpt>
      <trkpt lat="47.29321" lon="-2.39314">
        <ele>55</ele>
        <time>2019-08-18T10:16:03Z</time>
      </trkpt>
      <trkpt lat="47.29304" lon="-2.39303">
        <ele>56</ele>
        <time>2019-08-18T10:16:06Z</time>
      </trkpt>
      <trkpt lat="47.29298" lon="-2.39299">
        <ele>56</ele>
        <time>2019-08-18T10:16:07Z</time>
      </trkpt>
      <trkpt lat="47.29292" lon="-2.39296">
        <ele>56</ele>
        <time>2019-08-18T10:16:08Z</time>
      </trkpt>
      <trkpt lat="47.29285" lon="-2.39293">
        <ele>56</ele>
        <time>2019-08-18T10:16:09Z</time>
      </trkpt>
      <trkpt lat="47.29271" lon="-2.39292">
        <ele>56</ele>
        <time>2019-08-18T10:16:11Z</time>
      </trkpt>
      <trkpt lat="47.29263" lon="-2.39294">
        <ele>56</ele>
        <time>2019-08-18T10:16:12Z</time>
      </trkpt>
      <trkpt lat="47.29243" lon="-2.39304">
        <ele>56</ele>
        <time>2019-08-18T10:16:15Z</time>
      </trkpt>
      <trkpt lat="47.29237" lon="-2.39308">
        <ele>56</ele>
        <time>2019-08-18T10:16:16Z</time>
      </trkpt>
      <trkpt lat="47.29231" lon="-2.39312">
        <ele>56</ele>
        <time>2019-08-18T10:16:17Z</time>
      </trkpt>
      <trkpt lat="47.29225" lon="-2.39316">
        <ele>56</ele>
        <time>2019-08-18T10:16:18Z</time>
      </trkpt>
      <trkpt lat="47.29218" lon="-2.39318">
        <ele>56</ele>
        <time>2019-08-18T10:16:19Z</time>
      </trkpt>
      <trkpt lat="47.29212" lon="-2.39321">
        <ele>56</ele>
        <time>2019-08-18T10:16:20Z</time>
      </trkpt>
      <trkpt lat="47.29205" lon="-2.39321">
        <ele>55</ele>
        <time>2019-08-18T10:16:21Z</time>
      </trkpt>
      <trkpt lat="47.29191" lon="-2.39324">
        <ele>55</ele>
        <time>2019-08-18T10:16:23Z</time>
      </trkpt>
      <trkpt lat="47.29184" lon="-2.39326">
        <ele>56</ele>
        <time>2019-08-18T10:16:24Z</time>
      </trkpt>
      <trkpt lat="47.29178" lon="-2.39329">
        <ele>55</ele>
        <time>2019-08-18T10:16:25Z</time>
      </trkpt>
      <trkpt lat="47.29171" lon="-2.39333">
        <ele>56</ele>
        <time>2019-08-18T10:16:26Z</time>
      </trkpt>
      <trkpt lat="47.29164" lon="-2.39337">
        <ele>56</ele>
        <time>2019-08-18T10:16:27Z</time>
      </trkpt>
      <trkpt lat="47.29158" lon="-2.3934">
        <ele>56</ele>
        <time>2019-08-18T10:16:28Z</time>
      </trkpt>
      <trkpt lat="47.29142" lon="-2.39355">
        <ele>56</ele>
        <time>2019-08-18T10:16:31Z</time>
      </trkpt>
      <trkpt lat="47.29138" lon="-2.3936">
        <ele>56</ele>
        <time>2019-08-18T10:16:32Z</time>
      </trkpt>
      <trkpt lat="47.29132" lon="-2.39364">
        <ele>55</ele>
        <time>2019-08-18T10:16:33Z</time>
      </trkpt>
      <trkpt lat="47.29127" lon="-2.39368">
        <ele>56</ele>
        <time>2019-08-18T10:16:34Z</time>
      </trkpt>
      <trkpt lat="47.29121" lon="-2.3937">
        <ele>55</ele>
        <time>2019-08-18T10:16:35Z</time>
      </trkpt>
      <trkpt lat="47.29115" lon="-2.39372">
        <ele>56</ele>
        <time>2019-08-18T10:16:36Z</time>
      </trkpt>
      <trkpt lat="47.2911" lon="-2.39375">
        <ele>56</ele>
        <time>2019-08-18T10:16:37Z</time>
      </trkpt>
      <trkpt lat="47.29092" lon="-2.39377">
        <ele>56</ele>
        <time>2019-08-18T10:16:41Z</time>
      </trkpt>
      <trkpt lat="47.29088" lon="-2.39372">
        <ele>56</ele>
        <time>2019-08-18T10:16:42Z</time>
      </trkpt>
      <trkpt lat="47.29084" lon="-2.39366">
        <ele>56</ele>
        <time>2019-08-18T10:16:43Z</time>
      </trkpt>
      <trkpt lat="47.29079" lon="-2.39362">
        <ele>56</ele>
        <time>2019-08-18T10:16:44Z</time>
      </trkpt>
      <trkpt lat="47.29072" lon="-2.39359">
        <ele>55</ele>
        <time>2019-08-18T10:16:45Z</time>
      </trkpt>
      <trkpt lat="47.29066" lon="-2.39356">
        <ele>55</ele>
        <time>2019-08-18T10:16:46Z</time>
      </trkpt>
      <trkpt lat="47.29059" lon="-2.39352">
        <ele>54</ele>
        <time>2019-08-18T10:16:47Z</time>
      </trkpt>
      <trkpt lat="47.29052" lon="-2.39348">
        <ele>54</ele>
        <time>2019-08-18T10:16:48Z</time>
      </trkpt>
      <trkpt lat="47.29031" lon="-2.39338">
        <ele>53</ele>
        <time>2019-08-18T10:16:51Z</time>
      </trkpt>
      <trkpt lat="47.29016" lon="-2.39332">
        <ele>53</ele>
        <time>2019-08-18T10:16:53Z</time>
      </trkpt>
      <trkpt lat="47.29009" lon="-2.39329">
        <ele>53</ele>
        <time>2019-08-18T10:16:54Z</time>
      </trkpt>
      <trkpt lat="47.29003" lon="-2.39326">
        <ele>53</ele>
        <time>2019-08-18T10:16:55Z</time>
      </trkpt>
      <trkpt lat="47.28996" lon="-2.39324">
        <ele>53</ele>
        <time>2019-08-18T10:16:56Z</time>
      </trkpt>
      <trkpt lat="47.28983" lon="-2.3932">
        <ele>53</ele>
        <time>2019-08-18T10:16:58Z</time>
      </trkpt>
      <trkpt lat="47.28977" lon="-2.3932">
        <ele>53</ele>
        <time>2019-08-18T10:16:59Z</time>
      </trkpt>
      <trkpt lat="47.28971" lon="-2.39321">
        <ele>53</ele>
        <time>2019-08-18T10:17:00Z</time>
      </trkpt>
      <trkpt lat="47.28965" lon="-2.39321">
        <ele>53</ele>
        <time>2019-08-18T10:17:01Z</time>
      </trkpt>
      <trkpt lat="47.28959" lon="-2.39321">
        <ele>53</ele>
        <time>2019-08-18T10:17:02Z</time>
      </trkpt>
      <trkpt lat="47.28953" lon="-2.39319">
        <ele>53</ele>
        <time>2019-08-18T10:17:03Z</time>
      </trkpt>
      <trkpt lat="47.28943" lon="-2.39301">
        <ele>53</ele>
        <time>2019-08-18T10:17:06Z</time>
      </trkpt>
      <trkpt lat="47.28941" lon="-2.39293">
        <ele>53</ele>
        <time>2019-08-18T10:17:07Z</time>
      </trkpt>
      <trkpt lat="47.28938" lon="-2.39277">
        <ele>53</ele>
        <time>2019-08-18T10:17:09Z</time>
      </trkpt>
      <trkpt lat="47.28935" lon="-2.3926">
        <ele>54</ele>
        <time>2019-08-18T10:17:11Z</time>
      </trkpt>
      <trkpt lat="47.28934" lon="-2.39243">
        <ele>54</ele>
        <time>2019-08-18T10:17:13Z</time>
      </trkpt>
      <trkpt lat="47.28933" lon="-2.39225">
        <ele>53</ele>
        <time>2019-08-18T10:17:15Z</time>
      </trkpt>
      <trkpt lat="47.28931" lon="-2.39206">
        <ele>54</ele>
        <time>2019-08-18T10:17:17Z</time>
      </trkpt>
      <trkpt lat="47.28931" lon="-2.39196">
        <ele>54</ele>
        <time>2019-08-18T10:17:18Z</time>
      </trkpt>
      <trkpt lat="47.2893" lon="-2.39187">
        <ele>54</ele>
        <time>2019-08-18T10:17:19Z</time>
      </trkpt>
      <trkpt lat="47.2893" lon="-2.39177">
        <ele>54</ele>
        <time>2019-08-18T10:17:20Z</time>
      </trkpt>
      <trkpt lat="47.2893" lon="-2.39167">
        <ele>54</ele>
        <time>2019-08-18T10:17:21Z</time>
      </trkpt>
      <trkpt lat="47.28932" lon="-2.39158">
        <ele>54</ele>
        <time>2019-08-18T10:17:22Z</time>
      </trkpt>
      <trkpt lat="47.28933" lon="-2.39149">
        <ele>54</ele>
        <time>2019-08-18T10:17:23Z</time>
      </trkpt>
      <trkpt lat="47.28934" lon="-2.39139">
        <ele>54</ele>
        <time>2019-08-18T10:17:24Z</time>
      </trkpt>
      <trkpt lat="47.28935" lon="-2.3913">
        <ele>54</ele>
        <time>2019-08-18T10:17:25Z</time>
      </trkpt>
      <trkpt lat="47.28937" lon="-2.3912">
        <ele>54</ele>
        <time>2019-08-18T10:17:26Z</time>
      </trkpt>
      <trkpt lat="47.28939" lon="-2.39111">
        <ele>54</ele>
        <time>2019-08-18T10:17:27Z</time>
      </trkpt>
      <trkpt lat="47.28941" lon="-2.39093">
        <ele>53</ele>
        <time>2019-08-18T10:17:29Z</time>
      </trkpt>
      <trkpt lat="47.28942" lon="-2.39085">
        <ele>53</ele>
        <time>2019-08-18T10:17:30Z</time>
      </trkpt>
      <trkpt lat="47.28943" lon="-2.39076">
        <ele>53</ele>
        <time>2019-08-18T10:17:31Z</time>
      </trkpt>
      <trkpt lat="47.28943" lon="-2.39067">
        <ele>53</ele>
        <time>2019-08-18T10:17:32Z</time>
      </trkpt>
      <trkpt lat="47.28945" lon="-2.39059">
        <ele>54</ele>
        <time>2019-08-18T10:17:33Z</time>
      </trkpt>
      <trkpt lat="47.28946" lon="-2.3905">
        <ele>54</ele>
        <time>2019-08-18T10:17:34Z</time>
      </trkpt>
      <trkpt lat="47.28947" lon="-2.39041">
        <ele>54</ele>
        <time>2019-08-18T10:17:35Z</time>
      </trkpt>
      <trkpt lat="47.28948" lon="-2.39032">
        <ele>54</ele>
        <time>2019-08-18T10:17:36Z</time>
      </trkpt>
      <trkpt lat="47.28951" lon="-2.39004">
        <ele>54</ele>
        <time>2019-08-18T10:17:39Z</time>
      </trkpt>
      <trkpt lat="47.28951" lon="-2.38995">
        <ele>54</ele>
        <time>2019-08-18T10:17:40Z</time>
      </trkpt>
      <trkpt lat="47.28951" lon="-2.38978">
        <ele>54</ele>
        <time>2019-08-18T10:17:42Z</time>
      </trkpt>
      <trkpt lat="47.28952" lon="-2.38969">
        <ele>53</ele>
        <time>2019-08-18T10:17:43Z</time>
      </trkpt>
      <trkpt lat="47.28952" lon="-2.3896">
        <ele>53</ele>
        <time>2019-08-18T10:17:44Z</time>
      </trkpt>
      <trkpt lat="47.28953" lon="-2.3895">
        <ele>53</ele>
        <time>2019-08-18T10:17:45Z</time>
      </trkpt>
      <trkpt lat="47.28953" lon="-2.3894">
        <ele>54</ele>
        <time>2019-08-18T10:17:46Z</time>
      </trkpt>
      <trkpt lat="47.28954" lon="-2.38931">
        <ele>53</ele>
        <time>2019-08-18T10:17:47Z</time>
      </trkpt>
      <trkpt lat="47.28954" lon="-2.38922">
        <ele>53</ele>
        <time>2019-08-18T10:17:48Z</time>
      </trkpt>
      <trkpt lat="47.28954" lon="-2.38913">
        <ele>53</ele>
        <time>2019-08-18T10:17:49Z</time>
      </trkpt>
      <trkpt lat="47.28955" lon="-2.38904">
        <ele>54</ele>
        <time>2019-08-18T10:17:50Z</time>
      </trkpt>
      <trkpt lat="47.28956" lon="-2.38895">
        <ele>53</ele>
        <time>2019-08-18T10:17:51Z</time>
      </trkpt>
      <trkpt lat="47.28957" lon="-2.38885">
        <ele>53</ele>
        <time>2019-08-18T10:17:52Z</time>
      </trkpt>
      <trkpt lat="47.28957" lon="-2.38876">
        <ele>53</ele>
        <time>2019-08-18T10:17:53Z</time>
      </trkpt>
      <trkpt lat="47.28958" lon="-2.38866">
        <ele>53</ele>
        <time>2019-08-18T10:17:54Z</time>
      </trkpt>
      <trkpt lat="47.28958" lon="-2.3884">
        <ele>52</ele>
        <time>2019-08-18T10:17:57Z</time>
      </trkpt>
      <trkpt lat="47.28958" lon="-2.3883">
        <ele>53</ele>
        <time>2019-08-18T10:17:58Z</time>
      </trkpt>
      <trkpt lat="47.28958" lon="-2.3882">
        <ele>53</ele>
        <time>2019-08-18T10:17:59Z</time>
      </trkpt>
      <trkpt lat="47.28958" lon="-2.38811">
        <ele>53</ele>
        <time>2019-08-18T10:18:00Z</time>
      </trkpt>
      <trkpt lat="47.28958" lon="-2.38801">
        <ele>53</ele>
        <time>2019-08-18T10:18:01Z</time>
      </trkpt>
      <trkpt lat="47.28958" lon="-2.38792">
        <ele>53</ele>
        <time>2019-08-18T10:18:02Z</time>
      </trkpt>
      <trkpt lat="47.28958" lon="-2.38782">
        <ele>53</ele>
        <time>2019-08-18T10:18:03Z</time>
      </trkpt>
      <trkpt lat="47.28958" lon="-2.38773">
        <ele>53</ele>
        <time>2019-08-18T10:18:04Z</time>
      </trkpt>
      <trkpt lat="47.28957" lon="-2.38764">
        <ele>53</ele>
        <time>2019-08-18T10:18:05Z</time>
      </trkpt>
      <trkpt lat="47.28958" lon="-2.38755">
        <ele>53</ele>
        <time>2019-08-18T10:18:06Z</time>
      </trkpt>
      <trkpt lat="47.28958" lon="-2.38745">
        <ele>53</ele>
        <time>2019-08-18T10:18:07Z</time>
      </trkpt>
      <trkpt lat="47.28957" lon="-2.38736">
        <ele>53</ele>
        <time>2019-08-18T10:18:08Z</time>
      </trkpt>
      <trkpt lat="47.28957" lon="-2.38727">
        <ele>53</ele>
        <time>2019-08-18T10:18:09Z</time>
      </trkpt>
      <trkpt lat="47.28957" lon="-2.38717">
        <ele>53</ele>
        <time>2019-08-18T10:18:10Z</time>
      </trkpt>
      <trkpt lat="47.28957" lon="-2.38707">
        <ele>54</ele>
        <time>2019-08-18T10:18:11Z</time>
      </trkpt>
      <trkpt lat="47.28956" lon="-2.38668">
        <ele>54</ele>
        <time>2019-08-18T10:18:15Z</time>
      </trkpt>
      <trkpt lat="47.28956" lon="-2.38658">
        <ele>54</ele>
        <time>2019-08-18T10:18:16Z</time>
      </trkpt>
      <trkpt lat="47.28956" lon="-2.38648">
        <ele>54</ele>
        <time>2019-08-18T10:18:17Z</time>
      </trkpt>
      <trkpt lat="47.28956" lon="-2.38638">
        <ele>54</ele>
        <time>2019-08-18T10:18:18Z</time>
      </trkpt>
      <trkpt lat="47.28956" lon="-2.38628">
        <ele>54</ele>
        <time>2019-08-18T10:18:19Z</time>
      </trkpt>
      <trkpt lat="47.28956" lon="-2.38617">
        <ele>54</ele>
        <time>2019-08-18T10:18:20Z</time>
      </trkpt>
      <trkpt lat="47.28956" lon="-2.38606">
        <ele>55</ele>
        <time>2019-08-18T10:18:21Z</time>
      </trkpt>
      <trkpt lat="47.28955" lon="-2.38584">
        <ele>55</ele>
        <time>2019-08-18T10:18:23Z</time>
      </trkpt>
      <trkpt lat="47.28954" lon="-2.38573">
        <ele>55</ele>
        <time>2019-08-18T10:18:24Z</time>
      </trkpt>
      <trkpt lat="47.28954" lon="-2.38561">
        <ele>55</ele>
        <time>2019-08-18T10:18:25Z</time>
      </trkpt>
      <trkpt lat="47.28952" lon="-2.38551">
        <ele>55</ele>
        <time>2019-08-18T10:18:26Z</time>
      </trkpt>
      <trkpt lat="47.28951" lon="-2.3854">
        <ele>55</ele>
        <time>2019-08-18T10:18:27Z</time>
      </trkpt>
      <trkpt lat="47.2895" lon="-2.38529">
        <ele>55</ele>
        <time>2019-08-18T10:18:28Z</time>
      </trkpt>
      <trkpt lat="47.28948" lon="-2.38509">
        <ele>54</ele>
        <time>2019-08-18T10:18:30Z</time>
      </trkpt>
      <trkpt lat="47.28946" lon="-2.38499">
        <ele>54</ele>
        <time>2019-08-18T10:18:31Z</time>
      </trkpt>
      <trkpt lat="47.28945" lon="-2.38488">
        <ele>54</ele>
        <time>2019-08-18T10:18:32Z</time>
      </trkpt>
      <trkpt lat="47.28943" lon="-2.38468">
        <ele>55</ele>
        <time>2019-08-18T10:18:34Z</time>
      </trkpt>
      <trkpt lat="47.28942" lon="-2.38458">
        <ele>55</ele>
        <time>2019-08-18T10:18:35Z</time>
      </trkpt>
      <trkpt lat="47.28941" lon="-2.38448">
        <ele>54</ele>
        <time>2019-08-18T10:18:36Z</time>
      </trkpt>
      <trkpt lat="47.2894" lon="-2.38438">
        <ele>54</ele>
        <time>2019-08-18T10:18:37Z</time>
      </trkpt>
      <trkpt lat="47.2894" lon="-2.38427">
        <ele>54</ele>
        <time>2019-08-18T10:18:38Z</time>
      </trkpt>
      <trkpt lat="47.28939" lon="-2.38418">
        <ele>54</ele>
        <time>2019-08-18T10:18:39Z</time>
      </trkpt>
      <trkpt lat="47.28938" lon="-2.38407">
        <ele>54</ele>
        <time>2019-08-18T10:18:40Z</time>
      </trkpt>
      <trkpt lat="47.28937" lon="-2.38397">
        <ele>54</ele>
        <time>2019-08-18T10:18:41Z</time>
      </trkpt>
      <trkpt lat="47.28936" lon="-2.38386">
        <ele>53</ele>
        <time>2019-08-18T10:18:42Z</time>
      </trkpt>
      <trkpt lat="47.28936" lon="-2.38376">
        <ele>53</ele>
        <time>2019-08-18T10:18:43Z</time>
      </trkpt>
      <trkpt lat="47.28935" lon="-2.38364">
        <ele>52</ele>
        <time>2019-08-18T10:18:44Z</time>
      </trkpt>
      <trkpt lat="47.28934" lon="-2.38353">
        <ele>52</ele>
        <time>2019-08-18T10:18:45Z</time>
      </trkpt>
      <trkpt lat="47.28933" lon="-2.38343">
        <ele>52</ele>
        <time>2019-08-18T10:18:46Z</time>
      </trkpt>
      <trkpt lat="47.28933" lon="-2.38332">
        <ele>52</ele>
        <time>2019-08-18T10:18:47Z</time>
      </trkpt>
      <trkpt lat="47.28933" lon="-2.38321">
        <ele>52</ele>
        <time>2019-08-18T10:18:48Z</time>
      </trkpt>
      <trkpt lat="47.28933" lon="-2.38311">
        <ele>52</ele>
        <time>2019-08-18T10:18:49Z</time>
      </trkpt>
      <trkpt lat="47.28933" lon="-2.38301">
        <ele>52</ele>
        <time>2019-08-18T10:18:50Z</time>
      </trkpt>
      <trkpt lat="47.28934" lon="-2.38291">
        <ele>52</ele>
        <time>2019-08-18T10:18:51Z</time>
      </trkpt>
      <trkpt lat="47.28935" lon="-2.3828">
        <ele>52</ele>
        <time>2019-08-18T10:18:52Z</time>
      </trkpt>
      <trkpt lat="47.28936" lon="-2.38271">
        <ele>53</ele>
        <time>2019-08-18T10:18:53Z</time>
      </trkpt>
      <trkpt lat="47.28937" lon="-2.38261">
        <ele>52</ele>
        <time>2019-08-18T10:18:54Z</time>
      </trkpt>
      <trkpt lat="47.28937" lon="-2.38253">
        <ele>53</ele>
        <time>2019-08-18T10:18:55Z</time>
      </trkpt>
      <trkpt lat="47.28936" lon="-2.38243">
        <ele>53</ele>
        <time>2019-08-18T10:18:56Z</time>
      </trkpt>
      <trkpt lat="47.28931" lon="-2.38228">
        <ele>52</ele>
        <time>2019-08-18T10:18:58Z</time>
      </trkpt>
      <trkpt lat="47.28921" lon="-2.38218">
        <ele>53</ele>
        <time>2019-08-18T10:19:00Z</time>
      </trkpt>
      <trkpt lat="47.28915" lon="-2.38214">
        <ele>53</ele>
        <time>2019-08-18T10:19:01Z</time>
      </trkpt>
      <trkpt lat="47.2891" lon="-2.3821">
        <ele>53</ele>
        <time>2019-08-18T10:19:02Z</time>
      </trkpt>
      <trkpt lat="47.28905" lon="-2.38206">
        <ele>53</ele>
        <time>2019-08-18T10:19:03Z</time>
      </trkpt>
      <trkpt lat="47.28901" lon="-2.38199">
        <ele>53</ele>
        <time>2019-08-18T10:19:04Z</time>
      </trkpt>
      <trkpt lat="47.289" lon="-2.38191">
        <ele>53</ele>
        <time>2019-08-18T10:19:05Z</time>
      </trkpt>
      <trkpt lat="47.289" lon="-2.38183">
        <ele>54</ele>
        <time>2019-08-18T10:19:06Z</time>
      </trkpt>
      <trkpt lat="47.28901" lon="-2.38167">
        <ele>53</ele>
        <time>2019-08-18T10:19:08Z</time>
      </trkpt>
      <trkpt lat="47.28902" lon="-2.38159">
        <ele>53</ele>
        <time>2019-08-18T10:19:09Z</time>
      </trkpt>
      <trkpt lat="47.28902" lon="-2.3815">
        <ele>54</ele>
        <time>2019-08-18T10:19:10Z</time>
      </trkpt>
      <trkpt lat="47.28903" lon="-2.38141">
        <ele>54</ele>
        <time>2019-08-18T10:19:11Z</time>
      </trkpt>
      <trkpt lat="47.28903" lon="-2.38133">
        <ele>54</ele>
        <time>2019-08-18T10:19:12Z</time>
      </trkpt>
      <trkpt lat="47.28904" lon="-2.38124">
        <ele>54</ele>
        <time>2019-08-18T10:19:13Z</time>
      </trkpt>
      <trkpt lat="47.28905" lon="-2.38115">
        <ele>55</ele>
        <time>2019-08-18T10:19:14Z</time>
      </trkpt>
      <trkpt lat="47.28905" lon="-2.38106">
        <ele>54</ele>
        <time>2019-08-18T10:19:15Z</time>
      </trkpt>
      <trkpt lat="47.28906" lon="-2.38097">
        <ele>55</ele>
        <time>2019-08-18T10:19:16Z</time>
      </trkpt>
      <trkpt lat="47.28906" lon="-2.38087">
        <ele>55</ele>
        <time>2019-08-18T10:19:17Z</time>
      </trkpt>
      <trkpt lat="47.28906" lon="-2.38077">
        <ele>55</ele>
        <time>2019-08-18T10:19:18Z</time>
      </trkpt>
      <trkpt lat="47.28907" lon="-2.38066">
        <ele>55</ele>
        <time>2019-08-18T10:19:19Z</time>
      </trkpt>
      <trkpt lat="47.28907" lon="-2.38056">
        <ele>55</ele>
        <time>2019-08-18T10:19:20Z</time>
      </trkpt>
      <trkpt lat="47.28908" lon="-2.38045">
        <ele>56</ele>
        <time>2019-08-18T10:19:21Z</time>
      </trkpt>
      <trkpt lat="47.28908" lon="-2.38035">
        <ele>55</ele>
        <time>2019-08-18T10:19:22Z</time>
      </trkpt>
      <trkpt lat="47.28909" lon="-2.38025">
        <ele>55</ele>
        <time>2019-08-18T10:19:23Z</time>
      </trkpt>
      <trkpt lat="47.28909" lon="-2.38014">
        <ele>55</ele>
        <time>2019-08-18T10:19:24Z</time>
      </trkpt>
      <trkpt lat="47.2891" lon="-2.38004">
        <ele>55</ele>
        <time>2019-08-18T10:19:25Z</time>
      </trkpt>
      <trkpt lat="47.28911" lon="-2.37993">
        <ele>55</ele>
        <time>2019-08-18T10:19:26Z</time>
      </trkpt>
      <trkpt lat="47.28913" lon="-2.37959">
        <ele>54</ele>
        <time>2019-08-18T10:19:29Z</time>
      </trkpt>
      <trkpt lat="47.28915" lon="-2.37937">
        <ele>54</ele>
        <time>2019-08-18T10:19:31Z</time>
      </trkpt>
      <trkpt lat="47.28916" lon="-2.37927">
        <ele>54</ele>
        <time>2019-08-18T10:19:32Z</time>
      </trkpt>
      <trkpt lat="47.28917" lon="-2.37917">
        <ele>54</ele>
        <time>2019-08-18T10:19:33Z</time>
      </trkpt>
      <trkpt lat="47.28918" lon="-2.37907">
        <ele>54</ele>
        <time>2019-08-18T10:19:34Z</time>
      </trkpt>
      <trkpt lat="47.28919" lon="-2.37896">
        <ele>54</ele>
        <time>2019-08-18T10:19:35Z</time>
      </trkpt>
      <trkpt lat="47.28919" lon="-2.37876">
        <ele>55</ele>
        <time>2019-08-18T10:19:37Z</time>
      </trkpt>
      <trkpt lat="47.2892" lon="-2.37866">
        <ele>55</ele>
        <time>2019-08-18T10:19:38Z</time>
      </trkpt>
      <trkpt lat="47.28921" lon="-2.37856">
        <ele>55</ele>
        <time>2019-08-18T10:19:39Z</time>
      </trkpt>
      <trkpt lat="47.28922" lon="-2.37846">
        <ele>55</ele>
        <time>2019-08-18T10:19:40Z</time>
      </trkpt>
      <trkpt lat="47.28924" lon="-2.37836">
        <ele>55</ele>
        <time>2019-08-18T10:19:41Z</time>
      </trkpt>
      <trkpt lat="47.28925" lon="-2.37826">
        <ele>55</ele>
        <time>2019-08-18T10:19:42Z</time>
      </trkpt>
      <trkpt lat="47.28926" lon="-2.37815">
        <ele>55</ele>
        <time>2019-08-18T10:19:43Z</time>
      </trkpt>
      <trkpt lat="47.28927" lon="-2.37795">
        <ele>55</ele>
        <time>2019-08-18T10:19:45Z</time>
      </trkpt>
      <trkpt lat="47.28927" lon="-2.37784">
        <ele>55</ele>
        <time>2019-08-18T10:19:46Z</time>
      </trkpt>
      <trkpt lat="47.28929" lon="-2.37764">
        <ele>55</ele>
        <time>2019-08-18T10:19:48Z</time>
      </trkpt>
      <trkpt lat="47.28929" lon="-2.37753">
        <ele>55</ele>
        <time>2019-08-18T10:19:49Z</time>
      </trkpt>
      <trkpt lat="47.2893" lon="-2.37732">
        <ele>55</ele>
        <time>2019-08-18T10:19:51Z</time>
      </trkpt>
      <trkpt lat="47.2893" lon="-2.37721">
        <ele>55</ele>
        <time>2019-08-18T10:19:52Z</time>
      </trkpt>
      <trkpt lat="47.28931" lon="-2.37711">
        <ele>55</ele>
        <time>2019-08-18T10:19:53Z</time>
      </trkpt>
      <trkpt lat="47.28933" lon="-2.37701">
        <ele>55</ele>
        <time>2019-08-18T10:19:54Z</time>
      </trkpt>
      <trkpt lat="47.28934" lon="-2.37692">
        <ele>55</ele>
        <time>2019-08-18T10:19:55Z</time>
      </trkpt>
      <trkpt lat="47.28935" lon="-2.37682">
        <ele>55</ele>
        <time>2019-08-18T10:19:56Z</time>
      </trkpt>
      <trkpt lat="47.28935" lon="-2.37672">
        <ele>55</ele>
        <time>2019-08-18T10:19:57Z</time>
      </trkpt>
      <trkpt lat="47.28934" lon="-2.37663">
        <ele>55</ele>
        <time>2019-08-18T10:19:58Z</time>
      </trkpt>
      <trkpt lat="47.28931" lon="-2.37655">
        <ele>55</ele>
        <time>2019-08-18T10:19:59Z</time>
      </trkpt>
      <trkpt lat="47.2892" lon="-2.37647">
        <ele>55</ele>
        <time>2019-08-18T10:20:01Z</time>
      </trkpt>
      <trkpt lat="47.28908" lon="-2.37649">
        <ele>55</ele>
        <time>2019-08-18T10:20:03Z</time>
      </trkpt>
      <trkpt lat="47.28903" lon="-2.3765">
        <ele>55</ele>
        <time>2019-08-18T10:20:04Z</time>
      </trkpt>
      <trkpt lat="47.28897" lon="-2.37652">
        <ele>55</ele>
        <time>2019-08-18T10:20:05Z</time>
      </trkpt>
      <trkpt lat="47.28887" lon="-2.37655">
        <ele>56</ele>
        <time>2019-08-18T10:20:07Z</time>
      </trkpt>
      <trkpt lat="47.28883" lon="-2.37657">
        <ele>56</ele>
        <time>2019-08-18T10:20:08Z</time>
      </trkpt>
      <trkpt lat="47.28878" lon="-2.37657">
        <ele>56</ele>
        <time>2019-08-18T10:20:09Z</time>
      </trkpt>
      <trkpt lat="47.28874" lon="-2.37657">
        <ele>56</ele>
        <time>2019-08-18T10:20:10Z</time>
      </trkpt>
      <trkpt lat="47.28862" lon="-2.37645">
        <ele>57</ele>
        <time>2019-08-18T10:20:13Z</time>
      </trkpt>
      <trkpt lat="47.2886" lon="-2.37638">
        <ele>57</ele>
        <time>2019-08-18T10:20:14Z</time>
      </trkpt>
      <trkpt lat="47.28858" lon="-2.37633">
        <ele>57</ele>
        <time>2019-08-18T10:20:15Z</time>
      </trkpt>
      <trkpt lat="47.28855" lon="-2.37628">
        <ele>58</ele>
        <time>2019-08-18T10:20:19Z</time>
      </trkpt>
      <trkpt lat="47.28849" lon="-2.3763">
        <ele>59</ele>
        <time>2019-08-18T10:20:22Z</time>
      </trkpt>
      <trkpt lat="47.28846" lon="-2.37637">
        <ele>58</ele>
        <time>2019-08-18T10:20:24Z</time>
      </trkpt>
      <trkpt lat="47.28839" lon="-2.37646">
        <ele>58</ele>
        <time>2019-08-18T10:20:26Z</time>
      </trkpt>
      <trkpt lat="47.28836" lon="-2.37653">
        <ele>58</ele>
        <time>2019-08-18T10:20:27Z</time>
      </trkpt>
      <trkpt lat="47.28832" lon="-2.3766">
        <ele>59</ele>
        <time>2019-08-18T10:20:28Z</time>
      </trkpt>
      <trkpt lat="47.28828" lon="-2.37667">
        <ele>59</ele>
        <time>2019-08-18T10:20:29Z</time>
      </trkpt>
      <trkpt lat="47.28824" lon="-2.37673">
        <ele>59</ele>
        <time>2019-08-18T10:20:30Z</time>
      </trkpt>
      <trkpt lat="47.28821" lon="-2.37679">
        <ele>59</ele>
        <time>2019-08-18T10:20:31Z</time>
      </trkpt>
      <trkpt lat="47.28818" lon="-2.37685">
        <ele>59</ele>
        <time>2019-08-18T10:20:32Z</time>
      </trkpt>
      <trkpt lat="47.28814" lon="-2.37695">
        <ele>60</ele>
        <time>2019-08-18T10:20:34Z</time>
      </trkpt>
      <trkpt lat="47.28812" lon="-2.377">
        <ele>59</ele>
        <time>2019-08-18T10:20:35Z</time>
      </trkpt>
      <trkpt lat="47.28807" lon="-2.37708">
        <ele>59</ele>
        <time>2019-08-18T10:20:37Z</time>
      </trkpt>
      <trkpt lat="47.288" lon="-2.37705">
        <ele>58</ele>
        <time>2019-08-18T10:20:39Z</time>
      </trkpt>
      <trkpt lat="47.28796" lon="-2.37703">
        <ele>59</ele>
        <time>2019-08-18T10:20:40Z</time>
      </trkpt>
      <trkpt lat="47.28791" lon="-2.37704">
        <ele>59</ele>
        <time>2019-08-18T10:20:41Z</time>
      </trkpt>
      <trkpt lat="47.28786" lon="-2.37707">
        <ele>60</ele>
        <time>2019-08-18T10:20:42Z</time>
      </trkpt>
      <trkpt lat="47.28781" lon="-2.3771">
        <ele>59</ele>
        <time>2019-08-18T10:20:43Z</time>
      </trkpt>
      <trkpt lat="47.28773" lon="-2.37719">
        <ele>59</ele>
        <time>2019-08-18T10:20:45Z</time>
      </trkpt>
      <trkpt lat="47.28768" lon="-2.37722">
        <ele>59</ele>
        <time>2019-08-18T10:20:46Z</time>
      </trkpt>
      <trkpt lat="47.28763" lon="-2.37725">
        <ele>60</ele>
        <time>2019-08-18T10:20:47Z</time>
      </trkpt>
      <trkpt lat="47.2875" lon="-2.3772">
        <ele>59</ele>
        <time>2019-08-18T10:20:50Z</time>
      </trkpt>
      <trkpt lat="47.2874" lon="-2.37718">
        <ele>59</ele>
        <time>2019-08-18T10:20:52Z</time>
      </trkpt>
      <trkpt lat="47.28736" lon="-2.37718">
        <ele>59</ele>
        <time>2019-08-18T10:20:53Z</time>
      </trkpt>
      <trkpt lat="47.28736" lon="-2.37718">
        <ele>6.5</ele>
        <time>2019-08-18T10:20:59Z</time>
      </trkpt>
      <trkpt lat="47.28736" lon="-2.37718">
        <ele>6.5</ele>
        <time>2019-08-18T10:21:02Z</time>
      </trkpt>
      <trkpt lat="47.28742" lon="-2.37744">
        <ele>60</ele>
        <time>2019-08-18T10:21:02Z</time>
      </trkpt>
      <trkpt lat="47.28726" lon="-2.37771">
        <ele>62</ele>
        <time>2019-08-18T10:21:08Z</time>
      </trkpt>
      <trkpt lat="47.28723" lon="-2.37777">
        <ele>63</ele>
        <time>2019-08-18T10:21:09Z</time>
      </trkpt>
      <trkpt lat="47.28721" lon="-2.37783">
        <ele>59</ele>
        <time>2019-08-18T10:21:10Z</time>
      </trkpt>
      <trkpt lat="47.28719" lon="-2.37787">
        <ele>61</ele>
        <time>2019-08-18T10:21:11Z</time>
      </trkpt>
      <trkpt lat="47.28713" lon="-2.37798">
        <ele>62</ele>
        <time>2019-08-18T10:21:13Z</time>
      </trkpt>
      <trkpt lat="47.2871" lon="-2.37804">
        <ele>61</ele>
        <time>2019-08-18T10:21:14Z</time>
      </trkpt>
      <trkpt lat="47.28706" lon="-2.3781">
        <ele>61</ele>
        <time>2019-08-18T10:21:15Z</time>
      </trkpt>
      <trkpt lat="47.28703" lon="-2.37816">
        <ele>60</ele>
        <time>2019-08-18T10:21:16Z</time>
      </trkpt>
      <trkpt lat="47.28699" lon="-2.37821">
        <ele>60</ele>
        <time>2019-08-18T10:21:17Z</time>
      </trkpt>
      <trkpt lat="47.28696" lon="-2.37827">
        <ele>61</ele>
        <time>2019-08-18T10:21:18Z</time>
      </trkpt>
      <trkpt lat="47.28692" lon="-2.37832">
        <ele>60</ele>
        <time>2019-08-18T10:21:19Z</time>
      </trkpt>
      <trkpt lat="47.28689" lon="-2.37838">
        <ele>61</ele>
        <time>2019-08-18T10:21:20Z</time>
      </trkpt>
      <trkpt lat="47.28686" lon="-2.37843">
        <ele>62</ele>
        <time>2019-08-18T10:21:21Z</time>
      </trkpt>
      <trkpt lat="47.28678" lon="-2.37857">
        <ele>63</ele>
        <time>2019-08-18T10:21:24Z</time>
      </trkpt>
      <trkpt lat="47.28673" lon="-2.37862">
        <ele>63</ele>
        <time>2019-08-18T10:21:26Z</time>
      </trkpt>
      <trkpt lat="47.2867" lon="-2.37872">
        <ele>64</ele>
        <time>2019-08-18T10:21:32Z</time>
      </trkpt>
      <trkpt lat="47.28669" lon="-2.37875">
        <ele>64</ele>
        <time>2019-08-18T10:21:33Z</time>
      </trkpt>
      <trkpt lat="47.28663" lon="-2.37886">
        <ele>64</ele>
        <time>2019-08-18T10:21:36Z</time>
      </trkpt>
      <trkpt lat="47.2866" lon="-2.37891">
        <ele>62</ele>
        <time>2019-08-18T10:21:37Z</time>
      </trkpt>
      <trkpt lat="47.28656" lon="-2.37896">
        <ele>62</ele>
        <time>2019-08-18T10:21:38Z</time>
      </trkpt>
      <trkpt lat="47.28652" lon="-2.37902">
        <ele>62</ele>
        <time>2019-08-18T10:21:39Z</time>
      </trkpt>
      <trkpt lat="47.28648" lon="-2.37908">
        <ele>62</ele>
        <time>2019-08-18T10:21:40Z</time>
      </trkpt>
      <trkpt lat="47.28645" lon="-2.37915">
        <ele>62</ele>
        <time>2019-08-18T10:21:41Z</time>
      </trkpt>
      <trkpt lat="47.28641" lon="-2.37921">
        <ele>62</ele>
        <time>2019-08-18T10:21:42Z</time>
      </trkpt>
      <trkpt lat="47.28636" lon="-2.37928">
        <ele>62</ele>
        <time>2019-08-18T10:21:43Z</time>
      </trkpt>
      <trkpt lat="47.28632" lon="-2.37934">
        <ele>62</ele>
        <time>2019-08-18T10:21:44Z</time>
      </trkpt>
      <trkpt lat="47.28628" lon="-2.3794">
        <ele>61</ele>
        <time>2019-08-18T10:21:45Z</time>
      </trkpt>
      <trkpt lat="47.28623" lon="-2.37946">
        <ele>61</ele>
        <time>2019-08-18T10:21:46Z</time>
      </trkpt>
      <trkpt lat="47.28614" lon="-2.37958">
        <ele>61</ele>
        <time>2019-08-18T10:21:48Z</time>
      </trkpt>
      <trkpt lat="47.2861" lon="-2.37965">
        <ele>61</ele>
        <time>2019-08-18T10:21:49Z</time>
      </trkpt>
      <trkpt lat="47.28606" lon="-2.37972">
        <ele>61</ele>
        <time>2019-08-18T10:21:50Z</time>
      </trkpt>
      <trkpt lat="47.28602" lon="-2.37978">
        <ele>60</ele>
        <time>2019-08-18T10:21:51Z</time>
      </trkpt>
      <trkpt lat="47.28597" lon="-2.37984">
        <ele>60</ele>
        <time>2019-08-18T10:21:52Z</time>
      </trkpt>
      <trkpt lat="47.28588" lon="-2.37995">
        <ele>59</ele>
        <time>2019-08-18T10:21:54Z</time>
      </trkpt>
      <trkpt lat="47.28584" lon="-2.38001">
        <ele>59</ele>
        <time>2019-08-18T10:21:55Z</time>
      </trkpt>
      <trkpt lat="47.28575" lon="-2.38012">
        <ele>59</ele>
        <time>2019-08-18T10:21:57Z</time>
      </trkpt>
      <trkpt lat="47.2857" lon="-2.38018">
        <ele>59</ele>
        <time>2019-08-18T10:21:58Z</time>
      </trkpt>
      <trkpt lat="47.28565" lon="-2.38023">
        <ele>59</ele>
        <time>2019-08-18T10:21:59Z</time>
      </trkpt>
      <trkpt lat="47.28561" lon="-2.38028">
        <ele>59</ele>
        <time>2019-08-18T10:22:00Z</time>
      </trkpt>
      <trkpt lat="47.28556" lon="-2.38033">
        <ele>59</ele>
        <time>2019-08-18T10:22:01Z</time>
      </trkpt>
      <trkpt lat="47.28551" lon="-2.38037">
        <ele>59</ele>
        <time>2019-08-18T10:22:02Z</time>
      </trkpt>
      <trkpt lat="47.28546" lon="-2.38042">
        <ele>59</ele>
        <time>2019-08-18T10:22:03Z</time>
      </trkpt>
      <trkpt lat="47.28542" lon="-2.38047">
        <ele>59</ele>
        <time>2019-08-18T10:22:04Z</time>
      </trkpt>
      <trkpt lat="47.28538" lon="-2.38051">
        <ele>59</ele>
        <time>2019-08-18T10:22:05Z</time>
      </trkpt>
      <trkpt lat="47.28533" lon="-2.38059">
        <ele>59</ele>
        <time>2019-08-18T10:22:07Z</time>
      </trkpt>
      <trkpt lat="47.28529" lon="-2.38063">
        <ele>59</ele>
        <time>2019-08-18T10:22:09Z</time>
      </trkpt>
      <trkpt lat="47.28519" lon="-2.38072">
        <ele>59</ele>
        <time>2019-08-18T10:22:13Z</time>
      </trkpt>
      <trkpt lat="47.28516" lon="-2.38075">
        <ele>58</ele>
        <time>2019-08-18T10:22:14Z</time>
      </trkpt>
      <trkpt lat="47.28512" lon="-2.38078">
        <ele>58</ele>
        <time>2019-08-18T10:22:15Z</time>
      </trkpt>
      <trkpt lat="47.28508" lon="-2.38081">
        <ele>58</ele>
        <time>2019-08-18T10:22:16Z</time>
      </trkpt>
      <trkpt lat="47.28498" lon="-2.38087">
        <ele>59</ele>
        <time>2019-08-18T10:22:18Z</time>
      </trkpt>
      <trkpt lat="47.28493" lon="-2.3809">
        <ele>59</ele>
        <time>2019-08-18T10:22:19Z</time>
      </trkpt>
      <trkpt lat="47.28487" lon="-2.38093">
        <ele>59</ele>
        <time>2019-08-18T10:22:20Z</time>
      </trkpt>
      <trkpt lat="47.28482" lon="-2.38095">
        <ele>59</ele>
        <time>2019-08-18T10:22:21Z</time>
      </trkpt>
      <trkpt lat="47.28477" lon="-2.38098">
        <ele>59</ele>
        <time>2019-08-18T10:22:22Z</time>
      </trkpt>
      <trkpt lat="47.28472" lon="-2.38101">
        <ele>59</ele>
        <time>2019-08-18T10:22:23Z</time>
      </trkpt>
      <trkpt lat="47.28461" lon="-2.38107">
        <ele>60</ele>
        <time>2019-08-18T10:22:25Z</time>
      </trkpt>
      <trkpt lat="47.28455" lon="-2.38109">
        <ele>60</ele>
        <time>2019-08-18T10:22:26Z</time>
      </trkpt>
      <trkpt lat="47.2845" lon="-2.38112">
        <ele>60</ele>
        <time>2019-08-18T10:22:27Z</time>
      </trkpt>
      <trkpt lat="47.28444" lon="-2.38113">
        <ele>60</ele>
        <time>2019-08-18T10:22:28Z</time>
      </trkpt>
      <trkpt lat="47.28438" lon="-2.38114">
        <ele>60</ele>
        <time>2019-08-18T10:22:29Z</time>
      </trkpt>
      <trkpt lat="47.28425" lon="-2.38115">
        <ele>60</ele>
        <time>2019-08-18T10:22:31Z</time>
      </trkpt>
      <trkpt lat="47.28418" lon="-2.38116">
        <ele>59</ele>
        <time>2019-08-18T10:22:32Z</time>
      </trkpt>
      <trkpt lat="47.28406" lon="-2.38114">
        <ele>59</ele>
        <time>2019-08-18T10:22:34Z</time>
      </trkpt>
      <trkpt lat="47.28395" lon="-2.38111">
        <ele>59</ele>
        <time>2019-08-18T10:22:36Z</time>
      </trkpt>
      <trkpt lat="47.28384" lon="-2.38108">
        <ele>60</ele>
        <time>2019-08-18T10:22:38Z</time>
      </trkpt>
      <trkpt lat="47.28373" lon="-2.38102">
        <ele>60</ele>
        <time>2019-08-18T10:22:40Z</time>
      </trkpt>
      <trkpt lat="47.28356" lon="-2.38089">
        <ele>59</ele>
        <time>2019-08-18T10:22:43Z</time>
      </trkpt>
      <trkpt lat="47.28351" lon="-2.38082">
        <ele>59</ele>
        <time>2019-08-18T10:22:44Z</time>
      </trkpt>
      <trkpt lat="47.28346" lon="-2.38076">
        <ele>59</ele>
        <time>2019-08-18T10:22:45Z</time>
      </trkpt>
      <trkpt lat="47.28341" lon="-2.3807">
        <ele>59</ele>
        <time>2019-08-18T10:22:46Z</time>
      </trkpt>
      <trkpt lat="47.28337" lon="-2.38064">
        <ele>59</ele>
        <time>2019-08-18T10:22:47Z</time>
      </trkpt>
      <trkpt lat="47.28333" lon="-2.38058">
        <ele>59</ele>
        <time>2019-08-18T10:22:48Z</time>
      </trkpt>
      <trkpt lat="47.28323" lon="-2.38047">
        <ele>58</ele>
        <time>2019-08-18T10:22:50Z</time>
      </trkpt>
      <trkpt lat="47.28318" lon="-2.38043">
        <ele>58</ele>
        <time>2019-08-18T10:22:51Z</time>
      </trkpt>
      <trkpt lat="47.28313" lon="-2.38039">
        <ele>58</ele>
        <time>2019-08-18T10:22:52Z</time>
      </trkpt>
      <trkpt lat="47.28301" lon="-2.38031">
        <ele>56</ele>
        <time>2019-08-18T10:22:54Z</time>
      </trkpt>
      <trkpt lat="47.28297" lon="-2.38027">
        <ele>56</ele>
        <time>2019-08-18T10:22:55Z</time>
      </trkpt>
      <trkpt lat="47.28292" lon="-2.38024">
        <ele>56</ele>
        <time>2019-08-18T10:22:56Z</time>
      </trkpt>
      <trkpt lat="47.28286" lon="-2.38021">
        <ele>56</ele>
        <time>2019-08-18T10:22:57Z</time>
      </trkpt>
      <trkpt lat="47.28275" lon="-2.38016">
        <ele>56</ele>
        <time>2019-08-18T10:22:59Z</time>
      </trkpt>
      <trkpt lat="47.28269" lon="-2.38014">
        <ele>56</ele>
        <time>2019-08-18T10:23:00Z</time>
      </trkpt>
      <trkpt lat="47.28263" lon="-2.38011">
        <ele>56</ele>
        <time>2019-08-18T10:23:01Z</time>
      </trkpt>
      <trkpt lat="47.28257" lon="-2.38011">
        <ele>56</ele>
        <time>2019-08-18T10:23:02Z</time>
      </trkpt>
      <trkpt lat="47.28252" lon="-2.38011">
        <ele>56</ele>
        <time>2019-08-18T10:23:03Z</time>
      </trkpt>
      <trkpt lat="47.28246" lon="-2.38013">
        <ele>56</ele>
        <time>2019-08-18T10:23:04Z</time>
      </trkpt>
      <trkpt lat="47.2824" lon="-2.38015">
        <ele>57</ele>
        <time>2019-08-18T10:23:05Z</time>
      </trkpt>
      <trkpt lat="47.28235" lon="-2.38017">
        <ele>56</ele>
        <time>2019-08-18T10:23:06Z</time>
      </trkpt>
      <trkpt lat="47.2823" lon="-2.38018">
        <ele>56</ele>
        <time>2019-08-18T10:23:07Z</time>
      </trkpt>
      <trkpt lat="47.28223" lon="-2.38019">
        <ele>56</ele>
        <time>2019-08-18T10:23:08Z</time>
      </trkpt>
      <trkpt lat="47.28217" lon="-2.3802">
        <ele>56</ele>
        <time>2019-08-18T10:23:09Z</time>
      </trkpt>
      <trkpt lat="47.28212" lon="-2.38021">
        <ele>56</ele>
        <time>2019-08-18T10:23:10Z</time>
      </trkpt>
      <trkpt lat="47.28206" lon="-2.38023">
        <ele>56</ele>
        <time>2019-08-18T10:23:11Z</time>
      </trkpt>
      <trkpt lat="47.282" lon="-2.38025">
        <ele>56</ele>
        <time>2019-08-18T10:23:12Z</time>
      </trkpt>
      <trkpt lat="47.28193" lon="-2.38026">
        <ele>56</ele>
        <time>2019-08-18T10:23:13Z</time>
      </trkpt>
      <trkpt lat="47.28188" lon="-2.38029">
        <ele>57</ele>
        <time>2019-08-18T10:23:14Z</time>
      </trkpt>
      <trkpt lat="47.28183" lon="-2.38032">
        <ele>57</ele>
        <time>2019-08-18T10:23:15Z</time>
      </trkpt>
      <trkpt lat="47.28176" lon="-2.38034">
        <ele>57</ele>
        <time>2019-08-18T10:23:16Z</time>
      </trkpt>
      <trkpt lat="47.28172" lon="-2.38036">
        <ele>57</ele>
        <time>2019-08-18T10:23:17Z</time>
      </trkpt>
      <trkpt lat="47.2815" lon="-2.38047">
        <ele>58</ele>
        <time>2019-08-18T10:23:21Z</time>
      </trkpt>
      <trkpt lat="47.28144" lon="-2.3805">
        <ele>58</ele>
        <time>2019-08-18T10:23:22Z</time>
      </trkpt>
      <trkpt lat="47.28138" lon="-2.38053">
        <ele>57</ele>
        <time>2019-08-18T10:23:23Z</time>
      </trkpt>
      <trkpt lat="47.28132" lon="-2.38055">
        <ele>57</ele>
        <time>2019-08-18T10:23:24Z</time>
      </trkpt>
      <trkpt lat="47.28127" lon="-2.38058">
        <ele>57</ele>
        <time>2019-08-18T10:23:25Z</time>
      </trkpt>
      <trkpt lat="47.28121" lon="-2.38061">
        <ele>57</ele>
        <time>2019-08-18T10:23:26Z</time>
      </trkpt>
      <trkpt lat="47.28109" lon="-2.38066">
        <ele>57</ele>
        <time>2019-08-18T10:23:28Z</time>
      </trkpt>
      <trkpt lat="47.28105" lon="-2.38068">
        <ele>57</ele>
        <time>2019-08-18T10:23:29Z</time>
      </trkpt>
      <trkpt lat="47.281" lon="-2.38071">
        <ele>57</ele>
        <time>2019-08-18T10:23:30Z</time>
      </trkpt>
      <trkpt lat="47.28086" lon="-2.38077">
        <ele>57</ele>
        <time>2019-08-18T10:23:33Z</time>
      </trkpt>
      <trkpt lat="47.28081" lon="-2.3808">
        <ele>57</ele>
        <time>2019-08-18T10:23:34Z</time>
      </trkpt>
      <trkpt lat="47.28077" lon="-2.38082">
        <ele>57</ele>
        <time>2019-08-18T10:23:35Z</time>
      </trkpt>
      <trkpt lat="47.28072" lon="-2.38084">
        <ele>57</ele>
        <time>2019-08-18T10:23:36Z</time>
      </trkpt>
      <trkpt lat="47.28068" lon="-2.38086">
        <ele>57</ele>
        <time>2019-08-18T10:23:37Z</time>
      </trkpt>
      <trkpt lat="47.2806" lon="-2.38089">
        <ele>57</ele>
        <time>2019-08-18T10:23:39Z</time>
      </trkpt>
      <trkpt lat="47.28056" lon="-2.3809">
        <ele>58</ele>
        <time>2019-08-18T10:23:40Z</time>
      </trkpt>
      <trkpt lat="47.28051" lon="-2.38092">
        <ele>58</ele>
        <time>2019-08-18T10:23:45Z</time>
      </trkpt>
      <trkpt lat="47.28044" lon="-2.38095">
        <ele>58</ele>
        <time>2019-08-18T10:23:48Z</time>
      </trkpt>
      <trkpt lat="47.2804" lon="-2.38098">
        <ele>58</ele>
        <time>2019-08-18T10:23:50Z</time>
      </trkpt>
      <trkpt lat="47.28035" lon="-2.38099">
        <ele>59</ele>
        <time>2019-08-18T10:23:53Z</time>
      </trkpt>
      <trkpt lat="47.28029" lon="-2.38095">
        <ele>59</ele>
        <time>2019-08-18T10:23:57Z</time>
      </trkpt>
      <trkpt lat="47.28025" lon="-2.3809">
        <ele>58</ele>
        <time>2019-08-18T10:24:00Z</time>
      </trkpt>
      <trkpt lat="47.28022" lon="-2.38085">
        <ele>59</ele>
        <time>2019-08-18T10:24:02Z</time>
      </trkpt>
      <trkpt lat="47.28017" lon="-2.38065">
        <ele>58</ele>
        <time>2019-08-18T10:24:06Z</time>
      </trkpt>
      <trkpt lat="47.28014" lon="-2.38052">
        <ele>58</ele>
        <time>2019-08-18T10:24:08Z</time>
      </trkpt>
      <trkpt lat="47.28013" lon="-2.38046">
        <ele>59</ele>
        <time>2019-08-18T10:24:09Z</time>
      </trkpt>
      <trkpt lat="47.28012" lon="-2.3804">
        <ele>59</ele>
        <time>2019-08-18T10:24:10Z</time>
      </trkpt>
      <trkpt lat="47.28009" lon="-2.38028">
        <ele>59</ele>
        <time>2019-08-18T10:24:12Z</time>
      </trkpt>
      <trkpt lat="47.28008" lon="-2.38023">
        <ele>59</ele>
        <time>2019-08-18T10:24:13Z</time>
      </trkpt>
      <trkpt lat="47.28007" lon="-2.38016">
        <ele>60</ele>
        <time>2019-08-18T10:24:14Z</time>
      </trkpt>
      <trkpt lat="47.28005" lon="-2.38009">
        <ele>60</ele>
        <time>2019-08-18T10:24:15Z</time>
      </trkpt>
      <trkpt lat="47.28004" lon="-2.38003">
        <ele>60</ele>
        <time>2019-08-18T10:24:16Z</time>
      </trkpt>
      <trkpt lat="47.28002" lon="-2.37996">
        <ele>60</ele>
        <time>2019-08-18T10:24:17Z</time>
      </trkpt>
      <trkpt lat="47.28" lon="-2.3799">
        <ele>60</ele>
        <time>2019-08-18T10:24:18Z</time>
      </trkpt>
      <trkpt lat="47.27999" lon="-2.37983">
        <ele>60</ele>
        <time>2019-08-18T10:24:19Z</time>
      </trkpt>
      <trkpt lat="47.27998" lon="-2.37976">
        <ele>60</ele>
        <time>2019-08-18T10:24:20Z</time>
      </trkpt>
      <trkpt lat="47.27996" lon="-2.3797">
        <ele>60</ele>
        <time>2019-08-18T10:24:21Z</time>
      </trkpt>
      <trkpt lat="47.27991" lon="-2.37947">
        <ele>60</ele>
        <time>2019-08-18T10:24:24Z</time>
      </trkpt>
      <trkpt lat="47.27989" lon="-2.37939">
        <ele>60</ele>
        <time>2019-08-18T10:24:25Z</time>
      </trkpt>
      <trkpt lat="47.27988" lon="-2.37932">
        <ele>60</ele>
        <time>2019-08-18T10:24:26Z</time>
      </trkpt>
      <trkpt lat="47.27987" lon="-2.37924">
        <ele>60</ele>
        <time>2019-08-18T10:24:27Z</time>
      </trkpt>
      <trkpt lat="47.27983" lon="-2.37909">
        <ele>60</ele>
        <time>2019-08-18T10:24:29Z</time>
      </trkpt>
      <trkpt lat="47.2798" lon="-2.37892">
        <ele>59</ele>
        <time>2019-08-18T10:24:31Z</time>
      </trkpt>
      <trkpt lat="47.27974" lon="-2.37858">
        <ele>58</ele>
        <time>2019-08-18T10:24:35Z</time>
      </trkpt>
      <trkpt lat="47.27972" lon="-2.37841">
        <ele>58</ele>
        <time>2019-08-18T10:24:37Z</time>
      </trkpt>
      <trkpt lat="47.27971" lon="-2.37833">
        <ele>58</ele>
        <time>2019-08-18T10:24:38Z</time>
      </trkpt>
      <trkpt lat="47.27969" lon="-2.37824">
        <ele>58</ele>
        <time>2019-08-18T10:24:39Z</time>
      </trkpt>
      <trkpt lat="47.27967" lon="-2.37816">
        <ele>58</ele>
        <time>2019-08-18T10:24:40Z</time>
      </trkpt>
      <trkpt lat="47.27965" lon="-2.37807">
        <ele>58</ele>
        <time>2019-08-18T10:24:41Z</time>
      </trkpt>
      <trkpt lat="47.27964" lon="-2.37799">
        <ele>58</ele>
        <time>2019-08-18T10:24:42Z</time>
      </trkpt>
      <trkpt lat="47.27963" lon="-2.37789">
        <ele>58</ele>
        <time>2019-08-18T10:24:43Z</time>
      </trkpt>
      <trkpt lat="47.27961" lon="-2.3778">
        <ele>58</ele>
        <time>2019-08-18T10:24:44Z</time>
      </trkpt>
      <trkpt lat="47.27959" lon="-2.37772">
        <ele>58</ele>
        <time>2019-08-18T10:24:45Z</time>
      </trkpt>
      <trkpt lat="47.27955" lon="-2.37764">
        <ele>58</ele>
        <time>2019-08-18T10:24:46Z</time>
      </trkpt>
      <trkpt lat="47.27953" lon="-2.37754">
        <ele>58</ele>
        <time>2019-08-18T10:24:47Z</time>
      </trkpt>
      <trkpt lat="47.27951" lon="-2.37745">
        <ele>58</ele>
        <time>2019-08-18T10:24:48Z</time>
      </trkpt>
      <trkpt lat="47.27949" lon="-2.37736">
        <ele>58</ele>
        <time>2019-08-18T10:24:49Z</time>
      </trkpt>
      <trkpt lat="47.27947" lon="-2.37727">
        <ele>58</ele>
        <time>2019-08-18T10:24:50Z</time>
      </trkpt>
      <trkpt lat="47.27946" lon="-2.37718">
        <ele>58</ele>
        <time>2019-08-18T10:24:51Z</time>
      </trkpt>
      <trkpt lat="47.27944" lon="-2.37709">
        <ele>58</ele>
        <time>2019-08-18T10:24:52Z</time>
      </trkpt>
      <trkpt lat="47.27942" lon="-2.37699">
        <ele>58</ele>
        <time>2019-08-18T10:24:53Z</time>
      </trkpt>
      <trkpt lat="47.2794" lon="-2.3769">
        <ele>58</ele>
        <time>2019-08-18T10:24:54Z</time>
      </trkpt>
      <trkpt lat="47.27938" lon="-2.37681">
        <ele>58</ele>
        <time>2019-08-18T10:24:55Z</time>
      </trkpt>
      <trkpt lat="47.27936" lon="-2.37671">
        <ele>58</ele>
        <time>2019-08-18T10:24:56Z</time>
      </trkpt>
      <trkpt lat="47.27934" lon="-2.37662">
        <ele>57</ele>
        <time>2019-08-18T10:24:57Z</time>
      </trkpt>
      <trkpt lat="47.27931" lon="-2.37653">
        <ele>57</ele>
        <time>2019-08-18T10:24:58Z</time>
      </trkpt>
      <trkpt lat="47.27921" lon="-2.37616">
        <ele>57</ele>
        <time>2019-08-18T10:25:02Z</time>
      </trkpt>
      <trkpt lat="47.27919" lon="-2.37606">
        <ele>57</ele>
        <time>2019-08-18T10:25:03Z</time>
      </trkpt>
      <trkpt lat="47.27917" lon="-2.37596">
        <ele>57</ele>
        <time>2019-08-18T10:25:04Z</time>
      </trkpt>
      <trkpt lat="47.27915" lon="-2.37586">
        <ele>57</ele>
        <time>2019-08-18T10:25:05Z</time>
      </trkpt>
      <trkpt lat="47.27912" lon="-2.37576">
        <ele>57</ele>
        <time>2019-08-18T10:25:06Z</time>
      </trkpt>
      <trkpt lat="47.2791" lon="-2.37567">
        <ele>57</ele>
        <time>2019-08-18T10:25:07Z</time>
      </trkpt>
      <trkpt lat="47.27907" lon="-2.37557">
        <ele>57</ele>
        <time>2019-08-18T10:25:08Z</time>
      </trkpt>
      <trkpt lat="47.27905" lon="-2.37547">
        <ele>57</ele>
        <time>2019-08-18T10:25:09Z</time>
      </trkpt>
      <trkpt lat="47.27903" lon="-2.37538">
        <ele>57</ele>
        <time>2019-08-18T10:25:10Z</time>
      </trkpt>
      <trkpt lat="47.279" lon="-2.37528">
        <ele>57</ele>
        <time>2019-08-18T10:25:11Z</time>
      </trkpt>
      <trkpt lat="47.27898" lon="-2.37518">
        <ele>58</ele>
        <time>2019-08-18T10:25:12Z</time>
      </trkpt>
      <trkpt lat="47.27896" lon="-2.37509">
        <ele>58</ele>
        <time>2019-08-18T10:25:13Z</time>
      </trkpt>
      <trkpt lat="47.27894" lon="-2.37499">
        <ele>58</ele>
        <time>2019-08-18T10:25:14Z</time>
      </trkpt>
      <trkpt lat="47.27892" lon="-2.37488">
        <ele>58</ele>
        <time>2019-08-18T10:25:15Z</time>
      </trkpt>
      <trkpt lat="47.27889" lon="-2.37478">
        <ele>58</ele>
        <time>2019-08-18T10:25:16Z</time>
      </trkpt>
      <trkpt lat="47.27887" lon="-2.37469">
        <ele>58</ele>
        <time>2019-08-18T10:25:17Z</time>
      </trkpt>
      <trkpt lat="47.27884" lon="-2.37458">
        <ele>58</ele>
        <time>2019-08-18T10:25:18Z</time>
      </trkpt>
      <trkpt lat="47.27882" lon="-2.37448">
        <ele>58</ele>
        <time>2019-08-18T10:25:19Z</time>
      </trkpt>
      <trkpt lat="47.27875" lon="-2.37417">
        <ele>58</ele>
        <time>2019-08-18T10:25:22Z</time>
      </trkpt>
      <trkpt lat="47.27873" lon="-2.37408">
        <ele>58</ele>
        <time>2019-08-18T10:25:23Z</time>
      </trkpt>
      <trkpt lat="47.2787" lon="-2.37398">
        <ele>58</ele>
        <time>2019-08-18T10:25:24Z</time>
      </trkpt>
      <trkpt lat="47.27867" lon="-2.37388">
        <ele>58</ele>
        <time>2019-08-18T10:25:25Z</time>
      </trkpt>
      <trkpt lat="47.27865" lon="-2.37378">
        <ele>59</ele>
        <time>2019-08-18T10:25:26Z</time>
      </trkpt>
      <trkpt lat="47.27862" lon="-2.37368">
        <ele>58</ele>
        <time>2019-08-18T10:25:27Z</time>
      </trkpt>
      <trkpt lat="47.2786" lon="-2.37358">
        <ele>58</ele>
        <time>2019-08-18T10:25:28Z</time>
      </trkpt>
      <trkpt lat="47.27857" lon="-2.37346">
        <ele>58</ele>
        <time>2019-08-18T10:25:29Z</time>
      </trkpt>
      <trkpt lat="47.27854" lon="-2.37337">
        <ele>59</ele>
        <time>2019-08-18T10:25:30Z</time>
      </trkpt>
      <trkpt lat="47.27852" lon="-2.37327">
        <ele>59</ele>
        <time>2019-08-18T10:25:31Z</time>
      </trkpt>
      <trkpt lat="47.27846" lon="-2.37307">
        <ele>59</ele>
        <time>2019-08-18T10:25:33Z</time>
      </trkpt>
      <trkpt lat="47.27844" lon="-2.37296">
        <ele>59</ele>
        <time>2019-08-18T10:25:34Z</time>
      </trkpt>
      <trkpt lat="47.27842" lon="-2.37286">
        <ele>59</ele>
        <time>2019-08-18T10:25:35Z</time>
      </trkpt>
      <trkpt lat="47.27839" lon="-2.37276">
        <ele>59</ele>
        <time>2019-08-18T10:25:36Z</time>
      </trkpt>
      <trkpt lat="47.27836" lon="-2.37265">
        <ele>59</ele>
        <time>2019-08-18T10:25:37Z</time>
      </trkpt>
      <trkpt lat="47.27833" lon="-2.37255">
        <ele>59</ele>
        <time>2019-08-18T10:25:38Z</time>
      </trkpt>
      <trkpt lat="47.2783" lon="-2.37246">
        <ele>59</ele>
        <time>2019-08-18T10:25:39Z</time>
      </trkpt>
      <trkpt lat="47.27826" lon="-2.37232">
        <ele>59</ele>
        <time>2019-08-18T10:25:41Z</time>
      </trkpt>
      <trkpt lat="47.27826" lon="-2.37232">
        <ele>7.2</ele>
        <time>2019-08-18T10:25:48Z</time>
      </trkpt>
      <trkpt lat="47.27826" lon="-2.37232">
        <ele>7.2</ele>
        <time>2019-08-18T10:25:54Z</time>
      </trkpt>
      <trkpt lat="47.27824" lon="-2.37215">
        <ele>60</ele>
        <time>2019-08-18T10:25:54Z</time>
      </trkpt>
      <trkpt lat="47.27816" lon="-2.37184">
        <ele>59</ele>
        <time>2019-08-18T10:26:00Z</time>
      </trkpt>
      <trkpt lat="47.27815" lon="-2.37174">
        <ele>57</ele>
        <time>2019-08-18T10:26:01Z</time>
      </trkpt>
      <trkpt lat="47.27813" lon="-2.37168">
        <ele>58</ele>
        <time>2019-08-18T10:26:02Z</time>
      </trkpt>
      <trkpt lat="47.27811" lon="-2.37159">
        <ele>58</ele>
        <time>2019-08-18T10:26:03Z</time>
      </trkpt>
      <trkpt lat="47.27808" lon="-2.37152">
        <ele>58</ele>
        <time>2019-08-18T10:26:04Z</time>
      </trkpt>
      <trkpt lat="47.27805" lon="-2.37144">
        <ele>57</ele>
        <time>2019-08-18T10:26:05Z</time>
      </trkpt>
      <trkpt lat="47.27802" lon="-2.37136">
        <ele>57</ele>
        <time>2019-08-18T10:26:06Z</time>
      </trkpt>
      <trkpt lat="47.278" lon="-2.37127">
        <ele>57</ele>
        <time>2019-08-18T10:26:07Z</time>
      </trkpt>
      <trkpt lat="47.27798" lon="-2.37118">
        <ele>57</ele>
        <time>2019-08-18T10:26:08Z</time>
      </trkpt>
      <trkpt lat="47.27796" lon="-2.3711">
        <ele>57</ele>
        <time>2019-08-18T10:26:09Z</time>
      </trkpt>
      <trkpt lat="47.27794" lon="-2.37101">
        <ele>57</ele>
        <time>2019-08-18T10:26:10Z</time>
      </trkpt>
      <trkpt lat="47.27791" lon="-2.37092">
        <ele>57</ele>
        <time>2019-08-18T10:26:11Z</time>
      </trkpt>
      <trkpt lat="47.27789" lon="-2.37083">
        <ele>57</ele>
        <time>2019-08-18T10:26:12Z</time>
      </trkpt>
      <trkpt lat="47.27786" lon="-2.37073">
        <ele>57</ele>
        <time>2019-08-18T10:26:13Z</time>
      </trkpt>
      <trkpt lat="47.27781" lon="-2.37054">
        <ele>57</ele>
        <time>2019-08-18T10:26:15Z</time>
      </trkpt>
      <trkpt lat="47.27778" lon="-2.37044">
        <ele>57</ele>
        <time>2019-08-18T10:26:16Z</time>
      </trkpt>
      <trkpt lat="47.27774" lon="-2.37024">
        <ele>57</ele>
        <time>2019-08-18T10:26:18Z</time>
      </trkpt>
      <trkpt lat="47.27771" lon="-2.37015">
        <ele>58</ele>
        <time>2019-08-18T10:26:19Z</time>
      </trkpt>
      <trkpt lat="47.27769" lon="-2.37005">
        <ele>57</ele>
        <time>2019-08-18T10:26:20Z</time>
      </trkpt>
      <trkpt lat="47.27766" lon="-2.36995">
        <ele>57</ele>
        <time>2019-08-18T10:26:21Z</time>
      </trkpt>
      <trkpt lat="47.27763" lon="-2.36986">
        <ele>57</ele>
        <time>2019-08-18T10:26:22Z</time>
      </trkpt>
      <trkpt lat="47.2776" lon="-2.36975">
        <ele>57</ele>
        <time>2019-08-18T10:26:23Z</time>
      </trkpt>
      <trkpt lat="47.27757" lon="-2.36966">
        <ele>58</ele>
        <time>2019-08-18T10:26:24Z</time>
      </trkpt>
      <trkpt lat="47.27753" lon="-2.36956">
        <ele>58</ele>
        <time>2019-08-18T10:26:25Z</time>
      </trkpt>
      <trkpt lat="47.27751" lon="-2.36946">
        <ele>58</ele>
        <time>2019-08-18T10:26:26Z</time>
      </trkpt>
      <trkpt lat="47.27745" lon="-2.36926">
        <ele>57</ele>
        <time>2019-08-18T10:26:28Z</time>
      </trkpt>
      <trkpt lat="47.27742" lon="-2.36916">
        <ele>57</ele>
        <time>2019-08-18T10:26:29Z</time>
      </trkpt>
      <trkpt lat="47.27738" lon="-2.36906">
        <ele>57</ele>
        <time>2019-08-18T10:26:30Z</time>
      </trkpt>
      <trkpt lat="47.27735" lon="-2.36895">
        <ele>57</ele>
        <time>2019-08-18T10:26:31Z</time>
      </trkpt>
      <trkpt lat="47.27733" lon="-2.36885">
        <ele>57</ele>
        <time>2019-08-18T10:26:32Z</time>
      </trkpt>
      <trkpt lat="47.2773" lon="-2.36874">
        <ele>57</ele>
        <time>2019-08-18T10:26:33Z</time>
      </trkpt>
      <trkpt lat="47.27724" lon="-2.36853">
        <ele>57</ele>
        <time>2019-08-18T10:26:35Z</time>
      </trkpt>
      <trkpt lat="47.27721" lon="-2.36843">
        <ele>57</ele>
        <time>2019-08-18T10:26:36Z</time>
      </trkpt>
      <trkpt lat="47.27718" lon="-2.36833">
        <ele>57</ele>
        <time>2019-08-18T10:26:37Z</time>
      </trkpt>
      <trkpt lat="47.27715" lon="-2.36823">
        <ele>57</ele>
        <time>2019-08-18T10:26:38Z</time>
      </trkpt>
      <trkpt lat="47.27712" lon="-2.36813">
        <ele>58</ele>
        <time>2019-08-18T10:26:39Z</time>
      </trkpt>
      <trkpt lat="47.27709" lon="-2.36804">
        <ele>58</ele>
        <time>2019-08-18T10:26:40Z</time>
      </trkpt>
      <trkpt lat="47.27706" lon="-2.36794">
        <ele>58</ele>
        <time>2019-08-18T10:26:41Z</time>
      </trkpt>
      <trkpt lat="47.27702" lon="-2.36783">
        <ele>59</ele>
        <time>2019-08-18T10:26:44Z</time>
      </trkpt>
      <trkpt lat="47.27699" lon="-2.36778">
        <ele>59</ele>
        <time>2019-08-18T10:26:47Z</time>
      </trkpt>
      <trkpt lat="47.27699" lon="-2.36778">
        <ele>59</ele>
        <time>2019-08-18T10:26:56Z</time>
      </trkpt>
      <trkpt lat="47.27699" lon="-2.36778">
        <ele>7.2</ele>
        <time>2019-08-18T10:26:56Z</time>
      </trkpt>
      <trkpt lat="47.27699" lon="-2.36778">
        <ele>7.2</ele>
        <time>2019-08-18T10:27:00Z</time>
      </trkpt>
      <trkpt lat="47.27693" lon="-2.36757">
        <ele>59</ele>
        <time>2019-08-18T10:27:00Z</time>
      </trkpt>
      <trkpt lat="47.27681" lon="-2.36714">
        <ele>54</ele>
        <time>2019-08-18T10:27:06Z</time>
      </trkpt>
      <trkpt lat="47.27677" lon="-2.36707">
        <ele>55</ele>
        <time>2019-08-18T10:27:07Z</time>
      </trkpt>
      <trkpt lat="47.27674" lon="-2.36701">
        <ele>56</ele>
        <time>2019-08-18T10:27:08Z</time>
      </trkpt>
      <trkpt lat="47.2767" lon="-2.36693">
        <ele>55</ele>
        <time>2019-08-18T10:27:09Z</time>
      </trkpt>
      <trkpt lat="47.27667" lon="-2.36684">
        <ele>55</ele>
        <time>2019-08-18T10:27:10Z</time>
      </trkpt>
      <trkpt lat="47.27665" lon="-2.36676">
        <ele>55</ele>
        <time>2019-08-18T10:27:11Z</time>
      </trkpt>
      <trkpt lat="47.27661" lon="-2.36668">
        <ele>55</ele>
        <time>2019-08-18T10:27:12Z</time>
      </trkpt>
      <trkpt lat="47.27658" lon="-2.36659">
        <ele>56</ele>
        <time>2019-08-18T10:27:13Z</time>
      </trkpt>
      <trkpt lat="47.27655" lon="-2.36651">
        <ele>56</ele>
        <time>2019-08-18T10:27:14Z</time>
      </trkpt>
      <trkpt lat="47.27652" lon="-2.36642">
        <ele>55</ele>
        <time>2019-08-18T10:27:15Z</time>
      </trkpt>
      <trkpt lat="47.2765" lon="-2.36633">
        <ele>56</ele>
        <time>2019-08-18T10:27:16Z</time>
      </trkpt>
      <trkpt lat="47.27646" lon="-2.36624">
        <ele>56</ele>
        <time>2019-08-18T10:27:17Z</time>
      </trkpt>
      <trkpt lat="47.27642" lon="-2.36615">
        <ele>56</ele>
        <time>2019-08-18T10:27:18Z</time>
      </trkpt>
      <trkpt lat="47.27639" lon="-2.36606">
        <ele>56</ele>
        <time>2019-08-18T10:27:19Z</time>
      </trkpt>
      <trkpt lat="47.27636" lon="-2.36597">
        <ele>56</ele>
        <time>2019-08-18T10:27:20Z</time>
      </trkpt>
      <trkpt lat="47.27633" lon="-2.36587">
        <ele>56</ele>
        <time>2019-08-18T10:27:21Z</time>
      </trkpt>
      <trkpt lat="47.27629" lon="-2.36578">
        <ele>56</ele>
        <time>2019-08-18T10:27:22Z</time>
      </trkpt>
      <trkpt lat="47.27625" lon="-2.36568">
        <ele>56</ele>
        <time>2019-08-18T10:27:23Z</time>
      </trkpt>
      <trkpt lat="47.27622" lon="-2.36558">
        <ele>57</ele>
        <time>2019-08-18T10:27:24Z</time>
      </trkpt>
      <trkpt lat="47.27619" lon="-2.36549">
        <ele>57</ele>
        <time>2019-08-18T10:27:25Z</time>
      </trkpt>
      <trkpt lat="47.27613" lon="-2.36529">
        <ele>57</ele>
        <time>2019-08-18T10:27:27Z</time>
      </trkpt>
      <trkpt lat="47.2761" lon="-2.36519">
        <ele>56</ele>
        <time>2019-08-18T10:27:28Z</time>
      </trkpt>
      <trkpt lat="47.27606" lon="-2.36508">
        <ele>57</ele>
        <time>2019-08-18T10:27:29Z</time>
      </trkpt>
      <trkpt lat="47.27603" lon="-2.36499">
        <ele>57</ele>
        <time>2019-08-18T10:27:30Z</time>
      </trkpt>
      <trkpt lat="47.27599" lon="-2.36489">
        <ele>57</ele>
        <time>2019-08-18T10:27:31Z</time>
      </trkpt>
      <trkpt lat="47.27596" lon="-2.36479">
        <ele>57</ele>
        <time>2019-08-18T10:27:32Z</time>
      </trkpt>
      <trkpt lat="47.27592" lon="-2.3647">
        <ele>57</ele>
        <time>2019-08-18T10:27:33Z</time>
      </trkpt>
      <trkpt lat="47.27589" lon="-2.3646">
        <ele>57</ele>
        <time>2019-08-18T10:27:34Z</time>
      </trkpt>
      <trkpt lat="47.27585" lon="-2.36451">
        <ele>57</ele>
        <time>2019-08-18T10:27:35Z</time>
      </trkpt>
      <trkpt lat="47.27581" lon="-2.36441">
        <ele>57</ele>
        <time>2019-08-18T10:27:36Z</time>
      </trkpt>
      <trkpt lat="47.27577" lon="-2.36431">
        <ele>57</ele>
        <time>2019-08-18T10:27:37Z</time>
      </trkpt>
      <trkpt lat="47.27574" lon="-2.36421">
        <ele>57</ele>
        <time>2019-08-18T10:27:38Z</time>
      </trkpt>
      <trkpt lat="47.27571" lon="-2.3641">
        <ele>58</ele>
        <time>2019-08-18T10:27:39Z</time>
      </trkpt>
      <trkpt lat="47.27567" lon="-2.36399">
        <ele>58</ele>
        <time>2019-08-18T10:27:40Z</time>
      </trkpt>
      <trkpt lat="47.27564" lon="-2.3639">
        <ele>57</ele>
        <time>2019-08-18T10:27:41Z</time>
      </trkpt>
      <trkpt lat="47.2756" lon="-2.3638">
        <ele>58</ele>
        <time>2019-08-18T10:27:42Z</time>
      </trkpt>
      <trkpt lat="47.27556" lon="-2.36371">
        <ele>58</ele>
        <time>2019-08-18T10:27:43Z</time>
      </trkpt>
      <trkpt lat="47.27551" lon="-2.36361">
        <ele>58</ele>
        <time>2019-08-18T10:27:44Z</time>
      </trkpt>
      <trkpt lat="47.27548" lon="-2.36351">
        <ele>58</ele>
        <time>2019-08-18T10:27:45Z</time>
      </trkpt>
      <trkpt lat="47.27544" lon="-2.36341">
        <ele>58</ele>
        <time>2019-08-18T10:27:46Z</time>
      </trkpt>
      <trkpt lat="47.2754" lon="-2.36331">
        <ele>58</ele>
        <time>2019-08-18T10:27:47Z</time>
      </trkpt>
      <trkpt lat="47.27536" lon="-2.36321">
        <ele>58</ele>
        <time>2019-08-18T10:27:48Z</time>
      </trkpt>
      <trkpt lat="47.27532" lon="-2.36311">
        <ele>58</ele>
        <time>2019-08-18T10:27:49Z</time>
      </trkpt>
      <trkpt lat="47.27529" lon="-2.36301">
        <ele>58</ele>
        <time>2019-08-18T10:27:50Z</time>
      </trkpt>
      <trkpt lat="47.27525" lon="-2.3629">
        <ele>58</ele>
        <time>2019-08-18T10:27:51Z</time>
      </trkpt>
      <trkpt lat="47.27521" lon="-2.3628">
        <ele>58</ele>
        <time>2019-08-18T10:27:52Z</time>
      </trkpt>
      <trkpt lat="47.27505" lon="-2.36241">
        <ele>58</ele>
        <time>2019-08-18T10:27:56Z</time>
      </trkpt>
      <trkpt lat="47.27501" lon="-2.36231">
        <ele>58</ele>
        <time>2019-08-18T10:27:57Z</time>
      </trkpt>
      <trkpt lat="47.27497" lon="-2.3622">
        <ele>58</ele>
        <time>2019-08-18T10:27:58Z</time>
      </trkpt>
      <trkpt lat="47.27493" lon="-2.36209">
        <ele>58</ele>
        <time>2019-08-18T10:27:59Z</time>
      </trkpt>
      <trkpt lat="47.27481" lon="-2.36179">
        <ele>59</ele>
        <time>2019-08-18T10:28:02Z</time>
      </trkpt>
      <trkpt lat="47.27477" lon="-2.36169">
        <ele>59</ele>
        <time>2019-08-18T10:28:03Z</time>
      </trkpt>
      <trkpt lat="47.27474" lon="-2.36159">
        <ele>59</ele>
        <time>2019-08-18T10:28:04Z</time>
      </trkpt>
      <trkpt lat="47.27471" lon="-2.36148">
        <ele>60</ele>
        <time>2019-08-18T10:28:05Z</time>
      </trkpt>
      <trkpt lat="47.27468" lon="-2.36137">
        <ele>59</ele>
        <time>2019-08-18T10:28:06Z</time>
      </trkpt>
      <trkpt lat="47.27466" lon="-2.36127">
        <ele>59</ele>
        <time>2019-08-18T10:28:07Z</time>
      </trkpt>
      <trkpt lat="47.27463" lon="-2.36117">
        <ele>59</ele>
        <time>2019-08-18T10:28:08Z</time>
      </trkpt>
      <trkpt lat="47.27459" lon="-2.36107">
        <ele>59</ele>
        <time>2019-08-18T10:28:09Z</time>
      </trkpt>
      <trkpt lat="47.27454" lon="-2.36099">
        <ele>58</ele>
        <time>2019-08-18T10:28:10Z</time>
      </trkpt>
      <trkpt lat="47.27449" lon="-2.36091">
        <ele>58</ele>
        <time>2019-08-18T10:28:11Z</time>
      </trkpt>
      <trkpt lat="47.27447" lon="-2.36084">
        <ele>58</ele>
        <time>2019-08-18T10:28:12Z</time>
      </trkpt>
      <trkpt lat="47.27447" lon="-2.36077">
        <ele>57</ele>
        <time>2019-08-18T10:28:13Z</time>
      </trkpt>
      <trkpt lat="47.27448" lon="-2.3607">
        <ele>57</ele>
        <time>2019-08-18T10:28:14Z</time>
      </trkpt>
      <trkpt lat="47.27445" lon="-2.36059">
        <ele>57</ele>
        <time>2019-08-18T10:28:16Z</time>
      </trkpt>
      <trkpt lat="47.27443" lon="-2.36052">
        <ele>57</ele>
        <time>2019-08-18T10:28:17Z</time>
      </trkpt>
      <trkpt lat="47.27437" lon="-2.36039">
        <ele>57</ele>
        <time>2019-08-18T10:28:19Z</time>
      </trkpt>
      <trkpt lat="47.27434" lon="-2.36032">
        <ele>58</ele>
        <time>2019-08-18T10:28:20Z</time>
      </trkpt>
      <trkpt lat="47.27431" lon="-2.36024">
        <ele>57</ele>
        <time>2019-08-18T10:28:21Z</time>
      </trkpt>
      <trkpt lat="47.27427" lon="-2.36017">
        <ele>57</ele>
        <time>2019-08-18T10:28:22Z</time>
      </trkpt>
      <trkpt lat="47.27424" lon="-2.36009">
        <ele>57</ele>
        <time>2019-08-18T10:28:23Z</time>
      </trkpt>
      <trkpt lat="47.2742" lon="-2.36001">
        <ele>57</ele>
        <time>2019-08-18T10:28:24Z</time>
      </trkpt>
      <trkpt lat="47.27416" lon="-2.35993">
        <ele>57</ele>
        <time>2019-08-18T10:28:25Z</time>
      </trkpt>
      <trkpt lat="47.27413" lon="-2.35984">
        <ele>57</ele>
        <time>2019-08-18T10:28:26Z</time>
      </trkpt>
      <trkpt lat="47.2741" lon="-2.35974">
        <ele>56</ele>
        <time>2019-08-18T10:28:27Z</time>
      </trkpt>
      <trkpt lat="47.27407" lon="-2.35966">
        <ele>56</ele>
        <time>2019-08-18T10:28:28Z</time>
      </trkpt>
      <trkpt lat="47.27403" lon="-2.35957">
        <ele>56</ele>
        <time>2019-08-18T10:28:29Z</time>
      </trkpt>
      <trkpt lat="47.27401" lon="-2.35948">
        <ele>57</ele>
        <time>2019-08-18T10:28:30Z</time>
      </trkpt>
      <trkpt lat="47.27398" lon="-2.35939">
        <ele>57</ele>
        <time>2019-08-18T10:28:31Z</time>
      </trkpt>
      <trkpt lat="47.27392" lon="-2.35922">
        <ele>57</ele>
        <time>2019-08-18T10:28:33Z</time>
      </trkpt>
      <trkpt lat="47.27388" lon="-2.35915">
        <ele>57</ele>
        <time>2019-08-18T10:28:34Z</time>
      </trkpt>
      <trkpt lat="47.27381" lon="-2.35899">
        <ele>57</ele>
        <time>2019-08-18T10:28:36Z</time>
      </trkpt>
      <trkpt lat="47.27377" lon="-2.35891">
        <ele>57</ele>
        <time>2019-08-18T10:28:37Z</time>
      </trkpt>
      <trkpt lat="47.27373" lon="-2.35883">
        <ele>57</ele>
        <time>2019-08-18T10:28:38Z</time>
      </trkpt>
      <trkpt lat="47.2737" lon="-2.35874">
        <ele>57</ele>
        <time>2019-08-18T10:28:39Z</time>
      </trkpt>
      <trkpt lat="47.27364" lon="-2.35857">
        <ele>56</ele>
        <time>2019-08-18T10:28:41Z</time>
      </trkpt>
      <trkpt lat="47.27354" lon="-2.35831">
        <ele>56</ele>
        <time>2019-08-18T10:28:44Z</time>
      </trkpt>
      <trkpt lat="47.2735" lon="-2.35822">
        <ele>57</ele>
        <time>2019-08-18T10:28:45Z</time>
      </trkpt>
      <trkpt lat="47.27347" lon="-2.35813">
        <ele>57</ele>
        <time>2019-08-18T10:28:46Z</time>
      </trkpt>
      <trkpt lat="47.27344" lon="-2.35805">
        <ele>56</ele>
        <time>2019-08-18T10:28:47Z</time>
      </trkpt>
      <trkpt lat="47.2734" lon="-2.35796">
        <ele>56</ele>
        <time>2019-08-18T10:28:48Z</time>
      </trkpt>
      <trkpt lat="47.27337" lon="-2.35787">
        <ele>56</ele>
        <time>2019-08-18T10:28:49Z</time>
      </trkpt>
      <trkpt lat="47.27334" lon="-2.35779">
        <ele>56</ele>
        <time>2019-08-18T10:28:50Z</time>
      </trkpt>
      <trkpt lat="47.27331" lon="-2.3577">
        <ele>55</ele>
        <time>2019-08-18T10:28:51Z</time>
      </trkpt>
      <trkpt lat="47.27328" lon="-2.35761">
        <ele>55</ele>
        <time>2019-08-18T10:28:52Z</time>
      </trkpt>
      <trkpt lat="47.27325" lon="-2.35753">
        <ele>55</ele>
        <time>2019-08-18T10:28:53Z</time>
      </trkpt>
      <trkpt lat="47.27317" lon="-2.35743">
        <ele>55</ele>
        <time>2019-08-18T10:28:55Z</time>
      </trkpt>
      <trkpt lat="47.27312" lon="-2.35742">
        <ele>56</ele>
        <time>2019-08-18T10:28:56Z</time>
      </trkpt>
      <trkpt lat="47.27307" lon="-2.35735">
        <ele>57</ele>
        <time>2019-08-18T10:28:58Z</time>
      </trkpt>
      <trkpt lat="47.27307" lon="-2.35728">
        <ele>57</ele>
        <time>2019-08-18T10:28:59Z</time>
      </trkpt>
      <trkpt lat="47.27307" lon="-2.35715">
        <ele>58</ele>
        <time>2019-08-18T10:29:01Z</time>
      </trkpt>
      <trkpt lat="47.27304" lon="-2.35703">
        <ele>57</ele>
        <time>2019-08-18T10:29:03Z</time>
      </trkpt>
      <trkpt lat="47.27302" lon="-2.35697">
        <ele>57</ele>
        <time>2019-08-18T10:29:04Z</time>
      </trkpt>
      <trkpt lat="47.27298" lon="-2.35691">
        <ele>58</ele>
        <time>2019-08-18T10:29:05Z</time>
      </trkpt>
      <trkpt lat="47.27295" lon="-2.35684">
        <ele>58</ele>
        <time>2019-08-18T10:29:06Z</time>
      </trkpt>
      <trkpt lat="47.27288" lon="-2.3567">
        <ele>58</ele>
        <time>2019-08-18T10:29:08Z</time>
      </trkpt>
      <trkpt lat="47.27285" lon="-2.35662">
        <ele>58</ele>
        <time>2019-08-18T10:29:09Z</time>
      </trkpt>
      <trkpt lat="47.27282" lon="-2.35655">
        <ele>58</ele>
        <time>2019-08-18T10:29:10Z</time>
      </trkpt>
      <trkpt lat="47.27278" lon="-2.35647">
        <ele>58</ele>
        <time>2019-08-18T10:29:11Z</time>
      </trkpt>
      <trkpt lat="47.27275" lon="-2.35639">
        <ele>58</ele>
        <time>2019-08-18T10:29:12Z</time>
      </trkpt>
      <trkpt lat="47.27271" lon="-2.35631">
        <ele>58</ele>
        <time>2019-08-18T10:29:13Z</time>
      </trkpt>
      <trkpt lat="47.27267" lon="-2.35623">
        <ele>58</ele>
        <time>2019-08-18T10:29:14Z</time>
      </trkpt>
      <trkpt lat="47.27263" lon="-2.35615">
        <ele>58</ele>
        <time>2019-08-18T10:29:15Z</time>
      </trkpt>
      <trkpt lat="47.27259" lon="-2.35607">
        <ele>58</ele>
        <time>2019-08-18T10:29:16Z</time>
      </trkpt>
      <trkpt lat="47.27255" lon="-2.35599">
        <ele>58</ele>
        <time>2019-08-18T10:29:17Z</time>
      </trkpt>
      <trkpt lat="47.27252" lon="-2.35591">
        <ele>58</ele>
        <time>2019-08-18T10:29:18Z</time>
      </trkpt>
      <trkpt lat="47.27248" lon="-2.35583">
        <ele>58</ele>
        <time>2019-08-18T10:29:19Z</time>
      </trkpt>
      <trkpt lat="47.27244" lon="-2.35574">
        <ele>58</ele>
        <time>2019-08-18T10:29:20Z</time>
      </trkpt>
      <trkpt lat="47.27241" lon="-2.35566">
        <ele>58</ele>
        <time>2019-08-18T10:29:21Z</time>
      </trkpt>
      <trkpt lat="47.27237" lon="-2.35558">
        <ele>59</ele>
        <time>2019-08-18T10:29:22Z</time>
      </trkpt>
      <trkpt lat="47.27234" lon="-2.3555">
        <ele>59</ele>
        <time>2019-08-18T10:29:23Z</time>
      </trkpt>
      <trkpt lat="47.27227" lon="-2.35534">
        <ele>59</ele>
        <time>2019-08-18T10:29:25Z</time>
      </trkpt>
      <trkpt lat="47.27223" lon="-2.35526">
        <ele>59</ele>
        <time>2019-08-18T10:29:26Z</time>
      </trkpt>
      <trkpt lat="47.27219" lon="-2.35518">
        <ele>58</ele>
        <time>2019-08-18T10:29:27Z</time>
      </trkpt>
      <trkpt lat="47.27215" lon="-2.3551">
        <ele>58</ele>
        <time>2019-08-18T10:29:28Z</time>
      </trkpt>
      <trkpt lat="47.27211" lon="-2.35502">
        <ele>58</ele>
        <time>2019-08-18T10:29:29Z</time>
      </trkpt>
      <trkpt lat="47.27207" lon="-2.35494">
        <ele>58</ele>
        <time>2019-08-18T10:29:30Z</time>
      </trkpt>
      <trkpt lat="47.27202" lon="-2.35486">
        <ele>57</ele>
        <time>2019-08-18T10:29:31Z</time>
      </trkpt>
      <trkpt lat="47.27198" lon="-2.35479">
        <ele>57</ele>
        <time>2019-08-18T10:29:32Z</time>
      </trkpt>
      <trkpt lat="47.27189" lon="-2.35464">
        <ele>57</ele>
        <time>2019-08-18T10:29:34Z</time>
      </trkpt>
      <trkpt lat="47.27184" lon="-2.35456">
        <ele>57</ele>
        <time>2019-08-18T10:29:35Z</time>
      </trkpt>
      <trkpt lat="47.2718" lon="-2.35448">
        <ele>57</ele>
        <time>2019-08-18T10:29:36Z</time>
      </trkpt>
      <trkpt lat="47.27176" lon="-2.3544">
        <ele>57</ele>
        <time>2019-08-18T10:29:37Z</time>
      </trkpt>
      <trkpt lat="47.27172" lon="-2.35431">
        <ele>57</ele>
        <time>2019-08-18T10:29:38Z</time>
      </trkpt>
      <trkpt lat="47.2716" lon="-2.35407">
        <ele>58</ele>
        <time>2019-08-18T10:29:41Z</time>
      </trkpt>
      <trkpt lat="47.27155" lon="-2.35398">
        <ele>57</ele>
        <time>2019-08-18T10:29:42Z</time>
      </trkpt>
      <trkpt lat="47.2715" lon="-2.3539">
        <ele>57</ele>
        <time>2019-08-18T10:29:43Z</time>
      </trkpt>
      <trkpt lat="47.27145" lon="-2.35382">
        <ele>58</ele>
        <time>2019-08-18T10:29:44Z</time>
      </trkpt>
      <trkpt lat="47.2714" lon="-2.35375">
        <ele>57</ele>
        <time>2019-08-18T10:29:45Z</time>
      </trkpt>
      <trkpt lat="47.27127" lon="-2.35351">
        <ele>57</ele>
        <time>2019-08-18T10:29:48Z</time>
      </trkpt>
      <trkpt lat="47.27122" lon="-2.35343">
        <ele>57</ele>
        <time>2019-08-18T10:29:49Z</time>
      </trkpt>
      <trkpt lat="47.27117" lon="-2.35336">
        <ele>57</ele>
        <time>2019-08-18T10:29:50Z</time>
      </trkpt>
      <trkpt lat="47.27111" lon="-2.35329">
        <ele>57</ele>
        <time>2019-08-18T10:29:51Z</time>
      </trkpt>
      <trkpt lat="47.27107" lon="-2.35321">
        <ele>57</ele>
        <time>2019-08-18T10:29:52Z</time>
      </trkpt>
      <trkpt lat="47.27101" lon="-2.35313">
        <ele>57</ele>
        <time>2019-08-18T10:29:53Z</time>
      </trkpt>
      <trkpt lat="47.27096" lon="-2.35306">
        <ele>58</ele>
        <time>2019-08-18T10:29:54Z</time>
      </trkpt>
      <trkpt lat="47.27091" lon="-2.35298">
        <ele>58</ele>
        <time>2019-08-18T10:29:55Z</time>
      </trkpt>
      <trkpt lat="47.27077" lon="-2.35274">
        <ele>57</ele>
        <time>2019-08-18T10:29:58Z</time>
      </trkpt>
      <trkpt lat="47.27072" lon="-2.35267">
        <ele>57</ele>
        <time>2019-08-18T10:29:59Z</time>
      </trkpt>
      <trkpt lat="47.27067" lon="-2.35259">
        <ele>57</ele>
        <time>2019-08-18T10:30:00Z</time>
      </trkpt>
      <trkpt lat="47.27063" lon="-2.35251">
        <ele>57</ele>
        <time>2019-08-18T10:30:01Z</time>
      </trkpt>
      <trkpt lat="47.27053" lon="-2.35236">
        <ele>57</ele>
        <time>2019-08-18T10:30:03Z</time>
      </trkpt>
      <trkpt lat="47.27047" lon="-2.35228">
        <ele>57</ele>
        <time>2019-08-18T10:30:04Z</time>
      </trkpt>
      <trkpt lat="47.27036" lon="-2.35212">
        <ele>57</ele>
        <time>2019-08-18T10:30:06Z</time>
      </trkpt>
      <trkpt lat="47.27031" lon="-2.35204">
        <ele>58</ele>
        <time>2019-08-18T10:30:07Z</time>
      </trkpt>
      <trkpt lat="47.27015" lon="-2.35179">
        <ele>58</ele>
        <time>2019-08-18T10:30:10Z</time>
      </trkpt>
      <trkpt lat="47.2701" lon="-2.35171">
        <ele>58</ele>
        <time>2019-08-18T10:30:11Z</time>
      </trkpt>
      <trkpt lat="47.27005" lon="-2.35162">
        <ele>58</ele>
        <time>2019-08-18T10:30:12Z</time>
      </trkpt>
      <trkpt lat="47.27" lon="-2.35153">
        <ele>58</ele>
        <time>2019-08-18T10:30:13Z</time>
      </trkpt>
      <trkpt lat="47.26995" lon="-2.35146">
        <ele>58</ele>
        <time>2019-08-18T10:30:14Z</time>
      </trkpt>
      <trkpt lat="47.26989" lon="-2.35138">
        <ele>58</ele>
        <time>2019-08-18T10:30:15Z</time>
      </trkpt>
      <trkpt lat="47.26984" lon="-2.3513">
        <ele>58</ele>
        <time>2019-08-18T10:30:16Z</time>
      </trkpt>
      <trkpt lat="47.26978" lon="-2.35122">
        <ele>58</ele>
        <time>2019-08-18T10:30:17Z</time>
      </trkpt>
      <trkpt lat="47.26972" lon="-2.35114">
        <ele>58</ele>
        <time>2019-08-18T10:30:18Z</time>
      </trkpt>
      <trkpt lat="47.26967" lon="-2.35106">
        <ele>58</ele>
        <time>2019-08-18T10:30:19Z</time>
      </trkpt>
      <trkpt lat="47.26962" lon="-2.35098">
        <ele>58</ele>
        <time>2019-08-18T10:30:20Z</time>
      </trkpt>
      <trkpt lat="47.26957" lon="-2.3509">
        <ele>58</ele>
        <time>2019-08-18T10:30:21Z</time>
      </trkpt>
      <trkpt lat="47.26952" lon="-2.35081">
        <ele>58</ele>
        <time>2019-08-18T10:30:22Z</time>
      </trkpt>
      <trkpt lat="47.26934" lon="-2.35057">
        <ele>57</ele>
        <time>2019-08-18T10:30:25Z</time>
      </trkpt>
      <trkpt lat="47.26929" lon="-2.35049">
        <ele>57</ele>
        <time>2019-08-18T10:30:26Z</time>
      </trkpt>
      <trkpt lat="47.26924" lon="-2.35041">
        <ele>57</ele>
        <time>2019-08-18T10:30:27Z</time>
      </trkpt>
      <trkpt lat="47.26919" lon="-2.35033">
        <ele>56</ele>
        <time>2019-08-18T10:30:28Z</time>
      </trkpt>
      <trkpt lat="47.26914" lon="-2.35025">
        <ele>56</ele>
        <time>2019-08-18T10:30:29Z</time>
      </trkpt>
      <trkpt lat="47.26909" lon="-2.35017">
        <ele>56</ele>
        <time>2019-08-18T10:30:30Z</time>
      </trkpt>
      <trkpt lat="47.26905" lon="-2.35009">
        <ele>55</ele>
        <time>2019-08-18T10:30:31Z</time>
      </trkpt>
      <trkpt lat="47.2689" lon="-2.34985">
        <ele>56</ele>
        <time>2019-08-18T10:30:34Z</time>
      </trkpt>
      <trkpt lat="47.26875" lon="-2.34963">
        <ele>56</ele>
        <time>2019-08-18T10:30:37Z</time>
      </trkpt>
      <trkpt lat="47.26862" lon="-2.3495">
        <ele>56</ele>
        <time>2019-08-18T10:30:39Z</time>
      </trkpt>
      <trkpt lat="47.26856" lon="-2.34944">
        <ele>55</ele>
        <time>2019-08-18T10:30:40Z</time>
      </trkpt>
      <trkpt lat="47.26851" lon="-2.34936">
        <ele>55</ele>
        <time>2019-08-18T10:30:41Z</time>
      </trkpt>
      <trkpt lat="47.26846" lon="-2.34928">
        <ele>56</ele>
        <time>2019-08-18T10:30:42Z</time>
      </trkpt>
      <trkpt lat="47.26841" lon="-2.34921">
        <ele>55</ele>
        <time>2019-08-18T10:30:43Z</time>
      </trkpt>
      <trkpt lat="47.26836" lon="-2.34913">
        <ele>56</ele>
        <time>2019-08-18T10:30:44Z</time>
      </trkpt>
      <trkpt lat="47.26826" lon="-2.34898">
        <ele>55</ele>
        <time>2019-08-18T10:30:46Z</time>
      </trkpt>
      <trkpt lat="47.26821" lon="-2.34889">
        <ele>55</ele>
        <time>2019-08-18T10:30:47Z</time>
      </trkpt>
      <trkpt lat="47.26817" lon="-2.34881">
        <ele>55</ele>
        <time>2019-08-18T10:30:48Z</time>
      </trkpt>
      <trkpt lat="47.26812" lon="-2.34873">
        <ele>55</ele>
        <time>2019-08-18T10:30:49Z</time>
      </trkpt>
      <trkpt lat="47.26808" lon="-2.34866">
        <ele>55</ele>
        <time>2019-08-18T10:30:50Z</time>
      </trkpt>
      <trkpt lat="47.26803" lon="-2.34859">
        <ele>55</ele>
        <time>2019-08-18T10:30:51Z</time>
      </trkpt>
      <trkpt lat="47.26797" lon="-2.34851">
        <ele>55</ele>
        <time>2019-08-18T10:30:52Z</time>
      </trkpt>
      <trkpt lat="47.26792" lon="-2.34844">
        <ele>55</ele>
        <time>2019-08-18T10:30:53Z</time>
      </trkpt>
      <trkpt lat="47.26788" lon="-2.34837">
        <ele>55</ele>
        <time>2019-08-18T10:30:54Z</time>
      </trkpt>
      <trkpt lat="47.26783" lon="-2.3483">
        <ele>55</ele>
        <time>2019-08-18T10:30:55Z</time>
      </trkpt>
      <trkpt lat="47.26777" lon="-2.34822">
        <ele>55</ele>
        <time>2019-08-18T10:30:56Z</time>
      </trkpt>
      <trkpt lat="47.26773" lon="-2.34817">
        <ele>55</ele>
        <time>2019-08-18T10:30:57Z</time>
      </trkpt>
      <trkpt lat="47.26769" lon="-2.34813">
        <ele>55</ele>
        <time>2019-08-18T10:30:58Z</time>
      </trkpt>
      <trkpt lat="47.26765" lon="-2.3481">
        <ele>55</ele>
        <time>2019-08-18T10:30:59Z</time>
      </trkpt>
      <trkpt lat="47.2676" lon="-2.34802">
        <ele>55</ele>
        <time>2019-08-18T10:31:01Z</time>
      </trkpt>
      <trkpt lat="47.26755" lon="-2.34795">
        <ele>55</ele>
        <time>2019-08-18T10:31:03Z</time>
      </trkpt>
      <trkpt lat="47.26752" lon="-2.34791">
        <ele>56</ele>
        <time>2019-08-18T10:31:04Z</time>
      </trkpt>
      <trkpt lat="47.26748" lon="-2.34787">
        <ele>55</ele>
        <time>2019-08-18T10:31:05Z</time>
      </trkpt>
      <trkpt lat="47.26742" lon="-2.34777">
        <ele>56</ele>
        <time>2019-08-18T10:31:07Z</time>
      </trkpt>
      <trkpt lat="47.26739" lon="-2.3477">
        <ele>55</ele>
        <time>2019-08-18T10:31:08Z</time>
      </trkpt>
      <trkpt lat="47.26732" lon="-2.3476">
        <ele>55</ele>
        <time>2019-08-18T10:31:10Z</time>
      </trkpt>
      <trkpt lat="47.26727" lon="-2.34755">
        <ele>56</ele>
        <time>2019-08-18T10:31:11Z</time>
      </trkpt>
      <trkpt lat="47.26722" lon="-2.3475">
        <ele>56</ele>
        <time>2019-08-18T10:31:12Z</time>
      </trkpt>
      <trkpt lat="47.26717" lon="-2.34745">
        <ele>56</ele>
        <time>2019-08-18T10:31:13Z</time>
      </trkpt>
      <trkpt lat="47.26713" lon="-2.3474">
        <ele>55</ele>
        <time>2019-08-18T10:31:14Z</time>
      </trkpt>
      <trkpt lat="47.26708" lon="-2.34736">
        <ele>56</ele>
        <time>2019-08-18T10:31:15Z</time>
      </trkpt>
      <trkpt lat="47.26704" lon="-2.34731">
        <ele>56</ele>
        <time>2019-08-18T10:31:16Z</time>
      </trkpt>
      <trkpt lat="47.267" lon="-2.34726">
        <ele>56</ele>
        <time>2019-08-18T10:31:17Z</time>
      </trkpt>
      <trkpt lat="47.26695" lon="-2.34721">
        <ele>56</ele>
        <time>2019-08-18T10:31:18Z</time>
      </trkpt>
      <trkpt lat="47.26691" lon="-2.34717">
        <ele>56</ele>
        <time>2019-08-18T10:31:19Z</time>
      </trkpt>
      <trkpt lat="47.26687" lon="-2.34712">
        <ele>56</ele>
        <time>2019-08-18T10:31:20Z</time>
      </trkpt>
      <trkpt lat="47.26684" lon="-2.34706">
        <ele>56</ele>
        <time>2019-08-18T10:31:21Z</time>
      </trkpt>
      <trkpt lat="47.26678" lon="-2.34698">
        <ele>57</ele>
        <time>2019-08-18T10:31:23Z</time>
      </trkpt>
      <trkpt lat="47.26668" lon="-2.34688">
        <ele>57</ele>
        <time>2019-08-18T10:31:26Z</time>
      </trkpt>
      <trkpt lat="47.26667" lon="-2.34686">
        <ele>57</ele>
        <time>2019-08-18T10:31:27Z</time>
      </trkpt>
      <trkpt lat="47.26664" lon="-2.34682">
        <ele>57</ele>
        <time>2019-08-18T10:31:29Z</time>
      </trkpt>
      <trkpt lat="47.2666" lon="-2.34678">
        <ele>57</ele>
        <time>2019-08-18T10:31:34Z</time>
      </trkpt>
      <trkpt lat="47.2666" lon="-2.34678">
        <ele>6.3</ele>
        <time>2019-08-18T10:31:39Z</time>
      </trkpt>
      <trkpt lat="47.2666" lon="-2.34678">
        <ele>6.3</ele>
        <time>2019-08-18T10:31:44Z</time>
      </trkpt>
      <trkpt lat="47.26653" lon="-2.34669">
        <ele>57</ele>
        <time>2019-08-18T10:31:44Z</time>
      </trkpt>
      <trkpt lat="47.26643" lon="-2.34659">
        <ele>62</ele>
        <time>2019-08-18T10:31:50Z</time>
      </trkpt>
      <trkpt lat="47.2664" lon="-2.34654">
        <ele>57</ele>
        <time>2019-08-18T10:31:53Z</time>
      </trkpt>
      <trkpt lat="47.26635" lon="-2.34649">
        <ele>54</ele>
        <time>2019-08-18T10:31:58Z</time>
      </trkpt>
      <trkpt lat="47.26631" lon="-2.34644">
        <ele>54</ele>
        <time>2019-08-18T10:32:03Z</time>
      </trkpt>
      <trkpt lat="47.26627" lon="-2.34638">
        <ele>56</ele>
        <time>2019-08-18T10:32:06Z</time>
      </trkpt>
      <trkpt lat="47.26624" lon="-2.34631">
        <ele>57</ele>
        <time>2019-08-18T10:32:08Z</time>
      </trkpt>
      <trkpt lat="47.26618" lon="-2.34624">
        <ele>57</ele>
        <time>2019-08-18T10:32:10Z</time>
      </trkpt>
      <trkpt lat="47.26615" lon="-2.3462">
        <ele>59</ele>
        <time>2019-08-18T10:32:11Z</time>
      </trkpt>
      <trkpt lat="47.26603" lon="-2.34608">
        <ele>59</ele>
        <time>2019-08-18T10:32:14Z</time>
      </trkpt>
      <trkpt lat="47.26595" lon="-2.34598">
        <ele>59</ele>
        <time>2019-08-18T10:32:16Z</time>
      </trkpt>
      <trkpt lat="47.26591" lon="-2.34592">
        <ele>59</ele>
        <time>2019-08-18T10:32:17Z</time>
      </trkpt>
      <trkpt lat="47.26582" lon="-2.34583">
        <ele>59</ele>
        <time>2019-08-18T10:32:19Z</time>
      </trkpt>
      <trkpt lat="47.26577" lon="-2.34579">
        <ele>59</ele>
        <time>2019-08-18T10:32:20Z</time>
      </trkpt>
      <trkpt lat="47.26568" lon="-2.34569">
        <ele>59</ele>
        <time>2019-08-18T10:32:22Z</time>
      </trkpt>
      <trkpt lat="47.26554" lon="-2.34553">
        <ele>59</ele>
        <time>2019-08-18T10:32:25Z</time>
      </trkpt>
      <trkpt lat="47.26549" lon="-2.34549">
        <ele>59</ele>
        <time>2019-08-18T10:32:26Z</time>
      </trkpt>
      <trkpt lat="47.2654" lon="-2.3454">
        <ele>59</ele>
        <time>2019-08-18T10:32:28Z</time>
      </trkpt>
      <trkpt lat="47.26536" lon="-2.34536">
        <ele>58</ele>
        <time>2019-08-18T10:32:29Z</time>
      </trkpt>
      <trkpt lat="47.26531" lon="-2.34532">
        <ele>58</ele>
        <time>2019-08-18T10:32:30Z</time>
      </trkpt>
      <trkpt lat="47.26516" lon="-2.34519">
        <ele>57</ele>
        <time>2019-08-18T10:32:33Z</time>
      </trkpt>
      <trkpt lat="47.2651" lon="-2.34515">
        <ele>57</ele>
        <time>2019-08-18T10:32:34Z</time>
      </trkpt>
      <trkpt lat="47.26505" lon="-2.34512">
        <ele>57</ele>
        <time>2019-08-18T10:32:35Z</time>
      </trkpt>
      <trkpt lat="47.26499" lon="-2.34508">
        <ele>57</ele>
        <time>2019-08-18T10:32:36Z</time>
      </trkpt>
      <trkpt lat="47.26494" lon="-2.34504">
        <ele>57</ele>
        <time>2019-08-18T10:32:37Z</time>
      </trkpt>
      <trkpt lat="47.26488" lon="-2.345">
        <ele>57</ele>
        <time>2019-08-18T10:32:38Z</time>
      </trkpt>
      <trkpt lat="47.26483" lon="-2.34496">
        <ele>57</ele>
        <time>2019-08-18T10:32:39Z</time>
      </trkpt>
      <trkpt lat="47.26477" lon="-2.34491">
        <ele>57</ele>
        <time>2019-08-18T10:32:40Z</time>
      </trkpt>
      <trkpt lat="47.26472" lon="-2.34487">
        <ele>57</ele>
        <time>2019-08-18T10:32:41Z</time>
      </trkpt>
      <trkpt lat="47.26466" lon="-2.34483">
        <ele>56</ele>
        <time>2019-08-18T10:32:42Z</time>
      </trkpt>
      <trkpt lat="47.2645" lon="-2.34469">
        <ele>56</ele>
        <time>2019-08-18T10:32:45Z</time>
      </trkpt>
      <trkpt lat="47.26444" lon="-2.34464">
        <ele>56</ele>
        <time>2019-08-18T10:32:46Z</time>
      </trkpt>
      <trkpt lat="47.26438" lon="-2.34461">
        <ele>55</ele>
        <time>2019-08-18T10:32:47Z</time>
      </trkpt>
      <trkpt lat="47.26432" lon="-2.34456">
        <ele>55</ele>
        <time>2019-08-18T10:32:48Z</time>
      </trkpt>
      <trkpt lat="47.26426" lon="-2.34452">
        <ele>55</ele>
        <time>2019-08-18T10:32:49Z</time>
      </trkpt>
      <trkpt lat="47.26419" lon="-2.34448">
        <ele>55</ele>
        <time>2019-08-18T10:32:50Z</time>
      </trkpt>
      <trkpt lat="47.26413" lon="-2.34443">
        <ele>55</ele>
        <time>2019-08-18T10:32:51Z</time>
      </trkpt>
      <trkpt lat="47.26401" lon="-2.34435">
        <ele>55</ele>
        <time>2019-08-18T10:32:53Z</time>
      </trkpt>
      <trkpt lat="47.26377" lon="-2.34417">
        <ele>56</ele>
        <time>2019-08-18T10:32:57Z</time>
      </trkpt>
      <trkpt lat="47.26371" lon="-2.34412">
        <ele>56</ele>
        <time>2019-08-18T10:32:58Z</time>
      </trkpt>
      <trkpt lat="47.26356" lon="-2.34395">
        <ele>56</ele>
        <time>2019-08-18T10:33:01Z</time>
      </trkpt>
      <trkpt lat="47.26351" lon="-2.3439">
        <ele>56</ele>
        <time>2019-08-18T10:33:02Z</time>
      </trkpt>
      <trkpt lat="47.26346" lon="-2.34386">
        <ele>56</ele>
        <time>2019-08-18T10:33:03Z</time>
      </trkpt>
      <trkpt lat="47.2634" lon="-2.34382">
        <ele>57</ele>
        <time>2019-08-18T10:33:04Z</time>
      </trkpt>
      <trkpt lat="47.26333" lon="-2.3438">
        <ele>56</ele>
        <time>2019-08-18T10:33:05Z</time>
      </trkpt>
      <trkpt lat="47.26328" lon="-2.34378">
        <ele>56</ele>
        <time>2019-08-18T10:33:06Z</time>
      </trkpt>
      <trkpt lat="47.2632" lon="-2.3437">
        <ele>56</ele>
        <time>2019-08-18T10:33:08Z</time>
      </trkpt>
      <trkpt lat="47.26317" lon="-2.34364">
        <ele>56</ele>
        <time>2019-08-18T10:33:09Z</time>
      </trkpt>
      <trkpt lat="47.26314" lon="-2.34358">
        <ele>55</ele>
        <time>2019-08-18T10:33:10Z</time>
      </trkpt>
      <trkpt lat="47.2631" lon="-2.34353">
        <ele>56</ele>
        <time>2019-08-18T10:33:11Z</time>
      </trkpt>
      <trkpt lat="47.26304" lon="-2.34347">
        <ele>55</ele>
        <time>2019-08-18T10:33:12Z</time>
      </trkpt>
      <trkpt lat="47.26299" lon="-2.34342">
        <ele>55</ele>
        <time>2019-08-18T10:33:13Z</time>
      </trkpt>
      <trkpt lat="47.26294" lon="-2.34335">
        <ele>55</ele>
        <time>2019-08-18T10:33:14Z</time>
      </trkpt>
      <trkpt lat="47.26289" lon="-2.34329">
        <ele>55</ele>
        <time>2019-08-18T10:33:15Z</time>
      </trkpt>
      <trkpt lat="47.26284" lon="-2.34322">
        <ele>56</ele>
        <time>2019-08-18T10:33:16Z</time>
      </trkpt>
      <trkpt lat="47.26278" lon="-2.34316">
        <ele>55</ele>
        <time>2019-08-18T10:33:17Z</time>
      </trkpt>
      <trkpt lat="47.26272" lon="-2.3431">
        <ele>55</ele>
        <time>2019-08-18T10:33:18Z</time>
      </trkpt>
      <trkpt lat="47.26267" lon="-2.34303">
        <ele>55</ele>
        <time>2019-08-18T10:33:19Z</time>
      </trkpt>
      <trkpt lat="47.26261" lon="-2.34297">
        <ele>55</ele>
        <time>2019-08-18T10:33:20Z</time>
      </trkpt>
      <trkpt lat="47.26255" lon="-2.34291">
        <ele>55</ele>
        <time>2019-08-18T10:33:21Z</time>
      </trkpt>
      <trkpt lat="47.26249" lon="-2.34286">
        <ele>55</ele>
        <time>2019-08-18T10:33:22Z</time>
      </trkpt>
      <trkpt lat="47.26243" lon="-2.34281">
        <ele>55</ele>
        <time>2019-08-18T10:33:23Z</time>
      </trkpt>
      <trkpt lat="47.26237" lon="-2.34275">
        <ele>55</ele>
        <time>2019-08-18T10:33:24Z</time>
      </trkpt>
      <trkpt lat="47.26231" lon="-2.34269">
        <ele>55</ele>
        <time>2019-08-18T10:33:25Z</time>
      </trkpt>
      <trkpt lat="47.26225" lon="-2.34263">
        <ele>56</ele>
        <time>2019-08-18T10:33:26Z</time>
      </trkpt>
      <trkpt lat="47.26219" lon="-2.34257">
        <ele>55</ele>
        <time>2019-08-18T10:33:27Z</time>
      </trkpt>
      <trkpt lat="47.26209" lon="-2.34245">
        <ele>55</ele>
        <time>2019-08-18T10:33:29Z</time>
      </trkpt>
      <trkpt lat="47.26203" lon="-2.3424">
        <ele>55</ele>
        <time>2019-08-18T10:33:30Z</time>
      </trkpt>
      <trkpt lat="47.26197" lon="-2.34234">
        <ele>55</ele>
        <time>2019-08-18T10:33:31Z</time>
      </trkpt>
      <trkpt lat="47.26181" lon="-2.34217">
        <ele>53</ele>
        <time>2019-08-18T10:33:34Z</time>
      </trkpt>
      <trkpt lat="47.26175" lon="-2.34212">
        <ele>53</ele>
        <time>2019-08-18T10:33:35Z</time>
      </trkpt>
      <trkpt lat="47.26165" lon="-2.34202">
        <ele>52</ele>
        <time>2019-08-18T10:33:37Z</time>
      </trkpt>
      <trkpt lat="47.26155" lon="-2.34192">
        <ele>52</ele>
        <time>2019-08-18T10:33:39Z</time>
      </trkpt>
      <trkpt lat="47.2615" lon="-2.34188">
        <ele>53</ele>
        <time>2019-08-18T10:33:40Z</time>
      </trkpt>
      <trkpt lat="47.26133" lon="-2.3418">
        <ele>53</ele>
        <time>2019-08-18T10:33:43Z</time>
      </trkpt>
      <trkpt lat="47.26129" lon="-2.34174">
        <ele>53</ele>
        <time>2019-08-18T10:33:44Z</time>
      </trkpt>
      <trkpt lat="47.26124" lon="-2.34169">
        <ele>53</ele>
        <time>2019-08-18T10:33:45Z</time>
      </trkpt>
      <trkpt lat="47.2612" lon="-2.34164">
        <ele>53</ele>
        <time>2019-08-18T10:33:46Z</time>
      </trkpt>
      <trkpt lat="47.26109" lon="-2.34157">
        <ele>53</ele>
        <time>2019-08-18T10:33:48Z</time>
      </trkpt>
      <trkpt lat="47.26104" lon="-2.34154">
        <ele>54</ele>
        <time>2019-08-18T10:33:49Z</time>
      </trkpt>
      <trkpt lat="47.26098" lon="-2.34151">
        <ele>54</ele>
        <time>2019-08-18T10:33:50Z</time>
      </trkpt>
      <trkpt lat="47.26087" lon="-2.34145">
        <ele>55</ele>
        <time>2019-08-18T10:33:52Z</time>
      </trkpt>
      <trkpt lat="47.26077" lon="-2.34139">
        <ele>55</ele>
        <time>2019-08-18T10:33:54Z</time>
      </trkpt>
      <trkpt lat="47.26071" lon="-2.34137">
        <ele>55</ele>
        <time>2019-08-18T10:33:55Z</time>
      </trkpt>
      <trkpt lat="47.26066" lon="-2.34134">
        <ele>55</ele>
        <time>2019-08-18T10:33:56Z</time>
      </trkpt>
      <trkpt lat="47.26061" lon="-2.34131">
        <ele>55</ele>
        <time>2019-08-18T10:33:57Z</time>
      </trkpt>
      <trkpt lat="47.26056" lon="-2.34129">
        <ele>55</ele>
        <time>2019-08-18T10:33:58Z</time>
      </trkpt>
      <trkpt lat="47.26046" lon="-2.34125">
        <ele>55</ele>
        <time>2019-08-18T10:34:00Z</time>
      </trkpt>
      <trkpt lat="47.26041" lon="-2.34123">
        <ele>54</ele>
        <time>2019-08-18T10:34:01Z</time>
      </trkpt>
      <trkpt lat="47.26032" lon="-2.34119">
        <ele>55</ele>
        <time>2019-08-18T10:34:03Z</time>
      </trkpt>
      <trkpt lat="47.26028" lon="-2.34117">
        <ele>55</ele>
        <time>2019-08-18T10:34:04Z</time>
      </trkpt>
      <trkpt lat="47.26023" lon="-2.34115">
        <ele>55</ele>
        <time>2019-08-18T10:34:05Z</time>
      </trkpt>
      <trkpt lat="47.26019" lon="-2.34113">
        <ele>55</ele>
        <time>2019-08-18T10:34:06Z</time>
      </trkpt>
      <trkpt lat="47.26014" lon="-2.3411">
        <ele>55</ele>
        <time>2019-08-18T10:34:07Z</time>
      </trkpt>
      <trkpt lat="47.26011" lon="-2.34108">
        <ele>55</ele>
        <time>2019-08-18T10:34:08Z</time>
      </trkpt>
      <trkpt lat="47.26006" lon="-2.34106">
        <ele>55</ele>
        <time>2019-08-18T10:34:09Z</time>
      </trkpt>
      <trkpt lat="47.26" lon="-2.34101">
        <ele>55</ele>
        <time>2019-08-18T10:34:11Z</time>
      </trkpt>
      <trkpt lat="47.25996" lon="-2.34099">
        <ele>56</ele>
        <time>2019-08-18T10:34:12Z</time>
      </trkpt>
      <trkpt lat="47.25992" lon="-2.34097">
        <ele>56</ele>
        <time>2019-08-18T10:34:13Z</time>
      </trkpt>
      <trkpt lat="47.25981" lon="-2.34091">
        <ele>56</ele>
        <time>2019-08-18T10:34:16Z</time>
      </trkpt>
      <trkpt lat="47.25978" lon="-2.3409">
        <ele>56</ele>
        <time>2019-08-18T10:34:17Z</time>
      </trkpt>
      <trkpt lat="47.25971" lon="-2.34088">
        <ele>56</ele>
        <time>2019-08-18T10:34:19Z</time>
      </trkpt>
      <trkpt lat="47.25968" lon="-2.34087">
        <ele>56</ele>
        <time>2019-08-18T10:34:20Z</time>
      </trkpt>
      <trkpt lat="47.25962" lon="-2.34083">
        <ele>56</ele>
        <time>2019-08-18T10:34:22Z</time>
      </trkpt>
      <trkpt lat="47.25957" lon="-2.34082">
        <ele>56</ele>
        <time>2019-08-18T10:34:25Z</time>
      </trkpt>
      <trkpt lat="47.25951" lon="-2.3408">
        <ele>57</ele>
        <time>2019-08-18T10:34:28Z</time>
      </trkpt>
      <trkpt lat="47.25949" lon="-2.3408">
        <ele>57</ele>
        <time>2019-08-18T10:34:29Z</time>
      </trkpt>
      <trkpt lat="47.25944" lon="-2.34078">
        <ele>57</ele>
        <time>2019-08-18T10:34:31Z</time>
      </trkpt>
      <trkpt lat="47.25942" lon="-2.34077">
        <ele>57</ele>
        <time>2019-08-18T10:34:32Z</time>
      </trkpt>
      <trkpt lat="47.25935" lon="-2.34073">
        <ele>57</ele>
        <time>2019-08-18T10:34:35Z</time>
      </trkpt>
      <trkpt lat="47.2593" lon="-2.34071">
        <ele>57</ele>
        <time>2019-08-18T10:34:37Z</time>
      </trkpt>
      <trkpt lat="47.25924" lon="-2.34071">
        <ele>56</ele>
        <time>2019-08-18T10:34:39Z</time>
      </trkpt>
      <trkpt lat="47.25921" lon="-2.34071">
        <ele>56</ele>
        <time>2019-08-18T10:34:40Z</time>
      </trkpt>
      <trkpt lat="47.25918" lon="-2.34071">
        <ele>56</ele>
        <time>2019-08-18T10:34:41Z</time>
      </trkpt>
      <trkpt lat="47.25915" lon="-2.34071">
        <ele>56</ele>
        <time>2019-08-18T10:34:42Z</time>
      </trkpt>
      <trkpt lat="47.2591" lon="-2.34069">
        <ele>56</ele>
        <time>2019-08-18T10:34:44Z</time>
      </trkpt>
      <trkpt lat="47.25903" lon="-2.3406">
        <ele>56</ele>
        <time>2019-08-18T10:34:47Z</time>
      </trkpt>
      <trkpt lat="47.259" lon="-2.34051">
        <ele>55</ele>
        <time>2019-08-18T10:34:49Z</time>
      </trkpt>
      <trkpt lat="47.25899" lon="-2.34038">
        <ele>55</ele>
        <time>2019-08-18T10:34:52Z</time>
      </trkpt>
      <trkpt lat="47.25899" lon="-2.34029">
        <ele>55</ele>
        <time>2019-08-18T10:34:56Z</time>
      </trkpt>
      <trkpt lat="47.25903" lon="-2.34024">
        <ele>55</ele>
        <time>2019-08-18T10:35:00Z</time>
      </trkpt>
      <trkpt lat="47.25906" lon="-2.34018">
        <ele>55</ele>
        <time>2019-08-18T10:35:03Z</time>
      </trkpt>
      <trkpt lat="47.25908" lon="-2.34005">
        <ele>55</ele>
        <time>2019-08-18T10:35:07Z</time>
      </trkpt>
      <trkpt lat="47.25908" lon="-2.34005">
        <ele>5</ele>
        <time>2019-08-18T10:35:15Z</time>
      </trkpt>
      <trkpt lat="47.25908" lon="-2.34005">
        <ele>5</ele>
        <time>2019-08-18T10:37:49Z</time>
      </trkpt>
      <trkpt lat="47.2591" lon="-2.3399">
        <ele>56</ele>
        <time>2019-08-18T10:37:49Z</time>
      </trkpt>
      <trkpt lat="47.25923" lon="-2.33961">
        <ele>55</ele>
        <time>2019-08-18T10:37:55Z</time>
      </trkpt>
      <trkpt lat="47.25929" lon="-2.33947">
        <ele>52</ele>
        <time>2019-08-18T10:37:57Z</time>
      </trkpt>
      <trkpt lat="47.25931" lon="-2.33942">
        <ele>52</ele>
        <time>2019-08-18T10:37:58Z</time>
      </trkpt>
      <trkpt lat="47.25938" lon="-2.33932">
        <ele>53</ele>
        <time>2019-08-18T10:38:00Z</time>
      </trkpt>
      <trkpt lat="47.25943" lon="-2.33925">
        <ele>53</ele>
        <time>2019-08-18T10:38:02Z</time>
      </trkpt>
      <trkpt lat="47.25945" lon="-2.33918">
        <ele>53</ele>
        <time>2019-08-18T10:38:05Z</time>
      </trkpt>
      <trkpt lat="47.25947" lon="-2.33905">
        <ele>54</ele>
        <time>2019-08-18T10:38:08Z</time>
      </trkpt>
      <trkpt lat="47.25951" lon="-2.33894">
        <ele>54</ele>
        <time>2019-08-18T10:38:10Z</time>
      </trkpt>
      <trkpt lat="47.25953" lon="-2.33889">
        <ele>54</ele>
        <time>2019-08-18T10:38:11Z</time>
      </trkpt>
      <trkpt lat="47.25958" lon="-2.33876">
        <ele>53</ele>
        <time>2019-08-18T10:38:13Z</time>
      </trkpt>
      <trkpt lat="47.2596" lon="-2.33869">
        <ele>53</ele>
        <time>2019-08-18T10:38:14Z</time>
      </trkpt>
      <trkpt lat="47.25963" lon="-2.33856">
        <ele>54</ele>
        <time>2019-08-18T10:38:16Z</time>
      </trkpt>
      <trkpt lat="47.25964" lon="-2.33849">
        <ele>54</ele>
        <time>2019-08-18T10:38:17Z</time>
      </trkpt>
      <trkpt lat="47.25967" lon="-2.33842">
        <ele>54</ele>
        <time>2019-08-18T10:38:18Z</time>
      </trkpt>
      <trkpt lat="47.25973" lon="-2.33828">
        <ele>54</ele>
        <time>2019-08-18T10:38:20Z</time>
      </trkpt>
      <trkpt lat="47.25976" lon="-2.3382">
        <ele>53</ele>
        <time>2019-08-18T10:38:21Z</time>
      </trkpt>
      <trkpt lat="47.25979" lon="-2.33812">
        <ele>53</ele>
        <time>2019-08-18T10:38:22Z</time>
      </trkpt>
      <trkpt lat="47.25981" lon="-2.33804">
        <ele>53</ele>
        <time>2019-08-18T10:38:23Z</time>
      </trkpt>
      <trkpt lat="47.25984" lon="-2.33796">
        <ele>52</ele>
        <time>2019-08-18T10:38:24Z</time>
      </trkpt>
      <trkpt lat="47.25992" lon="-2.33771">
        <ele>53</ele>
        <time>2019-08-18T10:38:27Z</time>
      </trkpt>
      <trkpt lat="47.25995" lon="-2.33763">
        <ele>53</ele>
        <time>2019-08-18T10:38:28Z</time>
      </trkpt>
      <trkpt lat="47.25998" lon="-2.33754">
        <ele>52</ele>
        <time>2019-08-18T10:38:29Z</time>
      </trkpt>
      <trkpt lat="47.26001" lon="-2.33745">
        <ele>52</ele>
        <time>2019-08-18T10:38:30Z</time>
      </trkpt>
      <trkpt lat="47.26004" lon="-2.33736">
        <ele>52</ele>
        <time>2019-08-18T10:38:31Z</time>
      </trkpt>
      <trkpt lat="47.26007" lon="-2.33728">
        <ele>52</ele>
        <time>2019-08-18T10:38:32Z</time>
      </trkpt>
      <trkpt lat="47.26009" lon="-2.33719">
        <ele>52</ele>
        <time>2019-08-18T10:38:33Z</time>
      </trkpt>
      <trkpt lat="47.26017" lon="-2.33693">
        <ele>52</ele>
        <time>2019-08-18T10:38:36Z</time>
      </trkpt>
      <trkpt lat="47.26021" lon="-2.33678">
        <ele>52</ele>
        <time>2019-08-18T10:38:38Z</time>
      </trkpt>
      <trkpt lat="47.26024" lon="-2.33672">
        <ele>52</ele>
        <time>2019-08-18T10:38:39Z</time>
      </trkpt>
      <trkpt lat="47.26033" lon="-2.33668">
        <ele>53</ele>
        <time>2019-08-18T10:38:41Z</time>
      </trkpt>
      <trkpt lat="47.26037" lon="-2.33669">
        <ele>54</ele>
        <time>2019-08-18T10:38:42Z</time>
      </trkpt>
      <trkpt lat="47.26046" lon="-2.33663">
        <ele>54</ele>
        <time>2019-08-18T10:38:44Z</time>
      </trkpt>
      <trkpt lat="47.26051" lon="-2.33649">
        <ele>54</ele>
        <time>2019-08-18T10:38:46Z</time>
      </trkpt>
      <trkpt lat="47.26052" lon="-2.33641">
        <ele>53</ele>
        <time>2019-08-18T10:38:47Z</time>
      </trkpt>
      <trkpt lat="47.26055" lon="-2.33633">
        <ele>53</ele>
        <time>2019-08-18T10:38:48Z</time>
      </trkpt>
      <trkpt lat="47.26057" lon="-2.33626">
        <ele>53</ele>
        <time>2019-08-18T10:38:49Z</time>
      </trkpt>
      <trkpt lat="47.2606" lon="-2.3361">
        <ele>53</ele>
        <time>2019-08-18T10:38:51Z</time>
      </trkpt>
      <trkpt lat="47.26061" lon="-2.33602">
        <ele>53</ele>
        <time>2019-08-18T10:38:52Z</time>
      </trkpt>
      <trkpt lat="47.26062" lon="-2.33594">
        <ele>53</ele>
        <time>2019-08-18T10:38:53Z</time>
      </trkpt>
      <trkpt lat="47.26064" lon="-2.33585">
        <ele>53</ele>
        <time>2019-08-18T10:38:54Z</time>
      </trkpt>
      <trkpt lat="47.26065" lon="-2.33577">
        <ele>53</ele>
        <time>2019-08-18T10:38:55Z</time>
      </trkpt>
      <trkpt lat="47.26067" lon="-2.33569">
        <ele>53</ele>
        <time>2019-08-18T10:38:56Z</time>
      </trkpt>
      <trkpt lat="47.26069" lon="-2.33561">
        <ele>52</ele>
        <time>2019-08-18T10:38:57Z</time>
      </trkpt>
      <trkpt lat="47.26071" lon="-2.33552">
        <ele>52</ele>
        <time>2019-08-18T10:38:58Z</time>
      </trkpt>
      <trkpt lat="47.26072" lon="-2.33544">
        <ele>52</ele>
        <time>2019-08-18T10:38:59Z</time>
      </trkpt>
      <trkpt lat="47.26074" lon="-2.33535">
        <ele>52</ele>
        <time>2019-08-18T10:39:00Z</time>
      </trkpt>
      <trkpt lat="47.26077" lon="-2.33525">
        <ele>51</ele>
        <time>2019-08-18T10:39:01Z</time>
      </trkpt>
      <trkpt lat="47.26079" lon="-2.33517">
        <ele>51</ele>
        <time>2019-08-18T10:39:02Z</time>
      </trkpt>
      <trkpt lat="47.2608" lon="-2.33509">
        <ele>51</ele>
        <time>2019-08-18T10:39:03Z</time>
      </trkpt>
      <trkpt lat="47.26082" lon="-2.33493">
        <ele>51</ele>
        <time>2019-08-18T10:39:05Z</time>
      </trkpt>
      <trkpt lat="47.26083" lon="-2.33485">
        <ele>51</ele>
        <time>2019-08-18T10:39:06Z</time>
      </trkpt>
      <trkpt lat="47.26079" lon="-2.33471">
        <ele>51</ele>
        <time>2019-08-18T10:39:08Z</time>
      </trkpt>
      <trkpt lat="47.26073" lon="-2.33459">
        <ele>51</ele>
        <time>2019-08-18T10:39:10Z</time>
      </trkpt>
      <trkpt lat="47.2607" lon="-2.33452">
        <ele>51</ele>
        <time>2019-08-18T10:39:11Z</time>
      </trkpt>
      <trkpt lat="47.26068" lon="-2.33444">
        <ele>51</ele>
        <time>2019-08-18T10:39:12Z</time>
      </trkpt>
      <trkpt lat="47.26066" lon="-2.33436">
        <ele>50</ele>
        <time>2019-08-18T10:39:13Z</time>
      </trkpt>
      <trkpt lat="47.26066" lon="-2.33429">
        <ele>50</ele>
        <time>2019-08-18T10:39:14Z</time>
      </trkpt>
      <trkpt lat="47.2607" lon="-2.33414">
        <ele>51</ele>
        <time>2019-08-18T10:39:16Z</time>
      </trkpt>
      <trkpt lat="47.26074" lon="-2.33409">
        <ele>51</ele>
        <time>2019-08-18T10:39:17Z</time>
      </trkpt>
      <trkpt lat="47.26078" lon="-2.33403">
        <ele>50</ele>
        <time>2019-08-18T10:39:18Z</time>
      </trkpt>
      <trkpt lat="47.26082" lon="-2.33398">
        <ele>50</ele>
        <time>2019-08-18T10:39:19Z</time>
      </trkpt>
      <trkpt lat="47.26085" lon="-2.33393">
        <ele>50</ele>
        <time>2019-08-18T10:39:20Z</time>
      </trkpt>
      <trkpt lat="47.26083" lon="-2.33373">
        <ele>52</ele>
        <time>2019-08-18T10:39:23Z</time>
      </trkpt>
      <trkpt lat="47.26078" lon="-2.33359">
        <ele>52</ele>
        <time>2019-08-18T10:39:25Z</time>
      </trkpt>
      <trkpt lat="47.26075" lon="-2.33353">
        <ele>52</ele>
        <time>2019-08-18T10:39:26Z</time>
      </trkpt>
      <trkpt lat="47.2607" lon="-2.33338">
        <ele>52</ele>
        <time>2019-08-18T10:39:28Z</time>
      </trkpt>
      <trkpt lat="47.26068" lon="-2.33331">
        <ele>52</ele>
        <time>2019-08-18T10:39:29Z</time>
      </trkpt>
      <trkpt lat="47.26066" lon="-2.33323">
        <ele>52</ele>
        <time>2019-08-18T10:39:30Z</time>
      </trkpt>
      <trkpt lat="47.26061" lon="-2.33308">
        <ele>52</ele>
        <time>2019-08-18T10:39:32Z</time>
      </trkpt>
      <trkpt lat="47.26055" lon="-2.33293">
        <ele>52</ele>
        <time>2019-08-18T10:39:34Z</time>
      </trkpt>
      <trkpt lat="47.26053" lon="-2.33285">
        <ele>52</ele>
        <time>2019-08-18T10:39:35Z</time>
      </trkpt>
      <trkpt lat="47.26045" lon="-2.33262">
        <ele>52</ele>
        <time>2019-08-18T10:39:38Z</time>
      </trkpt>
      <trkpt lat="47.26042" lon="-2.33255">
        <ele>52</ele>
        <time>2019-08-18T10:39:39Z</time>
      </trkpt>
      <trkpt lat="47.26039" lon="-2.33247">
        <ele>52</ele>
        <time>2019-08-18T10:39:40Z</time>
      </trkpt>
      <trkpt lat="47.26036" lon="-2.33238">
        <ele>52</ele>
        <time>2019-08-18T10:39:41Z</time>
      </trkpt>
      <trkpt lat="47.26033" lon="-2.33231">
        <ele>52</ele>
        <time>2019-08-18T10:39:42Z</time>
      </trkpt>
      <trkpt lat="47.2603" lon="-2.33223">
        <ele>52</ele>
        <time>2019-08-18T10:39:43Z</time>
      </trkpt>
      <trkpt lat="47.26028" lon="-2.33215">
        <ele>52</ele>
        <time>2019-08-18T10:39:44Z</time>
      </trkpt>
      <trkpt lat="47.26025" lon="-2.33207">
        <ele>52</ele>
        <time>2019-08-18T10:39:45Z</time>
      </trkpt>
      <trkpt lat="47.2602" lon="-2.33191">
        <ele>53</ele>
        <time>2019-08-18T10:39:47Z</time>
      </trkpt>
      <trkpt lat="47.26013" lon="-2.33176">
        <ele>53</ele>
        <time>2019-08-18T10:39:49Z</time>
      </trkpt>
      <trkpt lat="47.26011" lon="-2.33168">
        <ele>53</ele>
        <time>2019-08-18T10:39:50Z</time>
      </trkpt>
      <trkpt lat="47.26008" lon="-2.33161">
        <ele>53</ele>
        <time>2019-08-18T10:39:51Z</time>
      </trkpt>
      <trkpt lat="47.26005" lon="-2.33153">
        <ele>53</ele>
        <time>2019-08-18T10:39:52Z</time>
      </trkpt>
      <trkpt lat="47.26003" lon="-2.33145">
        <ele>53</ele>
        <time>2019-08-18T10:39:53Z</time>
      </trkpt>
      <trkpt lat="47.26" lon="-2.33138">
        <ele>53</ele>
        <time>2019-08-18T10:39:54Z</time>
      </trkpt>
      <trkpt lat="47.25997" lon="-2.3313">
        <ele>53</ele>
        <time>2019-08-18T10:39:55Z</time>
      </trkpt>
      <trkpt lat="47.25994" lon="-2.33122">
        <ele>53</ele>
        <time>2019-08-18T10:39:56Z</time>
      </trkpt>
      <trkpt lat="47.25992" lon="-2.33114">
        <ele>53</ele>
        <time>2019-08-18T10:39:57Z</time>
      </trkpt>
      <trkpt lat="47.25989" lon="-2.33106">
        <ele>53</ele>
        <time>2019-08-18T10:39:58Z</time>
      </trkpt>
      <trkpt lat="47.25987" lon="-2.33098">
        <ele>53</ele>
        <time>2019-08-18T10:39:59Z</time>
      </trkpt>
      <trkpt lat="47.25984" lon="-2.33091">
        <ele>52</ele>
        <time>2019-08-18T10:40:00Z</time>
      </trkpt>
      <trkpt lat="47.25981" lon="-2.33084">
        <ele>52</ele>
        <time>2019-08-18T10:40:01Z</time>
      </trkpt>
      <trkpt lat="47.25978" lon="-2.33076">
        <ele>52</ele>
        <time>2019-08-18T10:40:02Z</time>
      </trkpt>
      <trkpt lat="47.25975" lon="-2.33069">
        <ele>52</ele>
        <time>2019-08-18T10:40:03Z</time>
      </trkpt>
      <trkpt lat="47.25972" lon="-2.33062">
        <ele>52</ele>
        <time>2019-08-18T10:40:04Z</time>
      </trkpt>
      <trkpt lat="47.25969" lon="-2.33056">
        <ele>52</ele>
        <time>2019-08-18T10:40:05Z</time>
      </trkpt>
      <trkpt lat="47.25966" lon="-2.33048">
        <ele>53</ele>
        <time>2019-08-18T10:40:06Z</time>
      </trkpt>
      <trkpt lat="47.25964" lon="-2.33041">
        <ele>53</ele>
        <time>2019-08-18T10:40:07Z</time>
      </trkpt>
      <trkpt lat="47.25961" lon="-2.33033">
        <ele>53</ele>
        <time>2019-08-18T10:40:08Z</time>
      </trkpt>
      <trkpt lat="47.25959" lon="-2.33024">
        <ele>53</ele>
        <time>2019-08-18T10:40:09Z</time>
      </trkpt>
      <trkpt lat="47.25951" lon="-2.33">
        <ele>53</ele>
        <time>2019-08-18T10:40:12Z</time>
      </trkpt>
      <trkpt lat="47.25948" lon="-2.32992">
        <ele>53</ele>
        <time>2019-08-18T10:40:13Z</time>
      </trkpt>
      <trkpt lat="47.25946" lon="-2.32984">
        <ele>54</ele>
        <time>2019-08-18T10:40:14Z</time>
      </trkpt>
      <trkpt lat="47.2594" lon="-2.32968">
        <ele>54</ele>
        <time>2019-08-18T10:40:16Z</time>
      </trkpt>
      <trkpt lat="47.25936" lon="-2.3296">
        <ele>54</ele>
        <time>2019-08-18T10:40:17Z</time>
      </trkpt>
      <trkpt lat="47.25934" lon="-2.32951">
        <ele>53</ele>
        <time>2019-08-18T10:40:18Z</time>
      </trkpt>
      <trkpt lat="47.25931" lon="-2.32943">
        <ele>53</ele>
        <time>2019-08-18T10:40:19Z</time>
      </trkpt>
      <trkpt lat="47.25928" lon="-2.32934">
        <ele>53</ele>
        <time>2019-08-18T10:40:20Z</time>
      </trkpt>
      <trkpt lat="47.25925" lon="-2.32926">
        <ele>53</ele>
        <time>2019-08-18T10:40:21Z</time>
      </trkpt>
      <trkpt lat="47.25923" lon="-2.32917">
        <ele>53</ele>
        <time>2019-08-18T10:40:22Z</time>
      </trkpt>
      <trkpt lat="47.2592" lon="-2.32909">
        <ele>53</ele>
        <time>2019-08-18T10:40:23Z</time>
      </trkpt>
      <trkpt lat="47.25917" lon="-2.32901">
        <ele>53</ele>
        <time>2019-08-18T10:40:24Z</time>
      </trkpt>
      <trkpt lat="47.25914" lon="-2.32893">
        <ele>53</ele>
        <time>2019-08-18T10:40:25Z</time>
      </trkpt>
      <trkpt lat="47.25911" lon="-2.32885">
        <ele>53</ele>
        <time>2019-08-18T10:40:26Z</time>
      </trkpt>
      <trkpt lat="47.25908" lon="-2.32877">
        <ele>53</ele>
        <time>2019-08-18T10:40:27Z</time>
      </trkpt>
      <trkpt lat="47.25905" lon="-2.32869">
        <ele>53</ele>
        <time>2019-08-18T10:40:28Z</time>
      </trkpt>
      <trkpt lat="47.25902" lon="-2.32861">
        <ele>53</ele>
        <time>2019-08-18T10:40:29Z</time>
      </trkpt>
      <trkpt lat="47.25899" lon="-2.32853">
        <ele>52</ele>
        <time>2019-08-18T10:40:30Z</time>
      </trkpt>
      <trkpt lat="47.25896" lon="-2.32845">
        <ele>53</ele>
        <time>2019-08-18T10:40:31Z</time>
      </trkpt>
      <trkpt lat="47.25893" lon="-2.32837">
        <ele>53</ele>
        <time>2019-08-18T10:40:32Z</time>
      </trkpt>
      <trkpt lat="47.2589" lon="-2.32829">
        <ele>53</ele>
        <time>2019-08-18T10:40:33Z</time>
      </trkpt>
      <trkpt lat="47.25887" lon="-2.32821">
        <ele>53</ele>
        <time>2019-08-18T10:40:34Z</time>
      </trkpt>
      <trkpt lat="47.25884" lon="-2.32812">
        <ele>53</ele>
        <time>2019-08-18T10:40:35Z</time>
      </trkpt>
      <trkpt lat="47.25881" lon="-2.32804">
        <ele>53</ele>
        <time>2019-08-18T10:40:36Z</time>
      </trkpt>
      <trkpt lat="47.25877" lon="-2.32787">
        <ele>54</ele>
        <time>2019-08-18T10:40:38Z</time>
      </trkpt>
      <trkpt lat="47.25874" lon="-2.32779">
        <ele>53</ele>
        <time>2019-08-18T10:40:39Z</time>
      </trkpt>
      <trkpt lat="47.25872" lon="-2.3277">
        <ele>53</ele>
        <time>2019-08-18T10:40:40Z</time>
      </trkpt>
      <trkpt lat="47.2587" lon="-2.32762">
        <ele>53</ele>
        <time>2019-08-18T10:40:41Z</time>
      </trkpt>
      <trkpt lat="47.25868" lon="-2.32754">
        <ele>53</ele>
        <time>2019-08-18T10:40:42Z</time>
      </trkpt>
      <trkpt lat="47.25866" lon="-2.32746">
        <ele>53</ele>
        <time>2019-08-18T10:40:43Z</time>
      </trkpt>
      <trkpt lat="47.25864" lon="-2.32738">
        <ele>53</ele>
        <time>2019-08-18T10:40:44Z</time>
      </trkpt>
      <trkpt lat="47.25862" lon="-2.3273">
        <ele>53</ele>
        <time>2019-08-18T10:40:45Z</time>
      </trkpt>
      <trkpt lat="47.25859" lon="-2.32722">
        <ele>53</ele>
        <time>2019-08-18T10:40:46Z</time>
      </trkpt>
      <trkpt lat="47.25857" lon="-2.32714">
        <ele>54</ele>
        <time>2019-08-18T10:40:47Z</time>
      </trkpt>
      <trkpt lat="47.25851" lon="-2.32699">
        <ele>54</ele>
        <time>2019-08-18T10:40:49Z</time>
      </trkpt>
      <trkpt lat="47.25848" lon="-2.32691">
        <ele>54</ele>
        <time>2019-08-18T10:40:50Z</time>
      </trkpt>
      <trkpt lat="47.25846" lon="-2.32683">
        <ele>54</ele>
        <time>2019-08-18T10:40:51Z</time>
      </trkpt>
      <trkpt lat="47.25843" lon="-2.32675">
        <ele>54</ele>
        <time>2019-08-18T10:40:52Z</time>
      </trkpt>
      <trkpt lat="47.25841" lon="-2.32668">
        <ele>54</ele>
        <time>2019-08-18T10:40:53Z</time>
      </trkpt>
      <trkpt lat="47.25839" lon="-2.3266">
        <ele>54</ele>
        <time>2019-08-18T10:40:54Z</time>
      </trkpt>
      <trkpt lat="47.25832" lon="-2.32635">
        <ele>54</ele>
        <time>2019-08-18T10:40:57Z</time>
      </trkpt>
      <trkpt lat="47.25831" lon="-2.32627">
        <ele>54</ele>
        <time>2019-08-18T10:40:58Z</time>
      </trkpt>
      <trkpt lat="47.25829" lon="-2.32619">
        <ele>54</ele>
        <time>2019-08-18T10:40:59Z</time>
      </trkpt>
      <trkpt lat="47.25828" lon="-2.32612">
        <ele>54</ele>
        <time>2019-08-18T10:41:00Z</time>
      </trkpt>
      <trkpt lat="47.25826" lon="-2.32604">
        <ele>54</ele>
        <time>2019-08-18T10:41:01Z</time>
      </trkpt>
      <trkpt lat="47.25823" lon="-2.32596">
        <ele>54</ele>
        <time>2019-08-18T10:41:02Z</time>
      </trkpt>
      <trkpt lat="47.25822" lon="-2.32588">
        <ele>55</ele>
        <time>2019-08-18T10:41:03Z</time>
      </trkpt>
      <trkpt lat="47.2582" lon="-2.3258">
        <ele>55</ele>
        <time>2019-08-18T10:41:04Z</time>
      </trkpt>
      <trkpt lat="47.25818" lon="-2.32571">
        <ele>56</ele>
        <time>2019-08-18T10:41:05Z</time>
      </trkpt>
      <trkpt lat="47.25816" lon="-2.32563">
        <ele>55</ele>
        <time>2019-08-18T10:41:06Z</time>
      </trkpt>
      <trkpt lat="47.25814" lon="-2.32555">
        <ele>55</ele>
        <time>2019-08-18T10:41:07Z</time>
      </trkpt>
      <trkpt lat="47.25812" lon="-2.32547">
        <ele>55</ele>
        <time>2019-08-18T10:41:08Z</time>
      </trkpt>
      <trkpt lat="47.2581" lon="-2.32539">
        <ele>54</ele>
        <time>2019-08-18T10:41:09Z</time>
      </trkpt>
      <trkpt lat="47.25808" lon="-2.32531">
        <ele>54</ele>
        <time>2019-08-18T10:41:10Z</time>
      </trkpt>
      <trkpt lat="47.25806" lon="-2.32523">
        <ele>54</ele>
        <time>2019-08-18T10:41:11Z</time>
      </trkpt>
      <trkpt lat="47.25802" lon="-2.32507">
        <ele>53</ele>
        <time>2019-08-18T10:41:13Z</time>
      </trkpt>
      <trkpt lat="47.258" lon="-2.325">
        <ele>53</ele>
        <time>2019-08-18T10:41:14Z</time>
      </trkpt>
      <trkpt lat="47.25799" lon="-2.32492">
        <ele>53</ele>
        <time>2019-08-18T10:41:15Z</time>
      </trkpt>
      <trkpt lat="47.25799" lon="-2.32485">
        <ele>53</ele>
        <time>2019-08-18T10:41:16Z</time>
      </trkpt>
      <trkpt lat="47.25801" lon="-2.32479">
        <ele>53</ele>
        <time>2019-08-18T10:41:17Z</time>
      </trkpt>
      <trkpt lat="47.2581" lon="-2.32473">
        <ele>53</ele>
        <time>2019-08-18T10:41:19Z</time>
      </trkpt>
      <trkpt lat="47.25815" lon="-2.32473">
        <ele>53</ele>
        <time>2019-08-18T10:41:20Z</time>
      </trkpt>
      <trkpt lat="47.2582" lon="-2.32474">
        <ele>53</ele>
        <time>2019-08-18T10:41:21Z</time>
      </trkpt>
      <trkpt lat="47.25824" lon="-2.32476">
        <ele>53</ele>
        <time>2019-08-18T10:41:22Z</time>
      </trkpt>
      <trkpt lat="47.25829" lon="-2.32479">
        <ele>53</ele>
        <time>2019-08-18T10:41:23Z</time>
      </trkpt>
      <trkpt lat="47.25838" lon="-2.32483">
        <ele>53</ele>
        <time>2019-08-18T10:41:25Z</time>
      </trkpt>
      <trkpt lat="47.25844" lon="-2.32484">
        <ele>54</ele>
        <time>2019-08-18T10:41:26Z</time>
      </trkpt>
      <trkpt lat="47.25849" lon="-2.32485">
        <ele>54</ele>
        <time>2019-08-18T10:41:27Z</time>
      </trkpt>
      <trkpt lat="47.25854" lon="-2.32485">
        <ele>54</ele>
        <time>2019-08-18T10:41:28Z</time>
      </trkpt>
      <trkpt lat="47.25859" lon="-2.32486">
        <ele>53</ele>
        <time>2019-08-18T10:41:29Z</time>
      </trkpt>
      <trkpt lat="47.25863" lon="-2.32488">
        <ele>53</ele>
        <time>2019-08-18T10:41:30Z</time>
      </trkpt>
      <trkpt lat="47.25868" lon="-2.32487">
        <ele>53</ele>
        <time>2019-08-18T10:41:31Z</time>
      </trkpt>
      <trkpt lat="47.25873" lon="-2.32488">
        <ele>52</ele>
        <time>2019-08-18T10:41:32Z</time>
      </trkpt>
      <trkpt lat="47.25887" lon="-2.32479">
        <ele>52</ele>
        <time>2019-08-18T10:41:36Z</time>
      </trkpt>
      <trkpt lat="47.25891" lon="-2.32468">
        <ele>53</ele>
        <time>2019-08-18T10:41:38Z</time>
      </trkpt>
      <trkpt lat="47.25895" lon="-2.32463">
        <ele>53</ele>
        <time>2019-08-18T10:41:39Z</time>
      </trkpt>
      <trkpt lat="47.25903" lon="-2.32455">
        <ele>53</ele>
        <time>2019-08-18T10:41:41Z</time>
      </trkpt>
      <trkpt lat="47.25907" lon="-2.3245">
        <ele>53</ele>
        <time>2019-08-18T10:41:42Z</time>
      </trkpt>
      <trkpt lat="47.25911" lon="-2.32446">
        <ele>53</ele>
        <time>2019-08-18T10:41:43Z</time>
      </trkpt>
      <trkpt lat="47.25916" lon="-2.3244">
        <ele>54</ele>
        <time>2019-08-18T10:41:44Z</time>
      </trkpt>
      <trkpt lat="47.25921" lon="-2.32435">
        <ele>54</ele>
        <time>2019-08-18T10:41:45Z</time>
      </trkpt>
      <trkpt lat="47.25926" lon="-2.32429">
        <ele>54</ele>
        <time>2019-08-18T10:41:46Z</time>
      </trkpt>
      <trkpt lat="47.2593" lon="-2.32424">
        <ele>54</ele>
        <time>2019-08-18T10:41:47Z</time>
      </trkpt>
      <trkpt lat="47.25939" lon="-2.32412">
        <ele>53</ele>
        <time>2019-08-18T10:41:49Z</time>
      </trkpt>
      <trkpt lat="47.25943" lon="-2.32406">
        <ele>53</ele>
        <time>2019-08-18T10:41:50Z</time>
      </trkpt>
      <trkpt lat="47.25947" lon="-2.324">
        <ele>53</ele>
        <time>2019-08-18T10:41:51Z</time>
      </trkpt>
      <trkpt lat="47.2596" lon="-2.32383">
        <ele>53</ele>
        <time>2019-08-18T10:41:54Z</time>
      </trkpt>
      <trkpt lat="47.25964" lon="-2.32377">
        <ele>53</ele>
        <time>2019-08-18T10:41:55Z</time>
      </trkpt>
      <trkpt lat="47.25968" lon="-2.32371">
        <ele>53</ele>
        <time>2019-08-18T10:41:56Z</time>
      </trkpt>
      <trkpt lat="47.25973" lon="-2.32365">
        <ele>53</ele>
        <time>2019-08-18T10:41:57Z</time>
      </trkpt>
      <trkpt lat="47.25982" lon="-2.32354">
        <ele>52</ele>
        <time>2019-08-18T10:41:59Z</time>
      </trkpt>
      <trkpt lat="47.25987" lon="-2.32348">
        <ele>52</ele>
        <time>2019-08-18T10:42:00Z</time>
      </trkpt>
      <trkpt lat="47.25991" lon="-2.32342">
        <ele>52</ele>
        <time>2019-08-18T10:42:01Z</time>
      </trkpt>
      <trkpt lat="47.25999" lon="-2.3233">
        <ele>52</ele>
        <time>2019-08-18T10:42:03Z</time>
      </trkpt>
      <trkpt lat="47.26008" lon="-2.32319">
        <ele>53</ele>
        <time>2019-08-18T10:42:05Z</time>
      </trkpt>
      <trkpt lat="47.26021" lon="-2.32304">
        <ele>53</ele>
        <time>2019-08-18T10:42:08Z</time>
      </trkpt>
      <trkpt lat="47.2603" lon="-2.32293">
        <ele>53</ele>
        <time>2019-08-18T10:42:10Z</time>
      </trkpt>
      <trkpt lat="47.26035" lon="-2.32288">
        <ele>53</ele>
        <time>2019-08-18T10:42:11Z</time>
      </trkpt>
      <trkpt lat="47.26044" lon="-2.32277">
        <ele>53</ele>
        <time>2019-08-18T10:42:13Z</time>
      </trkpt>
      <trkpt lat="47.26048" lon="-2.32272">
        <ele>53</ele>
        <time>2019-08-18T10:42:14Z</time>
      </trkpt>
      <trkpt lat="47.26053" lon="-2.32266">
        <ele>53</ele>
        <time>2019-08-18T10:42:15Z</time>
      </trkpt>
      <trkpt lat="47.26057" lon="-2.32261">
        <ele>53</ele>
        <time>2019-08-18T10:42:16Z</time>
      </trkpt>
      <trkpt lat="47.26061" lon="-2.32256">
        <ele>53</ele>
        <time>2019-08-18T10:42:17Z</time>
      </trkpt>
      <trkpt lat="47.26066" lon="-2.32251">
        <ele>53</ele>
        <time>2019-08-18T10:42:18Z</time>
      </trkpt>
      <trkpt lat="47.26075" lon="-2.32241">
        <ele>54</ele>
        <time>2019-08-18T10:42:20Z</time>
      </trkpt>
      <trkpt lat="47.26087" lon="-2.32224">
        <ele>54</ele>
        <time>2019-08-18T10:42:23Z</time>
      </trkpt>
      <trkpt lat="47.26091" lon="-2.32219">
        <ele>53</ele>
        <time>2019-08-18T10:42:24Z</time>
      </trkpt>
      <trkpt lat="47.26098" lon="-2.32207">
        <ele>53</ele>
        <time>2019-08-18T10:42:26Z</time>
      </trkpt>
      <trkpt lat="47.26101" lon="-2.322">
        <ele>53</ele>
        <time>2019-08-18T10:42:27Z</time>
      </trkpt>
      <trkpt lat="47.26105" lon="-2.32194">
        <ele>53</ele>
        <time>2019-08-18T10:42:28Z</time>
      </trkpt>
      <trkpt lat="47.26111" lon="-2.3218">
        <ele>54</ele>
        <time>2019-08-18T10:42:30Z</time>
      </trkpt>
      <trkpt lat="47.26114" lon="-2.32173">
        <ele>53</ele>
        <time>2019-08-18T10:42:31Z</time>
      </trkpt>
      <trkpt lat="47.26118" lon="-2.32166">
        <ele>53</ele>
        <time>2019-08-18T10:42:32Z</time>
      </trkpt>
      <trkpt lat="47.2612" lon="-2.32159">
        <ele>53</ele>
        <time>2019-08-18T10:42:33Z</time>
      </trkpt>
      <trkpt lat="47.26123" lon="-2.32151">
        <ele>53</ele>
        <time>2019-08-18T10:42:34Z</time>
      </trkpt>
      <trkpt lat="47.2613" lon="-2.32126">
        <ele>53</ele>
        <time>2019-08-18T10:42:37Z</time>
      </trkpt>
      <trkpt lat="47.26133" lon="-2.32119">
        <ele>54</ele>
        <time>2019-08-18T10:42:38Z</time>
      </trkpt>
      <trkpt lat="47.26135" lon="-2.32111">
        <ele>54</ele>
        <time>2019-08-18T10:42:39Z</time>
      </trkpt>
      <trkpt lat="47.26137" lon="-2.32104">
        <ele>53</ele>
        <time>2019-08-18T10:42:40Z</time>
      </trkpt>
      <trkpt lat="47.26139" lon="-2.32096">
        <ele>53</ele>
        <time>2019-08-18T10:42:41Z</time>
      </trkpt>
      <trkpt lat="47.26141" lon="-2.32088">
        <ele>53</ele>
        <time>2019-08-18T10:42:42Z</time>
      </trkpt>
      <trkpt lat="47.26144" lon="-2.3208">
        <ele>53</ele>
        <time>2019-08-18T10:42:43Z</time>
      </trkpt>
      <trkpt lat="47.26146" lon="-2.32073">
        <ele>53</ele>
        <time>2019-08-18T10:42:44Z</time>
      </trkpt>
      <trkpt lat="47.26148" lon="-2.32066">
        <ele>53</ele>
        <time>2019-08-18T10:42:45Z</time>
      </trkpt>
      <trkpt lat="47.26151" lon="-2.32059">
        <ele>53</ele>
        <time>2019-08-18T10:42:46Z</time>
      </trkpt>
      <trkpt lat="47.26153" lon="-2.32052">
        <ele>53</ele>
        <time>2019-08-18T10:42:47Z</time>
      </trkpt>
      <trkpt lat="47.26155" lon="-2.32045">
        <ele>53</ele>
        <time>2019-08-18T10:42:48Z</time>
      </trkpt>
      <trkpt lat="47.26157" lon="-2.32038">
        <ele>53</ele>
        <time>2019-08-18T10:42:49Z</time>
      </trkpt>
      <trkpt lat="47.2616" lon="-2.32031">
        <ele>53</ele>
        <time>2019-08-18T10:42:50Z</time>
      </trkpt>
      <trkpt lat="47.26163" lon="-2.32027">
        <ele>54</ele>
        <time>2019-08-18T10:42:51Z</time>
      </trkpt>
      <trkpt lat="47.26168" lon="-2.32023">
        <ele>54</ele>
        <time>2019-08-18T10:42:52Z</time>
      </trkpt>
      <trkpt lat="47.26172" lon="-2.32023">
        <ele>54</ele>
        <time>2019-08-18T10:42:53Z</time>
      </trkpt>
      <trkpt lat="47.2618" lon="-2.32023">
        <ele>54</ele>
        <time>2019-08-18T10:42:55Z</time>
      </trkpt>
      <trkpt lat="47.26183" lon="-2.32024">
        <ele>54</ele>
        <time>2019-08-18T10:42:56Z</time>
      </trkpt>
      <trkpt lat="47.26188" lon="-2.32026">
        <ele>54</ele>
        <time>2019-08-18T10:42:58Z</time>
      </trkpt>
      <trkpt lat="47.26193" lon="-2.32026">
        <ele>54</ele>
        <time>2019-08-18T10:43:00Z</time>
      </trkpt>
      <trkpt lat="47.26197" lon="-2.32017">
        <ele>55</ele>
        <time>2019-08-18T10:43:04Z</time>
      </trkpt>
      <trkpt lat="47.262" lon="-2.32009">
        <ele>55</ele>
        <time>2019-08-18T10:43:07Z</time>
      </trkpt>
      <trkpt lat="47.26204" lon="-2.32003">
        <ele>56</ele>
        <time>2019-08-18T10:43:09Z</time>
      </trkpt>
      <trkpt lat="47.26206" lon="-2.32">
        <ele>56</ele>
        <time>2019-08-18T10:43:10Z</time>
      </trkpt>
      <trkpt lat="47.26211" lon="-2.31996">
        <ele>56</ele>
        <time>2019-08-18T10:43:12Z</time>
      </trkpt>
      <trkpt lat="47.26214" lon="-2.31994">
        <ele>56</ele>
        <time>2019-08-18T10:43:13Z</time>
      </trkpt>
      <trkpt lat="47.26222" lon="-2.31985">
        <ele>56</ele>
        <time>2019-08-18T10:43:16Z</time>
      </trkpt>
      <trkpt lat="47.26224" lon="-2.31982">
        <ele>56</ele>
        <time>2019-08-18T10:43:17Z</time>
      </trkpt>
      <trkpt lat="47.26227" lon="-2.31979">
        <ele>56</ele>
        <time>2019-08-18T10:43:18Z</time>
      </trkpt>
      <trkpt lat="47.26236" lon="-2.31967">
        <ele>57</ele>
        <time>2019-08-18T10:43:21Z</time>
      </trkpt>
      <trkpt lat="47.26242" lon="-2.31962">
        <ele>56</ele>
        <time>2019-08-18T10:43:22Z</time>
      </trkpt>
      <trkpt lat="47.26248" lon="-2.31954">
        <ele>57</ele>
        <time>2019-08-18T10:43:24Z</time>
      </trkpt>
      <trkpt lat="47.26257" lon="-2.31939">
        <ele>58</ele>
        <time>2019-08-18T10:43:28Z</time>
      </trkpt>
      <trkpt lat="47.26259" lon="-2.31935">
        <ele>57</ele>
        <time>2019-08-18T10:43:29Z</time>
      </trkpt>
      <trkpt lat="47.26263" lon="-2.31928">
        <ele>58</ele>
        <time>2019-08-18T10:43:31Z</time>
      </trkpt>
      <trkpt lat="47.26265" lon="-2.31924">
        <ele>58</ele>
        <time>2019-08-18T10:43:32Z</time>
      </trkpt>
      <trkpt lat="47.26272" lon="-2.31916">
        <ele>59</ele>
        <time>2019-08-18T10:43:34Z</time>
      </trkpt>
      <trkpt lat="47.26281" lon="-2.31907">
        <ele>59</ele>
        <time>2019-08-18T10:43:36Z</time>
      </trkpt>
      <trkpt lat="47.26285" lon="-2.31903">
        <ele>59</ele>
        <time>2019-08-18T10:43:37Z</time>
      </trkpt>
      <trkpt lat="47.26289" lon="-2.31899">
        <ele>59</ele>
        <time>2019-08-18T10:43:38Z</time>
      </trkpt>
      <trkpt lat="47.26294" lon="-2.31892">
        <ele>59</ele>
        <time>2019-08-18T10:43:40Z</time>
      </trkpt>
      <trkpt lat="47.26297" lon="-2.31878">
        <ele>59</ele>
        <time>2019-08-18T10:43:43Z</time>
      </trkpt>
      <trkpt lat="47.26297" lon="-2.31868">
        <ele>60</ele>
        <time>2019-08-18T10:43:45Z</time>
      </trkpt>
      <trkpt lat="47.26297" lon="-2.31862">
        <ele>60</ele>
        <time>2019-08-18T10:43:46Z</time>
      </trkpt>
      <trkpt lat="47.26299" lon="-2.31855">
        <ele>60</ele>
        <time>2019-08-18T10:43:47Z</time>
      </trkpt>
      <trkpt lat="47.263" lon="-2.31848">
        <ele>59</ele>
        <time>2019-08-18T10:43:48Z</time>
      </trkpt>
      <trkpt lat="47.26301" lon="-2.31842">
        <ele>58</ele>
        <time>2019-08-18T10:43:49Z</time>
      </trkpt>
      <trkpt lat="47.26303" lon="-2.31836">
        <ele>58</ele>
        <time>2019-08-18T10:43:50Z</time>
      </trkpt>
      <trkpt lat="47.26303" lon="-2.31821">
        <ele>59</ele>
        <time>2019-08-18T10:43:53Z</time>
      </trkpt>
      <trkpt lat="47.26304" lon="-2.31814">
        <ele>59</ele>
        <time>2019-08-18T10:43:54Z</time>
      </trkpt>
      <trkpt lat="47.26305" lon="-2.31803">
        <ele>59</ele>
        <time>2019-08-18T10:43:56Z</time>
      </trkpt>
      <trkpt lat="47.26304" lon="-2.31782">
        <ele>59</ele>
        <time>2019-08-18T10:43:59Z</time>
      </trkpt>
      <trkpt lat="47.26303" lon="-2.31771">
        <ele>60</ele>
        <time>2019-08-18T10:44:01Z</time>
      </trkpt>
      <trkpt lat="47.263" lon="-2.31746">
        <ele>60</ele>
        <time>2019-08-18T10:44:05Z</time>
      </trkpt>
      <trkpt lat="47.26298" lon="-2.3174">
        <ele>60</ele>
        <time>2019-08-18T10:44:06Z</time>
      </trkpt>
      <trkpt lat="47.263" lon="-2.31732">
        <ele>60</ele>
        <time>2019-08-18T10:44:07Z</time>
      </trkpt>
      <trkpt lat="47.26309" lon="-2.3172">
        <ele>61</ele>
        <time>2019-08-18T10:44:10Z</time>
      </trkpt>
      <trkpt lat="47.26317" lon="-2.31713">
        <ele>61</ele>
        <time>2019-08-18T10:44:12Z</time>
      </trkpt>
      <trkpt lat="47.26325" lon="-2.31708">
        <ele>61</ele>
        <time>2019-08-18T10:44:14Z</time>
      </trkpt>
      <trkpt lat="47.26329" lon="-2.317">
        <ele>61</ele>
        <time>2019-08-18T10:44:16Z</time>
      </trkpt>
      <trkpt lat="47.26335" lon="-2.31692">
        <ele>61</ele>
        <time>2019-08-18T10:44:18Z</time>
      </trkpt>
      <trkpt lat="47.26342" lon="-2.31687">
        <ele>61</ele>
        <time>2019-08-18T10:44:20Z</time>
      </trkpt>
      <trkpt lat="47.26349" lon="-2.31684">
        <ele>59</ele>
        <time>2019-08-18T10:44:22Z</time>
      </trkpt>
      <trkpt lat="47.26355" lon="-2.31681">
        <ele>59</ele>
        <time>2019-08-18T10:44:24Z</time>
      </trkpt>
      <trkpt lat="47.26364" lon="-2.31676">
        <ele>59</ele>
        <time>2019-08-18T10:44:27Z</time>
      </trkpt>
      <trkpt lat="47.26371" lon="-2.31674">
        <ele>59</ele>
        <time>2019-08-18T10:44:29Z</time>
      </trkpt>
      <trkpt lat="47.26378" lon="-2.3167">
        <ele>59</ele>
        <time>2019-08-18T10:44:31Z</time>
      </trkpt>
      <trkpt lat="47.26384" lon="-2.31666">
        <ele>59</ele>
        <time>2019-08-18T10:44:33Z</time>
      </trkpt>
      <trkpt lat="47.26387" lon="-2.31664">
        <ele>60</ele>
        <time>2019-08-18T10:44:34Z</time>
      </trkpt>
      <trkpt lat="47.2639" lon="-2.31662">
        <ele>59</ele>
        <time>2019-08-18T10:44:35Z</time>
      </trkpt>
      <trkpt lat="47.26393" lon="-2.3166">
        <ele>59</ele>
        <time>2019-08-18T10:44:36Z</time>
      </trkpt>
      <trkpt lat="47.26399" lon="-2.31658">
        <ele>59</ele>
        <time>2019-08-18T10:44:38Z</time>
      </trkpt>
      <trkpt lat="47.26406" lon="-2.31654">
        <ele>59</ele>
        <time>2019-08-18T10:44:40Z</time>
      </trkpt>
      <trkpt lat="47.26409" lon="-2.31647">
        <ele>59</ele>
        <time>2019-08-18T10:44:42Z</time>
      </trkpt>
      <trkpt lat="47.26408" lon="-2.31638">
        <ele>59</ele>
        <time>2019-08-18T10:44:44Z</time>
      </trkpt>
      <trkpt lat="47.26409" lon="-2.31628">
        <ele>59</ele>
        <time>2019-08-18T10:44:46Z</time>
      </trkpt>
      <trkpt lat="47.26409" lon="-2.31617">
        <ele>60</ele>
        <time>2019-08-18T10:44:48Z</time>
      </trkpt>
      <trkpt lat="47.26409" lon="-2.31612">
        <ele>60</ele>
        <time>2019-08-18T10:44:49Z</time>
      </trkpt>
      <trkpt lat="47.26409" lon="-2.31602">
        <ele>60</ele>
        <time>2019-08-18T10:44:51Z</time>
      </trkpt>
      <trkpt lat="47.2641" lon="-2.31597">
        <ele>60</ele>
        <time>2019-08-18T10:44:52Z</time>
      </trkpt>
      <trkpt lat="47.2641" lon="-2.31592">
        <ele>60</ele>
        <time>2019-08-18T10:44:53Z</time>
      </trkpt>
      <trkpt lat="47.2641" lon="-2.31581">
        <ele>60</ele>
        <time>2019-08-18T10:44:55Z</time>
      </trkpt>
      <trkpt lat="47.2641" lon="-2.31576">
        <ele>60</ele>
        <time>2019-08-18T10:44:56Z</time>
      </trkpt>
      <trkpt lat="47.26409" lon="-2.31567">
        <ele>61</ele>
        <time>2019-08-18T10:44:58Z</time>
      </trkpt>
      <trkpt lat="47.26408" lon="-2.31563">
        <ele>61</ele>
        <time>2019-08-18T10:44:59Z</time>
      </trkpt>
      <trkpt lat="47.26408" lon="-2.31559">
        <ele>61</ele>
        <time>2019-08-18T10:45:00Z</time>
      </trkpt>
      <trkpt lat="47.26415" lon="-2.31555">
        <ele>61</ele>
        <time>2019-08-18T10:45:04Z</time>
      </trkpt>
      <trkpt lat="47.26415" lon="-2.31555">
        <ele>61</ele>
        <time>2019-08-18T10:45:10Z</time>
      </trkpt>
      <trkpt lat="47.26415" lon="-2.31555">
        <ele>9.9</ele>
        <time>2019-08-18T10:45:10Z</time>
      </trkpt>
      <trkpt lat="47.26415" lon="-2.31555">
        <ele>9.9</ele>
        <time>2019-08-18T10:46:12Z</time>
      </trkpt>
    </trkseg>
  </trk>
</gpx>